<?xml version="1.0" encoding="UTF-8" standalone="no" ?>
<gpx xmlns="http://www.topografix.com/GPX/1/1" xmlns:xsi="http://www.w3.org/2001/XMLSchema-instance" xsi:schemaLocation="http://www.topografix.com/GPX/1/1 http://www.topografix.com/GPX/1/1/gpx.xsd" version="1.1" creator="VisuGPX - https://www.visugpx.com">
  <metadata>
    <name>L'halangeoise</name>
  </metadata>
  <trk>
    <name><![CDATA[L'halangeoise_1]]></name>
    <trkseg>
      <trkpt lat="49.55844" lon="5.746">
        <ele>266.5</ele>
        <time>1970-01-01T01:54:43.000Z</time>
      </trkpt>
      <trkpt lat="49.55844" lon="5.7459">
        <ele>266.4</ele>
        <time>1970-01-01T01:54:41.000Z</time>
      </trkpt>
      <trkpt lat="49.55843" lon="5.74579">
        <ele>266.2</ele>
        <time>1970-01-01T01:54:39.000Z</time>
      </trkpt>
      <trkpt lat="49.55838" lon="5.74566">
        <ele>266</ele>
        <time>1970-01-01T01:54:37.000Z</time>
      </trkpt>
      <trkpt lat="49.55835" lon="5.7456">
        <ele>265.9</ele>
        <time>1970-01-01T01:54:36.000Z</time>
      </trkpt>
      <trkpt lat="49.55832" lon="5.74545">
        <ele>265.5</ele>
        <time>1970-01-01T01:54:34.000Z</time>
      </trkpt>
      <trkpt lat="49.55833" lon="5.74529">
        <ele>265.3</ele>
        <time>1970-01-01T01:54:32.000Z</time>
      </trkpt>
      <trkpt lat="49.55834" lon="5.74514">
        <ele>265.1</ele>
        <time>1970-01-01T01:54:30.000Z</time>
      </trkpt>
      <trkpt lat="49.55835" lon="5.74507">
        <ele>265.1</ele>
        <time>1970-01-01T01:54:29.000Z</time>
      </trkpt>
      <trkpt lat="49.55836" lon="5.74492">
        <ele>264.9</ele>
        <time>1970-01-01T01:54:27.000Z</time>
      </trkpt>
      <trkpt lat="49.55837" lon="5.74477">
        <ele>264.8</ele>
        <time>1970-01-01T01:54:25.000Z</time>
      </trkpt>
      <trkpt lat="49.55837" lon="5.7447">
        <ele>264.8</ele>
        <time>1970-01-01T01:54:24.000Z</time>
      </trkpt>
      <trkpt lat="49.55839" lon="5.74455">
        <ele>264.8</ele>
        <time>1970-01-01T01:54:22.000Z</time>
      </trkpt>
      <trkpt lat="49.5584" lon="5.74447">
        <ele>264.8</ele>
        <time>1970-01-01T01:54:21.000Z</time>
      </trkpt>
      <trkpt lat="49.5584" lon="5.7444">
        <ele>264.8</ele>
        <time>1970-01-01T01:54:20.000Z</time>
      </trkpt>
      <trkpt lat="49.55842" lon="5.74424">
        <ele>264.8</ele>
        <time>1970-01-01T01:54:18.000Z</time>
      </trkpt>
      <trkpt lat="49.55843" lon="5.74416">
        <ele>264.7</ele>
        <time>1970-01-01T01:54:17.000Z</time>
      </trkpt>
      <trkpt lat="49.55844" lon="5.744">
        <ele>264.6</ele>
        <time>1970-01-01T01:54:15.000Z</time>
      </trkpt>
      <trkpt lat="49.55845" lon="5.74392">
        <ele>264.5</ele>
        <time>1970-01-01T01:54:14.000Z</time>
      </trkpt>
      <trkpt lat="49.55846" lon="5.74376">
        <ele>264.4</ele>
        <time>1970-01-01T01:54:12.000Z</time>
      </trkpt>
      <trkpt lat="49.55847" lon="5.74359">
        <ele>264.4</ele>
        <time>1970-01-01T01:54:10.000Z</time>
      </trkpt>
      <trkpt lat="49.55848" lon="5.74351">
        <ele>264.4</ele>
        <time>1970-01-01T01:54:09.000Z</time>
      </trkpt>
      <trkpt lat="49.5585" lon="5.74335">
        <ele>264.5</ele>
        <time>1970-01-01T01:54:07.000Z</time>
      </trkpt>
      <trkpt lat="49.55851" lon="5.74327">
        <ele>264.5</ele>
        <time>1970-01-01T01:54:06.000Z</time>
      </trkpt>
      <trkpt lat="49.55857" lon="5.74317">
        <ele>264.4</ele>
        <time>1970-01-01T01:54:04.000Z</time>
      </trkpt>
      <trkpt lat="49.55866" lon="5.74317">
        <ele>264.3</ele>
        <time>1970-01-01T01:54:02.000Z</time>
      </trkpt>
      <trkpt lat="49.5587" lon="5.74317">
        <ele>264.3</ele>
        <time>1970-01-01T01:54:01.000Z</time>
      </trkpt>
      <trkpt lat="49.5588" lon="5.74318">
        <ele>264.3</ele>
        <time>1970-01-01T01:53:59.000Z</time>
      </trkpt>
      <trkpt lat="49.55886" lon="5.74317">
        <ele>264.3</ele>
        <time>1970-01-01T01:53:58.000Z</time>
      </trkpt>
      <trkpt lat="49.55896" lon="5.74317">
        <ele>264.2</ele>
        <time>1970-01-01T01:53:56.000Z</time>
      </trkpt>
      <trkpt lat="49.55901" lon="5.74317">
        <ele>264.2</ele>
        <time>1970-01-01T01:53:55.000Z</time>
      </trkpt>
      <trkpt lat="49.55912" lon="5.74315">
        <ele>264.1</ele>
        <time>1970-01-01T01:53:53.000Z</time>
      </trkpt>
      <trkpt lat="49.55921" lon="5.74312">
        <ele>264.1</ele>
        <time>1970-01-01T01:53:51.000Z</time>
      </trkpt>
      <trkpt lat="49.55927" lon="5.74311">
        <ele>264</ele>
        <time>1970-01-01T01:53:50.000Z</time>
      </trkpt>
      <trkpt lat="49.55936" lon="5.74305">
        <ele>263.8</ele>
        <time>1970-01-01T01:53:48.000Z</time>
      </trkpt>
      <trkpt lat="49.55939" lon="5.74303">
        <ele>263.8</ele>
        <time>1970-01-01T01:53:47.000Z</time>
      </trkpt>
      <trkpt lat="49.55945" lon="5.74298">
        <ele>263.7</ele>
        <time>1970-01-01T01:53:45.000Z</time>
      </trkpt>
      <trkpt lat="49.55946" lon="5.74287">
        <ele>263.6</ele>
        <time>1970-01-01T01:53:43.000Z</time>
      </trkpt>
      <trkpt lat="49.55946" lon="5.74272">
        <ele>263.5</ele>
        <time>1970-01-01T01:53:41.000Z</time>
      </trkpt>
      <trkpt lat="49.55946" lon="5.74263">
        <ele>263.4</ele>
        <time>1970-01-01T01:53:40.000Z</time>
      </trkpt>
      <trkpt lat="49.55946" lon="5.74246">
        <ele>263.3</ele>
        <time>1970-01-01T01:53:38.000Z</time>
      </trkpt>
      <trkpt lat="49.55946" lon="5.74228">
        <ele>263.2</ele>
        <time>1970-01-01T01:53:36.000Z</time>
      </trkpt>
      <trkpt lat="49.55946" lon="5.7422">
        <ele>263.2</ele>
        <time>1970-01-01T01:53:35.000Z</time>
      </trkpt>
      <trkpt lat="49.55945" lon="5.74202">
        <ele>263.2</ele>
        <time>1970-01-01T01:53:33.000Z</time>
      </trkpt>
      <trkpt lat="49.55945" lon="5.74184">
        <ele>263.2</ele>
        <time>1970-01-01T01:53:31.000Z</time>
      </trkpt>
      <trkpt lat="49.55945" lon="5.74176">
        <ele>263.2</ele>
        <time>1970-01-01T01:53:30.000Z</time>
      </trkpt>
      <trkpt lat="49.55943" lon="5.74159">
        <ele>263.1</ele>
        <time>1970-01-01T01:53:28.000Z</time>
      </trkpt>
      <trkpt lat="49.55943" lon="5.74151">
        <ele>263.1</ele>
        <time>1970-01-01T01:53:27.000Z</time>
      </trkpt>
      <trkpt lat="49.55941" lon="5.74134">
        <ele>263.1</ele>
        <time>1970-01-01T01:53:25.000Z</time>
      </trkpt>
      <trkpt lat="49.55939" lon="5.74121">
        <ele>263.1</ele>
        <time>1970-01-01T01:53:23.000Z</time>
      </trkpt>
      <trkpt lat="49.55938" lon="5.74104">
        <ele>262.9</ele>
        <time>1970-01-01T01:53:21.000Z</time>
      </trkpt>
      <trkpt lat="49.55939" lon="5.74089">
        <ele>262.8</ele>
        <time>1970-01-01T01:53:19.000Z</time>
      </trkpt>
      <trkpt lat="49.55941" lon="5.74081">
        <ele>262.8</ele>
        <time>1970-01-01T01:53:17.000Z</time>
      </trkpt>
      <trkpt lat="49.55947" lon="5.74073">
        <ele>262.5</ele>
        <time>1970-01-01T01:53:15.000Z</time>
      </trkpt>
      <trkpt lat="49.55952" lon="5.74061">
        <ele>262.2</ele>
        <time>1970-01-01T01:53:13.000Z</time>
      </trkpt>
      <trkpt lat="49.55954" lon="5.74054">
        <ele>262</ele>
        <time>1970-01-01T01:53:12.000Z</time>
      </trkpt>
      <trkpt lat="49.55957" lon="5.74039">
        <ele>261.8</ele>
        <time>1970-01-01T01:53:10.000Z</time>
      </trkpt>
      <trkpt lat="49.55958" lon="5.74031">
        <ele>261.7</ele>
        <time>1970-01-01T01:53:09.000Z</time>
      </trkpt>
      <trkpt lat="49.55961" lon="5.74017">
        <ele>261.6</ele>
        <time>1970-01-01T01:53:07.000Z</time>
      </trkpt>
      <trkpt lat="49.55962" lon="5.7401">
        <ele>261.5</ele>
        <time>1970-01-01T01:53:06.000Z</time>
      </trkpt>
      <trkpt lat="49.55963" lon="5.74002">
        <ele>261.3</ele>
        <time>1970-01-01T01:53:05.000Z</time>
      </trkpt>
      <trkpt lat="49.55964" lon="5.73987">
        <ele>261.2</ele>
        <time>1970-01-01T01:53:03.000Z</time>
      </trkpt>
      <trkpt lat="49.55963" lon="5.73979">
        <ele>261.2</ele>
        <time>1970-01-01T01:53:02.000Z</time>
      </trkpt>
      <trkpt lat="49.55963" lon="5.7397">
        <ele>261.2</ele>
        <time>1970-01-01T01:53:01.000Z</time>
      </trkpt>
      <trkpt lat="49.55963" lon="5.73954">
        <ele>261.1</ele>
        <time>1970-01-01T01:52:59.000Z</time>
      </trkpt>
      <trkpt lat="49.55964" lon="5.73939">
        <ele>260.9</ele>
        <time>1970-01-01T01:52:57.000Z</time>
      </trkpt>
      <trkpt lat="49.55969" lon="5.73926">
        <ele>260.7</ele>
        <time>1970-01-01T01:52:55.000Z</time>
      </trkpt>
      <trkpt lat="49.55973" lon="5.73922">
        <ele>260.7</ele>
        <time>1970-01-01T01:52:54.000Z</time>
      </trkpt>
      <trkpt lat="49.55982" lon="5.73915">
        <ele>260.7</ele>
        <time>1970-01-01T01:52:52.000Z</time>
      </trkpt>
      <trkpt lat="49.55987" lon="5.73911">
        <ele>260.8</ele>
        <time>1970-01-01T01:52:51.000Z</time>
      </trkpt>
      <trkpt lat="49.55992" lon="5.73907">
        <ele>260.8</ele>
        <time>1970-01-01T01:52:50.000Z</time>
      </trkpt>
      <trkpt lat="49.55997" lon="5.73903">
        <ele>260.9</ele>
        <time>1970-01-01T01:52:49.000Z</time>
      </trkpt>
      <trkpt lat="49.56006" lon="5.73894">
        <ele>261</ele>
        <time>1970-01-01T01:52:47.000Z</time>
      </trkpt>
      <trkpt lat="49.56011" lon="5.7389">
        <ele>261</ele>
        <time>1970-01-01T01:52:46.000Z</time>
      </trkpt>
      <trkpt lat="49.56021" lon="5.73882">
        <ele>261</ele>
        <time>1970-01-01T01:52:44.000Z</time>
      </trkpt>
      <trkpt lat="49.56026" lon="5.73879">
        <ele>260.9</ele>
        <time>1970-01-01T01:52:43.000Z</time>
      </trkpt>
      <trkpt lat="49.56036" lon="5.7387">
        <ele>260.9</ele>
        <time>1970-01-01T01:52:41.000Z</time>
      </trkpt>
      <trkpt lat="49.56041" lon="5.73866">
        <ele>260.8</ele>
        <time>1970-01-01T01:52:40.000Z</time>
      </trkpt>
      <trkpt lat="49.5605" lon="5.73858">
        <ele>260.6</ele>
        <time>1970-01-01T01:52:38.000Z</time>
      </trkpt>
      <trkpt lat="49.56055" lon="5.73853">
        <ele>260.5</ele>
        <time>1970-01-01T01:52:37.000Z</time>
      </trkpt>
      <trkpt lat="49.56064" lon="5.73844">
        <ele>260.3</ele>
        <time>1970-01-01T01:52:35.000Z</time>
      </trkpt>
      <trkpt lat="49.56069" lon="5.7384">
        <ele>260.2</ele>
        <time>1970-01-01T01:52:34.000Z</time>
      </trkpt>
      <trkpt lat="49.56078" lon="5.73833">
        <ele>260.1</ele>
        <time>1970-01-01T01:52:32.000Z</time>
      </trkpt>
      <trkpt lat="49.56088" lon="5.73825">
        <ele>260.1</ele>
        <time>1970-01-01T01:52:30.000Z</time>
      </trkpt>
      <trkpt lat="49.56098" lon="5.73817">
        <ele>260</ele>
        <time>1970-01-01T01:52:28.000Z</time>
      </trkpt>
      <trkpt lat="49.56102" lon="5.73813">
        <ele>260</ele>
        <time>1970-01-01T01:52:27.000Z</time>
      </trkpt>
      <trkpt lat="49.56112" lon="5.73805">
        <ele>260</ele>
        <time>1970-01-01T01:52:25.000Z</time>
      </trkpt>
      <trkpt lat="49.56117" lon="5.73801">
        <ele>260</ele>
        <time>1970-01-01T01:52:24.000Z</time>
      </trkpt>
      <trkpt lat="49.56127" lon="5.73794">
        <ele>260</ele>
        <time>1970-01-01T01:52:22.000Z</time>
      </trkpt>
      <trkpt lat="49.56137" lon="5.73787">
        <ele>259.9</ele>
        <time>1970-01-01T01:52:20.000Z</time>
      </trkpt>
      <trkpt lat="49.56142" lon="5.73784">
        <ele>259.8</ele>
        <time>1970-01-01T01:52:19.000Z</time>
      </trkpt>
      <trkpt lat="49.56147" lon="5.73781">
        <ele>259.8</ele>
        <time>1970-01-01T01:52:18.000Z</time>
      </trkpt>
      <trkpt lat="49.56152" lon="5.73777">
        <ele>259.8</ele>
        <time>1970-01-01T01:52:17.000Z</time>
      </trkpt>
      <trkpt lat="49.56161" lon="5.73768">
        <ele>259.7</ele>
        <time>1970-01-01T01:52:15.000Z</time>
      </trkpt>
      <trkpt lat="49.56166" lon="5.73763">
        <ele>259.7</ele>
        <time>1970-01-01T01:52:14.000Z</time>
      </trkpt>
      <trkpt lat="49.56171" lon="5.73759">
        <ele>259.7</ele>
        <time>1970-01-01T01:52:13.000Z</time>
      </trkpt>
      <trkpt lat="49.56181" lon="5.73751">
        <ele>259.6</ele>
        <time>1970-01-01T01:52:11.000Z</time>
      </trkpt>
      <trkpt lat="49.56185" lon="5.73747">
        <ele>259.6</ele>
        <time>1970-01-01T01:52:10.000Z</time>
      </trkpt>
      <trkpt lat="49.5619" lon="5.73743">
        <ele>259.6</ele>
        <time>1970-01-01T01:52:09.000Z</time>
      </trkpt>
      <trkpt lat="49.562" lon="5.73734">
        <ele>259.5</ele>
        <time>1970-01-01T01:52:07.000Z</time>
      </trkpt>
      <trkpt lat="49.56206" lon="5.7373">
        <ele>259.5</ele>
        <time>1970-01-01T01:52:06.000Z</time>
      </trkpt>
      <trkpt lat="49.56211" lon="5.73725">
        <ele>259.5</ele>
        <time>1970-01-01T01:52:05.000Z</time>
      </trkpt>
      <trkpt lat="49.56221" lon="5.73717">
        <ele>259.4</ele>
        <time>1970-01-01T01:52:03.000Z</time>
      </trkpt>
      <trkpt lat="49.56226" lon="5.73712">
        <ele>259.4</ele>
        <time>1970-01-01T01:52:02.000Z</time>
      </trkpt>
      <trkpt lat="49.56231" lon="5.73708">
        <ele>259.4</ele>
        <time>1970-01-01T01:52:01.000Z</time>
      </trkpt>
      <trkpt lat="49.56236" lon="5.73704">
        <ele>259.4</ele>
        <time>1970-01-01T01:52:00.000Z</time>
      </trkpt>
      <trkpt lat="49.56246" lon="5.73696">
        <ele>259.4</ele>
        <time>1970-01-01T01:51:58.000Z</time>
      </trkpt>
      <trkpt lat="49.56251" lon="5.73692">
        <ele>259.4</ele>
        <time>1970-01-01T01:51:57.000Z</time>
      </trkpt>
      <trkpt lat="49.56261" lon="5.73683">
        <ele>259.3</ele>
        <time>1970-01-01T01:51:55.000Z</time>
      </trkpt>
      <trkpt lat="49.56266" lon="5.73679">
        <ele>259.2</ele>
        <time>1970-01-01T01:51:54.000Z</time>
      </trkpt>
      <trkpt lat="49.56276" lon="5.7367">
        <ele>258.9</ele>
        <time>1970-01-01T01:51:52.000Z</time>
      </trkpt>
      <trkpt lat="49.56285" lon="5.73662">
        <ele>258.8</ele>
        <time>1970-01-01T01:51:50.000Z</time>
      </trkpt>
      <trkpt lat="49.56294" lon="5.73652">
        <ele>258.7</ele>
        <time>1970-01-01T01:51:48.000Z</time>
      </trkpt>
      <trkpt lat="49.56303" lon="5.73643">
        <ele>258.5</ele>
        <time>1970-01-01T01:51:46.000Z</time>
      </trkpt>
      <trkpt lat="49.56308" lon="5.73638">
        <ele>258.5</ele>
        <time>1970-01-01T01:51:45.000Z</time>
      </trkpt>
      <trkpt lat="49.56312" lon="5.73633">
        <ele>258.4</ele>
        <time>1970-01-01T01:51:44.000Z</time>
      </trkpt>
      <trkpt lat="49.56321" lon="5.73622">
        <ele>258.2</ele>
        <time>1970-01-01T01:51:42.000Z</time>
      </trkpt>
      <trkpt lat="49.56328" lon="5.73611">
        <ele>258.1</ele>
        <time>1970-01-01T01:51:40.000Z</time>
      </trkpt>
      <trkpt lat="49.56337" lon="5.73601">
        <ele>258.1</ele>
        <time>1970-01-01T01:51:38.000Z</time>
      </trkpt>
      <trkpt lat="49.56345" lon="5.7359">
        <ele>258</ele>
        <time>1970-01-01T01:51:36.000Z</time>
      </trkpt>
      <trkpt lat="49.56353" lon="5.73578">
        <ele>258</ele>
        <time>1970-01-01T01:51:34.000Z</time>
      </trkpt>
      <trkpt lat="49.56361" lon="5.73567">
        <ele>257.9</ele>
        <time>1970-01-01T01:51:32.000Z</time>
      </trkpt>
      <trkpt lat="49.56368" lon="5.73556">
        <ele>257.5</ele>
        <time>1970-01-01T01:51:30.000Z</time>
      </trkpt>
      <trkpt lat="49.56372" lon="5.7355">
        <ele>257.4</ele>
        <time>1970-01-01T01:51:29.000Z</time>
      </trkpt>
      <trkpt lat="49.56381" lon="5.73539">
        <ele>257.3</ele>
        <time>1970-01-01T01:51:27.000Z</time>
      </trkpt>
      <trkpt lat="49.56389" lon="5.73528">
        <ele>257.2</ele>
        <time>1970-01-01T01:51:25.000Z</time>
      </trkpt>
      <trkpt lat="49.56397" lon="5.73516">
        <ele>257.1</ele>
        <time>1970-01-01T01:51:23.000Z</time>
      </trkpt>
      <trkpt lat="49.56401" lon="5.73511">
        <ele>257.1</ele>
        <time>1970-01-01T01:51:22.000Z</time>
      </trkpt>
      <trkpt lat="49.56405" lon="5.73505">
        <ele>257</ele>
        <time>1970-01-01T01:51:21.000Z</time>
      </trkpt>
      <trkpt lat="49.56414" lon="5.73495">
        <ele>256.8</ele>
        <time>1970-01-01T01:51:19.000Z</time>
      </trkpt>
      <trkpt lat="49.56418" lon="5.7349">
        <ele>256.8</ele>
        <time>1970-01-01T01:51:18.000Z</time>
      </trkpt>
      <trkpt lat="49.56427" lon="5.73481">
        <ele>256.6</ele>
        <time>1970-01-01T01:51:16.000Z</time>
      </trkpt>
      <trkpt lat="49.56436" lon="5.73473">
        <ele>256.5</ele>
        <time>1970-01-01T01:51:14.000Z</time>
      </trkpt>
      <trkpt lat="49.56441" lon="5.73469">
        <ele>256.4</ele>
        <time>1970-01-01T01:51:13.000Z</time>
      </trkpt>
      <trkpt lat="49.56451" lon="5.73462">
        <ele>256.3</ele>
        <time>1970-01-01T01:51:11.000Z</time>
      </trkpt>
      <trkpt lat="49.56456" lon="5.73459">
        <ele>256.2</ele>
        <time>1970-01-01T01:51:10.000Z</time>
      </trkpt>
      <trkpt lat="49.56466" lon="5.73452">
        <ele>256.1</ele>
        <time>1970-01-01T01:51:08.000Z</time>
      </trkpt>
      <trkpt lat="49.56472" lon="5.7345">
        <ele>256</ele>
        <time>1970-01-01T01:51:07.000Z</time>
      </trkpt>
      <trkpt lat="49.56477" lon="5.73447">
        <ele>255.9</ele>
        <time>1970-01-01T01:51:06.000Z</time>
      </trkpt>
      <trkpt lat="49.56487" lon="5.73442">
        <ele>255.8</ele>
        <time>1970-01-01T01:51:04.000Z</time>
      </trkpt>
      <trkpt lat="49.56493" lon="5.73441">
        <ele>255.7</ele>
        <time>1970-01-01T01:51:03.000Z</time>
      </trkpt>
      <trkpt lat="49.56504" lon="5.73438">
        <ele>255.6</ele>
        <time>1970-01-01T01:51:01.000Z</time>
      </trkpt>
      <trkpt lat="49.56509" lon="5.73438">
        <ele>255.6</ele>
        <time>1970-01-01T01:51:00.000Z</time>
      </trkpt>
      <trkpt lat="49.56515" lon="5.73438">
        <ele>255.5</ele>
        <time>1970-01-01T01:50:59.000Z</time>
      </trkpt>
      <trkpt lat="49.56526" lon="5.73436">
        <ele>255.4</ele>
        <time>1970-01-01T01:50:57.000Z</time>
      </trkpt>
      <trkpt lat="49.56531" lon="5.73435">
        <ele>255.4</ele>
        <time>1970-01-01T01:50:56.000Z</time>
      </trkpt>
      <trkpt lat="49.56541" lon="5.73434">
        <ele>255.2</ele>
        <time>1970-01-01T01:50:54.000Z</time>
      </trkpt>
      <trkpt lat="49.56547" lon="5.73434">
        <ele>255.2</ele>
        <time>1970-01-01T01:50:53.000Z</time>
      </trkpt>
      <trkpt lat="49.56557" lon="5.73433">
        <ele>254.9</ele>
        <time>1970-01-01T01:50:51.000Z</time>
      </trkpt>
      <trkpt lat="49.56562" lon="5.73432">
        <ele>254.8</ele>
        <time>1970-01-01T01:50:50.000Z</time>
      </trkpt>
      <trkpt lat="49.56572" lon="5.73431">
        <ele>254.5</ele>
        <time>1970-01-01T01:50:48.000Z</time>
      </trkpt>
      <trkpt lat="49.56577" lon="5.7343">
        <ele>254.4</ele>
        <time>1970-01-01T01:50:47.000Z</time>
      </trkpt>
      <trkpt lat="49.56587" lon="5.73429">
        <ele>254.2</ele>
        <time>1970-01-01T01:50:45.000Z</time>
      </trkpt>
      <trkpt lat="49.56592" lon="5.73428">
        <ele>254.1</ele>
        <time>1970-01-01T01:50:44.000Z</time>
      </trkpt>
      <trkpt lat="49.56598" lon="5.73428">
        <ele>254</ele>
        <time>1970-01-01T01:50:43.000Z</time>
      </trkpt>
      <trkpt lat="49.56609" lon="5.73427">
        <ele>253.9</ele>
        <time>1970-01-01T01:50:41.000Z</time>
      </trkpt>
      <trkpt lat="49.5662" lon="5.73427">
        <ele>253.8</ele>
        <time>1970-01-01T01:50:39.000Z</time>
      </trkpt>
      <trkpt lat="49.56626" lon="5.73427">
        <ele>253.8</ele>
        <time>1970-01-01T01:50:38.000Z</time>
      </trkpt>
      <trkpt lat="49.56631" lon="5.73426">
        <ele>253.7</ele>
        <time>1970-01-01T01:50:37.000Z</time>
      </trkpt>
      <trkpt lat="49.56642" lon="5.73424">
        <ele>253.7</ele>
        <time>1970-01-01T01:50:35.000Z</time>
      </trkpt>
      <trkpt lat="49.56648" lon="5.73423">
        <ele>253.6</ele>
        <time>1970-01-01T01:50:34.000Z</time>
      </trkpt>
      <trkpt lat="49.56658" lon="5.73423">
        <ele>253.5</ele>
        <time>1970-01-01T01:50:32.000Z</time>
      </trkpt>
      <trkpt lat="49.56669" lon="5.73421">
        <ele>253.4</ele>
        <time>1970-01-01T01:50:30.000Z</time>
      </trkpt>
      <trkpt lat="49.5668" lon="5.73419">
        <ele>253.1</ele>
        <time>1970-01-01T01:50:28.000Z</time>
      </trkpt>
      <trkpt lat="49.56719" lon="5.73414">
        <ele>252.5</ele>
      </trkpt>
      <trkpt lat="49.56725" lon="5.73437">
        <ele>253</ele>
        <time>1970-01-01T00:04:52.000Z</time>
      </trkpt>
      <trkpt lat="49.56728" lon="5.73454">
        <ele>253</ele>
        <time>1970-01-01T00:04:54.000Z</time>
      </trkpt>
      <trkpt lat="49.56731" lon="5.73471">
        <ele>253.2</ele>
        <time>1970-01-01T00:04:56.000Z</time>
      </trkpt>
      <trkpt lat="49.56733" lon="5.7348">
        <ele>253.2</ele>
        <time>1970-01-01T00:04:57.000Z</time>
      </trkpt>
      <trkpt lat="49.56735" lon="5.73489">
        <ele>253.3</ele>
        <time>1970-01-01T00:04:58.000Z</time>
      </trkpt>
      <trkpt lat="49.56739" lon="5.73506">
        <ele>253.4</ele>
        <time>1970-01-01T00:05:00.000Z</time>
      </trkpt>
      <trkpt lat="49.56741" lon="5.73514">
        <ele>253.4</ele>
        <time>1970-01-01T00:05:01.000Z</time>
      </trkpt>
      <trkpt lat="49.56745" lon="5.7353">
        <ele>253.5</ele>
        <time>1970-01-01T00:05:03.000Z</time>
      </trkpt>
      <trkpt lat="49.56747" lon="5.73538">
        <ele>253.6</ele>
        <time>1970-01-01T00:05:04.000Z</time>
      </trkpt>
      <trkpt lat="49.5675" lon="5.73546">
        <ele>253.6</ele>
        <time>1970-01-01T00:05:05.000Z</time>
      </trkpt>
      <trkpt lat="49.56754" lon="5.73562">
        <ele>253.7</ele>
        <time>1970-01-01T00:05:07.000Z</time>
      </trkpt>
      <trkpt lat="49.56757" lon="5.7357">
        <ele>253.8</ele>
        <time>1970-01-01T00:05:08.000Z</time>
      </trkpt>
      <trkpt lat="49.5676" lon="5.73578">
        <ele>253.9</ele>
        <time>1970-01-01T00:05:09.000Z</time>
      </trkpt>
      <trkpt lat="49.56763" lon="5.73586">
        <ele>253.9</ele>
        <time>1970-01-01T00:05:10.000Z</time>
      </trkpt>
      <trkpt lat="49.56769" lon="5.736">
        <ele>254</ele>
        <time>1970-01-01T00:05:12.000Z</time>
      </trkpt>
      <trkpt lat="49.56775" lon="5.73615">
        <ele>254.3</ele>
        <time>1970-01-01T00:05:14.000Z</time>
      </trkpt>
      <trkpt lat="49.5678" lon="5.73629">
        <ele>254.6</ele>
        <time>1970-01-01T00:05:16.000Z</time>
      </trkpt>
      <trkpt lat="49.56786" lon="5.73644">
        <ele>254.8</ele>
        <time>1970-01-01T00:05:18.000Z</time>
      </trkpt>
      <trkpt lat="49.56788" lon="5.73651">
        <ele>254.9</ele>
        <time>1970-01-01T00:05:19.000Z</time>
      </trkpt>
      <trkpt lat="49.56793" lon="5.73663">
        <ele>255</ele>
        <time>1970-01-01T00:05:21.000Z</time>
      </trkpt>
      <trkpt lat="49.56795" lon="5.73668">
        <ele>255.1</ele>
        <time>1970-01-01T00:05:22.000Z</time>
      </trkpt>
      <trkpt lat="49.56802" lon="5.73668">
        <ele>255.3</ele>
        <time>1970-01-01T00:05:24.000Z</time>
      </trkpt>
      <trkpt lat="49.56805" lon="5.73666">
        <ele>255.4</ele>
        <time>1970-01-01T00:05:25.000Z</time>
      </trkpt>
      <trkpt lat="49.56811" lon="5.73659">
        <ele>255.8</ele>
        <time>1970-01-01T00:05:27.000Z</time>
      </trkpt>
      <trkpt lat="49.56813" lon="5.73656">
        <ele>256</ele>
        <time>1970-01-01T00:05:28.000Z</time>
      </trkpt>
      <trkpt lat="49.56821" lon="5.73641">
        <ele>257.3</ele>
        <time>1970-01-01T00:05:35.000Z</time>
      </trkpt>
      <trkpt lat="49.56823" lon="5.73637">
        <ele>257.7</ele>
        <time>1970-01-01T00:05:37.000Z</time>
      </trkpt>
      <trkpt lat="49.56827" lon="5.73628">
        <ele>258.5</ele>
        <time>1970-01-01T00:05:39.000Z</time>
      </trkpt>
      <trkpt lat="49.56832" lon="5.73621">
        <ele>259.3</ele>
        <time>1970-01-01T00:05:40.000Z</time>
      </trkpt>
      <trkpt lat="49.56837" lon="5.73611">
        <ele>260.1</ele>
        <time>1970-01-01T00:05:42.000Z</time>
      </trkpt>
      <trkpt lat="49.5684" lon="5.73605">
        <ele>260.5</ele>
        <time>1970-01-01T00:05:43.000Z</time>
      </trkpt>
      <trkpt lat="49.56843" lon="5.73598">
        <ele>261</ele>
        <time>1970-01-01T00:05:45.000Z</time>
      </trkpt>
      <trkpt lat="49.56845" lon="5.73594">
        <ele>261.3</ele>
        <time>1970-01-01T00:05:46.000Z</time>
      </trkpt>
      <trkpt lat="49.56848" lon="5.73587">
        <ele>261.8</ele>
        <time>1970-01-01T00:05:48.000Z</time>
      </trkpt>
      <trkpt lat="49.5685" lon="5.73582">
        <ele>262.1</ele>
        <time>1970-01-01T00:05:49.000Z</time>
      </trkpt>
      <trkpt lat="49.56853" lon="5.73576">
        <ele>262.5</ele>
        <time>1970-01-01T00:05:51.000Z</time>
      </trkpt>
      <trkpt lat="49.56856" lon="5.7357">
        <ele>263</ele>
        <time>1970-01-01T00:05:53.000Z</time>
      </trkpt>
      <trkpt lat="49.56858" lon="5.73566">
        <ele>263.3</ele>
        <time>1970-01-01T00:05:54.000Z</time>
      </trkpt>
      <trkpt lat="49.5686" lon="5.73561">
        <ele>263.6</ele>
        <time>1970-01-01T00:05:56.000Z</time>
      </trkpt>
      <trkpt lat="49.56863" lon="5.73555">
        <ele>264</ele>
        <time>1970-01-01T00:05:58.000Z</time>
      </trkpt>
      <trkpt lat="49.56865" lon="5.73552">
        <ele>264.3</ele>
        <time>1970-01-01T00:05:59.000Z</time>
      </trkpt>
      <trkpt lat="49.56868" lon="5.73545">
        <ele>264.7</ele>
        <time>1970-01-01T00:06:01.000Z</time>
      </trkpt>
      <trkpt lat="49.56874" lon="5.73538">
        <ele>265.4</ele>
        <time>1970-01-01T00:06:04.000Z</time>
      </trkpt>
      <trkpt lat="49.56878" lon="5.73532">
        <ele>265.8</ele>
        <time>1970-01-01T00:06:07.000Z</time>
      </trkpt>
      <trkpt lat="49.56881" lon="5.73528">
        <ele>266.1</ele>
        <time>1970-01-01T00:06:08.000Z</time>
      </trkpt>
      <trkpt lat="49.56884" lon="5.73523">
        <ele>266.6</ele>
        <time>1970-01-01T00:06:10.000Z</time>
      </trkpt>
      <trkpt lat="49.56887" lon="5.7352">
        <ele>266.9</ele>
        <time>1970-01-01T00:06:11.000Z</time>
      </trkpt>
      <trkpt lat="49.5689" lon="5.73517">
        <ele>267.2</ele>
        <time>1970-01-01T00:06:13.000Z</time>
      </trkpt>
      <trkpt lat="49.56893" lon="5.73515">
        <ele>267.6</ele>
        <time>1970-01-01T00:06:14.000Z</time>
      </trkpt>
      <trkpt lat="49.56897" lon="5.73512">
        <ele>268.1</ele>
        <time>1970-01-01T00:06:16.000Z</time>
      </trkpt>
      <trkpt lat="49.56901" lon="5.73509">
        <ele>268.6</ele>
        <time>1970-01-01T00:06:18.000Z</time>
      </trkpt>
      <trkpt lat="49.56906" lon="5.73505">
        <ele>269.1</ele>
        <time>1970-01-01T00:06:20.000Z</time>
      </trkpt>
      <trkpt lat="49.56908" lon="5.73504">
        <ele>269.4</ele>
        <time>1970-01-01T00:06:21.000Z</time>
      </trkpt>
      <trkpt lat="49.56915" lon="5.73501">
        <ele>270.1</ele>
        <time>1970-01-01T00:06:24.000Z</time>
      </trkpt>
      <trkpt lat="49.56919" lon="5.73499">
        <ele>270.5</ele>
        <time>1970-01-01T00:06:26.000Z</time>
      </trkpt>
      <trkpt lat="49.56923" lon="5.73499">
        <ele>270.8</ele>
        <time>1970-01-01T00:06:27.000Z</time>
      </trkpt>
      <trkpt lat="49.56926" lon="5.73498">
        <ele>271</ele>
        <time>1970-01-01T00:06:29.000Z</time>
      </trkpt>
      <trkpt lat="49.56929" lon="5.73497">
        <ele>271.1</ele>
        <time>1970-01-01T00:06:30.000Z</time>
      </trkpt>
      <trkpt lat="49.56933" lon="5.73495">
        <ele>271.3</ele>
        <time>1970-01-01T00:06:32.000Z</time>
      </trkpt>
      <trkpt lat="49.56938" lon="5.73494">
        <ele>271.3</ele>
        <time>1970-01-01T00:06:34.000Z</time>
      </trkpt>
      <trkpt lat="49.56942" lon="5.73492">
        <ele>271.2</ele>
        <time>1970-01-01T00:06:36.000Z</time>
      </trkpt>
      <trkpt lat="49.56946" lon="5.7349">
        <ele>271.1</ele>
        <time>1970-01-01T00:06:38.000Z</time>
      </trkpt>
      <trkpt lat="49.5695" lon="5.7349">
        <ele>271</ele>
        <time>1970-01-01T00:06:40.000Z</time>
      </trkpt>
      <trkpt lat="49.56955" lon="5.73486">
        <ele>270.7</ele>
        <time>1970-01-01T00:06:42.000Z</time>
      </trkpt>
      <trkpt lat="49.5696" lon="5.73484">
        <ele>270.4</ele>
        <time>1970-01-01T00:06:44.000Z</time>
      </trkpt>
      <trkpt lat="49.56965" lon="5.73483">
        <ele>270.1</ele>
        <time>1970-01-01T00:06:46.000Z</time>
      </trkpt>
      <trkpt lat="49.56971" lon="5.73484">
        <ele>269.8</ele>
        <time>1970-01-01T00:06:49.000Z</time>
      </trkpt>
      <trkpt lat="49.56975" lon="5.73492">
        <ele>269.6</ele>
        <time>1970-01-01T00:06:51.000Z</time>
      </trkpt>
      <trkpt lat="49.56983" lon="5.73499">
        <ele>269.6</ele>
        <time>1970-01-01T00:06:53.000Z</time>
      </trkpt>
      <trkpt lat="49.56992" lon="5.73502">
        <ele>269.9</ele>
        <time>1970-01-01T00:06:56.000Z</time>
      </trkpt>
      <trkpt lat="49.56997" lon="5.73505">
        <ele>270.2</ele>
        <time>1970-01-01T00:06:57.000Z</time>
      </trkpt>
      <trkpt lat="49.57002" lon="5.73506">
        <ele>270.5</ele>
        <time>1970-01-01T00:06:58.000Z</time>
      </trkpt>
      <trkpt lat="49.57008" lon="5.73506">
        <ele>270.7</ele>
        <time>1970-01-01T00:06:59.000Z</time>
      </trkpt>
      <trkpt lat="49.57013" lon="5.73507">
        <ele>271</ele>
        <time>1970-01-01T00:07:01.000Z</time>
      </trkpt>
      <trkpt lat="49.57017" lon="5.73508">
        <ele>271.1</ele>
        <time>1970-01-01T00:07:02.000Z</time>
      </trkpt>
      <trkpt lat="49.57023" lon="5.73507">
        <ele>271.3</ele>
        <time>1970-01-01T00:07:04.000Z</time>
      </trkpt>
      <trkpt lat="49.57027" lon="5.73506">
        <ele>271.5</ele>
        <time>1970-01-01T00:07:05.000Z</time>
      </trkpt>
      <trkpt lat="49.57033" lon="5.73504">
        <ele>271.6</ele>
        <time>1970-01-01T00:07:06.000Z</time>
      </trkpt>
      <trkpt lat="49.57038" lon="5.73504">
        <ele>271.8</ele>
        <time>1970-01-01T00:07:07.000Z</time>
      </trkpt>
      <trkpt lat="49.57045" lon="5.73503">
        <ele>272</ele>
        <time>1970-01-01T00:07:09.000Z</time>
      </trkpt>
      <trkpt lat="49.5705" lon="5.73502">
        <ele>272.1</ele>
        <time>1970-01-01T00:07:11.000Z</time>
      </trkpt>
      <trkpt lat="49.57054" lon="5.73501">
        <ele>272.2</ele>
        <time>1970-01-01T00:07:12.000Z</time>
      </trkpt>
      <trkpt lat="49.57057" lon="5.73501">
        <ele>272.3</ele>
        <time>1970-01-01T00:07:13.000Z</time>
      </trkpt>
      <trkpt lat="49.57064" lon="5.73503">
        <ele>272.6</ele>
        <time>1970-01-01T00:07:16.000Z</time>
      </trkpt>
      <trkpt lat="49.57067" lon="5.73504">
        <ele>272.7</ele>
        <time>1970-01-01T00:07:17.000Z</time>
      </trkpt>
      <trkpt lat="49.57073" lon="5.73504">
        <ele>273</ele>
        <time>1970-01-01T00:07:19.000Z</time>
      </trkpt>
      <trkpt lat="49.57076" lon="5.73503">
        <ele>273.2</ele>
        <time>1970-01-01T00:07:20.000Z</time>
      </trkpt>
      <trkpt lat="49.57079" lon="5.73501">
        <ele>273.5</ele>
        <time>1970-01-01T00:07:21.000Z</time>
      </trkpt>
      <trkpt lat="49.57085" lon="5.735">
        <ele>273.8</ele>
        <time>1970-01-01T00:07:23.000Z</time>
      </trkpt>
      <trkpt lat="49.57087" lon="5.735">
        <ele>274</ele>
        <time>1970-01-01T00:07:24.000Z</time>
      </trkpt>
      <trkpt lat="49.5709" lon="5.735">
        <ele>274.2</ele>
        <time>1970-01-01T00:07:25.000Z</time>
      </trkpt>
      <trkpt lat="49.57096" lon="5.735">
        <ele>274.6</ele>
        <time>1970-01-01T00:07:27.000Z</time>
      </trkpt>
      <trkpt lat="49.571" lon="5.73499">
        <ele>274.9</ele>
        <time>1970-01-01T00:07:28.000Z</time>
      </trkpt>
      <trkpt lat="49.57103" lon="5.73499">
        <ele>275.1</ele>
        <time>1970-01-01T00:07:29.000Z</time>
      </trkpt>
      <trkpt lat="49.57106" lon="5.73499">
        <ele>275.3</ele>
        <time>1970-01-01T00:07:30.000Z</time>
      </trkpt>
      <trkpt lat="49.57111" lon="5.73498">
        <ele>275.8</ele>
        <time>1970-01-01T00:07:32.000Z</time>
      </trkpt>
      <trkpt lat="49.57114" lon="5.73498">
        <ele>276</ele>
        <time>1970-01-01T00:07:33.000Z</time>
      </trkpt>
      <trkpt lat="49.57119" lon="5.73498">
        <ele>276.3</ele>
        <time>1970-01-01T00:07:35.000Z</time>
      </trkpt>
      <trkpt lat="49.57122" lon="5.73497">
        <ele>276.6</ele>
        <time>1970-01-01T00:07:37.000Z</time>
      </trkpt>
      <trkpt lat="49.57126" lon="5.73497">
        <ele>276.9</ele>
        <time>1970-01-01T00:07:38.000Z</time>
      </trkpt>
      <trkpt lat="49.57129" lon="5.73497">
        <ele>277.2</ele>
        <time>1970-01-01T00:07:39.000Z</time>
      </trkpt>
      <trkpt lat="49.57133" lon="5.73497">
        <ele>277.6</ele>
        <time>1970-01-01T00:07:40.000Z</time>
      </trkpt>
      <trkpt lat="49.57137" lon="5.73496">
        <ele>278.1</ele>
        <time>1970-01-01T00:07:42.000Z</time>
      </trkpt>
      <trkpt lat="49.57139" lon="5.73495">
        <ele>278.4</ele>
        <time>1970-01-01T00:07:43.000Z</time>
      </trkpt>
      <trkpt lat="49.57143" lon="5.73495">
        <ele>279</ele>
        <time>1970-01-01T00:07:44.000Z</time>
      </trkpt>
      <trkpt lat="49.57147" lon="5.73495">
        <ele>279.5</ele>
        <time>1970-01-01T00:07:46.000Z</time>
      </trkpt>
      <trkpt lat="49.5715" lon="5.73494">
        <ele>280</ele>
        <time>1970-01-01T00:07:47.000Z</time>
      </trkpt>
      <trkpt lat="49.57153" lon="5.73493">
        <ele>280.4</ele>
        <time>1970-01-01T00:07:48.000Z</time>
      </trkpt>
      <trkpt lat="49.57157" lon="5.73492">
        <ele>280.8</ele>
        <time>1970-01-01T00:07:49.000Z</time>
      </trkpt>
      <trkpt lat="49.5716" lon="5.73492">
        <ele>281.2</ele>
        <time>1970-01-01T00:07:51.000Z</time>
      </trkpt>
      <trkpt lat="49.57163" lon="5.73495">
        <ele>281.5</ele>
        <time>1970-01-01T00:07:52.000Z</time>
      </trkpt>
      <trkpt lat="49.57166" lon="5.73503">
        <ele>282.1</ele>
        <time>1970-01-01T00:07:54.000Z</time>
      </trkpt>
      <trkpt lat="49.57167" lon="5.73507">
        <ele>282.3</ele>
        <time>1970-01-01T00:07:55.000Z</time>
      </trkpt>
      <trkpt lat="49.57171" lon="5.7351">
        <ele>282.6</ele>
        <time>1970-01-01T00:07:57.000Z</time>
      </trkpt>
      <trkpt lat="49.57173" lon="5.7351">
        <ele>282.8</ele>
        <time>1970-01-01T00:07:58.000Z</time>
      </trkpt>
      <trkpt lat="49.57177" lon="5.7351">
        <ele>283.1</ele>
        <time>1970-01-01T00:08:00.000Z</time>
      </trkpt>
      <trkpt lat="49.5718" lon="5.73509">
        <ele>283.3</ele>
        <time>1970-01-01T00:08:01.000Z</time>
      </trkpt>
      <trkpt lat="49.57184" lon="5.73509">
        <ele>283.6</ele>
        <time>1970-01-01T00:08:03.000Z</time>
      </trkpt>
      <trkpt lat="49.57188" lon="5.7351">
        <ele>283.9</ele>
        <time>1970-01-01T00:08:04.000Z</time>
      </trkpt>
      <trkpt lat="49.57191" lon="5.73511">
        <ele>284.2</ele>
        <time>1970-01-01T00:08:06.000Z</time>
      </trkpt>
      <trkpt lat="49.57194" lon="5.73511">
        <ele>284.4</ele>
        <time>1970-01-01T00:08:07.000Z</time>
      </trkpt>
      <trkpt lat="49.57198" lon="5.73512">
        <ele>284.6</ele>
        <time>1970-01-01T00:08:08.000Z</time>
      </trkpt>
      <trkpt lat="49.57201" lon="5.73512">
        <ele>284.9</ele>
        <time>1970-01-01T00:08:10.000Z</time>
      </trkpt>
      <trkpt lat="49.57204" lon="5.73514">
        <ele>285.1</ele>
        <time>1970-01-01T00:08:13.000Z</time>
      </trkpt>
      <trkpt lat="49.5721" lon="5.73516">
        <ele>285.5</ele>
        <time>1970-01-01T00:08:15.000Z</time>
      </trkpt>
      <trkpt lat="49.57213" lon="5.73517">
        <ele>285.8</ele>
        <time>1970-01-01T00:08:18.000Z</time>
      </trkpt>
      <trkpt lat="49.57217" lon="5.73517">
        <ele>286</ele>
        <time>1970-01-01T00:08:21.000Z</time>
      </trkpt>
      <trkpt lat="49.57222" lon="5.73518">
        <ele>286.3</ele>
        <time>1970-01-01T00:08:23.000Z</time>
      </trkpt>
      <trkpt lat="49.57226" lon="5.73519">
        <ele>286.5</ele>
        <time>1970-01-01T00:08:24.000Z</time>
      </trkpt>
      <trkpt lat="49.5723" lon="5.73521">
        <ele>286.7</ele>
        <time>1970-01-01T00:08:26.000Z</time>
      </trkpt>
      <trkpt lat="49.57236" lon="5.73521">
        <ele>287</ele>
        <time>1970-01-01T00:08:27.000Z</time>
      </trkpt>
      <trkpt lat="49.5724" lon="5.73522">
        <ele>287.3</ele>
        <time>1970-01-01T00:08:30.000Z</time>
      </trkpt>
      <trkpt lat="49.57243" lon="5.73524">
        <ele>287.4</ele>
        <time>1970-01-01T00:08:31.000Z</time>
      </trkpt>
      <trkpt lat="49.57247" lon="5.73525">
        <ele>287.6</ele>
        <time>1970-01-01T00:08:33.000Z</time>
      </trkpt>
      <trkpt lat="49.57252" lon="5.73527">
        <ele>287.8</ele>
        <time>1970-01-01T00:08:34.000Z</time>
      </trkpt>
      <trkpt lat="49.57255" lon="5.73527">
        <ele>288</ele>
        <time>1970-01-01T00:08:35.000Z</time>
      </trkpt>
      <trkpt lat="49.57259" lon="5.73528">
        <ele>288.1</ele>
        <time>1970-01-01T00:08:36.000Z</time>
      </trkpt>
      <trkpt lat="49.57263" lon="5.73529">
        <ele>288.3</ele>
        <time>1970-01-01T00:08:38.000Z</time>
      </trkpt>
      <trkpt lat="49.57271" lon="5.73532">
        <ele>288.5</ele>
        <time>1970-01-01T00:08:39.000Z</time>
      </trkpt>
      <trkpt lat="49.57274" lon="5.73533">
        <ele>288.6</ele>
        <time>1970-01-01T00:08:41.000Z</time>
      </trkpt>
      <trkpt lat="49.57277" lon="5.73535">
        <ele>288.7</ele>
        <time>1970-01-01T00:08:44.000Z</time>
      </trkpt>
      <trkpt lat="49.57281" lon="5.73537">
        <ele>288.8</ele>
        <time>1970-01-01T00:08:45.000Z</time>
      </trkpt>
      <trkpt lat="49.57284" lon="5.73538">
        <ele>288.9</ele>
        <time>1970-01-01T00:08:46.000Z</time>
      </trkpt>
      <trkpt lat="49.57288" lon="5.7354">
        <ele>289.1</ele>
        <time>1970-01-01T00:08:48.000Z</time>
      </trkpt>
      <trkpt lat="49.57294" lon="5.73543">
        <ele>289.3</ele>
        <time>1970-01-01T00:08:50.000Z</time>
      </trkpt>
      <trkpt lat="49.57301" lon="5.73546">
        <ele>289.5</ele>
        <time>1970-01-01T00:08:51.000Z</time>
      </trkpt>
      <trkpt lat="49.57306" lon="5.73548">
        <ele>289.7</ele>
        <time>1970-01-01T00:08:54.000Z</time>
      </trkpt>
      <trkpt lat="49.5731" lon="5.7355">
        <ele>289.9</ele>
        <time>1970-01-01T00:08:56.000Z</time>
      </trkpt>
      <trkpt lat="49.57314" lon="5.73553">
        <ele>290.1</ele>
        <time>1970-01-01T00:08:57.000Z</time>
      </trkpt>
      <trkpt lat="49.5732" lon="5.73557">
        <ele>290.4</ele>
        <time>1970-01-01T00:08:59.000Z</time>
      </trkpt>
      <trkpt lat="49.57325" lon="5.73559">
        <ele>290.7</ele>
        <time>1970-01-01T00:09:01.000Z</time>
      </trkpt>
      <trkpt lat="49.57328" lon="5.73562">
        <ele>290.9</ele>
        <time>1970-01-01T00:09:02.000Z</time>
      </trkpt>
      <trkpt lat="49.5734" lon="5.7357">
        <ele>291.5</ele>
        <time>1970-01-01T00:09:04.000Z</time>
      </trkpt>
      <trkpt lat="49.57343" lon="5.73571">
        <ele>291.7</ele>
        <time>1970-01-01T00:09:05.000Z</time>
      </trkpt>
      <trkpt lat="49.57354" lon="5.73572">
        <ele>292.1</ele>
        <time>1970-01-01T00:09:07.000Z</time>
      </trkpt>
      <trkpt lat="49.57365" lon="5.73577">
        <ele>292.3</ele>
        <time>1970-01-01T00:09:08.000Z</time>
      </trkpt>
      <trkpt lat="49.5737" lon="5.73577">
        <ele>292.4</ele>
        <time>1970-01-01T00:09:09.000Z</time>
      </trkpt>
      <trkpt lat="49.57375" lon="5.73577">
        <ele>292.4</ele>
        <time>1970-01-01T00:09:10.000Z</time>
      </trkpt>
      <trkpt lat="49.57379" lon="5.73576">
        <ele>292.4</ele>
        <time>1970-01-01T00:09:11.000Z</time>
      </trkpt>
      <trkpt lat="49.57382" lon="5.73577">
        <ele>292.4</ele>
        <time>1970-01-01T00:09:12.000Z</time>
      </trkpt>
      <trkpt lat="49.57385" lon="5.73576">
        <ele>292.4</ele>
        <time>1970-01-01T00:09:14.000Z</time>
      </trkpt>
      <trkpt lat="49.57388" lon="5.73577">
        <ele>292.3</ele>
        <time>1970-01-01T00:09:15.000Z</time>
      </trkpt>
      <trkpt lat="49.57393" lon="5.73579">
        <ele>292.3</ele>
        <time>1970-01-01T00:09:16.000Z</time>
      </trkpt>
      <trkpt lat="49.574" lon="5.73588">
        <ele>292.2</ele>
        <time>1970-01-01T00:09:18.000Z</time>
      </trkpt>
      <trkpt lat="49.57404" lon="5.73587">
        <ele>292.3</ele>
        <time>1970-01-01T00:09:19.000Z</time>
      </trkpt>
      <trkpt lat="49.57408" lon="5.73585">
        <ele>292.3</ele>
        <time>1970-01-01T00:09:20.000Z</time>
      </trkpt>
      <trkpt lat="49.57414" lon="5.73583">
        <ele>292.4</ele>
        <time>1970-01-01T00:09:22.000Z</time>
      </trkpt>
      <trkpt lat="49.57419" lon="5.73582">
        <ele>292.5</ele>
        <time>1970-01-01T00:09:23.000Z</time>
      </trkpt>
      <trkpt lat="49.57439" lon="5.73577">
        <ele>293</ele>
        <time>1970-01-01T00:09:24.000Z</time>
      </trkpt>
      <trkpt lat="49.57449" lon="5.73574">
        <ele>292.9</ele>
        <time>1970-01-01T00:09:25.000Z</time>
      </trkpt>
      <trkpt lat="49.57465" lon="5.73569">
        <ele>292.6</ele>
        <time>1970-01-01T00:09:27.000Z</time>
      </trkpt>
      <trkpt lat="49.57472" lon="5.73567">
        <ele>292.5</ele>
        <time>1970-01-01T00:09:28.000Z</time>
      </trkpt>
      <trkpt lat="49.5747" lon="5.73571">
        <ele>292.4</ele>
        <time>1970-01-01T00:09:32.000Z</time>
      </trkpt>
      <trkpt lat="49.57474" lon="5.73572">
        <ele>292.4</ele>
        <time>1970-01-01T00:09:33.000Z</time>
      </trkpt>
      <trkpt lat="49.57481" lon="5.73571">
        <ele>292.3</ele>
        <time>1970-01-01T00:09:35.000Z</time>
      </trkpt>
      <trkpt lat="49.57486" lon="5.73571">
        <ele>292.3</ele>
        <time>1970-01-01T00:09:36.000Z</time>
      </trkpt>
      <trkpt lat="49.57496" lon="5.73569">
        <ele>292.4</ele>
        <time>1970-01-01T00:09:37.000Z</time>
      </trkpt>
      <trkpt lat="49.575" lon="5.73569">
        <ele>292.4</ele>
        <time>1970-01-01T00:09:38.000Z</time>
      </trkpt>
      <trkpt lat="49.5751" lon="5.73569">
        <ele>292.6</ele>
        <time>1970-01-01T00:09:40.000Z</time>
      </trkpt>
      <trkpt lat="49.57515" lon="5.73571">
        <ele>292.8</ele>
        <time>1970-01-01T00:09:42.000Z</time>
      </trkpt>
      <trkpt lat="49.57517" lon="5.73568">
        <ele>292.9</ele>
        <time>1970-01-01T00:09:45.000Z</time>
      </trkpt>
      <trkpt lat="49.57523" lon="5.73571">
        <ele>293.2</ele>
        <time>1970-01-01T00:09:48.000Z</time>
      </trkpt>
      <trkpt lat="49.57528" lon="5.73573">
        <ele>293.5</ele>
        <time>1970-01-01T00:09:49.000Z</time>
      </trkpt>
      <trkpt lat="49.57531" lon="5.73574">
        <ele>293.6</ele>
        <time>1970-01-01T00:09:50.000Z</time>
      </trkpt>
      <trkpt lat="49.57534" lon="5.73576">
        <ele>293.8</ele>
        <time>1970-01-01T00:09:51.000Z</time>
      </trkpt>
      <trkpt lat="49.57559" lon="5.73575">
        <ele>294.8</ele>
        <time>1970-01-01T00:09:53.000Z</time>
      </trkpt>
      <trkpt lat="49.5757" lon="5.73575">
        <ele>295.4</ele>
        <time>1970-01-01T00:09:54.000Z</time>
      </trkpt>
      <trkpt lat="49.57579" lon="5.73574">
        <ele>295.9</ele>
        <time>1970-01-01T00:09:55.000Z</time>
      </trkpt>
      <trkpt lat="49.57586" lon="5.7357">
        <ele>296.2</ele>
        <time>1970-01-01T00:09:57.000Z</time>
      </trkpt>
      <trkpt lat="49.57589" lon="5.73563">
        <ele>296.4</ele>
        <time>1970-01-01T00:09:58.000Z</time>
      </trkpt>
      <trkpt lat="49.57592" lon="5.73562">
        <ele>296.5</ele>
        <time>1970-01-01T00:09:59.000Z</time>
      </trkpt>
      <trkpt lat="49.57594" lon="5.73559">
        <ele>296.7</ele>
        <time>1970-01-01T00:10:00.000Z</time>
      </trkpt>
      <trkpt lat="49.57597" lon="5.73559">
        <ele>296.8</ele>
        <time>1970-01-01T00:10:02.000Z</time>
      </trkpt>
      <trkpt lat="49.57601" lon="5.7356">
        <ele>297</ele>
        <time>1970-01-01T00:10:03.000Z</time>
      </trkpt>
      <trkpt lat="49.57607" lon="5.7356">
        <ele>297.3</ele>
        <time>1970-01-01T00:10:05.000Z</time>
      </trkpt>
      <trkpt lat="49.57612" lon="5.73559">
        <ele>297.6</ele>
        <time>1970-01-01T00:10:07.000Z</time>
      </trkpt>
      <trkpt lat="49.57615" lon="5.73558">
        <ele>297.6</ele>
        <time>1970-01-01T00:10:08.000Z</time>
      </trkpt>
      <trkpt lat="49.57618" lon="5.73556">
        <ele>297.9</ele>
        <time>1970-01-01T00:10:10.000Z</time>
      </trkpt>
      <trkpt lat="49.57622" lon="5.73555">
        <ele>298.1</ele>
        <time>1970-01-01T00:10:11.000Z</time>
      </trkpt>
      <trkpt lat="49.57625" lon="5.73551">
        <ele>298.3</ele>
        <time>1970-01-01T00:10:12.000Z</time>
      </trkpt>
      <trkpt lat="49.57627" lon="5.73546">
        <ele>298.6</ele>
        <time>1970-01-01T00:10:14.000Z</time>
      </trkpt>
      <trkpt lat="49.57629" lon="5.73539">
        <ele>298.9</ele>
        <time>1970-01-01T00:10:16.000Z</time>
      </trkpt>
      <trkpt lat="49.57634" lon="5.73533">
        <ele>299.3</ele>
        <time>1970-01-01T00:10:18.000Z</time>
      </trkpt>
      <trkpt lat="49.57637" lon="5.73529">
        <ele>299.5</ele>
        <time>1970-01-01T00:10:19.000Z</time>
      </trkpt>
      <trkpt lat="49.57639" lon="5.73524">
        <ele>299.7</ele>
        <time>1970-01-01T00:10:20.000Z</time>
      </trkpt>
      <trkpt lat="49.57641" lon="5.7352">
        <ele>299.9</ele>
        <time>1970-01-01T00:10:21.000Z</time>
      </trkpt>
      <trkpt lat="49.57639" lon="5.7351">
        <ele>300.3</ele>
        <time>1970-01-01T00:10:23.000Z</time>
      </trkpt>
      <trkpt lat="49.57632" lon="5.73495">
        <ele>300.9</ele>
        <time>1970-01-01T00:10:26.000Z</time>
      </trkpt>
      <trkpt lat="49.57633" lon="5.73484">
        <ele>301.2</ele>
        <time>1970-01-01T00:10:27.000Z</time>
      </trkpt>
      <trkpt lat="49.57633" lon="5.73474">
        <ele>301.4</ele>
        <time>1970-01-01T00:10:29.000Z</time>
      </trkpt>
      <trkpt lat="49.57631" lon="5.73459">
        <ele>301.5</ele>
        <time>1970-01-01T00:10:31.000Z</time>
      </trkpt>
      <trkpt lat="49.5763" lon="5.73451">
        <ele>301.6</ele>
        <time>1970-01-01T00:10:32.000Z</time>
      </trkpt>
      <trkpt lat="49.57629" lon="5.73444">
        <ele>301.6</ele>
        <time>1970-01-01T00:10:33.000Z</time>
      </trkpt>
      <trkpt lat="49.57629" lon="5.73419">
        <ele>301.5</ele>
        <time>1970-01-01T00:10:35.000Z</time>
      </trkpt>
      <trkpt lat="49.57634" lon="5.73405">
        <ele>301.5</ele>
        <time>1970-01-01T00:10:37.000Z</time>
      </trkpt>
      <trkpt lat="49.57638" lon="5.734">
        <ele>301.6</ele>
        <time>1970-01-01T00:10:38.000Z</time>
      </trkpt>
      <trkpt lat="49.57646" lon="5.73391">
        <ele>301.8</ele>
        <time>1970-01-01T00:10:40.000Z</time>
      </trkpt>
      <trkpt lat="49.57649" lon="5.73388">
        <ele>301.9</ele>
        <time>1970-01-01T00:10:41.000Z</time>
      </trkpt>
      <trkpt lat="49.57651" lon="5.73384">
        <ele>302</ele>
        <time>1970-01-01T00:10:42.000Z</time>
      </trkpt>
      <trkpt lat="49.57657" lon="5.73378">
        <ele>302.3</ele>
        <time>1970-01-01T00:10:44.000Z</time>
      </trkpt>
      <trkpt lat="49.57664" lon="5.73371">
        <ele>302.9</ele>
        <time>1970-01-01T00:10:46.000Z</time>
      </trkpt>
      <trkpt lat="49.57669" lon="5.73365">
        <ele>303.3</ele>
        <time>1970-01-01T00:10:47.000Z</time>
      </trkpt>
      <trkpt lat="49.57673" lon="5.73362">
        <ele>303.7</ele>
        <time>1970-01-01T00:10:48.000Z</time>
      </trkpt>
      <trkpt lat="49.57677" lon="5.73357">
        <ele>304.2</ele>
        <time>1970-01-01T00:10:50.000Z</time>
      </trkpt>
      <trkpt lat="49.5768" lon="5.73355">
        <ele>304.6</ele>
        <time>1970-01-01T00:10:51.000Z</time>
      </trkpt>
      <trkpt lat="49.57683" lon="5.73352">
        <ele>305</ele>
        <time>1970-01-01T00:10:52.000Z</time>
      </trkpt>
      <trkpt lat="49.57687" lon="5.73348">
        <ele>305.5</ele>
        <time>1970-01-01T00:10:54.000Z</time>
      </trkpt>
      <trkpt lat="49.57691" lon="5.73343">
        <ele>306.1</ele>
        <time>1970-01-01T00:10:56.000Z</time>
      </trkpt>
      <trkpt lat="49.57696" lon="5.73337">
        <ele>306.9</ele>
        <time>1970-01-01T00:10:59.000Z</time>
      </trkpt>
      <trkpt lat="49.57702" lon="5.73331">
        <ele>307.6</ele>
        <time>1970-01-01T00:11:02.000Z</time>
      </trkpt>
      <trkpt lat="49.57704" lon="5.73329">
        <ele>308</ele>
        <time>1970-01-01T00:11:03.000Z</time>
      </trkpt>
      <trkpt lat="49.57707" lon="5.73325">
        <ele>308.5</ele>
        <time>1970-01-01T00:11:05.000Z</time>
      </trkpt>
      <trkpt lat="49.5771" lon="5.73321">
        <ele>308.9</ele>
        <time>1970-01-01T00:11:07.000Z</time>
      </trkpt>
      <trkpt lat="49.57715" lon="5.73316">
        <ele>309.7</ele>
        <time>1970-01-01T00:11:10.000Z</time>
      </trkpt>
      <trkpt lat="49.57717" lon="5.73314">
        <ele>310</ele>
        <time>1970-01-01T00:11:11.000Z</time>
      </trkpt>
      <trkpt lat="49.5772" lon="5.73311">
        <ele>310.4</ele>
        <time>1970-01-01T00:11:13.000Z</time>
      </trkpt>
      <trkpt lat="49.57723" lon="5.73309">
        <ele>310.8</ele>
        <time>1970-01-01T00:11:14.000Z</time>
      </trkpt>
      <trkpt lat="49.57726" lon="5.73305">
        <ele>311.3</ele>
        <time>1970-01-01T00:11:16.000Z</time>
      </trkpt>
      <trkpt lat="49.57729" lon="5.73301">
        <ele>311.8</ele>
        <time>1970-01-01T00:11:18.000Z</time>
      </trkpt>
      <trkpt lat="49.57731" lon="5.73299">
        <ele>312.2</ele>
        <time>1970-01-01T00:11:20.000Z</time>
      </trkpt>
      <trkpt lat="49.57734" lon="5.73294">
        <ele>312.8</ele>
        <time>1970-01-01T00:11:22.000Z</time>
      </trkpt>
      <trkpt lat="49.57739" lon="5.7329">
        <ele>313.5</ele>
        <time>1970-01-01T00:11:25.000Z</time>
      </trkpt>
      <trkpt lat="49.57744" lon="5.73285">
        <ele>314.2</ele>
        <time>1970-01-01T00:11:27.000Z</time>
      </trkpt>
      <trkpt lat="49.57748" lon="5.7328">
        <ele>314.8</ele>
        <time>1970-01-01T00:11:29.000Z</time>
      </trkpt>
      <trkpt lat="49.57751" lon="5.73276">
        <ele>315.3</ele>
        <time>1970-01-01T00:11:32.000Z</time>
      </trkpt>
      <trkpt lat="49.57754" lon="5.73272">
        <ele>315.7</ele>
        <time>1970-01-01T00:11:34.000Z</time>
      </trkpt>
      <trkpt lat="49.57758" lon="5.73271">
        <ele>316.1</ele>
        <time>1970-01-01T00:11:37.000Z</time>
      </trkpt>
      <trkpt lat="49.57763" lon="5.73272">
        <ele>316.8</ele>
        <time>1970-01-01T00:11:40.000Z</time>
      </trkpt>
      <trkpt lat="49.57766" lon="5.73273">
        <ele>317.1</ele>
        <time>1970-01-01T00:11:42.000Z</time>
      </trkpt>
      <trkpt lat="49.57771" lon="5.73272">
        <ele>317.7</ele>
        <time>1970-01-01T00:11:45.000Z</time>
      </trkpt>
      <trkpt lat="49.57774" lon="5.73272">
        <ele>318.1</ele>
        <time>1970-01-01T00:11:47.000Z</time>
      </trkpt>
      <trkpt lat="49.57778" lon="5.73272">
        <ele>318.6</ele>
        <time>1970-01-01T00:11:49.000Z</time>
      </trkpt>
      <trkpt lat="49.57781" lon="5.73271">
        <ele>318.9</ele>
        <time>1970-01-01T00:11:51.000Z</time>
      </trkpt>
      <trkpt lat="49.57786" lon="5.73269">
        <ele>319.4</ele>
        <time>1970-01-01T00:11:54.000Z</time>
      </trkpt>
      <trkpt lat="49.57791" lon="5.73268">
        <ele>319.9</ele>
        <time>1970-01-01T00:11:56.000Z</time>
      </trkpt>
      <trkpt lat="49.57795" lon="5.73266">
        <ele>320.2</ele>
        <time>1970-01-01T00:11:58.000Z</time>
      </trkpt>
      <trkpt lat="49.578" lon="5.73265">
        <ele>320.8</ele>
        <time>1970-01-01T00:12:01.000Z</time>
      </trkpt>
      <trkpt lat="49.57805" lon="5.73262">
        <ele>321.2</ele>
        <time>1970-01-01T00:12:03.000Z</time>
      </trkpt>
      <trkpt lat="49.5781" lon="5.73261">
        <ele>321.5</ele>
        <time>1970-01-01T00:12:06.000Z</time>
      </trkpt>
      <trkpt lat="49.57814" lon="5.73263">
        <ele>321.8</ele>
        <time>1970-01-01T00:12:07.000Z</time>
      </trkpt>
      <trkpt lat="49.57817" lon="5.73266">
        <ele>322.1</ele>
        <time>1970-01-01T00:12:10.000Z</time>
      </trkpt>
      <trkpt lat="49.57819" lon="5.7327">
        <ele>322.1</ele>
        <time>1970-01-01T00:12:11.000Z</time>
      </trkpt>
      <trkpt lat="49.57819" lon="5.73274">
        <ele>322.1</ele>
        <time>1970-01-01T00:12:12.000Z</time>
      </trkpt>
      <trkpt lat="49.57819" lon="5.73282">
        <ele>322.1</ele>
        <time>1970-01-01T00:12:14.000Z</time>
      </trkpt>
      <trkpt lat="49.57819" lon="5.73288">
        <ele>322.1</ele>
        <time>1970-01-01T00:12:15.000Z</time>
      </trkpt>
      <trkpt lat="49.5782" lon="5.73293">
        <ele>322.2</ele>
        <time>1970-01-01T00:12:16.000Z</time>
      </trkpt>
      <trkpt lat="49.57821" lon="5.73297">
        <ele>322.2</ele>
        <time>1970-01-01T00:12:17.000Z</time>
      </trkpt>
      <trkpt lat="49.57824" lon="5.73305">
        <ele>322.2</ele>
        <time>1970-01-01T00:12:19.000Z</time>
      </trkpt>
      <trkpt lat="49.57826" lon="5.73309">
        <ele>322.2</ele>
        <time>1970-01-01T00:12:20.000Z</time>
      </trkpt>
      <trkpt lat="49.57829" lon="5.73314">
        <ele>322.1</ele>
        <time>1970-01-01T00:12:21.000Z</time>
      </trkpt>
      <trkpt lat="49.57831" lon="5.7332">
        <ele>322.1</ele>
        <time>1970-01-01T00:12:23.000Z</time>
      </trkpt>
      <trkpt lat="49.57834" lon="5.73326">
        <ele>322.1</ele>
        <time>1970-01-01T00:12:24.000Z</time>
      </trkpt>
      <trkpt lat="49.57838" lon="5.73337">
        <ele>322.1</ele>
        <time>1970-01-01T00:12:26.000Z</time>
      </trkpt>
      <trkpt lat="49.57841" lon="5.73343">
        <ele>322.1</ele>
        <time>1970-01-01T00:12:27.000Z</time>
      </trkpt>
      <trkpt lat="49.57847" lon="5.73352">
        <ele>322.1</ele>
        <time>1970-01-01T00:12:28.000Z</time>
      </trkpt>
      <trkpt lat="49.5785" lon="5.73356">
        <ele>322.1</ele>
        <time>1970-01-01T00:12:30.000Z</time>
      </trkpt>
      <trkpt lat="49.57854" lon="5.73361">
        <ele>322.1</ele>
        <time>1970-01-01T00:12:31.000Z</time>
      </trkpt>
      <trkpt lat="49.57857" lon="5.73364">
        <ele>322.2</ele>
        <time>1970-01-01T00:12:32.000Z</time>
      </trkpt>
      <trkpt lat="49.5786" lon="5.73367">
        <ele>322.3</ele>
        <time>1970-01-01T00:12:34.000Z</time>
      </trkpt>
      <trkpt lat="49.57864" lon="5.73371">
        <ele>322.5</ele>
        <time>1970-01-01T00:12:36.000Z</time>
      </trkpt>
      <trkpt lat="49.57871" lon="5.73377">
        <ele>322.8</ele>
        <time>1970-01-01T00:12:38.000Z</time>
      </trkpt>
      <trkpt lat="49.57875" lon="5.7338">
        <ele>322.9</ele>
        <time>1970-01-01T00:12:42.000Z</time>
      </trkpt>
      <trkpt lat="49.57879" lon="5.73385">
        <ele>323</ele>
        <time>1970-01-01T00:12:44.000Z</time>
      </trkpt>
      <trkpt lat="49.57881" lon="5.73388">
        <ele>323.1</ele>
        <time>1970-01-01T00:12:45.000Z</time>
      </trkpt>
      <trkpt lat="49.57884" lon="5.73391">
        <ele>323.2</ele>
        <time>1970-01-01T00:12:46.000Z</time>
      </trkpt>
      <trkpt lat="49.57887" lon="5.73394">
        <ele>323.2</ele>
        <time>1970-01-01T00:12:47.000Z</time>
      </trkpt>
      <trkpt lat="49.5789" lon="5.73398">
        <ele>323.3</ele>
        <time>1970-01-01T00:12:49.000Z</time>
      </trkpt>
      <trkpt lat="49.57895" lon="5.73405">
        <ele>323.4</ele>
        <time>1970-01-01T00:12:50.000Z</time>
      </trkpt>
      <trkpt lat="49.57898" lon="5.73409">
        <ele>323.5</ele>
        <time>1970-01-01T00:12:53.000Z</time>
      </trkpt>
      <trkpt lat="49.579" lon="5.73413">
        <ele>323.5</ele>
        <time>1970-01-01T00:12:55.000Z</time>
      </trkpt>
      <trkpt lat="49.57904" lon="5.73419">
        <ele>323.6</ele>
        <time>1970-01-01T00:12:58.000Z</time>
      </trkpt>
      <trkpt lat="49.57906" lon="5.73424">
        <ele>323.7</ele>
        <time>1970-01-01T00:13:00.000Z</time>
      </trkpt>
      <trkpt lat="49.5791" lon="5.73432">
        <ele>323.9</ele>
        <time>1970-01-01T00:13:01.000Z</time>
      </trkpt>
      <trkpt lat="49.57912" lon="5.73447">
        <ele>324.2</ele>
        <time>1970-01-01T00:13:02.000Z</time>
      </trkpt>
      <trkpt lat="49.57918" lon="5.73458">
        <ele>324.4</ele>
        <time>1970-01-01T00:13:03.000Z</time>
      </trkpt>
      <trkpt lat="49.57928" lon="5.7347">
        <ele>324.9</ele>
        <time>1970-01-01T00:13:04.000Z</time>
      </trkpt>
      <trkpt lat="49.57938" lon="5.73478">
        <ele>325.4</ele>
        <time>1970-01-01T00:13:06.000Z</time>
      </trkpt>
      <trkpt lat="49.57948" lon="5.73483">
        <ele>325.7</ele>
        <time>1970-01-01T00:13:07.000Z</time>
      </trkpt>
      <trkpt lat="49.57953" lon="5.73488">
        <ele>325.9</ele>
        <time>1970-01-01T00:13:09.000Z</time>
      </trkpt>
      <trkpt lat="49.57956" lon="5.7349">
        <ele>325.9</ele>
        <time>1970-01-01T00:13:10.000Z</time>
      </trkpt>
      <trkpt lat="49.5796" lon="5.73493">
        <ele>326</ele>
        <time>1970-01-01T00:13:11.000Z</time>
      </trkpt>
      <trkpt lat="49.57965" lon="5.73497">
        <ele>326.1</ele>
        <time>1970-01-01T00:13:13.000Z</time>
      </trkpt>
      <trkpt lat="49.57972" lon="5.73504">
        <ele>326.3</ele>
        <time>1970-01-01T00:13:14.000Z</time>
      </trkpt>
      <trkpt lat="49.57975" lon="5.73508">
        <ele>326.3</ele>
        <time>1970-01-01T00:13:16.000Z</time>
      </trkpt>
      <trkpt lat="49.57977" lon="5.73511">
        <ele>326.4</ele>
        <time>1970-01-01T00:13:17.000Z</time>
      </trkpt>
      <trkpt lat="49.57981" lon="5.73515">
        <ele>326.5</ele>
        <time>1970-01-01T00:13:19.000Z</time>
      </trkpt>
      <trkpt lat="49.57994" lon="5.73523">
        <ele>326.6</ele>
        <time>1970-01-01T00:13:20.000Z</time>
      </trkpt>
      <trkpt lat="49.58001" lon="5.73527">
        <ele>326.6</ele>
        <time>1970-01-01T00:13:21.000Z</time>
      </trkpt>
      <trkpt lat="49.58007" lon="5.7353">
        <ele>326.6</ele>
        <time>1970-01-01T00:13:23.000Z</time>
      </trkpt>
      <trkpt lat="49.58011" lon="5.73525">
        <ele>327.1</ele>
        <time>1970-01-01T00:13:26.000Z</time>
      </trkpt>
      <trkpt lat="49.58013" lon="5.73518">
        <ele>327.5</ele>
        <time>1970-01-01T00:13:27.000Z</time>
      </trkpt>
      <trkpt lat="49.58015" lon="5.73511">
        <ele>328.1</ele>
        <time>1970-01-01T00:13:29.000Z</time>
      </trkpt>
      <trkpt lat="49.58017" lon="5.73504">
        <ele>328.4</ele>
        <time>1970-01-01T00:13:30.000Z</time>
      </trkpt>
      <trkpt lat="49.58019" lon="5.73495">
        <ele>329.3</ele>
        <time>1970-01-01T00:13:32.000Z</time>
      </trkpt>
      <trkpt lat="49.5802" lon="5.73487">
        <ele>329.6</ele>
        <time>1970-01-01T00:13:33.000Z</time>
      </trkpt>
      <trkpt lat="49.58023" lon="5.73479">
        <ele>330.5</ele>
        <time>1970-01-01T00:13:35.000Z</time>
      </trkpt>
      <trkpt lat="49.58026" lon="5.73472">
        <ele>331.2</ele>
        <time>1970-01-01T00:13:37.000Z</time>
      </trkpt>
      <trkpt lat="49.58027" lon="5.73463">
        <ele>331.8</ele>
        <time>1970-01-01T00:13:38.000Z</time>
      </trkpt>
      <trkpt lat="49.58027" lon="5.73457">
        <ele>332.1</ele>
        <time>1970-01-01T00:13:39.000Z</time>
      </trkpt>
      <trkpt lat="49.58029" lon="5.73449">
        <ele>332.6</ele>
        <time>1970-01-01T00:13:41.000Z</time>
      </trkpt>
      <trkpt lat="49.5803" lon="5.73444">
        <ele>332.8</ele>
        <time>1970-01-01T00:13:42.000Z</time>
      </trkpt>
      <trkpt lat="49.58032" lon="5.73436">
        <ele>333.2</ele>
        <time>1970-01-01T00:13:44.000Z</time>
      </trkpt>
      <trkpt lat="49.58033" lon="5.73429">
        <ele>333.5</ele>
        <time>1970-01-01T00:13:45.000Z</time>
      </trkpt>
      <trkpt lat="49.58034" lon="5.73422">
        <ele>333.7</ele>
        <time>1970-01-01T00:13:47.000Z</time>
      </trkpt>
      <trkpt lat="49.58033" lon="5.73415">
        <ele>333.9</ele>
        <time>1970-01-01T00:13:48.000Z</time>
      </trkpt>
      <trkpt lat="49.58033" lon="5.73407">
        <ele>334.2</ele>
        <time>1970-01-01T00:13:50.000Z</time>
      </trkpt>
      <trkpt lat="49.58034" lon="5.734">
        <ele>334.4</ele>
        <time>1970-01-01T00:13:51.000Z</time>
      </trkpt>
      <trkpt lat="49.58035" lon="5.73393">
        <ele>334.5</ele>
        <time>1970-01-01T00:13:52.000Z</time>
      </trkpt>
      <trkpt lat="49.58035" lon="5.73385">
        <ele>334.7</ele>
        <time>1970-01-01T00:13:53.000Z</time>
      </trkpt>
      <trkpt lat="49.58035" lon="5.73377">
        <ele>334.9</ele>
        <time>1970-01-01T00:13:55.000Z</time>
      </trkpt>
      <trkpt lat="49.58035" lon="5.7337">
        <ele>335.1</ele>
        <time>1970-01-01T00:13:56.000Z</time>
      </trkpt>
      <trkpt lat="49.58036" lon="5.73362">
        <ele>335.2</ele>
        <time>1970-01-01T00:13:58.000Z</time>
      </trkpt>
      <trkpt lat="49.58038" lon="5.73357">
        <ele>335.4</ele>
        <time>1970-01-01T00:13:59.000Z</time>
      </trkpt>
      <trkpt lat="49.58041" lon="5.73352">
        <ele>335.5</ele>
        <time>1970-01-01T00:14:00.000Z</time>
      </trkpt>
      <trkpt lat="49.58044" lon="5.73347">
        <ele>335.7</ele>
        <time>1970-01-01T00:14:02.000Z</time>
      </trkpt>
      <trkpt lat="49.58047" lon="5.73342">
        <ele>335.8</ele>
        <time>1970-01-01T00:14:03.000Z</time>
      </trkpt>
      <trkpt lat="49.5805" lon="5.73338">
        <ele>336</ele>
        <time>1970-01-01T00:14:04.000Z</time>
      </trkpt>
      <trkpt lat="49.58053" lon="5.73332">
        <ele>336.3</ele>
        <time>1970-01-01T00:14:06.000Z</time>
      </trkpt>
      <trkpt lat="49.58055" lon="5.73328">
        <ele>336.6</ele>
        <time>1970-01-01T00:14:07.000Z</time>
      </trkpt>
      <trkpt lat="49.58058" lon="5.73321">
        <ele>336.7</ele>
        <time>1970-01-01T00:14:09.000Z</time>
      </trkpt>
      <trkpt lat="49.58061" lon="5.73317">
        <ele>336.9</ele>
        <time>1970-01-01T00:14:10.000Z</time>
      </trkpt>
      <trkpt lat="49.58064" lon="5.73311">
        <ele>337.1</ele>
        <time>1970-01-01T00:14:12.000Z</time>
      </trkpt>
      <trkpt lat="49.58067" lon="5.73308">
        <ele>337.1</ele>
        <time>1970-01-01T00:14:13.000Z</time>
      </trkpt>
      <trkpt lat="49.58072" lon="5.73301">
        <ele>337.1</ele>
        <time>1970-01-01T00:14:15.000Z</time>
      </trkpt>
      <trkpt lat="49.58076" lon="5.73296">
        <ele>336.9</ele>
        <time>1970-01-01T00:14:16.000Z</time>
      </trkpt>
      <trkpt lat="49.58081" lon="5.7329">
        <ele>336.6</ele>
        <time>1970-01-01T00:14:17.000Z</time>
      </trkpt>
      <trkpt lat="49.58088" lon="5.73285">
        <ele>335.9</ele>
        <time>1970-01-01T00:14:19.000Z</time>
      </trkpt>
      <trkpt lat="49.58097" lon="5.73275">
        <ele>334.3</ele>
        <time>1970-01-01T00:14:20.000Z</time>
      </trkpt>
      <trkpt lat="49.58115" lon="5.73258">
        <ele>329.8</ele>
        <time>1970-01-01T00:14:22.000Z</time>
      </trkpt>
      <trkpt lat="49.58123" lon="5.73255">
        <ele>329.4</ele>
        <time>1970-01-01T00:14:23.000Z</time>
      </trkpt>
      <trkpt lat="49.58136" lon="5.73254">
        <ele>328.7</ele>
        <time>1970-01-01T00:14:25.000Z</time>
      </trkpt>
      <trkpt lat="49.58142" lon="5.73257">
        <ele>328.4</ele>
        <time>1970-01-01T00:14:26.000Z</time>
      </trkpt>
      <trkpt lat="49.58152" lon="5.73263">
        <ele>328</ele>
        <time>1970-01-01T00:14:28.000Z</time>
      </trkpt>
      <trkpt lat="49.58168" lon="5.7327">
        <ele>327.4</ele>
        <time>1970-01-01T00:14:30.000Z</time>
      </trkpt>
      <trkpt lat="49.58176" lon="5.73274">
        <ele>327.7</ele>
        <time>1970-01-01T00:14:31.000Z</time>
      </trkpt>
      <trkpt lat="49.58193" lon="5.73283">
        <ele>328.1</ele>
        <time>1970-01-01T00:14:33.000Z</time>
      </trkpt>
      <trkpt lat="49.58202" lon="5.73289">
        <ele>328.4</ele>
        <time>1970-01-01T00:14:34.000Z</time>
      </trkpt>
      <trkpt lat="49.58213" lon="5.73302">
        <ele>328.9</ele>
        <time>1970-01-01T00:14:36.000Z</time>
      </trkpt>
      <trkpt lat="49.58221" lon="5.73317">
        <ele>329.4</ele>
        <time>1970-01-01T00:14:38.000Z</time>
      </trkpt>
      <trkpt lat="49.58227" lon="5.73331">
        <ele>329.8</ele>
        <time>1970-01-01T00:14:40.000Z</time>
      </trkpt>
      <trkpt lat="49.58229" lon="5.73337">
        <ele>329.9</ele>
        <time>1970-01-01T00:14:41.000Z</time>
      </trkpt>
      <trkpt lat="49.58227" lon="5.73346">
        <ele>330.2</ele>
        <time>1970-01-01T00:14:43.000Z</time>
      </trkpt>
      <trkpt lat="49.58224" lon="5.7335">
        <ele>330.2</ele>
        <time>1970-01-01T00:14:44.000Z</time>
      </trkpt>
      <trkpt lat="49.58222" lon="5.73355">
        <ele>330.2</ele>
        <time>1970-01-01T00:14:45.000Z</time>
      </trkpt>
      <trkpt lat="49.58223" lon="5.73364">
        <ele>330.2</ele>
        <time>1970-01-01T00:14:47.000Z</time>
      </trkpt>
      <trkpt lat="49.58225" lon="5.73369">
        <ele>330.2</ele>
        <time>1970-01-01T00:14:48.000Z</time>
      </trkpt>
      <trkpt lat="49.58228" lon="5.73374">
        <ele>330.5</ele>
        <time>1970-01-01T00:14:49.000Z</time>
      </trkpt>
      <trkpt lat="49.58231" lon="5.73381">
        <ele>330.7</ele>
        <time>1970-01-01T00:14:50.000Z</time>
      </trkpt>
      <trkpt lat="49.58238" lon="5.73394">
        <ele>330.8</ele>
        <time>1970-01-01T00:14:52.000Z</time>
      </trkpt>
      <trkpt lat="49.58241" lon="5.73401">
        <ele>330.9</ele>
        <time>1970-01-01T00:14:53.000Z</time>
      </trkpt>
      <trkpt lat="49.58246" lon="5.73406">
        <ele>330.9</ele>
        <time>1970-01-01T00:14:54.000Z</time>
      </trkpt>
      <trkpt lat="49.58256" lon="5.73415">
        <ele>330.9</ele>
        <time>1970-01-01T00:14:56.000Z</time>
      </trkpt>
      <trkpt lat="49.58261" lon="5.73415">
        <ele>330.9</ele>
        <time>1970-01-01T00:14:57.000Z</time>
      </trkpt>
      <trkpt lat="49.58274" lon="5.73414">
        <ele>330.1</ele>
        <time>1970-01-01T00:14:59.000Z</time>
      </trkpt>
      <trkpt lat="49.58285" lon="5.73416">
        <ele>329.5</ele>
        <time>1970-01-01T00:15:01.000Z</time>
      </trkpt>
      <trkpt lat="49.58291" lon="5.73418">
        <ele>329.3</ele>
        <time>1970-01-01T00:15:02.000Z</time>
      </trkpt>
      <trkpt lat="49.58303" lon="5.73425">
        <ele>329.1</ele>
        <time>1970-01-01T00:15:04.000Z</time>
      </trkpt>
      <trkpt lat="49.58309" lon="5.73428">
        <ele>329.2</ele>
        <time>1970-01-01T00:15:05.000Z</time>
      </trkpt>
      <trkpt lat="49.58315" lon="5.73431">
        <ele>329.3</ele>
        <time>1970-01-01T00:15:06.000Z</time>
      </trkpt>
      <trkpt lat="49.58325" lon="5.73436">
        <ele>329.6</ele>
        <time>1970-01-01T00:15:08.000Z</time>
      </trkpt>
      <trkpt lat="49.58334" lon="5.73443">
        <ele>329.9</ele>
        <time>1970-01-01T00:15:10.000Z</time>
      </trkpt>
      <trkpt lat="49.5834" lon="5.73449">
        <ele>330.2</ele>
        <time>1970-01-01T00:15:12.000Z</time>
      </trkpt>
      <trkpt lat="49.58348" lon="5.73455">
        <ele>330.5</ele>
        <time>1970-01-01T00:15:14.000Z</time>
      </trkpt>
      <trkpt lat="49.58354" lon="5.73464">
        <ele>330.7</ele>
        <time>1970-01-01T00:15:16.000Z</time>
      </trkpt>
      <trkpt lat="49.58361" lon="5.73472">
        <ele>330.9</ele>
        <time>1970-01-01T00:15:18.000Z</time>
      </trkpt>
      <trkpt lat="49.58364" lon="5.7348">
        <ele>331</ele>
        <time>1970-01-01T00:15:20.000Z</time>
      </trkpt>
      <trkpt lat="49.58368" lon="5.73483">
        <ele>331.1</ele>
        <time>1970-01-01T00:15:21.000Z</time>
      </trkpt>
      <trkpt lat="49.58374" lon="5.73488">
        <ele>331.3</ele>
        <time>1970-01-01T00:15:22.000Z</time>
      </trkpt>
      <trkpt lat="49.58379" lon="5.73493">
        <ele>331.4</ele>
        <time>1970-01-01T00:15:24.000Z</time>
      </trkpt>
      <trkpt lat="49.58384" lon="5.73496">
        <ele>331.5</ele>
        <time>1970-01-01T00:15:26.000Z</time>
      </trkpt>
      <trkpt lat="49.58389" lon="5.73499">
        <ele>331.7</ele>
        <time>1970-01-01T00:15:27.000Z</time>
      </trkpt>
      <trkpt lat="49.58393" lon="5.73502">
        <ele>331.8</ele>
        <time>1970-01-01T00:15:28.000Z</time>
      </trkpt>
      <trkpt lat="49.58398" lon="5.73507">
        <ele>332</ele>
        <time>1970-01-01T00:15:30.000Z</time>
      </trkpt>
      <trkpt lat="49.58405" lon="5.73511">
        <ele>332.3</ele>
        <time>1970-01-01T00:15:32.000Z</time>
      </trkpt>
      <trkpt lat="49.58411" lon="5.73514">
        <ele>332.5</ele>
        <time>1970-01-01T00:15:33.000Z</time>
      </trkpt>
      <trkpt lat="49.58416" lon="5.73516">
        <ele>332.7</ele>
        <time>1970-01-01T00:15:34.000Z</time>
      </trkpt>
      <trkpt lat="49.5842" lon="5.73517">
        <ele>332.8</ele>
        <time>1970-01-01T00:15:35.000Z</time>
      </trkpt>
      <trkpt lat="49.58425" lon="5.73521">
        <ele>332.9</ele>
        <time>1970-01-01T00:15:37.000Z</time>
      </trkpt>
      <trkpt lat="49.58431" lon="5.73524">
        <ele>333</ele>
        <time>1970-01-01T00:15:38.000Z</time>
      </trkpt>
      <trkpt lat="49.58437" lon="5.73525">
        <ele>333.1</ele>
        <time>1970-01-01T00:15:39.000Z</time>
      </trkpt>
      <trkpt lat="49.58443" lon="5.73528">
        <ele>333.2</ele>
        <time>1970-01-01T00:15:41.000Z</time>
      </trkpt>
      <trkpt lat="49.58449" lon="5.7353">
        <ele>333.2</ele>
        <time>1970-01-01T00:15:42.000Z</time>
      </trkpt>
      <trkpt lat="49.58455" lon="5.73531">
        <ele>333.2</ele>
        <time>1970-01-01T00:15:43.000Z</time>
      </trkpt>
      <trkpt lat="49.58461" lon="5.73534">
        <ele>333.4</ele>
        <time>1970-01-01T00:15:45.000Z</time>
      </trkpt>
      <trkpt lat="49.58467" lon="5.73535">
        <ele>333.6</ele>
        <time>1970-01-01T00:15:47.000Z</time>
      </trkpt>
      <trkpt lat="49.58472" lon="5.73534">
        <ele>333.7</ele>
        <time>1970-01-01T00:15:48.000Z</time>
      </trkpt>
      <trkpt lat="49.58475" lon="5.73533">
        <ele>333.8</ele>
        <time>1970-01-01T00:15:49.000Z</time>
      </trkpt>
      <trkpt lat="49.58481" lon="5.73532">
        <ele>334</ele>
        <time>1970-01-01T00:15:51.000Z</time>
      </trkpt>
      <trkpt lat="49.58485" lon="5.7353">
        <ele>334.2</ele>
        <time>1970-01-01T00:15:52.000Z</time>
      </trkpt>
      <trkpt lat="49.58488" lon="5.73529">
        <ele>334.3</ele>
        <time>1970-01-01T00:15:53.000Z</time>
      </trkpt>
      <trkpt lat="49.58493" lon="5.73526">
        <ele>334.5</ele>
        <time>1970-01-01T00:15:54.000Z</time>
      </trkpt>
      <trkpt lat="49.58497" lon="5.73524">
        <ele>334.7</ele>
        <time>1970-01-01T00:15:56.000Z</time>
      </trkpt>
      <trkpt lat="49.58502" lon="5.73521">
        <ele>334.8</ele>
        <time>1970-01-01T00:15:57.000Z</time>
      </trkpt>
      <trkpt lat="49.58505" lon="5.73519">
        <ele>334.9</ele>
        <time>1970-01-01T00:15:58.000Z</time>
      </trkpt>
      <trkpt lat="49.5851" lon="5.73518">
        <ele>335</ele>
        <time>1970-01-01T00:16:00.000Z</time>
      </trkpt>
      <trkpt lat="49.58516" lon="5.73518">
        <ele>335</ele>
        <time>1970-01-01T00:16:02.000Z</time>
      </trkpt>
      <trkpt lat="49.5852" lon="5.73517">
        <ele>335</ele>
        <time>1970-01-01T00:16:05.000Z</time>
      </trkpt>
      <trkpt lat="49.58525" lon="5.73526">
        <ele>335</ele>
        <time>1970-01-01T00:16:07.000Z</time>
      </trkpt>
      <trkpt lat="49.58527" lon="5.73531">
        <ele>335</ele>
        <time>1970-01-01T00:16:10.000Z</time>
      </trkpt>
      <trkpt lat="49.58529" lon="5.73535">
        <ele>335</ele>
        <time>1970-01-01T00:16:12.000Z</time>
      </trkpt>
      <trkpt lat="49.58533" lon="5.73541">
        <ele>335</ele>
        <time>1970-01-01T00:16:15.000Z</time>
      </trkpt>
      <trkpt lat="49.58542" lon="5.73549">
        <ele>335.3</ele>
        <time>1970-01-01T00:16:16.000Z</time>
      </trkpt>
      <trkpt lat="49.5855" lon="5.73558">
        <ele>335.4</ele>
        <time>1970-01-01T00:16:17.000Z</time>
      </trkpt>
      <trkpt lat="49.58551" lon="5.7356">
        <ele>335.4</ele>
        <time>1970-01-01T00:16:19.000Z</time>
      </trkpt>
      <trkpt lat="49.58555" lon="5.73563">
        <ele>335.5</ele>
        <time>1970-01-01T00:16:20.000Z</time>
      </trkpt>
      <trkpt lat="49.5857" lon="5.73582">
        <ele>335.6</ele>
        <time>1970-01-01T00:16:22.000Z</time>
      </trkpt>
      <trkpt lat="49.58578" lon="5.73591">
        <ele>335.7</ele>
        <time>1970-01-01T00:16:24.000Z</time>
      </trkpt>
      <trkpt lat="49.5858" lon="5.73587">
        <ele>335.8</ele>
        <time>1970-01-01T00:16:25.000Z</time>
      </trkpt>
      <trkpt lat="49.58589" lon="5.73594">
        <ele>335.9</ele>
        <time>1970-01-01T00:16:26.000Z</time>
      </trkpt>
      <trkpt lat="49.58591" lon="5.73598">
        <ele>335.9</ele>
        <time>1970-01-01T00:16:27.000Z</time>
      </trkpt>
      <trkpt lat="49.58594" lon="5.73613">
        <ele>336</ele>
        <time>1970-01-01T00:16:28.000Z</time>
      </trkpt>
      <trkpt lat="49.58591" lon="5.73617">
        <ele>336.1</ele>
        <time>1970-01-01T00:16:30.000Z</time>
      </trkpt>
      <trkpt lat="49.58599" lon="5.7363">
        <ele>336.2</ele>
        <time>1970-01-01T00:16:32.000Z</time>
      </trkpt>
      <trkpt lat="49.58612" lon="5.7365">
        <ele>336.5</ele>
        <time>1970-01-01T00:16:34.000Z</time>
      </trkpt>
      <trkpt lat="49.5862" lon="5.7366">
        <ele>336.6</ele>
        <time>1970-01-01T00:16:36.000Z</time>
      </trkpt>
      <trkpt lat="49.58625" lon="5.73668">
        <ele>336.6</ele>
        <time>1970-01-01T00:16:37.000Z</time>
      </trkpt>
      <trkpt lat="49.58629" lon="5.73676">
        <ele>336.6</ele>
        <time>1970-01-01T00:16:38.000Z</time>
      </trkpt>
      <trkpt lat="49.58639" lon="5.73686">
        <ele>336.6</ele>
        <time>1970-01-01T00:16:45.000Z</time>
      </trkpt>
      <trkpt lat="49.58646" lon="5.73699">
        <ele>336.7</ele>
        <time>1970-01-01T00:16:46.000Z</time>
      </trkpt>
      <trkpt lat="49.58648" lon="5.73705">
        <ele>336.7</ele>
        <time>1970-01-01T00:16:48.000Z</time>
      </trkpt>
      <trkpt lat="49.58661" lon="5.73723">
        <ele>336.7</ele>
        <time>1970-01-01T00:16:49.000Z</time>
      </trkpt>
      <trkpt lat="49.58672" lon="5.73735">
        <ele>336.7</ele>
        <time>1970-01-01T00:16:52.000Z</time>
      </trkpt>
      <trkpt lat="49.58678" lon="5.73743">
        <ele>336.6</ele>
        <time>1970-01-01T00:16:53.000Z</time>
      </trkpt>
      <trkpt lat="49.58685" lon="5.73749">
        <ele>336.6</ele>
        <time>1970-01-01T00:16:54.000Z</time>
      </trkpt>
      <trkpt lat="49.58696" lon="5.7376">
        <ele>336.6</ele>
        <time>1970-01-01T00:16:56.000Z</time>
      </trkpt>
      <trkpt lat="49.58706" lon="5.7377">
        <ele>336.6</ele>
        <time>1970-01-01T00:16:58.000Z</time>
      </trkpt>
      <trkpt lat="49.58715" lon="5.73777">
        <ele>336.6</ele>
        <time>1970-01-01T00:17:00.000Z</time>
      </trkpt>
      <trkpt lat="49.58711" lon="5.7379">
        <ele>336.6</ele>
        <time>1970-01-01T00:17:03.000Z</time>
      </trkpt>
      <trkpt lat="49.58727" lon="5.73796">
        <ele>336.5</ele>
        <time>1970-01-01T00:17:04.000Z</time>
      </trkpt>
      <trkpt lat="49.58736" lon="5.73802">
        <ele>336.5</ele>
        <time>1970-01-01T00:17:06.000Z</time>
      </trkpt>
      <trkpt lat="49.5874" lon="5.73806">
        <ele>336.5</ele>
        <time>1970-01-01T00:17:07.000Z</time>
      </trkpt>
      <trkpt lat="49.58748" lon="5.73812">
        <ele>336.4</ele>
        <time>1970-01-01T00:17:08.000Z</time>
      </trkpt>
      <trkpt lat="49.58759" lon="5.73822">
        <ele>336.2</ele>
        <time>1970-01-01T00:17:10.000Z</time>
      </trkpt>
      <trkpt lat="49.58765" lon="5.73826">
        <ele>336.1</ele>
        <time>1970-01-01T00:17:11.000Z</time>
      </trkpt>
      <trkpt lat="49.58775" lon="5.73831">
        <ele>335.8</ele>
        <time>1970-01-01T00:17:13.000Z</time>
      </trkpt>
      <trkpt lat="49.58791" lon="5.73844">
        <ele>335.3</ele>
        <time>1970-01-01T00:17:15.000Z</time>
      </trkpt>
      <trkpt lat="49.58801" lon="5.73852">
        <ele>334.9</ele>
        <time>1970-01-01T00:17:17.000Z</time>
      </trkpt>
      <trkpt lat="49.58811" lon="5.73862">
        <ele>334.4</ele>
        <time>1970-01-01T00:17:19.000Z</time>
      </trkpt>
      <trkpt lat="49.58823" lon="5.73872">
        <ele>334</ele>
        <time>1970-01-01T00:17:21.000Z</time>
      </trkpt>
      <trkpt lat="49.58828" lon="5.73877">
        <ele>333.8</ele>
        <time>1970-01-01T00:17:22.000Z</time>
      </trkpt>
      <trkpt lat="49.58834" lon="5.73881">
        <ele>333.6</ele>
        <time>1970-01-01T00:17:23.000Z</time>
      </trkpt>
      <trkpt lat="49.58846" lon="5.73889">
        <ele>333.3</ele>
        <time>1970-01-01T00:17:25.000Z</time>
      </trkpt>
      <trkpt lat="49.58852" lon="5.73894">
        <ele>333.2</ele>
        <time>1970-01-01T00:17:26.000Z</time>
      </trkpt>
      <trkpt lat="49.58862" lon="5.73904">
        <ele>333.1</ele>
        <time>1970-01-01T00:17:28.000Z</time>
      </trkpt>
      <trkpt lat="49.58867" lon="5.73909">
        <ele>333.1</ele>
        <time>1970-01-01T00:17:29.000Z</time>
      </trkpt>
      <trkpt lat="49.58873" lon="5.73913">
        <ele>333.1</ele>
        <time>1970-01-01T00:17:30.000Z</time>
      </trkpt>
      <trkpt lat="49.58877" lon="5.73917">
        <ele>333.1</ele>
        <time>1970-01-01T00:17:31.000Z</time>
      </trkpt>
      <trkpt lat="49.58882" lon="5.73922">
        <ele>333.2</ele>
        <time>1970-01-01T00:17:32.000Z</time>
      </trkpt>
      <trkpt lat="49.58891" lon="5.7393">
        <ele>333.3</ele>
        <time>1970-01-01T00:17:34.000Z</time>
      </trkpt>
      <trkpt lat="49.58896" lon="5.73934">
        <ele>333.4</ele>
        <time>1970-01-01T00:17:35.000Z</time>
      </trkpt>
      <trkpt lat="49.589" lon="5.73939">
        <ele>333.5</ele>
        <time>1970-01-01T00:17:36.000Z</time>
      </trkpt>
      <trkpt lat="49.58905" lon="5.73943">
        <ele>333.6</ele>
        <time>1970-01-01T00:17:37.000Z</time>
      </trkpt>
      <trkpt lat="49.58914" lon="5.7395">
        <ele>333.8</ele>
        <time>1970-01-01T00:17:39.000Z</time>
      </trkpt>
      <trkpt lat="49.58923" lon="5.73959">
        <ele>334</ele>
        <time>1970-01-01T00:17:41.000Z</time>
      </trkpt>
      <trkpt lat="49.58927" lon="5.73963">
        <ele>334.2</ele>
        <time>1970-01-01T00:17:42.000Z</time>
      </trkpt>
      <trkpt lat="49.58936" lon="5.73969">
        <ele>334.4</ele>
        <time>1970-01-01T00:17:44.000Z</time>
      </trkpt>
      <trkpt lat="49.58945" lon="5.73976">
        <ele>334.7</ele>
        <time>1970-01-01T00:17:46.000Z</time>
      </trkpt>
      <trkpt lat="49.58953" lon="5.73983">
        <ele>335</ele>
        <time>1970-01-01T00:17:48.000Z</time>
      </trkpt>
      <trkpt lat="49.58961" lon="5.7399">
        <ele>335.3</ele>
        <time>1970-01-01T00:17:50.000Z</time>
      </trkpt>
      <trkpt lat="49.58969" lon="5.73996">
        <ele>335.7</ele>
        <time>1970-01-01T00:17:52.000Z</time>
      </trkpt>
      <trkpt lat="49.58977" lon="5.74003">
        <ele>336.1</ele>
        <time>1970-01-01T00:17:54.000Z</time>
      </trkpt>
      <trkpt lat="49.5898" lon="5.74005">
        <ele>336.2</ele>
        <time>1970-01-01T00:17:55.000Z</time>
      </trkpt>
      <trkpt lat="49.58986" lon="5.7401">
        <ele>336.6</ele>
        <time>1970-01-01T00:17:57.000Z</time>
      </trkpt>
      <trkpt lat="49.58989" lon="5.74013">
        <ele>336.8</ele>
        <time>1970-01-01T00:17:58.000Z</time>
      </trkpt>
      <trkpt lat="49.58995" lon="5.74018">
        <ele>337.1</ele>
        <time>1970-01-01T00:18:00.000Z</time>
      </trkpt>
      <trkpt lat="49.58992" lon="5.74019">
        <ele>337.2</ele>
        <time>1970-01-01T00:18:01.000Z</time>
      </trkpt>
      <trkpt lat="49.58998" lon="5.74024">
        <ele>337.5</ele>
        <time>1970-01-01T00:18:04.000Z</time>
      </trkpt>
      <trkpt lat="49.59002" lon="5.74025">
        <ele>337.7</ele>
        <time>1970-01-01T00:18:05.000Z</time>
      </trkpt>
      <trkpt lat="49.59005" lon="5.74026">
        <ele>337.9</ele>
        <time>1970-01-01T00:18:06.000Z</time>
      </trkpt>
      <trkpt lat="49.59008" lon="5.74028">
        <ele>338</ele>
        <time>1970-01-01T00:18:07.000Z</time>
      </trkpt>
      <trkpt lat="49.59012" lon="5.74032">
        <ele>338.2</ele>
        <time>1970-01-01T00:18:09.000Z</time>
      </trkpt>
      <trkpt lat="49.59018" lon="5.74038">
        <ele>338.6</ele>
        <time>1970-01-01T00:18:10.000Z</time>
      </trkpt>
      <trkpt lat="49.59026" lon="5.74046">
        <ele>339.1</ele>
        <time>1970-01-01T00:18:11.000Z</time>
      </trkpt>
      <trkpt lat="49.59031" lon="5.74051">
        <ele>339.4</ele>
        <time>1970-01-01T00:18:12.000Z</time>
      </trkpt>
      <trkpt lat="49.59036" lon="5.74055">
        <ele>339.7</ele>
        <time>1970-01-01T00:18:14.000Z</time>
      </trkpt>
      <trkpt lat="49.5904" lon="5.74058">
        <ele>339.9</ele>
        <time>1970-01-01T00:18:15.000Z</time>
      </trkpt>
      <trkpt lat="49.59044" lon="5.74062">
        <ele>340.1</ele>
        <time>1970-01-01T00:18:16.000Z</time>
      </trkpt>
      <trkpt lat="49.59048" lon="5.74066">
        <ele>340.4</ele>
        <time>1970-01-01T00:18:18.000Z</time>
      </trkpt>
      <trkpt lat="49.59053" lon="5.74071">
        <ele>340.7</ele>
        <time>1970-01-01T00:18:19.000Z</time>
      </trkpt>
      <trkpt lat="49.59056" lon="5.74074">
        <ele>340.9</ele>
        <time>1970-01-01T00:18:21.000Z</time>
      </trkpt>
      <trkpt lat="49.59061" lon="5.74079">
        <ele>341.3</ele>
        <time>1970-01-01T00:18:22.000Z</time>
      </trkpt>
      <trkpt lat="49.59064" lon="5.74082">
        <ele>341.5</ele>
        <time>1970-01-01T00:18:23.000Z</time>
      </trkpt>
      <trkpt lat="49.5907" lon="5.74088">
        <ele>341.9</ele>
        <time>1970-01-01T00:18:25.000Z</time>
      </trkpt>
      <trkpt lat="49.59074" lon="5.74091">
        <ele>342.1</ele>
        <time>1970-01-01T00:18:26.000Z</time>
      </trkpt>
      <trkpt lat="49.59077" lon="5.74094">
        <ele>342.3</ele>
        <time>1970-01-01T00:18:27.000Z</time>
      </trkpt>
      <trkpt lat="49.59082" lon="5.74097">
        <ele>342.5</ele>
        <time>1970-01-01T00:18:29.000Z</time>
      </trkpt>
      <trkpt lat="49.59085" lon="5.74102">
        <ele>342.6</ele>
        <time>1970-01-01T00:18:30.000Z</time>
      </trkpt>
      <trkpt lat="49.59087" lon="5.7411">
        <ele>342.5</ele>
        <time>1970-01-01T00:18:32.000Z</time>
      </trkpt>
      <trkpt lat="49.59087" lon="5.74117">
        <ele>342.2</ele>
        <time>1970-01-01T00:18:33.000Z</time>
      </trkpt>
      <trkpt lat="49.59086" lon="5.74124">
        <ele>342</ele>
        <time>1970-01-01T00:18:34.000Z</time>
      </trkpt>
      <trkpt lat="49.59084" lon="5.74131">
        <ele>341.7</ele>
        <time>1970-01-01T00:18:35.000Z</time>
      </trkpt>
      <trkpt lat="49.59079" lon="5.74143">
        <ele>341.2</ele>
        <time>1970-01-01T00:18:37.000Z</time>
      </trkpt>
      <trkpt lat="49.59076" lon="5.7415">
        <ele>340.7</ele>
        <time>1970-01-01T00:18:38.000Z</time>
      </trkpt>
      <trkpt lat="49.59069" lon="5.74165">
        <ele>339.8</ele>
        <time>1970-01-01T00:18:40.000Z</time>
      </trkpt>
      <trkpt lat="49.59059" lon="5.74178">
        <ele>338.5</ele>
        <time>1970-01-01T00:18:42.000Z</time>
      </trkpt>
      <trkpt lat="49.59047" lon="5.74192">
        <ele>337</ele>
        <time>1970-01-01T00:18:44.000Z</time>
      </trkpt>
      <trkpt lat="49.59033" lon="5.74207">
        <ele>335</ele>
        <time>1970-01-01T00:18:46.000Z</time>
      </trkpt>
      <trkpt lat="49.59018" lon="5.74222">
        <ele>332.9</ele>
        <time>1970-01-01T00:18:48.000Z</time>
      </trkpt>
      <trkpt lat="49.5901" lon="5.74231">
        <ele>332</ele>
        <time>1970-01-01T00:18:49.000Z</time>
      </trkpt>
      <trkpt lat="49.59002" lon="5.7424">
        <ele>331.2</ele>
        <time>1970-01-01T00:18:50.000Z</time>
      </trkpt>
      <trkpt lat="49.58987" lon="5.74258">
        <ele>330.2</ele>
        <time>1970-01-01T00:18:52.000Z</time>
      </trkpt>
      <trkpt lat="49.58982" lon="5.74267">
        <ele>330</ele>
        <time>1970-01-01T00:18:53.000Z</time>
      </trkpt>
      <trkpt lat="49.58976" lon="5.74285">
        <ele>329.9</ele>
        <time>1970-01-01T00:18:55.000Z</time>
      </trkpt>
      <trkpt lat="49.58975" lon="5.74304">
        <ele>329.9</ele>
        <time>1970-01-01T00:18:57.000Z</time>
      </trkpt>
      <trkpt lat="49.5898" lon="5.74318">
        <ele>330.1</ele>
        <time>1970-01-01T00:18:59.000Z</time>
      </trkpt>
      <trkpt lat="49.58983" lon="5.74325">
        <ele>330.1</ele>
        <time>1970-01-01T00:19:00.000Z</time>
      </trkpt>
      <trkpt lat="49.58985" lon="5.74331">
        <ele>330.2</ele>
        <time>1970-01-01T00:19:01.000Z</time>
      </trkpt>
      <trkpt lat="49.5899" lon="5.74344">
        <ele>330.1</ele>
        <time>1970-01-01T00:19:03.000Z</time>
      </trkpt>
      <trkpt lat="49.58996" lon="5.74358">
        <ele>329.8</ele>
        <time>1970-01-01T00:19:05.000Z</time>
      </trkpt>
      <trkpt lat="49.58998" lon="5.74365">
        <ele>329.5</ele>
        <time>1970-01-01T00:19:06.000Z</time>
      </trkpt>
      <trkpt lat="49.59001" lon="5.74373">
        <ele>329.3</ele>
        <time>1970-01-01T00:19:07.000Z</time>
      </trkpt>
      <trkpt lat="49.59006" lon="5.7439">
        <ele>328.6</ele>
        <time>1970-01-01T00:19:09.000Z</time>
      </trkpt>
      <trkpt lat="49.59007" lon="5.74399">
        <ele>328.2</ele>
        <time>1970-01-01T00:19:10.000Z</time>
      </trkpt>
      <trkpt lat="49.5901" lon="5.74417">
        <ele>327.3</ele>
        <time>1970-01-01T00:19:12.000Z</time>
      </trkpt>
      <trkpt lat="49.59012" lon="5.74426">
        <ele>326.8</ele>
        <time>1970-01-01T00:19:13.000Z</time>
      </trkpt>
      <trkpt lat="49.59013" lon="5.74446">
        <ele>325.7</ele>
        <time>1970-01-01T00:19:15.000Z</time>
      </trkpt>
      <trkpt lat="49.59013" lon="5.74457">
        <ele>325</ele>
        <time>1970-01-01T00:19:16.000Z</time>
      </trkpt>
      <trkpt lat="49.59011" lon="5.74479">
        <ele>323.7</ele>
        <time>1970-01-01T00:19:18.000Z</time>
      </trkpt>
      <trkpt lat="49.59009" lon="5.74491">
        <ele>323.1</ele>
        <time>1970-01-01T00:19:19.000Z</time>
      </trkpt>
      <trkpt lat="49.59003" lon="5.74511">
        <ele>322.2</ele>
        <time>1970-01-01T00:19:21.000Z</time>
      </trkpt>
      <trkpt lat="49.59001" lon="5.74518">
        <ele>322</ele>
        <time>1970-01-01T00:19:22.000Z</time>
      </trkpt>
      <trkpt lat="49.58998" lon="5.74522">
        <ele>321.9</ele>
        <time>1970-01-01T00:19:24.000Z</time>
      </trkpt>
      <trkpt lat="49.58995" lon="5.74524">
        <ele>321.8</ele>
        <time>1970-01-01T00:19:50.000Z</time>
      </trkpt>
      <trkpt lat="49.58992" lon="5.74527">
        <ele>321.8</ele>
        <time>1970-01-01T00:19:53.000Z</time>
      </trkpt>
      <trkpt lat="49.58988" lon="5.74533">
        <ele>321.7</ele>
        <time>1970-01-01T00:19:55.000Z</time>
      </trkpt>
      <trkpt lat="49.58982" lon="5.74549">
        <ele>321.7</ele>
        <time>1970-01-01T00:19:57.000Z</time>
      </trkpt>
      <trkpt lat="49.58978" lon="5.74566">
        <ele>321.9</ele>
        <time>1970-01-01T00:19:59.000Z</time>
      </trkpt>
      <trkpt lat="49.58975" lon="5.74573">
        <ele>322</ele>
        <time>1970-01-01T00:20:00.000Z</time>
      </trkpt>
      <trkpt lat="49.58972" lon="5.74579">
        <ele>322.1</ele>
        <time>1970-01-01T00:20:01.000Z</time>
      </trkpt>
      <trkpt lat="49.58968" lon="5.74585">
        <ele>322.3</ele>
        <time>1970-01-01T00:20:02.000Z</time>
      </trkpt>
      <trkpt lat="49.58961" lon="5.74595">
        <ele>322.8</ele>
        <time>1970-01-01T00:20:04.000Z</time>
      </trkpt>
      <trkpt lat="49.58958" lon="5.74599">
        <ele>323.1</ele>
        <time>1970-01-01T00:20:05.000Z</time>
      </trkpt>
      <trkpt lat="49.58956" lon="5.74604">
        <ele>323.4</ele>
        <time>1970-01-01T00:20:06.000Z</time>
      </trkpt>
      <trkpt lat="49.58953" lon="5.74609">
        <ele>323.7</ele>
        <time>1970-01-01T00:20:07.000Z</time>
      </trkpt>
      <trkpt lat="49.58949" lon="5.74614">
        <ele>324</ele>
        <time>1970-01-01T00:20:09.000Z</time>
      </trkpt>
      <trkpt lat="49.58946" lon="5.74618">
        <ele>324.3</ele>
        <time>1970-01-01T00:20:10.000Z</time>
      </trkpt>
      <trkpt lat="49.58943" lon="5.74623">
        <ele>324.7</ele>
        <time>1970-01-01T00:20:11.000Z</time>
      </trkpt>
      <trkpt lat="49.58938" lon="5.7463">
        <ele>325.2</ele>
        <time>1970-01-01T00:20:13.000Z</time>
      </trkpt>
      <trkpt lat="49.58936" lon="5.74633">
        <ele>325.4</ele>
        <time>1970-01-01T00:20:14.000Z</time>
      </trkpt>
      <trkpt lat="49.58932" lon="5.74636">
        <ele>325.8</ele>
        <time>1970-01-01T00:20:15.000Z</time>
      </trkpt>
      <trkpt lat="49.5893" lon="5.74638">
        <ele>326.1</ele>
        <time>1970-01-01T00:20:16.000Z</time>
      </trkpt>
      <trkpt lat="49.58927" lon="5.74641">
        <ele>326.3</ele>
        <time>1970-01-01T00:20:17.000Z</time>
      </trkpt>
      <trkpt lat="49.58922" lon="5.74647">
        <ele>326.9</ele>
        <time>1970-01-01T00:20:19.000Z</time>
      </trkpt>
      <trkpt lat="49.58919" lon="5.74651">
        <ele>327.3</ele>
        <time>1970-01-01T00:20:20.000Z</time>
      </trkpt>
      <trkpt lat="49.58915" lon="5.74655">
        <ele>327.7</ele>
        <time>1970-01-01T00:20:22.000Z</time>
      </trkpt>
      <trkpt lat="49.58912" lon="5.74659">
        <ele>328</ele>
        <time>1970-01-01T00:20:23.000Z</time>
      </trkpt>
      <trkpt lat="49.5891" lon="5.74662">
        <ele>328.2</ele>
        <time>1970-01-01T00:20:24.000Z</time>
      </trkpt>
      <trkpt lat="49.58907" lon="5.74668">
        <ele>328.6</ele>
        <time>1970-01-01T00:20:26.000Z</time>
      </trkpt>
      <trkpt lat="49.58904" lon="5.74675">
        <ele>328.9</ele>
        <time>1970-01-01T00:20:27.000Z</time>
      </trkpt>
      <trkpt lat="49.58902" lon="5.7468">
        <ele>329.1</ele>
        <time>1970-01-01T00:20:28.000Z</time>
      </trkpt>
      <trkpt lat="49.589" lon="5.74685">
        <ele>329.3</ele>
        <time>1970-01-01T00:20:30.000Z</time>
      </trkpt>
      <trkpt lat="49.58899" lon="5.7469">
        <ele>329.5</ele>
        <time>1970-01-01T00:20:31.000Z</time>
      </trkpt>
      <trkpt lat="49.58897" lon="5.74696">
        <ele>329.7</ele>
        <time>1970-01-01T00:20:32.000Z</time>
      </trkpt>
      <trkpt lat="49.58895" lon="5.74701">
        <ele>329.9</ele>
        <time>1970-01-01T00:20:34.000Z</time>
      </trkpt>
      <trkpt lat="49.58892" lon="5.74707">
        <ele>330.1</ele>
        <time>1970-01-01T00:20:35.000Z</time>
      </trkpt>
      <trkpt lat="49.58889" lon="5.74715">
        <ele>330.3</ele>
        <time>1970-01-01T00:20:37.000Z</time>
      </trkpt>
      <trkpt lat="49.58887" lon="5.74722">
        <ele>330.4</ele>
        <time>1970-01-01T00:20:38.000Z</time>
      </trkpt>
      <trkpt lat="49.58884" lon="5.74731">
        <ele>330.5</ele>
        <time>1970-01-01T00:20:40.000Z</time>
      </trkpt>
      <trkpt lat="49.58882" lon="5.74737">
        <ele>330.5</ele>
        <time>1970-01-01T00:20:41.000Z</time>
      </trkpt>
      <trkpt lat="49.58879" lon="5.74747">
        <ele>330.5</ele>
        <time>1970-01-01T00:20:43.000Z</time>
      </trkpt>
      <trkpt lat="49.58876" lon="5.74753">
        <ele>330.6</ele>
        <time>1970-01-01T00:20:44.000Z</time>
      </trkpt>
      <trkpt lat="49.58873" lon="5.74762">
        <ele>330.6</ele>
        <time>1970-01-01T00:20:46.000Z</time>
      </trkpt>
      <trkpt lat="49.58869" lon="5.74774">
        <ele>330.6</ele>
        <time>1970-01-01T00:20:47.000Z</time>
      </trkpt>
      <trkpt lat="49.58866" lon="5.74781">
        <ele>330.7</ele>
        <time>1970-01-01T00:20:48.000Z</time>
      </trkpt>
      <trkpt lat="49.5886" lon="5.74795">
        <ele>330.7</ele>
        <time>1970-01-01T00:20:50.000Z</time>
      </trkpt>
      <trkpt lat="49.58857" lon="5.74806">
        <ele>330.8</ele>
        <time>1970-01-01T00:20:52.000Z</time>
      </trkpt>
      <trkpt lat="49.58854" lon="5.74814">
        <ele>330.8</ele>
        <time>1970-01-01T00:20:53.000Z</time>
      </trkpt>
      <trkpt lat="49.58852" lon="5.74821">
        <ele>330.8</ele>
        <time>1970-01-01T00:20:54.000Z</time>
      </trkpt>
      <trkpt lat="49.58848" lon="5.74826">
        <ele>330.8</ele>
        <time>1970-01-01T00:20:55.000Z</time>
      </trkpt>
      <trkpt lat="49.58846" lon="5.74833">
        <ele>330.8</ele>
        <time>1970-01-01T00:20:56.000Z</time>
      </trkpt>
      <trkpt lat="49.58847" lon="5.74843">
        <ele>330.8</ele>
        <time>1970-01-01T00:20:58.000Z</time>
      </trkpt>
      <trkpt lat="49.58851" lon="5.74847">
        <ele>330.8</ele>
        <time>1970-01-01T00:20:59.000Z</time>
      </trkpt>
      <trkpt lat="49.58856" lon="5.74849">
        <ele>330.8</ele>
        <time>1970-01-01T00:21:01.000Z</time>
      </trkpt>
      <trkpt lat="49.5886" lon="5.74844">
        <ele>330.8</ele>
        <time>1970-01-01T00:21:02.000Z</time>
      </trkpt>
      <trkpt lat="49.58865" lon="5.74838">
        <ele>330.8</ele>
        <time>1970-01-01T00:21:03.000Z</time>
      </trkpt>
      <trkpt lat="49.58869" lon="5.74833">
        <ele>330.9</ele>
        <time>1970-01-01T00:21:04.000Z</time>
      </trkpt>
      <trkpt lat="49.58874" lon="5.74827">
        <ele>331</ele>
        <time>1970-01-01T00:21:06.000Z</time>
      </trkpt>
      <trkpt lat="49.58878" lon="5.74824">
        <ele>331.2</ele>
        <time>1970-01-01T00:21:07.000Z</time>
      </trkpt>
      <trkpt lat="49.58885" lon="5.74818">
        <ele>331.3</ele>
        <time>1970-01-01T00:21:09.000Z</time>
      </trkpt>
      <trkpt lat="49.58892" lon="5.74812">
        <ele>331.5</ele>
        <time>1970-01-01T00:21:10.000Z</time>
      </trkpt>
      <trkpt lat="49.58897" lon="5.74807">
        <ele>331.6</ele>
        <time>1970-01-01T00:21:11.000Z</time>
      </trkpt>
      <trkpt lat="49.58904" lon="5.74801">
        <ele>331.7</ele>
        <time>1970-01-01T00:21:13.000Z</time>
      </trkpt>
      <trkpt lat="49.58906" lon="5.74798">
        <ele>331.6</ele>
        <time>1970-01-01T00:21:14.000Z</time>
      </trkpt>
      <trkpt lat="49.58911" lon="5.74795">
        <ele>331.6</ele>
        <time>1970-01-01T00:21:15.000Z</time>
      </trkpt>
      <trkpt lat="49.58921" lon="5.74787">
        <ele>331.4</ele>
        <time>1970-01-01T00:21:17.000Z</time>
      </trkpt>
      <trkpt lat="49.5893" lon="5.74781">
        <ele>331.2</ele>
        <time>1970-01-01T00:21:19.000Z</time>
      </trkpt>
      <trkpt lat="49.58935" lon="5.74777">
        <ele>331.2</ele>
        <time>1970-01-01T00:21:20.000Z</time>
      </trkpt>
      <trkpt lat="49.5894" lon="5.74774">
        <ele>331.1</ele>
        <time>1970-01-01T00:21:21.000Z</time>
      </trkpt>
      <trkpt lat="49.58944" lon="5.7477">
        <ele>331</ele>
        <time>1970-01-01T00:21:22.000Z</time>
      </trkpt>
      <trkpt lat="49.58953" lon="5.74764">
        <ele>330.9</ele>
        <time>1970-01-01T00:21:24.000Z</time>
      </trkpt>
      <trkpt lat="49.58963" lon="5.74758">
        <ele>330.7</ele>
        <time>1970-01-01T00:21:26.000Z</time>
      </trkpt>
      <trkpt lat="49.58967" lon="5.74754">
        <ele>330.6</ele>
        <time>1970-01-01T00:21:27.000Z</time>
      </trkpt>
      <trkpt lat="49.58977" lon="5.74748">
        <ele>330.5</ele>
        <time>1970-01-01T00:21:29.000Z</time>
      </trkpt>
      <trkpt lat="49.58982" lon="5.74745">
        <ele>330.4</ele>
        <time>1970-01-01T00:21:30.000Z</time>
      </trkpt>
      <trkpt lat="49.58992" lon="5.74738">
        <ele>330.3</ele>
        <time>1970-01-01T00:21:32.000Z</time>
      </trkpt>
      <trkpt lat="49.59003" lon="5.74732">
        <ele>330.1</ele>
        <time>1970-01-01T00:21:34.000Z</time>
      </trkpt>
      <trkpt lat="49.59007" lon="5.74729">
        <ele>330</ele>
        <time>1970-01-01T00:21:35.000Z</time>
      </trkpt>
      <trkpt lat="49.59017" lon="5.74723">
        <ele>329.9</ele>
        <time>1970-01-01T00:21:37.000Z</time>
      </trkpt>
      <trkpt lat="49.59022" lon="5.7472">
        <ele>329.9</ele>
        <time>1970-01-01T00:21:38.000Z</time>
      </trkpt>
      <trkpt lat="49.59032" lon="5.74715">
        <ele>329.9</ele>
        <time>1970-01-01T00:21:40.000Z</time>
      </trkpt>
      <trkpt lat="49.59037" lon="5.74712">
        <ele>329.9</ele>
        <time>1970-01-01T00:21:41.000Z</time>
      </trkpt>
      <trkpt lat="49.59042" lon="5.74709">
        <ele>329.9</ele>
        <time>1970-01-01T00:21:42.000Z</time>
      </trkpt>
      <trkpt lat="49.59047" lon="5.74707">
        <ele>329.9</ele>
        <time>1970-01-01T00:21:43.000Z</time>
      </trkpt>
      <trkpt lat="49.59052" lon="5.74704">
        <ele>329.9</ele>
        <time>1970-01-01T00:21:44.000Z</time>
      </trkpt>
      <trkpt lat="49.59061" lon="5.74698">
        <ele>330</ele>
        <time>1970-01-01T00:21:46.000Z</time>
      </trkpt>
      <trkpt lat="49.59066" lon="5.74696">
        <ele>330.1</ele>
        <time>1970-01-01T00:21:47.000Z</time>
      </trkpt>
      <trkpt lat="49.59071" lon="5.74693">
        <ele>330.2</ele>
        <time>1970-01-01T00:21:48.000Z</time>
      </trkpt>
      <trkpt lat="49.5908" lon="5.74688">
        <ele>330.5</ele>
        <time>1970-01-01T00:21:50.000Z</time>
      </trkpt>
      <trkpt lat="49.59084" lon="5.74685">
        <ele>330.6</ele>
        <time>1970-01-01T00:21:51.000Z</time>
      </trkpt>
      <trkpt lat="49.59088" lon="5.74683">
        <ele>330.8</ele>
        <time>1970-01-01T00:21:52.000Z</time>
      </trkpt>
      <trkpt lat="49.59097" lon="5.74677">
        <ele>331.2</ele>
        <time>1970-01-01T00:21:54.000Z</time>
      </trkpt>
      <trkpt lat="49.59106" lon="5.74671">
        <ele>331.5</ele>
        <time>1970-01-01T00:21:56.000Z</time>
      </trkpt>
      <trkpt lat="49.59115" lon="5.74667">
        <ele>331.8</ele>
        <time>1970-01-01T00:21:58.000Z</time>
      </trkpt>
      <trkpt lat="49.59119" lon="5.74664">
        <ele>332</ele>
        <time>1970-01-01T00:21:59.000Z</time>
      </trkpt>
      <trkpt lat="49.59121" lon="5.74662">
        <ele>332.1</ele>
        <time>1970-01-01T00:22:00.000Z</time>
      </trkpt>
      <trkpt lat="49.5913" lon="5.74656">
        <ele>332.5</ele>
        <time>1970-01-01T00:22:02.000Z</time>
      </trkpt>
      <trkpt lat="49.59137" lon="5.74652">
        <ele>332.8</ele>
        <time>1970-01-01T00:22:04.000Z</time>
      </trkpt>
      <trkpt lat="49.5914" lon="5.7465">
        <ele>332.9</ele>
        <time>1970-01-01T00:22:05.000Z</time>
      </trkpt>
      <trkpt lat="49.59145" lon="5.74648">
        <ele>333.2</ele>
        <time>1970-01-01T00:22:06.000Z</time>
      </trkpt>
      <trkpt lat="49.5915" lon="5.74647">
        <ele>333.4</ele>
        <time>1970-01-01T00:22:08.000Z</time>
      </trkpt>
      <trkpt lat="49.59155" lon="5.74643">
        <ele>333.7</ele>
        <time>1970-01-01T00:22:09.000Z</time>
      </trkpt>
      <trkpt lat="49.59159" lon="5.74641">
        <ele>333.8</ele>
        <time>1970-01-01T00:22:10.000Z</time>
      </trkpt>
      <trkpt lat="49.59164" lon="5.74638">
        <ele>334.1</ele>
        <time>1970-01-01T00:22:12.000Z</time>
      </trkpt>
      <trkpt lat="49.59169" lon="5.74635">
        <ele>334.3</ele>
        <time>1970-01-01T00:22:13.000Z</time>
      </trkpt>
      <trkpt lat="49.59175" lon="5.74633">
        <ele>334.7</ele>
        <time>1970-01-01T00:22:15.000Z</time>
      </trkpt>
      <trkpt lat="49.59179" lon="5.74631">
        <ele>334.9</ele>
        <time>1970-01-01T00:22:16.000Z</time>
      </trkpt>
      <trkpt lat="49.59184" lon="5.74629">
        <ele>335.1</ele>
        <time>1970-01-01T00:22:18.000Z</time>
      </trkpt>
      <trkpt lat="49.59189" lon="5.74626">
        <ele>335.4</ele>
        <time>1970-01-01T00:22:19.000Z</time>
      </trkpt>
      <trkpt lat="49.59195" lon="5.74624">
        <ele>335.7</ele>
        <time>1970-01-01T00:22:21.000Z</time>
      </trkpt>
      <trkpt lat="49.59199" lon="5.74623">
        <ele>335.9</ele>
        <time>1970-01-01T00:22:22.000Z</time>
      </trkpt>
      <trkpt lat="49.59207" lon="5.74621">
        <ele>336.3</ele>
        <time>1970-01-01T00:22:24.000Z</time>
      </trkpt>
      <trkpt lat="49.59211" lon="5.74621">
        <ele>336.6</ele>
        <time>1970-01-01T00:22:26.000Z</time>
      </trkpt>
      <trkpt lat="49.59214" lon="5.7462">
        <ele>336.7</ele>
        <time>1970-01-01T00:22:27.000Z</time>
      </trkpt>
      <trkpt lat="49.5922" lon="5.74618">
        <ele>337</ele>
        <time>1970-01-01T00:22:29.000Z</time>
      </trkpt>
      <trkpt lat="49.59224" lon="5.74616">
        <ele>337.2</ele>
        <time>1970-01-01T00:22:30.000Z</time>
      </trkpt>
      <trkpt lat="49.59228" lon="5.74615">
        <ele>337.4</ele>
        <time>1970-01-01T00:22:32.000Z</time>
      </trkpt>
      <trkpt lat="49.59233" lon="5.74614">
        <ele>337.7</ele>
        <time>1970-01-01T00:22:33.000Z</time>
      </trkpt>
      <trkpt lat="49.59238" lon="5.74613">
        <ele>338</ele>
        <time>1970-01-01T00:22:35.000Z</time>
      </trkpt>
      <trkpt lat="49.59241" lon="5.74613">
        <ele>338.3</ele>
        <time>1970-01-01T00:22:36.000Z</time>
      </trkpt>
      <trkpt lat="49.59246" lon="5.74613">
        <ele>338.8</ele>
        <time>1970-01-01T00:22:38.000Z</time>
      </trkpt>
      <trkpt lat="49.59253" lon="5.74614">
        <ele>339.6</ele>
        <time>1970-01-01T00:22:41.000Z</time>
      </trkpt>
      <trkpt lat="49.59257" lon="5.74614">
        <ele>340</ele>
        <time>1970-01-01T00:22:42.000Z</time>
      </trkpt>
      <trkpt lat="49.59262" lon="5.74615">
        <ele>340.4</ele>
        <time>1970-01-01T00:22:44.000Z</time>
      </trkpt>
      <trkpt lat="49.59266" lon="5.74617">
        <ele>340.9</ele>
        <time>1970-01-01T00:22:46.000Z</time>
      </trkpt>
      <trkpt lat="49.5927" lon="5.74621">
        <ele>341.2</ele>
        <time>1970-01-01T00:22:48.000Z</time>
      </trkpt>
      <trkpt lat="49.59273" lon="5.74623">
        <ele>341.4</ele>
        <time>1970-01-01T00:22:49.000Z</time>
      </trkpt>
      <trkpt lat="49.59277" lon="5.74626">
        <ele>341.7</ele>
        <time>1970-01-01T00:22:51.000Z</time>
      </trkpt>
      <trkpt lat="49.5928" lon="5.7463">
        <ele>341.9</ele>
        <time>1970-01-01T00:22:52.000Z</time>
      </trkpt>
      <trkpt lat="49.59284" lon="5.74635">
        <ele>342.2</ele>
        <time>1970-01-01T00:22:54.000Z</time>
      </trkpt>
      <trkpt lat="49.59288" lon="5.74638">
        <ele>342.4</ele>
        <time>1970-01-01T00:22:55.000Z</time>
      </trkpt>
      <trkpt lat="49.59292" lon="5.74639">
        <ele>342.6</ele>
        <time>1970-01-01T00:22:56.000Z</time>
      </trkpt>
      <trkpt lat="49.59295" lon="5.7464">
        <ele>342.8</ele>
        <time>1970-01-01T00:22:57.000Z</time>
      </trkpt>
      <trkpt lat="49.59301" lon="5.74644">
        <ele>343.1</ele>
        <time>1970-01-01T00:23:00.000Z</time>
      </trkpt>
      <trkpt lat="49.59305" lon="5.74648">
        <ele>343.4</ele>
        <time>1970-01-01T00:23:02.000Z</time>
      </trkpt>
      <trkpt lat="49.59309" lon="5.74651">
        <ele>343.6</ele>
        <time>1970-01-01T00:23:03.000Z</time>
      </trkpt>
      <trkpt lat="49.59314" lon="5.74654">
        <ele>343.8</ele>
        <time>1970-01-01T00:23:04.000Z</time>
      </trkpt>
      <trkpt lat="49.59317" lon="5.74655">
        <ele>343.9</ele>
        <time>1970-01-01T00:23:05.000Z</time>
      </trkpt>
      <trkpt lat="49.59322" lon="5.74659">
        <ele>344.1</ele>
        <time>1970-01-01T00:23:07.000Z</time>
      </trkpt>
      <trkpt lat="49.59329" lon="5.74661">
        <ele>344.4</ele>
        <time>1970-01-01T00:23:08.000Z</time>
      </trkpt>
      <trkpt lat="49.59333" lon="5.74663">
        <ele>344.5</ele>
        <time>1970-01-01T00:23:09.000Z</time>
      </trkpt>
      <trkpt lat="49.59337" lon="5.74664">
        <ele>344.6</ele>
        <time>1970-01-01T00:23:11.000Z</time>
      </trkpt>
      <trkpt lat="49.59341" lon="5.74666">
        <ele>344.7</ele>
        <time>1970-01-01T00:23:12.000Z</time>
      </trkpt>
      <trkpt lat="49.59345" lon="5.74667">
        <ele>344.8</ele>
        <time>1970-01-01T00:23:13.000Z</time>
      </trkpt>
      <trkpt lat="49.5935" lon="5.74666">
        <ele>344.9</ele>
        <time>1970-01-01T00:23:14.000Z</time>
      </trkpt>
      <trkpt lat="49.59353" lon="5.74664">
        <ele>345</ele>
        <time>1970-01-01T00:23:16.000Z</time>
      </trkpt>
      <trkpt lat="49.59354" lon="5.7466">
        <ele>345.2</ele>
        <time>1970-01-01T00:23:17.000Z</time>
      </trkpt>
      <trkpt lat="49.59354" lon="5.74654">
        <ele>345.3</ele>
        <time>1970-01-01T00:23:18.000Z</time>
      </trkpt>
      <trkpt lat="49.59355" lon="5.74648">
        <ele>345.5</ele>
        <time>1970-01-01T00:23:19.000Z</time>
      </trkpt>
      <trkpt lat="49.59357" lon="5.7464">
        <ele>345.7</ele>
        <time>1970-01-01T00:23:20.000Z</time>
      </trkpt>
      <trkpt lat="49.59359" lon="5.74632">
        <ele>346</ele>
        <time>1970-01-01T00:23:22.000Z</time>
      </trkpt>
      <trkpt lat="49.5936" lon="5.74627">
        <ele>346.2</ele>
        <time>1970-01-01T00:23:23.000Z</time>
      </trkpt>
      <trkpt lat="49.5936" lon="5.7462">
        <ele>346.3</ele>
        <time>1970-01-01T00:23:24.000Z</time>
      </trkpt>
      <trkpt lat="49.59358" lon="5.74608">
        <ele>346.7</ele>
        <time>1970-01-01T00:23:26.000Z</time>
      </trkpt>
      <trkpt lat="49.59358" lon="5.74603">
        <ele>346.8</ele>
        <time>1970-01-01T00:23:27.000Z</time>
      </trkpt>
      <trkpt lat="49.59359" lon="5.74597">
        <ele>346.9</ele>
        <time>1970-01-01T00:23:29.000Z</time>
      </trkpt>
      <trkpt lat="49.59357" lon="5.74584">
        <ele>347.2</ele>
        <time>1970-01-01T00:23:30.000Z</time>
      </trkpt>
      <trkpt lat="49.59357" lon="5.74577">
        <ele>347.3</ele>
        <time>1970-01-01T00:23:31.000Z</time>
      </trkpt>
      <trkpt lat="49.59357" lon="5.74572">
        <ele>347.4</ele>
        <time>1970-01-01T00:23:32.000Z</time>
      </trkpt>
      <trkpt lat="49.59358" lon="5.74564">
        <ele>347.5</ele>
        <time>1970-01-01T00:23:34.000Z</time>
      </trkpt>
      <trkpt lat="49.59357" lon="5.74559">
        <ele>347.6</ele>
        <time>1970-01-01T00:23:35.000Z</time>
      </trkpt>
      <trkpt lat="49.59356" lon="5.74551">
        <ele>347.7</ele>
        <time>1970-01-01T00:23:37.000Z</time>
      </trkpt>
      <trkpt lat="49.59356" lon="5.74545">
        <ele>347.8</ele>
        <time>1970-01-01T00:23:38.000Z</time>
      </trkpt>
      <trkpt lat="49.59356" lon="5.74537">
        <ele>347.9</ele>
        <time>1970-01-01T00:23:39.000Z</time>
      </trkpt>
      <trkpt lat="49.59357" lon="5.74529">
        <ele>348.1</ele>
        <time>1970-01-01T00:23:40.000Z</time>
      </trkpt>
      <trkpt lat="49.59357" lon="5.74523">
        <ele>348.2</ele>
        <time>1970-01-01T00:23:42.000Z</time>
      </trkpt>
      <trkpt lat="49.59356" lon="5.74518">
        <ele>348.3</ele>
        <time>1970-01-01T00:23:44.000Z</time>
      </trkpt>
      <trkpt lat="49.59355" lon="5.74511">
        <ele>348.5</ele>
        <time>1970-01-01T00:23:46.000Z</time>
      </trkpt>
      <trkpt lat="49.59356" lon="5.74507">
        <ele>348.5</ele>
        <time>1970-01-01T00:23:47.000Z</time>
      </trkpt>
      <trkpt lat="49.59355" lon="5.745">
        <ele>348.6</ele>
        <time>1970-01-01T00:23:48.000Z</time>
      </trkpt>
      <trkpt lat="49.59355" lon="5.74488">
        <ele>348.7</ele>
        <time>1970-01-01T00:23:50.000Z</time>
      </trkpt>
      <trkpt lat="49.59356" lon="5.74478">
        <ele>348.9</ele>
        <time>1970-01-01T00:23:51.000Z</time>
      </trkpt>
      <trkpt lat="49.59358" lon="5.74463">
        <ele>349.1</ele>
        <time>1970-01-01T00:23:52.000Z</time>
      </trkpt>
      <trkpt lat="49.59359" lon="5.74455">
        <ele>349.2</ele>
        <time>1970-01-01T00:23:53.000Z</time>
      </trkpt>
      <trkpt lat="49.59361" lon="5.74449">
        <ele>349.3</ele>
        <time>1970-01-01T00:23:55.000Z</time>
      </trkpt>
      <trkpt lat="49.59363" lon="5.74441">
        <ele>349.4</ele>
        <time>1970-01-01T00:23:56.000Z</time>
      </trkpt>
      <trkpt lat="49.59365" lon="5.74432">
        <ele>349.5</ele>
        <time>1970-01-01T00:23:57.000Z</time>
      </trkpt>
      <trkpt lat="49.59369" lon="5.74418">
        <ele>349.6</ele>
        <time>1970-01-01T00:23:58.000Z</time>
      </trkpt>
      <trkpt lat="49.5937" lon="5.74411">
        <ele>349.6</ele>
        <time>1970-01-01T00:23:59.000Z</time>
      </trkpt>
      <trkpt lat="49.59372" lon="5.74405">
        <ele>349.6</ele>
        <time>1970-01-01T00:24:01.000Z</time>
      </trkpt>
      <trkpt lat="49.59374" lon="5.74395">
        <ele>349.6</ele>
        <time>1970-01-01T00:24:02.000Z</time>
      </trkpt>
      <trkpt lat="49.59376" lon="5.74389">
        <ele>349.5</ele>
        <time>1970-01-01T00:24:03.000Z</time>
      </trkpt>
      <trkpt lat="49.59383" lon="5.7438">
        <ele>349.3</ele>
        <time>1970-01-01T00:24:05.000Z</time>
      </trkpt>
      <trkpt lat="49.59384" lon="5.74372">
        <ele>349.2</ele>
        <time>1970-01-01T00:24:06.000Z</time>
      </trkpt>
      <trkpt lat="49.59387" lon="5.74362">
        <ele>348.9</ele>
        <time>1970-01-01T00:24:08.000Z</time>
      </trkpt>
      <trkpt lat="49.59394" lon="5.74349">
        <ele>348.3</ele>
        <time>1970-01-01T00:24:10.000Z</time>
      </trkpt>
      <trkpt lat="49.59401" lon="5.7434">
        <ele>347.6</ele>
        <time>1970-01-01T00:24:11.000Z</time>
      </trkpt>
      <trkpt lat="49.59407" lon="5.74331">
        <ele>346.6</ele>
        <time>1970-01-01T00:24:12.000Z</time>
      </trkpt>
      <trkpt lat="49.59412" lon="5.74321">
        <ele>345.1</ele>
        <time>1970-01-01T00:24:13.000Z</time>
      </trkpt>
      <trkpt lat="49.59417" lon="5.74312">
        <ele>343.3</ele>
        <time>1970-01-01T00:24:15.000Z</time>
      </trkpt>
      <trkpt lat="49.59417" lon="5.74306">
        <ele>341</ele>
        <time>1970-01-01T00:24:16.000Z</time>
      </trkpt>
      <trkpt lat="49.5942" lon="5.74302">
        <ele>340.3</ele>
        <time>1970-01-01T00:24:18.000Z</time>
      </trkpt>
      <trkpt lat="49.59424" lon="5.74305">
        <ele>339.4</ele>
        <time>1970-01-01T00:24:20.000Z</time>
      </trkpt>
      <trkpt lat="49.5943" lon="5.74313">
        <ele>338</ele>
        <time>1970-01-01T00:24:21.000Z</time>
      </trkpt>
      <trkpt lat="49.59443" lon="5.74333">
        <ele>335.3</ele>
        <time>1970-01-01T00:24:23.000Z</time>
      </trkpt>
      <trkpt lat="49.59459" lon="5.74351">
        <ele>332.6</ele>
        <time>1970-01-01T00:24:25.000Z</time>
      </trkpt>
      <trkpt lat="49.59476" lon="5.74368">
        <ele>330</ele>
        <time>1970-01-01T00:24:27.000Z</time>
      </trkpt>
      <trkpt lat="49.59484" lon="5.74375">
        <ele>329</ele>
        <time>1970-01-01T00:24:28.000Z</time>
      </trkpt>
      <trkpt lat="49.59498" lon="5.74378">
        <ele>327.3</ele>
        <time>1970-01-01T00:24:30.000Z</time>
      </trkpt>
      <trkpt lat="49.59507" lon="5.74376">
        <ele>326.1</ele>
        <time>1970-01-01T00:24:31.000Z</time>
      </trkpt>
      <trkpt lat="49.59525" lon="5.7437">
        <ele>323.7</ele>
        <time>1970-01-01T00:24:33.000Z</time>
      </trkpt>
      <trkpt lat="49.59532" lon="5.74367">
        <ele>322.8</ele>
        <time>1970-01-01T00:24:34.000Z</time>
      </trkpt>
      <trkpt lat="49.59543" lon="5.74356">
        <ele>320.7</ele>
        <time>1970-01-01T00:24:36.000Z</time>
      </trkpt>
      <trkpt lat="49.59546" lon="5.74349">
        <ele>319.8</ele>
        <time>1970-01-01T00:24:37.000Z</time>
      </trkpt>
      <trkpt lat="49.59545" lon="5.74327">
        <ele>317.3</ele>
        <time>1970-01-01T00:24:39.000Z</time>
      </trkpt>
      <trkpt lat="49.59542" lon="5.74313">
        <ele>315.5</ele>
        <time>1970-01-01T00:24:40.000Z</time>
      </trkpt>
      <trkpt lat="49.59533" lon="5.74285">
        <ele>312.1</ele>
        <time>1970-01-01T00:24:42.000Z</time>
      </trkpt>
      <trkpt lat="49.5952" lon="5.74263">
        <ele>308.8</ele>
        <time>1970-01-01T00:24:44.000Z</time>
      </trkpt>
      <trkpt lat="49.59505" lon="5.74245">
        <ele>308.4</ele>
        <time>1970-01-01T00:24:46.000Z</time>
      </trkpt>
      <trkpt lat="49.59493" lon="5.74223">
        <ele>308.3</ele>
        <time>1970-01-01T00:24:48.000Z</time>
      </trkpt>
      <trkpt lat="49.5948" lon="5.742">
        <ele>308.3</ele>
        <time>1970-01-01T00:24:50.000Z</time>
      </trkpt>
      <trkpt lat="49.59474" lon="5.74189">
        <ele>308.2</ele>
        <time>1970-01-01T00:24:51.000Z</time>
      </trkpt>
      <trkpt lat="49.59468" lon="5.74177">
        <ele>307.9</ele>
        <time>1970-01-01T00:24:52.000Z</time>
      </trkpt>
      <trkpt lat="49.59458" lon="5.74153">
        <ele>307.6</ele>
        <time>1970-01-01T00:24:54.000Z</time>
      </trkpt>
      <trkpt lat="49.59448" lon="5.7413">
        <ele>307.4</ele>
        <time>1970-01-01T00:24:56.000Z</time>
      </trkpt>
      <trkpt lat="49.59444" lon="5.74119">
        <ele>307.1</ele>
        <time>1970-01-01T00:24:57.000Z</time>
      </trkpt>
      <trkpt lat="49.59436" lon="5.74098">
        <ele>306.8</ele>
        <time>1970-01-01T00:24:59.000Z</time>
      </trkpt>
      <trkpt lat="49.59434" lon="5.74087">
        <ele>306.8</ele>
        <time>1970-01-01T00:25:00.000Z</time>
      </trkpt>
      <trkpt lat="49.59429" lon="5.74067">
        <ele>306.7</ele>
        <time>1970-01-01T00:25:02.000Z</time>
      </trkpt>
      <trkpt lat="49.59424" lon="5.74049">
        <ele>306.7</ele>
        <time>1970-01-01T00:25:04.000Z</time>
      </trkpt>
      <trkpt lat="49.59422" lon="5.7404">
        <ele>306.7</ele>
        <time>1970-01-01T00:25:05.000Z</time>
      </trkpt>
      <trkpt lat="49.59419" lon="5.74022">
        <ele>306.7</ele>
        <time>1970-01-01T00:25:07.000Z</time>
      </trkpt>
      <trkpt lat="49.59418" lon="5.74013">
        <ele>306.6</ele>
        <time>1970-01-01T00:25:08.000Z</time>
      </trkpt>
      <trkpt lat="49.59414" lon="5.73997">
        <ele>306.5</ele>
        <time>1970-01-01T00:25:10.000Z</time>
      </trkpt>
      <trkpt lat="49.59411" lon="5.73988">
        <ele>306.5</ele>
        <time>1970-01-01T00:25:11.000Z</time>
      </trkpt>
      <trkpt lat="49.59408" lon="5.7397">
        <ele>306.6</ele>
        <time>1970-01-01T00:25:13.000Z</time>
      </trkpt>
      <trkpt lat="49.59404" lon="5.73953">
        <ele>306.9</ele>
        <time>1970-01-01T00:25:15.000Z</time>
      </trkpt>
      <trkpt lat="49.59401" lon="5.73936">
        <ele>307.2</ele>
        <time>1970-01-01T00:25:17.000Z</time>
      </trkpt>
      <trkpt lat="49.59398" lon="5.7392">
        <ele>307.2</ele>
        <time>1970-01-01T00:25:19.000Z</time>
      </trkpt>
      <trkpt lat="49.59397" lon="5.73912">
        <ele>307.3</ele>
        <time>1970-01-01T00:25:20.000Z</time>
      </trkpt>
      <trkpt lat="49.59393" lon="5.73896">
        <ele>307.3</ele>
        <time>1970-01-01T00:25:22.000Z</time>
      </trkpt>
      <trkpt lat="49.59391" lon="5.73888">
        <ele>307.3</ele>
        <time>1970-01-01T00:25:23.000Z</time>
      </trkpt>
      <trkpt lat="49.59388" lon="5.73874">
        <ele>307.5</ele>
        <time>1970-01-01T00:25:25.000Z</time>
      </trkpt>
      <trkpt lat="49.59386" lon="5.73868">
        <ele>307.7</ele>
        <time>1970-01-01T00:25:26.000Z</time>
      </trkpt>
      <trkpt lat="49.59385" lon="5.73861">
        <ele>307.8</ele>
        <time>1970-01-01T00:25:27.000Z</time>
      </trkpt>
      <trkpt lat="49.59381" lon="5.73847">
        <ele>308.2</ele>
        <time>1970-01-01T00:25:29.000Z</time>
      </trkpt>
      <trkpt lat="49.59376" lon="5.73835">
        <ele>308.5</ele>
        <time>1970-01-01T00:25:31.000Z</time>
      </trkpt>
      <trkpt lat="49.59372" lon="5.73825">
        <ele>308.9</ele>
        <time>1970-01-01T00:25:33.000Z</time>
      </trkpt>
      <trkpt lat="49.59369" lon="5.73819">
        <ele>309.1</ele>
        <time>1970-01-01T00:25:34.000Z</time>
      </trkpt>
      <trkpt lat="49.59366" lon="5.73813">
        <ele>309.3</ele>
        <time>1970-01-01T00:25:35.000Z</time>
      </trkpt>
      <trkpt lat="49.59363" lon="5.73808">
        <ele>309.4</ele>
        <time>1970-01-01T00:25:36.000Z</time>
      </trkpt>
      <trkpt lat="49.59359" lon="5.73799">
        <ele>309.6</ele>
        <time>1970-01-01T00:25:38.000Z</time>
      </trkpt>
      <trkpt lat="49.59357" lon="5.73796">
        <ele>309.6</ele>
        <time>1970-01-01T00:25:39.000Z</time>
      </trkpt>
      <trkpt lat="49.59351" lon="5.73786">
        <ele>309.7</ele>
        <time>1970-01-01T00:25:41.000Z</time>
      </trkpt>
      <trkpt lat="49.59345" lon="5.73769">
        <ele>309.9</ele>
        <time>1970-01-01T00:25:43.000Z</time>
      </trkpt>
      <trkpt lat="49.59342" lon="5.7376">
        <ele>310</ele>
        <time>1970-01-01T00:25:44.000Z</time>
      </trkpt>
      <trkpt lat="49.59341" lon="5.73752">
        <ele>310</ele>
        <time>1970-01-01T00:25:45.000Z</time>
      </trkpt>
      <trkpt lat="49.5934" lon="5.73738">
        <ele>309.9</ele>
        <time>1970-01-01T00:25:47.000Z</time>
      </trkpt>
      <trkpt lat="49.59342" lon="5.73731">
        <ele>309.9</ele>
        <time>1970-01-01T00:25:48.000Z</time>
      </trkpt>
      <trkpt lat="49.59345" lon="5.73717">
        <ele>309.8</ele>
        <time>1970-01-01T00:25:50.000Z</time>
      </trkpt>
      <trkpt lat="49.5935" lon="5.73703">
        <ele>309.9</ele>
        <time>1970-01-01T00:25:52.000Z</time>
      </trkpt>
      <trkpt lat="49.59356" lon="5.7369">
        <ele>309.9</ele>
        <time>1970-01-01T00:25:54.000Z</time>
      </trkpt>
      <trkpt lat="49.59359" lon="5.73684">
        <ele>310</ele>
        <time>1970-01-01T00:25:55.000Z</time>
      </trkpt>
      <trkpt lat="49.59365" lon="5.73676">
        <ele>310.1</ele>
        <time>1970-01-01T00:25:57.000Z</time>
      </trkpt>
      <trkpt lat="49.59371" lon="5.73668">
        <ele>310.2</ele>
        <time>1970-01-01T00:25:59.000Z</time>
      </trkpt>
      <trkpt lat="49.59374" lon="5.73664">
        <ele>310.2</ele>
        <time>1970-01-01T00:26:00.000Z</time>
      </trkpt>
      <trkpt lat="49.59383" lon="5.73651">
        <ele>310.2</ele>
        <time>1970-01-01T00:26:02.000Z</time>
      </trkpt>
      <trkpt lat="49.59388" lon="5.73645">
        <ele>310.1</ele>
        <time>1970-01-01T00:26:03.000Z</time>
      </trkpt>
      <trkpt lat="49.59392" lon="5.7364">
        <ele>310</ele>
        <time>1970-01-01T00:26:04.000Z</time>
      </trkpt>
      <trkpt lat="49.59394" lon="5.73634">
        <ele>309.9</ele>
        <time>1970-01-01T00:26:06.000Z</time>
      </trkpt>
      <trkpt lat="49.59399" lon="5.73632">
        <ele>309.8</ele>
        <time>1970-01-01T00:26:07.000Z</time>
      </trkpt>
      <trkpt lat="49.59412" lon="5.73627">
        <ele>309.1</ele>
        <time>1970-01-01T00:26:09.000Z</time>
      </trkpt>
      <trkpt lat="49.59425" lon="5.73621">
        <ele>308.3</ele>
        <time>1970-01-01T00:26:11.000Z</time>
      </trkpt>
      <trkpt lat="49.59434" lon="5.73613">
        <ele>307.8</ele>
        <time>1970-01-01T00:26:13.000Z</time>
      </trkpt>
      <trkpt lat="49.59437" lon="5.73605">
        <ele>307.7</ele>
        <time>1970-01-01T00:26:14.000Z</time>
      </trkpt>
      <trkpt lat="49.59438" lon="5.73598">
        <ele>307.6</ele>
        <time>1970-01-01T00:26:15.000Z</time>
      </trkpt>
      <trkpt lat="49.59437" lon="5.73582">
        <ele>307.3</ele>
        <time>1970-01-01T00:26:17.000Z</time>
      </trkpt>
      <trkpt lat="49.59435" lon="5.73567">
        <ele>306.9</ele>
        <time>1970-01-01T00:26:19.000Z</time>
      </trkpt>
      <trkpt lat="49.59434" lon="5.73559">
        <ele>306.5</ele>
        <time>1970-01-01T00:26:20.000Z</time>
      </trkpt>
      <trkpt lat="49.59431" lon="5.73543">
        <ele>305.9</ele>
        <time>1970-01-01T00:26:22.000Z</time>
      </trkpt>
      <trkpt lat="49.59428" lon="5.73525">
        <ele>305.5</ele>
        <time>1970-01-01T00:26:24.000Z</time>
      </trkpt>
      <trkpt lat="49.59426" lon="5.73517">
        <ele>305.3</ele>
        <time>1970-01-01T00:26:25.000Z</time>
      </trkpt>
      <trkpt lat="49.59421" lon="5.73498">
        <ele>304.9</ele>
        <time>1970-01-01T00:26:27.000Z</time>
      </trkpt>
      <trkpt lat="49.59418" lon="5.73489">
        <ele>304.6</ele>
        <time>1970-01-01T00:26:28.000Z</time>
      </trkpt>
      <trkpt lat="49.59414" lon="5.73473">
        <ele>304.3</ele>
        <time>1970-01-01T00:26:30.000Z</time>
      </trkpt>
      <trkpt lat="49.59409" lon="5.73458">
        <ele>303.8</ele>
        <time>1970-01-01T00:26:32.000Z</time>
      </trkpt>
      <trkpt lat="49.59403" lon="5.73439">
        <ele>303.2</ele>
        <time>1970-01-01T00:26:34.000Z</time>
      </trkpt>
      <trkpt lat="49.594" lon="5.7343">
        <ele>302.8</ele>
        <time>1970-01-01T00:26:35.000Z</time>
      </trkpt>
      <trkpt lat="49.59394" lon="5.73411">
        <ele>302.1</ele>
        <time>1970-01-01T00:26:37.000Z</time>
      </trkpt>
      <trkpt lat="49.59384" lon="5.73395">
        <ele>301.2</ele>
        <time>1970-01-01T00:26:39.000Z</time>
      </trkpt>
      <trkpt lat="49.59378" lon="5.73389">
        <ele>300.6</ele>
        <time>1970-01-01T00:26:40.000Z</time>
      </trkpt>
      <trkpt lat="49.59367" lon="5.73372">
        <ele>298.8</ele>
        <time>1970-01-01T00:26:42.000Z</time>
      </trkpt>
      <trkpt lat="49.59354" lon="5.73351">
        <ele>296.8</ele>
        <time>1970-01-01T00:26:44.000Z</time>
      </trkpt>
      <trkpt lat="49.59343" lon="5.73325">
        <ele>295.1</ele>
        <time>1970-01-01T00:26:46.000Z</time>
      </trkpt>
      <trkpt lat="49.59337" lon="5.73312">
        <ele>294.5</ele>
        <time>1970-01-01T00:26:47.000Z</time>
      </trkpt>
      <trkpt lat="49.59326" lon="5.73285">
        <ele>293.7</ele>
        <time>1970-01-01T00:26:49.000Z</time>
      </trkpt>
      <trkpt lat="49.59318" lon="5.73258">
        <ele>293.8</ele>
        <time>1970-01-01T00:26:51.000Z</time>
      </trkpt>
      <trkpt lat="49.59314" lon="5.73245">
        <ele>293.8</ele>
        <time>1970-01-01T00:26:52.000Z</time>
      </trkpt>
      <trkpt lat="49.59312" lon="5.73223">
        <ele>293.4</ele>
        <time>1970-01-01T00:26:54.000Z</time>
      </trkpt>
      <trkpt lat="49.59317" lon="5.73205">
        <ele>292.4</ele>
        <time>1970-01-01T00:26:56.000Z</time>
      </trkpt>
      <trkpt lat="49.59323" lon="5.732">
        <ele>291.6</ele>
        <time>1970-01-01T00:26:57.000Z</time>
      </trkpt>
      <trkpt lat="49.59338" lon="5.73192">
        <ele>289.7</ele>
        <time>1970-01-01T00:26:59.000Z</time>
      </trkpt>
      <trkpt lat="49.59346" lon="5.73188">
        <ele>288.7</ele>
        <time>1970-01-01T00:27:00.000Z</time>
      </trkpt>
      <trkpt lat="49.59364" lon="5.7318">
        <ele>286.7</ele>
        <time>1970-01-01T00:27:02.000Z</time>
      </trkpt>
      <trkpt lat="49.59374" lon="5.73176">
        <ele>285.7</ele>
        <time>1970-01-01T00:27:03.000Z</time>
      </trkpt>
      <trkpt lat="49.59383" lon="5.73172">
        <ele>284.8</ele>
        <time>1970-01-01T00:27:04.000Z</time>
      </trkpt>
      <trkpt lat="49.59402" lon="5.73163">
        <ele>282.7</ele>
        <time>1970-01-01T00:27:06.000Z</time>
      </trkpt>
      <trkpt lat="49.59423" lon="5.73152">
        <ele>280.3</ele>
        <time>1970-01-01T00:27:08.000Z</time>
      </trkpt>
      <trkpt lat="49.59434" lon="5.73148">
        <ele>279.2</ele>
        <time>1970-01-01T00:27:09.000Z</time>
      </trkpt>
      <trkpt lat="49.59456" lon="5.73137">
        <ele>277.3</ele>
        <time>1970-01-01T00:27:11.000Z</time>
      </trkpt>
      <trkpt lat="49.59466" lon="5.73131">
        <ele>276.7</ele>
        <time>1970-01-01T00:27:12.000Z</time>
      </trkpt>
      <trkpt lat="49.59482" lon="5.73122">
        <ele>275.2</ele>
        <time>1970-01-01T00:27:14.000Z</time>
      </trkpt>
      <trkpt lat="49.59487" lon="5.73116">
        <ele>274.5</ele>
        <time>1970-01-01T00:27:15.000Z</time>
      </trkpt>
      <trkpt lat="49.59491" lon="5.73096">
        <ele>275.8</ele>
        <time>1970-01-01T00:27:17.000Z</time>
      </trkpt>
      <trkpt lat="49.59497" lon="5.73075">
        <ele>276.7</ele>
        <time>1970-01-01T00:27:19.000Z</time>
      </trkpt>
      <trkpt lat="49.59503" lon="5.73065">
        <ele>277.1</ele>
        <time>1970-01-01T00:27:20.000Z</time>
      </trkpt>
      <trkpt lat="49.5952" lon="5.73051">
        <ele>275.8</ele>
        <time>1970-01-01T00:27:22.000Z</time>
      </trkpt>
      <trkpt lat="49.59539" lon="5.73037">
        <ele>274.6</ele>
        <time>1970-01-01T00:27:24.000Z</time>
      </trkpt>
      <trkpt lat="49.59558" lon="5.73024">
        <ele>274.3</ele>
        <time>1970-01-01T00:27:26.000Z</time>
      </trkpt>
      <trkpt lat="49.59567" lon="5.73018">
        <ele>274.2</ele>
        <time>1970-01-01T00:27:27.000Z</time>
      </trkpt>
      <trkpt lat="49.59585" lon="5.73009">
        <ele>274.1</ele>
        <time>1970-01-01T00:27:29.000Z</time>
      </trkpt>
      <trkpt lat="49.59592" lon="5.73005">
        <ele>274.2</ele>
        <time>1970-01-01T00:27:30.000Z</time>
      </trkpt>
      <trkpt lat="49.59597" lon="5.73002">
        <ele>274.3</ele>
        <time>1970-01-01T00:27:31.000Z</time>
      </trkpt>
      <trkpt lat="49.59604" lon="5.72993">
        <ele>274.2</ele>
        <time>1970-01-01T00:27:33.000Z</time>
      </trkpt>
      <trkpt lat="49.59605" lon="5.72986">
        <ele>274.2</ele>
        <time>1970-01-01T00:27:34.000Z</time>
      </trkpt>
      <trkpt lat="49.59604" lon="5.72977">
        <ele>274.1</ele>
        <time>1970-01-01T00:27:35.000Z</time>
      </trkpt>
      <trkpt lat="49.596" lon="5.72961">
        <ele>273.9</ele>
        <time>1970-01-01T00:27:37.000Z</time>
      </trkpt>
      <trkpt lat="49.59598" lon="5.72952">
        <ele>273.8</ele>
        <time>1970-01-01T00:27:38.000Z</time>
      </trkpt>
      <trkpt lat="49.59594" lon="5.72934">
        <ele>273.6</ele>
        <time>1970-01-01T00:27:40.000Z</time>
      </trkpt>
      <trkpt lat="49.59592" lon="5.72915">
        <ele>273.4</ele>
        <time>1970-01-01T00:27:42.000Z</time>
      </trkpt>
      <trkpt lat="49.59589" lon="5.72896">
        <ele>273.2</ele>
        <time>1970-01-01T00:27:44.000Z</time>
      </trkpt>
      <trkpt lat="49.59587" lon="5.72886">
        <ele>273.1</ele>
        <time>1970-01-01T00:27:45.000Z</time>
      </trkpt>
      <trkpt lat="49.59585" lon="5.72876">
        <ele>273</ele>
        <time>1970-01-01T00:27:46.000Z</time>
      </trkpt>
      <trkpt lat="49.59582" lon="5.72866">
        <ele>272.9</ele>
        <time>1970-01-01T00:27:47.000Z</time>
      </trkpt>
      <trkpt lat="49.59577" lon="5.72848">
        <ele>272.9</ele>
        <time>1970-01-01T00:27:49.000Z</time>
      </trkpt>
      <trkpt lat="49.59574" lon="5.72839">
        <ele>272.9</ele>
        <time>1970-01-01T00:27:50.000Z</time>
      </trkpt>
      <trkpt lat="49.5957" lon="5.72821">
        <ele>272.9</ele>
        <time>1970-01-01T00:27:52.000Z</time>
      </trkpt>
      <trkpt lat="49.59566" lon="5.72804">
        <ele>272.9</ele>
        <time>1970-01-01T00:27:54.000Z</time>
      </trkpt>
      <trkpt lat="49.59561" lon="5.72786">
        <ele>273</ele>
        <time>1970-01-01T00:27:56.000Z</time>
      </trkpt>
      <trkpt lat="49.59563" lon="5.7277">
        <ele>273.4</ele>
        <time>1970-01-01T00:27:58.000Z</time>
      </trkpt>
      <trkpt lat="49.59568" lon="5.72767">
        <ele>273.5</ele>
        <time>1970-01-01T00:27:59.000Z</time>
      </trkpt>
      <trkpt lat="49.59578" lon="5.72767">
        <ele>273.8</ele>
        <time>1970-01-01T00:28:01.000Z</time>
      </trkpt>
      <trkpt lat="49.59588" lon="5.72766">
        <ele>274.2</ele>
        <time>1970-01-01T00:28:03.000Z</time>
      </trkpt>
      <trkpt lat="49.59592" lon="5.72765">
        <ele>274.3</ele>
        <time>1970-01-01T00:28:04.000Z</time>
      </trkpt>
      <trkpt lat="49.596" lon="5.72762">
        <ele>274.7</ele>
        <time>1970-01-01T00:28:06.000Z</time>
      </trkpt>
      <trkpt lat="49.59608" lon="5.72755">
        <ele>275.2</ele>
        <time>1970-01-01T00:28:08.000Z</time>
      </trkpt>
      <trkpt lat="49.59613" lon="5.72748">
        <ele>275.7</ele>
        <time>1970-01-01T00:28:10.000Z</time>
      </trkpt>
      <trkpt lat="49.59615" lon="5.72744">
        <ele>275.9</ele>
        <time>1970-01-01T00:28:11.000Z</time>
      </trkpt>
      <trkpt lat="49.59617" lon="5.72739">
        <ele>276.3</ele>
        <time>1970-01-01T00:28:12.000Z</time>
      </trkpt>
      <trkpt lat="49.59618" lon="5.72735">
        <ele>276.5</ele>
        <time>1970-01-01T00:28:14.000Z</time>
      </trkpt>
      <trkpt lat="49.59622" lon="5.72728">
        <ele>277</ele>
        <time>1970-01-01T00:28:18.000Z</time>
      </trkpt>
      <trkpt lat="49.59626" lon="5.72723">
        <ele>277.5</ele>
        <time>1970-01-01T00:28:20.000Z</time>
      </trkpt>
      <trkpt lat="49.59634" lon="5.72704">
        <ele>278.9</ele>
        <time>1970-01-01T00:28:22.000Z</time>
      </trkpt>
      <trkpt lat="49.59638" lon="5.72697">
        <ele>279.5</ele>
        <time>1970-01-01T00:28:23.000Z</time>
      </trkpt>
      <trkpt lat="49.59642" lon="5.72689">
        <ele>280</ele>
        <time>1970-01-01T00:28:25.000Z</time>
      </trkpt>
      <trkpt lat="49.59645" lon="5.72683">
        <ele>280.3</ele>
        <time>1970-01-01T00:28:26.000Z</time>
      </trkpt>
      <trkpt lat="49.59648" lon="5.72678">
        <ele>280.6</ele>
        <time>1970-01-01T00:28:27.000Z</time>
      </trkpt>
      <trkpt lat="49.59651" lon="5.72672">
        <ele>280.8</ele>
        <time>1970-01-01T00:28:28.000Z</time>
      </trkpt>
      <trkpt lat="49.59655" lon="5.72665">
        <ele>281</ele>
        <time>1970-01-01T00:28:30.000Z</time>
      </trkpt>
      <trkpt lat="49.59658" lon="5.7266">
        <ele>281.2</ele>
        <time>1970-01-01T00:28:31.000Z</time>
      </trkpt>
      <trkpt lat="49.59661" lon="5.72655">
        <ele>281.3</ele>
        <time>1970-01-01T00:28:32.000Z</time>
      </trkpt>
      <trkpt lat="49.59664" lon="5.72649">
        <ele>281.4</ele>
        <time>1970-01-01T00:28:33.000Z</time>
      </trkpt>
      <trkpt lat="49.59668" lon="5.72643">
        <ele>281.4</ele>
        <time>1970-01-01T00:28:35.000Z</time>
      </trkpt>
      <trkpt lat="49.59673" lon="5.72635">
        <ele>281.5</ele>
        <time>1970-01-01T00:28:36.000Z</time>
      </trkpt>
      <trkpt lat="49.59676" lon="5.7263">
        <ele>281.5</ele>
        <time>1970-01-01T00:28:37.000Z</time>
      </trkpt>
      <trkpt lat="49.59678" lon="5.72626">
        <ele>281.5</ele>
        <time>1970-01-01T00:28:38.000Z</time>
      </trkpt>
      <trkpt lat="49.59682" lon="5.72618">
        <ele>281.7</ele>
        <time>1970-01-01T00:28:40.000Z</time>
      </trkpt>
      <trkpt lat="49.59686" lon="5.72613">
        <ele>281.8</ele>
        <time>1970-01-01T00:28:41.000Z</time>
      </trkpt>
      <trkpt lat="49.59689" lon="5.72608">
        <ele>281.9</ele>
        <time>1970-01-01T00:28:42.000Z</time>
      </trkpt>
      <trkpt lat="49.59692" lon="5.72604">
        <ele>282</ele>
        <time>1970-01-01T00:28:44.000Z</time>
      </trkpt>
      <trkpt lat="49.59696" lon="5.72597">
        <ele>282.2</ele>
        <time>1970-01-01T00:28:45.000Z</time>
      </trkpt>
      <trkpt lat="49.59701" lon="5.72588">
        <ele>282.3</ele>
        <time>1970-01-01T00:28:47.000Z</time>
      </trkpt>
      <trkpt lat="49.59704" lon="5.72584">
        <ele>282.4</ele>
        <time>1970-01-01T00:28:48.000Z</time>
      </trkpt>
      <trkpt lat="49.59709" lon="5.72574">
        <ele>282.6</ele>
        <time>1970-01-01T00:28:50.000Z</time>
      </trkpt>
      <trkpt lat="49.59712" lon="5.72568">
        <ele>282.8</ele>
        <time>1970-01-01T00:28:51.000Z</time>
      </trkpt>
      <trkpt lat="49.59717" lon="5.72561">
        <ele>283</ele>
        <time>1970-01-01T00:28:53.000Z</time>
      </trkpt>
      <trkpt lat="49.59722" lon="5.72554">
        <ele>283.2</ele>
        <time>1970-01-01T00:28:55.000Z</time>
      </trkpt>
      <trkpt lat="49.59728" lon="5.7255">
        <ele>283.2</ele>
        <time>1970-01-01T00:28:57.000Z</time>
      </trkpt>
      <trkpt lat="49.59732" lon="5.72547">
        <ele>283.2</ele>
        <time>1970-01-01T00:28:58.000Z</time>
      </trkpt>
      <trkpt lat="49.59737" lon="5.72547">
        <ele>283.3</ele>
        <time>1970-01-01T00:28:59.000Z</time>
      </trkpt>
      <trkpt lat="49.59746" lon="5.7255">
        <ele>283.4</ele>
        <time>1970-01-01T00:29:01.000Z</time>
      </trkpt>
      <trkpt lat="49.5975" lon="5.72553">
        <ele>283.4</ele>
        <time>1970-01-01T00:29:02.000Z</time>
      </trkpt>
      <trkpt lat="49.59755" lon="5.72556">
        <ele>283.5</ele>
        <time>1970-01-01T00:29:03.000Z</time>
      </trkpt>
      <trkpt lat="49.5976" lon="5.72562">
        <ele>283.6</ele>
        <time>1970-01-01T00:29:05.000Z</time>
      </trkpt>
      <trkpt lat="49.59765" lon="5.72568">
        <ele>283.8</ele>
        <time>1970-01-01T00:29:07.000Z</time>
      </trkpt>
      <trkpt lat="49.59768" lon="5.72572">
        <ele>283.9</ele>
        <time>1970-01-01T00:29:08.000Z</time>
      </trkpt>
      <trkpt lat="49.59771" lon="5.72577">
        <ele>284.1</ele>
        <time>1970-01-01T00:29:09.000Z</time>
      </trkpt>
      <trkpt lat="49.59776" lon="5.72584">
        <ele>284.4</ele>
        <time>1970-01-01T00:29:11.000Z</time>
      </trkpt>
      <trkpt lat="49.59782" lon="5.72591">
        <ele>284.7</ele>
        <time>1970-01-01T00:29:13.000Z</time>
      </trkpt>
      <trkpt lat="49.59785" lon="5.72595">
        <ele>284.8</ele>
        <time>1970-01-01T00:29:14.000Z</time>
      </trkpt>
      <trkpt lat="49.59788" lon="5.72599">
        <ele>285</ele>
        <time>1970-01-01T00:29:15.000Z</time>
      </trkpt>
      <trkpt lat="49.59794" lon="5.72606">
        <ele>285.3</ele>
        <time>1970-01-01T00:29:17.000Z</time>
      </trkpt>
      <trkpt lat="49.59799" lon="5.72614">
        <ele>285.7</ele>
        <time>1970-01-01T00:29:19.000Z</time>
      </trkpt>
      <trkpt lat="49.59804" lon="5.72619">
        <ele>285.9</ele>
        <time>1970-01-01T00:29:20.000Z</time>
      </trkpt>
      <trkpt lat="49.59808" lon="5.72624">
        <ele>286.1</ele>
        <time>1970-01-01T00:29:22.000Z</time>
      </trkpt>
      <trkpt lat="49.59812" lon="5.7263">
        <ele>286.3</ele>
        <time>1970-01-01T00:29:23.000Z</time>
      </trkpt>
      <trkpt lat="49.59816" lon="5.72635">
        <ele>286.5</ele>
        <time>1970-01-01T00:29:24.000Z</time>
      </trkpt>
      <trkpt lat="49.5982" lon="5.7264">
        <ele>286.8</ele>
        <time>1970-01-01T00:29:26.000Z</time>
      </trkpt>
      <trkpt lat="49.59823" lon="5.72643">
        <ele>287</ele>
        <time>1970-01-01T00:29:27.000Z</time>
      </trkpt>
      <trkpt lat="49.59828" lon="5.72647">
        <ele>287.3</ele>
        <time>1970-01-01T00:29:29.000Z</time>
      </trkpt>
      <trkpt lat="49.59831" lon="5.72648">
        <ele>287.4</ele>
        <time>1970-01-01T00:29:30.000Z</time>
      </trkpt>
      <trkpt lat="49.59836" lon="5.72646">
        <ele>287.9</ele>
        <time>1970-01-01T00:29:31.000Z</time>
      </trkpt>
      <trkpt lat="49.59839" lon="5.72642">
        <ele>288.4</ele>
        <time>1970-01-01T00:29:33.000Z</time>
      </trkpt>
      <trkpt lat="49.59842" lon="5.72639">
        <ele>288.7</ele>
        <time>1970-01-01T00:29:34.000Z</time>
      </trkpt>
      <trkpt lat="49.59845" lon="5.72636">
        <ele>289.1</ele>
        <time>1970-01-01T00:29:35.000Z</time>
      </trkpt>
      <trkpt lat="49.59848" lon="5.72633">
        <ele>289.4</ele>
        <time>1970-01-01T00:29:37.000Z</time>
      </trkpt>
      <trkpt lat="49.59851" lon="5.7263">
        <ele>289.8</ele>
        <time>1970-01-01T00:29:38.000Z</time>
      </trkpt>
      <trkpt lat="49.59854" lon="5.72626">
        <ele>290.2</ele>
        <time>1970-01-01T00:29:39.000Z</time>
      </trkpt>
      <trkpt lat="49.59857" lon="5.72623">
        <ele>290.6</ele>
        <time>1970-01-01T00:29:41.000Z</time>
      </trkpt>
      <trkpt lat="49.5986" lon="5.72619">
        <ele>291</ele>
        <time>1970-01-01T00:29:42.000Z</time>
      </trkpt>
      <trkpt lat="49.59863" lon="5.72617">
        <ele>291.3</ele>
        <time>1970-01-01T00:29:43.000Z</time>
      </trkpt>
      <trkpt lat="49.59866" lon="5.72614">
        <ele>291.7</ele>
        <time>1970-01-01T00:29:45.000Z</time>
      </trkpt>
      <trkpt lat="49.5987" lon="5.72609">
        <ele>292.2</ele>
        <time>1970-01-01T00:29:46.000Z</time>
      </trkpt>
      <trkpt lat="49.59875" lon="5.72605">
        <ele>292.8</ele>
        <time>1970-01-01T00:29:48.000Z</time>
      </trkpt>
      <trkpt lat="49.59877" lon="5.72603">
        <ele>293.1</ele>
        <time>1970-01-01T00:29:49.000Z</time>
      </trkpt>
      <trkpt lat="49.59881" lon="5.72598">
        <ele>293.7</ele>
        <time>1970-01-01T00:29:51.000Z</time>
      </trkpt>
      <trkpt lat="49.59885" lon="5.72594">
        <ele>294.2</ele>
        <time>1970-01-01T00:29:53.000Z</time>
      </trkpt>
      <trkpt lat="49.59888" lon="5.7259">
        <ele>294.6</ele>
        <time>1970-01-01T00:29:54.000Z</time>
      </trkpt>
      <trkpt lat="49.59892" lon="5.72587">
        <ele>295</ele>
        <time>1970-01-01T00:29:55.000Z</time>
      </trkpt>
      <trkpt lat="49.59895" lon="5.72583">
        <ele>295.5</ele>
        <time>1970-01-01T00:29:57.000Z</time>
      </trkpt>
      <trkpt lat="49.59898" lon="5.72579">
        <ele>296</ele>
        <time>1970-01-01T00:29:59.000Z</time>
      </trkpt>
      <trkpt lat="49.59902" lon="5.72576">
        <ele>296.4</ele>
        <time>1970-01-01T00:30:00.000Z</time>
      </trkpt>
      <trkpt lat="49.59904" lon="5.72574">
        <ele>296.8</ele>
        <time>1970-01-01T00:30:01.000Z</time>
      </trkpt>
      <trkpt lat="49.59907" lon="5.7257">
        <ele>297.2</ele>
        <time>1970-01-01T00:30:03.000Z</time>
      </trkpt>
      <trkpt lat="49.5991" lon="5.72567">
        <ele>297.6</ele>
        <time>1970-01-01T00:30:04.000Z</time>
      </trkpt>
      <trkpt lat="49.59913" lon="5.72563">
        <ele>298</ele>
        <time>1970-01-01T00:30:06.000Z</time>
      </trkpt>
      <trkpt lat="49.59916" lon="5.72558">
        <ele>298.5</ele>
        <time>1970-01-01T00:30:07.000Z</time>
      </trkpt>
      <trkpt lat="49.59919" lon="5.72554">
        <ele>299</ele>
        <time>1970-01-01T00:30:09.000Z</time>
      </trkpt>
      <trkpt lat="49.59922" lon="5.7255">
        <ele>299.4</ele>
        <time>1970-01-01T00:30:10.000Z</time>
      </trkpt>
      <trkpt lat="49.59924" lon="5.72546">
        <ele>299.8</ele>
        <time>1970-01-01T00:30:11.000Z</time>
      </trkpt>
      <trkpt lat="49.59926" lon="5.72541">
        <ele>300.2</ele>
        <time>1970-01-01T00:30:13.000Z</time>
      </trkpt>
      <trkpt lat="49.59927" lon="5.72537">
        <ele>300.6</ele>
        <time>1970-01-01T00:30:15.000Z</time>
      </trkpt>
      <trkpt lat="49.5993" lon="5.72531">
        <ele>301.1</ele>
        <time>1970-01-01T00:30:17.000Z</time>
      </trkpt>
      <trkpt lat="49.59932" lon="5.72525">
        <ele>301.6</ele>
        <time>1970-01-01T00:30:18.000Z</time>
      </trkpt>
      <trkpt lat="49.59934" lon="5.72517">
        <ele>302.2</ele>
        <time>1970-01-01T00:30:20.000Z</time>
      </trkpt>
      <trkpt lat="49.59936" lon="5.72511">
        <ele>302.7</ele>
        <time>1970-01-01T00:30:21.000Z</time>
      </trkpt>
      <trkpt lat="49.59938" lon="5.72505">
        <ele>303.2</ele>
        <time>1970-01-01T00:30:23.000Z</time>
      </trkpt>
      <trkpt lat="49.5994" lon="5.72498">
        <ele>303.8</ele>
        <time>1970-01-01T00:30:25.000Z</time>
      </trkpt>
      <trkpt lat="49.59942" lon="5.72493">
        <ele>304.3</ele>
        <time>1970-01-01T00:30:27.000Z</time>
      </trkpt>
      <trkpt lat="49.59944" lon="5.72487">
        <ele>304.8</ele>
        <time>1970-01-01T00:30:29.000Z</time>
      </trkpt>
      <trkpt lat="49.59945" lon="5.72482">
        <ele>305.2</ele>
        <time>1970-01-01T00:30:30.000Z</time>
      </trkpt>
      <trkpt lat="49.59947" lon="5.72477">
        <ele>305.6</ele>
        <time>1970-01-01T00:30:32.000Z</time>
      </trkpt>
      <trkpt lat="49.59949" lon="5.72472">
        <ele>306.1</ele>
        <time>1970-01-01T00:30:34.000Z</time>
      </trkpt>
      <trkpt lat="49.5995" lon="5.72467">
        <ele>306.5</ele>
        <time>1970-01-01T00:30:35.000Z</time>
      </trkpt>
      <trkpt lat="49.59952" lon="5.72463">
        <ele>306.8</ele>
        <time>1970-01-01T00:30:37.000Z</time>
      </trkpt>
      <trkpt lat="49.59954" lon="5.72459">
        <ele>307.2</ele>
        <time>1970-01-01T00:30:38.000Z</time>
      </trkpt>
      <trkpt lat="49.59957" lon="5.72455">
        <ele>307.7</ele>
        <time>1970-01-01T00:30:40.000Z</time>
      </trkpt>
      <trkpt lat="49.59961" lon="5.72448">
        <ele>308.3</ele>
        <time>1970-01-01T00:30:43.000Z</time>
      </trkpt>
      <trkpt lat="49.59964" lon="5.72443">
        <ele>308.8</ele>
        <time>1970-01-01T00:30:45.000Z</time>
      </trkpt>
      <trkpt lat="49.59969" lon="5.72437">
        <ele>309.5</ele>
        <time>1970-01-01T00:30:48.000Z</time>
      </trkpt>
      <trkpt lat="49.59974" lon="5.72431">
        <ele>310.3</ele>
        <time>1970-01-01T00:30:51.000Z</time>
      </trkpt>
      <trkpt lat="49.59979" lon="5.72425">
        <ele>310.9</ele>
        <time>1970-01-01T00:30:53.000Z</time>
      </trkpt>
      <trkpt lat="49.59982" lon="5.72422">
        <ele>311.3</ele>
        <time>1970-01-01T00:30:54.000Z</time>
      </trkpt>
      <trkpt lat="49.59985" lon="5.72418">
        <ele>311.7</ele>
        <time>1970-01-01T00:30:56.000Z</time>
      </trkpt>
      <trkpt lat="49.5999" lon="5.72414">
        <ele>312.2</ele>
        <time>1970-01-01T00:30:58.000Z</time>
      </trkpt>
      <trkpt lat="49.59993" lon="5.72411">
        <ele>312.5</ele>
        <time>1970-01-01T00:30:59.000Z</time>
      </trkpt>
      <trkpt lat="49.6" lon="5.72402">
        <ele>313.4</ele>
        <time>1970-01-01T00:31:02.000Z</time>
      </trkpt>
      <trkpt lat="49.60003" lon="5.72398">
        <ele>313.7</ele>
        <time>1970-01-01T00:31:04.000Z</time>
      </trkpt>
      <trkpt lat="49.60005" lon="5.72393">
        <ele>314.1</ele>
        <time>1970-01-01T00:31:06.000Z</time>
      </trkpt>
      <trkpt lat="49.60008" lon="5.7239">
        <ele>314.3</ele>
        <time>1970-01-01T00:31:07.000Z</time>
      </trkpt>
      <trkpt lat="49.60012" lon="5.72386">
        <ele>314.8</ele>
        <time>1970-01-01T00:31:09.000Z</time>
      </trkpt>
      <trkpt lat="49.60016" lon="5.72381">
        <ele>315.2</ele>
        <time>1970-01-01T00:31:11.000Z</time>
      </trkpt>
      <trkpt lat="49.60019" lon="5.72377">
        <ele>315.6</ele>
        <time>1970-01-01T00:31:13.000Z</time>
      </trkpt>
      <trkpt lat="49.60022" lon="5.72373">
        <ele>315.9</ele>
        <time>1970-01-01T00:31:14.000Z</time>
      </trkpt>
      <trkpt lat="49.60026" lon="5.72368">
        <ele>316.3</ele>
        <time>1970-01-01T00:31:16.000Z</time>
      </trkpt>
      <trkpt lat="49.60029" lon="5.72364">
        <ele>316.7</ele>
        <time>1970-01-01T00:31:18.000Z</time>
      </trkpt>
      <trkpt lat="49.60035" lon="5.72356">
        <ele>317.4</ele>
        <time>1970-01-01T00:31:21.000Z</time>
      </trkpt>
      <trkpt lat="49.60039" lon="5.72351">
        <ele>317.8</ele>
        <time>1970-01-01T00:31:23.000Z</time>
      </trkpt>
      <trkpt lat="49.60041" lon="5.72348">
        <ele>318.1</ele>
        <time>1970-01-01T00:31:24.000Z</time>
      </trkpt>
      <trkpt lat="49.60044" lon="5.72344">
        <ele>318.5</ele>
        <time>1970-01-01T00:31:25.000Z</time>
      </trkpt>
      <trkpt lat="49.60047" lon="5.72341">
        <ele>318.8</ele>
        <time>1970-01-01T00:31:27.000Z</time>
      </trkpt>
      <trkpt lat="49.60049" lon="5.72339">
        <ele>319.1</ele>
        <time>1970-01-01T00:31:28.000Z</time>
      </trkpt>
      <trkpt lat="49.60053" lon="5.72334">
        <ele>319.6</ele>
        <time>1970-01-01T00:31:30.000Z</time>
      </trkpt>
      <trkpt lat="49.60057" lon="5.7233">
        <ele>320.1</ele>
        <time>1970-01-01T00:31:32.000Z</time>
      </trkpt>
      <trkpt lat="49.60061" lon="5.72327">
        <ele>320.5</ele>
        <time>1970-01-01T00:31:34.000Z</time>
      </trkpt>
      <trkpt lat="49.60066" lon="5.72323">
        <ele>321.1</ele>
        <time>1970-01-01T00:31:36.000Z</time>
      </trkpt>
      <trkpt lat="49.60071" lon="5.7232">
        <ele>321.5</ele>
        <time>1970-01-01T00:31:38.000Z</time>
      </trkpt>
      <trkpt lat="49.60075" lon="5.72317">
        <ele>322</ele>
        <time>1970-01-01T00:31:40.000Z</time>
      </trkpt>
      <trkpt lat="49.6008" lon="5.72314">
        <ele>322.4</ele>
        <time>1970-01-01T00:31:42.000Z</time>
      </trkpt>
      <trkpt lat="49.60085" lon="5.72311">
        <ele>322.9</ele>
        <time>1970-01-01T00:31:44.000Z</time>
      </trkpt>
      <trkpt lat="49.60092" lon="5.72307">
        <ele>323.5</ele>
        <time>1970-01-01T00:31:47.000Z</time>
      </trkpt>
      <trkpt lat="49.60096" lon="5.72305">
        <ele>323.9</ele>
        <time>1970-01-01T00:31:49.000Z</time>
      </trkpt>
      <trkpt lat="49.60105" lon="5.723">
        <ele>324.6</ele>
        <time>1970-01-01T00:31:52.000Z</time>
      </trkpt>
      <trkpt lat="49.60109" lon="5.72298">
        <ele>325</ele>
        <time>1970-01-01T00:31:54.000Z</time>
      </trkpt>
      <trkpt lat="49.60114" lon="5.72296">
        <ele>325.3</ele>
        <time>1970-01-01T00:31:56.000Z</time>
      </trkpt>
      <trkpt lat="49.60119" lon="5.72293">
        <ele>325.7</ele>
        <time>1970-01-01T00:31:58.000Z</time>
      </trkpt>
      <trkpt lat="49.60124" lon="5.72291">
        <ele>326.2</ele>
        <time>1970-01-01T00:32:00.000Z</time>
      </trkpt>
      <trkpt lat="49.60128" lon="5.7229">
        <ele>326.5</ele>
        <time>1970-01-01T00:32:02.000Z</time>
      </trkpt>
      <trkpt lat="49.60133" lon="5.72288">
        <ele>326.9</ele>
        <time>1970-01-01T00:32:04.000Z</time>
      </trkpt>
      <trkpt lat="49.60136" lon="5.72286">
        <ele>327.2</ele>
        <time>1970-01-01T00:32:05.000Z</time>
      </trkpt>
      <trkpt lat="49.60142" lon="5.72282">
        <ele>327.7</ele>
        <time>1970-01-01T00:32:07.000Z</time>
      </trkpt>
      <trkpt lat="49.60145" lon="5.72281">
        <ele>328</ele>
        <time>1970-01-01T00:32:08.000Z</time>
      </trkpt>
      <trkpt lat="49.60149" lon="5.7228">
        <ele>328.3</ele>
        <time>1970-01-01T00:32:10.000Z</time>
      </trkpt>
      <trkpt lat="49.60157" lon="5.72278">
        <ele>328.8</ele>
        <time>1970-01-01T00:32:13.000Z</time>
      </trkpt>
      <trkpt lat="49.60162" lon="5.72277">
        <ele>329.1</ele>
        <time>1970-01-01T00:32:15.000Z</time>
      </trkpt>
      <trkpt lat="49.60167" lon="5.72276">
        <ele>329.4</ele>
        <time>1970-01-01T00:32:17.000Z</time>
      </trkpt>
      <trkpt lat="49.60172" lon="5.72274">
        <ele>329.7</ele>
        <time>1970-01-01T00:32:19.000Z</time>
      </trkpt>
      <trkpt lat="49.60179" lon="5.72274">
        <ele>330</ele>
        <time>1970-01-01T00:32:21.000Z</time>
      </trkpt>
      <trkpt lat="49.60183" lon="5.72273">
        <ele>330.3</ele>
        <time>1970-01-01T00:32:23.000Z</time>
      </trkpt>
      <trkpt lat="49.60191" lon="5.72272">
        <ele>330.7</ele>
        <time>1970-01-01T00:32:25.000Z</time>
      </trkpt>
      <trkpt lat="49.60196" lon="5.72272">
        <ele>331</ele>
        <time>1970-01-01T00:32:27.000Z</time>
      </trkpt>
      <trkpt lat="49.602" lon="5.72272">
        <ele>331.2</ele>
        <time>1970-01-01T00:32:29.000Z</time>
      </trkpt>
      <trkpt lat="49.60204" lon="5.72273">
        <ele>331.5</ele>
        <time>1970-01-01T00:32:32.000Z</time>
      </trkpt>
      <trkpt lat="49.6021" lon="5.72273">
        <ele>331.8</ele>
        <time>1970-01-01T00:32:34.000Z</time>
      </trkpt>
      <trkpt lat="49.60214" lon="5.72273">
        <ele>332.1</ele>
        <time>1970-01-01T00:32:35.000Z</time>
      </trkpt>
      <trkpt lat="49.60218" lon="5.72273">
        <ele>332.4</ele>
        <time>1970-01-01T00:32:37.000Z</time>
      </trkpt>
      <trkpt lat="49.60221" lon="5.72274">
        <ele>332.6</ele>
        <time>1970-01-01T00:32:38.000Z</time>
      </trkpt>
      <trkpt lat="49.60224" lon="5.72274">
        <ele>332.7</ele>
        <time>1970-01-01T00:32:39.000Z</time>
      </trkpt>
      <trkpt lat="49.60227" lon="5.72274">
        <ele>332.9</ele>
        <time>1970-01-01T00:32:40.000Z</time>
      </trkpt>
      <trkpt lat="49.60233" lon="5.72274">
        <ele>333.2</ele>
        <time>1970-01-01T00:32:42.000Z</time>
      </trkpt>
      <trkpt lat="49.60237" lon="5.72274">
        <ele>333.4</ele>
        <time>1970-01-01T00:32:43.000Z</time>
      </trkpt>
      <trkpt lat="49.60243" lon="5.72273">
        <ele>333.7</ele>
        <time>1970-01-01T00:32:45.000Z</time>
      </trkpt>
      <trkpt lat="49.60248" lon="5.72273">
        <ele>333.9</ele>
        <time>1970-01-01T00:32:47.000Z</time>
      </trkpt>
      <trkpt lat="49.60253" lon="5.72273">
        <ele>334.2</ele>
        <time>1970-01-01T00:32:48.000Z</time>
      </trkpt>
      <trkpt lat="49.60256" lon="5.72272">
        <ele>334.4</ele>
        <time>1970-01-01T00:32:49.000Z</time>
      </trkpt>
      <trkpt lat="49.60262" lon="5.72271">
        <ele>334.7</ele>
        <time>1970-01-01T00:32:50.000Z</time>
      </trkpt>
      <trkpt lat="49.60266" lon="5.7227">
        <ele>335</ele>
        <time>1970-01-01T00:32:51.000Z</time>
      </trkpt>
      <trkpt lat="49.60271" lon="5.7227">
        <ele>335.2</ele>
        <time>1970-01-01T00:32:53.000Z</time>
      </trkpt>
      <trkpt lat="49.60274" lon="5.72269">
        <ele>335.5</ele>
        <time>1970-01-01T00:32:54.000Z</time>
      </trkpt>
      <trkpt lat="49.60277" lon="5.72269">
        <ele>335.7</ele>
        <time>1970-01-01T00:32:55.000Z</time>
      </trkpt>
      <trkpt lat="49.60281" lon="5.72267">
        <ele>335.9</ele>
        <time>1970-01-01T00:32:56.000Z</time>
      </trkpt>
      <trkpt lat="49.60286" lon="5.72266">
        <ele>336.2</ele>
        <time>1970-01-01T00:32:58.000Z</time>
      </trkpt>
      <trkpt lat="49.6029" lon="5.72265">
        <ele>336.4</ele>
        <time>1970-01-01T00:32:59.000Z</time>
      </trkpt>
      <trkpt lat="49.60296" lon="5.72263">
        <ele>336.8</ele>
        <time>1970-01-01T00:33:01.000Z</time>
      </trkpt>
      <trkpt lat="49.603" lon="5.72262">
        <ele>337.1</ele>
        <time>1970-01-01T00:33:03.000Z</time>
      </trkpt>
      <trkpt lat="49.60304" lon="5.7226">
        <ele>337.4</ele>
        <time>1970-01-01T00:33:04.000Z</time>
      </trkpt>
      <trkpt lat="49.60308" lon="5.72258">
        <ele>337.6</ele>
        <time>1970-01-01T00:33:06.000Z</time>
      </trkpt>
      <trkpt lat="49.60312" lon="5.72256">
        <ele>337.8</ele>
        <time>1970-01-01T00:33:07.000Z</time>
      </trkpt>
      <trkpt lat="49.60315" lon="5.72255">
        <ele>338</ele>
        <time>1970-01-01T00:33:08.000Z</time>
      </trkpt>
      <trkpt lat="49.60319" lon="5.72253">
        <ele>338.3</ele>
        <time>1970-01-01T00:33:10.000Z</time>
      </trkpt>
      <trkpt lat="49.60324" lon="5.72251">
        <ele>338.6</ele>
        <time>1970-01-01T00:33:12.000Z</time>
      </trkpt>
      <trkpt lat="49.6033" lon="5.72249">
        <ele>338.9</ele>
        <time>1970-01-01T00:33:14.000Z</time>
      </trkpt>
      <trkpt lat="49.60333" lon="5.72248">
        <ele>339</ele>
        <time>1970-01-01T00:33:15.000Z</time>
      </trkpt>
      <trkpt lat="49.60338" lon="5.72246">
        <ele>339.2</ele>
        <time>1970-01-01T00:33:17.000Z</time>
      </trkpt>
      <trkpt lat="49.60341" lon="5.72244">
        <ele>339.4</ele>
        <time>1970-01-01T00:33:18.000Z</time>
      </trkpt>
      <trkpt lat="49.60344" lon="5.72242">
        <ele>339.6</ele>
        <time>1970-01-01T00:33:19.000Z</time>
      </trkpt>
      <trkpt lat="49.6035" lon="5.72239">
        <ele>339.8</ele>
        <time>1970-01-01T00:33:21.000Z</time>
      </trkpt>
      <trkpt lat="49.60355" lon="5.72236">
        <ele>340.1</ele>
        <time>1970-01-01T00:33:23.000Z</time>
      </trkpt>
      <trkpt lat="49.60357" lon="5.72234">
        <ele>340.2</ele>
        <time>1970-01-01T00:33:24.000Z</time>
      </trkpt>
      <trkpt lat="49.60362" lon="5.7223">
        <ele>340.4</ele>
        <time>1970-01-01T00:33:26.000Z</time>
      </trkpt>
      <trkpt lat="49.60365" lon="5.72228">
        <ele>340.6</ele>
        <time>1970-01-01T00:33:27.000Z</time>
      </trkpt>
      <trkpt lat="49.60368" lon="5.72226">
        <ele>340.7</ele>
        <time>1970-01-01T00:33:28.000Z</time>
      </trkpt>
      <trkpt lat="49.60372" lon="5.72224">
        <ele>340.9</ele>
        <time>1970-01-01T00:33:30.000Z</time>
      </trkpt>
      <trkpt lat="49.60376" lon="5.72221">
        <ele>341.1</ele>
        <time>1970-01-01T00:33:31.000Z</time>
      </trkpt>
      <trkpt lat="49.6038" lon="5.72218">
        <ele>341.3</ele>
        <time>1970-01-01T00:33:33.000Z</time>
      </trkpt>
      <trkpt lat="49.60383" lon="5.72215">
        <ele>341.4</ele>
        <time>1970-01-01T00:33:34.000Z</time>
      </trkpt>
      <trkpt lat="49.60388" lon="5.7221">
        <ele>341.6</ele>
        <time>1970-01-01T00:33:36.000Z</time>
      </trkpt>
      <trkpt lat="49.60392" lon="5.72206">
        <ele>341.8</ele>
        <time>1970-01-01T00:33:37.000Z</time>
      </trkpt>
      <trkpt lat="49.60396" lon="5.72202">
        <ele>342</ele>
        <time>1970-01-01T00:33:39.000Z</time>
      </trkpt>
      <trkpt lat="49.60399" lon="5.72199">
        <ele>342.2</ele>
        <time>1970-01-01T00:33:40.000Z</time>
      </trkpt>
      <trkpt lat="49.60402" lon="5.72196">
        <ele>342.3</ele>
        <time>1970-01-01T00:33:41.000Z</time>
      </trkpt>
      <trkpt lat="49.60406" lon="5.72192">
        <ele>342.5</ele>
        <time>1970-01-01T00:33:43.000Z</time>
      </trkpt>
      <trkpt lat="49.6041" lon="5.72189">
        <ele>342.7</ele>
        <time>1970-01-01T00:33:44.000Z</time>
      </trkpt>
      <trkpt lat="49.60413" lon="5.72186">
        <ele>342.9</ele>
        <time>1970-01-01T00:33:46.000Z</time>
      </trkpt>
      <trkpt lat="49.60417" lon="5.7218">
        <ele>343.1</ele>
        <time>1970-01-01T00:33:47.000Z</time>
      </trkpt>
      <trkpt lat="49.60421" lon="5.72175">
        <ele>343.3</ele>
        <time>1970-01-01T00:33:49.000Z</time>
      </trkpt>
      <trkpt lat="49.60424" lon="5.72171">
        <ele>343.5</ele>
        <time>1970-01-01T00:33:50.000Z</time>
      </trkpt>
      <trkpt lat="49.60427" lon="5.72167">
        <ele>343.7</ele>
        <time>1970-01-01T00:33:52.000Z</time>
      </trkpt>
      <trkpt lat="49.60429" lon="5.72164">
        <ele>343.9</ele>
        <time>1970-01-01T00:33:53.000Z</time>
      </trkpt>
      <trkpt lat="49.60434" lon="5.72161">
        <ele>344.2</ele>
        <time>1970-01-01T00:33:55.000Z</time>
      </trkpt>
      <trkpt lat="49.60437" lon="5.72158">
        <ele>344.4</ele>
        <time>1970-01-01T00:33:56.000Z</time>
      </trkpt>
      <trkpt lat="49.60441" lon="5.72155">
        <ele>344.6</ele>
        <time>1970-01-01T00:33:57.000Z</time>
      </trkpt>
      <trkpt lat="49.60443" lon="5.72152">
        <ele>344.7</ele>
        <time>1970-01-01T00:33:59.000Z</time>
      </trkpt>
      <trkpt lat="49.60447" lon="5.72149">
        <ele>345</ele>
        <time>1970-01-01T00:34:00.000Z</time>
      </trkpt>
      <trkpt lat="49.6045" lon="5.72146">
        <ele>345.2</ele>
        <time>1970-01-01T00:34:02.000Z</time>
      </trkpt>
      <trkpt lat="49.60453" lon="5.72144">
        <ele>345.3</ele>
        <time>1970-01-01T00:34:03.000Z</time>
      </trkpt>
      <trkpt lat="49.60455" lon="5.72142">
        <ele>345.5</ele>
        <time>1970-01-01T00:34:04.000Z</time>
      </trkpt>
      <trkpt lat="49.60458" lon="5.72139">
        <ele>345.6</ele>
        <time>1970-01-01T00:34:05.000Z</time>
      </trkpt>
      <trkpt lat="49.60462" lon="5.72135">
        <ele>345.9</ele>
        <time>1970-01-01T00:34:07.000Z</time>
      </trkpt>
      <trkpt lat="49.60466" lon="5.72132">
        <ele>346.2</ele>
        <time>1970-01-01T00:34:09.000Z</time>
      </trkpt>
      <trkpt lat="49.60468" lon="5.7213">
        <ele>346.3</ele>
        <time>1970-01-01T00:34:10.000Z</time>
      </trkpt>
      <trkpt lat="49.60471" lon="5.72128">
        <ele>346.5</ele>
        <time>1970-01-01T00:34:11.000Z</time>
      </trkpt>
      <trkpt lat="49.60475" lon="5.72125">
        <ele>346.7</ele>
        <time>1970-01-01T00:34:13.000Z</time>
      </trkpt>
      <trkpt lat="49.60477" lon="5.72123">
        <ele>346.9</ele>
        <time>1970-01-01T00:34:14.000Z</time>
      </trkpt>
      <trkpt lat="49.60481" lon="5.7212">
        <ele>347.2</ele>
        <time>1970-01-01T00:34:16.000Z</time>
      </trkpt>
      <trkpt lat="49.60485" lon="5.72117">
        <ele>347.5</ele>
        <time>1970-01-01T00:34:18.000Z</time>
      </trkpt>
      <trkpt lat="49.60491" lon="5.72113">
        <ele>348</ele>
        <time>1970-01-01T00:34:21.000Z</time>
      </trkpt>
      <trkpt lat="49.60494" lon="5.72111">
        <ele>348.2</ele>
        <time>1970-01-01T00:34:22.000Z</time>
      </trkpt>
      <trkpt lat="49.605" lon="5.72106">
        <ele>348.7</ele>
        <time>1970-01-01T00:34:25.000Z</time>
      </trkpt>
      <trkpt lat="49.60503" lon="5.72104">
        <ele>349</ele>
        <time>1970-01-01T00:34:26.000Z</time>
      </trkpt>
      <trkpt lat="49.60506" lon="5.72102">
        <ele>349.3</ele>
        <time>1970-01-01T00:34:28.000Z</time>
      </trkpt>
      <trkpt lat="49.60511" lon="5.72098">
        <ele>349.8</ele>
        <time>1970-01-01T00:34:30.000Z</time>
      </trkpt>
      <trkpt lat="49.60515" lon="5.72095">
        <ele>350.2</ele>
        <time>1970-01-01T00:34:33.000Z</time>
      </trkpt>
      <trkpt lat="49.60518" lon="5.72093">
        <ele>350.5</ele>
        <time>1970-01-01T00:34:34.000Z</time>
      </trkpt>
      <trkpt lat="49.60521" lon="5.72091">
        <ele>350.8</ele>
        <time>1970-01-01T00:34:35.000Z</time>
      </trkpt>
      <trkpt lat="49.60523" lon="5.72089">
        <ele>351.2</ele>
        <time>1970-01-01T00:34:37.000Z</time>
      </trkpt>
      <trkpt lat="49.60528" lon="5.72086">
        <ele>351.7</ele>
        <time>1970-01-01T00:34:39.000Z</time>
      </trkpt>
      <trkpt lat="49.60532" lon="5.72083">
        <ele>352.2</ele>
        <time>1970-01-01T00:34:42.000Z</time>
      </trkpt>
      <trkpt lat="49.60537" lon="5.72081">
        <ele>352.9</ele>
        <time>1970-01-01T00:34:45.000Z</time>
      </trkpt>
      <trkpt lat="49.60542" lon="5.72079">
        <ele>353.5</ele>
        <time>1970-01-01T00:34:48.000Z</time>
      </trkpt>
      <trkpt lat="49.60545" lon="5.72078">
        <ele>353.8</ele>
        <time>1970-01-01T00:34:49.000Z</time>
      </trkpt>
      <trkpt lat="49.60551" lon="5.72074">
        <ele>354.6</ele>
        <time>1970-01-01T00:34:52.000Z</time>
      </trkpt>
      <trkpt lat="49.60556" lon="5.72069">
        <ele>356</ele>
        <time>1970-01-01T00:34:55.000Z</time>
      </trkpt>
      <trkpt lat="49.60559" lon="5.72068">
        <ele>356.5</ele>
        <time>1970-01-01T00:34:57.000Z</time>
      </trkpt>
      <trkpt lat="49.60561" lon="5.72069">
        <ele>356.8</ele>
        <time>1970-01-01T00:34:59.000Z</time>
      </trkpt>
      <trkpt lat="49.60561" lon="5.72074">
        <ele>357.2</ele>
        <time>1970-01-01T00:35:00.000Z</time>
      </trkpt>
      <trkpt lat="49.6056" lon="5.72082">
        <ele>357.7</ele>
        <time>1970-01-01T00:35:03.000Z</time>
      </trkpt>
      <trkpt lat="49.6056" lon="5.72086">
        <ele>358</ele>
        <time>1970-01-01T00:35:04.000Z</time>
      </trkpt>
      <trkpt lat="49.60561" lon="5.7209">
        <ele>358.3</ele>
        <time>1970-01-01T00:35:05.000Z</time>
      </trkpt>
      <trkpt lat="49.60563" lon="5.721">
        <ele>358.9</ele>
        <time>1970-01-01T00:35:08.000Z</time>
      </trkpt>
      <trkpt lat="49.60565" lon="5.72104">
        <ele>359.2</ele>
        <time>1970-01-01T00:35:09.000Z</time>
      </trkpt>
      <trkpt lat="49.60568" lon="5.72109">
        <ele>359.6</ele>
        <time>1970-01-01T00:35:11.000Z</time>
      </trkpt>
      <trkpt lat="49.6057" lon="5.72112">
        <ele>359.9</ele>
        <time>1970-01-01T00:35:12.000Z</time>
      </trkpt>
      <trkpt lat="49.60573" lon="5.72116">
        <ele>360.3</ele>
        <time>1970-01-01T00:35:13.000Z</time>
      </trkpt>
      <trkpt lat="49.60575" lon="5.72122">
        <ele>360.8</ele>
        <time>1970-01-01T00:35:15.000Z</time>
      </trkpt>
      <trkpt lat="49.60577" lon="5.72126">
        <ele>361.1</ele>
        <time>1970-01-01T00:35:16.000Z</time>
      </trkpt>
      <trkpt lat="49.60582" lon="5.72135">
        <ele>361.7</ele>
        <time>1970-01-01T00:35:19.000Z</time>
      </trkpt>
      <trkpt lat="49.60585" lon="5.7214">
        <ele>361.9</ele>
        <time>1970-01-01T00:35:21.000Z</time>
      </trkpt>
      <trkpt lat="49.60587" lon="5.72144">
        <ele>362</ele>
        <time>1970-01-01T00:35:22.000Z</time>
      </trkpt>
      <trkpt lat="49.6059" lon="5.72149">
        <ele>362.2</ele>
        <time>1970-01-01T00:35:24.000Z</time>
      </trkpt>
      <trkpt lat="49.60592" lon="5.72152">
        <ele>362.3</ele>
        <time>1970-01-01T00:35:25.000Z</time>
      </trkpt>
      <trkpt lat="49.60596" lon="5.72161">
        <ele>362.6</ele>
        <time>1970-01-01T00:35:28.000Z</time>
      </trkpt>
      <trkpt lat="49.60598" lon="5.72165">
        <ele>362.7</ele>
        <time>1970-01-01T00:35:29.000Z</time>
      </trkpt>
      <trkpt lat="49.606" lon="5.72169">
        <ele>362.9</ele>
        <time>1970-01-01T00:35:30.000Z</time>
      </trkpt>
      <trkpt lat="49.60603" lon="5.72173">
        <ele>363</ele>
        <time>1970-01-01T00:35:32.000Z</time>
      </trkpt>
      <trkpt lat="49.60606" lon="5.72177">
        <ele>363.2</ele>
        <time>1970-01-01T00:35:33.000Z</time>
      </trkpt>
      <trkpt lat="49.60609" lon="5.72184">
        <ele>363.4</ele>
        <time>1970-01-01T00:35:35.000Z</time>
      </trkpt>
      <trkpt lat="49.60612" lon="5.72191">
        <ele>363.7</ele>
        <time>1970-01-01T00:35:36.000Z</time>
      </trkpt>
      <trkpt lat="49.60615" lon="5.72195">
        <ele>363.8</ele>
        <time>1970-01-01T00:35:37.000Z</time>
      </trkpt>
      <trkpt lat="49.60621" lon="5.72201">
        <ele>364.2</ele>
        <time>1970-01-01T00:35:39.000Z</time>
      </trkpt>
      <trkpt lat="49.60622" lon="5.72205">
        <ele>364.3</ele>
        <time>1970-01-01T00:35:40.000Z</time>
      </trkpt>
      <trkpt lat="49.60624" lon="5.72212">
        <ele>364.5</ele>
        <time>1970-01-01T00:35:41.000Z</time>
      </trkpt>
      <trkpt lat="49.60626" lon="5.72217">
        <ele>364.6</ele>
        <time>1970-01-01T00:35:42.000Z</time>
      </trkpt>
      <trkpt lat="49.60628" lon="5.72221">
        <ele>364.7</ele>
        <time>1970-01-01T00:35:44.000Z</time>
      </trkpt>
      <trkpt lat="49.6063" lon="5.72226">
        <ele>364.8</ele>
        <time>1970-01-01T00:35:45.000Z</time>
      </trkpt>
      <trkpt lat="49.60632" lon="5.72231">
        <ele>364.9</ele>
        <time>1970-01-01T00:35:46.000Z</time>
      </trkpt>
      <trkpt lat="49.60634" lon="5.72237">
        <ele>365.1</ele>
        <time>1970-01-01T00:35:48.000Z</time>
      </trkpt>
      <trkpt lat="49.60636" lon="5.72242">
        <ele>365.2</ele>
        <time>1970-01-01T00:35:49.000Z</time>
      </trkpt>
      <trkpt lat="49.60639" lon="5.72247">
        <ele>365.3</ele>
        <time>1970-01-01T00:35:50.000Z</time>
      </trkpt>
      <trkpt lat="49.60642" lon="5.72256">
        <ele>365.5</ele>
        <time>1970-01-01T00:35:52.000Z</time>
      </trkpt>
      <trkpt lat="49.60643" lon="5.72261">
        <ele>365.5</ele>
        <time>1970-01-01T00:35:53.000Z</time>
      </trkpt>
      <trkpt lat="49.60645" lon="5.72266">
        <ele>365.5</ele>
        <time>1970-01-01T00:35:54.000Z</time>
      </trkpt>
      <trkpt lat="49.60646" lon="5.72272">
        <ele>365.5</ele>
        <time>1970-01-01T00:35:55.000Z</time>
      </trkpt>
      <trkpt lat="49.60648" lon="5.72276">
        <ele>365.5</ele>
        <time>1970-01-01T00:35:56.000Z</time>
      </trkpt>
      <trkpt lat="49.6065" lon="5.72282">
        <ele>365.5</ele>
        <time>1970-01-01T00:35:58.000Z</time>
      </trkpt>
      <trkpt lat="49.60652" lon="5.72288">
        <ele>365.6</ele>
        <time>1970-01-01T00:35:59.000Z</time>
      </trkpt>
      <trkpt lat="49.60653" lon="5.72292">
        <ele>365.6</ele>
        <time>1970-01-01T00:36:00.000Z</time>
      </trkpt>
      <trkpt lat="49.60655" lon="5.72297">
        <ele>365.7</ele>
        <time>1970-01-01T00:36:02.000Z</time>
      </trkpt>
      <trkpt lat="49.60657" lon="5.72302">
        <ele>365.7</ele>
        <time>1970-01-01T00:36:03.000Z</time>
      </trkpt>
      <trkpt lat="49.60659" lon="5.7231">
        <ele>365.8</ele>
        <time>1970-01-01T00:36:06.000Z</time>
      </trkpt>
      <trkpt lat="49.60661" lon="5.72317">
        <ele>365.8</ele>
        <time>1970-01-01T00:36:08.000Z</time>
      </trkpt>
      <trkpt lat="49.60663" lon="5.72322">
        <ele>365.8</ele>
        <time>1970-01-01T00:36:10.000Z</time>
      </trkpt>
      <trkpt lat="49.60664" lon="5.72326">
        <ele>365.8</ele>
        <time>1970-01-01T00:36:11.000Z</time>
      </trkpt>
      <trkpt lat="49.60668" lon="5.72333">
        <ele>365.7</ele>
        <time>1970-01-01T00:36:14.000Z</time>
      </trkpt>
      <trkpt lat="49.6067" lon="5.72337">
        <ele>365.7</ele>
        <time>1970-01-01T00:36:15.000Z</time>
      </trkpt>
      <trkpt lat="49.60673" lon="5.72342">
        <ele>365.7</ele>
        <time>1970-01-01T00:36:17.000Z</time>
      </trkpt>
      <trkpt lat="49.60675" lon="5.72346">
        <ele>365.6</ele>
        <time>1970-01-01T00:36:18.000Z</time>
      </trkpt>
      <trkpt lat="49.60678" lon="5.72352">
        <ele>365.5</ele>
        <time>1970-01-01T00:36:19.000Z</time>
      </trkpt>
      <trkpt lat="49.60681" lon="5.72356">
        <ele>365.4</ele>
        <time>1970-01-01T00:36:21.000Z</time>
      </trkpt>
      <trkpt lat="49.60684" lon="5.7236">
        <ele>365.3</ele>
        <time>1970-01-01T00:36:22.000Z</time>
      </trkpt>
      <trkpt lat="49.60689" lon="5.72367">
        <ele>365.2</ele>
        <time>1970-01-01T00:36:24.000Z</time>
      </trkpt>
      <trkpt lat="49.60692" lon="5.7237">
        <ele>365.1</ele>
        <time>1970-01-01T00:36:25.000Z</time>
      </trkpt>
      <trkpt lat="49.60697" lon="5.72374">
        <ele>365.1</ele>
        <time>1970-01-01T00:36:26.000Z</time>
      </trkpt>
      <trkpt lat="49.607" lon="5.72376">
        <ele>365.1</ele>
        <time>1970-01-01T00:36:28.000Z</time>
      </trkpt>
      <trkpt lat="49.60703" lon="5.72379">
        <ele>365.2</ele>
        <time>1970-01-01T00:36:29.000Z</time>
      </trkpt>
      <trkpt lat="49.60724" lon="5.7242">
        <ele>366</ele>
        <time>1970-01-01T00:36:32.000Z</time>
      </trkpt>
      <trkpt lat="49.60736" lon="5.72444">
        <ele>367</ele>
        <time>1970-01-01T00:36:33.000Z</time>
      </trkpt>
      <trkpt lat="49.60743" lon="5.72457">
        <ele>368.1</ele>
        <time>1970-01-01T00:36:35.000Z</time>
      </trkpt>
      <trkpt lat="49.60748" lon="5.72468">
        <ele>369.1</ele>
        <time>1970-01-01T00:36:36.000Z</time>
      </trkpt>
      <trkpt lat="49.6075" lon="5.72477">
        <ele>369.7</ele>
        <time>1970-01-01T00:36:37.000Z</time>
      </trkpt>
      <trkpt lat="49.60753" lon="5.72482">
        <ele>370</ele>
        <time>1970-01-01T00:36:38.000Z</time>
      </trkpt>
      <trkpt lat="49.60757" lon="5.72491">
        <ele>370.5</ele>
        <time>1970-01-01T00:36:40.000Z</time>
      </trkpt>
      <trkpt lat="49.60759" lon="5.72495">
        <ele>370.8</ele>
        <time>1970-01-01T00:36:41.000Z</time>
      </trkpt>
      <trkpt lat="49.60762" lon="5.72498">
        <ele>371</ele>
        <time>1970-01-01T00:36:42.000Z</time>
      </trkpt>
      <trkpt lat="49.60765" lon="5.72501">
        <ele>371.2</ele>
        <time>1970-01-01T00:36:43.000Z</time>
      </trkpt>
      <trkpt lat="49.60769" lon="5.72505">
        <ele>371.5</ele>
        <time>1970-01-01T00:36:45.000Z</time>
      </trkpt>
      <trkpt lat="49.60773" lon="5.72509">
        <ele>371.8</ele>
        <time>1970-01-01T00:36:47.000Z</time>
      </trkpt>
      <trkpt lat="49.60779" lon="5.72512">
        <ele>372</ele>
        <time>1970-01-01T00:36:49.000Z</time>
      </trkpt>
      <trkpt lat="49.60782" lon="5.72515">
        <ele>372.2</ele>
        <time>1970-01-01T00:36:50.000Z</time>
      </trkpt>
      <trkpt lat="49.60787" lon="5.72517">
        <ele>372.5</ele>
        <time>1970-01-01T00:36:52.000Z</time>
      </trkpt>
      <trkpt lat="49.60792" lon="5.7252">
        <ele>372.8</ele>
        <time>1970-01-01T00:36:53.000Z</time>
      </trkpt>
      <trkpt lat="49.60795" lon="5.72523">
        <ele>373.1</ele>
        <time>1970-01-01T00:36:54.000Z</time>
      </trkpt>
      <trkpt lat="49.60799" lon="5.72525">
        <ele>373.3</ele>
        <time>1970-01-01T00:36:55.000Z</time>
      </trkpt>
      <trkpt lat="49.60803" lon="5.72527">
        <ele>373.6</ele>
        <time>1970-01-01T00:36:57.000Z</time>
      </trkpt>
      <trkpt lat="49.60806" lon="5.72528">
        <ele>373.8</ele>
        <time>1970-01-01T00:36:58.000Z</time>
      </trkpt>
      <trkpt lat="49.60809" lon="5.72529">
        <ele>374</ele>
        <time>1970-01-01T00:36:59.000Z</time>
      </trkpt>
      <trkpt lat="49.60812" lon="5.72531">
        <ele>374.3</ele>
        <time>1970-01-01T00:37:00.000Z</time>
      </trkpt>
      <trkpt lat="49.60817" lon="5.72533">
        <ele>374.8</ele>
        <time>1970-01-01T00:37:03.000Z</time>
      </trkpt>
      <trkpt lat="49.60821" lon="5.72535">
        <ele>375.2</ele>
        <time>1970-01-01T00:37:04.000Z</time>
      </trkpt>
      <trkpt lat="49.60827" lon="5.72538">
        <ele>376</ele>
        <time>1970-01-01T00:37:07.000Z</time>
      </trkpt>
      <trkpt lat="49.6083" lon="5.7254">
        <ele>376.3</ele>
        <time>1970-01-01T00:37:08.000Z</time>
      </trkpt>
      <trkpt lat="49.60833" lon="5.72541">
        <ele>376.6</ele>
        <time>1970-01-01T00:37:09.000Z</time>
      </trkpt>
      <trkpt lat="49.60838" lon="5.72544">
        <ele>377.3</ele>
        <time>1970-01-01T00:37:12.000Z</time>
      </trkpt>
      <trkpt lat="49.60844" lon="5.72547">
        <ele>377.8</ele>
        <time>1970-01-01T00:37:15.000Z</time>
      </trkpt>
      <trkpt lat="49.60847" lon="5.7255">
        <ele>378.1</ele>
        <time>1970-01-01T00:37:16.000Z</time>
      </trkpt>
      <trkpt lat="49.60849" lon="5.72552">
        <ele>378.3</ele>
        <time>1970-01-01T00:37:17.000Z</time>
      </trkpt>
      <trkpt lat="49.60852" lon="5.72556">
        <ele>378.6</ele>
        <time>1970-01-01T00:37:19.000Z</time>
      </trkpt>
      <trkpt lat="49.60854" lon="5.7256">
        <ele>378.9</ele>
        <time>1970-01-01T00:37:20.000Z</time>
      </trkpt>
      <trkpt lat="49.60857" lon="5.72563">
        <ele>379.1</ele>
        <time>1970-01-01T00:37:21.000Z</time>
      </trkpt>
      <trkpt lat="49.60859" lon="5.72567">
        <ele>379.3</ele>
        <time>1970-01-01T00:37:22.000Z</time>
      </trkpt>
      <trkpt lat="49.60862" lon="5.7257">
        <ele>379.5</ele>
        <time>1970-01-01T00:37:23.000Z</time>
      </trkpt>
      <trkpt lat="49.60865" lon="5.72575">
        <ele>379.6</ele>
        <time>1970-01-01T00:37:24.000Z</time>
      </trkpt>
      <trkpt lat="49.60868" lon="5.72578">
        <ele>379.7</ele>
        <time>1970-01-01T00:37:25.000Z</time>
      </trkpt>
      <trkpt lat="49.60872" lon="5.72581">
        <ele>379.9</ele>
        <time>1970-01-01T00:37:27.000Z</time>
      </trkpt>
      <trkpt lat="49.60875" lon="5.72583">
        <ele>380</ele>
        <time>1970-01-01T00:37:28.000Z</time>
      </trkpt>
      <trkpt lat="49.60881" lon="5.72586">
        <ele>380.2</ele>
        <time>1970-01-01T00:37:30.000Z</time>
      </trkpt>
      <trkpt lat="49.60884" lon="5.72588">
        <ele>380.3</ele>
        <time>1970-01-01T00:37:31.000Z</time>
      </trkpt>
      <trkpt lat="49.60889" lon="5.72591">
        <ele>380.4</ele>
        <time>1970-01-01T00:37:32.000Z</time>
      </trkpt>
      <trkpt lat="49.60893" lon="5.72593">
        <ele>380.6</ele>
        <time>1970-01-01T00:37:34.000Z</time>
      </trkpt>
      <trkpt lat="49.60897" lon="5.72595">
        <ele>380.8</ele>
        <time>1970-01-01T00:37:35.000Z</time>
      </trkpt>
      <trkpt lat="49.60901" lon="5.72597">
        <ele>381</ele>
        <time>1970-01-01T00:37:36.000Z</time>
      </trkpt>
      <trkpt lat="49.60906" lon="5.72599">
        <ele>381.3</ele>
        <time>1970-01-01T00:37:38.000Z</time>
      </trkpt>
      <trkpt lat="49.60909" lon="5.72601">
        <ele>381.4</ele>
        <time>1970-01-01T00:37:39.000Z</time>
      </trkpt>
      <trkpt lat="49.60912" lon="5.72602">
        <ele>381.6</ele>
        <time>1970-01-01T00:37:41.000Z</time>
      </trkpt>
      <trkpt lat="49.60915" lon="5.72603">
        <ele>381.8</ele>
        <time>1970-01-01T00:37:42.000Z</time>
      </trkpt>
      <trkpt lat="49.60919" lon="5.72604">
        <ele>382</ele>
        <time>1970-01-01T00:37:44.000Z</time>
      </trkpt>
      <trkpt lat="49.60922" lon="5.72606">
        <ele>382.3</ele>
        <time>1970-01-01T00:37:45.000Z</time>
      </trkpt>
      <trkpt lat="49.60925" lon="5.72607">
        <ele>382.6</ele>
        <time>1970-01-01T00:37:47.000Z</time>
      </trkpt>
      <trkpt lat="49.6093" lon="5.72609">
        <ele>383</ele>
        <time>1970-01-01T00:37:49.000Z</time>
      </trkpt>
      <trkpt lat="49.60934" lon="5.7261">
        <ele>383.4</ele>
        <time>1970-01-01T00:37:51.000Z</time>
      </trkpt>
      <trkpt lat="49.60939" lon="5.72612">
        <ele>383.9</ele>
        <time>1970-01-01T00:37:53.000Z</time>
      </trkpt>
      <trkpt lat="49.60944" lon="5.72614">
        <ele>384.4</ele>
        <time>1970-01-01T00:37:56.000Z</time>
      </trkpt>
      <trkpt lat="49.6095" lon="5.72616">
        <ele>384.9</ele>
        <time>1970-01-01T00:37:59.000Z</time>
      </trkpt>
      <trkpt lat="49.60953" lon="5.72616">
        <ele>385.1</ele>
        <time>1970-01-01T00:38:00.000Z</time>
      </trkpt>
      <trkpt lat="49.60957" lon="5.72618">
        <ele>385.5</ele>
        <time>1970-01-01T00:38:02.000Z</time>
      </trkpt>
      <trkpt lat="49.60962" lon="5.72621">
        <ele>385.9</ele>
        <time>1970-01-01T00:38:04.000Z</time>
      </trkpt>
      <trkpt lat="49.60965" lon="5.72623">
        <ele>386.2</ele>
        <time>1970-01-01T00:38:05.000Z</time>
      </trkpt>
      <trkpt lat="49.60968" lon="5.72624">
        <ele>386.5</ele>
        <time>1970-01-01T00:38:07.000Z</time>
      </trkpt>
      <trkpt lat="49.60971" lon="5.72625">
        <ele>386.8</ele>
        <time>1970-01-01T00:38:08.000Z</time>
      </trkpt>
      <trkpt lat="49.60975" lon="5.72627">
        <ele>387.2</ele>
        <time>1970-01-01T00:38:10.000Z</time>
      </trkpt>
      <trkpt lat="49.60978" lon="5.72629">
        <ele>387.6</ele>
        <time>1970-01-01T00:38:11.000Z</time>
      </trkpt>
      <trkpt lat="49.60981" lon="5.7263">
        <ele>388</ele>
        <time>1970-01-01T00:38:12.000Z</time>
      </trkpt>
      <trkpt lat="49.60986" lon="5.72634">
        <ele>388.7</ele>
        <time>1970-01-01T00:38:14.000Z</time>
      </trkpt>
      <trkpt lat="49.60991" lon="5.72638">
        <ele>389.4</ele>
        <time>1970-01-01T00:38:16.000Z</time>
      </trkpt>
      <trkpt lat="49.60995" lon="5.72641">
        <ele>389.8</ele>
        <time>1970-01-01T00:38:17.000Z</time>
      </trkpt>
      <trkpt lat="49.61008" lon="5.72653">
        <ele>391</ele>
        <time>1970-01-01T00:38:18.000Z</time>
      </trkpt>
      <trkpt lat="49.6102" lon="5.72664">
        <ele>391.5</ele>
        <time>1970-01-01T00:38:19.000Z</time>
      </trkpt>
      <trkpt lat="49.61038" lon="5.72687">
        <ele>390.9</ele>
        <time>1970-01-01T00:38:21.000Z</time>
      </trkpt>
      <trkpt lat="49.61053" lon="5.72708">
        <ele>389.7</ele>
        <time>1970-01-01T00:38:23.000Z</time>
      </trkpt>
      <trkpt lat="49.61064" lon="5.72732">
        <ele>388.8</ele>
        <time>1970-01-01T00:38:25.000Z</time>
      </trkpt>
      <trkpt lat="49.61072" lon="5.72759">
        <ele>388.4</ele>
        <time>1970-01-01T00:38:27.000Z</time>
      </trkpt>
      <trkpt lat="49.6108" lon="5.72781">
        <ele>388.2</ele>
        <time>1970-01-01T00:38:29.000Z</time>
      </trkpt>
      <trkpt lat="49.61084" lon="5.7279">
        <ele>388.1</ele>
        <time>1970-01-01T00:38:30.000Z</time>
      </trkpt>
      <trkpt lat="49.61091" lon="5.72807">
        <ele>387.8</ele>
        <time>1970-01-01T00:38:32.000Z</time>
      </trkpt>
      <trkpt lat="49.611" lon="5.72821">
        <ele>386.7</ele>
        <time>1970-01-01T00:38:34.000Z</time>
      </trkpt>
      <trkpt lat="49.61107" lon="5.72834">
        <ele>385.9</ele>
        <time>1970-01-01T00:38:36.000Z</time>
      </trkpt>
      <trkpt lat="49.61112" lon="5.72845">
        <ele>385.2</ele>
        <time>1970-01-01T00:38:38.000Z</time>
      </trkpt>
      <trkpt lat="49.61117" lon="5.72859">
        <ele>384.2</ele>
        <time>1970-01-01T00:38:40.000Z</time>
      </trkpt>
      <trkpt lat="49.61119" lon="5.72866">
        <ele>382.7</ele>
        <time>1970-01-01T00:38:41.000Z</time>
      </trkpt>
      <trkpt lat="49.61117" lon="5.72881">
        <ele>382.6</ele>
        <time>1970-01-01T00:38:43.000Z</time>
      </trkpt>
      <trkpt lat="49.61109" lon="5.72894">
        <ele>382.5</ele>
        <time>1970-01-01T00:38:45.000Z</time>
      </trkpt>
      <trkpt lat="49.61099" lon="5.72905">
        <ele>382.3</ele>
        <time>1970-01-01T00:38:47.000Z</time>
      </trkpt>
      <trkpt lat="49.6109" lon="5.72919">
        <ele>382</ele>
        <time>1970-01-01T00:38:49.000Z</time>
      </trkpt>
      <trkpt lat="49.61081" lon="5.72933">
        <ele>381.6</ele>
        <time>1970-01-01T00:38:51.000Z</time>
      </trkpt>
      <trkpt lat="49.61071" lon="5.72948">
        <ele>381.2</ele>
        <time>1970-01-01T00:38:53.000Z</time>
      </trkpt>
      <trkpt lat="49.61066" lon="5.72956">
        <ele>381</ele>
        <time>1970-01-01T00:38:54.000Z</time>
      </trkpt>
      <trkpt lat="49.61065" lon="5.72976">
        <ele>380.7</ele>
        <time>1970-01-01T00:38:56.000Z</time>
      </trkpt>
      <trkpt lat="49.61068" lon="5.72983">
        <ele>381.1</ele>
        <time>1970-01-01T00:38:57.000Z</time>
      </trkpt>
      <trkpt lat="49.61073" lon="5.72986">
        <ele>381.4</ele>
        <time>1970-01-01T00:38:58.000Z</time>
      </trkpt>
      <trkpt lat="49.61084" lon="5.72987">
        <ele>381.9</ele>
        <time>1970-01-01T00:39:00.000Z</time>
      </trkpt>
      <trkpt lat="49.61096" lon="5.72988">
        <ele>382.5</ele>
        <time>1970-01-01T00:39:02.000Z</time>
      </trkpt>
      <trkpt lat="49.61108" lon="5.7299">
        <ele>383</ele>
        <time>1970-01-01T00:39:04.000Z</time>
      </trkpt>
      <trkpt lat="49.61114" lon="5.7299">
        <ele>383.3</ele>
        <time>1970-01-01T00:39:05.000Z</time>
      </trkpt>
      <trkpt lat="49.61121" lon="5.72987">
        <ele>383.6</ele>
        <time>1970-01-01T00:39:06.000Z</time>
      </trkpt>
      <trkpt lat="49.61128" lon="5.72984">
        <ele>384</ele>
        <time>1970-01-01T00:39:07.000Z</time>
      </trkpt>
      <trkpt lat="49.61139" lon="5.72979">
        <ele>384.4</ele>
        <time>1970-01-01T00:39:09.000Z</time>
      </trkpt>
      <trkpt lat="49.61151" lon="5.7297">
        <ele>384.9</ele>
        <time>1970-01-01T00:39:11.000Z</time>
      </trkpt>
      <trkpt lat="49.61162" lon="5.7296">
        <ele>385.5</ele>
        <time>1970-01-01T00:39:13.000Z</time>
      </trkpt>
      <trkpt lat="49.61168" lon="5.72957">
        <ele>385.8</ele>
        <time>1970-01-01T00:39:14.000Z</time>
      </trkpt>
      <trkpt lat="49.61181" lon="5.72952">
        <ele>386.6</ele>
        <time>1970-01-01T00:39:16.000Z</time>
      </trkpt>
      <trkpt lat="49.61195" lon="5.72948">
        <ele>387.1</ele>
        <time>1970-01-01T00:39:18.000Z</time>
      </trkpt>
      <trkpt lat="49.61206" lon="5.72951">
        <ele>387.1</ele>
        <time>1970-01-01T00:39:20.000Z</time>
      </trkpt>
      <trkpt lat="49.61216" lon="5.72955">
        <ele>387</ele>
        <time>1970-01-01T00:39:22.000Z</time>
      </trkpt>
      <trkpt lat="49.61222" lon="5.72957">
        <ele>386.9</ele>
        <time>1970-01-01T00:39:23.000Z</time>
      </trkpt>
      <trkpt lat="49.61231" lon="5.72959">
        <ele>387</ele>
        <time>1970-01-01T00:39:25.000Z</time>
      </trkpt>
      <trkpt lat="49.61234" lon="5.72961">
        <ele>387</ele>
        <time>1970-01-01T00:39:26.000Z</time>
      </trkpt>
      <trkpt lat="49.61243" lon="5.72965">
        <ele>387.1</ele>
        <time>1970-01-01T00:39:28.000Z</time>
      </trkpt>
      <trkpt lat="49.61247" lon="5.72967">
        <ele>387.3</ele>
        <time>1970-01-01T00:39:29.000Z</time>
      </trkpt>
      <trkpt lat="49.61255" lon="5.72969">
        <ele>387.5</ele>
        <time>1970-01-01T00:39:31.000Z</time>
      </trkpt>
      <trkpt lat="49.61263" lon="5.7297">
        <ele>387.7</ele>
        <time>1970-01-01T00:39:33.000Z</time>
      </trkpt>
      <trkpt lat="49.61267" lon="5.72972">
        <ele>387.8</ele>
        <time>1970-01-01T00:39:35.000Z</time>
      </trkpt>
      <trkpt lat="49.61272" lon="5.72974">
        <ele>387.9</ele>
        <time>1970-01-01T00:39:38.000Z</time>
      </trkpt>
      <trkpt lat="49.61275" lon="5.72974">
        <ele>388</ele>
        <time>1970-01-01T00:39:39.000Z</time>
      </trkpt>
      <trkpt lat="49.61278" lon="5.72975">
        <ele>388.1</ele>
        <time>1970-01-01T00:39:40.000Z</time>
      </trkpt>
      <trkpt lat="49.61282" lon="5.72976">
        <ele>388.2</ele>
        <time>1970-01-01T00:39:41.000Z</time>
      </trkpt>
      <trkpt lat="49.61287" lon="5.72976">
        <ele>388.4</ele>
        <time>1970-01-01T00:39:42.000Z</time>
      </trkpt>
      <trkpt lat="49.61296" lon="5.72977">
        <ele>388.7</ele>
        <time>1970-01-01T00:39:44.000Z</time>
      </trkpt>
      <trkpt lat="49.61302" lon="5.72978">
        <ele>388.9</ele>
        <time>1970-01-01T00:39:45.000Z</time>
      </trkpt>
      <trkpt lat="49.61307" lon="5.72979">
        <ele>389</ele>
        <time>1970-01-01T00:39:46.000Z</time>
      </trkpt>
      <trkpt lat="49.61314" lon="5.72981">
        <ele>389.3</ele>
        <time>1970-01-01T00:39:48.000Z</time>
      </trkpt>
      <trkpt lat="49.61317" lon="5.72981">
        <ele>389.4</ele>
        <time>1970-01-01T00:39:49.000Z</time>
      </trkpt>
      <trkpt lat="49.61321" lon="5.72982">
        <ele>389.5</ele>
        <time>1970-01-01T00:39:50.000Z</time>
      </trkpt>
      <trkpt lat="49.61327" lon="5.72981">
        <ele>389.8</ele>
        <time>1970-01-01T00:39:52.000Z</time>
      </trkpt>
      <trkpt lat="49.61333" lon="5.72979">
        <ele>390</ele>
        <time>1970-01-01T00:39:55.000Z</time>
      </trkpt>
      <trkpt lat="49.61336" lon="5.7298">
        <ele>390.2</ele>
        <time>1970-01-01T00:39:56.000Z</time>
      </trkpt>
      <trkpt lat="49.61342" lon="5.72982">
        <ele>390.4</ele>
        <time>1970-01-01T00:39:58.000Z</time>
      </trkpt>
      <trkpt lat="49.61346" lon="5.72983">
        <ele>390.6</ele>
        <time>1970-01-01T00:39:59.000Z</time>
      </trkpt>
      <trkpt lat="49.61349" lon="5.72984">
        <ele>390.7</ele>
        <time>1970-01-01T00:40:00.000Z</time>
      </trkpt>
      <trkpt lat="49.61353" lon="5.72985">
        <ele>390.9</ele>
        <time>1970-01-01T00:40:01.000Z</time>
      </trkpt>
      <trkpt lat="49.61357" lon="5.72987">
        <ele>391</ele>
        <time>1970-01-01T00:40:03.000Z</time>
      </trkpt>
      <trkpt lat="49.61363" lon="5.72988">
        <ele>391.2</ele>
        <time>1970-01-01T00:40:04.000Z</time>
      </trkpt>
      <trkpt lat="49.61368" lon="5.7299">
        <ele>391.3</ele>
        <time>1970-01-01T00:40:06.000Z</time>
      </trkpt>
      <trkpt lat="49.61371" lon="5.7299">
        <ele>391.4</ele>
        <time>1970-01-01T00:40:07.000Z</time>
      </trkpt>
      <trkpt lat="49.61376" lon="5.72991">
        <ele>391.5</ele>
        <time>1970-01-01T00:40:09.000Z</time>
      </trkpt>
      <trkpt lat="49.6138" lon="5.72993">
        <ele>391.6</ele>
        <time>1970-01-01T00:40:10.000Z</time>
      </trkpt>
      <trkpt lat="49.61384" lon="5.72995">
        <ele>391.6</ele>
        <time>1970-01-01T00:40:12.000Z</time>
      </trkpt>
      <trkpt lat="49.61388" lon="5.72996">
        <ele>391.7</ele>
        <time>1970-01-01T00:40:13.000Z</time>
      </trkpt>
      <trkpt lat="49.61396" lon="5.72999">
        <ele>391.8</ele>
        <time>1970-01-01T00:40:16.000Z</time>
      </trkpt>
      <trkpt lat="49.614" lon="5.73">
        <ele>391.8</ele>
        <time>1970-01-01T00:40:17.000Z</time>
      </trkpt>
      <trkpt lat="49.61406" lon="5.73001">
        <ele>391.9</ele>
        <time>1970-01-01T00:40:19.000Z</time>
      </trkpt>
      <trkpt lat="49.61409" lon="5.73002">
        <ele>391.9</ele>
        <time>1970-01-01T00:40:20.000Z</time>
      </trkpt>
      <trkpt lat="49.61413" lon="5.73003">
        <ele>391.9</ele>
        <time>1970-01-01T00:40:21.000Z</time>
      </trkpt>
      <trkpt lat="49.61416" lon="5.73004">
        <ele>392</ele>
        <time>1970-01-01T00:40:22.000Z</time>
      </trkpt>
      <trkpt lat="49.61419" lon="5.73005">
        <ele>392</ele>
        <time>1970-01-01T00:40:23.000Z</time>
      </trkpt>
      <trkpt lat="49.61425" lon="5.73006">
        <ele>392</ele>
        <time>1970-01-01T00:40:25.000Z</time>
      </trkpt>
      <trkpt lat="49.6143" lon="5.73006">
        <ele>392</ele>
        <time>1970-01-01T00:40:26.000Z</time>
      </trkpt>
      <trkpt lat="49.61435" lon="5.73007">
        <ele>392</ele>
        <time>1970-01-01T00:40:27.000Z</time>
      </trkpt>
      <trkpt lat="49.61443" lon="5.73009">
        <ele>391.9</ele>
        <time>1970-01-01T00:40:29.000Z</time>
      </trkpt>
      <trkpt lat="49.61449" lon="5.7301">
        <ele>391.9</ele>
        <time>1970-01-01T00:40:30.000Z</time>
      </trkpt>
      <trkpt lat="49.61454" lon="5.73011">
        <ele>391.7</ele>
        <time>1970-01-01T00:40:32.000Z</time>
      </trkpt>
      <trkpt lat="49.61459" lon="5.73013">
        <ele>391.6</ele>
        <time>1970-01-01T00:40:33.000Z</time>
      </trkpt>
      <trkpt lat="49.61465" lon="5.73016">
        <ele>391.4</ele>
        <time>1970-01-01T00:40:34.000Z</time>
      </trkpt>
      <trkpt lat="49.61475" lon="5.7302">
        <ele>391.1</ele>
        <time>1970-01-01T00:40:36.000Z</time>
      </trkpt>
      <trkpt lat="49.61485" lon="5.73026">
        <ele>390.7</ele>
        <time>1970-01-01T00:40:38.000Z</time>
      </trkpt>
      <trkpt lat="49.61494" lon="5.73034">
        <ele>390</ele>
        <time>1970-01-01T00:40:40.000Z</time>
      </trkpt>
      <trkpt lat="49.61498" lon="5.73038">
        <ele>389.7</ele>
        <time>1970-01-01T00:40:41.000Z</time>
      </trkpt>
      <trkpt lat="49.61503" lon="5.73043">
        <ele>389.3</ele>
        <time>1970-01-01T00:40:42.000Z</time>
      </trkpt>
      <trkpt lat="49.61513" lon="5.73059">
        <ele>388.4</ele>
        <time>1970-01-01T00:40:44.000Z</time>
      </trkpt>
      <trkpt lat="49.61519" lon="5.73067">
        <ele>388</ele>
        <time>1970-01-01T00:40:45.000Z</time>
      </trkpt>
      <trkpt lat="49.61529" lon="5.73083">
        <ele>387.4</ele>
        <time>1970-01-01T00:40:47.000Z</time>
      </trkpt>
      <trkpt lat="49.6154" lon="5.73098">
        <ele>387</ele>
        <time>1970-01-01T00:40:49.000Z</time>
      </trkpt>
      <trkpt lat="49.61551" lon="5.73112">
        <ele>386.8</ele>
        <time>1970-01-01T00:40:51.000Z</time>
      </trkpt>
      <trkpt lat="49.61563" lon="5.7312">
        <ele>386.8</ele>
        <time>1970-01-01T00:40:53.000Z</time>
      </trkpt>
      <trkpt lat="49.61568" lon="5.73123">
        <ele>386.9</ele>
        <time>1970-01-01T00:40:54.000Z</time>
      </trkpt>
      <trkpt lat="49.61573" lon="5.73127">
        <ele>387</ele>
        <time>1970-01-01T00:40:55.000Z</time>
      </trkpt>
      <trkpt lat="49.61582" lon="5.73131">
        <ele>387.2</ele>
        <time>1970-01-01T00:40:57.000Z</time>
      </trkpt>
      <trkpt lat="49.6159" lon="5.73135">
        <ele>387.3</ele>
        <time>1970-01-01T00:40:59.000Z</time>
      </trkpt>
      <trkpt lat="49.61598" lon="5.73139">
        <ele>387.4</ele>
        <time>1970-01-01T00:41:01.000Z</time>
      </trkpt>
      <trkpt lat="49.61605" lon="5.73144">
        <ele>387.4</ele>
        <time>1970-01-01T00:41:03.000Z</time>
      </trkpt>
      <trkpt lat="49.61612" lon="5.73148">
        <ele>387.5</ele>
        <time>1970-01-01T00:41:05.000Z</time>
      </trkpt>
      <trkpt lat="49.61616" lon="5.73147">
        <ele>387.6</ele>
        <time>1970-01-01T00:41:06.000Z</time>
      </trkpt>
      <trkpt lat="49.6162" lon="5.73149">
        <ele>387.7</ele>
        <time>1970-01-01T00:41:08.000Z</time>
      </trkpt>
      <trkpt lat="49.61625" lon="5.73155">
        <ele>387.8</ele>
        <time>1970-01-01T00:41:09.000Z</time>
      </trkpt>
      <trkpt lat="49.61631" lon="5.7316">
        <ele>388</ele>
        <time>1970-01-01T00:41:11.000Z</time>
      </trkpt>
      <trkpt lat="49.61634" lon="5.73163">
        <ele>388.1</ele>
        <time>1970-01-01T00:41:12.000Z</time>
      </trkpt>
      <trkpt lat="49.61637" lon="5.73166">
        <ele>388.2</ele>
        <time>1970-01-01T00:41:13.000Z</time>
      </trkpt>
      <trkpt lat="49.61641" lon="5.73169">
        <ele>388.4</ele>
        <time>1970-01-01T00:41:14.000Z</time>
      </trkpt>
      <trkpt lat="49.61644" lon="5.73172">
        <ele>388.5</ele>
        <time>1970-01-01T00:41:16.000Z</time>
      </trkpt>
      <trkpt lat="49.61647" lon="5.73175">
        <ele>388.6</ele>
        <time>1970-01-01T00:41:17.000Z</time>
      </trkpt>
      <trkpt lat="49.6165" lon="5.73178">
        <ele>388.8</ele>
        <time>1970-01-01T00:41:18.000Z</time>
      </trkpt>
      <trkpt lat="49.61653" lon="5.73182">
        <ele>389</ele>
        <time>1970-01-01T00:41:19.000Z</time>
      </trkpt>
      <trkpt lat="49.61657" lon="5.73186">
        <ele>389.2</ele>
        <time>1970-01-01T00:41:21.000Z</time>
      </trkpt>
      <trkpt lat="49.61661" lon="5.73188">
        <ele>389.4</ele>
        <time>1970-01-01T00:41:22.000Z</time>
      </trkpt>
      <trkpt lat="49.61666" lon="5.73192">
        <ele>389.6</ele>
        <time>1970-01-01T00:41:25.000Z</time>
      </trkpt>
      <trkpt lat="49.61669" lon="5.73194">
        <ele>389.7</ele>
        <time>1970-01-01T00:41:26.000Z</time>
      </trkpt>
      <trkpt lat="49.61673" lon="5.73202">
        <ele>389.9</ele>
        <time>1970-01-01T00:41:28.000Z</time>
      </trkpt>
      <trkpt lat="49.61677" lon="5.73208">
        <ele>390.1</ele>
        <time>1970-01-01T00:41:30.000Z</time>
      </trkpt>
      <trkpt lat="49.61681" lon="5.73214">
        <ele>390.3</ele>
        <time>1970-01-01T00:41:31.000Z</time>
      </trkpt>
      <trkpt lat="49.61685" lon="5.73223">
        <ele>390.5</ele>
        <time>1970-01-01T00:41:33.000Z</time>
      </trkpt>
      <trkpt lat="49.61689" lon="5.73227">
        <ele>390.7</ele>
        <time>1970-01-01T00:41:34.000Z</time>
      </trkpt>
      <trkpt lat="49.61693" lon="5.73234">
        <ele>390.9</ele>
        <time>1970-01-01T00:41:36.000Z</time>
      </trkpt>
      <trkpt lat="49.61696" lon="5.7324">
        <ele>391.1</ele>
        <time>1970-01-01T00:41:37.000Z</time>
      </trkpt>
      <trkpt lat="49.61699" lon="5.73245">
        <ele>391.2</ele>
        <time>1970-01-01T00:41:38.000Z</time>
      </trkpt>
      <trkpt lat="49.61704" lon="5.73254">
        <ele>391.4</ele>
        <time>1970-01-01T00:41:40.000Z</time>
      </trkpt>
      <trkpt lat="49.6171" lon="5.73263">
        <ele>391.6</ele>
        <time>1970-01-01T00:41:42.000Z</time>
      </trkpt>
      <trkpt lat="49.61714" lon="5.73269">
        <ele>391.8</ele>
        <time>1970-01-01T00:41:44.000Z</time>
      </trkpt>
      <trkpt lat="49.61717" lon="5.73274">
        <ele>391.9</ele>
        <time>1970-01-01T00:41:45.000Z</time>
      </trkpt>
      <trkpt lat="49.61721" lon="5.7328">
        <ele>392</ele>
        <time>1970-01-01T00:41:46.000Z</time>
      </trkpt>
      <trkpt lat="49.61724" lon="5.73286">
        <ele>392.1</ele>
        <time>1970-01-01T00:41:47.000Z</time>
      </trkpt>
      <trkpt lat="49.61728" lon="5.73292">
        <ele>392.1</ele>
        <time>1970-01-01T00:41:49.000Z</time>
      </trkpt>
      <trkpt lat="49.61731" lon="5.73298">
        <ele>392</ele>
        <time>1970-01-01T00:41:50.000Z</time>
      </trkpt>
      <trkpt lat="49.61736" lon="5.73306">
        <ele>392</ele>
        <time>1970-01-01T00:41:52.000Z</time>
      </trkpt>
      <trkpt lat="49.61738" lon="5.73313">
        <ele>391.9</ele>
        <time>1970-01-01T00:41:53.000Z</time>
      </trkpt>
      <trkpt lat="49.6174" lon="5.7332">
        <ele>391.8</ele>
        <time>1970-01-01T00:41:55.000Z</time>
      </trkpt>
      <trkpt lat="49.61742" lon="5.73327">
        <ele>391.8</ele>
        <time>1970-01-01T00:41:56.000Z</time>
      </trkpt>
      <trkpt lat="49.61745" lon="5.73333">
        <ele>391.7</ele>
        <time>1970-01-01T00:41:58.000Z</time>
      </trkpt>
      <trkpt lat="49.61754" lon="5.73347">
        <ele>391.5</ele>
        <time>1970-01-01T00:41:59.000Z</time>
      </trkpt>
      <trkpt lat="49.61761" lon="5.73361">
        <ele>391.4</ele>
        <time>1970-01-01T00:42:01.000Z</time>
      </trkpt>
      <trkpt lat="49.61768" lon="5.73376">
        <ele>391.4</ele>
        <time>1970-01-01T00:42:03.000Z</time>
      </trkpt>
      <trkpt lat="49.61776" lon="5.73389">
        <ele>391.4</ele>
        <time>1970-01-01T00:42:05.000Z</time>
      </trkpt>
      <trkpt lat="49.61779" lon="5.73396">
        <ele>391.4</ele>
        <time>1970-01-01T00:42:06.000Z</time>
      </trkpt>
      <trkpt lat="49.61781" lon="5.73399">
        <ele>391.5</ele>
        <time>1970-01-01T00:42:07.000Z</time>
      </trkpt>
      <trkpt lat="49.61787" lon="5.73411">
        <ele>391.5</ele>
        <time>1970-01-01T00:42:09.000Z</time>
      </trkpt>
      <trkpt lat="49.61791" lon="5.7342">
        <ele>391.5</ele>
        <time>1970-01-01T00:42:11.000Z</time>
      </trkpt>
      <trkpt lat="49.61791" lon="5.73426">
        <ele>391.5</ele>
        <time>1970-01-01T00:42:12.000Z</time>
      </trkpt>
      <trkpt lat="49.61795" lon="5.73435">
        <ele>391.6</ele>
        <time>1970-01-01T00:42:14.000Z</time>
      </trkpt>
      <trkpt lat="49.61798" lon="5.73443">
        <ele>391.6</ele>
        <time>1970-01-01T00:42:15.000Z</time>
      </trkpt>
      <trkpt lat="49.61802" lon="5.73454">
        <ele>391.7</ele>
        <time>1970-01-01T00:42:17.000Z</time>
      </trkpt>
      <trkpt lat="49.61805" lon="5.73464">
        <ele>391.7</ele>
        <time>1970-01-01T00:42:18.000Z</time>
      </trkpt>
      <trkpt lat="49.61808" lon="5.73472">
        <ele>391.7</ele>
        <time>1970-01-01T00:42:19.000Z</time>
      </trkpt>
      <trkpt lat="49.61811" lon="5.73483">
        <ele>391.7</ele>
        <time>1970-01-01T00:42:21.000Z</time>
      </trkpt>
      <trkpt lat="49.61813" lon="5.73493">
        <ele>391.8</ele>
        <time>1970-01-01T00:42:22.000Z</time>
      </trkpt>
      <trkpt lat="49.61815" lon="5.73501">
        <ele>391.8</ele>
        <time>1970-01-01T00:42:23.000Z</time>
      </trkpt>
      <trkpt lat="49.6182" lon="5.73517">
        <ele>392.1</ele>
        <time>1970-01-01T00:42:25.000Z</time>
      </trkpt>
      <trkpt lat="49.61825" lon="5.73534">
        <ele>392.4</ele>
        <time>1970-01-01T00:42:27.000Z</time>
      </trkpt>
      <trkpt lat="49.61829" lon="5.7355">
        <ele>392.6</ele>
        <time>1970-01-01T00:42:29.000Z</time>
      </trkpt>
      <trkpt lat="49.61833" lon="5.73566">
        <ele>392.7</ele>
        <time>1970-01-01T00:42:31.000Z</time>
      </trkpt>
      <trkpt lat="49.61838" lon="5.73581">
        <ele>392.8</ele>
        <time>1970-01-01T00:42:33.000Z</time>
      </trkpt>
      <trkpt lat="49.6184" lon="5.73589">
        <ele>392.9</ele>
        <time>1970-01-01T00:42:34.000Z</time>
      </trkpt>
      <trkpt lat="49.61843" lon="5.73596">
        <ele>393</ele>
        <time>1970-01-01T00:42:35.000Z</time>
      </trkpt>
      <trkpt lat="49.61848" lon="5.73611">
        <ele>393.2</ele>
        <time>1970-01-01T00:42:37.000Z</time>
      </trkpt>
      <trkpt lat="49.61851" lon="5.73617">
        <ele>393.3</ele>
        <time>1970-01-01T00:42:38.000Z</time>
      </trkpt>
      <trkpt lat="49.61854" lon="5.73624">
        <ele>393.3</ele>
        <time>1970-01-01T00:42:39.000Z</time>
      </trkpt>
      <trkpt lat="49.61861" lon="5.73637">
        <ele>393.4</ele>
        <time>1970-01-01T00:42:41.000Z</time>
      </trkpt>
      <trkpt lat="49.61867" lon="5.7365">
        <ele>393.6</ele>
        <time>1970-01-01T00:42:43.000Z</time>
      </trkpt>
      <trkpt lat="49.61874" lon="5.73663">
        <ele>393.8</ele>
        <time>1970-01-01T00:42:45.000Z</time>
      </trkpt>
      <trkpt lat="49.61881" lon="5.73675">
        <ele>393.9</ele>
        <time>1970-01-01T00:42:47.000Z</time>
      </trkpt>
      <trkpt lat="49.61884" lon="5.73681">
        <ele>394</ele>
        <time>1970-01-01T00:42:48.000Z</time>
      </trkpt>
      <trkpt lat="49.6189" lon="5.73693">
        <ele>394.1</ele>
        <time>1970-01-01T00:42:50.000Z</time>
      </trkpt>
      <trkpt lat="49.61896" lon="5.73706">
        <ele>394.2</ele>
        <time>1970-01-01T00:42:52.000Z</time>
      </trkpt>
      <trkpt lat="49.61899" lon="5.73712">
        <ele>394.3</ele>
        <time>1970-01-01T00:42:53.000Z</time>
      </trkpt>
      <trkpt lat="49.61902" lon="5.73719">
        <ele>394.4</ele>
        <time>1970-01-01T00:42:54.000Z</time>
      </trkpt>
      <trkpt lat="49.61909" lon="5.7373">
        <ele>394.6</ele>
        <time>1970-01-01T00:42:56.000Z</time>
      </trkpt>
      <trkpt lat="49.61912" lon="5.73736">
        <ele>394.7</ele>
        <time>1970-01-01T00:42:57.000Z</time>
      </trkpt>
      <trkpt lat="49.61918" lon="5.73748">
        <ele>394.8</ele>
        <time>1970-01-01T00:42:59.000Z</time>
      </trkpt>
      <trkpt lat="49.61922" lon="5.73754">
        <ele>394.9</ele>
        <time>1970-01-01T00:43:00.000Z</time>
      </trkpt>
      <trkpt lat="49.61928" lon="5.73766">
        <ele>394.9</ele>
        <time>1970-01-01T00:43:02.000Z</time>
      </trkpt>
      <trkpt lat="49.61933" lon="5.7378">
        <ele>394.8</ele>
        <time>1970-01-01T00:43:04.000Z</time>
      </trkpt>
      <trkpt lat="49.61936" lon="5.73787">
        <ele>394.7</ele>
        <time>1970-01-01T00:43:05.000Z</time>
      </trkpt>
      <trkpt lat="49.61939" lon="5.73794">
        <ele>394.7</ele>
        <time>1970-01-01T00:43:06.000Z</time>
      </trkpt>
      <trkpt lat="49.61945" lon="5.73809">
        <ele>394.5</ele>
        <time>1970-01-01T00:43:08.000Z</time>
      </trkpt>
      <trkpt lat="49.61951" lon="5.73826">
        <ele>394.4</ele>
        <time>1970-01-01T00:43:10.000Z</time>
      </trkpt>
      <trkpt lat="49.61954" lon="5.73835">
        <ele>394.2</ele>
        <time>1970-01-01T00:43:11.000Z</time>
      </trkpt>
      <trkpt lat="49.61958" lon="5.73843">
        <ele>394.1</ele>
        <time>1970-01-01T00:43:12.000Z</time>
      </trkpt>
      <trkpt lat="49.61963" lon="5.7386">
        <ele>393.8</ele>
        <time>1970-01-01T00:43:14.000Z</time>
      </trkpt>
      <trkpt lat="49.61969" lon="5.73879">
        <ele>393.3</ele>
        <time>1970-01-01T00:43:16.000Z</time>
      </trkpt>
      <trkpt lat="49.61972" lon="5.73889">
        <ele>393.1</ele>
        <time>1970-01-01T00:43:17.000Z</time>
      </trkpt>
      <trkpt lat="49.61978" lon="5.7391">
        <ele>392.6</ele>
        <time>1970-01-01T00:43:19.000Z</time>
      </trkpt>
      <trkpt lat="49.61982" lon="5.7392">
        <ele>392.4</ele>
        <time>1970-01-01T00:43:20.000Z</time>
      </trkpt>
      <trkpt lat="49.61989" lon="5.7394">
        <ele>391.9</ele>
        <time>1970-01-01T00:43:22.000Z</time>
      </trkpt>
      <trkpt lat="49.61994" lon="5.73962">
        <ele>391.5</ele>
        <time>1970-01-01T00:43:24.000Z</time>
      </trkpt>
      <trkpt lat="49.61997" lon="5.73972">
        <ele>391.3</ele>
        <time>1970-01-01T00:43:25.000Z</time>
      </trkpt>
      <trkpt lat="49.62" lon="5.73983">
        <ele>391.2</ele>
        <time>1970-01-01T00:43:26.000Z</time>
      </trkpt>
      <trkpt lat="49.62006" lon="5.74005">
        <ele>390.8</ele>
        <time>1970-01-01T00:43:28.000Z</time>
      </trkpt>
      <trkpt lat="49.6201" lon="5.74026">
        <ele>390.6</ele>
        <time>1970-01-01T00:43:30.000Z</time>
      </trkpt>
      <trkpt lat="49.62016" lon="5.74047">
        <ele>390.3</ele>
        <time>1970-01-01T00:43:32.000Z</time>
      </trkpt>
      <trkpt lat="49.62022" lon="5.74068">
        <ele>390.1</ele>
        <time>1970-01-01T00:43:34.000Z</time>
      </trkpt>
      <trkpt lat="49.62025" lon="5.74078">
        <ele>390</ele>
        <time>1970-01-01T00:43:35.000Z</time>
      </trkpt>
      <trkpt lat="49.62027" lon="5.74089">
        <ele>390</ele>
        <time>1970-01-01T00:43:36.000Z</time>
      </trkpt>
      <trkpt lat="49.62033" lon="5.74109">
        <ele>389.8</ele>
        <time>1970-01-01T00:43:38.000Z</time>
      </trkpt>
      <trkpt lat="49.62036" lon="5.74119">
        <ele>389.6</ele>
        <time>1970-01-01T00:43:39.000Z</time>
      </trkpt>
      <trkpt lat="49.62039" lon="5.74129">
        <ele>389.6</ele>
        <time>1970-01-01T00:43:40.000Z</time>
      </trkpt>
      <trkpt lat="49.62045" lon="5.7415">
        <ele>389.6</ele>
        <time>1970-01-01T00:43:42.000Z</time>
      </trkpt>
      <trkpt lat="49.6205" lon="5.7417">
        <ele>389.5</ele>
        <time>1970-01-01T00:43:44.000Z</time>
      </trkpt>
      <trkpt lat="49.62055" lon="5.7419">
        <ele>389.3</ele>
        <time>1970-01-01T00:43:46.000Z</time>
      </trkpt>
      <trkpt lat="49.62057" lon="5.742">
        <ele>389.3</ele>
        <time>1970-01-01T00:43:47.000Z</time>
      </trkpt>
      <trkpt lat="49.62063" lon="5.74219">
        <ele>389.3</ele>
        <time>1970-01-01T00:43:49.000Z</time>
      </trkpt>
      <trkpt lat="49.62066" lon="5.74229">
        <ele>389.3</ele>
        <time>1970-01-01T00:43:50.000Z</time>
      </trkpt>
      <trkpt lat="49.62071" lon="5.74248">
        <ele>389.2</ele>
        <time>1970-01-01T00:43:52.000Z</time>
      </trkpt>
      <trkpt lat="49.62077" lon="5.74266">
        <ele>389.2</ele>
        <time>1970-01-01T00:43:54.000Z</time>
      </trkpt>
      <trkpt lat="49.62079" lon="5.74276">
        <ele>389.2</ele>
        <time>1970-01-01T00:43:55.000Z</time>
      </trkpt>
      <trkpt lat="49.62083" lon="5.74296">
        <ele>389.4</ele>
        <time>1970-01-01T00:43:57.000Z</time>
      </trkpt>
      <trkpt lat="49.62088" lon="5.74313">
        <ele>389.4</ele>
        <time>1970-01-01T00:43:59.000Z</time>
      </trkpt>
      <trkpt lat="49.62091" lon="5.74322">
        <ele>389.5</ele>
        <time>1970-01-01T00:44:00.000Z</time>
      </trkpt>
      <trkpt lat="49.62093" lon="5.74331">
        <ele>389.5</ele>
        <time>1970-01-01T00:44:01.000Z</time>
      </trkpt>
      <trkpt lat="49.62098" lon="5.74349">
        <ele>389.6</ele>
        <time>1970-01-01T00:44:03.000Z</time>
      </trkpt>
      <trkpt lat="49.62104" lon="5.74366">
        <ele>389.7</ele>
        <time>1970-01-01T00:44:05.000Z</time>
      </trkpt>
      <trkpt lat="49.62108" lon="5.74383">
        <ele>389.8</ele>
        <time>1970-01-01T00:44:07.000Z</time>
      </trkpt>
      <trkpt lat="49.6211" lon="5.74392">
        <ele>389.8</ele>
        <time>1970-01-01T00:44:08.000Z</time>
      </trkpt>
      <trkpt lat="49.62113" lon="5.74401">
        <ele>389.9</ele>
        <time>1970-01-01T00:44:09.000Z</time>
      </trkpt>
      <trkpt lat="49.62115" lon="5.74409">
        <ele>389.9</ele>
        <time>1970-01-01T00:44:10.000Z</time>
      </trkpt>
      <trkpt lat="49.6212" lon="5.74426">
        <ele>389.6</ele>
        <time>1970-01-01T00:44:12.000Z</time>
      </trkpt>
      <trkpt lat="49.62124" lon="5.74443">
        <ele>389.3</ele>
        <time>1970-01-01T00:44:14.000Z</time>
      </trkpt>
      <trkpt lat="49.62126" lon="5.74452">
        <ele>389.3</ele>
        <time>1970-01-01T00:44:15.000Z</time>
      </trkpt>
      <trkpt lat="49.62132" lon="5.74468">
        <ele>389.4</ele>
        <time>1970-01-01T00:44:17.000Z</time>
      </trkpt>
      <trkpt lat="49.62136" lon="5.74485">
        <ele>389.6</ele>
        <time>1970-01-01T00:44:19.000Z</time>
      </trkpt>
      <trkpt lat="49.62138" lon="5.74494">
        <ele>389.7</ele>
        <time>1970-01-01T00:44:20.000Z</time>
      </trkpt>
      <trkpt lat="49.62142" lon="5.74511">
        <ele>389.8</ele>
        <time>1970-01-01T00:44:22.000Z</time>
      </trkpt>
      <trkpt lat="49.62146" lon="5.74527">
        <ele>389.9</ele>
        <time>1970-01-01T00:44:24.000Z</time>
      </trkpt>
      <trkpt lat="49.6215" lon="5.74543">
        <ele>390.1</ele>
        <time>1970-01-01T00:44:26.000Z</time>
      </trkpt>
      <trkpt lat="49.62152" lon="5.7456">
        <ele>390.2</ele>
        <time>1970-01-01T00:44:28.000Z</time>
      </trkpt>
      <trkpt lat="49.62156" lon="5.74576">
        <ele>390.3</ele>
        <time>1970-01-01T00:44:30.000Z</time>
      </trkpt>
      <trkpt lat="49.62158" lon="5.74584">
        <ele>390.4</ele>
        <time>1970-01-01T00:44:31.000Z</time>
      </trkpt>
      <trkpt lat="49.62159" lon="5.74592">
        <ele>390.4</ele>
        <time>1970-01-01T00:44:32.000Z</time>
      </trkpt>
      <trkpt lat="49.62161" lon="5.746">
        <ele>390.4</ele>
        <time>1970-01-01T00:44:33.000Z</time>
      </trkpt>
      <trkpt lat="49.62165" lon="5.74616">
        <ele>390.5</ele>
        <time>1970-01-01T00:44:35.000Z</time>
      </trkpt>
      <trkpt lat="49.62167" lon="5.74624">
        <ele>390.6</ele>
        <time>1970-01-01T00:44:36.000Z</time>
      </trkpt>
      <trkpt lat="49.62168" lon="5.74632">
        <ele>390.7</ele>
        <time>1970-01-01T00:44:37.000Z</time>
      </trkpt>
      <trkpt lat="49.62172" lon="5.74648">
        <ele>390.9</ele>
        <time>1970-01-01T00:44:39.000Z</time>
      </trkpt>
      <trkpt lat="49.62175" lon="5.74664">
        <ele>391</ele>
        <time>1970-01-01T00:44:41.000Z</time>
      </trkpt>
      <trkpt lat="49.62177" lon="5.74681">
        <ele>391.1</ele>
        <time>1970-01-01T00:44:43.000Z</time>
      </trkpt>
      <trkpt lat="49.62178" lon="5.74689">
        <ele>391.1</ele>
        <time>1970-01-01T00:44:44.000Z</time>
      </trkpt>
      <trkpt lat="49.62179" lon="5.74697">
        <ele>391.2</ele>
        <time>1970-01-01T00:44:45.000Z</time>
      </trkpt>
      <trkpt lat="49.62182" lon="5.74713">
        <ele>391.2</ele>
        <time>1970-01-01T00:44:47.000Z</time>
      </trkpt>
      <trkpt lat="49.62184" lon="5.7473">
        <ele>391.1</ele>
        <time>1970-01-01T00:44:49.000Z</time>
      </trkpt>
      <trkpt lat="49.62185" lon="5.74739">
        <ele>391</ele>
        <time>1970-01-01T00:44:50.000Z</time>
      </trkpt>
      <trkpt lat="49.62188" lon="5.74757">
        <ele>390.9</ele>
        <time>1970-01-01T00:44:52.000Z</time>
      </trkpt>
      <trkpt lat="49.62191" lon="5.74774">
        <ele>390.6</ele>
        <time>1970-01-01T00:44:54.000Z</time>
      </trkpt>
      <trkpt lat="49.62195" lon="5.74792">
        <ele>390.3</ele>
        <time>1970-01-01T00:44:56.000Z</time>
      </trkpt>
      <trkpt lat="49.62197" lon="5.74801">
        <ele>390.2</ele>
        <time>1970-01-01T00:44:57.000Z</time>
      </trkpt>
      <trkpt lat="49.62199" lon="5.74811">
        <ele>390</ele>
        <time>1970-01-01T00:44:58.000Z</time>
      </trkpt>
      <trkpt lat="49.62201" lon="5.7482">
        <ele>389.8</ele>
        <time>1970-01-01T00:44:59.000Z</time>
      </trkpt>
      <trkpt lat="49.62205" lon="5.74839">
        <ele>389.3</ele>
        <time>1970-01-01T00:45:01.000Z</time>
      </trkpt>
      <trkpt lat="49.62206" lon="5.74849">
        <ele>389.1</ele>
        <time>1970-01-01T00:45:02.000Z</time>
      </trkpt>
      <trkpt lat="49.62207" lon="5.7487">
        <ele>388.9</ele>
        <time>1970-01-01T00:45:04.000Z</time>
      </trkpt>
      <trkpt lat="49.62208" lon="5.74891">
        <ele>388.6</ele>
        <time>1970-01-01T00:45:06.000Z</time>
      </trkpt>
      <trkpt lat="49.62209" lon="5.74902">
        <ele>388.4</ele>
        <time>1970-01-01T00:45:07.000Z</time>
      </trkpt>
      <trkpt lat="49.6221" lon="5.74922">
        <ele>388.2</ele>
        <time>1970-01-01T00:45:09.000Z</time>
      </trkpt>
      <trkpt lat="49.62211" lon="5.74943">
        <ele>387.9</ele>
        <time>1970-01-01T00:45:11.000Z</time>
      </trkpt>
      <trkpt lat="49.62212" lon="5.74954">
        <ele>387.6</ele>
        <time>1970-01-01T00:45:12.000Z</time>
      </trkpt>
      <trkpt lat="49.62212" lon="5.74964">
        <ele>387.5</ele>
        <time>1970-01-01T00:45:13.000Z</time>
      </trkpt>
      <trkpt lat="49.62212" lon="5.74985">
        <ele>387.1</ele>
        <time>1970-01-01T00:45:15.000Z</time>
      </trkpt>
      <trkpt lat="49.62212" lon="5.75006">
        <ele>386.6</ele>
        <time>1970-01-01T00:45:17.000Z</time>
      </trkpt>
      <trkpt lat="49.6221" lon="5.75017">
        <ele>386.3</ele>
        <time>1970-01-01T00:45:18.000Z</time>
      </trkpt>
      <trkpt lat="49.62208" lon="5.7504">
        <ele>385.7</ele>
        <time>1970-01-01T00:45:20.000Z</time>
      </trkpt>
      <trkpt lat="49.62207" lon="5.75052">
        <ele>385.4</ele>
        <time>1970-01-01T00:45:21.000Z</time>
      </trkpt>
      <trkpt lat="49.62205" lon="5.75064">
        <ele>385.2</ele>
        <time>1970-01-01T00:45:22.000Z</time>
      </trkpt>
      <trkpt lat="49.62203" lon="5.75088">
        <ele>384.7</ele>
        <time>1970-01-01T00:45:24.000Z</time>
      </trkpt>
      <trkpt lat="49.62203" lon="5.75101">
        <ele>384.6</ele>
        <time>1970-01-01T00:45:25.000Z</time>
      </trkpt>
      <trkpt lat="49.62203" lon="5.75125">
        <ele>384.3</ele>
        <time>1970-01-01T00:45:27.000Z</time>
      </trkpt>
      <trkpt lat="49.62205" lon="5.75136">
        <ele>384.3</ele>
        <time>1970-01-01T00:45:28.000Z</time>
      </trkpt>
      <trkpt lat="49.62206" lon="5.75148">
        <ele>384.2</ele>
        <time>1970-01-01T00:45:29.000Z</time>
      </trkpt>
      <trkpt lat="49.6221" lon="5.75167">
        <ele>384.1</ele>
        <time>1970-01-01T00:45:31.000Z</time>
      </trkpt>
      <trkpt lat="49.62213" lon="5.75172">
        <ele>384.1</ele>
        <time>1970-01-01T00:45:32.000Z</time>
      </trkpt>
      <trkpt lat="49.62217" lon="5.75174">
        <ele>384.6</ele>
        <time>1970-01-01T00:45:33.000Z</time>
      </trkpt>
      <trkpt lat="49.62223" lon="5.75173">
        <ele>384.3</ele>
        <time>1970-01-01T00:45:34.000Z</time>
      </trkpt>
      <trkpt lat="49.62235" lon="5.75171">
        <ele>383.6</ele>
        <time>1970-01-01T00:45:36.000Z</time>
      </trkpt>
      <trkpt lat="49.6225" lon="5.75176">
        <ele>382.7</ele>
        <time>1970-01-01T00:45:38.000Z</time>
      </trkpt>
      <trkpt lat="49.62264" lon="5.75183">
        <ele>381.9</ele>
        <time>1970-01-01T00:45:40.000Z</time>
      </trkpt>
      <trkpt lat="49.62269" lon="5.75185">
        <ele>381.6</ele>
        <time>1970-01-01T00:45:41.000Z</time>
      </trkpt>
      <trkpt lat="49.62287" lon="5.75194">
        <ele>380.5</ele>
        <time>1970-01-01T00:45:43.000Z</time>
      </trkpt>
      <trkpt lat="49.62308" lon="5.75202">
        <ele>379.2</ele>
        <time>1970-01-01T00:45:45.000Z</time>
      </trkpt>
      <trkpt lat="49.6232" lon="5.75206">
        <ele>378.6</ele>
        <time>1970-01-01T00:45:46.000Z</time>
      </trkpt>
      <trkpt lat="49.62331" lon="5.75212">
        <ele>377.9</ele>
        <time>1970-01-01T00:45:47.000Z</time>
      </trkpt>
      <trkpt lat="49.62341" lon="5.75217">
        <ele>377.3</ele>
        <time>1970-01-01T00:45:48.000Z</time>
      </trkpt>
      <trkpt lat="49.62363" lon="5.75233">
        <ele>375.9</ele>
        <time>1970-01-01T00:45:50.000Z</time>
      </trkpt>
      <trkpt lat="49.62373" lon="5.75243">
        <ele>375.2</ele>
        <time>1970-01-01T00:45:51.000Z</time>
      </trkpt>
      <trkpt lat="49.62391" lon="5.75267">
        <ele>373.9</ele>
        <time>1970-01-01T00:45:53.000Z</time>
      </trkpt>
      <trkpt lat="49.62407" lon="5.7529">
        <ele>372.6</ele>
        <time>1970-01-01T00:45:55.000Z</time>
      </trkpt>
      <trkpt lat="49.62415" lon="5.75301">
        <ele>372</ele>
        <time>1970-01-01T00:45:56.000Z</time>
      </trkpt>
      <trkpt lat="49.62423" lon="5.75313">
        <ele>371.3</ele>
        <time>1970-01-01T00:45:57.000Z</time>
      </trkpt>
      <trkpt lat="49.62431" lon="5.75324">
        <ele>370.7</ele>
        <time>1970-01-01T00:45:58.000Z</time>
      </trkpt>
      <trkpt lat="49.62448" lon="5.75345">
        <ele>369.5</ele>
        <time>1970-01-01T00:46:00.000Z</time>
      </trkpt>
      <trkpt lat="49.62457" lon="5.75355">
        <ele>368.8</ele>
        <time>1970-01-01T00:46:01.000Z</time>
      </trkpt>
      <trkpt lat="49.62466" lon="5.75366">
        <ele>368.2</ele>
        <time>1970-01-01T00:46:02.000Z</time>
      </trkpt>
      <trkpt lat="49.62482" lon="5.75387">
        <ele>367</ele>
        <time>1970-01-01T00:46:04.000Z</time>
      </trkpt>
      <trkpt lat="49.62496" lon="5.75411">
        <ele>365.8</ele>
        <time>1970-01-01T00:46:06.000Z</time>
      </trkpt>
      <trkpt lat="49.62503" lon="5.75423">
        <ele>365.2</ele>
        <time>1970-01-01T00:46:07.000Z</time>
      </trkpt>
      <trkpt lat="49.62519" lon="5.75449">
        <ele>363.9</ele>
        <time>1970-01-01T00:46:09.000Z</time>
      </trkpt>
      <trkpt lat="49.62527" lon="5.75462">
        <ele>363.2</ele>
        <time>1970-01-01T00:46:10.000Z</time>
      </trkpt>
      <trkpt lat="49.62536" lon="5.75476">
        <ele>362.5</ele>
        <time>1970-01-01T00:46:11.000Z</time>
      </trkpt>
      <trkpt lat="49.62544" lon="5.75491">
        <ele>361.7</ele>
        <time>1970-01-01T00:46:12.000Z</time>
      </trkpt>
      <trkpt lat="49.62561" lon="5.75518">
        <ele>360.4</ele>
        <time>1970-01-01T00:46:14.000Z</time>
      </trkpt>
      <trkpt lat="49.62577" lon="5.75545">
        <ele>359</ele>
        <time>1970-01-01T00:46:16.000Z</time>
      </trkpt>
      <trkpt lat="49.62594" lon="5.75572">
        <ele>357.6</ele>
        <time>1970-01-01T00:46:18.000Z</time>
      </trkpt>
      <trkpt lat="49.62612" lon="5.75595">
        <ele>356.3</ele>
        <time>1970-01-01T00:46:20.000Z</time>
      </trkpt>
      <trkpt lat="49.62621" lon="5.75605">
        <ele>355.6</ele>
        <time>1970-01-01T00:46:21.000Z</time>
      </trkpt>
      <trkpt lat="49.62641" lon="5.75622">
        <ele>354.3</ele>
        <time>1970-01-01T00:46:23.000Z</time>
      </trkpt>
      <trkpt lat="49.62651" lon="5.75632">
        <ele>353.6</ele>
        <time>1970-01-01T00:46:24.000Z</time>
      </trkpt>
      <trkpt lat="49.62661" lon="5.75641">
        <ele>353</ele>
        <time>1970-01-01T00:46:25.000Z</time>
      </trkpt>
      <trkpt lat="49.6268" lon="5.7566">
        <ele>351.6</ele>
        <time>1970-01-01T00:46:27.000Z</time>
      </trkpt>
      <trkpt lat="49.62691" lon="5.75666">
        <ele>351</ele>
        <time>1970-01-01T00:46:28.000Z</time>
      </trkpt>
      <trkpt lat="49.62702" lon="5.7567">
        <ele>350.4</ele>
        <time>1970-01-01T00:46:29.000Z</time>
      </trkpt>
      <trkpt lat="49.62723" lon="5.75678">
        <ele>349.1</ele>
        <time>1970-01-01T00:46:31.000Z</time>
      </trkpt>
      <trkpt lat="49.62743" lon="5.75685">
        <ele>347.9</ele>
        <time>1970-01-01T00:46:33.000Z</time>
      </trkpt>
      <trkpt lat="49.62762" lon="5.75691">
        <ele>346.8</ele>
        <time>1970-01-01T00:46:35.000Z</time>
      </trkpt>
      <trkpt lat="49.6277" lon="5.75693">
        <ele>346.3</ele>
        <time>1970-01-01T00:46:36.000Z</time>
      </trkpt>
      <trkpt lat="49.62784" lon="5.75694">
        <ele>345.5</ele>
        <time>1970-01-01T00:46:38.000Z</time>
      </trkpt>
      <trkpt lat="49.6279" lon="5.75692">
        <ele>345.2</ele>
        <time>1970-01-01T00:46:39.000Z</time>
      </trkpt>
      <trkpt lat="49.628" lon="5.75684">
        <ele>344.3</ele>
        <time>1970-01-01T00:46:41.000Z</time>
      </trkpt>
      <trkpt lat="49.62808" lon="5.75677">
        <ele>343.7</ele>
        <time>1970-01-01T00:46:43.000Z</time>
      </trkpt>
      <trkpt lat="49.62818" lon="5.75672">
        <ele>343</ele>
        <time>1970-01-01T00:46:45.000Z</time>
      </trkpt>
      <trkpt lat="49.62826" lon="5.75669">
        <ele>342.2</ele>
        <time>1970-01-01T00:46:47.000Z</time>
      </trkpt>
      <trkpt lat="49.62831" lon="5.75666">
        <ele>342.1</ele>
        <time>1970-01-01T00:46:48.000Z</time>
      </trkpt>
      <trkpt lat="49.62842" lon="5.75661">
        <ele>341.8</ele>
        <time>1970-01-01T00:46:50.000Z</time>
      </trkpt>
      <trkpt lat="49.62848" lon="5.75657">
        <ele>341.6</ele>
        <time>1970-01-01T00:46:51.000Z</time>
      </trkpt>
      <trkpt lat="49.62861" lon="5.75648">
        <ele>341.2</ele>
        <time>1970-01-01T00:46:53.000Z</time>
      </trkpt>
      <trkpt lat="49.62868" lon="5.75644">
        <ele>341</ele>
        <time>1970-01-01T00:46:54.000Z</time>
      </trkpt>
      <trkpt lat="49.62882" lon="5.75636">
        <ele>340.4</ele>
        <time>1970-01-01T00:46:56.000Z</time>
      </trkpt>
      <trkpt lat="49.62889" lon="5.75629">
        <ele>339.7</ele>
        <time>1970-01-01T00:46:57.000Z</time>
      </trkpt>
      <trkpt lat="49.62897" lon="5.75624">
        <ele>339.8</ele>
        <time>1970-01-01T00:46:58.000Z</time>
      </trkpt>
      <trkpt lat="49.6291" lon="5.75615">
        <ele>339.9</ele>
        <time>1970-01-01T00:47:00.000Z</time>
      </trkpt>
      <trkpt lat="49.62924" lon="5.75605">
        <ele>339.8</ele>
        <time>1970-01-01T00:47:02.000Z</time>
      </trkpt>
      <trkpt lat="49.62936" lon="5.75596">
        <ele>339.7</ele>
        <time>1970-01-01T00:47:04.000Z</time>
      </trkpt>
      <trkpt lat="49.62949" lon="5.75589">
        <ele>339.8</ele>
        <time>1970-01-01T00:47:06.000Z</time>
      </trkpt>
      <trkpt lat="49.62962" lon="5.75581">
        <ele>340</ele>
        <time>1970-01-01T00:47:08.000Z</time>
      </trkpt>
      <trkpt lat="49.62973" lon="5.75573">
        <ele>340.3</ele>
        <time>1970-01-01T00:47:10.000Z</time>
      </trkpt>
      <trkpt lat="49.62982" lon="5.75568">
        <ele>340.7</ele>
        <time>1970-01-01T00:47:12.000Z</time>
      </trkpt>
      <trkpt lat="49.62986" lon="5.75565">
        <ele>341</ele>
        <time>1970-01-01T00:47:13.000Z</time>
      </trkpt>
      <trkpt lat="49.62991" lon="5.75562">
        <ele>341.3</ele>
        <time>1970-01-01T00:47:14.000Z</time>
      </trkpt>
      <trkpt lat="49.62998" lon="5.75557">
        <ele>341.9</ele>
        <time>1970-01-01T00:47:16.000Z</time>
      </trkpt>
      <trkpt lat="49.63002" lon="5.75554">
        <ele>342.2</ele>
        <time>1970-01-01T00:47:17.000Z</time>
      </trkpt>
      <trkpt lat="49.63009" lon="5.75551">
        <ele>342.8</ele>
        <time>1970-01-01T00:47:19.000Z</time>
      </trkpt>
      <trkpt lat="49.63012" lon="5.75546">
        <ele>343.1</ele>
        <time>1970-01-01T00:47:20.000Z</time>
      </trkpt>
      <trkpt lat="49.63016" lon="5.75542">
        <ele>343.4</ele>
        <time>1970-01-01T00:47:21.000Z</time>
      </trkpt>
      <trkpt lat="49.6302" lon="5.7554">
        <ele>343.7</ele>
        <time>1970-01-01T00:47:22.000Z</time>
      </trkpt>
      <trkpt lat="49.63024" lon="5.75539">
        <ele>344</ele>
        <time>1970-01-01T00:47:23.000Z</time>
      </trkpt>
      <trkpt lat="49.63033" lon="5.75536">
        <ele>344.4</ele>
        <time>1970-01-01T00:47:25.000Z</time>
      </trkpt>
      <trkpt lat="49.63041" lon="5.75533">
        <ele>344.5</ele>
        <time>1970-01-01T00:47:27.000Z</time>
      </trkpt>
      <trkpt lat="49.63045" lon="5.75532">
        <ele>344.6</ele>
        <time>1970-01-01T00:47:28.000Z</time>
      </trkpt>
      <trkpt lat="49.63052" lon="5.75529">
        <ele>344.7</ele>
        <time>1970-01-01T00:47:30.000Z</time>
      </trkpt>
      <trkpt lat="49.63056" lon="5.75527">
        <ele>344.7</ele>
        <time>1970-01-01T00:47:31.000Z</time>
      </trkpt>
      <trkpt lat="49.6306" lon="5.75526">
        <ele>344.7</ele>
        <time>1970-01-01T00:47:32.000Z</time>
      </trkpt>
      <trkpt lat="49.63068" lon="5.75523">
        <ele>344.7</ele>
        <time>1970-01-01T00:47:34.000Z</time>
      </trkpt>
      <trkpt lat="49.63074" lon="5.75521">
        <ele>344.6</ele>
        <time>1970-01-01T00:47:36.000Z</time>
      </trkpt>
      <trkpt lat="49.63091" lon="5.75513">
        <ele>344.4</ele>
        <time>1970-01-01T00:47:42.000Z</time>
      </trkpt>
      <trkpt lat="49.63099" lon="5.75507">
        <ele>344.1</ele>
        <time>1970-01-01T00:47:43.000Z</time>
      </trkpt>
      <trkpt lat="49.63114" lon="5.75499">
        <ele>343.4</ele>
        <time>1970-01-01T00:47:45.000Z</time>
      </trkpt>
      <trkpt lat="49.63119" lon="5.75496">
        <ele>343.1</ele>
        <time>1970-01-01T00:47:46.000Z</time>
      </trkpt>
      <trkpt lat="49.63131" lon="5.75495">
        <ele>342.6</ele>
        <time>1970-01-01T00:47:48.000Z</time>
      </trkpt>
      <trkpt lat="49.63142" lon="5.75497">
        <ele>342.1</ele>
        <time>1970-01-01T00:47:50.000Z</time>
      </trkpt>
      <trkpt lat="49.63148" lon="5.75498">
        <ele>341.8</ele>
        <time>1970-01-01T00:47:51.000Z</time>
      </trkpt>
      <trkpt lat="49.63158" lon="5.75501">
        <ele>341.4</ele>
        <time>1970-01-01T00:47:53.000Z</time>
      </trkpt>
      <trkpt lat="49.63161" lon="5.75503">
        <ele>341.2</ele>
        <time>1970-01-01T00:47:54.000Z</time>
      </trkpt>
      <trkpt lat="49.6317" lon="5.75506">
        <ele>340.8</ele>
        <time>1970-01-01T00:47:56.000Z</time>
      </trkpt>
      <trkpt lat="49.63176" lon="5.75508">
        <ele>340.5</ele>
        <time>1970-01-01T00:47:57.000Z</time>
      </trkpt>
      <trkpt lat="49.63185" lon="5.75512">
        <ele>340</ele>
        <time>1970-01-01T00:47:59.000Z</time>
      </trkpt>
      <trkpt lat="49.63196" lon="5.75517">
        <ele>339.6</ele>
        <time>1970-01-01T00:48:01.000Z</time>
      </trkpt>
      <trkpt lat="49.63202" lon="5.75518">
        <ele>339.4</ele>
        <time>1970-01-01T00:48:02.000Z</time>
      </trkpt>
      <trkpt lat="49.63213" lon="5.75522">
        <ele>339</ele>
        <time>1970-01-01T00:48:04.000Z</time>
      </trkpt>
      <trkpt lat="49.63222" lon="5.75523">
        <ele>338.7</ele>
        <time>1970-01-01T00:48:06.000Z</time>
      </trkpt>
      <trkpt lat="49.63225" lon="5.75527">
        <ele>338.5</ele>
        <time>1970-01-01T00:48:07.000Z</time>
      </trkpt>
      <trkpt lat="49.63238" lon="5.75528">
        <ele>338</ele>
        <time>1970-01-01T00:48:09.000Z</time>
      </trkpt>
      <trkpt lat="49.63243" lon="5.75528">
        <ele>337.8</ele>
        <time>1970-01-01T00:48:10.000Z</time>
      </trkpt>
      <trkpt lat="49.63249" lon="5.75529">
        <ele>337.6</ele>
        <time>1970-01-01T00:48:11.000Z</time>
      </trkpt>
      <trkpt lat="49.63261" lon="5.75527">
        <ele>337.1</ele>
        <time>1970-01-01T00:48:13.000Z</time>
      </trkpt>
      <trkpt lat="49.63271" lon="5.75525">
        <ele>336.3</ele>
        <time>1970-01-01T00:48:15.000Z</time>
      </trkpt>
      <trkpt lat="49.63282" lon="5.75521">
        <ele>335.6</ele>
        <time>1970-01-01T00:48:17.000Z</time>
      </trkpt>
      <trkpt lat="49.63288" lon="5.75519">
        <ele>335.1</ele>
        <time>1970-01-01T00:48:18.000Z</time>
      </trkpt>
      <trkpt lat="49.63297" lon="5.75506">
        <ele>334.1</ele>
        <time>1970-01-01T00:48:20.000Z</time>
      </trkpt>
      <trkpt lat="49.63299" lon="5.75499">
        <ele>334.2</ele>
        <time>1970-01-01T00:48:21.000Z</time>
      </trkpt>
      <trkpt lat="49.63298" lon="5.75492">
        <ele>334.4</ele>
        <time>1970-01-01T00:48:22.000Z</time>
      </trkpt>
      <trkpt lat="49.63298" lon="5.75485">
        <ele>334.5</ele>
        <time>1970-01-01T00:48:23.000Z</time>
      </trkpt>
      <trkpt lat="49.63297" lon="5.75473">
        <ele>334.7</ele>
        <time>1970-01-01T00:48:25.000Z</time>
      </trkpt>
      <trkpt lat="49.63297" lon="5.75466">
        <ele>334.8</ele>
        <time>1970-01-01T00:48:26.000Z</time>
      </trkpt>
      <trkpt lat="49.63295" lon="5.75452">
        <ele>335.1</ele>
        <time>1970-01-01T00:48:28.000Z</time>
      </trkpt>
      <trkpt lat="49.63289" lon="5.75417">
        <ele>335.6</ele>
        <time>1970-01-01T00:48:34.000Z</time>
      </trkpt>
      <trkpt lat="49.63287" lon="5.754">
        <ele>335.8</ele>
        <time>1970-01-01T00:48:36.000Z</time>
      </trkpt>
      <trkpt lat="49.63286" lon="5.75393">
        <ele>335.8</ele>
        <time>1970-01-01T00:48:37.000Z</time>
      </trkpt>
      <trkpt lat="49.63283" lon="5.75379">
        <ele>336</ele>
        <time>1970-01-01T00:48:39.000Z</time>
      </trkpt>
      <trkpt lat="49.63282" lon="5.75372">
        <ele>336</ele>
        <time>1970-01-01T00:48:40.000Z</time>
      </trkpt>
      <trkpt lat="49.63279" lon="5.75359">
        <ele>336.1</ele>
        <time>1970-01-01T00:48:42.000Z</time>
      </trkpt>
      <trkpt lat="49.63275" lon="5.75346">
        <ele>336.1</ele>
        <time>1970-01-01T00:48:44.000Z</time>
      </trkpt>
      <trkpt lat="49.63272" lon="5.75333">
        <ele>336.1</ele>
        <time>1970-01-01T00:48:46.000Z</time>
      </trkpt>
      <trkpt lat="49.63269" lon="5.7532">
        <ele>336.2</ele>
        <time>1970-01-01T00:48:48.000Z</time>
      </trkpt>
      <trkpt lat="49.63266" lon="5.75307">
        <ele>336.1</ele>
        <time>1970-01-01T00:48:50.000Z</time>
      </trkpt>
      <trkpt lat="49.63264" lon="5.753">
        <ele>336.1</ele>
        <time>1970-01-01T00:48:51.000Z</time>
      </trkpt>
      <trkpt lat="49.63263" lon="5.75293">
        <ele>336.3</ele>
        <time>1970-01-01T00:48:52.000Z</time>
      </trkpt>
      <trkpt lat="49.63262" lon="5.75287">
        <ele>336.8</ele>
        <time>1970-01-01T00:48:53.000Z</time>
      </trkpt>
      <trkpt lat="49.63262" lon="5.7528">
        <ele>337.4</ele>
        <time>1970-01-01T00:48:54.000Z</time>
      </trkpt>
      <trkpt lat="49.63261" lon="5.75272">
        <ele>338</ele>
        <time>1970-01-01T00:48:55.000Z</time>
      </trkpt>
      <trkpt lat="49.63258" lon="5.75258">
        <ele>339.1</ele>
        <time>1970-01-01T00:48:57.000Z</time>
      </trkpt>
      <trkpt lat="49.63256" lon="5.75251">
        <ele>339.7</ele>
        <time>1970-01-01T00:48:58.000Z</time>
      </trkpt>
      <trkpt lat="49.63253" lon="5.75242">
        <ele>340.3</ele>
        <time>1970-01-01T00:48:59.000Z</time>
      </trkpt>
      <trkpt lat="49.63252" lon="5.75234">
        <ele>340.9</ele>
        <time>1970-01-01T00:49:00.000Z</time>
      </trkpt>
      <trkpt lat="49.63253" lon="5.75221">
        <ele>340.9</ele>
        <time>1970-01-01T00:49:02.000Z</time>
      </trkpt>
      <trkpt lat="49.63259" lon="5.7521">
        <ele>340.7</ele>
        <time>1970-01-01T00:49:04.000Z</time>
      </trkpt>
      <trkpt lat="49.63267" lon="5.75195">
        <ele>340.6</ele>
        <time>1970-01-01T00:49:06.000Z</time>
      </trkpt>
      <trkpt lat="49.63276" lon="5.75182">
        <ele>340.7</ele>
        <time>1970-01-01T00:49:08.000Z</time>
      </trkpt>
      <trkpt lat="49.63283" lon="5.75169">
        <ele>340.8</ele>
        <time>1970-01-01T00:49:10.000Z</time>
      </trkpt>
      <trkpt lat="49.63287" lon="5.75157">
        <ele>341</ele>
        <time>1970-01-01T00:49:12.000Z</time>
      </trkpt>
      <trkpt lat="49.63293" lon="5.75143">
        <ele>341.4</ele>
        <time>1970-01-01T00:49:14.000Z</time>
      </trkpt>
      <trkpt lat="49.63301" lon="5.75129">
        <ele>342</ele>
        <time>1970-01-01T00:49:16.000Z</time>
      </trkpt>
      <trkpt lat="49.63305" lon="5.7512">
        <ele>342.6</ele>
        <time>1970-01-01T00:49:18.000Z</time>
      </trkpt>
      <trkpt lat="49.63306" lon="5.75115">
        <ele>342.7</ele>
        <time>1970-01-01T00:49:20.000Z</time>
      </trkpt>
      <trkpt lat="49.63312" lon="5.75119">
        <ele>342.8</ele>
        <time>1970-01-01T00:49:22.000Z</time>
      </trkpt>
      <trkpt lat="49.63316" lon="5.75123">
        <ele>342.9</ele>
        <time>1970-01-01T00:49:23.000Z</time>
      </trkpt>
      <trkpt lat="49.63326" lon="5.75123">
        <ele>343.2</ele>
        <time>1970-01-01T00:49:24.000Z</time>
      </trkpt>
      <trkpt lat="49.63328" lon="5.75129">
        <ele>343.3</ele>
        <time>1970-01-01T00:49:27.000Z</time>
      </trkpt>
      <trkpt lat="49.63331" lon="5.7513">
        <ele>343.3</ele>
        <time>1970-01-01T00:49:28.000Z</time>
      </trkpt>
      <trkpt lat="49.63355" lon="5.7513">
        <ele>344</ele>
        <time>1970-01-01T00:49:30.000Z</time>
      </trkpt>
      <trkpt lat="49.63361" lon="5.7513">
        <ele>344.1</ele>
        <time>1970-01-01T00:49:31.000Z</time>
      </trkpt>
      <trkpt lat="49.63367" lon="5.75131">
        <ele>344.3</ele>
        <time>1970-01-01T00:49:32.000Z</time>
      </trkpt>
      <trkpt lat="49.63373" lon="5.75132">
        <ele>344.4</ele>
        <time>1970-01-01T00:49:33.000Z</time>
      </trkpt>
      <trkpt lat="49.6338" lon="5.75134">
        <ele>344.6</ele>
        <time>1970-01-01T00:49:35.000Z</time>
      </trkpt>
      <trkpt lat="49.63383" lon="5.75135">
        <ele>344.7</ele>
        <time>1970-01-01T00:49:36.000Z</time>
      </trkpt>
      <trkpt lat="49.63391" lon="5.75137">
        <ele>344.9</ele>
        <time>1970-01-01T00:49:37.000Z</time>
      </trkpt>
      <trkpt lat="49.63396" lon="5.75139">
        <ele>345</ele>
        <time>1970-01-01T00:49:38.000Z</time>
      </trkpt>
      <trkpt lat="49.63402" lon="5.75141">
        <ele>345.1</ele>
        <time>1970-01-01T00:49:39.000Z</time>
      </trkpt>
      <trkpt lat="49.63411" lon="5.75147">
        <ele>345.4</ele>
        <time>1970-01-01T00:49:41.000Z</time>
      </trkpt>
      <trkpt lat="49.63414" lon="5.75151">
        <ele>345.5</ele>
        <time>1970-01-01T00:49:42.000Z</time>
      </trkpt>
      <trkpt lat="49.63423" lon="5.75158">
        <ele>345.7</ele>
        <time>1970-01-01T00:49:44.000Z</time>
      </trkpt>
      <trkpt lat="49.63432" lon="5.75167">
        <ele>346</ele>
        <time>1970-01-01T00:49:46.000Z</time>
      </trkpt>
      <trkpt lat="49.63436" lon="5.75173">
        <ele>346.1</ele>
        <time>1970-01-01T00:49:47.000Z</time>
      </trkpt>
      <trkpt lat="49.63443" lon="5.75184">
        <ele>346.4</ele>
        <time>1970-01-01T00:49:49.000Z</time>
      </trkpt>
      <trkpt lat="49.63447" lon="5.75188">
        <ele>346.5</ele>
        <time>1970-01-01T00:49:50.000Z</time>
      </trkpt>
      <trkpt lat="49.63451" lon="5.75192">
        <ele>346.6</ele>
        <time>1970-01-01T00:49:51.000Z</time>
      </trkpt>
      <trkpt lat="49.63455" lon="5.75197">
        <ele>346.8</ele>
        <time>1970-01-01T00:49:52.000Z</time>
      </trkpt>
      <trkpt lat="49.63463" lon="5.75208">
        <ele>347</ele>
        <time>1970-01-01T00:49:54.000Z</time>
      </trkpt>
      <trkpt lat="49.63467" lon="5.75214">
        <ele>347.2</ele>
        <time>1970-01-01T00:49:55.000Z</time>
      </trkpt>
      <trkpt lat="49.63471" lon="5.75219">
        <ele>347.3</ele>
        <time>1970-01-01T00:49:56.000Z</time>
      </trkpt>
      <trkpt lat="49.63475" lon="5.75224">
        <ele>347.4</ele>
        <time>1970-01-01T00:49:57.000Z</time>
      </trkpt>
      <trkpt lat="49.63483" lon="5.75234">
        <ele>347.7</ele>
        <time>1970-01-01T00:49:59.000Z</time>
      </trkpt>
      <trkpt lat="49.63492" lon="5.75245">
        <ele>348</ele>
        <time>1970-01-01T00:50:01.000Z</time>
      </trkpt>
      <trkpt lat="49.63502" lon="5.75247">
        <ele>348.2</ele>
        <time>1970-01-01T00:50:03.000Z</time>
      </trkpt>
      <trkpt lat="49.63506" lon="5.75243">
        <ele>348.4</ele>
        <time>1970-01-01T00:50:04.000Z</time>
      </trkpt>
      <trkpt lat="49.63509" lon="5.75238">
        <ele>348.5</ele>
        <time>1970-01-01T00:50:05.000Z</time>
      </trkpt>
      <trkpt lat="49.63512" lon="5.75227">
        <ele>348.7</ele>
        <time>1970-01-01T00:50:07.000Z</time>
      </trkpt>
      <trkpt lat="49.63515" lon="5.75211">
        <ele>348.9</ele>
        <time>1970-01-01T00:50:09.000Z</time>
      </trkpt>
      <trkpt lat="49.63515" lon="5.75202">
        <ele>349.1</ele>
        <time>1970-01-01T00:50:10.000Z</time>
      </trkpt>
      <trkpt lat="49.63515" lon="5.75194">
        <ele>349.2</ele>
        <time>1970-01-01T00:50:12.000Z</time>
      </trkpt>
      <trkpt lat="49.63516" lon="5.75183">
        <ele>349.4</ele>
        <time>1970-01-01T00:50:13.000Z</time>
      </trkpt>
      <trkpt lat="49.63516" lon="5.75164">
        <ele>349.7</ele>
        <time>1970-01-01T00:50:15.000Z</time>
      </trkpt>
      <trkpt lat="49.63518" lon="5.75155">
        <ele>349.8</ele>
        <time>1970-01-01T00:50:16.000Z</time>
      </trkpt>
      <trkpt lat="49.63519" lon="5.75142">
        <ele>350</ele>
        <time>1970-01-01T00:50:18.000Z</time>
      </trkpt>
      <trkpt lat="49.6352" lon="5.75137">
        <ele>350.1</ele>
        <time>1970-01-01T00:50:19.000Z</time>
      </trkpt>
      <trkpt lat="49.63522" lon="5.75124">
        <ele>350.3</ele>
        <time>1970-01-01T00:50:21.000Z</time>
      </trkpt>
      <trkpt lat="49.63523" lon="5.75115">
        <ele>350.5</ele>
        <time>1970-01-01T00:50:22.000Z</time>
      </trkpt>
      <trkpt lat="49.63523" lon="5.75109">
        <ele>350.6</ele>
        <time>1970-01-01T00:50:23.000Z</time>
      </trkpt>
      <trkpt lat="49.63527" lon="5.75092">
        <ele>350.9</ele>
        <time>1970-01-01T00:50:26.000Z</time>
      </trkpt>
      <trkpt lat="49.63529" lon="5.75086">
        <ele>351</ele>
        <time>1970-01-01T00:50:27.000Z</time>
      </trkpt>
      <trkpt lat="49.63536" lon="5.75069">
        <ele>351.3</ele>
        <time>1970-01-01T00:50:29.000Z</time>
      </trkpt>
      <trkpt lat="49.63539" lon="5.7506">
        <ele>351.5</ele>
        <time>1970-01-01T00:50:31.000Z</time>
      </trkpt>
      <trkpt lat="49.63541" lon="5.75054">
        <ele>351.6</ele>
        <time>1970-01-01T00:50:33.000Z</time>
      </trkpt>
      <trkpt lat="49.63542" lon="5.75047">
        <ele>351.7</ele>
        <time>1970-01-01T00:50:34.000Z</time>
      </trkpt>
      <trkpt lat="49.63547" lon="5.75037">
        <ele>351.9</ele>
        <time>1970-01-01T00:50:35.000Z</time>
      </trkpt>
      <trkpt lat="49.63547" lon="5.7503">
        <ele>352</ele>
        <time>1970-01-01T00:50:36.000Z</time>
      </trkpt>
      <trkpt lat="49.63547" lon="5.75022">
        <ele>352.2</ele>
        <time>1970-01-01T00:50:38.000Z</time>
      </trkpt>
      <trkpt lat="49.63548" lon="5.75014">
        <ele>352.3</ele>
        <time>1970-01-01T00:50:39.000Z</time>
      </trkpt>
      <trkpt lat="49.63548" lon="5.75004">
        <ele>352.5</ele>
        <time>1970-01-01T00:50:41.000Z</time>
      </trkpt>
      <trkpt lat="49.63547" lon="5.74994">
        <ele>352.6</ele>
        <time>1970-01-01T00:50:42.000Z</time>
      </trkpt>
      <trkpt lat="49.63548" lon="5.74985">
        <ele>352.8</ele>
        <time>1970-01-01T00:50:44.000Z</time>
      </trkpt>
      <trkpt lat="49.63549" lon="5.74975">
        <ele>352.9</ele>
        <time>1970-01-01T00:50:45.000Z</time>
      </trkpt>
      <trkpt lat="49.63551" lon="5.74961">
        <ele>353.1</ele>
        <time>1970-01-01T00:50:47.000Z</time>
      </trkpt>
      <trkpt lat="49.63551" lon="5.74952">
        <ele>353.3</ele>
        <time>1970-01-01T00:50:48.000Z</time>
      </trkpt>
      <trkpt lat="49.63552" lon="5.74946">
        <ele>353.4</ele>
        <time>1970-01-01T00:50:50.000Z</time>
      </trkpt>
      <trkpt lat="49.63553" lon="5.74937">
        <ele>353.5</ele>
        <time>1970-01-01T00:50:51.000Z</time>
      </trkpt>
      <trkpt lat="49.63554" lon="5.7493">
        <ele>353.7</ele>
        <time>1970-01-01T00:50:53.000Z</time>
      </trkpt>
      <trkpt lat="49.63555" lon="5.74918">
        <ele>353.9</ele>
        <time>1970-01-01T00:50:54.000Z</time>
      </trkpt>
      <trkpt lat="49.63555" lon="5.7491">
        <ele>354</ele>
        <time>1970-01-01T00:50:56.000Z</time>
      </trkpt>
      <trkpt lat="49.63556" lon="5.74905">
        <ele>354.1</ele>
        <time>1970-01-01T00:50:57.000Z</time>
      </trkpt>
      <trkpt lat="49.63558" lon="5.74897">
        <ele>354.2</ele>
        <time>1970-01-01T00:50:58.000Z</time>
      </trkpt>
      <trkpt lat="49.6356" lon="5.74891">
        <ele>354.3</ele>
        <time>1970-01-01T00:50:59.000Z</time>
      </trkpt>
      <trkpt lat="49.63561" lon="5.74886">
        <ele>354.4</ele>
        <time>1970-01-01T00:51:00.000Z</time>
      </trkpt>
      <trkpt lat="49.63562" lon="5.7488">
        <ele>354.5</ele>
        <time>1970-01-01T00:51:02.000Z</time>
      </trkpt>
      <trkpt lat="49.63564" lon="5.74875">
        <ele>354.6</ele>
        <time>1970-01-01T00:51:04.000Z</time>
      </trkpt>
      <trkpt lat="49.63566" lon="5.74869">
        <ele>354.7</ele>
        <time>1970-01-01T00:51:07.000Z</time>
      </trkpt>
      <trkpt lat="49.63568" lon="5.74861">
        <ele>354.8</ele>
        <time>1970-01-01T00:51:09.000Z</time>
      </trkpt>
      <trkpt lat="49.63569" lon="5.74856">
        <ele>354.9</ele>
        <time>1970-01-01T00:51:11.000Z</time>
      </trkpt>
      <trkpt lat="49.63571" lon="5.74851">
        <ele>355</ele>
        <time>1970-01-01T00:51:12.000Z</time>
      </trkpt>
      <trkpt lat="49.63572" lon="5.74846">
        <ele>355.1</ele>
        <time>1970-01-01T00:51:13.000Z</time>
      </trkpt>
      <trkpt lat="49.63574" lon="5.74841">
        <ele>355.2</ele>
        <time>1970-01-01T00:51:15.000Z</time>
      </trkpt>
      <trkpt lat="49.63575" lon="5.74837">
        <ele>355.3</ele>
        <time>1970-01-01T00:51:16.000Z</time>
      </trkpt>
      <trkpt lat="49.63577" lon="5.74833">
        <ele>355.4</ele>
        <time>1970-01-01T00:51:17.000Z</time>
      </trkpt>
      <trkpt lat="49.63581" lon="5.74826">
        <ele>355.5</ele>
        <time>1970-01-01T00:51:19.000Z</time>
      </trkpt>
      <trkpt lat="49.63583" lon="5.74821">
        <ele>355.6</ele>
        <time>1970-01-01T00:51:21.000Z</time>
      </trkpt>
      <trkpt lat="49.63585" lon="5.74818">
        <ele>355.7</ele>
        <time>1970-01-01T00:51:22.000Z</time>
      </trkpt>
      <trkpt lat="49.63589" lon="5.74813">
        <ele>355.8</ele>
        <time>1970-01-01T00:51:25.000Z</time>
      </trkpt>
      <trkpt lat="49.63591" lon="5.7481">
        <ele>355.9</ele>
        <time>1970-01-01T00:51:26.000Z</time>
      </trkpt>
      <trkpt lat="49.63594" lon="5.74806">
        <ele>356</ele>
        <time>1970-01-01T00:51:28.000Z</time>
      </trkpt>
      <trkpt lat="49.63596" lon="5.74803">
        <ele>356</ele>
        <time>1970-01-01T00:51:29.000Z</time>
      </trkpt>
      <trkpt lat="49.63598" lon="5.74799">
        <ele>356.1</ele>
        <time>1970-01-01T00:51:31.000Z</time>
      </trkpt>
      <trkpt lat="49.63602" lon="5.74793">
        <ele>356.3</ele>
        <time>1970-01-01T00:51:33.000Z</time>
      </trkpt>
      <trkpt lat="49.63604" lon="5.74789">
        <ele>356.3</ele>
        <time>1970-01-01T00:51:34.000Z</time>
      </trkpt>
      <trkpt lat="49.63607" lon="5.74782">
        <ele>356.5</ele>
        <time>1970-01-01T00:51:37.000Z</time>
      </trkpt>
      <trkpt lat="49.63609" lon="5.74779">
        <ele>356.5</ele>
        <time>1970-01-01T00:51:38.000Z</time>
      </trkpt>
      <trkpt lat="49.63613" lon="5.74772">
        <ele>356.7</ele>
        <time>1970-01-01T00:51:40.000Z</time>
      </trkpt>
      <trkpt lat="49.63614" lon="5.74769">
        <ele>356.8</ele>
        <time>1970-01-01T00:51:41.000Z</time>
      </trkpt>
      <trkpt lat="49.63617" lon="5.74765">
        <ele>356.8</ele>
        <time>1970-01-01T00:51:42.000Z</time>
      </trkpt>
      <trkpt lat="49.6362" lon="5.7476">
        <ele>356.9</ele>
        <time>1970-01-01T00:51:44.000Z</time>
      </trkpt>
      <trkpt lat="49.63622" lon="5.74756">
        <ele>357</ele>
        <time>1970-01-01T00:51:45.000Z</time>
      </trkpt>
      <trkpt lat="49.63625" lon="5.74752">
        <ele>357.1</ele>
        <time>1970-01-01T00:51:47.000Z</time>
      </trkpt>
      <trkpt lat="49.63629" lon="5.74745">
        <ele>357.3</ele>
        <time>1970-01-01T00:51:50.000Z</time>
      </trkpt>
      <trkpt lat="49.63632" lon="5.74742">
        <ele>357.4</ele>
        <time>1970-01-01T00:51:51.000Z</time>
      </trkpt>
      <trkpt lat="49.63634" lon="5.74738">
        <ele>357.5</ele>
        <time>1970-01-01T00:51:53.000Z</time>
      </trkpt>
      <trkpt lat="49.63637" lon="5.74736">
        <ele>357.5</ele>
        <time>1970-01-01T00:51:54.000Z</time>
      </trkpt>
      <trkpt lat="49.63641" lon="5.74731">
        <ele>357.7</ele>
        <time>1970-01-01T00:51:56.000Z</time>
      </trkpt>
      <trkpt lat="49.63643" lon="5.74728">
        <ele>357.7</ele>
        <time>1970-01-01T00:51:57.000Z</time>
      </trkpt>
      <trkpt lat="49.63646" lon="5.74725">
        <ele>357.8</ele>
        <time>1970-01-01T00:51:59.000Z</time>
      </trkpt>
      <trkpt lat="49.63648" lon="5.74722">
        <ele>357.9</ele>
        <time>1970-01-01T00:52:00.000Z</time>
      </trkpt>
      <trkpt lat="49.63652" lon="5.74717">
        <ele>358</ele>
        <time>1970-01-01T00:52:02.000Z</time>
      </trkpt>
      <trkpt lat="49.63654" lon="5.74713">
        <ele>358.1</ele>
        <time>1970-01-01T00:52:03.000Z</time>
      </trkpt>
      <trkpt lat="49.63656" lon="5.74709">
        <ele>358.2</ele>
        <time>1970-01-01T00:52:05.000Z</time>
      </trkpt>
      <trkpt lat="49.63658" lon="5.74706">
        <ele>358.2</ele>
        <time>1970-01-01T00:52:06.000Z</time>
      </trkpt>
      <trkpt lat="49.63659" lon="5.74702">
        <ele>358.3</ele>
        <time>1970-01-01T00:52:07.000Z</time>
      </trkpt>
      <trkpt lat="49.63661" lon="5.74699">
        <ele>358.4</ele>
        <time>1970-01-01T00:52:08.000Z</time>
      </trkpt>
      <trkpt lat="49.63663" lon="5.74694">
        <ele>358.5</ele>
        <time>1970-01-01T00:52:10.000Z</time>
      </trkpt>
      <trkpt lat="49.63666" lon="5.74688">
        <ele>358.6</ele>
        <time>1970-01-01T00:52:12.000Z</time>
      </trkpt>
      <trkpt lat="49.63668" lon="5.74684">
        <ele>358.7</ele>
        <time>1970-01-01T00:52:13.000Z</time>
      </trkpt>
      <trkpt lat="49.63671" lon="5.74679">
        <ele>358.8</ele>
        <time>1970-01-01T00:52:15.000Z</time>
      </trkpt>
      <trkpt lat="49.63672" lon="5.74675">
        <ele>358.9</ele>
        <time>1970-01-01T00:52:16.000Z</time>
      </trkpt>
      <trkpt lat="49.63674" lon="5.74671">
        <ele>358.9</ele>
        <time>1970-01-01T00:52:17.000Z</time>
      </trkpt>
      <trkpt lat="49.63677" lon="5.74664">
        <ele>359.1</ele>
        <time>1970-01-01T00:52:19.000Z</time>
      </trkpt>
      <trkpt lat="49.63679" lon="5.7466">
        <ele>359.2</ele>
        <time>1970-01-01T00:52:20.000Z</time>
      </trkpt>
      <trkpt lat="49.63681" lon="5.74654">
        <ele>359.3</ele>
        <time>1970-01-01T00:52:22.000Z</time>
      </trkpt>
      <trkpt lat="49.63684" lon="5.74649">
        <ele>359.4</ele>
        <time>1970-01-01T00:52:23.000Z</time>
      </trkpt>
      <trkpt lat="49.63688" lon="5.74637">
        <ele>359.6</ele>
        <time>1970-01-01T00:52:24.000Z</time>
      </trkpt>
      <trkpt lat="49.63693" lon="5.7462">
        <ele>359.7</ele>
        <time>1970-01-01T00:52:26.000Z</time>
      </trkpt>
      <trkpt lat="49.63697" lon="5.74608">
        <ele>359.6</ele>
        <time>1970-01-01T00:52:27.000Z</time>
      </trkpt>
      <trkpt lat="49.637" lon="5.746">
        <ele>358.5</ele>
        <time>1970-01-01T00:52:29.000Z</time>
      </trkpt>
      <trkpt lat="49.63702" lon="5.74595">
        <ele>357.8</ele>
        <time>1970-01-01T00:52:30.000Z</time>
      </trkpt>
      <trkpt lat="49.63703" lon="5.74589">
        <ele>357.1</ele>
        <time>1970-01-01T00:52:31.000Z</time>
      </trkpt>
      <trkpt lat="49.63705" lon="5.74579">
        <ele>354.6</ele>
        <time>1970-01-01T00:52:33.000Z</time>
      </trkpt>
      <trkpt lat="49.63706" lon="5.74574">
        <ele>354.6</ele>
        <time>1970-01-01T00:52:34.000Z</time>
      </trkpt>
      <trkpt lat="49.63709" lon="5.7456">
        <ele>354.6</ele>
        <time>1970-01-01T00:52:35.000Z</time>
      </trkpt>
      <trkpt lat="49.63712" lon="5.74544">
        <ele>354.7</ele>
        <time>1970-01-01T00:52:37.000Z</time>
      </trkpt>
      <trkpt lat="49.63713" lon="5.74538">
        <ele>354.7</ele>
        <time>1970-01-01T00:52:38.000Z</time>
      </trkpt>
      <trkpt lat="49.63714" lon="5.74526">
        <ele>354.8</ele>
        <time>1970-01-01T00:52:40.000Z</time>
      </trkpt>
      <trkpt lat="49.63716" lon="5.74517">
        <ele>354.9</ele>
        <time>1970-01-01T00:52:41.000Z</time>
      </trkpt>
      <trkpt lat="49.63718" lon="5.74506">
        <ele>355.1</ele>
        <time>1970-01-01T00:52:43.000Z</time>
      </trkpt>
      <trkpt lat="49.63719" lon="5.74494">
        <ele>355.2</ele>
        <time>1970-01-01T00:52:45.000Z</time>
      </trkpt>
      <trkpt lat="49.63722" lon="5.74484">
        <ele>355.4</ele>
        <time>1970-01-01T00:52:46.000Z</time>
      </trkpt>
      <trkpt lat="49.63724" lon="5.74472">
        <ele>355.5</ele>
        <time>1970-01-01T00:52:48.000Z</time>
      </trkpt>
      <trkpt lat="49.63726" lon="5.74463">
        <ele>355.7</ele>
        <time>1970-01-01T00:52:50.000Z</time>
      </trkpt>
      <trkpt lat="49.63727" lon="5.74454">
        <ele>355.8</ele>
        <time>1970-01-01T00:52:51.000Z</time>
      </trkpt>
      <trkpt lat="49.63729" lon="5.74442">
        <ele>356</ele>
        <time>1970-01-01T00:52:53.000Z</time>
      </trkpt>
      <trkpt lat="49.63729" lon="5.74433">
        <ele>356.1</ele>
        <time>1970-01-01T00:52:54.000Z</time>
      </trkpt>
      <trkpt lat="49.6373" lon="5.74419">
        <ele>356.1</ele>
        <time>1970-01-01T00:52:56.000Z</time>
      </trkpt>
      <trkpt lat="49.6373" lon="5.7441">
        <ele>356.1</ele>
        <time>1970-01-01T00:52:57.000Z</time>
      </trkpt>
      <trkpt lat="49.6373" lon="5.74401">
        <ele>356.2</ele>
        <time>1970-01-01T00:52:59.000Z</time>
      </trkpt>
      <trkpt lat="49.6373" lon="5.74392">
        <ele>356.2</ele>
        <time>1970-01-01T00:53:00.000Z</time>
      </trkpt>
      <trkpt lat="49.6373" lon="5.74381">
        <ele>356.3</ele>
        <time>1970-01-01T00:53:02.000Z</time>
      </trkpt>
      <trkpt lat="49.6373" lon="5.74374">
        <ele>356.4</ele>
        <time>1970-01-01T00:53:03.000Z</time>
      </trkpt>
      <trkpt lat="49.63729" lon="5.74363">
        <ele>356.6</ele>
        <time>1970-01-01T00:53:05.000Z</time>
      </trkpt>
      <trkpt lat="49.63729" lon="5.74355">
        <ele>356.7</ele>
        <time>1970-01-01T00:53:06.000Z</time>
      </trkpt>
      <trkpt lat="49.63729" lon="5.74341">
        <ele>356.8</ele>
        <time>1970-01-01T00:53:08.000Z</time>
      </trkpt>
      <trkpt lat="49.63729" lon="5.74333">
        <ele>356.8</ele>
        <time>1970-01-01T00:53:09.000Z</time>
      </trkpt>
      <trkpt lat="49.63729" lon="5.74323">
        <ele>356.9</ele>
        <time>1970-01-01T00:53:11.000Z</time>
      </trkpt>
      <trkpt lat="49.63729" lon="5.74316">
        <ele>357</ele>
        <time>1970-01-01T00:53:12.000Z</time>
      </trkpt>
      <trkpt lat="49.63729" lon="5.74306">
        <ele>357.1</ele>
        <time>1970-01-01T00:53:13.000Z</time>
      </trkpt>
      <trkpt lat="49.63729" lon="5.74293">
        <ele>357.3</ele>
        <time>1970-01-01T00:53:15.000Z</time>
      </trkpt>
      <trkpt lat="49.63729" lon="5.7428">
        <ele>357.5</ele>
        <time>1970-01-01T00:53:17.000Z</time>
      </trkpt>
      <trkpt lat="49.63729" lon="5.74269">
        <ele>357.7</ele>
        <time>1970-01-01T00:53:19.000Z</time>
      </trkpt>
      <trkpt lat="49.63728" lon="5.74261">
        <ele>357.7</ele>
        <time>1970-01-01T00:53:20.000Z</time>
      </trkpt>
      <trkpt lat="49.63728" lon="5.74254">
        <ele>357.8</ele>
        <time>1970-01-01T00:53:21.000Z</time>
      </trkpt>
      <trkpt lat="49.63728" lon="5.74246">
        <ele>357.8</ele>
        <time>1970-01-01T00:53:22.000Z</time>
      </trkpt>
      <trkpt lat="49.63728" lon="5.74239">
        <ele>357.9</ele>
        <time>1970-01-01T00:53:23.000Z</time>
      </trkpt>
      <trkpt lat="49.63728" lon="5.74225">
        <ele>358</ele>
        <time>1970-01-01T00:53:25.000Z</time>
      </trkpt>
      <trkpt lat="49.63727" lon="5.74214">
        <ele>358.1</ele>
        <time>1970-01-01T00:53:27.000Z</time>
      </trkpt>
      <trkpt lat="49.63727" lon="5.74207">
        <ele>358.2</ele>
        <time>1970-01-01T00:53:28.000Z</time>
      </trkpt>
      <trkpt lat="49.63727" lon="5.74201">
        <ele>358.3</ele>
        <time>1970-01-01T00:53:29.000Z</time>
      </trkpt>
      <trkpt lat="49.63728" lon="5.7419">
        <ele>358.4</ele>
        <time>1970-01-01T00:53:31.000Z</time>
      </trkpt>
      <trkpt lat="49.63728" lon="5.74181">
        <ele>358.6</ele>
        <time>1970-01-01T00:53:32.000Z</time>
      </trkpt>
      <trkpt lat="49.63728" lon="5.74171">
        <ele>358.7</ele>
        <time>1970-01-01T00:53:33.000Z</time>
      </trkpt>
      <trkpt lat="49.63728" lon="5.74161">
        <ele>358.8</ele>
        <time>1970-01-01T00:53:35.000Z</time>
      </trkpt>
      <trkpt lat="49.63728" lon="5.74154">
        <ele>358.9</ele>
        <time>1970-01-01T00:53:36.000Z</time>
      </trkpt>
      <trkpt lat="49.63729" lon="5.74135">
        <ele>359.1</ele>
        <time>1970-01-01T00:53:38.000Z</time>
      </trkpt>
      <trkpt lat="49.6373" lon="5.74128">
        <ele>359.2</ele>
        <time>1970-01-01T00:53:39.000Z</time>
      </trkpt>
      <trkpt lat="49.63731" lon="5.74113">
        <ele>359.4</ele>
        <time>1970-01-01T00:53:41.000Z</time>
      </trkpt>
      <trkpt lat="49.63732" lon="5.74107">
        <ele>359.5</ele>
        <time>1970-01-01T00:53:42.000Z</time>
      </trkpt>
      <trkpt lat="49.63733" lon="5.741">
        <ele>359.6</ele>
        <time>1970-01-01T00:53:43.000Z</time>
      </trkpt>
      <trkpt lat="49.63733" lon="5.74093">
        <ele>359.7</ele>
        <time>1970-01-01T00:53:44.000Z</time>
      </trkpt>
      <trkpt lat="49.63734" lon="5.74086">
        <ele>359.8</ele>
        <time>1970-01-01T00:53:45.000Z</time>
      </trkpt>
      <trkpt lat="49.63735" lon="5.74076">
        <ele>359.9</ele>
        <time>1970-01-01T00:53:47.000Z</time>
      </trkpt>
      <trkpt lat="49.63738" lon="5.74068">
        <ele>360</ele>
        <time>1970-01-01T00:53:50.000Z</time>
      </trkpt>
      <trkpt lat="49.63741" lon="5.74053">
        <ele>360.1</ele>
        <time>1970-01-01T00:53:52.000Z</time>
      </trkpt>
      <trkpt lat="49.63743" lon="5.74043">
        <ele>360.1</ele>
        <time>1970-01-01T00:53:53.000Z</time>
      </trkpt>
      <trkpt lat="49.63744" lon="5.74036">
        <ele>360.1</ele>
        <time>1970-01-01T00:53:54.000Z</time>
      </trkpt>
      <trkpt lat="49.63748" lon="5.74023">
        <ele>360.1</ele>
        <time>1970-01-01T00:53:56.000Z</time>
      </trkpt>
      <trkpt lat="49.6375" lon="5.74014">
        <ele>360.1</ele>
        <time>1970-01-01T00:53:57.000Z</time>
      </trkpt>
      <trkpt lat="49.63752" lon="5.74004">
        <ele>359.9</ele>
        <time>1970-01-01T00:53:59.000Z</time>
      </trkpt>
      <trkpt lat="49.63754" lon="5.73997">
        <ele>359.9</ele>
        <time>1970-01-01T00:54:00.000Z</time>
      </trkpt>
      <trkpt lat="49.63756" lon="5.73989">
        <ele>359.8</ele>
        <time>1970-01-01T00:54:01.000Z</time>
      </trkpt>
      <trkpt lat="49.63759" lon="5.73976">
        <ele>359.5</ele>
        <time>1970-01-01T00:54:02.000Z</time>
      </trkpt>
      <trkpt lat="49.63764" lon="5.73957">
        <ele>359</ele>
        <time>1970-01-01T00:54:04.000Z</time>
      </trkpt>
      <trkpt lat="49.63771" lon="5.73934">
        <ele>358.4</ele>
        <time>1970-01-01T00:54:06.000Z</time>
      </trkpt>
      <trkpt lat="49.63773" lon="5.73924">
        <ele>358.1</ele>
        <time>1970-01-01T00:54:07.000Z</time>
      </trkpt>
      <trkpt lat="49.63777" lon="5.73905">
        <ele>357.5</ele>
        <time>1970-01-01T00:54:09.000Z</time>
      </trkpt>
      <trkpt lat="49.6378" lon="5.73887">
        <ele>356.9</ele>
        <time>1970-01-01T00:54:11.000Z</time>
      </trkpt>
      <trkpt lat="49.63782" lon="5.73868">
        <ele>356.3</ele>
        <time>1970-01-01T00:54:13.000Z</time>
      </trkpt>
      <trkpt lat="49.63783" lon="5.73848">
        <ele>355.7</ele>
        <time>1970-01-01T00:54:15.000Z</time>
      </trkpt>
      <trkpt lat="49.63784" lon="5.73838">
        <ele>355.4</ele>
        <time>1970-01-01T00:54:16.000Z</time>
      </trkpt>
      <trkpt lat="49.63784" lon="5.73817">
        <ele>354.7</ele>
        <time>1970-01-01T00:54:18.000Z</time>
      </trkpt>
      <trkpt lat="49.63784" lon="5.73806">
        <ele>354.3</ele>
        <time>1970-01-01T00:54:19.000Z</time>
      </trkpt>
      <trkpt lat="49.63784" lon="5.73795">
        <ele>353.9</ele>
        <time>1970-01-01T00:54:20.000Z</time>
      </trkpt>
      <trkpt lat="49.63786" lon="5.73773">
        <ele>353.1</ele>
        <time>1970-01-01T00:54:22.000Z</time>
      </trkpt>
      <trkpt lat="49.63788" lon="5.73762">
        <ele>352.9</ele>
        <time>1970-01-01T00:54:23.000Z</time>
      </trkpt>
      <trkpt lat="49.63792" lon="5.73741">
        <ele>352.7</ele>
        <time>1970-01-01T00:54:25.000Z</time>
      </trkpt>
      <trkpt lat="49.63796" lon="5.7372">
        <ele>352.3</ele>
        <time>1970-01-01T00:54:27.000Z</time>
      </trkpt>
      <trkpt lat="49.63799" lon="5.73711">
        <ele>352.2</ele>
        <time>1970-01-01T00:54:28.000Z</time>
      </trkpt>
      <trkpt lat="49.63802" lon="5.73702">
        <ele>352.1</ele>
        <time>1970-01-01T00:54:29.000Z</time>
      </trkpt>
      <trkpt lat="49.63808" lon="5.73683">
        <ele>352.1</ele>
        <time>1970-01-01T00:54:31.000Z</time>
      </trkpt>
      <trkpt lat="49.63815" lon="5.73666">
        <ele>352.2</ele>
        <time>1970-01-01T00:54:33.000Z</time>
      </trkpt>
      <trkpt lat="49.63818" lon="5.73657">
        <ele>352.3</ele>
        <time>1970-01-01T00:54:34.000Z</time>
      </trkpt>
      <trkpt lat="49.63824" lon="5.73641">
        <ele>352.6</ele>
        <time>1970-01-01T00:54:36.000Z</time>
      </trkpt>
      <trkpt lat="49.63827" lon="5.73634">
        <ele>352.6</ele>
        <time>1970-01-01T00:54:37.000Z</time>
      </trkpt>
      <trkpt lat="49.63833" lon="5.7362">
        <ele>352.9</ele>
        <time>1970-01-01T00:54:39.000Z</time>
      </trkpt>
      <trkpt lat="49.63836" lon="5.73613">
        <ele>353.1</ele>
        <time>1970-01-01T00:54:40.000Z</time>
      </trkpt>
      <trkpt lat="49.6384" lon="5.73609">
        <ele>353.3</ele>
        <time>1970-01-01T00:54:41.000Z</time>
      </trkpt>
      <trkpt lat="49.63845" lon="5.73611">
        <ele>353.4</ele>
        <time>1970-01-01T00:54:43.000Z</time>
      </trkpt>
      <trkpt lat="49.63848" lon="5.73616">
        <ele>353.5</ele>
        <time>1970-01-01T00:54:45.000Z</time>
      </trkpt>
      <trkpt lat="49.63854" lon="5.73621">
        <ele>353.6</ele>
        <time>1970-01-01T00:54:47.000Z</time>
      </trkpt>
      <trkpt lat="49.63857" lon="5.73621">
        <ele>353.7</ele>
        <time>1970-01-01T00:54:48.000Z</time>
      </trkpt>
      <trkpt lat="49.63861" lon="5.73619">
        <ele>353.8</ele>
        <time>1970-01-01T00:54:49.000Z</time>
      </trkpt>
      <trkpt lat="49.63864" lon="5.73618">
        <ele>354</ele>
        <time>1970-01-01T00:54:50.000Z</time>
      </trkpt>
      <trkpt lat="49.6387" lon="5.73616">
        <ele>354.2</ele>
        <time>1970-01-01T00:54:52.000Z</time>
      </trkpt>
      <trkpt lat="49.63873" lon="5.73617">
        <ele>354.4</ele>
        <time>1970-01-01T00:54:53.000Z</time>
      </trkpt>
      <trkpt lat="49.6388" lon="5.7362">
        <ele>354.7</ele>
        <time>1970-01-01T00:54:54.000Z</time>
      </trkpt>
      <trkpt lat="49.63889" lon="5.73618">
        <ele>354.9</ele>
        <time>1970-01-01T00:54:56.000Z</time>
      </trkpt>
      <trkpt lat="49.63893" lon="5.7362">
        <ele>355.1</ele>
        <time>1970-01-01T00:54:59.000Z</time>
      </trkpt>
      <trkpt lat="49.63897" lon="5.73626">
        <ele>355.2</ele>
        <time>1970-01-01T00:55:00.000Z</time>
      </trkpt>
      <trkpt lat="49.63903" lon="5.73632">
        <ele>355.3</ele>
        <time>1970-01-01T00:55:01.000Z</time>
      </trkpt>
      <trkpt lat="49.63906" lon="5.73639">
        <ele>355.3</ele>
        <time>1970-01-01T00:55:02.000Z</time>
      </trkpt>
      <trkpt lat="49.6391" lon="5.73646">
        <ele>355.3</ele>
        <time>1970-01-01T00:55:03.000Z</time>
      </trkpt>
      <trkpt lat="49.63912" lon="5.73653">
        <ele>355.2</ele>
        <time>1970-01-01T00:55:04.000Z</time>
      </trkpt>
      <trkpt lat="49.63915" lon="5.73661">
        <ele>355.2</ele>
        <time>1970-01-01T00:55:06.000Z</time>
      </trkpt>
      <trkpt lat="49.63918" lon="5.73659">
        <ele>355.2</ele>
        <time>1970-01-01T00:55:07.000Z</time>
      </trkpt>
      <trkpt lat="49.63922" lon="5.7366">
        <ele>355.2</ele>
        <time>1970-01-01T00:55:08.000Z</time>
      </trkpt>
      <trkpt lat="49.63931" lon="5.73664">
        <ele>355.2</ele>
        <time>1970-01-01T00:55:09.000Z</time>
      </trkpt>
      <trkpt lat="49.63944" lon="5.73673">
        <ele>355.2</ele>
        <time>1970-01-01T00:55:11.000Z</time>
      </trkpt>
      <trkpt lat="49.63948" lon="5.7368">
        <ele>355.2</ele>
        <time>1970-01-01T00:55:12.000Z</time>
      </trkpt>
      <trkpt lat="49.6395" lon="5.73686">
        <ele>355.2</ele>
        <time>1970-01-01T00:55:13.000Z</time>
      </trkpt>
      <trkpt lat="49.63951" lon="5.73695">
        <ele>355.3</ele>
        <time>1970-01-01T00:55:15.000Z</time>
      </trkpt>
      <trkpt lat="49.63955" lon="5.73708">
        <ele>355.3</ele>
        <time>1970-01-01T00:55:16.000Z</time>
      </trkpt>
      <trkpt lat="49.63958" lon="5.73716">
        <ele>355.3</ele>
        <time>1970-01-01T00:55:17.000Z</time>
      </trkpt>
      <trkpt lat="49.63967" lon="5.7373">
        <ele>355.3</ele>
        <time>1970-01-01T00:55:19.000Z</time>
      </trkpt>
      <trkpt lat="49.63977" lon="5.7374">
        <ele>355.4</ele>
        <time>1970-01-01T00:55:21.000Z</time>
      </trkpt>
      <trkpt lat="49.63982" lon="5.73747">
        <ele>355.5</ele>
        <time>1970-01-01T00:55:22.000Z</time>
      </trkpt>
      <trkpt lat="49.6399" lon="5.73753">
        <ele>355.6</ele>
        <time>1970-01-01T00:55:24.000Z</time>
      </trkpt>
      <trkpt lat="49.63996" lon="5.73754">
        <ele>355.6</ele>
        <time>1970-01-01T00:55:26.000Z</time>
      </trkpt>
      <trkpt lat="49.64008" lon="5.73749">
        <ele>355.5</ele>
        <time>1970-01-01T00:55:27.000Z</time>
      </trkpt>
      <trkpt lat="49.64022" lon="5.73749">
        <ele>355.6</ele>
        <time>1970-01-01T00:55:29.000Z</time>
      </trkpt>
      <trkpt lat="49.64029" lon="5.73749">
        <ele>355.6</ele>
        <time>1970-01-01T00:55:30.000Z</time>
      </trkpt>
      <trkpt lat="49.64037" lon="5.73751">
        <ele>355.8</ele>
        <time>1970-01-01T00:55:32.000Z</time>
      </trkpt>
      <trkpt lat="49.64039" lon="5.73748">
        <ele>355.9</ele>
        <time>1970-01-01T00:55:33.000Z</time>
      </trkpt>
      <trkpt lat="49.64045" lon="5.73743">
        <ele>356</ele>
        <time>1970-01-01T00:55:34.000Z</time>
      </trkpt>
      <trkpt lat="49.64055" lon="5.73729">
        <ele>356.1</ele>
        <time>1970-01-01T00:55:36.000Z</time>
      </trkpt>
      <trkpt lat="49.64065" lon="5.73718">
        <ele>356.2</ele>
        <time>1970-01-01T00:55:38.000Z</time>
      </trkpt>
      <trkpt lat="49.64074" lon="5.73714">
        <ele>356.2</ele>
        <time>1970-01-01T00:55:40.000Z</time>
      </trkpt>
      <trkpt lat="49.64079" lon="5.73713">
        <ele>356.2</ele>
        <time>1970-01-01T00:55:42.000Z</time>
      </trkpt>
      <trkpt lat="49.64081" lon="5.7371">
        <ele>356.2</ele>
        <time>1970-01-01T00:55:43.000Z</time>
      </trkpt>
      <trkpt lat="49.64083" lon="5.73705">
        <ele>356.2</ele>
        <time>1970-01-01T00:55:45.000Z</time>
      </trkpt>
      <trkpt lat="49.64084" lon="5.737">
        <ele>356.2</ele>
        <time>1970-01-01T00:55:46.000Z</time>
      </trkpt>
      <trkpt lat="49.64082" lon="5.73695">
        <ele>356.2</ele>
        <time>1970-01-01T00:55:50.000Z</time>
      </trkpt>
      <trkpt lat="49.64078" lon="5.73694">
        <ele>356.3</ele>
        <time>1970-01-01T00:55:53.000Z</time>
      </trkpt>
      <trkpt lat="49.64068" lon="5.73694">
        <ele>356.5</ele>
        <time>1970-01-01T00:55:55.000Z</time>
      </trkpt>
      <trkpt lat="49.64066" lon="5.73696">
        <ele>356.5</ele>
        <time>1970-01-01T00:55:56.000Z</time>
      </trkpt>
      <trkpt lat="49.64059" lon="5.73687">
        <ele>356.6</ele>
        <time>1970-01-01T00:56:00.000Z</time>
      </trkpt>
      <trkpt lat="49.64061" lon="5.73691">
        <ele>356.6</ele>
        <time>1970-01-01T00:56:01.000Z</time>
      </trkpt>
      <trkpt lat="49.64055" lon="5.73685">
        <ele>356.6</ele>
        <time>1970-01-01T00:56:08.000Z</time>
      </trkpt>
      <trkpt lat="49.64054" lon="5.73682">
        <ele>356.8</ele>
        <time>1970-01-01T00:56:09.000Z</time>
      </trkpt>
      <trkpt lat="49.64051" lon="5.73677">
        <ele>356.9</ele>
        <time>1970-01-01T00:56:10.000Z</time>
      </trkpt>
      <trkpt lat="49.64049" lon="5.73671">
        <ele>357.1</ele>
        <time>1970-01-01T00:56:12.000Z</time>
      </trkpt>
      <trkpt lat="49.64048" lon="5.73663">
        <ele>357.2</ele>
        <time>1970-01-01T00:56:13.000Z</time>
      </trkpt>
      <trkpt lat="49.64046" lon="5.73653">
        <ele>357.5</ele>
        <time>1970-01-01T00:56:15.000Z</time>
      </trkpt>
      <trkpt lat="49.64043" lon="5.73645">
        <ele>357.7</ele>
        <time>1970-01-01T00:56:17.000Z</time>
      </trkpt>
      <trkpt lat="49.64041" lon="5.73639">
        <ele>357.9</ele>
        <time>1970-01-01T00:56:18.000Z</time>
      </trkpt>
      <trkpt lat="49.64036" lon="5.73634">
        <ele>358</ele>
        <time>1970-01-01T00:56:19.000Z</time>
      </trkpt>
      <trkpt lat="49.64032" lon="5.73634">
        <ele>358.2</ele>
        <time>1970-01-01T00:56:20.000Z</time>
      </trkpt>
      <trkpt lat="49.64029" lon="5.73634">
        <ele>358.3</ele>
        <time>1970-01-01T00:56:21.000Z</time>
      </trkpt>
      <trkpt lat="49.64026" lon="5.73636">
        <ele>358.4</ele>
        <time>1970-01-01T00:56:22.000Z</time>
      </trkpt>
      <trkpt lat="49.64016" lon="5.73635">
        <ele>358.7</ele>
        <time>1970-01-01T00:56:24.000Z</time>
      </trkpt>
      <trkpt lat="49.6402" lon="5.73634">
        <ele>358.8</ele>
        <time>1970-01-01T00:56:27.000Z</time>
      </trkpt>
      <trkpt lat="49.64013" lon="5.73629">
        <ele>359.1</ele>
        <time>1970-01-01T00:56:30.000Z</time>
      </trkpt>
      <trkpt lat="49.64011" lon="5.73624">
        <ele>359.3</ele>
        <time>1970-01-01T00:56:31.000Z</time>
      </trkpt>
      <trkpt lat="49.64007" lon="5.7362">
        <ele>359.6</ele>
        <time>1970-01-01T00:56:33.000Z</time>
      </trkpt>
      <trkpt lat="49.63993" lon="5.73602">
        <ele>360.2</ele>
        <time>1970-01-01T00:56:34.000Z</time>
      </trkpt>
      <trkpt lat="49.63975" lon="5.73584">
        <ele>360.1</ele>
        <time>1970-01-01T00:56:36.000Z</time>
      </trkpt>
      <trkpt lat="49.6397" lon="5.73579">
        <ele>360</ele>
        <time>1970-01-01T00:56:38.000Z</time>
      </trkpt>
      <trkpt lat="49.63966" lon="5.7358">
        <ele>359.9</ele>
        <time>1970-01-01T00:56:39.000Z</time>
      </trkpt>
      <trkpt lat="49.63962" lon="5.7358">
        <ele>359.8</ele>
        <time>1970-01-01T00:56:40.000Z</time>
      </trkpt>
      <trkpt lat="49.63958" lon="5.73577">
        <ele>359.7</ele>
        <time>1970-01-01T00:56:41.000Z</time>
      </trkpt>
      <trkpt lat="49.63954" lon="5.73571">
        <ele>359.5</ele>
        <time>1970-01-01T00:56:42.000Z</time>
      </trkpt>
      <trkpt lat="49.63952" lon="5.73562">
        <ele>359.3</ele>
        <time>1970-01-01T00:56:43.000Z</time>
      </trkpt>
      <trkpt lat="49.63947" lon="5.7354">
        <ele>358.6</ele>
        <time>1970-01-01T00:56:45.000Z</time>
      </trkpt>
      <trkpt lat="49.63946" lon="5.73523">
        <ele>358.2</ele>
        <time>1970-01-01T00:56:47.000Z</time>
      </trkpt>
      <trkpt lat="49.63949" lon="5.73524">
        <ele>358</ele>
        <time>1970-01-01T00:56:48.000Z</time>
      </trkpt>
      <trkpt lat="49.6394" lon="5.73498">
        <ele>357.1</ele>
        <time>1970-01-01T00:56:52.000Z</time>
      </trkpt>
      <trkpt lat="49.63935" lon="5.73481">
        <ele>356.5</ele>
        <time>1970-01-01T00:56:53.000Z</time>
      </trkpt>
      <trkpt lat="49.63934" lon="5.73467">
        <ele>356.1</ele>
        <time>1970-01-01T00:56:55.000Z</time>
      </trkpt>
      <trkpt lat="49.63935" lon="5.73458">
        <ele>355.9</ele>
        <time>1970-01-01T00:56:56.000Z</time>
      </trkpt>
      <trkpt lat="49.63934" lon="5.7345">
        <ele>355.8</ele>
        <time>1970-01-01T00:56:57.000Z</time>
      </trkpt>
      <trkpt lat="49.63928" lon="5.73438">
        <ele>355.6</ele>
        <time>1970-01-01T00:56:59.000Z</time>
      </trkpt>
      <trkpt lat="49.63923" lon="5.73433">
        <ele>355.3</ele>
        <time>1970-01-01T00:57:00.000Z</time>
      </trkpt>
      <trkpt lat="49.63918" lon="5.73429">
        <ele>355</ele>
        <time>1970-01-01T00:57:02.000Z</time>
      </trkpt>
      <trkpt lat="49.63914" lon="5.73426">
        <ele>354.9</ele>
        <time>1970-01-01T00:57:03.000Z</time>
      </trkpt>
      <trkpt lat="49.63911" lon="5.73423">
        <ele>355.3</ele>
        <time>1970-01-01T00:57:04.000Z</time>
      </trkpt>
      <trkpt lat="49.63907" lon="5.73419">
        <ele>355.7</ele>
        <time>1970-01-01T00:57:05.000Z</time>
      </trkpt>
      <trkpt lat="49.63903" lon="5.73416">
        <ele>356</ele>
        <time>1970-01-01T00:57:06.000Z</time>
      </trkpt>
      <trkpt lat="49.63889" lon="5.73396">
        <ele>357.4</ele>
        <time>1970-01-01T00:57:08.000Z</time>
      </trkpt>
      <trkpt lat="49.6388" lon="5.73386">
        <ele>358.2</ele>
        <time>1970-01-01T00:57:10.000Z</time>
      </trkpt>
      <trkpt lat="49.63886" lon="5.73396">
        <ele>358.8</ele>
        <time>1970-01-01T00:57:12.000Z</time>
      </trkpt>
      <trkpt lat="49.6387" lon="5.73379">
        <ele>360.2</ele>
        <time>1970-01-01T00:57:13.000Z</time>
      </trkpt>
      <trkpt lat="49.63862" lon="5.7337">
        <ele>360.9</ele>
        <time>1970-01-01T00:57:14.000Z</time>
      </trkpt>
      <trkpt lat="49.63855" lon="5.73358">
        <ele>361.6</ele>
        <time>1970-01-01T00:57:15.000Z</time>
      </trkpt>
      <trkpt lat="49.63848" lon="5.73346">
        <ele>362.5</ele>
        <time>1970-01-01T00:57:17.000Z</time>
      </trkpt>
      <trkpt lat="49.63853" lon="5.73339">
        <ele>362.8</ele>
        <time>1970-01-01T00:57:19.000Z</time>
      </trkpt>
      <trkpt lat="49.63851" lon="5.73333">
        <ele>363</ele>
        <time>1970-01-01T00:57:22.000Z</time>
      </trkpt>
      <trkpt lat="49.63848" lon="5.73326">
        <ele>363.2</ele>
        <time>1970-01-01T00:57:24.000Z</time>
      </trkpt>
      <trkpt lat="49.63844" lon="5.7332">
        <ele>363.3</ele>
        <time>1970-01-01T00:57:27.000Z</time>
      </trkpt>
      <trkpt lat="49.63841" lon="5.73316">
        <ele>363.3</ele>
        <time>1970-01-01T00:57:29.000Z</time>
      </trkpt>
      <trkpt lat="49.63832" lon="5.73307">
        <ele>363.6</ele>
        <time>1970-01-01T00:57:30.000Z</time>
      </trkpt>
      <trkpt lat="49.6383" lon="5.73307">
        <ele>363.6</ele>
        <time>1970-01-01T00:57:32.000Z</time>
      </trkpt>
      <trkpt lat="49.63826" lon="5.73304">
        <ele>363.8</ele>
        <time>1970-01-01T00:57:34.000Z</time>
      </trkpt>
      <trkpt lat="49.63822" lon="5.73301">
        <ele>364</ele>
        <time>1970-01-01T00:57:36.000Z</time>
      </trkpt>
      <trkpt lat="49.6382" lon="5.73298">
        <ele>364.1</ele>
        <time>1970-01-01T00:57:37.000Z</time>
      </trkpt>
      <trkpt lat="49.63817" lon="5.73295">
        <ele>364.2</ele>
        <time>1970-01-01T00:57:38.000Z</time>
      </trkpt>
      <trkpt lat="49.63815" lon="5.7329">
        <ele>364.3</ele>
        <time>1970-01-01T00:57:40.000Z</time>
      </trkpt>
      <trkpt lat="49.63798" lon="5.73263">
        <ele>365</ele>
        <time>1970-01-01T00:57:41.000Z</time>
      </trkpt>
      <trkpt lat="49.63783" lon="5.73243">
        <ele>365.4</ele>
        <time>1970-01-01T00:57:43.000Z</time>
      </trkpt>
      <trkpt lat="49.63778" lon="5.73233">
        <ele>365.6</ele>
        <time>1970-01-01T00:57:44.000Z</time>
      </trkpt>
      <trkpt lat="49.63772" lon="5.73224">
        <ele>365.8</ele>
        <time>1970-01-01T00:57:45.000Z</time>
      </trkpt>
      <trkpt lat="49.63762" lon="5.73208">
        <ele>366.1</ele>
        <time>1970-01-01T00:57:47.000Z</time>
      </trkpt>
      <trkpt lat="49.6376" lon="5.73205">
        <ele>366.2</ele>
        <time>1970-01-01T00:57:48.000Z</time>
      </trkpt>
      <trkpt lat="49.63761" lon="5.73217">
        <ele>366.4</ele>
        <time>1970-01-01T00:57:50.000Z</time>
      </trkpt>
      <trkpt lat="49.63755" lon="5.73204">
        <ele>366.6</ele>
        <time>1970-01-01T00:57:51.000Z</time>
      </trkpt>
      <trkpt lat="49.63748" lon="5.73189">
        <ele>367</ele>
        <time>1970-01-01T00:57:52.000Z</time>
      </trkpt>
      <trkpt lat="49.6374" lon="5.73174">
        <ele>367.6</ele>
        <time>1970-01-01T00:57:54.000Z</time>
      </trkpt>
      <trkpt lat="49.63738" lon="5.7317">
        <ele>367.8</ele>
        <time>1970-01-01T00:57:55.000Z</time>
      </trkpt>
      <trkpt lat="49.63733" lon="5.73163">
        <ele>368.2</ele>
        <time>1970-01-01T00:57:56.000Z</time>
      </trkpt>
      <trkpt lat="49.63732" lon="5.7316">
        <ele>368.3</ele>
        <time>1970-01-01T00:58:00.000Z</time>
      </trkpt>
      <trkpt lat="49.63735" lon="5.73159">
        <ele>368.5</ele>
        <time>1970-01-01T00:58:01.000Z</time>
      </trkpt>
      <trkpt lat="49.63727" lon="5.73144">
        <ele>369.2</ele>
        <time>1970-01-01T00:58:04.000Z</time>
      </trkpt>
      <trkpt lat="49.63723" lon="5.73135">
        <ele>369.5</ele>
        <time>1970-01-01T00:58:05.000Z</time>
      </trkpt>
      <trkpt lat="49.63718" lon="5.73126">
        <ele>369.9</ele>
        <time>1970-01-01T00:58:07.000Z</time>
      </trkpt>
      <trkpt lat="49.63715" lon="5.73117">
        <ele>370.2</ele>
        <time>1970-01-01T00:58:08.000Z</time>
      </trkpt>
      <trkpt lat="49.63712" lon="5.73109">
        <ele>370.5</ele>
        <time>1970-01-01T00:58:10.000Z</time>
      </trkpt>
      <trkpt lat="49.6371" lon="5.73104">
        <ele>370.6</ele>
        <time>1970-01-01T00:58:11.000Z</time>
      </trkpt>
      <trkpt lat="49.63709" lon="5.73099">
        <ele>370.8</ele>
        <time>1970-01-01T00:58:12.000Z</time>
      </trkpt>
      <trkpt lat="49.63707" lon="5.73095">
        <ele>371</ele>
        <time>1970-01-01T00:58:13.000Z</time>
      </trkpt>
      <trkpt lat="49.63706" lon="5.73085">
        <ele>371.3</ele>
        <time>1970-01-01T00:58:16.000Z</time>
      </trkpt>
      <trkpt lat="49.63704" lon="5.7308">
        <ele>371.5</ele>
        <time>1970-01-01T00:58:17.000Z</time>
      </trkpt>
      <trkpt lat="49.63703" lon="5.73075">
        <ele>371.7</ele>
        <time>1970-01-01T00:58:18.000Z</time>
      </trkpt>
      <trkpt lat="49.63702" lon="5.7307">
        <ele>371.9</ele>
        <time>1970-01-01T00:58:19.000Z</time>
      </trkpt>
      <trkpt lat="49.637" lon="5.73064">
        <ele>372.1</ele>
        <time>1970-01-01T00:58:20.000Z</time>
      </trkpt>
      <trkpt lat="49.63697" lon="5.73055">
        <ele>372.4</ele>
        <time>1970-01-01T00:58:22.000Z</time>
      </trkpt>
      <trkpt lat="49.63695" lon="5.73048">
        <ele>372.5</ele>
        <time>1970-01-01T00:58:24.000Z</time>
      </trkpt>
      <trkpt lat="49.63693" lon="5.73043">
        <ele>372.5</ele>
        <time>1970-01-01T00:58:25.000Z</time>
      </trkpt>
      <trkpt lat="49.63691" lon="5.73037">
        <ele>372.6</ele>
        <time>1970-01-01T00:58:26.000Z</time>
      </trkpt>
      <trkpt lat="49.63689" lon="5.73032">
        <ele>372.6</ele>
        <time>1970-01-01T00:58:27.000Z</time>
      </trkpt>
      <trkpt lat="49.63674" lon="5.72991">
        <ele>371.6</ele>
        <time>1970-01-01T00:58:29.000Z</time>
      </trkpt>
      <trkpt lat="49.63664" lon="5.72967">
        <ele>370.8</ele>
        <time>1970-01-01T00:58:31.000Z</time>
      </trkpt>
      <trkpt lat="49.63659" lon="5.72957">
        <ele>370.4</ele>
        <time>1970-01-01T00:58:32.000Z</time>
      </trkpt>
      <trkpt lat="49.63648" lon="5.72941">
        <ele>369.4</ele>
        <time>1970-01-01T00:58:34.000Z</time>
      </trkpt>
      <trkpt lat="49.63642" lon="5.72933">
        <ele>368.8</ele>
        <time>1970-01-01T00:58:35.000Z</time>
      </trkpt>
      <trkpt lat="49.63628" lon="5.72919">
        <ele>367.8</ele>
        <time>1970-01-01T00:58:37.000Z</time>
      </trkpt>
      <trkpt lat="49.63621" lon="5.72914">
        <ele>367.5</ele>
        <time>1970-01-01T00:58:38.000Z</time>
      </trkpt>
      <trkpt lat="49.63616" lon="5.72909">
        <ele>367.2</ele>
        <time>1970-01-01T00:58:39.000Z</time>
      </trkpt>
      <trkpt lat="49.63608" lon="5.72895">
        <ele>367.3</ele>
        <time>1970-01-01T00:58:41.000Z</time>
      </trkpt>
      <trkpt lat="49.63604" lon="5.72888">
        <ele>367.5</ele>
        <time>1970-01-01T00:58:42.000Z</time>
      </trkpt>
      <trkpt lat="49.636" lon="5.72874">
        <ele>367.7</ele>
        <time>1970-01-01T00:58:44.000Z</time>
      </trkpt>
      <trkpt lat="49.63598" lon="5.72868">
        <ele>367.8</ele>
        <time>1970-01-01T00:58:45.000Z</time>
      </trkpt>
      <trkpt lat="49.63597" lon="5.72865">
        <ele>367.9</ele>
        <time>1970-01-01T00:58:46.000Z</time>
      </trkpt>
      <trkpt lat="49.63592" lon="5.72853">
        <ele>367.9</ele>
        <time>1970-01-01T00:58:48.000Z</time>
      </trkpt>
      <trkpt lat="49.63591" lon="5.72847">
        <ele>367.9</ele>
        <time>1970-01-01T00:58:49.000Z</time>
      </trkpt>
      <trkpt lat="49.63588" lon="5.72842">
        <ele>367.9</ele>
        <time>1970-01-01T00:58:50.000Z</time>
      </trkpt>
      <trkpt lat="49.63582" lon="5.72832">
        <ele>367.9</ele>
        <time>1970-01-01T00:58:52.000Z</time>
      </trkpt>
      <trkpt lat="49.63585" lon="5.7284">
        <ele>367.9</ele>
        <time>1970-01-01T00:58:54.000Z</time>
      </trkpt>
      <trkpt lat="49.63582" lon="5.72844">
        <ele>367.9</ele>
        <time>1970-01-01T00:58:55.000Z</time>
      </trkpt>
      <trkpt lat="49.63578" lon="5.72838">
        <ele>368</ele>
        <time>1970-01-01T00:58:56.000Z</time>
      </trkpt>
      <trkpt lat="49.63575" lon="5.72831">
        <ele>367.9</ele>
        <time>1970-01-01T00:58:57.000Z</time>
      </trkpt>
      <trkpt lat="49.63561" lon="5.728">
        <ele>367.8</ele>
        <time>1970-01-01T00:58:59.000Z</time>
      </trkpt>
      <trkpt lat="49.63551" lon="5.72784">
        <ele>367.7</ele>
        <time>1970-01-01T00:59:01.000Z</time>
      </trkpt>
      <trkpt lat="49.63542" lon="5.72771">
        <ele>367.6</ele>
        <time>1970-01-01T00:59:03.000Z</time>
      </trkpt>
      <trkpt lat="49.63532" lon="5.72757">
        <ele>367.5</ele>
        <time>1970-01-01T00:59:05.000Z</time>
      </trkpt>
      <trkpt lat="49.63522" lon="5.72742">
        <ele>367.6</ele>
        <time>1970-01-01T00:59:07.000Z</time>
      </trkpt>
      <trkpt lat="49.63518" lon="5.72733">
        <ele>367.6</ele>
        <time>1970-01-01T00:59:08.000Z</time>
      </trkpt>
      <trkpt lat="49.63513" lon="5.72726">
        <ele>367.6</ele>
        <time>1970-01-01T00:59:09.000Z</time>
      </trkpt>
      <trkpt lat="49.63504" lon="5.72715">
        <ele>367.6</ele>
        <time>1970-01-01T00:59:11.000Z</time>
      </trkpt>
      <trkpt lat="49.635" lon="5.72711">
        <ele>367.5</ele>
        <time>1970-01-01T00:59:12.000Z</time>
      </trkpt>
      <trkpt lat="49.63495" lon="5.72705">
        <ele>367.5</ele>
        <time>1970-01-01T00:59:13.000Z</time>
      </trkpt>
      <trkpt lat="49.63486" lon="5.72689">
        <ele>367.6</ele>
        <time>1970-01-01T00:59:15.000Z</time>
      </trkpt>
      <trkpt lat="49.63482" lon="5.7268">
        <ele>367.6</ele>
        <time>1970-01-01T00:59:16.000Z</time>
      </trkpt>
      <trkpt lat="49.63473" lon="5.72667">
        <ele>366.9</ele>
        <time>1970-01-01T00:59:18.000Z</time>
      </trkpt>
      <trkpt lat="49.63469" lon="5.72661">
        <ele>366.7</ele>
        <time>1970-01-01T00:59:19.000Z</time>
      </trkpt>
      <trkpt lat="49.63462" lon="5.7265">
        <ele>366.4</ele>
        <time>1970-01-01T00:59:21.000Z</time>
      </trkpt>
      <trkpt lat="49.63452" lon="5.72632">
        <ele>366.2</ele>
        <time>1970-01-01T00:59:23.000Z</time>
      </trkpt>
      <trkpt lat="49.63444" lon="5.72616">
        <ele>366.1</ele>
        <time>1970-01-01T00:59:25.000Z</time>
      </trkpt>
      <trkpt lat="49.63437" lon="5.72601">
        <ele>365.9</ele>
        <time>1970-01-01T00:59:27.000Z</time>
      </trkpt>
      <trkpt lat="49.63428" lon="5.72588">
        <ele>365.6</ele>
        <time>1970-01-01T00:59:29.000Z</time>
      </trkpt>
      <trkpt lat="49.63425" lon="5.72581">
        <ele>365.4</ele>
        <time>1970-01-01T00:59:30.000Z</time>
      </trkpt>
      <trkpt lat="49.63419" lon="5.72567">
        <ele>365.1</ele>
        <time>1970-01-01T00:59:32.000Z</time>
      </trkpt>
      <trkpt lat="49.63416" lon="5.72562">
        <ele>364.9</ele>
        <time>1970-01-01T00:59:33.000Z</time>
      </trkpt>
      <trkpt lat="49.63406" lon="5.72549">
        <ele>364.6</ele>
        <time>1970-01-01T00:59:35.000Z</time>
      </trkpt>
      <trkpt lat="49.63401" lon="5.72535">
        <ele>364.4</ele>
        <time>1970-01-01T00:59:37.000Z</time>
      </trkpt>
      <trkpt lat="49.63399" lon="5.72519">
        <ele>364.3</ele>
        <time>1970-01-01T00:59:39.000Z</time>
      </trkpt>
      <trkpt lat="49.63395" lon="5.72509">
        <ele>364.2</ele>
        <time>1970-01-01T00:59:41.000Z</time>
      </trkpt>
      <trkpt lat="49.63392" lon="5.72502">
        <ele>364.2</ele>
        <time>1970-01-01T00:59:42.000Z</time>
      </trkpt>
      <trkpt lat="49.63385" lon="5.72488">
        <ele>364.2</ele>
        <time>1970-01-01T00:59:44.000Z</time>
      </trkpt>
      <trkpt lat="49.63377" lon="5.72476">
        <ele>364.1</ele>
        <time>1970-01-01T00:59:46.000Z</time>
      </trkpt>
      <trkpt lat="49.63376" lon="5.7247">
        <ele>364.1</ele>
        <time>1970-01-01T00:59:47.000Z</time>
      </trkpt>
      <trkpt lat="49.6337" lon="5.72454">
        <ele>364</ele>
        <time>1970-01-01T00:59:49.000Z</time>
      </trkpt>
      <trkpt lat="49.63374" lon="5.7246">
        <ele>364</ele>
        <time>1970-01-01T00:59:51.000Z</time>
      </trkpt>
      <trkpt lat="49.63376" lon="5.72462">
        <ele>364</ele>
        <time>1970-01-01T00:59:52.000Z</time>
      </trkpt>
      <trkpt lat="49.63351" lon="5.72423">
        <ele>363.7</ele>
        <time>1970-01-01T00:59:55.000Z</time>
      </trkpt>
      <trkpt lat="49.63342" lon="5.72404">
        <ele>363.4</ele>
        <time>1970-01-01T00:59:57.000Z</time>
      </trkpt>
      <trkpt lat="49.6334" lon="5.72394">
        <ele>363.4</ele>
        <time>1970-01-01T00:59:58.000Z</time>
      </trkpt>
      <trkpt lat="49.63333" lon="5.72377">
        <ele>363.3</ele>
        <time>1970-01-01T01:00:00.000Z</time>
      </trkpt>
      <trkpt lat="49.63331" lon="5.72371">
        <ele>363.3</ele>
        <time>1970-01-01T01:00:01.000Z</time>
      </trkpt>
      <trkpt lat="49.63325" lon="5.72354">
        <ele>363.2</ele>
        <time>1970-01-01T01:00:03.000Z</time>
      </trkpt>
      <trkpt lat="49.63316" lon="5.72336">
        <ele>363.1</ele>
        <time>1970-01-01T01:00:05.000Z</time>
      </trkpt>
      <trkpt lat="49.63307" lon="5.7232">
        <ele>363.1</ele>
        <time>1970-01-01T01:00:07.000Z</time>
      </trkpt>
      <trkpt lat="49.63301" lon="5.7231">
        <ele>363</ele>
        <time>1970-01-01T01:00:09.000Z</time>
      </trkpt>
      <trkpt lat="49.63298" lon="5.72309">
        <ele>363</ele>
        <time>1970-01-01T01:00:10.000Z</time>
      </trkpt>
      <trkpt lat="49.63293" lon="5.72301">
        <ele>363</ele>
        <time>1970-01-01T01:00:11.000Z</time>
      </trkpt>
      <trkpt lat="49.63282" lon="5.72289">
        <ele>363.1</ele>
        <time>1970-01-01T01:00:13.000Z</time>
      </trkpt>
      <trkpt lat="49.63277" lon="5.72281">
        <ele>363.1</ele>
        <time>1970-01-01T01:00:14.000Z</time>
      </trkpt>
      <trkpt lat="49.63272" lon="5.72276">
        <ele>363.1</ele>
        <time>1970-01-01T01:00:16.000Z</time>
      </trkpt>
      <trkpt lat="49.63268" lon="5.72276">
        <ele>363.1</ele>
        <time>1970-01-01T01:00:18.000Z</time>
      </trkpt>
      <trkpt lat="49.63266" lon="5.7227">
        <ele>363.1</ele>
        <time>1970-01-01T01:00:21.000Z</time>
      </trkpt>
      <trkpt lat="49.63265" lon="5.72264">
        <ele>363.2</ele>
        <time>1970-01-01T01:00:22.000Z</time>
      </trkpt>
      <trkpt lat="49.63264" lon="5.72259">
        <ele>363.2</ele>
        <time>1970-01-01T01:00:23.000Z</time>
      </trkpt>
      <trkpt lat="49.63262" lon="5.72254">
        <ele>363.3</ele>
        <time>1970-01-01T01:00:25.000Z</time>
      </trkpt>
      <trkpt lat="49.6326" lon="5.7225">
        <ele>363.3</ele>
        <time>1970-01-01T01:00:26.000Z</time>
      </trkpt>
      <trkpt lat="49.63259" lon="5.72246">
        <ele>363.4</ele>
        <time>1970-01-01T01:00:28.000Z</time>
      </trkpt>
      <trkpt lat="49.63256" lon="5.72241">
        <ele>363.5</ele>
        <time>1970-01-01T01:00:29.000Z</time>
      </trkpt>
      <trkpt lat="49.63254" lon="5.72236">
        <ele>363.5</ele>
        <time>1970-01-01T01:00:30.000Z</time>
      </trkpt>
      <trkpt lat="49.63252" lon="5.72231">
        <ele>363.6</ele>
        <time>1970-01-01T01:00:31.000Z</time>
      </trkpt>
      <trkpt lat="49.6325" lon="5.72224">
        <ele>363.7</ele>
        <time>1970-01-01T01:00:33.000Z</time>
      </trkpt>
      <trkpt lat="49.63249" lon="5.72218">
        <ele>363.7</ele>
        <time>1970-01-01T01:00:34.000Z</time>
      </trkpt>
      <trkpt lat="49.63249" lon="5.72213">
        <ele>363.8</ele>
        <time>1970-01-01T01:00:35.000Z</time>
      </trkpt>
      <trkpt lat="49.63248" lon="5.72207">
        <ele>363.9</ele>
        <time>1970-01-01T01:00:37.000Z</time>
      </trkpt>
      <trkpt lat="49.6325" lon="5.72201">
        <ele>363.9</ele>
        <time>1970-01-01T01:00:39.000Z</time>
      </trkpt>
      <trkpt lat="49.6325" lon="5.72197">
        <ele>364</ele>
        <time>1970-01-01T01:00:40.000Z</time>
      </trkpt>
      <trkpt lat="49.63251" lon="5.7219">
        <ele>364</ele>
        <time>1970-01-01T01:00:42.000Z</time>
      </trkpt>
      <trkpt lat="49.63252" lon="5.72184">
        <ele>364.3</ele>
        <time>1970-01-01T01:00:45.000Z</time>
      </trkpt>
      <trkpt lat="49.63253" lon="5.72176">
        <ele>364.3</ele>
        <time>1970-01-01T01:00:47.000Z</time>
      </trkpt>
      <trkpt lat="49.63256" lon="5.72168">
        <ele>364.3</ele>
        <time>1970-01-01T01:00:49.000Z</time>
      </trkpt>
      <trkpt lat="49.63257" lon="5.72163">
        <ele>364.2</ele>
        <time>1970-01-01T01:00:51.000Z</time>
      </trkpt>
      <trkpt lat="49.63259" lon="5.72158">
        <ele>364.2</ele>
        <time>1970-01-01T01:00:52.000Z</time>
      </trkpt>
      <trkpt lat="49.6326" lon="5.72155">
        <ele>364.2</ele>
        <time>1970-01-01T01:00:53.000Z</time>
      </trkpt>
      <trkpt lat="49.63262" lon="5.7215">
        <ele>364.2</ele>
        <time>1970-01-01T01:00:54.000Z</time>
      </trkpt>
      <trkpt lat="49.63264" lon="5.72144">
        <ele>364.2</ele>
        <time>1970-01-01T01:00:56.000Z</time>
      </trkpt>
      <trkpt lat="49.63267" lon="5.72139">
        <ele>364.2</ele>
        <time>1970-01-01T01:00:57.000Z</time>
      </trkpt>
      <trkpt lat="49.63269" lon="5.72134">
        <ele>364.2</ele>
        <time>1970-01-01T01:00:58.000Z</time>
      </trkpt>
      <trkpt lat="49.63271" lon="5.72131">
        <ele>364.2</ele>
        <time>1970-01-01T01:00:59.000Z</time>
      </trkpt>
      <trkpt lat="49.63273" lon="5.72127">
        <ele>364.2</ele>
        <time>1970-01-01T01:01:00.000Z</time>
      </trkpt>
      <trkpt lat="49.63276" lon="5.72123">
        <ele>364.2</ele>
        <time>1970-01-01T01:01:02.000Z</time>
      </trkpt>
      <trkpt lat="49.63279" lon="5.72119">
        <ele>364.1</ele>
        <time>1970-01-01T01:01:03.000Z</time>
      </trkpt>
      <trkpt lat="49.63282" lon="5.72116">
        <ele>364.1</ele>
        <time>1970-01-01T01:01:04.000Z</time>
      </trkpt>
      <trkpt lat="49.63298" lon="5.72091">
        <ele>364.1</ele>
        <time>1970-01-01T01:01:06.000Z</time>
      </trkpt>
      <trkpt lat="49.63306" lon="5.72078">
        <ele>364</ele>
        <time>1970-01-01T01:01:07.000Z</time>
      </trkpt>
      <trkpt lat="49.63318" lon="5.72059">
        <ele>364</ele>
        <time>1970-01-01T01:01:09.000Z</time>
      </trkpt>
      <trkpt lat="49.63324" lon="5.72049">
        <ele>364</ele>
        <time>1970-01-01T01:01:10.000Z</time>
      </trkpt>
      <trkpt lat="49.63325" lon="5.72054">
        <ele>364</ele>
        <time>1970-01-01T01:01:12.000Z</time>
      </trkpt>
      <trkpt lat="49.6333" lon="5.72035">
        <ele>363.9</ele>
        <time>1970-01-01T01:01:15.000Z</time>
      </trkpt>
      <trkpt lat="49.63339" lon="5.72019">
        <ele>363.9</ele>
        <time>1970-01-01T01:01:17.000Z</time>
      </trkpt>
      <trkpt lat="49.63337" lon="5.72029">
        <ele>363.9</ele>
        <time>1970-01-01T01:01:18.000Z</time>
      </trkpt>
      <trkpt lat="49.63344" lon="5.7202">
        <ele>363.8</ele>
        <time>1970-01-01T01:01:20.000Z</time>
      </trkpt>
      <trkpt lat="49.63348" lon="5.72011">
        <ele>363.8</ele>
        <time>1970-01-01T01:01:21.000Z</time>
      </trkpt>
      <trkpt lat="49.63352" lon="5.71989">
        <ele>363.7</ele>
        <time>1970-01-01T01:01:30.000Z</time>
      </trkpt>
      <trkpt lat="49.63352" lon="5.71981">
        <ele>363.7</ele>
        <time>1970-01-01T01:01:31.000Z</time>
      </trkpt>
      <trkpt lat="49.63352" lon="5.71974">
        <ele>363.8</ele>
        <time>1970-01-01T01:01:33.000Z</time>
      </trkpt>
      <trkpt lat="49.63351" lon="5.71969">
        <ele>363.8</ele>
        <time>1970-01-01T01:01:34.000Z</time>
      </trkpt>
      <trkpt lat="49.6335" lon="5.71962">
        <ele>364</ele>
        <time>1970-01-01T01:01:35.000Z</time>
      </trkpt>
      <trkpt lat="49.63349" lon="5.71958">
        <ele>364.1</ele>
        <time>1970-01-01T01:01:36.000Z</time>
      </trkpt>
      <trkpt lat="49.63347" lon="5.71953">
        <ele>364.2</ele>
        <time>1970-01-01T01:01:38.000Z</time>
      </trkpt>
      <trkpt lat="49.63345" lon="5.71948">
        <ele>364.3</ele>
        <time>1970-01-01T01:01:39.000Z</time>
      </trkpt>
      <trkpt lat="49.63342" lon="5.71944">
        <ele>364.4</ele>
        <time>1970-01-01T01:01:40.000Z</time>
      </trkpt>
      <trkpt lat="49.63332" lon="5.71932">
        <ele>364.7</ele>
        <time>1970-01-01T01:01:41.000Z</time>
      </trkpt>
      <trkpt lat="49.63326" lon="5.71922">
        <ele>364.8</ele>
        <time>1970-01-01T01:01:45.000Z</time>
      </trkpt>
      <trkpt lat="49.63321" lon="5.71916">
        <ele>364.9</ele>
        <time>1970-01-01T01:01:46.000Z</time>
      </trkpt>
      <trkpt lat="49.63304" lon="5.71905">
        <ele>364.9</ele>
        <time>1970-01-01T01:01:48.000Z</time>
      </trkpt>
      <trkpt lat="49.63295" lon="5.71899">
        <ele>364.8</ele>
        <time>1970-01-01T01:01:49.000Z</time>
      </trkpt>
      <trkpt lat="49.63282" lon="5.71887">
        <ele>364.7</ele>
        <time>1970-01-01T01:01:51.000Z</time>
      </trkpt>
      <trkpt lat="49.63279" lon="5.71882">
        <ele>364.6</ele>
        <time>1970-01-01T01:01:54.000Z</time>
      </trkpt>
      <trkpt lat="49.63277" lon="5.71878">
        <ele>364.8</ele>
        <time>1970-01-01T01:01:55.000Z</time>
      </trkpt>
      <trkpt lat="49.63274" lon="5.71872">
        <ele>364.9</ele>
        <time>1970-01-01T01:01:56.000Z</time>
      </trkpt>
      <trkpt lat="49.63263" lon="5.71866">
        <ele>365.1</ele>
        <time>1970-01-01T01:01:57.000Z</time>
      </trkpt>
      <trkpt lat="49.63257" lon="5.71862">
        <ele>365.2</ele>
        <time>1970-01-01T01:01:58.000Z</time>
      </trkpt>
      <trkpt lat="49.63259" lon="5.71861">
        <ele>365.2</ele>
        <time>1970-01-01T01:02:00.000Z</time>
      </trkpt>
      <trkpt lat="49.63257" lon="5.71853">
        <ele>365.3</ele>
        <time>1970-01-01T01:02:02.000Z</time>
      </trkpt>
      <trkpt lat="49.63248" lon="5.71841">
        <ele>365.3</ele>
        <time>1970-01-01T01:02:04.000Z</time>
      </trkpt>
      <trkpt lat="49.63253" lon="5.71845">
        <ele>365.4</ele>
        <time>1970-01-01T01:02:05.000Z</time>
      </trkpt>
      <trkpt lat="49.63241" lon="5.71839">
        <ele>365.5</ele>
        <time>1970-01-01T01:02:06.000Z</time>
      </trkpt>
      <trkpt lat="49.63237" lon="5.71837">
        <ele>365.5</ele>
        <time>1970-01-01T01:02:07.000Z</time>
      </trkpt>
      <trkpt lat="49.63211" lon="5.71827">
        <ele>365.5</ele>
        <time>1970-01-01T01:02:09.000Z</time>
      </trkpt>
      <trkpt lat="49.63208" lon="5.71829">
        <ele>365.5</ele>
        <time>1970-01-01T01:02:10.000Z</time>
      </trkpt>
      <trkpt lat="49.63205" lon="5.71832">
        <ele>365.5</ele>
        <time>1970-01-01T01:02:11.000Z</time>
      </trkpt>
      <trkpt lat="49.63201" lon="5.71833">
        <ele>365.6</ele>
        <time>1970-01-01T01:02:13.000Z</time>
      </trkpt>
      <trkpt lat="49.63195" lon="5.71831">
        <ele>365.7</ele>
        <time>1970-01-01T01:02:14.000Z</time>
      </trkpt>
      <trkpt lat="49.6319" lon="5.71828">
        <ele>365.8</ele>
        <time>1970-01-01T01:02:15.000Z</time>
      </trkpt>
      <trkpt lat="49.63186" lon="5.71826">
        <ele>365.9</ele>
        <time>1970-01-01T01:02:16.000Z</time>
      </trkpt>
      <trkpt lat="49.63183" lon="5.71823">
        <ele>366</ele>
        <time>1970-01-01T01:02:17.000Z</time>
      </trkpt>
      <trkpt lat="49.6318" lon="5.7182">
        <ele>366</ele>
        <time>1970-01-01T01:02:18.000Z</time>
      </trkpt>
      <trkpt lat="49.63177" lon="5.71818">
        <ele>366.1</ele>
        <time>1970-01-01T01:02:19.000Z</time>
      </trkpt>
      <trkpt lat="49.63173" lon="5.71818">
        <ele>366.2</ele>
        <time>1970-01-01T01:02:21.000Z</time>
      </trkpt>
      <trkpt lat="49.63169" lon="5.71818">
        <ele>366.3</ele>
        <time>1970-01-01T01:02:22.000Z</time>
      </trkpt>
      <trkpt lat="49.63166" lon="5.7182">
        <ele>366.4</ele>
        <time>1970-01-01T01:02:23.000Z</time>
      </trkpt>
      <trkpt lat="49.63162" lon="5.71823">
        <ele>366.6</ele>
        <time>1970-01-01T01:02:25.000Z</time>
      </trkpt>
      <trkpt lat="49.63157" lon="5.71827">
        <ele>366.7</ele>
        <time>1970-01-01T01:02:26.000Z</time>
      </trkpt>
      <trkpt lat="49.63145" lon="5.71841">
        <ele>368</ele>
        <time>1970-01-01T01:02:35.000Z</time>
      </trkpt>
      <trkpt lat="49.63143" lon="5.71848">
        <ele>368.6</ele>
        <time>1970-01-01T01:02:36.000Z</time>
      </trkpt>
      <trkpt lat="49.63142" lon="5.71855">
        <ele>368.9</ele>
        <time>1970-01-01T01:02:37.000Z</time>
      </trkpt>
      <trkpt lat="49.63141" lon="5.71863">
        <ele>369.3</ele>
        <time>1970-01-01T01:02:39.000Z</time>
      </trkpt>
      <trkpt lat="49.63134" lon="5.7189">
        <ele>370.2</ele>
        <time>1970-01-01T01:02:40.000Z</time>
      </trkpt>
      <trkpt lat="49.63134" lon="5.71904">
        <ele>370.6</ele>
        <time>1970-01-01T01:02:41.000Z</time>
      </trkpt>
      <trkpt lat="49.63131" lon="5.71924">
        <ele>371.1</ele>
        <time>1970-01-01T01:02:44.000Z</time>
      </trkpt>
      <trkpt lat="49.63132" lon="5.71915">
        <ele>371.2</ele>
        <time>1970-01-01T01:02:45.000Z</time>
      </trkpt>
      <trkpt lat="49.63131" lon="5.71908">
        <ele>371.2</ele>
        <time>1970-01-01T01:02:47.000Z</time>
      </trkpt>
      <trkpt lat="49.6313" lon="5.71922">
        <ele>371.2</ele>
        <time>1970-01-01T01:02:50.000Z</time>
      </trkpt>
      <trkpt lat="49.63128" lon="5.71931">
        <ele>371.2</ele>
        <time>1970-01-01T01:02:51.000Z</time>
      </trkpt>
      <trkpt lat="49.63131" lon="5.71942">
        <ele>371.2</ele>
        <time>1970-01-01T01:02:53.000Z</time>
      </trkpt>
      <trkpt lat="49.63132" lon="5.71953">
        <ele>371.3</ele>
        <time>1970-01-01T01:02:54.000Z</time>
      </trkpt>
      <trkpt lat="49.63133" lon="5.71964">
        <ele>371.3</ele>
        <time>1970-01-01T01:02:55.000Z</time>
      </trkpt>
      <trkpt lat="49.63135" lon="5.7198">
        <ele>371.3</ele>
        <time>1970-01-01T01:02:56.000Z</time>
      </trkpt>
      <trkpt lat="49.63145" lon="5.72011">
        <ele>371</ele>
        <time>1970-01-01T01:02:58.000Z</time>
      </trkpt>
      <trkpt lat="49.63148" lon="5.72016">
        <ele>371</ele>
        <time>1970-01-01T01:03:00.000Z</time>
      </trkpt>
      <trkpt lat="49.6315" lon="5.72012">
        <ele>370.9</ele>
        <time>1970-01-01T01:03:02.000Z</time>
      </trkpt>
      <trkpt lat="49.63149" lon="5.72022">
        <ele>370.8</ele>
        <time>1970-01-01T01:03:04.000Z</time>
      </trkpt>
      <trkpt lat="49.63149" lon="5.72029">
        <ele>370.8</ele>
        <time>1970-01-01T01:03:06.000Z</time>
      </trkpt>
      <trkpt lat="49.63163" lon="5.72084">
        <ele>369.8</ele>
        <time>1970-01-01T01:03:08.000Z</time>
      </trkpt>
      <trkpt lat="49.63162" lon="5.72116">
        <ele>369</ele>
        <time>1970-01-01T01:03:10.000Z</time>
      </trkpt>
      <trkpt lat="49.63161" lon="5.72134">
        <ele>368.6</ele>
        <time>1970-01-01T01:03:11.000Z</time>
      </trkpt>
      <trkpt lat="49.6316" lon="5.72163">
        <ele>368.7</ele>
        <time>1970-01-01T01:03:13.000Z</time>
      </trkpt>
      <trkpt lat="49.63156" lon="5.72168">
        <ele>368.7</ele>
        <time>1970-01-01T01:03:16.000Z</time>
      </trkpt>
      <trkpt lat="49.63153" lon="5.72174">
        <ele>368.7</ele>
        <time>1970-01-01T01:03:20.000Z</time>
      </trkpt>
      <trkpt lat="49.63141" lon="5.7219">
        <ele>368.8</ele>
        <time>1970-01-01T01:03:22.000Z</time>
      </trkpt>
      <trkpt lat="49.63129" lon="5.72192">
        <ele>369</ele>
        <time>1970-01-01T01:03:24.000Z</time>
      </trkpt>
      <trkpt lat="49.63126" lon="5.72188">
        <ele>369</ele>
        <time>1970-01-01T01:03:25.000Z</time>
      </trkpt>
      <trkpt lat="49.6312" lon="5.72181">
        <ele>369.1</ele>
        <time>1970-01-01T01:03:27.000Z</time>
      </trkpt>
      <trkpt lat="49.63117" lon="5.72171">
        <ele>369.2</ele>
        <time>1970-01-01T01:03:30.000Z</time>
      </trkpt>
      <trkpt lat="49.6311" lon="5.72163">
        <ele>369.3</ele>
        <time>1970-01-01T01:03:31.000Z</time>
      </trkpt>
      <trkpt lat="49.63104" lon="5.72157">
        <ele>369.6</ele>
        <time>1970-01-01T01:03:32.000Z</time>
      </trkpt>
      <trkpt lat="49.63095" lon="5.72143">
        <ele>370</ele>
        <time>1970-01-01T01:03:34.000Z</time>
      </trkpt>
      <trkpt lat="49.63089" lon="5.72128">
        <ele>370.2</ele>
        <time>1970-01-01T01:03:36.000Z</time>
      </trkpt>
      <trkpt lat="49.63083" lon="5.72116">
        <ele>370.4</ele>
        <time>1970-01-01T01:03:38.000Z</time>
      </trkpt>
      <trkpt lat="49.63078" lon="5.72105">
        <ele>370.6</ele>
        <time>1970-01-01T01:03:40.000Z</time>
      </trkpt>
      <trkpt lat="49.63072" lon="5.72098">
        <ele>370.9</ele>
        <time>1970-01-01T01:03:43.000Z</time>
      </trkpt>
      <trkpt lat="49.6307" lon="5.72092">
        <ele>371.1</ele>
        <time>1970-01-01T01:03:44.000Z</time>
      </trkpt>
      <trkpt lat="49.6307" lon="5.72084">
        <ele>371.3</ele>
        <time>1970-01-01T01:03:45.000Z</time>
      </trkpt>
      <trkpt lat="49.63071" lon="5.72073">
        <ele>371.5</ele>
        <time>1970-01-01T01:03:47.000Z</time>
      </trkpt>
      <trkpt lat="49.63071" lon="5.72068">
        <ele>371.5</ele>
        <time>1970-01-01T01:03:48.000Z</time>
      </trkpt>
      <trkpt lat="49.63071" lon="5.72063">
        <ele>371.6</ele>
        <time>1970-01-01T01:03:49.000Z</time>
      </trkpt>
      <trkpt lat="49.63072" lon="5.72056">
        <ele>371.6</ele>
        <time>1970-01-01T01:03:50.000Z</time>
      </trkpt>
      <trkpt lat="49.63071" lon="5.72049">
        <ele>371.7</ele>
        <time>1970-01-01T01:03:51.000Z</time>
      </trkpt>
      <trkpt lat="49.63067" lon="5.72041">
        <ele>371.7</ele>
        <time>1970-01-01T01:03:53.000Z</time>
      </trkpt>
      <trkpt lat="49.63064" lon="5.72032">
        <ele>371.8</ele>
        <time>1970-01-01T01:03:54.000Z</time>
      </trkpt>
      <trkpt lat="49.63063" lon="5.72025">
        <ele>371.9</ele>
        <time>1970-01-01T01:03:55.000Z</time>
      </trkpt>
      <trkpt lat="49.63063" lon="5.72017">
        <ele>371.9</ele>
        <time>1970-01-01T01:03:57.000Z</time>
      </trkpt>
      <trkpt lat="49.63062" lon="5.72012">
        <ele>372</ele>
        <time>1970-01-01T01:03:58.000Z</time>
      </trkpt>
      <trkpt lat="49.63055" lon="5.72007">
        <ele>372.1</ele>
        <time>1970-01-01T01:03:59.000Z</time>
      </trkpt>
      <trkpt lat="49.63052" lon="5.72005">
        <ele>372.2</ele>
        <time>1970-01-01T01:04:00.000Z</time>
      </trkpt>
      <trkpt lat="49.63045" lon="5.71999">
        <ele>372.4</ele>
        <time>1970-01-01T01:04:02.000Z</time>
      </trkpt>
      <trkpt lat="49.63042" lon="5.71992">
        <ele>372.5</ele>
        <time>1970-01-01T01:04:03.000Z</time>
      </trkpt>
      <trkpt lat="49.63039" lon="5.71986">
        <ele>372.6</ele>
        <time>1970-01-01T01:04:04.000Z</time>
      </trkpt>
      <trkpt lat="49.63035" lon="5.71982">
        <ele>372.7</ele>
        <time>1970-01-01T01:04:05.000Z</time>
      </trkpt>
      <trkpt lat="49.63032" lon="5.71979">
        <ele>372.8</ele>
        <time>1970-01-01T01:04:07.000Z</time>
      </trkpt>
      <trkpt lat="49.63026" lon="5.71978">
        <ele>372.9</ele>
        <time>1970-01-01T01:04:08.000Z</time>
      </trkpt>
      <trkpt lat="49.63019" lon="5.71977">
        <ele>373</ele>
        <time>1970-01-01T01:04:10.000Z</time>
      </trkpt>
      <trkpt lat="49.63012" lon="5.71973">
        <ele>373.1</ele>
        <time>1970-01-01T01:04:12.000Z</time>
      </trkpt>
      <trkpt lat="49.63002" lon="5.71964">
        <ele>373.2</ele>
        <time>1970-01-01T01:04:14.000Z</time>
      </trkpt>
      <trkpt lat="49.62997" lon="5.71961">
        <ele>373.3</ele>
        <time>1970-01-01T01:04:15.000Z</time>
      </trkpt>
      <trkpt lat="49.62993" lon="5.71958">
        <ele>373.3</ele>
        <time>1970-01-01T01:04:16.000Z</time>
      </trkpt>
      <trkpt lat="49.62988" lon="5.71954">
        <ele>373.4</ele>
        <time>1970-01-01T01:04:17.000Z</time>
      </trkpt>
      <trkpt lat="49.6298" lon="5.7195">
        <ele>373.6</ele>
        <time>1970-01-01T01:04:19.000Z</time>
      </trkpt>
      <trkpt lat="49.62976" lon="5.7195">
        <ele>373.8</ele>
        <time>1970-01-01T01:04:20.000Z</time>
      </trkpt>
      <trkpt lat="49.62968" lon="5.71953">
        <ele>374</ele>
        <time>1970-01-01T01:04:22.000Z</time>
      </trkpt>
      <trkpt lat="49.62964" lon="5.71953">
        <ele>374.1</ele>
        <time>1970-01-01T01:04:23.000Z</time>
      </trkpt>
      <trkpt lat="49.62961" lon="5.71952">
        <ele>374.2</ele>
        <time>1970-01-01T01:04:24.000Z</time>
      </trkpt>
      <trkpt lat="49.62957" lon="5.71953">
        <ele>374.3</ele>
        <time>1970-01-01T01:04:25.000Z</time>
      </trkpt>
      <trkpt lat="49.6295" lon="5.71953">
        <ele>374.5</ele>
        <time>1970-01-01T01:04:27.000Z</time>
      </trkpt>
      <trkpt lat="49.6294" lon="5.7195">
        <ele>375.1</ele>
        <time>1970-01-01T01:04:28.000Z</time>
      </trkpt>
      <trkpt lat="49.62935" lon="5.71951">
        <ele>375.4</ele>
        <time>1970-01-01T01:04:30.000Z</time>
      </trkpt>
      <trkpt lat="49.62932" lon="5.71946">
        <ele>375.6</ele>
        <time>1970-01-01T01:04:32.000Z</time>
      </trkpt>
      <trkpt lat="49.62929" lon="5.71946">
        <ele>375.7</ele>
        <time>1970-01-01T01:04:33.000Z</time>
      </trkpt>
      <trkpt lat="49.62925" lon="5.71945">
        <ele>375.8</ele>
        <time>1970-01-01T01:04:34.000Z</time>
      </trkpt>
      <trkpt lat="49.62923" lon="5.7194">
        <ele>375.8</ele>
        <time>1970-01-01T01:04:36.000Z</time>
      </trkpt>
      <trkpt lat="49.62919" lon="5.71937">
        <ele>375.8</ele>
        <time>1970-01-01T01:04:38.000Z</time>
      </trkpt>
      <trkpt lat="49.62913" lon="5.71934">
        <ele>375.8</ele>
        <time>1970-01-01T01:04:39.000Z</time>
      </trkpt>
      <trkpt lat="49.62906" lon="5.71924">
        <ele>375.7</ele>
        <time>1970-01-01T01:04:40.000Z</time>
      </trkpt>
      <trkpt lat="49.62899" lon="5.71907">
        <ele>375.5</ele>
        <time>1970-01-01T01:04:42.000Z</time>
      </trkpt>
      <trkpt lat="49.62896" lon="5.71902">
        <ele>375.4</ele>
        <time>1970-01-01T01:04:43.000Z</time>
      </trkpt>
      <trkpt lat="49.62886" lon="5.71894">
        <ele>375.3</ele>
        <time>1970-01-01T01:04:45.000Z</time>
      </trkpt>
      <trkpt lat="49.62883" lon="5.71889">
        <ele>375.3</ele>
        <time>1970-01-01T01:04:47.000Z</time>
      </trkpt>
      <trkpt lat="49.62879" lon="5.71887">
        <ele>375.3</ele>
        <time>1970-01-01T01:04:48.000Z</time>
      </trkpt>
      <trkpt lat="49.62874" lon="5.71886">
        <ele>375.2</ele>
        <time>1970-01-01T01:04:49.000Z</time>
      </trkpt>
      <trkpt lat="49.62868" lon="5.71887">
        <ele>375.1</ele>
        <time>1970-01-01T01:04:50.000Z</time>
      </trkpt>
      <trkpt lat="49.62863" lon="5.71889">
        <ele>375</ele>
        <time>1970-01-01T01:04:52.000Z</time>
      </trkpt>
      <trkpt lat="49.62859" lon="5.71891">
        <ele>375</ele>
        <time>1970-01-01T01:04:53.000Z</time>
      </trkpt>
      <trkpt lat="49.62855" lon="5.71894">
        <ele>375</ele>
        <time>1970-01-01T01:04:54.000Z</time>
      </trkpt>
      <trkpt lat="49.62845" lon="5.71903">
        <ele>374.9</ele>
        <time>1970-01-01T01:04:55.000Z</time>
      </trkpt>
      <trkpt lat="49.62838" lon="5.71908">
        <ele>374.8</ele>
        <time>1970-01-01T01:04:56.000Z</time>
      </trkpt>
      <trkpt lat="49.62825" lon="5.71914">
        <ele>374.3</ele>
        <time>1970-01-01T01:04:58.000Z</time>
      </trkpt>
      <trkpt lat="49.62815" lon="5.71914">
        <ele>373.9</ele>
        <time>1970-01-01T01:05:00.000Z</time>
      </trkpt>
      <trkpt lat="49.62807" lon="5.71916">
        <ele>373.6</ele>
        <time>1970-01-01T01:05:01.000Z</time>
      </trkpt>
      <trkpt lat="49.628" lon="5.71917">
        <ele>373.4</ele>
        <time>1970-01-01T01:05:02.000Z</time>
      </trkpt>
      <trkpt lat="49.62791" lon="5.71918">
        <ele>372.5</ele>
        <time>1970-01-01T01:05:04.000Z</time>
      </trkpt>
      <trkpt lat="49.62784" lon="5.71915">
        <ele>372.2</ele>
        <time>1970-01-01T01:05:06.000Z</time>
      </trkpt>
      <trkpt lat="49.6278" lon="5.71908">
        <ele>371.9</ele>
        <time>1970-01-01T01:05:08.000Z</time>
      </trkpt>
      <trkpt lat="49.62777" lon="5.7189">
        <ele>371.5</ele>
        <time>1970-01-01T01:05:09.000Z</time>
      </trkpt>
      <trkpt lat="49.62774" lon="5.71883">
        <ele>371.3</ele>
        <time>1970-01-01T01:05:10.000Z</time>
      </trkpt>
      <trkpt lat="49.62773" lon="5.71876">
        <ele>371</ele>
        <time>1970-01-01T01:05:11.000Z</time>
      </trkpt>
      <trkpt lat="49.62769" lon="5.71868">
        <ele>370.7</ele>
        <time>1970-01-01T01:05:13.000Z</time>
      </trkpt>
      <trkpt lat="49.62765" lon="5.71861">
        <ele>370.4</ele>
        <time>1970-01-01T01:05:14.000Z</time>
      </trkpt>
      <trkpt lat="49.62763" lon="5.71856">
        <ele>370.2</ele>
        <time>1970-01-01T01:05:15.000Z</time>
      </trkpt>
      <trkpt lat="49.62761" lon="5.71848">
        <ele>370</ele>
        <time>1970-01-01T01:05:17.000Z</time>
      </trkpt>
      <trkpt lat="49.62756" lon="5.71836">
        <ele>369.7</ele>
        <time>1970-01-01T01:05:18.000Z</time>
      </trkpt>
      <trkpt lat="49.62752" lon="5.71832">
        <ele>369.6</ele>
        <time>1970-01-01T01:05:20.000Z</time>
      </trkpt>
      <trkpt lat="49.62752" lon="5.71827">
        <ele>369.6</ele>
        <time>1970-01-01T01:05:22.000Z</time>
      </trkpt>
      <trkpt lat="49.62749" lon="5.71818">
        <ele>369.5</ele>
        <time>1970-01-01T01:05:24.000Z</time>
      </trkpt>
      <trkpt lat="49.62744" lon="5.71812">
        <ele>369.5</ele>
        <time>1970-01-01T01:05:25.000Z</time>
      </trkpt>
      <trkpt lat="49.6274" lon="5.71808">
        <ele>369.6</ele>
        <time>1970-01-01T01:05:26.000Z</time>
      </trkpt>
      <trkpt lat="49.62734" lon="5.71803">
        <ele>369.6</ele>
        <time>1970-01-01T01:05:27.000Z</time>
      </trkpt>
      <trkpt lat="49.6273" lon="5.71799">
        <ele>369.6</ele>
        <time>1970-01-01T01:05:28.000Z</time>
      </trkpt>
      <trkpt lat="49.62725" lon="5.71794">
        <ele>369.5</ele>
        <time>1970-01-01T01:05:30.000Z</time>
      </trkpt>
      <trkpt lat="49.62723" lon="5.71788">
        <ele>369.4</ele>
        <time>1970-01-01T01:05:31.000Z</time>
      </trkpt>
      <trkpt lat="49.62721" lon="5.71783">
        <ele>369.4</ele>
        <time>1970-01-01T01:05:32.000Z</time>
      </trkpt>
      <trkpt lat="49.62716" lon="5.71778">
        <ele>369.4</ele>
        <time>1970-01-01T01:05:34.000Z</time>
      </trkpt>
      <trkpt lat="49.62713" lon="5.71777">
        <ele>369.4</ele>
        <time>1970-01-01T01:05:35.000Z</time>
      </trkpt>
      <trkpt lat="49.6271" lon="5.71778">
        <ele>369.3</ele>
        <time>1970-01-01T01:05:36.000Z</time>
      </trkpt>
      <trkpt lat="49.62706" lon="5.7178">
        <ele>369.3</ele>
        <time>1970-01-01T01:05:38.000Z</time>
      </trkpt>
      <trkpt lat="49.627" lon="5.71782">
        <ele>369.2</ele>
        <time>1970-01-01T01:05:40.000Z</time>
      </trkpt>
      <trkpt lat="49.62694" lon="5.71783">
        <ele>369.3</ele>
        <time>1970-01-01T01:05:42.000Z</time>
      </trkpt>
      <trkpt lat="49.62691" lon="5.71784">
        <ele>369.4</ele>
        <time>1970-01-01T01:05:43.000Z</time>
      </trkpt>
      <trkpt lat="49.62686" lon="5.71785">
        <ele>369.5</ele>
        <time>1970-01-01T01:05:44.000Z</time>
      </trkpt>
      <trkpt lat="49.62682" lon="5.71786">
        <ele>369.6</ele>
        <time>1970-01-01T01:05:45.000Z</time>
      </trkpt>
      <trkpt lat="49.62674" lon="5.71789">
        <ele>369.8</ele>
        <time>1970-01-01T01:05:47.000Z</time>
      </trkpt>
      <trkpt lat="49.62668" lon="5.71791">
        <ele>370.1</ele>
        <time>1970-01-01T01:05:48.000Z</time>
      </trkpt>
      <trkpt lat="49.62662" lon="5.71795">
        <ele>370.4</ele>
        <time>1970-01-01T01:05:50.000Z</time>
      </trkpt>
      <trkpt lat="49.62653" lon="5.71802">
        <ele>370.9</ele>
        <time>1970-01-01T01:05:51.000Z</time>
      </trkpt>
      <trkpt lat="49.62647" lon="5.71806">
        <ele>371.2</ele>
        <time>1970-01-01T01:05:52.000Z</time>
      </trkpt>
      <trkpt lat="49.62638" lon="5.71813">
        <ele>371.6</ele>
        <time>1970-01-01T01:05:54.000Z</time>
      </trkpt>
      <trkpt lat="49.62632" lon="5.71817">
        <ele>371.9</ele>
        <time>1970-01-01T01:05:56.000Z</time>
      </trkpt>
      <trkpt lat="49.62628" lon="5.7182">
        <ele>372.1</ele>
        <time>1970-01-01T01:05:57.000Z</time>
      </trkpt>
      <trkpt lat="49.62621" lon="5.71825">
        <ele>372.3</ele>
        <time>1970-01-01T01:05:59.000Z</time>
      </trkpt>
      <trkpt lat="49.62617" lon="5.71829">
        <ele>372.3</ele>
        <time>1970-01-01T01:06:00.000Z</time>
      </trkpt>
      <trkpt lat="49.62611" lon="5.71833">
        <ele>372.3</ele>
        <time>1970-01-01T01:06:02.000Z</time>
      </trkpt>
      <trkpt lat="49.62607" lon="5.71836">
        <ele>372.3</ele>
        <time>1970-01-01T01:06:03.000Z</time>
      </trkpt>
      <trkpt lat="49.626" lon="5.71837">
        <ele>372.2</ele>
        <time>1970-01-01T01:06:05.000Z</time>
      </trkpt>
      <trkpt lat="49.62594" lon="5.71837">
        <ele>371.8</ele>
        <time>1970-01-01T01:09:23.000Z</time>
      </trkpt>
      <trkpt lat="49.62585" lon="5.71843">
        <ele>371.4</ele>
        <time>1970-01-01T01:09:27.000Z</time>
      </trkpt>
      <trkpt lat="49.62569" lon="5.71845">
        <ele>371</ele>
        <time>1970-01-01T01:09:29.000Z</time>
      </trkpt>
      <trkpt lat="49.62556" lon="5.71849">
        <ele>370.6</ele>
        <time>1970-01-01T01:09:31.000Z</time>
      </trkpt>
      <trkpt lat="49.62542" lon="5.71852">
        <ele>370.3</ele>
        <time>1970-01-01T01:09:33.000Z</time>
      </trkpt>
      <trkpt lat="49.62527" lon="5.71855">
        <ele>369.8</ele>
        <time>1970-01-01T01:09:35.000Z</time>
      </trkpt>
      <trkpt lat="49.62512" lon="5.71858">
        <ele>369</ele>
        <time>1970-01-01T01:09:37.000Z</time>
      </trkpt>
      <trkpt lat="49.62504" lon="5.71861">
        <ele>368.3</ele>
        <time>1970-01-01T01:09:38.000Z</time>
      </trkpt>
      <trkpt lat="49.62487" lon="5.71865">
        <ele>366.8</ele>
        <time>1970-01-01T01:09:40.000Z</time>
      </trkpt>
      <trkpt lat="49.6247" lon="5.71868">
        <ele>365.7</ele>
        <time>1970-01-01T01:09:42.000Z</time>
      </trkpt>
      <trkpt lat="49.62461" lon="5.7187">
        <ele>365.3</ele>
        <time>1970-01-01T01:09:43.000Z</time>
      </trkpt>
      <trkpt lat="49.62444" lon="5.71872">
        <ele>364.6</ele>
        <time>1970-01-01T01:09:45.000Z</time>
      </trkpt>
      <trkpt lat="49.62435" lon="5.71871">
        <ele>364.3</ele>
        <time>1970-01-01T01:09:46.000Z</time>
      </trkpt>
      <trkpt lat="49.62417" lon="5.71866">
        <ele>363.9</ele>
        <time>1970-01-01T01:09:48.000Z</time>
      </trkpt>
      <trkpt lat="49.62401" lon="5.71857">
        <ele>363.4</ele>
        <time>1970-01-01T01:09:50.000Z</time>
      </trkpt>
      <trkpt lat="49.62393" lon="5.71852">
        <ele>363.2</ele>
        <time>1970-01-01T01:09:51.000Z</time>
      </trkpt>
      <trkpt lat="49.62379" lon="5.71841">
        <ele>363.2</ele>
        <time>1970-01-01T01:09:53.000Z</time>
      </trkpt>
      <trkpt lat="49.62365" lon="5.71829">
        <ele>363.3</ele>
        <time>1970-01-01T01:09:55.000Z</time>
      </trkpt>
      <trkpt lat="49.62358" lon="5.71823">
        <ele>363.3</ele>
        <time>1970-01-01T01:09:56.000Z</time>
      </trkpt>
      <trkpt lat="49.62352" lon="5.71818">
        <ele>363.3</ele>
        <time>1970-01-01T01:09:57.000Z</time>
      </trkpt>
      <trkpt lat="49.62346" lon="5.71813">
        <ele>363.4</ele>
        <time>1970-01-01T01:09:58.000Z</time>
      </trkpt>
      <trkpt lat="49.62334" lon="5.71804">
        <ele>363.5</ele>
        <time>1970-01-01T01:10:00.000Z</time>
      </trkpt>
      <trkpt lat="49.62328" lon="5.718">
        <ele>363.6</ele>
        <time>1970-01-01T01:10:01.000Z</time>
      </trkpt>
      <trkpt lat="49.62317" lon="5.71792">
        <ele>363.9</ele>
        <time>1970-01-01T01:10:03.000Z</time>
      </trkpt>
      <trkpt lat="49.62305" lon="5.71787">
        <ele>364.2</ele>
        <time>1970-01-01T01:10:05.000Z</time>
      </trkpt>
      <trkpt lat="49.623" lon="5.71785">
        <ele>364.4</ele>
        <time>1970-01-01T01:10:06.000Z</time>
      </trkpt>
      <trkpt lat="49.62289" lon="5.71783">
        <ele>364.9</ele>
        <time>1970-01-01T01:10:08.000Z</time>
      </trkpt>
      <trkpt lat="49.62279" lon="5.71785">
        <ele>365.2</ele>
        <time>1970-01-01T01:10:10.000Z</time>
      </trkpt>
      <trkpt lat="49.62274" lon="5.71786">
        <ele>365.4</ele>
        <time>1970-01-01T01:10:11.000Z</time>
      </trkpt>
      <trkpt lat="49.6227" lon="5.71787">
        <ele>365.5</ele>
        <time>1970-01-01T01:10:12.000Z</time>
      </trkpt>
      <trkpt lat="49.62265" lon="5.71787">
        <ele>365.5</ele>
        <time>1970-01-01T01:10:13.000Z</time>
      </trkpt>
      <trkpt lat="49.62255" lon="5.7179">
        <ele>365.4</ele>
        <time>1970-01-01T01:10:15.000Z</time>
      </trkpt>
      <trkpt lat="49.62243" lon="5.71794">
        <ele>365.3</ele>
        <time>1970-01-01T01:10:17.000Z</time>
      </trkpt>
      <trkpt lat="49.62231" lon="5.71798">
        <ele>365.1</ele>
        <time>1970-01-01T01:10:19.000Z</time>
      </trkpt>
      <trkpt lat="49.62225" lon="5.718">
        <ele>364.9</ele>
        <time>1970-01-01T01:10:20.000Z</time>
      </trkpt>
      <trkpt lat="49.62219" lon="5.71802">
        <ele>364.8</ele>
        <time>1970-01-01T01:10:21.000Z</time>
      </trkpt>
      <trkpt lat="49.62213" lon="5.71804">
        <ele>364.8</ele>
        <time>1970-01-01T01:10:22.000Z</time>
      </trkpt>
      <trkpt lat="49.62199" lon="5.71805">
        <ele>364.7</ele>
        <time>1970-01-01T01:10:24.000Z</time>
      </trkpt>
      <trkpt lat="49.62192" lon="5.71806">
        <ele>364.6</ele>
        <time>1970-01-01T01:10:25.000Z</time>
      </trkpt>
      <trkpt lat="49.62185" lon="5.71806">
        <ele>364.6</ele>
        <time>1970-01-01T01:10:26.000Z</time>
      </trkpt>
      <trkpt lat="49.62172" lon="5.71805">
        <ele>364.6</ele>
        <time>1970-01-01T01:10:28.000Z</time>
      </trkpt>
      <trkpt lat="49.62165" lon="5.71804">
        <ele>364.6</ele>
        <time>1970-01-01T01:10:29.000Z</time>
      </trkpt>
      <trkpt lat="49.62152" lon="5.71802">
        <ele>364.7</ele>
        <time>1970-01-01T01:10:31.000Z</time>
      </trkpt>
      <trkpt lat="49.62139" lon="5.71799">
        <ele>364.7</ele>
        <time>1970-01-01T01:10:33.000Z</time>
      </trkpt>
      <trkpt lat="49.62127" lon="5.71796">
        <ele>364.5</ele>
        <time>1970-01-01T01:10:35.000Z</time>
      </trkpt>
      <trkpt lat="49.62115" lon="5.71793">
        <ele>364.4</ele>
        <time>1970-01-01T01:10:37.000Z</time>
      </trkpt>
      <trkpt lat="49.62109" lon="5.71792">
        <ele>364.3</ele>
        <time>1970-01-01T01:10:38.000Z</time>
      </trkpt>
      <trkpt lat="49.62098" lon="5.7179">
        <ele>364.6</ele>
        <time>1970-01-01T01:10:40.000Z</time>
      </trkpt>
      <trkpt lat="49.62092" lon="5.71789">
        <ele>364.8</ele>
        <time>1970-01-01T01:10:41.000Z</time>
      </trkpt>
      <trkpt lat="49.6208" lon="5.71787">
        <ele>365</ele>
        <time>1970-01-01T01:10:43.000Z</time>
      </trkpt>
      <trkpt lat="49.62069" lon="5.71785">
        <ele>365.1</ele>
        <time>1970-01-01T01:10:45.000Z</time>
      </trkpt>
      <trkpt lat="49.62058" lon="5.71782">
        <ele>365.2</ele>
        <time>1970-01-01T01:10:47.000Z</time>
      </trkpt>
      <trkpt lat="49.62052" lon="5.7178">
        <ele>365.4</ele>
        <time>1970-01-01T01:10:48.000Z</time>
      </trkpt>
      <trkpt lat="49.62042" lon="5.71776">
        <ele>365.8</ele>
        <time>1970-01-01T01:10:50.000Z</time>
      </trkpt>
      <trkpt lat="49.62031" lon="5.71771">
        <ele>366.3</ele>
        <time>1970-01-01T01:10:52.000Z</time>
      </trkpt>
      <trkpt lat="49.62021" lon="5.71765">
        <ele>366.8</ele>
        <time>1970-01-01T01:10:54.000Z</time>
      </trkpt>
      <trkpt lat="49.62016" lon="5.71762">
        <ele>367</ele>
        <time>1970-01-01T01:10:55.000Z</time>
      </trkpt>
      <trkpt lat="49.62007" lon="5.71756">
        <ele>367.3</ele>
        <time>1970-01-01T01:10:57.000Z</time>
      </trkpt>
      <trkpt lat="49.62001" lon="5.71754">
        <ele>367.4</ele>
        <time>1970-01-01T01:10:58.000Z</time>
      </trkpt>
      <trkpt lat="49.61991" lon="5.71749">
        <ele>367.6</ele>
        <time>1970-01-01T01:11:00.000Z</time>
      </trkpt>
      <trkpt lat="49.6198" lon="5.71744">
        <ele>367.8</ele>
        <time>1970-01-01T01:11:02.000Z</time>
      </trkpt>
      <trkpt lat="49.6197" lon="5.7174">
        <ele>368</ele>
        <time>1970-01-01T01:11:04.000Z</time>
      </trkpt>
      <trkpt lat="49.61959" lon="5.71737">
        <ele>368.3</ele>
        <time>1970-01-01T01:11:06.000Z</time>
      </trkpt>
      <trkpt lat="49.61954" lon="5.71736">
        <ele>368.4</ele>
        <time>1970-01-01T01:11:07.000Z</time>
      </trkpt>
      <trkpt lat="49.61949" lon="5.71736">
        <ele>368.6</ele>
        <time>1970-01-01T01:11:08.000Z</time>
      </trkpt>
      <trkpt lat="49.61938" lon="5.71735">
        <ele>368.9</ele>
        <time>1970-01-01T01:11:10.000Z</time>
      </trkpt>
      <trkpt lat="49.61927" lon="5.71733">
        <ele>369.1</ele>
        <time>1970-01-01T01:11:12.000Z</time>
      </trkpt>
      <trkpt lat="49.61921" lon="5.71732">
        <ele>369.3</ele>
        <time>1970-01-01T01:11:13.000Z</time>
      </trkpt>
      <trkpt lat="49.61916" lon="5.7173">
        <ele>369.5</ele>
        <time>1970-01-01T01:11:14.000Z</time>
      </trkpt>
      <trkpt lat="49.61907" lon="5.71726">
        <ele>369.8</ele>
        <time>1970-01-01T01:11:16.000Z</time>
      </trkpt>
      <trkpt lat="49.61902" lon="5.71724">
        <ele>370</ele>
        <time>1970-01-01T01:11:17.000Z</time>
      </trkpt>
      <trkpt lat="49.61897" lon="5.71721">
        <ele>370.1</ele>
        <time>1970-01-01T01:11:18.000Z</time>
      </trkpt>
      <trkpt lat="49.61888" lon="5.71714">
        <ele>370.2</ele>
        <time>1970-01-01T01:11:20.000Z</time>
      </trkpt>
      <trkpt lat="49.6188" lon="5.71705">
        <ele>370.3</ele>
        <time>1970-01-01T01:11:22.000Z</time>
      </trkpt>
      <trkpt lat="49.61871" lon="5.71695">
        <ele>370.4</ele>
        <time>1970-01-01T01:11:24.000Z</time>
      </trkpt>
      <trkpt lat="49.61867" lon="5.7169">
        <ele>370.5</ele>
        <time>1970-01-01T01:11:25.000Z</time>
      </trkpt>
      <trkpt lat="49.61859" lon="5.71678">
        <ele>370.6</ele>
        <time>1970-01-01T01:11:27.000Z</time>
      </trkpt>
      <trkpt lat="49.61852" lon="5.71666">
        <ele>370.6</ele>
        <time>1970-01-01T01:11:29.000Z</time>
      </trkpt>
      <trkpt lat="49.61844" lon="5.71652">
        <ele>370.7</ele>
        <time>1970-01-01T01:11:31.000Z</time>
      </trkpt>
      <trkpt lat="49.61841" lon="5.71645">
        <ele>370.7</ele>
        <time>1970-01-01T01:11:32.000Z</time>
      </trkpt>
      <trkpt lat="49.61837" lon="5.71639">
        <ele>370.8</ele>
        <time>1970-01-01T01:11:33.000Z</time>
      </trkpt>
      <trkpt lat="49.61834" lon="5.71632">
        <ele>370.8</ele>
        <time>1970-01-01T01:11:34.000Z</time>
      </trkpt>
      <trkpt lat="49.61828" lon="5.71619">
        <ele>370.6</ele>
        <time>1970-01-01T01:11:36.000Z</time>
      </trkpt>
      <trkpt lat="49.61823" lon="5.71606">
        <ele>370.1</ele>
        <time>1970-01-01T01:11:38.000Z</time>
      </trkpt>
      <trkpt lat="49.61819" lon="5.71593">
        <ele>369.6</ele>
        <time>1970-01-01T01:11:40.000Z</time>
      </trkpt>
      <trkpt lat="49.61811" lon="5.71584">
        <ele>369.2</ele>
        <time>1970-01-01T01:11:42.000Z</time>
      </trkpt>
      <trkpt lat="49.61801" lon="5.7158">
        <ele>368.9</ele>
        <time>1970-01-01T01:11:44.000Z</time>
      </trkpt>
      <trkpt lat="49.61796" lon="5.71578">
        <ele>368.7</ele>
        <time>1970-01-01T01:11:45.000Z</time>
      </trkpt>
      <trkpt lat="49.61786" lon="5.71574">
        <ele>368.5</ele>
        <time>1970-01-01T01:11:47.000Z</time>
      </trkpt>
      <trkpt lat="49.61775" lon="5.71571">
        <ele>368.4</ele>
        <time>1970-01-01T01:11:49.000Z</time>
      </trkpt>
      <trkpt lat="49.61763" lon="5.71568">
        <ele>368.4</ele>
        <time>1970-01-01T01:11:51.000Z</time>
      </trkpt>
      <trkpt lat="49.61758" lon="5.71566">
        <ele>368.4</ele>
        <time>1970-01-01T01:11:52.000Z</time>
      </trkpt>
      <trkpt lat="49.61746" lon="5.71565">
        <ele>368.4</ele>
        <time>1970-01-01T01:11:54.000Z</time>
      </trkpt>
      <trkpt lat="49.61739" lon="5.71564">
        <ele>368.5</ele>
        <time>1970-01-01T01:11:55.000Z</time>
      </trkpt>
      <trkpt lat="49.61728" lon="5.71562">
        <ele>368.5</ele>
        <time>1970-01-01T01:11:57.000Z</time>
      </trkpt>
      <trkpt lat="49.61722" lon="5.71561">
        <ele>368.6</ele>
        <time>1970-01-01T01:11:58.000Z</time>
      </trkpt>
      <trkpt lat="49.6171" lon="5.7156">
        <ele>368.7</ele>
        <time>1970-01-01T01:12:00.000Z</time>
      </trkpt>
      <trkpt lat="49.61699" lon="5.71559">
        <ele>368.9</ele>
        <time>1970-01-01T01:12:02.000Z</time>
      </trkpt>
      <trkpt lat="49.61688" lon="5.71559">
        <ele>369</ele>
        <time>1970-01-01T01:12:04.000Z</time>
      </trkpt>
      <trkpt lat="49.61677" lon="5.7156">
        <ele>369</ele>
        <time>1970-01-01T01:12:06.000Z</time>
      </trkpt>
      <trkpt lat="49.61667" lon="5.71564">
        <ele>369.1</ele>
        <time>1970-01-01T01:12:08.000Z</time>
      </trkpt>
      <trkpt lat="49.61662" lon="5.71565">
        <ele>369.2</ele>
        <time>1970-01-01T01:12:09.000Z</time>
      </trkpt>
      <trkpt lat="49.61652" lon="5.71571">
        <ele>369.3</ele>
        <time>1970-01-01T01:12:11.000Z</time>
      </trkpt>
      <trkpt lat="49.61646" lon="5.71574">
        <ele>369.4</ele>
        <time>1970-01-01T01:12:12.000Z</time>
      </trkpt>
      <trkpt lat="49.61641" lon="5.71577">
        <ele>369.4</ele>
        <time>1970-01-01T01:12:13.000Z</time>
      </trkpt>
      <trkpt lat="49.61631" lon="5.71583">
        <ele>369.6</ele>
        <time>1970-01-01T01:12:15.000Z</time>
      </trkpt>
      <trkpt lat="49.61626" lon="5.71586">
        <ele>369.6</ele>
        <time>1970-01-01T01:12:16.000Z</time>
      </trkpt>
      <trkpt lat="49.61617" lon="5.71586">
        <ele>369.7</ele>
        <time>1970-01-01T01:12:18.000Z</time>
      </trkpt>
      <trkpt lat="49.61613" lon="5.71582">
        <ele>369.9</ele>
        <time>1970-01-01T01:12:19.000Z</time>
      </trkpt>
      <trkpt lat="49.6161" lon="5.71576">
        <ele>370.1</ele>
        <time>1970-01-01T01:12:20.000Z</time>
      </trkpt>
      <trkpt lat="49.61607" lon="5.71566">
        <ele>370.3</ele>
        <time>1970-01-01T01:12:22.000Z</time>
      </trkpt>
      <trkpt lat="49.61605" lon="5.7156">
        <ele>370.4</ele>
        <time>1970-01-01T01:12:23.000Z</time>
      </trkpt>
      <trkpt lat="49.61604" lon="5.71554">
        <ele>370.5</ele>
        <time>1970-01-01T01:12:24.000Z</time>
      </trkpt>
      <trkpt lat="49.616" lon="5.71544">
        <ele>370.8</ele>
        <time>1970-01-01T01:12:26.000Z</time>
      </trkpt>
      <trkpt lat="49.61596" lon="5.71535">
        <ele>371.1</ele>
        <time>1970-01-01T01:12:28.000Z</time>
      </trkpt>
      <trkpt lat="49.61594" lon="5.71538">
        <ele>371.3</ele>
        <time>1970-01-01T01:12:30.000Z</time>
      </trkpt>
      <trkpt lat="49.61592" lon="5.71533">
        <ele>371.5</ele>
        <time>1970-01-01T01:12:32.000Z</time>
      </trkpt>
      <trkpt lat="49.61592" lon="5.71525">
        <ele>371.7</ele>
        <time>1970-01-01T01:12:33.000Z</time>
      </trkpt>
      <trkpt lat="49.61592" lon="5.71516">
        <ele>372</ele>
        <time>1970-01-01T01:12:35.000Z</time>
      </trkpt>
      <trkpt lat="49.61592" lon="5.71511">
        <ele>372.2</ele>
        <time>1970-01-01T01:12:36.000Z</time>
      </trkpt>
      <trkpt lat="49.61595" lon="5.71494">
        <ele>372.7</ele>
        <time>1970-01-01T01:12:38.000Z</time>
      </trkpt>
      <trkpt lat="49.61595" lon="5.7148">
        <ele>373.3</ele>
        <time>1970-01-01T01:12:39.000Z</time>
      </trkpt>
      <trkpt lat="49.61595" lon="5.71461">
        <ele>374.1</ele>
        <time>1970-01-01T01:12:41.000Z</time>
      </trkpt>
      <trkpt lat="49.61596" lon="5.71451">
        <ele>374.6</ele>
        <time>1970-01-01T01:12:42.000Z</time>
      </trkpt>
      <trkpt lat="49.61597" lon="5.71441">
        <ele>375</ele>
        <time>1970-01-01T01:12:44.000Z</time>
      </trkpt>
      <trkpt lat="49.61599" lon="5.71428">
        <ele>375.5</ele>
        <time>1970-01-01T01:12:46.000Z</time>
      </trkpt>
      <trkpt lat="49.616" lon="5.71417">
        <ele>376</ele>
        <time>1970-01-01T01:12:48.000Z</time>
      </trkpt>
      <trkpt lat="49.616" lon="5.7141">
        <ele>376.3</ele>
        <time>1970-01-01T01:12:49.000Z</time>
      </trkpt>
      <trkpt lat="49.61599" lon="5.71403">
        <ele>376.6</ele>
        <time>1970-01-01T01:12:50.000Z</time>
      </trkpt>
      <trkpt lat="49.61598" lon="5.7139">
        <ele>377.2</ele>
        <time>1970-01-01T01:12:52.000Z</time>
      </trkpt>
      <trkpt lat="49.61598" lon="5.71382">
        <ele>377.6</ele>
        <time>1970-01-01T01:12:54.000Z</time>
      </trkpt>
      <trkpt lat="49.61597" lon="5.71377">
        <ele>377.8</ele>
        <time>1970-01-01T01:12:55.000Z</time>
      </trkpt>
      <trkpt lat="49.61595" lon="5.71371">
        <ele>378.1</ele>
        <time>1970-01-01T01:12:56.000Z</time>
      </trkpt>
      <trkpt lat="49.61593" lon="5.71364">
        <ele>378.3</ele>
        <time>1970-01-01T01:12:58.000Z</time>
      </trkpt>
      <trkpt lat="49.61591" lon="5.71359">
        <ele>378.7</ele>
        <time>1970-01-01T01:12:59.000Z</time>
      </trkpt>
      <trkpt lat="49.6159" lon="5.71353">
        <ele>378.8</ele>
        <time>1970-01-01T01:13:00.000Z</time>
      </trkpt>
      <trkpt lat="49.61587" lon="5.71345">
        <ele>378.9</ele>
        <time>1970-01-01T01:13:02.000Z</time>
      </trkpt>
      <trkpt lat="49.61586" lon="5.71341">
        <ele>379</ele>
        <time>1970-01-01T01:13:04.000Z</time>
      </trkpt>
      <trkpt lat="49.61585" lon="5.71337">
        <ele>379.1</ele>
        <time>1970-01-01T01:13:06.000Z</time>
      </trkpt>
      <trkpt lat="49.61583" lon="5.7133">
        <ele>379.2</ele>
        <time>1970-01-01T01:13:07.000Z</time>
      </trkpt>
      <trkpt lat="49.61581" lon="5.71324">
        <ele>379.4</ele>
        <time>1970-01-01T01:13:08.000Z</time>
      </trkpt>
      <trkpt lat="49.61579" lon="5.71316">
        <ele>379.5</ele>
        <time>1970-01-01T01:13:09.000Z</time>
      </trkpt>
      <trkpt lat="49.61577" lon="5.71309">
        <ele>379.7</ele>
        <time>1970-01-01T01:13:11.000Z</time>
      </trkpt>
      <trkpt lat="49.61575" lon="5.713">
        <ele>379.9</ele>
        <time>1970-01-01T01:13:13.000Z</time>
      </trkpt>
      <trkpt lat="49.61573" lon="5.71294">
        <ele>380</ele>
        <time>1970-01-01T01:13:14.000Z</time>
      </trkpt>
      <trkpt lat="49.61571" lon="5.71287">
        <ele>380</ele>
        <time>1970-01-01T01:13:15.000Z</time>
      </trkpt>
      <trkpt lat="49.6157" lon="5.71281">
        <ele>380.1</ele>
        <time>1970-01-01T01:13:16.000Z</time>
      </trkpt>
      <trkpt lat="49.61568" lon="5.7127">
        <ele>380.4</ele>
        <time>1970-01-01T01:13:18.000Z</time>
      </trkpt>
      <trkpt lat="49.61565" lon="5.71262">
        <ele>380.7</ele>
        <time>1970-01-01T01:13:20.000Z</time>
      </trkpt>
      <trkpt lat="49.61562" lon="5.71254">
        <ele>380.9</ele>
        <time>1970-01-01T01:13:21.000Z</time>
      </trkpt>
      <trkpt lat="49.61559" lon="5.71243">
        <ele>381.2</ele>
        <time>1970-01-01T01:13:23.000Z</time>
      </trkpt>
      <trkpt lat="49.61557" lon="5.71237">
        <ele>381.4</ele>
        <time>1970-01-01T01:13:24.000Z</time>
      </trkpt>
      <trkpt lat="49.61555" lon="5.71229">
        <ele>381.6</ele>
        <time>1970-01-01T01:13:26.000Z</time>
      </trkpt>
      <trkpt lat="49.61554" lon="5.71223">
        <ele>381.9</ele>
        <time>1970-01-01T01:13:27.000Z</time>
      </trkpt>
      <trkpt lat="49.61552" lon="5.71215">
        <ele>382.1</ele>
        <time>1970-01-01T01:13:29.000Z</time>
      </trkpt>
      <trkpt lat="49.6155" lon="5.71209">
        <ele>382.4</ele>
        <time>1970-01-01T01:13:30.000Z</time>
      </trkpt>
      <trkpt lat="49.61548" lon="5.71203">
        <ele>382.5</ele>
        <time>1970-01-01T01:13:31.000Z</time>
      </trkpt>
      <trkpt lat="49.61546" lon="5.71197">
        <ele>382.8</ele>
        <time>1970-01-01T01:13:33.000Z</time>
      </trkpt>
      <trkpt lat="49.61545" lon="5.7119">
        <ele>383</ele>
        <time>1970-01-01T01:13:35.000Z</time>
      </trkpt>
      <trkpt lat="49.61543" lon="5.71184">
        <ele>383.2</ele>
        <time>1970-01-01T01:13:37.000Z</time>
      </trkpt>
      <trkpt lat="49.6154" lon="5.71177">
        <ele>383.4</ele>
        <time>1970-01-01T01:13:38.000Z</time>
      </trkpt>
      <trkpt lat="49.61537" lon="5.71168">
        <ele>383.7</ele>
        <time>1970-01-01T01:13:40.000Z</time>
      </trkpt>
      <trkpt lat="49.61534" lon="5.7116">
        <ele>384</ele>
        <time>1970-01-01T01:13:41.000Z</time>
      </trkpt>
      <trkpt lat="49.61532" lon="5.71154">
        <ele>384.2</ele>
        <time>1970-01-01T01:13:42.000Z</time>
      </trkpt>
      <trkpt lat="49.61529" lon="5.71145">
        <ele>384.5</ele>
        <time>1970-01-01T01:13:44.000Z</time>
      </trkpt>
      <trkpt lat="49.61527" lon="5.71139">
        <ele>384.7</ele>
        <time>1970-01-01T01:13:45.000Z</time>
      </trkpt>
      <trkpt lat="49.61525" lon="5.71133">
        <ele>384.9</ele>
        <time>1970-01-01T01:13:46.000Z</time>
      </trkpt>
      <trkpt lat="49.61523" lon="5.71127">
        <ele>385.1</ele>
        <time>1970-01-01T01:13:47.000Z</time>
      </trkpt>
      <trkpt lat="49.6152" lon="5.7112">
        <ele>385.3</ele>
        <time>1970-01-01T01:13:48.000Z</time>
      </trkpt>
      <trkpt lat="49.61518" lon="5.71113">
        <ele>385.6</ele>
        <time>1970-01-01T01:13:50.000Z</time>
      </trkpt>
      <trkpt lat="49.61516" lon="5.71108">
        <ele>385.8</ele>
        <time>1970-01-01T01:13:51.000Z</time>
      </trkpt>
      <trkpt lat="49.61514" lon="5.71102">
        <ele>386</ele>
        <time>1970-01-01T01:13:52.000Z</time>
      </trkpt>
      <trkpt lat="49.61512" lon="5.71097">
        <ele>386.2</ele>
        <time>1970-01-01T01:13:53.000Z</time>
      </trkpt>
      <trkpt lat="49.61509" lon="5.71088">
        <ele>386.5</ele>
        <time>1970-01-01T01:13:55.000Z</time>
      </trkpt>
      <trkpt lat="49.61507" lon="5.71082">
        <ele>386.7</ele>
        <time>1970-01-01T01:13:58.000Z</time>
      </trkpt>
      <trkpt lat="49.61506" lon="5.71079">
        <ele>386.9</ele>
        <time>1970-01-01T01:13:59.000Z</time>
      </trkpt>
      <trkpt lat="49.61502" lon="5.71072">
        <ele>387.2</ele>
        <time>1970-01-01T01:14:01.000Z</time>
      </trkpt>
      <trkpt lat="49.61499" lon="5.71066">
        <ele>387.5</ele>
        <time>1970-01-01T01:14:02.000Z</time>
      </trkpt>
      <trkpt lat="49.61494" lon="5.71057">
        <ele>387.8</ele>
        <time>1970-01-01T01:14:04.000Z</time>
      </trkpt>
      <trkpt lat="49.61489" lon="5.71048">
        <ele>388.1</ele>
        <time>1970-01-01T01:14:06.000Z</time>
      </trkpt>
      <trkpt lat="49.61484" lon="5.71042">
        <ele>388.4</ele>
        <time>1970-01-01T01:14:07.000Z</time>
      </trkpt>
      <trkpt lat="49.61481" lon="5.71036">
        <ele>388.5</ele>
        <time>1970-01-01T01:14:08.000Z</time>
      </trkpt>
      <trkpt lat="49.61478" lon="5.71031">
        <ele>388.7</ele>
        <time>1970-01-01T01:14:09.000Z</time>
      </trkpt>
      <trkpt lat="49.61472" lon="5.71022">
        <ele>389</ele>
        <time>1970-01-01T01:14:11.000Z</time>
      </trkpt>
      <trkpt lat="49.61467" lon="5.71014">
        <ele>389.3</ele>
        <time>1970-01-01T01:14:13.000Z</time>
      </trkpt>
      <trkpt lat="49.61463" lon="5.71008">
        <ele>389.5</ele>
        <time>1970-01-01T01:14:14.000Z</time>
      </trkpt>
      <trkpt lat="49.6146" lon="5.71004">
        <ele>389.7</ele>
        <time>1970-01-01T01:14:15.000Z</time>
      </trkpt>
      <trkpt lat="49.61456" lon="5.70998">
        <ele>389.9</ele>
        <time>1970-01-01T01:14:17.000Z</time>
      </trkpt>
      <trkpt lat="49.61452" lon="5.70993">
        <ele>390.1</ele>
        <time>1970-01-01T01:14:18.000Z</time>
      </trkpt>
      <trkpt lat="49.61449" lon="5.70988">
        <ele>390.2</ele>
        <time>1970-01-01T01:14:19.000Z</time>
      </trkpt>
      <trkpt lat="49.61445" lon="5.70983">
        <ele>390.4</ele>
        <time>1970-01-01T01:14:20.000Z</time>
      </trkpt>
      <trkpt lat="49.6144" lon="5.70977">
        <ele>390.6</ele>
        <time>1970-01-01T01:14:22.000Z</time>
      </trkpt>
      <trkpt lat="49.61436" lon="5.70973">
        <ele>390.7</ele>
        <time>1970-01-01T01:14:23.000Z</time>
      </trkpt>
      <trkpt lat="49.61433" lon="5.70968">
        <ele>390.9</ele>
        <time>1970-01-01T01:14:24.000Z</time>
      </trkpt>
      <trkpt lat="49.61429" lon="5.70963">
        <ele>391.1</ele>
        <time>1970-01-01T01:14:25.000Z</time>
      </trkpt>
      <trkpt lat="49.61426" lon="5.70959">
        <ele>391.2</ele>
        <time>1970-01-01T01:14:26.000Z</time>
      </trkpt>
      <trkpt lat="49.61423" lon="5.70954">
        <ele>391.4</ele>
        <time>1970-01-01T01:14:28.000Z</time>
      </trkpt>
      <trkpt lat="49.6142" lon="5.70949">
        <ele>391.5</ele>
        <time>1970-01-01T01:14:29.000Z</time>
      </trkpt>
      <trkpt lat="49.61416" lon="5.70943">
        <ele>391.7</ele>
        <time>1970-01-01T01:14:30.000Z</time>
      </trkpt>
      <trkpt lat="49.61413" lon="5.70936">
        <ele>391.8</ele>
        <time>1970-01-01T01:14:31.000Z</time>
      </trkpt>
      <trkpt lat="49.61409" lon="5.70931">
        <ele>392</ele>
        <time>1970-01-01T01:14:33.000Z</time>
      </trkpt>
      <trkpt lat="49.61406" lon="5.70924">
        <ele>392.1</ele>
        <time>1970-01-01T01:14:34.000Z</time>
      </trkpt>
      <trkpt lat="49.61402" lon="5.70916">
        <ele>392.2</ele>
        <time>1970-01-01T01:14:36.000Z</time>
      </trkpt>
      <trkpt lat="49.61398" lon="5.70908">
        <ele>392.4</ele>
        <time>1970-01-01T01:14:37.000Z</time>
      </trkpt>
      <trkpt lat="49.61394" lon="5.709">
        <ele>392.5</ele>
        <time>1970-01-01T01:14:39.000Z</time>
      </trkpt>
      <trkpt lat="49.61391" lon="5.70893">
        <ele>392.6</ele>
        <time>1970-01-01T01:14:40.000Z</time>
      </trkpt>
      <trkpt lat="49.61386" lon="5.70883">
        <ele>392.7</ele>
        <time>1970-01-01T01:14:42.000Z</time>
      </trkpt>
      <trkpt lat="49.61381" lon="5.70874">
        <ele>392.7</ele>
        <time>1970-01-01T01:14:43.000Z</time>
      </trkpt>
      <trkpt lat="49.61378" lon="5.70867">
        <ele>392.7</ele>
        <time>1970-01-01T01:14:44.000Z</time>
      </trkpt>
      <trkpt lat="49.61377" lon="5.70864">
        <ele>392.7</ele>
        <time>1970-01-01T01:14:45.000Z</time>
      </trkpt>
      <trkpt lat="49.6137" lon="5.70851">
        <ele>392.7</ele>
        <time>1970-01-01T01:14:49.000Z</time>
      </trkpt>
      <trkpt lat="49.61366" lon="5.70842">
        <ele>392.6</ele>
        <time>1970-01-01T01:14:50.000Z</time>
      </trkpt>
      <trkpt lat="49.61362" lon="5.70834">
        <ele>392.6</ele>
        <time>1970-01-01T01:14:51.000Z</time>
      </trkpt>
      <trkpt lat="49.61359" lon="5.70828">
        <ele>392.5</ele>
        <time>1970-01-01T01:14:53.000Z</time>
      </trkpt>
      <trkpt lat="49.61357" lon="5.70824">
        <ele>392.5</ele>
        <time>1970-01-01T01:14:54.000Z</time>
      </trkpt>
      <trkpt lat="49.61355" lon="5.7082">
        <ele>392.5</ele>
        <time>1970-01-01T01:14:55.000Z</time>
      </trkpt>
      <trkpt lat="49.61353" lon="5.70816">
        <ele>392.4</ele>
        <time>1970-01-01T01:14:56.000Z</time>
      </trkpt>
      <trkpt lat="49.61351" lon="5.70811">
        <ele>392.4</ele>
        <time>1970-01-01T01:14:57.000Z</time>
      </trkpt>
      <trkpt lat="49.61349" lon="5.70806">
        <ele>392.3</ele>
        <time>1970-01-01T01:14:59.000Z</time>
      </trkpt>
      <trkpt lat="49.61345" lon="5.70798">
        <ele>392.2</ele>
        <time>1970-01-01T01:15:00.000Z</time>
      </trkpt>
      <trkpt lat="49.6134" lon="5.7079">
        <ele>392</ele>
        <time>1970-01-01T01:15:02.000Z</time>
      </trkpt>
      <trkpt lat="49.61336" lon="5.70783">
        <ele>391.9</ele>
        <time>1970-01-01T01:15:03.000Z</time>
      </trkpt>
      <trkpt lat="49.6133" lon="5.70774">
        <ele>391.8</ele>
        <time>1970-01-01T01:15:04.000Z</time>
      </trkpt>
      <trkpt lat="49.61325" lon="5.70767">
        <ele>391.7</ele>
        <time>1970-01-01T01:15:05.000Z</time>
      </trkpt>
      <trkpt lat="49.6132" lon="5.7076">
        <ele>391.5</ele>
        <time>1970-01-01T01:15:06.000Z</time>
      </trkpt>
      <trkpt lat="49.61298" lon="5.70722">
        <ele>391</ele>
        <time>1970-01-01T01:15:08.000Z</time>
      </trkpt>
      <trkpt lat="49.61291" lon="5.7071">
        <ele>390.7</ele>
        <time>1970-01-01T01:15:09.000Z</time>
      </trkpt>
      <trkpt lat="49.6128" lon="5.70693">
        <ele>390.4</ele>
        <time>1970-01-01T01:15:11.000Z</time>
      </trkpt>
      <trkpt lat="49.61271" lon="5.70679">
        <ele>390</ele>
        <time>1970-01-01T01:15:13.000Z</time>
      </trkpt>
      <trkpt lat="49.61261" lon="5.70667">
        <ele>389.6</ele>
        <time>1970-01-01T01:15:15.000Z</time>
      </trkpt>
      <trkpt lat="49.61256" lon="5.70661">
        <ele>389.4</ele>
        <time>1970-01-01T01:15:16.000Z</time>
      </trkpt>
      <trkpt lat="49.61245" lon="5.70651">
        <ele>389.3</ele>
        <time>1970-01-01T01:15:18.000Z</time>
      </trkpt>
      <trkpt lat="49.61235" lon="5.70641">
        <ele>389.2</ele>
        <time>1970-01-01T01:15:20.000Z</time>
      </trkpt>
      <trkpt lat="49.6123" lon="5.70636">
        <ele>389.1</ele>
        <time>1970-01-01T01:15:21.000Z</time>
      </trkpt>
      <trkpt lat="49.61225" lon="5.70631">
        <ele>389</ele>
        <time>1970-01-01T01:15:22.000Z</time>
      </trkpt>
      <trkpt lat="49.61215" lon="5.7062">
        <ele>388.8</ele>
        <time>1970-01-01T01:15:24.000Z</time>
      </trkpt>
      <trkpt lat="49.6121" lon="5.70613">
        <ele>388.7</ele>
        <time>1970-01-01T01:15:25.000Z</time>
      </trkpt>
      <trkpt lat="49.61205" lon="5.70607">
        <ele>388.5</ele>
        <time>1970-01-01T01:15:26.000Z</time>
      </trkpt>
      <trkpt lat="49.61197" lon="5.70593">
        <ele>388.1</ele>
        <time>1970-01-01T01:15:28.000Z</time>
      </trkpt>
      <trkpt lat="49.61192" lon="5.70586">
        <ele>387.9</ele>
        <time>1970-01-01T01:15:29.000Z</time>
      </trkpt>
      <trkpt lat="49.61184" lon="5.70571">
        <ele>387.5</ele>
        <time>1970-01-01T01:15:31.000Z</time>
      </trkpt>
      <trkpt lat="49.6118" lon="5.70562">
        <ele>387.2</ele>
        <time>1970-01-01T01:15:32.000Z</time>
      </trkpt>
      <trkpt lat="49.61174" lon="5.70543">
        <ele>386.6</ele>
        <time>1970-01-01T01:15:34.000Z</time>
      </trkpt>
      <trkpt lat="49.61171" lon="5.70523">
        <ele>386</ele>
        <time>1970-01-01T01:15:36.000Z</time>
      </trkpt>
      <trkpt lat="49.6117" lon="5.70513">
        <ele>385.8</ele>
        <time>1970-01-01T01:15:37.000Z</time>
      </trkpt>
      <trkpt lat="49.61167" lon="5.70493">
        <ele>385.5</ele>
        <time>1970-01-01T01:15:39.000Z</time>
      </trkpt>
      <trkpt lat="49.61165" lon="5.70473">
        <ele>385.1</ele>
        <time>1970-01-01T01:15:41.000Z</time>
      </trkpt>
      <trkpt lat="49.61161" lon="5.70454">
        <ele>384.9</ele>
        <time>1970-01-01T01:15:43.000Z</time>
      </trkpt>
      <trkpt lat="49.6116" lon="5.70444">
        <ele>384.7</ele>
        <time>1970-01-01T01:15:44.000Z</time>
      </trkpt>
      <trkpt lat="49.61157" lon="5.70434">
        <ele>384.6</ele>
        <time>1970-01-01T01:15:45.000Z</time>
      </trkpt>
      <trkpt lat="49.61154" lon="5.70415">
        <ele>384.3</ele>
        <time>1970-01-01T01:15:47.000Z</time>
      </trkpt>
      <trkpt lat="49.61152" lon="5.70405">
        <ele>384.1</ele>
        <time>1970-01-01T01:15:48.000Z</time>
      </trkpt>
      <trkpt lat="49.6115" lon="5.70396">
        <ele>384</ele>
        <time>1970-01-01T01:15:49.000Z</time>
      </trkpt>
      <trkpt lat="49.61146" lon="5.70377">
        <ele>383.6</ele>
        <time>1970-01-01T01:15:51.000Z</time>
      </trkpt>
      <trkpt lat="49.61143" lon="5.70368">
        <ele>383.3</ele>
        <time>1970-01-01T01:15:52.000Z</time>
      </trkpt>
      <trkpt lat="49.61137" lon="5.70349">
        <ele>382.6</ele>
        <time>1970-01-01T01:15:54.000Z</time>
      </trkpt>
      <trkpt lat="49.61134" lon="5.7034">
        <ele>382.3</ele>
        <time>1970-01-01T01:15:55.000Z</time>
      </trkpt>
      <trkpt lat="49.61127" lon="5.70322">
        <ele>381.5</ele>
        <time>1970-01-01T01:15:57.000Z</time>
      </trkpt>
      <trkpt lat="49.61123" lon="5.70313">
        <ele>381.1</ele>
        <time>1970-01-01T01:15:58.000Z</time>
      </trkpt>
      <trkpt lat="49.61112" lon="5.70294">
        <ele>380.2</ele>
        <time>1970-01-01T01:16:00.000Z</time>
      </trkpt>
      <trkpt lat="49.61101" lon="5.70275">
        <ele>379.2</ele>
        <time>1970-01-01T01:16:02.000Z</time>
      </trkpt>
      <trkpt lat="49.6109" lon="5.70256">
        <ele>378.5</ele>
        <time>1970-01-01T01:16:04.000Z</time>
      </trkpt>
      <trkpt lat="49.61079" lon="5.70237">
        <ele>377.9</ele>
        <time>1970-01-01T01:16:06.000Z</time>
      </trkpt>
      <trkpt lat="49.61067" lon="5.7022">
        <ele>377.5</ele>
        <time>1970-01-01T01:16:08.000Z</time>
      </trkpt>
      <trkpt lat="49.6106" lon="5.70213">
        <ele>377.4</ele>
        <time>1970-01-01T01:16:09.000Z</time>
      </trkpt>
      <trkpt lat="49.61047" lon="5.70203">
        <ele>377.2</ele>
        <time>1970-01-01T01:16:11.000Z</time>
      </trkpt>
      <trkpt lat="49.61033" lon="5.70199">
        <ele>376.9</ele>
        <time>1970-01-01T01:16:13.000Z</time>
      </trkpt>
      <trkpt lat="49.61026" lon="5.70198">
        <ele>376.9</ele>
        <time>1970-01-01T01:16:14.000Z</time>
      </trkpt>
      <trkpt lat="49.61012" lon="5.70201">
        <ele>376.7</ele>
        <time>1970-01-01T01:16:16.000Z</time>
      </trkpt>
      <trkpt lat="49.61005" lon="5.70204">
        <ele>376.6</ele>
        <time>1970-01-01T01:16:17.000Z</time>
      </trkpt>
      <trkpt lat="49.60991" lon="5.7021">
        <ele>376.5</ele>
        <time>1970-01-01T01:16:19.000Z</time>
      </trkpt>
      <trkpt lat="49.60977" lon="5.70215">
        <ele>376.3</ele>
        <time>1970-01-01T01:16:21.000Z</time>
      </trkpt>
      <trkpt lat="49.60964" lon="5.70213">
        <ele>376</ele>
        <time>1970-01-01T01:16:23.000Z</time>
      </trkpt>
      <trkpt lat="49.60959" lon="5.70207">
        <ele>376.1</ele>
        <time>1970-01-01T01:16:24.000Z</time>
      </trkpt>
      <trkpt lat="49.6095" lon="5.7019">
        <ele>375.9</ele>
        <time>1970-01-01T01:16:26.000Z</time>
      </trkpt>
      <trkpt lat="49.60948" lon="5.70181">
        <ele>375.7</ele>
        <time>1970-01-01T01:16:27.000Z</time>
      </trkpt>
      <trkpt lat="49.60947" lon="5.70161">
        <ele>375.4</ele>
        <time>1970-01-01T01:16:29.000Z</time>
      </trkpt>
      <trkpt lat="49.6095" lon="5.70135">
        <ele>374.9</ele>
        <time>1970-01-01T01:16:31.000Z</time>
      </trkpt>
      <trkpt lat="49.60946" lon="5.70114">
        <ele>374.4</ele>
        <time>1970-01-01T01:16:33.000Z</time>
      </trkpt>
      <trkpt lat="49.60938" lon="5.70102">
        <ele>374</ele>
        <time>1970-01-01T01:16:35.000Z</time>
      </trkpt>
      <trkpt lat="49.60934" lon="5.70098">
        <ele>373.8</ele>
        <time>1970-01-01T01:16:36.000Z</time>
      </trkpt>
      <trkpt lat="49.6093" lon="5.70094">
        <ele>373.7</ele>
        <time>1970-01-01T01:16:37.000Z</time>
      </trkpt>
      <trkpt lat="49.60927" lon="5.70091">
        <ele>373.5</ele>
        <time>1970-01-01T01:16:39.000Z</time>
      </trkpt>
      <trkpt lat="49.60928" lon="5.70086">
        <ele>372.5</ele>
        <time>1970-01-01T01:16:43.000Z</time>
      </trkpt>
      <trkpt lat="49.60927" lon="5.7008">
        <ele>371.3</ele>
        <time>1970-01-01T01:16:45.000Z</time>
      </trkpt>
      <trkpt lat="49.60924" lon="5.70066">
        <ele>369.5</ele>
        <time>1970-01-01T01:16:47.000Z</time>
      </trkpt>
      <trkpt lat="49.60924" lon="5.70062">
        <ele>369.2</ele>
        <time>1970-01-01T01:16:48.000Z</time>
      </trkpt>
      <trkpt lat="49.6092" lon="5.70044">
        <ele>368.3</ele>
        <time>1970-01-01T01:16:50.000Z</time>
      </trkpt>
      <trkpt lat="49.60918" lon="5.70036">
        <ele>368.1</ele>
        <time>1970-01-01T01:16:51.000Z</time>
      </trkpt>
      <trkpt lat="49.60912" lon="5.70017">
        <ele>367.4</ele>
        <time>1970-01-01T01:16:53.000Z</time>
      </trkpt>
      <trkpt lat="49.60905" lon="5.69996">
        <ele>366.8</ele>
        <time>1970-01-01T01:16:55.000Z</time>
      </trkpt>
      <trkpt lat="49.60899" lon="5.69978">
        <ele>366.5</ele>
        <time>1970-01-01T01:16:57.000Z</time>
      </trkpt>
      <trkpt lat="49.60897" lon="5.69969">
        <ele>366.4</ele>
        <time>1970-01-01T01:16:58.000Z</time>
      </trkpt>
      <trkpt lat="49.60894" lon="5.6996">
        <ele>366.3</ele>
        <time>1970-01-01T01:16:59.000Z</time>
      </trkpt>
      <trkpt lat="49.60888" lon="5.69941">
        <ele>365.7</ele>
        <time>1970-01-01T01:17:01.000Z</time>
      </trkpt>
      <trkpt lat="49.60886" lon="5.69931">
        <ele>365.5</ele>
        <time>1970-01-01T01:17:02.000Z</time>
      </trkpt>
      <trkpt lat="49.60883" lon="5.69923">
        <ele>365.3</ele>
        <time>1970-01-01T01:17:03.000Z</time>
      </trkpt>
      <trkpt lat="49.60877" lon="5.69906">
        <ele>364.4</ele>
        <time>1970-01-01T01:17:05.000Z</time>
      </trkpt>
      <trkpt lat="49.6087" lon="5.69887">
        <ele>363.4</ele>
        <time>1970-01-01T01:17:07.000Z</time>
      </trkpt>
      <trkpt lat="49.60867" lon="5.69877">
        <ele>362.9</ele>
        <time>1970-01-01T01:17:08.000Z</time>
      </trkpt>
      <trkpt lat="49.60862" lon="5.69867">
        <ele>362.4</ele>
        <time>1970-01-01T01:17:09.000Z</time>
      </trkpt>
      <trkpt lat="49.60854" lon="5.69846">
        <ele>361.5</ele>
        <time>1970-01-01T01:17:11.000Z</time>
      </trkpt>
      <trkpt lat="49.6085" lon="5.69835">
        <ele>361.2</ele>
        <time>1970-01-01T01:17:12.000Z</time>
      </trkpt>
      <trkpt lat="49.60846" lon="5.69823">
        <ele>360.7</ele>
        <time>1970-01-01T01:17:13.000Z</time>
      </trkpt>
      <trkpt lat="49.60842" lon="5.69812">
        <ele>359.9</ele>
        <time>1970-01-01T01:17:14.000Z</time>
      </trkpt>
      <trkpt lat="49.60833" lon="5.69789">
        <ele>358.3</ele>
        <time>1970-01-01T01:17:16.000Z</time>
      </trkpt>
      <trkpt lat="49.60825" lon="5.69768">
        <ele>357.4</ele>
        <time>1970-01-01T01:17:18.000Z</time>
      </trkpt>
      <trkpt lat="49.60821" lon="5.69758">
        <ele>357.1</ele>
        <time>1970-01-01T01:17:19.000Z</time>
      </trkpt>
      <trkpt lat="49.60815" lon="5.69738">
        <ele>356.7</ele>
        <time>1970-01-01T01:17:21.000Z</time>
      </trkpt>
      <trkpt lat="49.60812" lon="5.69729">
        <ele>356.8</ele>
        <time>1970-01-01T01:17:22.000Z</time>
      </trkpt>
      <trkpt lat="49.60804" lon="5.6971">
        <ele>357</ele>
        <time>1970-01-01T01:17:24.000Z</time>
      </trkpt>
      <trkpt lat="49.60801" lon="5.69701">
        <ele>356.8</ele>
        <time>1970-01-01T01:17:25.000Z</time>
      </trkpt>
      <trkpt lat="49.60792" lon="5.69684">
        <ele>356.2</ele>
        <time>1970-01-01T01:17:27.000Z</time>
      </trkpt>
      <trkpt lat="49.60789" lon="5.69674">
        <ele>356</ele>
        <time>1970-01-01T01:17:28.000Z</time>
      </trkpt>
      <trkpt lat="49.60785" lon="5.69663">
        <ele>355.8</ele>
        <time>1970-01-01T01:17:29.000Z</time>
      </trkpt>
      <trkpt lat="49.60777" lon="5.69652">
        <ele>355.5</ele>
        <time>1970-01-01T01:17:31.000Z</time>
      </trkpt>
      <trkpt lat="49.60771" lon="5.69644">
        <ele>355.1</ele>
        <time>1970-01-01T01:17:32.000Z</time>
      </trkpt>
      <trkpt lat="49.60761" lon="5.69625">
        <ele>354.5</ele>
        <time>1970-01-01T01:17:34.000Z</time>
      </trkpt>
      <trkpt lat="49.60758" lon="5.69615">
        <ele>354.7</ele>
        <time>1970-01-01T01:17:36.000Z</time>
      </trkpt>
      <trkpt lat="49.60758" lon="5.69607">
        <ele>354.9</ele>
        <time>1970-01-01T01:17:38.000Z</time>
      </trkpt>
      <trkpt lat="49.60759" lon="5.69601">
        <ele>355.2</ele>
        <time>1970-01-01T01:17:40.000Z</time>
      </trkpt>
      <trkpt lat="49.60759" lon="5.69591">
        <ele>355.6</ele>
        <time>1970-01-01T01:17:42.000Z</time>
      </trkpt>
      <trkpt lat="49.60758" lon="5.69584">
        <ele>356.1</ele>
        <time>1970-01-01T01:17:45.000Z</time>
      </trkpt>
      <trkpt lat="49.60759" lon="5.69575">
        <ele>356.9</ele>
        <time>1970-01-01T01:17:47.000Z</time>
      </trkpt>
      <trkpt lat="49.60759" lon="5.69571">
        <ele>357.3</ele>
        <time>1970-01-01T01:17:48.000Z</time>
      </trkpt>
      <trkpt lat="49.6076" lon="5.69567">
        <ele>357.8</ele>
        <time>1970-01-01T01:17:49.000Z</time>
      </trkpt>
      <trkpt lat="49.6076" lon="5.69559">
        <ele>358.7</ele>
        <time>1970-01-01T01:17:51.000Z</time>
      </trkpt>
      <trkpt lat="49.60759" lon="5.69553">
        <ele>359.5</ele>
        <time>1970-01-01T01:17:53.000Z</time>
      </trkpt>
      <trkpt lat="49.60759" lon="5.69546">
        <ele>360.5</ele>
        <time>1970-01-01T01:17:55.000Z</time>
      </trkpt>
      <trkpt lat="49.60759" lon="5.69541">
        <ele>361.2</ele>
        <time>1970-01-01T01:17:56.000Z</time>
      </trkpt>
      <trkpt lat="49.60759" lon="5.69536">
        <ele>362</ele>
        <time>1970-01-01T01:17:58.000Z</time>
      </trkpt>
      <trkpt lat="49.60759" lon="5.69531">
        <ele>362.6</ele>
        <time>1970-01-01T01:17:59.000Z</time>
      </trkpt>
      <trkpt lat="49.60757" lon="5.69526">
        <ele>363.1</ele>
        <time>1970-01-01T01:18:00.000Z</time>
      </trkpt>
      <trkpt lat="49.60757" lon="5.69521">
        <ele>363.6</ele>
        <time>1970-01-01T01:18:02.000Z</time>
      </trkpt>
      <trkpt lat="49.60758" lon="5.69517">
        <ele>363.9</ele>
        <time>1970-01-01T01:18:03.000Z</time>
      </trkpt>
      <trkpt lat="49.6076" lon="5.69513">
        <ele>364.3</ele>
        <time>1970-01-01T01:18:05.000Z</time>
      </trkpt>
      <trkpt lat="49.60761" lon="5.69507">
        <ele>364.6</ele>
        <time>1970-01-01T01:18:06.000Z</time>
      </trkpt>
      <trkpt lat="49.60761" lon="5.69501">
        <ele>364.9</ele>
        <time>1970-01-01T01:18:08.000Z</time>
      </trkpt>
      <trkpt lat="49.6076" lon="5.69495">
        <ele>365.2</ele>
        <time>1970-01-01T01:18:09.000Z</time>
      </trkpt>
      <trkpt lat="49.60758" lon="5.6949">
        <ele>365.3</ele>
        <time>1970-01-01T01:18:11.000Z</time>
      </trkpt>
      <trkpt lat="49.60755" lon="5.69485">
        <ele>365.5</ele>
        <time>1970-01-01T01:18:12.000Z</time>
      </trkpt>
      <trkpt lat="49.60753" lon="5.69478">
        <ele>365.7</ele>
        <time>1970-01-01T01:18:13.000Z</time>
      </trkpt>
      <trkpt lat="49.60743" lon="5.6945">
        <ele>366</ele>
        <time>1970-01-01T01:18:15.000Z</time>
      </trkpt>
      <trkpt lat="49.60735" lon="5.69429">
        <ele>364.9</ele>
        <time>1970-01-01T01:18:16.000Z</time>
      </trkpt>
      <trkpt lat="49.60731" lon="5.69419">
        <ele>364.6</ele>
        <time>1970-01-01T01:18:17.000Z</time>
      </trkpt>
      <trkpt lat="49.60726" lon="5.69412">
        <ele>364.5</ele>
        <time>1970-01-01T01:18:18.000Z</time>
      </trkpt>
      <trkpt lat="49.60718" lon="5.694">
        <ele>364.3</ele>
        <time>1970-01-01T01:18:20.000Z</time>
      </trkpt>
      <trkpt lat="49.60708" lon="5.69391">
        <ele>364</ele>
        <time>1970-01-01T01:18:22.000Z</time>
      </trkpt>
      <trkpt lat="49.60699" lon="5.69383">
        <ele>363.6</ele>
        <time>1970-01-01T01:18:24.000Z</time>
      </trkpt>
      <trkpt lat="49.6069" lon="5.69375">
        <ele>363.1</ele>
        <time>1970-01-01T01:18:26.000Z</time>
      </trkpt>
      <trkpt lat="49.60686" lon="5.69371">
        <ele>362.8</ele>
        <time>1970-01-01T01:18:27.000Z</time>
      </trkpt>
      <trkpt lat="49.60681" lon="5.69367">
        <ele>362.6</ele>
        <time>1970-01-01T01:18:28.000Z</time>
      </trkpt>
      <trkpt lat="49.60673" lon="5.69358">
        <ele>362.3</ele>
        <time>1970-01-01T01:18:30.000Z</time>
      </trkpt>
      <trkpt lat="49.60663" lon="5.69349">
        <ele>361.9</ele>
        <time>1970-01-01T01:18:32.000Z</time>
      </trkpt>
      <trkpt lat="49.60658" lon="5.69344">
        <ele>361.6</ele>
        <time>1970-01-01T01:18:33.000Z</time>
      </trkpt>
      <trkpt lat="49.60653" lon="5.6934">
        <ele>361.5</ele>
        <time>1970-01-01T01:18:34.000Z</time>
      </trkpt>
      <trkpt lat="49.60648" lon="5.69335">
        <ele>361.3</ele>
        <time>1970-01-01T01:18:35.000Z</time>
      </trkpt>
      <trkpt lat="49.60637" lon="5.69326">
        <ele>361</ele>
        <time>1970-01-01T01:18:37.000Z</time>
      </trkpt>
      <trkpt lat="49.60632" lon="5.69321">
        <ele>360.8</ele>
        <time>1970-01-01T01:18:38.000Z</time>
      </trkpt>
      <trkpt lat="49.60622" lon="5.69311">
        <ele>360.1</ele>
        <time>1970-01-01T01:18:40.000Z</time>
      </trkpt>
      <trkpt lat="49.60612" lon="5.69301">
        <ele>359.5</ele>
        <time>1970-01-01T01:18:42.000Z</time>
      </trkpt>
      <trkpt lat="49.60607" lon="5.69296">
        <ele>359.3</ele>
        <time>1970-01-01T01:18:43.000Z</time>
      </trkpt>
      <trkpt lat="49.60596" lon="5.69286">
        <ele>358.7</ele>
        <time>1970-01-01T01:18:45.000Z</time>
      </trkpt>
      <trkpt lat="49.60591" lon="5.69281">
        <ele>358.4</ele>
        <time>1970-01-01T01:18:46.000Z</time>
      </trkpt>
      <trkpt lat="49.60579" lon="5.6927">
        <ele>357.5</ele>
        <time>1970-01-01T01:18:48.000Z</time>
      </trkpt>
      <trkpt lat="49.60574" lon="5.69265">
        <ele>357.1</ele>
        <time>1970-01-01T01:18:49.000Z</time>
      </trkpt>
      <trkpt lat="49.60563" lon="5.69253">
        <ele>356</ele>
        <time>1970-01-01T01:18:51.000Z</time>
      </trkpt>
      <trkpt lat="49.60557" lon="5.69247">
        <ele>355.4</ele>
        <time>1970-01-01T01:18:52.000Z</time>
      </trkpt>
      <trkpt lat="49.60544" lon="5.69233">
        <ele>353.9</ele>
        <time>1970-01-01T01:18:54.000Z</time>
      </trkpt>
      <trkpt lat="49.60529" lon="5.6922">
        <ele>352.1</ele>
        <time>1970-01-01T01:18:56.000Z</time>
      </trkpt>
      <trkpt lat="49.60512" lon="5.69209">
        <ele>349.7</ele>
        <time>1970-01-01T01:18:58.000Z</time>
      </trkpt>
      <trkpt lat="49.60494" lon="5.69201">
        <ele>348.1</ele>
        <time>1970-01-01T01:19:00.000Z</time>
      </trkpt>
      <trkpt lat="49.60486" lon="5.69197">
        <ele>347.4</ele>
        <time>1970-01-01T01:19:01.000Z</time>
      </trkpt>
      <trkpt lat="49.60477" lon="5.69192">
        <ele>346.6</ele>
        <time>1970-01-01T01:19:02.000Z</time>
      </trkpt>
      <trkpt lat="49.60459" lon="5.69183">
        <ele>344.9</ele>
        <time>1970-01-01T01:19:04.000Z</time>
      </trkpt>
      <trkpt lat="49.6045" lon="5.69178">
        <ele>344.1</ele>
        <time>1970-01-01T01:19:05.000Z</time>
      </trkpt>
      <trkpt lat="49.60441" lon="5.69174">
        <ele>343.4</ele>
        <time>1970-01-01T01:19:06.000Z</time>
      </trkpt>
      <trkpt lat="49.60424" lon="5.69166">
        <ele>342.2</ele>
        <time>1970-01-01T01:19:08.000Z</time>
      </trkpt>
      <trkpt lat="49.60416" lon="5.69162">
        <ele>341.7</ele>
        <time>1970-01-01T01:19:09.000Z</time>
      </trkpt>
      <trkpt lat="49.60399" lon="5.69152">
        <ele>341</ele>
        <time>1970-01-01T01:19:11.000Z</time>
      </trkpt>
      <trkpt lat="49.60384" lon="5.69145">
        <ele>340.5</ele>
        <time>1970-01-01T01:19:13.000Z</time>
      </trkpt>
      <trkpt lat="49.60377" lon="5.69142">
        <ele>340.2</ele>
        <time>1970-01-01T01:19:14.000Z</time>
      </trkpt>
      <trkpt lat="49.6037" lon="5.6914">
        <ele>339.9</ele>
        <time>1970-01-01T01:19:15.000Z</time>
      </trkpt>
      <trkpt lat="49.60357" lon="5.69135">
        <ele>339.6</ele>
        <time>1970-01-01T01:19:17.000Z</time>
      </trkpt>
      <trkpt lat="49.60351" lon="5.69132">
        <ele>339.6</ele>
        <time>1970-01-01T01:19:18.000Z</time>
      </trkpt>
      <trkpt lat="49.60338" lon="5.69127">
        <ele>339.4</ele>
        <time>1970-01-01T01:19:20.000Z</time>
      </trkpt>
      <trkpt lat="49.60332" lon="5.69123">
        <ele>339.2</ele>
        <time>1970-01-01T01:19:21.000Z</time>
      </trkpt>
      <trkpt lat="49.60319" lon="5.69119">
        <ele>338.8</ele>
        <time>1970-01-01T01:19:23.000Z</time>
      </trkpt>
      <trkpt lat="49.60309" lon="5.69115">
        <ele>338.4</ele>
        <time>1970-01-01T01:19:25.000Z</time>
      </trkpt>
      <trkpt lat="49.60299" lon="5.69111">
        <ele>338.1</ele>
        <time>1970-01-01T01:19:27.000Z</time>
      </trkpt>
      <trkpt lat="49.60294" lon="5.69108">
        <ele>338</ele>
        <time>1970-01-01T01:19:28.000Z</time>
      </trkpt>
      <trkpt lat="49.60289" lon="5.69105">
        <ele>337.8</ele>
        <time>1970-01-01T01:19:29.000Z</time>
      </trkpt>
      <trkpt lat="49.60279" lon="5.69098">
        <ele>337.6</ele>
        <time>1970-01-01T01:19:31.000Z</time>
      </trkpt>
      <trkpt lat="49.60275" lon="5.69095">
        <ele>337.5</ele>
        <time>1970-01-01T01:19:32.000Z</time>
      </trkpt>
      <trkpt lat="49.60265" lon="5.69089">
        <ele>337.4</ele>
        <time>1970-01-01T01:19:34.000Z</time>
      </trkpt>
      <trkpt lat="49.60261" lon="5.69087">
        <ele>337.4</ele>
        <time>1970-01-01T01:19:35.000Z</time>
      </trkpt>
      <trkpt lat="49.60256" lon="5.69084">
        <ele>337.3</ele>
        <time>1970-01-01T01:19:36.000Z</time>
      </trkpt>
      <trkpt lat="49.60247" lon="5.69079">
        <ele>337.1</ele>
        <time>1970-01-01T01:19:38.000Z</time>
      </trkpt>
      <trkpt lat="49.60243" lon="5.69076">
        <ele>337.1</ele>
        <time>1970-01-01T01:19:39.000Z</time>
      </trkpt>
      <trkpt lat="49.60239" lon="5.69075">
        <ele>337.1</ele>
        <time>1970-01-01T01:19:40.000Z</time>
      </trkpt>
      <trkpt lat="49.60231" lon="5.69071">
        <ele>337.1</ele>
        <time>1970-01-01T01:19:42.000Z</time>
      </trkpt>
      <trkpt lat="49.60224" lon="5.69067">
        <ele>337</ele>
        <time>1970-01-01T01:19:44.000Z</time>
      </trkpt>
      <trkpt lat="49.6022" lon="5.69065">
        <ele>337</ele>
        <time>1970-01-01T01:19:45.000Z</time>
      </trkpt>
      <trkpt lat="49.60215" lon="5.69064">
        <ele>336.9</ele>
        <time>1970-01-01T01:19:46.000Z</time>
      </trkpt>
      <trkpt lat="49.60208" lon="5.6906">
        <ele>336.7</ele>
        <time>1970-01-01T01:19:48.000Z</time>
      </trkpt>
      <trkpt lat="49.60205" lon="5.6906">
        <ele>336.6</ele>
        <time>1970-01-01T01:19:50.000Z</time>
      </trkpt>
      <trkpt lat="49.60202" lon="5.69057">
        <ele>336.5</ele>
        <time>1970-01-01T01:19:51.000Z</time>
      </trkpt>
      <trkpt lat="49.60195" lon="5.69044">
        <ele>336.1</ele>
        <time>1970-01-01T01:19:53.000Z</time>
      </trkpt>
      <trkpt lat="49.60191" lon="5.69039">
        <ele>336</ele>
        <time>1970-01-01T01:19:54.000Z</time>
      </trkpt>
      <trkpt lat="49.60188" lon="5.69037">
        <ele>336</ele>
        <time>1970-01-01T01:19:55.000Z</time>
      </trkpt>
      <trkpt lat="49.60181" lon="5.69025">
        <ele>335.9</ele>
        <time>1970-01-01T01:19:57.000Z</time>
      </trkpt>
      <trkpt lat="49.60175" lon="5.69015">
        <ele>335.6</ele>
        <time>1970-01-01T01:19:59.000Z</time>
      </trkpt>
      <trkpt lat="49.60168" lon="5.69005">
        <ele>335.5</ele>
        <time>1970-01-01T01:20:01.000Z</time>
      </trkpt>
      <trkpt lat="49.60158" lon="5.68996">
        <ele>335.6</ele>
        <time>1970-01-01T01:20:03.000Z</time>
      </trkpt>
      <trkpt lat="49.60149" lon="5.68987">
        <ele>336</ele>
        <time>1970-01-01T01:20:05.000Z</time>
      </trkpt>
      <trkpt lat="49.60145" lon="5.68983">
        <ele>336.2</ele>
        <time>1970-01-01T01:20:06.000Z</time>
      </trkpt>
      <trkpt lat="49.60143" lon="5.6898">
        <ele>336.3</ele>
        <time>1970-01-01T01:20:07.000Z</time>
      </trkpt>
      <trkpt lat="49.60138" lon="5.68976">
        <ele>336.5</ele>
        <time>1970-01-01T01:20:09.000Z</time>
      </trkpt>
      <trkpt lat="49.60135" lon="5.68976">
        <ele>336.7</ele>
        <time>1970-01-01T01:20:10.000Z</time>
      </trkpt>
      <trkpt lat="49.60128" lon="5.68978">
        <ele>337</ele>
        <time>1970-01-01T01:20:12.000Z</time>
      </trkpt>
      <trkpt lat="49.6012" lon="5.68977">
        <ele>337.2</ele>
        <time>1970-01-01T01:20:14.000Z</time>
      </trkpt>
      <trkpt lat="49.60117" lon="5.68976">
        <ele>337.3</ele>
        <time>1970-01-01T01:20:15.000Z</time>
      </trkpt>
      <trkpt lat="49.60114" lon="5.68971">
        <ele>337.5</ele>
        <time>1970-01-01T01:20:17.000Z</time>
      </trkpt>
      <trkpt lat="49.60114" lon="5.68964">
        <ele>337.6</ele>
        <time>1970-01-01T01:20:19.000Z</time>
      </trkpt>
      <trkpt lat="49.60114" lon="5.68956">
        <ele>337.7</ele>
        <time>1970-01-01T01:20:21.000Z</time>
      </trkpt>
      <trkpt lat="49.60109" lon="5.68953">
        <ele>337.8</ele>
        <time>1970-01-01T01:20:23.000Z</time>
      </trkpt>
      <trkpt lat="49.60102" lon="5.68954">
        <ele>338</ele>
        <time>1970-01-01T01:20:25.000Z</time>
      </trkpt>
      <trkpt lat="49.60098" lon="5.68954">
        <ele>338</ele>
        <time>1970-01-01T01:20:26.000Z</time>
      </trkpt>
      <trkpt lat="49.60096" lon="5.68953">
        <ele>337.9</ele>
        <time>1970-01-01T01:20:27.000Z</time>
      </trkpt>
      <trkpt lat="49.60089" lon="5.68951">
        <ele>337.9</ele>
        <time>1970-01-01T01:20:29.000Z</time>
      </trkpt>
      <trkpt lat="49.60085" lon="5.6895">
        <ele>337.9</ele>
        <time>1970-01-01T01:20:30.000Z</time>
      </trkpt>
      <trkpt lat="49.60079" lon="5.68945">
        <ele>337.9</ele>
        <time>1970-01-01T01:20:32.000Z</time>
      </trkpt>
      <trkpt lat="49.60075" lon="5.68943">
        <ele>338</ele>
        <time>1970-01-01T01:20:33.000Z</time>
      </trkpt>
      <trkpt lat="49.60067" lon="5.6894">
        <ele>338</ele>
        <time>1970-01-01T01:20:35.000Z</time>
      </trkpt>
      <trkpt lat="49.60059" lon="5.68938">
        <ele>338</ele>
        <time>1970-01-01T01:20:37.000Z</time>
      </trkpt>
      <trkpt lat="49.60055" lon="5.68936">
        <ele>338.1</ele>
        <time>1970-01-01T01:20:38.000Z</time>
      </trkpt>
      <trkpt lat="49.60049" lon="5.68934">
        <ele>338.2</ele>
        <time>1970-01-01T01:20:39.000Z</time>
      </trkpt>
      <trkpt lat="49.60039" lon="5.68932">
        <ele>338.4</ele>
        <time>1970-01-01T01:20:41.000Z</time>
      </trkpt>
      <trkpt lat="49.60033" lon="5.6893">
        <ele>338.6</ele>
        <time>1970-01-01T01:20:43.000Z</time>
      </trkpt>
      <trkpt lat="49.60028" lon="5.68927">
        <ele>338.7</ele>
        <time>1970-01-01T01:20:44.000Z</time>
      </trkpt>
      <trkpt lat="49.60025" lon="5.68925">
        <ele>338.8</ele>
        <time>1970-01-01T01:20:45.000Z</time>
      </trkpt>
      <trkpt lat="49.60016" lon="5.68921">
        <ele>339</ele>
        <time>1970-01-01T01:20:47.000Z</time>
      </trkpt>
      <trkpt lat="49.60008" lon="5.68915">
        <ele>339.2</ele>
        <time>1970-01-01T01:20:49.000Z</time>
      </trkpt>
      <trkpt lat="49.60004" lon="5.68913">
        <ele>339.3</ele>
        <time>1970-01-01T01:20:50.000Z</time>
      </trkpt>
      <trkpt lat="49.59998" lon="5.68906">
        <ele>339.5</ele>
        <time>1970-01-01T01:20:52.000Z</time>
      </trkpt>
      <trkpt lat="49.59986" lon="5.68901">
        <ele>339.8</ele>
        <time>1970-01-01T01:20:54.000Z</time>
      </trkpt>
      <trkpt lat="49.59982" lon="5.689">
        <ele>340</ele>
        <time>1970-01-01T01:20:55.000Z</time>
      </trkpt>
      <trkpt lat="49.59976" lon="5.68898">
        <ele>340.1</ele>
        <time>1970-01-01T01:20:56.000Z</time>
      </trkpt>
      <trkpt lat="49.59967" lon="5.68892">
        <ele>340.3</ele>
        <time>1970-01-01T01:20:58.000Z</time>
      </trkpt>
      <trkpt lat="49.59963" lon="5.68891">
        <ele>340.3</ele>
        <time>1970-01-01T01:20:59.000Z</time>
      </trkpt>
      <trkpt lat="49.59958" lon="5.68889">
        <ele>340.4</ele>
        <time>1970-01-01T01:21:01.000Z</time>
      </trkpt>
      <trkpt lat="49.59954" lon="5.68886">
        <ele>340.5</ele>
        <time>1970-01-01T01:21:02.000Z</time>
      </trkpt>
      <trkpt lat="49.59947" lon="5.68884">
        <ele>340.7</ele>
        <time>1970-01-01T01:21:04.000Z</time>
      </trkpt>
      <trkpt lat="49.59942" lon="5.68886">
        <ele>340.9</ele>
        <time>1970-01-01T01:21:05.000Z</time>
      </trkpt>
      <trkpt lat="49.59936" lon="5.68882">
        <ele>341.1</ele>
        <time>1970-01-01T01:21:06.000Z</time>
      </trkpt>
      <trkpt lat="49.59932" lon="5.68877">
        <ele>341.2</ele>
        <time>1970-01-01T01:21:07.000Z</time>
      </trkpt>
      <trkpt lat="49.59928" lon="5.68871">
        <ele>341.2</ele>
        <time>1970-01-01T01:21:09.000Z</time>
      </trkpt>
      <trkpt lat="49.59922" lon="5.68868">
        <ele>341.2</ele>
        <time>1970-01-01T01:21:10.000Z</time>
      </trkpt>
      <trkpt lat="49.59915" lon="5.68868">
        <ele>341.3</ele>
        <time>1970-01-01T01:21:12.000Z</time>
      </trkpt>
      <trkpt lat="49.59912" lon="5.68868">
        <ele>341.4</ele>
        <time>1970-01-01T01:21:13.000Z</time>
      </trkpt>
      <trkpt lat="49.59903" lon="5.68868">
        <ele>341.7</ele>
        <time>1970-01-01T01:21:15.000Z</time>
      </trkpt>
      <trkpt lat="49.59898" lon="5.68868">
        <ele>342</ele>
        <time>1970-01-01T01:21:16.000Z</time>
      </trkpt>
      <trkpt lat="49.59893" lon="5.68868">
        <ele>342.2</ele>
        <time>1970-01-01T01:21:18.000Z</time>
      </trkpt>
      <trkpt lat="49.59888" lon="5.68867">
        <ele>342.5</ele>
        <time>1970-01-01T01:21:19.000Z</time>
      </trkpt>
      <trkpt lat="49.59882" lon="5.68867">
        <ele>342.7</ele>
        <time>1970-01-01T01:21:21.000Z</time>
      </trkpt>
      <trkpt lat="49.59878" lon="5.68868">
        <ele>342.8</ele>
        <time>1970-01-01T01:21:22.000Z</time>
      </trkpt>
      <trkpt lat="49.59871" lon="5.68867">
        <ele>343</ele>
        <time>1970-01-01T01:21:24.000Z</time>
      </trkpt>
      <trkpt lat="49.59861" lon="5.68863">
        <ele>343.3</ele>
        <time>1970-01-01T01:21:25.000Z</time>
      </trkpt>
      <trkpt lat="49.59856" lon="5.68856">
        <ele>343.5</ele>
        <time>1970-01-01T01:21:27.000Z</time>
      </trkpt>
      <trkpt lat="49.59851" lon="5.68857">
        <ele>343.6</ele>
        <time>1970-01-01T01:21:28.000Z</time>
      </trkpt>
      <trkpt lat="49.59847" lon="5.68859">
        <ele>343.7</ele>
        <time>1970-01-01T01:21:29.000Z</time>
      </trkpt>
      <trkpt lat="49.59841" lon="5.68861">
        <ele>343.8</ele>
        <time>1970-01-01T01:21:31.000Z</time>
      </trkpt>
      <trkpt lat="49.59838" lon="5.68863">
        <ele>343.8</ele>
        <time>1970-01-01T01:21:32.000Z</time>
      </trkpt>
      <trkpt lat="49.59835" lon="5.68863">
        <ele>343.9</ele>
        <time>1970-01-01T01:21:33.000Z</time>
      </trkpt>
      <trkpt lat="49.59832" lon="5.68864">
        <ele>344</ele>
        <time>1970-01-01T01:21:34.000Z</time>
      </trkpt>
      <trkpt lat="49.59824" lon="5.68864">
        <ele>344.2</ele>
        <time>1970-01-01T01:21:36.000Z</time>
      </trkpt>
      <trkpt lat="49.59819" lon="5.68864">
        <ele>344.3</ele>
        <time>1970-01-01T01:21:37.000Z</time>
      </trkpt>
      <trkpt lat="49.59808" lon="5.68863">
        <ele>344.5</ele>
        <time>1970-01-01T01:21:38.000Z</time>
      </trkpt>
      <trkpt lat="49.59811" lon="5.6886">
        <ele>344.5</ele>
        <time>1970-01-01T01:21:40.000Z</time>
      </trkpt>
      <trkpt lat="49.59806" lon="5.68857">
        <ele>344.5</ele>
        <time>1970-01-01T01:21:41.000Z</time>
      </trkpt>
      <trkpt lat="49.59796" lon="5.68857">
        <ele>344.4</ele>
        <time>1970-01-01T01:21:42.000Z</time>
      </trkpt>
      <trkpt lat="49.59787" lon="5.68856">
        <ele>344.3</ele>
        <time>1970-01-01T01:21:43.000Z</time>
      </trkpt>
      <trkpt lat="49.5977" lon="5.68853">
        <ele>343.9</ele>
        <time>1970-01-01T01:21:45.000Z</time>
      </trkpt>
      <trkpt lat="49.59763" lon="5.68852">
        <ele>343.6</ele>
        <time>1970-01-01T01:21:46.000Z</time>
      </trkpt>
      <trkpt lat="49.59747" lon="5.68849">
        <ele>342.9</ele>
        <time>1970-01-01T01:21:48.000Z</time>
      </trkpt>
      <trkpt lat="49.5974" lon="5.68846">
        <ele>342.6</ele>
        <time>1970-01-01T01:21:49.000Z</time>
      </trkpt>
      <trkpt lat="49.59724" lon="5.68846">
        <ele>341.9</ele>
        <time>1970-01-01T01:21:51.000Z</time>
      </trkpt>
      <trkpt lat="49.59716" lon="5.68848">
        <ele>341.5</ele>
        <time>1970-01-01T01:21:52.000Z</time>
      </trkpt>
      <trkpt lat="49.59707" lon="5.68851">
        <ele>340.8</ele>
        <time>1970-01-01T01:21:53.000Z</time>
      </trkpt>
      <trkpt lat="49.597" lon="5.68855">
        <ele>340.4</ele>
        <time>1970-01-01T01:21:54.000Z</time>
      </trkpt>
      <trkpt lat="49.59693" lon="5.68859">
        <ele>340.2</ele>
        <time>1970-01-01T01:21:55.000Z</time>
      </trkpt>
      <trkpt lat="49.59681" lon="5.68862">
        <ele>340</ele>
        <time>1970-01-01T01:21:57.000Z</time>
      </trkpt>
      <trkpt lat="49.59679" lon="5.68865">
        <ele>340</ele>
        <time>1970-01-01T01:21:58.000Z</time>
      </trkpt>
      <trkpt lat="49.59676" lon="5.68869">
        <ele>340</ele>
        <time>1970-01-01T01:21:59.000Z</time>
      </trkpt>
      <trkpt lat="49.59672" lon="5.68871">
        <ele>340</ele>
        <time>1970-01-01T01:22:00.000Z</time>
      </trkpt>
      <trkpt lat="49.59662" lon="5.68876">
        <ele>340</ele>
        <time>1970-01-01T01:22:02.000Z</time>
      </trkpt>
      <trkpt lat="49.59657" lon="5.68879">
        <ele>340</ele>
        <time>1970-01-01T01:22:04.000Z</time>
      </trkpt>
      <trkpt lat="49.59654" lon="5.68884">
        <ele>340.1</ele>
        <time>1970-01-01T01:22:05.000Z</time>
      </trkpt>
      <trkpt lat="49.59652" lon="5.68887">
        <ele>340.1</ele>
        <time>1970-01-01T01:22:07.000Z</time>
      </trkpt>
      <trkpt lat="49.59648" lon="5.68887">
        <ele>340.1</ele>
        <time>1970-01-01T01:22:10.000Z</time>
      </trkpt>
      <trkpt lat="49.59647" lon="5.68893">
        <ele>340.2</ele>
        <time>1970-01-01T01:22:11.000Z</time>
      </trkpt>
      <trkpt lat="49.59645" lon="5.68898">
        <ele>340.3</ele>
        <time>1970-01-01T01:22:12.000Z</time>
      </trkpt>
      <trkpt lat="49.59642" lon="5.68907">
        <ele>340.4</ele>
        <time>1970-01-01T01:22:13.000Z</time>
      </trkpt>
      <trkpt lat="49.59635" lon="5.68923">
        <ele>340.9</ele>
        <time>1970-01-01T01:22:15.000Z</time>
      </trkpt>
      <trkpt lat="49.59626" lon="5.68941">
        <ele>341.3</ele>
        <time>1970-01-01T01:22:16.000Z</time>
      </trkpt>
      <trkpt lat="49.59623" lon="5.68948">
        <ele>341.3</ele>
        <time>1970-01-01T01:22:17.000Z</time>
      </trkpt>
      <trkpt lat="49.59618" lon="5.68955">
        <ele>341.4</ele>
        <time>1970-01-01T01:22:19.000Z</time>
      </trkpt>
      <trkpt lat="49.59611" lon="5.68971">
        <ele>341.5</ele>
        <time>1970-01-01T01:22:20.000Z</time>
      </trkpt>
      <trkpt lat="49.59608" lon="5.6898">
        <ele>341.5</ele>
        <time>1970-01-01T01:22:21.000Z</time>
      </trkpt>
      <trkpt lat="49.59602" lon="5.68997">
        <ele>341.3</ele>
        <time>1970-01-01T01:22:23.000Z</time>
      </trkpt>
      <trkpt lat="49.596" lon="5.69005">
        <ele>341.1</ele>
        <time>1970-01-01T01:22:24.000Z</time>
      </trkpt>
      <trkpt lat="49.59594" lon="5.69022">
        <ele>340.3</ele>
        <time>1970-01-01T01:22:26.000Z</time>
      </trkpt>
      <trkpt lat="49.59591" lon="5.69033">
        <ele>339.6</ele>
        <time>1970-01-01T01:22:27.000Z</time>
      </trkpt>
      <trkpt lat="49.59588" lon="5.69044">
        <ele>339</ele>
        <time>1970-01-01T01:22:28.000Z</time>
      </trkpt>
      <trkpt lat="49.59583" lon="5.69067">
        <ele>338.2</ele>
        <time>1970-01-01T01:22:30.000Z</time>
      </trkpt>
      <trkpt lat="49.5958" lon="5.69088">
        <ele>338</ele>
        <time>1970-01-01T01:22:32.000Z</time>
      </trkpt>
      <trkpt lat="49.59578" lon="5.69095">
        <ele>337.9</ele>
        <time>1970-01-01T01:22:33.000Z</time>
      </trkpt>
      <trkpt lat="49.59579" lon="5.69101">
        <ele>337.9</ele>
        <time>1970-01-01T01:22:39.000Z</time>
      </trkpt>
      <trkpt lat="49.59582" lon="5.69104">
        <ele>337.8</ele>
        <time>1970-01-01T01:22:42.000Z</time>
      </trkpt>
      <trkpt lat="49.59584" lon="5.69108">
        <ele>337.8</ele>
        <time>1970-01-01T01:22:45.000Z</time>
      </trkpt>
      <trkpt lat="49.59586" lon="5.69113">
        <ele>337.7</ele>
        <time>1970-01-01T01:22:47.000Z</time>
      </trkpt>
      <trkpt lat="49.59587" lon="5.69118">
        <ele>337.6</ele>
        <time>1970-01-01T01:22:49.000Z</time>
      </trkpt>
      <trkpt lat="49.59586" lon="5.69124">
        <ele>337.5</ele>
        <time>1970-01-01T01:22:50.000Z</time>
      </trkpt>
      <trkpt lat="49.59585" lon="5.69129">
        <ele>337.4</ele>
        <time>1970-01-01T01:22:51.000Z</time>
      </trkpt>
      <trkpt lat="49.59579" lon="5.69136">
        <ele>337.1</ele>
        <time>1970-01-01T01:22:52.000Z</time>
      </trkpt>
      <trkpt lat="49.59568" lon="5.6915">
        <ele>336.5</ele>
        <time>1970-01-01T01:22:54.000Z</time>
      </trkpt>
      <trkpt lat="49.59563" lon="5.69164">
        <ele>336.3</ele>
        <time>1970-01-01T01:22:56.000Z</time>
      </trkpt>
      <trkpt lat="49.5956" lon="5.6917">
        <ele>336.3</ele>
        <time>1970-01-01T01:22:57.000Z</time>
      </trkpt>
      <trkpt lat="49.5956" lon="5.69175">
        <ele>336.3</ele>
        <time>1970-01-01T01:22:58.000Z</time>
      </trkpt>
      <trkpt lat="49.59558" lon="5.69181">
        <ele>336.3</ele>
        <time>1970-01-01T01:23:00.000Z</time>
      </trkpt>
      <trkpt lat="49.59554" lon="5.6919">
        <ele>336.3</ele>
        <time>1970-01-01T01:23:01.000Z</time>
      </trkpt>
      <trkpt lat="49.5955" lon="5.69195">
        <ele>336.4</ele>
        <time>1970-01-01T01:23:03.000Z</time>
      </trkpt>
      <trkpt lat="49.59548" lon="5.69202">
        <ele>336.5</ele>
        <time>1970-01-01T01:23:05.000Z</time>
      </trkpt>
      <trkpt lat="49.59546" lon="5.6921">
        <ele>336.7</ele>
        <time>1970-01-01T01:23:06.000Z</time>
      </trkpt>
      <trkpt lat="49.59544" lon="5.69215">
        <ele>336.8</ele>
        <time>1970-01-01T01:23:08.000Z</time>
      </trkpt>
      <trkpt lat="49.59537" lon="5.69213">
        <ele>337</ele>
        <time>1970-01-01T01:23:11.000Z</time>
      </trkpt>
      <trkpt lat="49.59534" lon="5.69215">
        <ele>337.1</ele>
        <time>1970-01-01T01:23:12.000Z</time>
      </trkpt>
      <trkpt lat="49.59529" lon="5.69218">
        <ele>337.1</ele>
        <time>1970-01-01T01:23:13.000Z</time>
      </trkpt>
      <trkpt lat="49.59524" lon="5.69221">
        <ele>337.2</ele>
        <time>1970-01-01T01:23:15.000Z</time>
      </trkpt>
      <trkpt lat="49.5952" lon="5.69224">
        <ele>337.3</ele>
        <time>1970-01-01T01:23:16.000Z</time>
      </trkpt>
      <trkpt lat="49.59515" lon="5.69225">
        <ele>337.4</ele>
        <time>1970-01-01T01:23:17.000Z</time>
      </trkpt>
      <trkpt lat="49.59512" lon="5.69226">
        <ele>337.4</ele>
        <time>1970-01-01T01:23:19.000Z</time>
      </trkpt>
      <trkpt lat="49.59509" lon="5.69226">
        <ele>337.5</ele>
        <time>1970-01-01T01:23:20.000Z</time>
      </trkpt>
      <trkpt lat="49.59505" lon="5.69227">
        <ele>337.5</ele>
        <time>1970-01-01T01:23:21.000Z</time>
      </trkpt>
      <trkpt lat="49.59501" lon="5.69227">
        <ele>337.6</ele>
        <time>1970-01-01T01:23:23.000Z</time>
      </trkpt>
      <trkpt lat="49.59496" lon="5.69228">
        <ele>337.6</ele>
        <time>1970-01-01T01:23:24.000Z</time>
      </trkpt>
      <trkpt lat="49.59489" lon="5.6923">
        <ele>337.7</ele>
        <time>1970-01-01T01:23:26.000Z</time>
      </trkpt>
      <trkpt lat="49.59484" lon="5.69231">
        <ele>337.7</ele>
        <time>1970-01-01T01:23:27.000Z</time>
      </trkpt>
      <trkpt lat="49.59478" lon="5.69233">
        <ele>337.7</ele>
        <time>1970-01-01T01:23:29.000Z</time>
      </trkpt>
      <trkpt lat="49.59473" lon="5.69232">
        <ele>337.7</ele>
        <time>1970-01-01T01:23:30.000Z</time>
      </trkpt>
      <trkpt lat="49.59467" lon="5.69232">
        <ele>337.7</ele>
        <time>1970-01-01T01:23:31.000Z</time>
      </trkpt>
      <trkpt lat="49.59463" lon="5.69232">
        <ele>337.6</ele>
        <time>1970-01-01T01:23:32.000Z</time>
      </trkpt>
      <trkpt lat="49.59458" lon="5.69233">
        <ele>337.5</ele>
        <time>1970-01-01T01:23:33.000Z</time>
      </trkpt>
      <trkpt lat="49.5945" lon="5.69233">
        <ele>337.4</ele>
        <time>1970-01-01T01:23:34.000Z</time>
      </trkpt>
      <trkpt lat="49.59439" lon="5.69234">
        <ele>337.4</ele>
        <time>1970-01-01T01:23:36.000Z</time>
      </trkpt>
      <trkpt lat="49.59431" lon="5.69231">
        <ele>337.4</ele>
        <time>1970-01-01T01:23:38.000Z</time>
      </trkpt>
      <trkpt lat="49.59421" lon="5.69233">
        <ele>337.3</ele>
        <time>1970-01-01T01:23:40.000Z</time>
      </trkpt>
      <trkpt lat="49.59417" lon="5.69233">
        <ele>337.2</ele>
        <time>1970-01-01T01:23:41.000Z</time>
      </trkpt>
      <trkpt lat="49.59411" lon="5.69235">
        <ele>337.1</ele>
        <time>1970-01-01T01:23:43.000Z</time>
      </trkpt>
      <trkpt lat="49.59407" lon="5.69238">
        <ele>337.1</ele>
        <time>1970-01-01T01:23:44.000Z</time>
      </trkpt>
      <trkpt lat="49.59401" lon="5.69238">
        <ele>337</ele>
        <time>1970-01-01T01:23:45.000Z</time>
      </trkpt>
      <trkpt lat="49.59397" lon="5.69238">
        <ele>337</ele>
        <time>1970-01-01T01:23:47.000Z</time>
      </trkpt>
      <trkpt lat="49.5939" lon="5.6924">
        <ele>336.8</ele>
        <time>1970-01-01T01:23:48.000Z</time>
      </trkpt>
      <trkpt lat="49.59386" lon="5.6924">
        <ele>336.7</ele>
        <time>1970-01-01T01:23:49.000Z</time>
      </trkpt>
      <trkpt lat="49.59383" lon="5.6924">
        <ele>336.6</ele>
        <time>1970-01-01T01:23:50.000Z</time>
      </trkpt>
      <trkpt lat="49.59378" lon="5.69241">
        <ele>336.5</ele>
        <time>1970-01-01T01:23:51.000Z</time>
      </trkpt>
      <trkpt lat="49.59367" lon="5.6924">
        <ele>336.3</ele>
        <time>1970-01-01T01:23:53.000Z</time>
      </trkpt>
      <trkpt lat="49.59357" lon="5.6924">
        <ele>336</ele>
        <time>1970-01-01T01:23:55.000Z</time>
      </trkpt>
      <trkpt lat="49.59353" lon="5.69236">
        <ele>335.6</ele>
        <time>1970-01-01T01:23:57.000Z</time>
      </trkpt>
      <trkpt lat="49.59349" lon="5.69231">
        <ele>335.2</ele>
        <time>1970-01-01T01:23:58.000Z</time>
      </trkpt>
      <trkpt lat="49.59346" lon="5.69227">
        <ele>334.8</ele>
        <time>1970-01-01T01:23:59.000Z</time>
      </trkpt>
      <trkpt lat="49.59342" lon="5.69224">
        <ele>334.5</ele>
        <time>1970-01-01T01:24:00.000Z</time>
      </trkpt>
      <trkpt lat="49.59336" lon="5.69223">
        <ele>334.4</ele>
        <time>1970-01-01T01:24:01.000Z</time>
      </trkpt>
      <trkpt lat="49.59332" lon="5.69221">
        <ele>334.5</ele>
        <time>1970-01-01T01:24:03.000Z</time>
      </trkpt>
      <trkpt lat="49.59327" lon="5.69217">
        <ele>334.2</ele>
        <time>1970-01-01T01:24:04.000Z</time>
      </trkpt>
      <trkpt lat="49.59324" lon="5.69213">
        <ele>333.9</ele>
        <time>1970-01-01T01:24:05.000Z</time>
      </trkpt>
      <trkpt lat="49.59318" lon="5.69205">
        <ele>333.3</ele>
        <time>1970-01-01T01:24:06.000Z</time>
      </trkpt>
      <trkpt lat="49.59315" lon="5.692">
        <ele>333.3</ele>
        <time>1970-01-01T01:24:07.000Z</time>
      </trkpt>
      <trkpt lat="49.59309" lon="5.69189">
        <ele>333.3</ele>
        <time>1970-01-01T01:24:09.000Z</time>
      </trkpt>
      <trkpt lat="49.59301" lon="5.69183">
        <ele>333.4</ele>
        <time>1970-01-01T01:24:11.000Z</time>
      </trkpt>
      <trkpt lat="49.59296" lon="5.6918">
        <ele>333.4</ele>
        <time>1970-01-01T01:24:12.000Z</time>
      </trkpt>
      <trkpt lat="49.59292" lon="5.69176">
        <ele>333.4</ele>
        <time>1970-01-01T01:24:13.000Z</time>
      </trkpt>
      <trkpt lat="49.59287" lon="5.69174">
        <ele>333.4</ele>
        <time>1970-01-01T01:24:14.000Z</time>
      </trkpt>
      <trkpt lat="49.59278" lon="5.6917">
        <ele>333.4</ele>
        <time>1970-01-01T01:24:16.000Z</time>
      </trkpt>
      <trkpt lat="49.59269" lon="5.69166">
        <ele>333.6</ele>
        <time>1970-01-01T01:24:18.000Z</time>
      </trkpt>
      <trkpt lat="49.59262" lon="5.69162">
        <ele>333.7</ele>
        <time>1970-01-01T01:24:20.000Z</time>
      </trkpt>
      <trkpt lat="49.59256" lon="5.6916">
        <ele>333.9</ele>
        <time>1970-01-01T01:24:21.000Z</time>
      </trkpt>
      <trkpt lat="49.59252" lon="5.69156">
        <ele>334.1</ele>
        <time>1970-01-01T01:24:23.000Z</time>
      </trkpt>
      <trkpt lat="49.59243" lon="5.69154">
        <ele>334.4</ele>
        <time>1970-01-01T01:24:24.000Z</time>
      </trkpt>
      <trkpt lat="49.59237" lon="5.69152">
        <ele>334.5</ele>
        <time>1970-01-01T01:24:27.000Z</time>
      </trkpt>
      <trkpt lat="49.59229" lon="5.6915">
        <ele>334.4</ele>
        <time>1970-01-01T01:24:28.000Z</time>
      </trkpt>
      <trkpt lat="49.59218" lon="5.69143">
        <ele>334</ele>
        <time>1970-01-01T01:24:30.000Z</time>
      </trkpt>
      <trkpt lat="49.59211" lon="5.6914">
        <ele>333.8</ele>
        <time>1970-01-01T01:24:31.000Z</time>
      </trkpt>
      <trkpt lat="49.59197" lon="5.69136">
        <ele>333.4</ele>
        <time>1970-01-01T01:24:33.000Z</time>
      </trkpt>
      <trkpt lat="49.59183" lon="5.6913">
        <ele>332.7</ele>
        <time>1970-01-01T01:24:35.000Z</time>
      </trkpt>
      <trkpt lat="49.59175" lon="5.69126">
        <ele>332.3</ele>
        <time>1970-01-01T01:24:36.000Z</time>
      </trkpt>
      <trkpt lat="49.59167" lon="5.69122">
        <ele>332.1</ele>
        <time>1970-01-01T01:24:37.000Z</time>
      </trkpt>
      <trkpt lat="49.5916" lon="5.69117">
        <ele>331.8</ele>
        <time>1970-01-01T01:24:38.000Z</time>
      </trkpt>
      <trkpt lat="49.59144" lon="5.69113">
        <ele>331.5</ele>
        <time>1970-01-01T01:24:40.000Z</time>
      </trkpt>
      <trkpt lat="49.59137" lon="5.69112">
        <ele>331.3</ele>
        <time>1970-01-01T01:24:41.000Z</time>
      </trkpt>
      <trkpt lat="49.59121" lon="5.69112">
        <ele>331.1</ele>
        <time>1970-01-01T01:24:43.000Z</time>
      </trkpt>
      <trkpt lat="49.59114" lon="5.6911">
        <ele>331</ele>
        <time>1970-01-01T01:24:44.000Z</time>
      </trkpt>
      <trkpt lat="49.59099" lon="5.69105">
        <ele>331.2</ele>
        <time>1970-01-01T01:24:46.000Z</time>
      </trkpt>
      <trkpt lat="49.59084" lon="5.69104">
        <ele>331.5</ele>
        <time>1970-01-01T01:24:48.000Z</time>
      </trkpt>
      <trkpt lat="49.59078" lon="5.69104">
        <ele>331.7</ele>
        <time>1970-01-01T01:24:49.000Z</time>
      </trkpt>
      <trkpt lat="49.59064" lon="5.69104">
        <ele>332.1</ele>
        <time>1970-01-01T01:24:51.000Z</time>
      </trkpt>
      <trkpt lat="49.59057" lon="5.69102">
        <ele>332.3</ele>
        <time>1970-01-01T01:24:53.000Z</time>
      </trkpt>
      <trkpt lat="49.59044" lon="5.69098">
        <ele>332.7</ele>
        <time>1970-01-01T01:24:55.000Z</time>
      </trkpt>
      <trkpt lat="49.59039" lon="5.69097">
        <ele>332.9</ele>
        <time>1970-01-01T01:24:56.000Z</time>
      </trkpt>
      <trkpt lat="49.59031" lon="5.6909">
        <ele>333.4</ele>
        <time>1970-01-01T01:24:58.000Z</time>
      </trkpt>
      <trkpt lat="49.59023" lon="5.69083">
        <ele>333.8</ele>
        <time>1970-01-01T01:25:00.000Z</time>
      </trkpt>
      <trkpt lat="49.59019" lon="5.6908">
        <ele>334</ele>
        <time>1970-01-01T01:25:01.000Z</time>
      </trkpt>
      <trkpt lat="49.59011" lon="5.69067">
        <ele>334.2</ele>
        <time>1970-01-01T01:25:04.000Z</time>
      </trkpt>
      <trkpt lat="49.59008" lon="5.69062">
        <ele>334.3</ele>
        <time>1970-01-01T01:25:05.000Z</time>
      </trkpt>
      <trkpt lat="49.58998" lon="5.69046">
        <ele>334.3</ele>
        <time>1970-01-01T01:25:07.000Z</time>
      </trkpt>
      <trkpt lat="49.58993" lon="5.6904">
        <ele>334.3</ele>
        <time>1970-01-01T01:25:08.000Z</time>
      </trkpt>
      <trkpt lat="49.5899" lon="5.69035">
        <ele>334.4</ele>
        <time>1970-01-01T01:25:09.000Z</time>
      </trkpt>
      <trkpt lat="49.58981" lon="5.69023">
        <ele>334.3</ele>
        <time>1970-01-01T01:25:11.000Z</time>
      </trkpt>
      <trkpt lat="49.58976" lon="5.69016">
        <ele>334.2</ele>
        <time>1970-01-01T01:25:12.000Z</time>
      </trkpt>
      <trkpt lat="49.58969" lon="5.69004">
        <ele>334.2</ele>
        <time>1970-01-01T01:25:14.000Z</time>
      </trkpt>
      <trkpt lat="49.58964" lon="5.68999">
        <ele>334.1</ele>
        <time>1970-01-01T01:25:16.000Z</time>
      </trkpt>
      <trkpt lat="49.58963" lon="5.68994">
        <ele>334.1</ele>
        <time>1970-01-01T01:25:17.000Z</time>
      </trkpt>
      <trkpt lat="49.58957" lon="5.68983">
        <ele>334.2</ele>
        <time>1970-01-01T01:25:18.000Z</time>
      </trkpt>
      <trkpt lat="49.58952" lon="5.68974">
        <ele>334.2</ele>
        <time>1970-01-01T01:25:20.000Z</time>
      </trkpt>
      <trkpt lat="49.5895" lon="5.68968">
        <ele>334.2</ele>
        <time>1970-01-01T01:25:21.000Z</time>
      </trkpt>
      <trkpt lat="49.58947" lon="5.68964">
        <ele>334.2</ele>
        <time>1970-01-01T01:25:22.000Z</time>
      </trkpt>
      <trkpt lat="49.58943" lon="5.68957">
        <ele>334.1</ele>
        <time>1970-01-01T01:25:24.000Z</time>
      </trkpt>
      <trkpt lat="49.58941" lon="5.68952">
        <ele>334.1</ele>
        <time>1970-01-01T01:25:25.000Z</time>
      </trkpt>
      <trkpt lat="49.58938" lon="5.68943">
        <ele>334</ele>
        <time>1970-01-01T01:25:27.000Z</time>
      </trkpt>
      <trkpt lat="49.58936" lon="5.68937">
        <ele>334</ele>
        <time>1970-01-01T01:25:28.000Z</time>
      </trkpt>
      <trkpt lat="49.58926" lon="5.68913">
        <ele>333.8</ele>
        <time>1970-01-01T01:25:30.000Z</time>
      </trkpt>
      <trkpt lat="49.58916" lon="5.68901">
        <ele>333.7</ele>
        <time>1970-01-01T01:25:32.000Z</time>
      </trkpt>
      <trkpt lat="49.58915" lon="5.68895">
        <ele>333.6</ele>
        <time>1970-01-01T01:25:34.000Z</time>
      </trkpt>
      <trkpt lat="49.58901" lon="5.68881">
        <ele>333</ele>
        <time>1970-01-01T01:25:35.000Z</time>
      </trkpt>
      <trkpt lat="49.58893" lon="5.68874">
        <ele>332.8</ele>
        <time>1970-01-01T01:25:36.000Z</time>
      </trkpt>
      <trkpt lat="49.58878" lon="5.6886">
        <ele>332.1</ele>
        <time>1970-01-01T01:25:38.000Z</time>
      </trkpt>
      <trkpt lat="49.5887" lon="5.68853">
        <ele>331.5</ele>
        <time>1970-01-01T01:25:39.000Z</time>
      </trkpt>
      <trkpt lat="49.58864" lon="5.68846">
        <ele>331</ele>
        <time>1970-01-01T01:25:40.000Z</time>
      </trkpt>
      <trkpt lat="49.58857" lon="5.68839">
        <ele>330.5</ele>
        <time>1970-01-01T01:25:41.000Z</time>
      </trkpt>
      <trkpt lat="49.58844" lon="5.68827">
        <ele>329.7</ele>
        <time>1970-01-01T01:25:43.000Z</time>
      </trkpt>
      <trkpt lat="49.58829" lon="5.68814">
        <ele>328.9</ele>
        <time>1970-01-01T01:25:45.000Z</time>
      </trkpt>
      <trkpt lat="49.58821" lon="5.68809">
        <ele>328.6</ele>
        <time>1970-01-01T01:25:46.000Z</time>
      </trkpt>
      <trkpt lat="49.58814" lon="5.68806">
        <ele>328.4</ele>
        <time>1970-01-01T01:25:47.000Z</time>
      </trkpt>
      <trkpt lat="49.588" lon="5.68797">
        <ele>328.3</ele>
        <time>1970-01-01T01:25:49.000Z</time>
      </trkpt>
      <trkpt lat="49.58793" lon="5.68792">
        <ele>328.2</ele>
        <time>1970-01-01T01:25:50.000Z</time>
      </trkpt>
      <trkpt lat="49.58786" lon="5.6879">
        <ele>328</ele>
        <time>1970-01-01T01:25:51.000Z</time>
      </trkpt>
      <trkpt lat="49.58779" lon="5.68789">
        <ele>327.7</ele>
        <time>1970-01-01T01:25:52.000Z</time>
      </trkpt>
      <trkpt lat="49.58774" lon="5.68787">
        <ele>327.4</ele>
        <time>1970-01-01T01:25:53.000Z</time>
      </trkpt>
      <trkpt lat="49.58769" lon="5.68785">
        <ele>327.1</ele>
        <time>1970-01-01T01:25:54.000Z</time>
      </trkpt>
      <trkpt lat="49.58761" lon="5.68783">
        <ele>327.2</ele>
        <time>1970-01-01T01:25:55.000Z</time>
      </trkpt>
      <trkpt lat="49.58749" lon="5.68784">
        <ele>327.3</ele>
        <time>1970-01-01T01:25:57.000Z</time>
      </trkpt>
      <trkpt lat="49.58737" lon="5.68788">
        <ele>327.4</ele>
        <time>1970-01-01T01:25:59.000Z</time>
      </trkpt>
      <trkpt lat="49.58725" lon="5.68793">
        <ele>327.9</ele>
        <time>1970-01-01T01:26:01.000Z</time>
      </trkpt>
      <trkpt lat="49.58716" lon="5.68794">
        <ele>328.3</ele>
        <time>1970-01-01T01:26:03.000Z</time>
      </trkpt>
      <trkpt lat="49.58711" lon="5.68795">
        <ele>328.5</ele>
        <time>1970-01-01T01:26:04.000Z</time>
      </trkpt>
      <trkpt lat="49.58705" lon="5.68796">
        <ele>328.8</ele>
        <time>1970-01-01T01:26:06.000Z</time>
      </trkpt>
      <trkpt lat="49.587" lon="5.68797">
        <ele>329</ele>
        <time>1970-01-01T01:26:08.000Z</time>
      </trkpt>
      <trkpt lat="49.58695" lon="5.688">
        <ele>329.3</ele>
        <time>1970-01-01T01:26:09.000Z</time>
      </trkpt>
      <trkpt lat="49.5869" lon="5.68802">
        <ele>329.6</ele>
        <time>1970-01-01T01:26:11.000Z</time>
      </trkpt>
      <trkpt lat="49.58686" lon="5.68802">
        <ele>329.8</ele>
        <time>1970-01-01T01:26:15.000Z</time>
      </trkpt>
      <trkpt lat="49.5868" lon="5.68805">
        <ele>330.2</ele>
        <time>1970-01-01T01:26:18.000Z</time>
      </trkpt>
      <trkpt lat="49.58677" lon="5.68806">
        <ele>330.5</ele>
        <time>1970-01-01T01:26:19.000Z</time>
      </trkpt>
      <trkpt lat="49.58674" lon="5.68807">
        <ele>330.7</ele>
        <time>1970-01-01T01:26:20.000Z</time>
      </trkpt>
      <trkpt lat="49.58663" lon="5.68812">
        <ele>331.6</ele>
        <time>1970-01-01T01:26:21.000Z</time>
      </trkpt>
      <trkpt lat="49.58652" lon="5.68814">
        <ele>331.9</ele>
        <time>1970-01-01T01:26:22.000Z</time>
      </trkpt>
      <trkpt lat="49.58645" lon="5.68813">
        <ele>332</ele>
        <time>1970-01-01T01:26:25.000Z</time>
      </trkpt>
      <trkpt lat="49.58648" lon="5.68815">
        <ele>332</ele>
        <time>1970-01-01T01:26:28.000Z</time>
      </trkpt>
      <trkpt lat="49.58633" lon="5.68809">
        <ele>332.2</ele>
        <time>1970-01-01T01:26:30.000Z</time>
      </trkpt>
      <trkpt lat="49.58616" lon="5.68801">
        <ele>332.5</ele>
        <time>1970-01-01T01:26:32.000Z</time>
      </trkpt>
      <trkpt lat="49.5861" lon="5.688">
        <ele>332.5</ele>
        <time>1970-01-01T01:26:33.000Z</time>
      </trkpt>
      <trkpt lat="49.58589" lon="5.68793">
        <ele>332.5</ele>
        <time>1970-01-01T01:26:35.000Z</time>
      </trkpt>
      <trkpt lat="49.58575" lon="5.68787">
        <ele>332.2</ele>
        <time>1970-01-01T01:26:37.000Z</time>
      </trkpt>
      <trkpt lat="49.58584" lon="5.68794">
        <ele>331.9</ele>
        <time>1970-01-01T01:26:39.000Z</time>
      </trkpt>
      <trkpt lat="49.58565" lon="5.68778">
        <ele>331.5</ele>
        <time>1970-01-01T01:26:40.000Z</time>
      </trkpt>
      <trkpt lat="49.58541" lon="5.68765">
        <ele>331.6</ele>
        <time>1970-01-01T01:26:42.000Z</time>
      </trkpt>
      <trkpt lat="49.58523" lon="5.68759">
        <ele>331.3</ele>
        <time>1970-01-01T01:26:44.000Z</time>
      </trkpt>
      <trkpt lat="49.58506" lon="5.68747">
        <ele>330</ele>
        <time>1970-01-01T01:26:46.000Z</time>
      </trkpt>
      <trkpt lat="49.58495" lon="5.68739">
        <ele>329.5</ele>
        <time>1970-01-01T01:26:47.000Z</time>
      </trkpt>
      <trkpt lat="49.58486" lon="5.68732">
        <ele>329.1</ele>
        <time>1970-01-01T01:26:48.000Z</time>
      </trkpt>
      <trkpt lat="49.5847" lon="5.68724">
        <ele>328.6</ele>
        <time>1970-01-01T01:26:50.000Z</time>
      </trkpt>
      <trkpt lat="49.58455" lon="5.68717">
        <ele>327.9</ele>
        <time>1970-01-01T01:26:52.000Z</time>
      </trkpt>
      <trkpt lat="49.58446" lon="5.68714">
        <ele>327.7</ele>
        <time>1970-01-01T01:26:53.000Z</time>
      </trkpt>
      <trkpt lat="49.58425" lon="5.68709">
        <ele>327.7</ele>
        <time>1970-01-01T01:26:55.000Z</time>
      </trkpt>
      <trkpt lat="49.58406" lon="5.68702">
        <ele>327.7</ele>
        <time>1970-01-01T01:26:57.000Z</time>
      </trkpt>
      <trkpt lat="49.58397" lon="5.68698">
        <ele>327.9</ele>
        <time>1970-01-01T01:26:58.000Z</time>
      </trkpt>
      <trkpt lat="49.58382" lon="5.68691">
        <ele>328.4</ele>
        <time>1970-01-01T01:27:00.000Z</time>
      </trkpt>
      <trkpt lat="49.58375" lon="5.68687">
        <ele>328.6</ele>
        <time>1970-01-01T01:27:01.000Z</time>
      </trkpt>
      <trkpt lat="49.5836" lon="5.68681">
        <ele>326.8</ele>
        <time>1970-01-01T01:27:03.000Z</time>
      </trkpt>
      <trkpt lat="49.58344" lon="5.68678">
        <ele>325.3</ele>
        <time>1970-01-01T01:27:05.000Z</time>
      </trkpt>
      <trkpt lat="49.58328" lon="5.68679">
        <ele>323.8</ele>
        <time>1970-01-01T01:27:07.000Z</time>
      </trkpt>
      <trkpt lat="49.5832" lon="5.6868">
        <ele>323</ele>
        <time>1970-01-01T01:27:08.000Z</time>
      </trkpt>
      <trkpt lat="49.58312" lon="5.68683">
        <ele>322.3</ele>
        <time>1970-01-01T01:27:09.000Z</time>
      </trkpt>
      <trkpt lat="49.58296" lon="5.68687">
        <ele>320.8</ele>
        <time>1970-01-01T01:27:11.000Z</time>
      </trkpt>
      <trkpt lat="49.5828" lon="5.6869">
        <ele>319.3</ele>
        <time>1970-01-01T01:27:13.000Z</time>
      </trkpt>
      <trkpt lat="49.58273" lon="5.68692">
        <ele>318.6</ele>
        <time>1970-01-01T01:27:14.000Z</time>
      </trkpt>
      <trkpt lat="49.58266" lon="5.68693">
        <ele>317.9</ele>
        <time>1970-01-01T01:27:15.000Z</time>
      </trkpt>
      <trkpt lat="49.58259" lon="5.68692">
        <ele>317.3</ele>
        <time>1970-01-01T01:27:16.000Z</time>
      </trkpt>
      <trkpt lat="49.58247" lon="5.68685">
        <ele>315.6</ele>
        <time>1970-01-01T01:27:18.000Z</time>
      </trkpt>
      <trkpt lat="49.58241" lon="5.68681">
        <ele>314.8</ele>
        <time>1970-01-01T01:27:19.000Z</time>
      </trkpt>
      <trkpt lat="49.58227" lon="5.68676">
        <ele>312.5</ele>
        <time>1970-01-01T01:27:21.000Z</time>
      </trkpt>
      <trkpt lat="49.58215" lon="5.68671">
        <ele>311.1</ele>
        <time>1970-01-01T01:27:23.000Z</time>
      </trkpt>
      <trkpt lat="49.58209" lon="5.68669">
        <ele>310.6</ele>
        <time>1970-01-01T01:27:24.000Z</time>
      </trkpt>
      <trkpt lat="49.58199" lon="5.68663">
        <ele>309.2</ele>
        <time>1970-01-01T01:27:26.000Z</time>
      </trkpt>
      <trkpt lat="49.58195" lon="5.68658">
        <ele>308.9</ele>
        <time>1970-01-01T01:27:27.000Z</time>
      </trkpt>
      <trkpt lat="49.5819" lon="5.68653">
        <ele>308.6</ele>
        <time>1970-01-01T01:27:28.000Z</time>
      </trkpt>
      <trkpt lat="49.5818" lon="5.68642">
        <ele>307.9</ele>
        <time>1970-01-01T01:27:30.000Z</time>
      </trkpt>
      <trkpt lat="49.58175" lon="5.68636">
        <ele>307.5</ele>
        <time>1970-01-01T01:27:31.000Z</time>
      </trkpt>
      <trkpt lat="49.58165" lon="5.68625">
        <ele>307</ele>
        <time>1970-01-01T01:27:33.000Z</time>
      </trkpt>
      <trkpt lat="49.58155" lon="5.68614">
        <ele>306.5</ele>
        <time>1970-01-01T01:27:35.000Z</time>
      </trkpt>
      <trkpt lat="49.5815" lon="5.6861">
        <ele>306.3</ele>
        <time>1970-01-01T01:27:36.000Z</time>
      </trkpt>
      <trkpt lat="49.58138" lon="5.686">
        <ele>305.9</ele>
        <time>1970-01-01T01:27:38.000Z</time>
      </trkpt>
      <trkpt lat="49.58132" lon="5.68595">
        <ele>305.7</ele>
        <time>1970-01-01T01:27:39.000Z</time>
      </trkpt>
      <trkpt lat="49.58121" lon="5.68585">
        <ele>305.5</ele>
        <time>1970-01-01T01:27:41.000Z</time>
      </trkpt>
      <trkpt lat="49.58109" lon="5.68576">
        <ele>305.2</ele>
        <time>1970-01-01T01:27:43.000Z</time>
      </trkpt>
      <trkpt lat="49.58103" lon="5.6857">
        <ele>305</ele>
        <time>1970-01-01T01:27:44.000Z</time>
      </trkpt>
      <trkpt lat="49.58091" lon="5.68562">
        <ele>304.8</ele>
        <time>1970-01-01T01:27:46.000Z</time>
      </trkpt>
      <trkpt lat="49.5808" lon="5.68554">
        <ele>304.5</ele>
        <time>1970-01-01T01:27:48.000Z</time>
      </trkpt>
      <trkpt lat="49.58068" lon="5.68546">
        <ele>304.4</ele>
        <time>1970-01-01T01:27:50.000Z</time>
      </trkpt>
      <trkpt lat="49.58063" lon="5.68542">
        <ele>304.3</ele>
        <time>1970-01-01T01:27:51.000Z</time>
      </trkpt>
      <trkpt lat="49.58051" lon="5.68533">
        <ele>304.2</ele>
        <time>1970-01-01T01:27:53.000Z</time>
      </trkpt>
      <trkpt lat="49.5804" lon="5.68524">
        <ele>304</ele>
        <time>1970-01-01T01:27:55.000Z</time>
      </trkpt>
      <trkpt lat="49.58029" lon="5.68517">
        <ele>303.9</ele>
        <time>1970-01-01T01:27:57.000Z</time>
      </trkpt>
      <trkpt lat="49.58018" lon="5.68509">
        <ele>303.8</ele>
        <time>1970-01-01T01:27:59.000Z</time>
      </trkpt>
      <trkpt lat="49.58007" lon="5.68501">
        <ele>303.8</ele>
        <time>1970-01-01T01:28:01.000Z</time>
      </trkpt>
      <trkpt lat="49.58001" lon="5.68498">
        <ele>303.8</ele>
        <time>1970-01-01T01:28:02.000Z</time>
      </trkpt>
      <trkpt lat="49.57995" lon="5.68495">
        <ele>303.8</ele>
        <time>1970-01-01T01:28:03.000Z</time>
      </trkpt>
      <trkpt lat="49.57983" lon="5.68489">
        <ele>303.7</ele>
        <time>1970-01-01T01:28:05.000Z</time>
      </trkpt>
      <trkpt lat="49.57971" lon="5.68486">
        <ele>303.6</ele>
        <time>1970-01-01T01:28:07.000Z</time>
      </trkpt>
      <trkpt lat="49.57958" lon="5.68484">
        <ele>303.4</ele>
        <time>1970-01-01T01:28:09.000Z</time>
      </trkpt>
      <trkpt lat="49.57952" lon="5.68484">
        <ele>303.3</ele>
        <time>1970-01-01T01:28:10.000Z</time>
      </trkpt>
      <trkpt lat="49.57946" lon="5.68485">
        <ele>303.2</ele>
        <time>1970-01-01T01:28:11.000Z</time>
      </trkpt>
      <trkpt lat="49.57936" lon="5.68493">
        <ele>302.9</ele>
        <time>1970-01-01T01:28:13.000Z</time>
      </trkpt>
      <trkpt lat="49.5793" lon="5.68498">
        <ele>302.7</ele>
        <time>1970-01-01T01:28:14.000Z</time>
      </trkpt>
      <trkpt lat="49.57925" lon="5.68501">
        <ele>302.6</ele>
        <time>1970-01-01T01:28:15.000Z</time>
      </trkpt>
      <trkpt lat="49.57919" lon="5.68505">
        <ele>302.4</ele>
        <time>1970-01-01T01:28:16.000Z</time>
      </trkpt>
      <trkpt lat="49.57909" lon="5.6851">
        <ele>302.1</ele>
        <time>1970-01-01T01:28:18.000Z</time>
      </trkpt>
      <trkpt lat="49.57899" lon="5.68514">
        <ele>301.9</ele>
        <time>1970-01-01T01:28:20.000Z</time>
      </trkpt>
      <trkpt lat="49.57893" lon="5.68515">
        <ele>301.8</ele>
        <time>1970-01-01T01:28:21.000Z</time>
      </trkpt>
      <trkpt lat="49.57887" lon="5.68516">
        <ele>301.7</ele>
        <time>1970-01-01T01:28:22.000Z</time>
      </trkpt>
      <trkpt lat="49.57881" lon="5.68517">
        <ele>301.6</ele>
        <time>1970-01-01T01:28:23.000Z</time>
      </trkpt>
      <trkpt lat="49.57869" lon="5.68519">
        <ele>301.5</ele>
        <time>1970-01-01T01:28:25.000Z</time>
      </trkpt>
      <trkpt lat="49.57857" lon="5.6852">
        <ele>301.4</ele>
        <time>1970-01-01T01:28:27.000Z</time>
      </trkpt>
      <trkpt lat="49.57851" lon="5.68522">
        <ele>301.4</ele>
        <time>1970-01-01T01:28:28.000Z</time>
      </trkpt>
      <trkpt lat="49.57841" lon="5.68526">
        <ele>301.5</ele>
        <time>1970-01-01T01:28:30.000Z</time>
      </trkpt>
      <trkpt lat="49.57836" lon="5.68528">
        <ele>301.6</ele>
        <time>1970-01-01T01:28:31.000Z</time>
      </trkpt>
      <trkpt lat="49.57826" lon="5.68534">
        <ele>301.7</ele>
        <time>1970-01-01T01:28:33.000Z</time>
      </trkpt>
      <trkpt lat="49.57821" lon="5.68537">
        <ele>301.8</ele>
        <time>1970-01-01T01:28:34.000Z</time>
      </trkpt>
      <trkpt lat="49.57816" lon="5.6854">
        <ele>301.8</ele>
        <time>1970-01-01T01:28:35.000Z</time>
      </trkpt>
      <trkpt lat="49.57811" lon="5.68543">
        <ele>301.9</ele>
        <time>1970-01-01T01:28:36.000Z</time>
      </trkpt>
      <trkpt lat="49.57802" lon="5.6855">
        <ele>302.1</ele>
        <time>1970-01-01T01:28:38.000Z</time>
      </trkpt>
      <trkpt lat="49.57793" lon="5.68555">
        <ele>302.3</ele>
        <time>1970-01-01T01:28:40.000Z</time>
      </trkpt>
      <trkpt lat="49.57785" lon="5.68561">
        <ele>302.6</ele>
        <time>1970-01-01T01:28:42.000Z</time>
      </trkpt>
      <trkpt lat="49.57781" lon="5.68564">
        <ele>302.9</ele>
        <time>1970-01-01T01:28:43.000Z</time>
      </trkpt>
      <trkpt lat="49.57772" lon="5.68572">
        <ele>303.3</ele>
        <time>1970-01-01T01:28:45.000Z</time>
      </trkpt>
      <trkpt lat="49.57768" lon="5.68575">
        <ele>303.5</ele>
        <time>1970-01-01T01:28:46.000Z</time>
      </trkpt>
      <trkpt lat="49.57762" lon="5.68581">
        <ele>303.9</ele>
        <time>1970-01-01T01:28:48.000Z</time>
      </trkpt>
      <trkpt lat="49.57754" lon="5.68587">
        <ele>304.2</ele>
        <time>1970-01-01T01:28:50.000Z</time>
      </trkpt>
      <trkpt lat="49.57745" lon="5.68592">
        <ele>304.6</ele>
        <time>1970-01-01T01:28:52.000Z</time>
      </trkpt>
      <trkpt lat="49.57734" lon="5.68598">
        <ele>304.9</ele>
        <time>1970-01-01T01:28:54.000Z</time>
      </trkpt>
      <trkpt lat="49.57725" lon="5.68602">
        <ele>304.9</ele>
        <time>1970-01-01T01:28:56.000Z</time>
      </trkpt>
      <trkpt lat="49.57719" lon="5.68603">
        <ele>304.8</ele>
        <time>1970-01-01T01:28:57.000Z</time>
      </trkpt>
      <trkpt lat="49.57708" lon="5.68604">
        <ele>304.3</ele>
        <time>1970-01-01T01:28:59.000Z</time>
      </trkpt>
      <trkpt lat="49.57696" lon="5.68604">
        <ele>303.7</ele>
        <time>1970-01-01T01:29:01.000Z</time>
      </trkpt>
      <trkpt lat="49.57683" lon="5.68603">
        <ele>303</ele>
        <time>1970-01-01T01:29:03.000Z</time>
      </trkpt>
      <trkpt lat="49.5767" lon="5.68603">
        <ele>302.3</ele>
        <time>1970-01-01T01:29:05.000Z</time>
      </trkpt>
      <trkpt lat="49.57663" lon="5.68602">
        <ele>302</ele>
        <time>1970-01-01T01:29:06.000Z</time>
      </trkpt>
      <trkpt lat="49.57648" lon="5.68598">
        <ele>301.1</ele>
        <time>1970-01-01T01:29:08.000Z</time>
      </trkpt>
      <trkpt lat="49.57633" lon="5.68595">
        <ele>299.9</ele>
        <time>1970-01-01T01:29:10.000Z</time>
      </trkpt>
      <trkpt lat="49.57627" lon="5.68594">
        <ele>299.4</ele>
        <time>1970-01-01T01:29:11.000Z</time>
      </trkpt>
      <trkpt lat="49.57623" lon="5.68596">
        <ele>299.1</ele>
        <time>1970-01-01T01:29:12.000Z</time>
      </trkpt>
      <trkpt lat="49.57616" lon="5.68604">
        <ele>298.6</ele>
        <time>1970-01-01T01:29:14.000Z</time>
      </trkpt>
      <trkpt lat="49.57611" lon="5.68614">
        <ele>300.3</ele>
      </trkpt>
      <trkpt lat="49.57607" lon="5.68613">
        <ele>300.3</ele>
      </trkpt>
      <trkpt lat="49.57602" lon="5.68612">
        <ele>300.2</ele>
      </trkpt>
      <trkpt lat="49.57594" lon="5.68611">
        <ele>300</ele>
      </trkpt>
      <trkpt lat="49.57587" lon="5.68612">
        <ele>299.9</ele>
      </trkpt>
      <trkpt lat="49.57581" lon="5.68615">
        <ele>297.3</ele>
      </trkpt>
      <trkpt lat="49.57573" lon="5.68628">
        <ele>296.7</ele>
      </trkpt>
      <trkpt lat="49.5756" lon="5.68662">
        <ele>296.1</ele>
      </trkpt>
      <trkpt lat="49.57551" lon="5.68689">
        <ele>294.7</ele>
      </trkpt>
      <trkpt lat="49.57538" lon="5.68739">
        <ele>294.4</ele>
      </trkpt>
      <trkpt lat="49.57503" lon="5.6891">
        <ele>292.6</ele>
      </trkpt>
      <trkpt lat="49.57495" lon="5.68933">
        <ele>292</ele>
      </trkpt>
      <trkpt lat="49.57484" lon="5.68958">
        <ele>291.4</ele>
      </trkpt>
      <trkpt lat="49.57464" lon="5.68992">
        <ele>291.1</ele>
      </trkpt>
      <trkpt lat="49.57374" lon="5.69139">
        <ele>289.6</ele>
      </trkpt>
      <trkpt lat="49.5732" lon="5.69222">
        <ele>287.8</ele>
      </trkpt>
      <trkpt lat="49.57225" lon="5.69364">
        <ele>284</ele>
      </trkpt>
      <trkpt lat="49.5719" lon="5.69412">
        <ele>282.5</ele>
      </trkpt>
      <trkpt lat="49.57154" lon="5.69459">
        <ele>280</ele>
      </trkpt>
      <trkpt lat="49.57127" lon="5.69483">
        <ele>279.6</ele>
      </trkpt>
      <trkpt lat="49.57119" lon="5.69489">
        <ele>279.4</ele>
      </trkpt>
      <trkpt lat="49.57106" lon="5.69508">
        <ele>277.8</ele>
      </trkpt>
      <trkpt lat="49.57093" lon="5.69531">
        <ele>277.5</ele>
      </trkpt>
      <trkpt lat="49.57086" lon="5.69549">
        <ele>277.2</ele>
      </trkpt>
      <trkpt lat="49.57078" lon="5.69577">
        <ele>275.7</ele>
      </trkpt>
      <trkpt lat="49.57072" lon="5.69617">
        <ele>273.3</ele>
      </trkpt>
      <trkpt lat="49.57067" lon="5.69639">
        <ele>272.6</ele>
      </trkpt>
      <trkpt lat="49.57048" lon="5.6969">
        <ele>269.5</ele>
      </trkpt>
      <trkpt lat="49.57014" lon="5.69802">
        <ele>265.6</ele>
      </trkpt>
      <trkpt lat="49.56964" lon="5.6994">
        <ele>259.4</ele>
      </trkpt>
      <trkpt lat="49.56949" lon="5.69995">
        <ele>258.4</ele>
      </trkpt>
      <trkpt lat="49.5695" lon="5.7">
        <ele>257.1</ele>
      </trkpt>
      <trkpt lat="49.56952" lon="5.70014">
        <ele>257.1</ele>
      </trkpt>
      <trkpt lat="49.56958" lon="5.70026">
        <ele>257</ele>
      </trkpt>
      <trkpt lat="49.56963" lon="5.70034">
        <ele>256.9</ele>
      </trkpt>
      <trkpt lat="49.56968" lon="5.70037">
        <ele>256.9</ele>
      </trkpt>
      <trkpt lat="49.56971" lon="5.7004">
        <ele>256.8</ele>
      </trkpt>
      <trkpt lat="49.5697" lon="5.70064">
        <ele>256.4</ele>
      </trkpt>
      <trkpt lat="49.5697" lon="5.7008">
        <ele>256.4</ele>
        <time>1970-01-01T01:33:48.000Z</time>
      </trkpt>
      <trkpt lat="49.56971" lon="5.70092">
        <ele>255.8</ele>
        <time>1970-01-01T01:33:49.000Z</time>
      </trkpt>
      <trkpt lat="49.56972" lon="5.70103">
        <ele>255.1</ele>
        <time>1970-01-01T01:33:50.000Z</time>
      </trkpt>
      <trkpt lat="49.56977" lon="5.70128">
        <ele>253.7</ele>
        <time>1970-01-01T01:33:52.000Z</time>
      </trkpt>
      <trkpt lat="49.56979" lon="5.7014">
        <ele>253</ele>
        <time>1970-01-01T01:33:53.000Z</time>
      </trkpt>
      <trkpt lat="49.56981" lon="5.70153">
        <ele>252.3</ele>
        <time>1970-01-01T01:33:54.000Z</time>
      </trkpt>
      <trkpt lat="49.5698" lon="5.70179">
        <ele>252.7</ele>
        <time>1970-01-01T01:33:56.000Z</time>
      </trkpt>
      <trkpt lat="49.56978" lon="5.70191">
        <ele>252.8</ele>
        <time>1970-01-01T01:33:57.000Z</time>
      </trkpt>
      <trkpt lat="49.56969" lon="5.70211">
        <ele>252.9</ele>
        <time>1970-01-01T01:33:59.000Z</time>
      </trkpt>
      <trkpt lat="49.56957" lon="5.70226">
        <ele>252.8</ele>
        <time>1970-01-01T01:34:01.000Z</time>
      </trkpt>
      <trkpt lat="49.56951" lon="5.70232">
        <ele>252.7</ele>
        <time>1970-01-01T01:34:02.000Z</time>
      </trkpt>
      <trkpt lat="49.5694" lon="5.70241">
        <ele>252.3</ele>
        <time>1970-01-01T01:34:04.000Z</time>
      </trkpt>
      <trkpt lat="49.56933" lon="5.70247">
        <ele>251.9</ele>
        <time>1970-01-01T01:34:05.000Z</time>
      </trkpt>
      <trkpt lat="49.56917" lon="5.70261">
        <ele>250.9</ele>
        <time>1970-01-01T01:34:07.000Z</time>
      </trkpt>
      <trkpt lat="49.56908" lon="5.70269">
        <ele>250</ele>
        <time>1970-01-01T01:34:08.000Z</time>
      </trkpt>
      <trkpt lat="49.56899" lon="5.70278">
        <ele>249.1</ele>
        <time>1970-01-01T01:34:09.000Z</time>
      </trkpt>
      <trkpt lat="49.56882" lon="5.70295">
        <ele>247.5</ele>
        <time>1970-01-01T01:34:11.000Z</time>
      </trkpt>
      <trkpt lat="49.56873" lon="5.70304">
        <ele>246.8</ele>
        <time>1970-01-01T01:34:12.000Z</time>
      </trkpt>
      <trkpt lat="49.56852" lon="5.70319">
        <ele>245.4</ele>
        <time>1970-01-01T01:34:14.000Z</time>
      </trkpt>
      <trkpt lat="49.56842" lon="5.70327">
        <ele>245.1</ele>
        <time>1970-01-01T01:34:15.000Z</time>
      </trkpt>
      <trkpt lat="49.56821" lon="5.7034">
        <ele>244.7</ele>
        <time>1970-01-01T01:34:17.000Z</time>
      </trkpt>
      <trkpt lat="49.56802" lon="5.70354">
        <ele>244.5</ele>
        <time>1970-01-01T01:34:19.000Z</time>
      </trkpt>
      <trkpt lat="49.56788" lon="5.70374">
        <ele>244.4</ele>
        <time>1970-01-01T01:34:21.000Z</time>
      </trkpt>
      <trkpt lat="49.56783" lon="5.70385">
        <ele>244.4</ele>
        <time>1970-01-01T01:34:22.000Z</time>
      </trkpt>
      <trkpt lat="49.56772" lon="5.70406">
        <ele>244.4</ele>
        <time>1970-01-01T01:34:24.000Z</time>
      </trkpt>
      <trkpt lat="49.56767" lon="5.70416">
        <ele>244.4</ele>
        <time>1970-01-01T01:34:25.000Z</time>
      </trkpt>
      <trkpt lat="49.56758" lon="5.70436">
        <ele>244.6</ele>
        <time>1970-01-01T01:34:27.000Z</time>
      </trkpt>
      <trkpt lat="49.5675" lon="5.70455">
        <ele>244.8</ele>
        <time>1970-01-01T01:34:29.000Z</time>
      </trkpt>
      <trkpt lat="49.56747" lon="5.70464">
        <ele>244.9</ele>
        <time>1970-01-01T01:34:30.000Z</time>
      </trkpt>
      <trkpt lat="49.56742" lon="5.70483">
        <ele>245.1</ele>
        <time>1970-01-01T01:34:32.000Z</time>
      </trkpt>
      <trkpt lat="49.5674" lon="5.70492">
        <ele>245.2</ele>
        <time>1970-01-01T01:34:33.000Z</time>
      </trkpt>
      <trkpt lat="49.56734" lon="5.70505">
        <ele>245.7</ele>
        <time>1970-01-01T01:34:35.000Z</time>
      </trkpt>
      <trkpt lat="49.56726" lon="5.7051">
        <ele>246.7</ele>
        <time>1970-01-01T01:34:37.000Z</time>
      </trkpt>
      <trkpt lat="49.56721" lon="5.7051">
        <ele>247</ele>
        <time>1970-01-01T01:34:38.000Z</time>
      </trkpt>
      <trkpt lat="49.56714" lon="5.70505">
        <ele>247.2</ele>
        <time>1970-01-01T01:34:40.000Z</time>
      </trkpt>
      <trkpt lat="49.5671" lon="5.70501">
        <ele>247.3</ele>
        <time>1970-01-01T01:34:41.000Z</time>
      </trkpt>
      <trkpt lat="49.56702" lon="5.70491">
        <ele>247.5</ele>
        <time>1970-01-01T01:34:43.000Z</time>
      </trkpt>
      <trkpt lat="49.56697" lon="5.70486">
        <ele>247.6</ele>
        <time>1970-01-01T01:34:44.000Z</time>
      </trkpt>
      <trkpt lat="49.56693" lon="5.70482">
        <ele>247.7</ele>
        <time>1970-01-01T01:34:45.000Z</time>
      </trkpt>
      <trkpt lat="49.56685" lon="5.70472">
        <ele>248</ele>
        <time>1970-01-01T01:34:47.000Z</time>
      </trkpt>
      <trkpt lat="49.56681" lon="5.70467">
        <ele>248.2</ele>
        <time>1970-01-01T01:34:48.000Z</time>
      </trkpt>
      <trkpt lat="49.56674" lon="5.70459">
        <ele>248.4</ele>
        <time>1970-01-01T01:34:50.000Z</time>
      </trkpt>
      <trkpt lat="49.56667" lon="5.70452">
        <ele>248.6</ele>
        <time>1970-01-01T01:34:53.000Z</time>
      </trkpt>
      <trkpt lat="49.56661" lon="5.70446">
        <ele>248.7</ele>
        <time>1970-01-01T01:34:55.000Z</time>
      </trkpt>
      <trkpt lat="49.56655" lon="5.70441">
        <ele>249</ele>
        <time>1970-01-01T01:34:56.000Z</time>
      </trkpt>
      <trkpt lat="49.56651" lon="5.70437">
        <ele>249.2</ele>
        <time>1970-01-01T01:34:57.000Z</time>
      </trkpt>
      <trkpt lat="49.56646" lon="5.70432">
        <ele>249.4</ele>
        <time>1970-01-01T01:34:58.000Z</time>
      </trkpt>
      <trkpt lat="49.56642" lon="5.70429">
        <ele>249.7</ele>
        <time>1970-01-01T01:35:00.000Z</time>
      </trkpt>
      <trkpt lat="49.56639" lon="5.70427">
        <ele>249.9</ele>
        <time>1970-01-01T01:35:01.000Z</time>
      </trkpt>
      <trkpt lat="49.56635" lon="5.70425">
        <ele>250.2</ele>
        <time>1970-01-01T01:35:02.000Z</time>
      </trkpt>
      <trkpt lat="49.56629" lon="5.70423">
        <ele>250.7</ele>
        <time>1970-01-01T01:35:04.000Z</time>
      </trkpt>
      <trkpt lat="49.56625" lon="5.70422">
        <ele>251</ele>
        <time>1970-01-01T01:35:05.000Z</time>
      </trkpt>
      <trkpt lat="49.56622" lon="5.70422">
        <ele>251.2</ele>
        <time>1970-01-01T01:35:06.000Z</time>
      </trkpt>
      <trkpt lat="49.56617" lon="5.70422">
        <ele>251.7</ele>
        <time>1970-01-01T01:35:08.000Z</time>
      </trkpt>
      <trkpt lat="49.56613" lon="5.70423">
        <ele>252.2</ele>
        <time>1970-01-01T01:35:09.000Z</time>
      </trkpt>
      <trkpt lat="49.56609" lon="5.70423">
        <ele>252.6</ele>
        <time>1970-01-01T01:35:10.000Z</time>
      </trkpt>
      <trkpt lat="49.56606" lon="5.70424">
        <ele>253</ele>
        <time>1970-01-01T01:35:12.000Z</time>
      </trkpt>
      <trkpt lat="49.56602" lon="5.70423">
        <ele>253.4</ele>
        <time>1970-01-01T01:35:13.000Z</time>
      </trkpt>
      <trkpt lat="49.56599" lon="5.70424">
        <ele>253.9</ele>
        <time>1970-01-01T01:35:14.000Z</time>
      </trkpt>
      <trkpt lat="49.56595" lon="5.70424">
        <ele>254.4</ele>
        <time>1970-01-01T01:35:16.000Z</time>
      </trkpt>
      <trkpt lat="49.56592" lon="5.70425">
        <ele>254.8</ele>
        <time>1970-01-01T01:35:17.000Z</time>
      </trkpt>
      <trkpt lat="49.56587" lon="5.70426">
        <ele>255.5</ele>
        <time>1970-01-01T01:35:19.000Z</time>
      </trkpt>
      <trkpt lat="49.56584" lon="5.70426">
        <ele>255.9</ele>
        <time>1970-01-01T01:35:20.000Z</time>
      </trkpt>
      <trkpt lat="49.56578" lon="5.70426">
        <ele>256.7</ele>
        <time>1970-01-01T01:35:22.000Z</time>
      </trkpt>
      <trkpt lat="49.56574" lon="5.70425">
        <ele>257.3</ele>
        <time>1970-01-01T01:35:24.000Z</time>
      </trkpt>
      <trkpt lat="49.56571" lon="5.70425">
        <ele>257.8</ele>
        <time>1970-01-01T01:35:25.000Z</time>
      </trkpt>
      <trkpt lat="49.56567" lon="5.70425">
        <ele>258.3</ele>
        <time>1970-01-01T01:35:27.000Z</time>
      </trkpt>
      <trkpt lat="49.56563" lon="5.70425">
        <ele>258.9</ele>
        <time>1970-01-01T01:35:29.000Z</time>
      </trkpt>
      <trkpt lat="49.5656" lon="5.70424">
        <ele>259.3</ele>
        <time>1970-01-01T01:35:30.000Z</time>
      </trkpt>
      <trkpt lat="49.56554" lon="5.70423">
        <ele>260</ele>
        <time>1970-01-01T01:35:33.000Z</time>
      </trkpt>
      <trkpt lat="49.56551" lon="5.70423">
        <ele>260.4</ele>
        <time>1970-01-01T01:35:35.000Z</time>
      </trkpt>
      <trkpt lat="49.56548" lon="5.70424">
        <ele>260.8</ele>
        <time>1970-01-01T01:35:36.000Z</time>
      </trkpt>
      <trkpt lat="49.56545" lon="5.70427">
        <ele>261.2</ele>
        <time>1970-01-01T01:35:38.000Z</time>
      </trkpt>
      <trkpt lat="49.56541" lon="5.70428">
        <ele>261.8</ele>
        <time>1970-01-01T01:35:40.000Z</time>
      </trkpt>
      <trkpt lat="49.56538" lon="5.70429">
        <ele>262.2</ele>
        <time>1970-01-01T01:35:41.000Z</time>
      </trkpt>
      <trkpt lat="49.56534" lon="5.7043">
        <ele>262.6</ele>
        <time>1970-01-01T01:35:43.000Z</time>
      </trkpt>
      <trkpt lat="49.56529" lon="5.70431">
        <ele>263.2</ele>
        <time>1970-01-01T01:35:45.000Z</time>
      </trkpt>
      <trkpt lat="49.56525" lon="5.70433">
        <ele>263.8</ele>
        <time>1970-01-01T01:35:48.000Z</time>
      </trkpt>
      <trkpt lat="49.5652" lon="5.70434">
        <ele>264.4</ele>
        <time>1970-01-01T01:35:50.000Z</time>
      </trkpt>
      <trkpt lat="49.56516" lon="5.70434">
        <ele>264.9</ele>
        <time>1970-01-01T01:35:52.000Z</time>
      </trkpt>
      <trkpt lat="49.56511" lon="5.70435">
        <ele>265.5</ele>
        <time>1970-01-01T01:35:54.000Z</time>
      </trkpt>
      <trkpt lat="49.56505" lon="5.70435">
        <ele>266.2</ele>
        <time>1970-01-01T01:35:57.000Z</time>
      </trkpt>
      <trkpt lat="49.56503" lon="5.70436">
        <ele>266.5</ele>
        <time>1970-01-01T01:35:58.000Z</time>
      </trkpt>
      <trkpt lat="49.56498" lon="5.70438">
        <ele>267</ele>
        <time>1970-01-01T01:36:01.000Z</time>
      </trkpt>
      <trkpt lat="49.56494" lon="5.70439">
        <ele>267.6</ele>
        <time>1970-01-01T01:36:04.000Z</time>
      </trkpt>
      <trkpt lat="49.56489" lon="5.70439">
        <ele>268.2</ele>
        <time>1970-01-01T01:36:07.000Z</time>
      </trkpt>
      <trkpt lat="49.56483" lon="5.7044">
        <ele>268.8</ele>
        <time>1970-01-01T01:36:10.000Z</time>
      </trkpt>
      <trkpt lat="49.56479" lon="5.70441">
        <ele>269.4</ele>
        <time>1970-01-01T01:36:12.000Z</time>
      </trkpt>
      <trkpt lat="49.56475" lon="5.70441">
        <ele>269.8</ele>
        <time>1970-01-01T01:36:15.000Z</time>
      </trkpt>
      <trkpt lat="49.5647" lon="5.70443">
        <ele>270.4</ele>
        <time>1970-01-01T01:36:18.000Z</time>
      </trkpt>
      <trkpt lat="49.56466" lon="5.70443">
        <ele>271</ele>
        <time>1970-01-01T01:36:20.000Z</time>
      </trkpt>
      <trkpt lat="49.5646" lon="5.70444">
        <ele>271.7</ele>
        <time>1970-01-01T01:36:23.000Z</time>
      </trkpt>
      <trkpt lat="49.56456" lon="5.70445">
        <ele>272.3</ele>
        <time>1970-01-01T01:36:25.000Z</time>
      </trkpt>
      <trkpt lat="49.56452" lon="5.70446">
        <ele>272.8</ele>
        <time>1970-01-01T01:36:28.000Z</time>
      </trkpt>
      <trkpt lat="49.56447" lon="5.70447">
        <ele>273.4</ele>
        <time>1970-01-01T01:36:31.000Z</time>
      </trkpt>
      <trkpt lat="49.56442" lon="5.70449">
        <ele>274</ele>
        <time>1970-01-01T01:36:33.000Z</time>
      </trkpt>
      <trkpt lat="49.56438" lon="5.70451">
        <ele>274.6</ele>
        <time>1970-01-01T01:36:36.000Z</time>
      </trkpt>
      <trkpt lat="49.56433" lon="5.70452">
        <ele>275.3</ele>
        <time>1970-01-01T01:36:39.000Z</time>
      </trkpt>
      <trkpt lat="49.56429" lon="5.70454">
        <ele>275.9</ele>
        <time>1970-01-01T01:36:41.000Z</time>
      </trkpt>
      <trkpt lat="49.56424" lon="5.70456">
        <ele>276.6</ele>
        <time>1970-01-01T01:36:44.000Z</time>
      </trkpt>
      <trkpt lat="49.5642" lon="5.70457">
        <ele>277.2</ele>
        <time>1970-01-01T01:36:47.000Z</time>
      </trkpt>
      <trkpt lat="49.56417" lon="5.70458">
        <ele>277.7</ele>
        <time>1970-01-01T01:36:48.000Z</time>
      </trkpt>
      <trkpt lat="49.56412" lon="5.70461">
        <ele>278.5</ele>
        <time>1970-01-01T01:36:51.000Z</time>
      </trkpt>
      <trkpt lat="49.56409" lon="5.70464">
        <ele>279.1</ele>
        <time>1970-01-01T01:36:53.000Z</time>
      </trkpt>
      <trkpt lat="49.56407" lon="5.70466">
        <ele>279.5</ele>
        <time>1970-01-01T01:36:55.000Z</time>
      </trkpt>
      <trkpt lat="49.56402" lon="5.70469">
        <ele>280.3</ele>
        <time>1970-01-01T01:36:58.000Z</time>
      </trkpt>
      <trkpt lat="49.56399" lon="5.70471">
        <ele>280.8</ele>
        <time>1970-01-01T01:37:00.000Z</time>
      </trkpt>
      <trkpt lat="49.56394" lon="5.70476">
        <ele>281.6</ele>
        <time>1970-01-01T01:37:03.000Z</time>
      </trkpt>
      <trkpt lat="49.56391" lon="5.7048">
        <ele>282.2</ele>
        <time>1970-01-01T01:37:05.000Z</time>
      </trkpt>
      <trkpt lat="49.56386" lon="5.70484">
        <ele>283.1</ele>
        <time>1970-01-01T01:37:08.000Z</time>
      </trkpt>
      <trkpt lat="49.56382" lon="5.70488">
        <ele>283.7</ele>
        <time>1970-01-01T01:37:11.000Z</time>
      </trkpt>
      <trkpt lat="49.56378" lon="5.70492">
        <ele>284.3</ele>
        <time>1970-01-01T01:37:13.000Z</time>
      </trkpt>
      <trkpt lat="49.56376" lon="5.70495">
        <ele>284.7</ele>
        <time>1970-01-01T01:37:15.000Z</time>
      </trkpt>
      <trkpt lat="49.56372" lon="5.70498">
        <ele>285.3</ele>
        <time>1970-01-01T01:37:17.000Z</time>
      </trkpt>
      <trkpt lat="49.56367" lon="5.70502">
        <ele>285.9</ele>
        <time>1970-01-01T01:37:20.000Z</time>
      </trkpt>
      <trkpt lat="49.56363" lon="5.70505">
        <ele>286.4</ele>
        <time>1970-01-01T01:37:23.000Z</time>
      </trkpt>
      <trkpt lat="49.56364" lon="5.70513">
        <ele>287</ele>
        <time>1970-01-01T01:37:26.000Z</time>
      </trkpt>
      <trkpt lat="49.56371" lon="5.7051">
        <ele>287.8</ele>
        <time>1970-01-01T01:37:28.000Z</time>
      </trkpt>
      <trkpt lat="49.5638" lon="5.70503">
        <ele>288.5</ele>
        <time>1970-01-01T01:37:30.000Z</time>
      </trkpt>
      <trkpt lat="49.56392" lon="5.70497">
        <ele>288.2</ele>
        <time>1970-01-01T01:37:32.000Z</time>
      </trkpt>
      <trkpt lat="49.56398" lon="5.70497">
        <ele>288</ele>
        <time>1970-01-01T01:37:33.000Z</time>
      </trkpt>
      <trkpt lat="49.5641" lon="5.70505">
        <ele>287.8</ele>
        <time>1970-01-01T01:37:35.000Z</time>
      </trkpt>
      <trkpt lat="49.56418" lon="5.70515">
        <ele>287.9</ele>
        <time>1970-01-01T01:37:37.000Z</time>
      </trkpt>
      <trkpt lat="49.56426" lon="5.70526">
        <ele>288.1</ele>
        <time>1970-01-01T01:37:39.000Z</time>
      </trkpt>
      <trkpt lat="49.5643" lon="5.70532">
        <ele>288.2</ele>
        <time>1970-01-01T01:37:40.000Z</time>
      </trkpt>
      <trkpt lat="49.56436" lon="5.7054">
        <ele>288.3</ele>
        <time>1970-01-01T01:37:42.000Z</time>
      </trkpt>
      <trkpt lat="49.56438" lon="5.70545">
        <ele>288.3</ele>
        <time>1970-01-01T01:37:43.000Z</time>
      </trkpt>
      <trkpt lat="49.56443" lon="5.70554">
        <ele>288.4</ele>
        <time>1970-01-01T01:37:45.000Z</time>
      </trkpt>
      <trkpt lat="49.56445" lon="5.7056">
        <ele>288.4</ele>
        <time>1970-01-01T01:37:46.000Z</time>
      </trkpt>
      <trkpt lat="49.56449" lon="5.70568">
        <ele>288.4</ele>
        <time>1970-01-01T01:37:48.000Z</time>
      </trkpt>
      <trkpt lat="49.56453" lon="5.70573">
        <ele>288.5</ele>
        <time>1970-01-01T01:37:49.000Z</time>
      </trkpt>
      <trkpt lat="49.56454" lon="5.70579">
        <ele>288.6</ele>
        <time>1970-01-01T01:37:50.000Z</time>
      </trkpt>
      <trkpt lat="49.56456" lon="5.70587">
        <ele>288.8</ele>
        <time>1970-01-01T01:37:51.000Z</time>
      </trkpt>
      <trkpt lat="49.56458" lon="5.70592">
        <ele>288.9</ele>
        <time>1970-01-01T01:37:52.000Z</time>
      </trkpt>
      <trkpt lat="49.5646" lon="5.70598">
        <ele>289</ele>
        <time>1970-01-01T01:37:54.000Z</time>
      </trkpt>
      <trkpt lat="49.56462" lon="5.70605">
        <ele>289.2</ele>
        <time>1970-01-01T01:37:55.000Z</time>
      </trkpt>
      <trkpt lat="49.56464" lon="5.7061">
        <ele>289.3</ele>
        <time>1970-01-01T01:37:56.000Z</time>
      </trkpt>
      <trkpt lat="49.56467" lon="5.7062">
        <ele>289.5</ele>
        <time>1970-01-01T01:37:58.000Z</time>
      </trkpt>
      <trkpt lat="49.56469" lon="5.70626">
        <ele>289.6</ele>
        <time>1970-01-01T01:37:59.000Z</time>
      </trkpt>
      <trkpt lat="49.56471" lon="5.70633">
        <ele>289.6</ele>
        <time>1970-01-01T01:38:00.000Z</time>
      </trkpt>
      <trkpt lat="49.56475" lon="5.70643">
        <ele>289.7</ele>
        <time>1970-01-01T01:38:02.000Z</time>
      </trkpt>
      <trkpt lat="49.56477" lon="5.70653">
        <ele>289.8</ele>
        <time>1970-01-01T01:38:04.000Z</time>
      </trkpt>
      <trkpt lat="49.56479" lon="5.7066">
        <ele>289.8</ele>
        <time>1970-01-01T01:38:05.000Z</time>
      </trkpt>
      <trkpt lat="49.56481" lon="5.7067">
        <ele>289.9</ele>
        <time>1970-01-01T01:38:06.000Z</time>
      </trkpt>
      <trkpt lat="49.56484" lon="5.70677">
        <ele>290</ele>
        <time>1970-01-01T01:38:08.000Z</time>
      </trkpt>
      <trkpt lat="49.56486" lon="5.70685">
        <ele>290.1</ele>
        <time>1970-01-01T01:38:09.000Z</time>
      </trkpt>
      <trkpt lat="49.56488" lon="5.70695">
        <ele>290.1</ele>
        <time>1970-01-01T01:38:11.000Z</time>
      </trkpt>
      <trkpt lat="49.56492" lon="5.70705">
        <ele>290</ele>
        <time>1970-01-01T01:38:13.000Z</time>
      </trkpt>
      <trkpt lat="49.56494" lon="5.70711">
        <ele>290</ele>
        <time>1970-01-01T01:38:14.000Z</time>
      </trkpt>
      <trkpt lat="49.56495" lon="5.70717">
        <ele>290</ele>
        <time>1970-01-01T01:38:15.000Z</time>
      </trkpt>
      <trkpt lat="49.56499" lon="5.70725">
        <ele>290</ele>
        <time>1970-01-01T01:38:17.000Z</time>
      </trkpt>
      <trkpt lat="49.56501" lon="5.70732">
        <ele>290</ele>
        <time>1970-01-01T01:38:18.000Z</time>
      </trkpt>
      <trkpt lat="49.56504" lon="5.7074">
        <ele>289.9</ele>
        <time>1970-01-01T01:38:19.000Z</time>
      </trkpt>
      <trkpt lat="49.56507" lon="5.70746">
        <ele>289.9</ele>
        <time>1970-01-01T01:38:21.000Z</time>
      </trkpt>
      <trkpt lat="49.5651" lon="5.70753">
        <ele>289.8</ele>
        <time>1970-01-01T01:38:22.000Z</time>
      </trkpt>
      <trkpt lat="49.56513" lon="5.70762">
        <ele>289.7</ele>
        <time>1970-01-01T01:38:23.000Z</time>
      </trkpt>
      <trkpt lat="49.56517" lon="5.7077">
        <ele>289.5</ele>
        <time>1970-01-01T01:38:25.000Z</time>
      </trkpt>
      <trkpt lat="49.5652" lon="5.70775">
        <ele>289.4</ele>
        <time>1970-01-01T01:38:26.000Z</time>
      </trkpt>
      <trkpt lat="49.56524" lon="5.70782">
        <ele>289.4</ele>
        <time>1970-01-01T01:38:27.000Z</time>
      </trkpt>
      <trkpt lat="49.56527" lon="5.70787">
        <ele>289.4</ele>
        <time>1970-01-01T01:38:28.000Z</time>
      </trkpt>
      <trkpt lat="49.56532" lon="5.708">
        <ele>289.5</ele>
        <time>1970-01-01T01:38:30.000Z</time>
      </trkpt>
      <trkpt lat="49.56535" lon="5.70806">
        <ele>289.5</ele>
        <time>1970-01-01T01:38:31.000Z</time>
      </trkpt>
      <trkpt lat="49.56538" lon="5.70812">
        <ele>289.5</ele>
        <time>1970-01-01T01:38:32.000Z</time>
      </trkpt>
      <trkpt lat="49.56544" lon="5.70824">
        <ele>289.7</ele>
        <time>1970-01-01T01:38:34.000Z</time>
      </trkpt>
      <trkpt lat="49.56547" lon="5.7083">
        <ele>289.8</ele>
        <time>1970-01-01T01:38:35.000Z</time>
      </trkpt>
      <trkpt lat="49.56554" lon="5.70843">
        <ele>289.9</ele>
        <time>1970-01-01T01:38:37.000Z</time>
      </trkpt>
      <trkpt lat="49.56557" lon="5.70849">
        <ele>289.9</ele>
        <time>1970-01-01T01:38:38.000Z</time>
      </trkpt>
      <trkpt lat="49.5656" lon="5.70856">
        <ele>290</ele>
        <time>1970-01-01T01:38:39.000Z</time>
      </trkpt>
      <trkpt lat="49.56566" lon="5.70868">
        <ele>290</ele>
        <time>1970-01-01T01:38:41.000Z</time>
      </trkpt>
      <trkpt lat="49.56569" lon="5.70874">
        <ele>290.1</ele>
        <time>1970-01-01T01:38:42.000Z</time>
      </trkpt>
      <trkpt lat="49.56576" lon="5.70887">
        <ele>290.3</ele>
        <time>1970-01-01T01:38:44.000Z</time>
      </trkpt>
      <trkpt lat="49.56579" lon="5.70894">
        <ele>290.4</ele>
        <time>1970-01-01T01:38:45.000Z</time>
      </trkpt>
      <trkpt lat="49.56585" lon="5.70908">
        <ele>290.6</ele>
        <time>1970-01-01T01:38:47.000Z</time>
      </trkpt>
      <trkpt lat="49.56588" lon="5.70914">
        <ele>290.7</ele>
        <time>1970-01-01T01:38:48.000Z</time>
      </trkpt>
      <trkpt lat="49.56591" lon="5.70921">
        <ele>290.8</ele>
        <time>1970-01-01T01:38:49.000Z</time>
      </trkpt>
      <trkpt lat="49.56594" lon="5.70928">
        <ele>290.9</ele>
        <time>1970-01-01T01:38:50.000Z</time>
      </trkpt>
      <trkpt lat="49.56599" lon="5.7094">
        <ele>291</ele>
        <time>1970-01-01T01:38:52.000Z</time>
      </trkpt>
      <trkpt lat="49.56602" lon="5.70946">
        <ele>291.1</ele>
        <time>1970-01-01T01:38:53.000Z</time>
      </trkpt>
      <trkpt lat="49.56609" lon="5.70959">
        <ele>291.2</ele>
        <time>1970-01-01T01:38:55.000Z</time>
      </trkpt>
      <trkpt lat="49.56615" lon="5.70971">
        <ele>291.4</ele>
        <time>1970-01-01T01:38:57.000Z</time>
      </trkpt>
      <trkpt lat="49.56618" lon="5.70978">
        <ele>291.5</ele>
        <time>1970-01-01T01:38:58.000Z</time>
      </trkpt>
      <trkpt lat="49.56621" lon="5.70985">
        <ele>291.6</ele>
        <time>1970-01-01T01:38:59.000Z</time>
      </trkpt>
      <trkpt lat="49.56624" lon="5.70991">
        <ele>291.6</ele>
        <time>1970-01-01T01:39:00.000Z</time>
      </trkpt>
      <trkpt lat="49.56631" lon="5.71004">
        <ele>291.6</ele>
        <time>1970-01-01T01:39:02.000Z</time>
      </trkpt>
      <trkpt lat="49.56634" lon="5.71011">
        <ele>291.6</ele>
        <time>1970-01-01T01:39:03.000Z</time>
      </trkpt>
      <trkpt lat="49.5664" lon="5.71023">
        <ele>291.7</ele>
        <time>1970-01-01T01:39:05.000Z</time>
      </trkpt>
      <trkpt lat="49.56643" lon="5.7103">
        <ele>291.7</ele>
        <time>1970-01-01T01:39:06.000Z</time>
      </trkpt>
      <trkpt lat="49.56647" lon="5.71036">
        <ele>291.7</ele>
        <time>1970-01-01T01:39:07.000Z</time>
      </trkpt>
      <trkpt lat="49.56653" lon="5.71049">
        <ele>291.6</ele>
        <time>1970-01-01T01:39:09.000Z</time>
      </trkpt>
      <trkpt lat="49.56658" lon="5.71063">
        <ele>291.5</ele>
        <time>1970-01-01T01:39:11.000Z</time>
      </trkpt>
      <trkpt lat="49.56664" lon="5.71076">
        <ele>291.4</ele>
        <time>1970-01-01T01:39:13.000Z</time>
      </trkpt>
      <trkpt lat="49.56671" lon="5.7109">
        <ele>291.4</ele>
        <time>1970-01-01T01:39:15.000Z</time>
      </trkpt>
      <trkpt lat="49.56675" lon="5.71097">
        <ele>291.4</ele>
        <time>1970-01-01T01:39:16.000Z</time>
      </trkpt>
      <trkpt lat="49.56683" lon="5.71109">
        <ele>291.6</ele>
        <time>1970-01-01T01:39:18.000Z</time>
      </trkpt>
      <trkpt lat="49.56686" lon="5.71115">
        <ele>291.7</ele>
        <time>1970-01-01T01:39:19.000Z</time>
      </trkpt>
      <trkpt lat="49.56693" lon="5.71128">
        <ele>291.7</ele>
        <time>1970-01-01T01:39:21.000Z</time>
      </trkpt>
      <trkpt lat="49.56696" lon="5.71134">
        <ele>291.7</ele>
        <time>1970-01-01T01:39:22.000Z</time>
      </trkpt>
      <trkpt lat="49.56699" lon="5.71141">
        <ele>291.7</ele>
        <time>1970-01-01T01:39:23.000Z</time>
      </trkpt>
      <trkpt lat="49.56702" lon="5.71147">
        <ele>291.6</ele>
        <time>1970-01-01T01:39:24.000Z</time>
      </trkpt>
      <trkpt lat="49.56709" lon="5.7116">
        <ele>291.6</ele>
        <time>1970-01-01T01:39:26.000Z</time>
      </trkpt>
      <trkpt lat="49.56712" lon="5.71167">
        <ele>291.7</ele>
        <time>1970-01-01T01:39:27.000Z</time>
      </trkpt>
      <trkpt lat="49.56718" lon="5.71179">
        <ele>291.8</ele>
        <time>1970-01-01T01:39:29.000Z</time>
      </trkpt>
      <trkpt lat="49.56725" lon="5.71192">
        <ele>292.1</ele>
        <time>1970-01-01T01:39:31.000Z</time>
      </trkpt>
      <trkpt lat="49.56732" lon="5.71205">
        <ele>292.1</ele>
        <time>1970-01-01T01:39:33.000Z</time>
      </trkpt>
      <trkpt lat="49.56735" lon="5.71212">
        <ele>292</ele>
        <time>1970-01-01T01:39:34.000Z</time>
      </trkpt>
      <trkpt lat="49.56738" lon="5.71219">
        <ele>292</ele>
        <time>1970-01-01T01:39:35.000Z</time>
      </trkpt>
      <trkpt lat="49.56745" lon="5.71231">
        <ele>292</ele>
        <time>1970-01-01T01:39:37.000Z</time>
      </trkpt>
      <trkpt lat="49.56749" lon="5.71238">
        <ele>292.1</ele>
        <time>1970-01-01T01:39:38.000Z</time>
      </trkpt>
      <trkpt lat="49.56753" lon="5.71244">
        <ele>292.3</ele>
        <time>1970-01-01T01:39:39.000Z</time>
      </trkpt>
      <trkpt lat="49.56759" lon="5.71256">
        <ele>292.6</ele>
        <time>1970-01-01T01:39:41.000Z</time>
      </trkpt>
      <trkpt lat="49.56766" lon="5.71268">
        <ele>292.9</ele>
        <time>1970-01-01T01:39:43.000Z</time>
      </trkpt>
      <trkpt lat="49.56772" lon="5.71279">
        <ele>293</ele>
        <time>1970-01-01T01:39:45.000Z</time>
      </trkpt>
      <trkpt lat="49.56774" lon="5.71285">
        <ele>293.1</ele>
        <time>1970-01-01T01:39:46.000Z</time>
      </trkpt>
      <trkpt lat="49.56781" lon="5.71297">
        <ele>293.2</ele>
        <time>1970-01-01T01:39:48.000Z</time>
      </trkpt>
      <trkpt lat="49.56784" lon="5.71304">
        <ele>293.3</ele>
        <time>1970-01-01T01:39:49.000Z</time>
      </trkpt>
      <trkpt lat="49.56789" lon="5.71316">
        <ele>293.4</ele>
        <time>1970-01-01T01:39:51.000Z</time>
      </trkpt>
      <trkpt lat="49.56795" lon="5.71327">
        <ele>293.5</ele>
        <time>1970-01-01T01:39:53.000Z</time>
      </trkpt>
      <trkpt lat="49.56798" lon="5.71333">
        <ele>293.4</ele>
        <time>1970-01-01T01:39:54.000Z</time>
      </trkpt>
      <trkpt lat="49.56804" lon="5.71346">
        <ele>293.3</ele>
        <time>1970-01-01T01:39:56.000Z</time>
      </trkpt>
      <trkpt lat="49.56811" lon="5.7136">
        <ele>293.2</ele>
        <time>1970-01-01T01:39:58.000Z</time>
      </trkpt>
      <trkpt lat="49.56814" lon="5.71366">
        <ele>293.1</ele>
        <time>1970-01-01T01:39:59.000Z</time>
      </trkpt>
      <trkpt lat="49.56818" lon="5.71373">
        <ele>293.1</ele>
        <time>1970-01-01T01:40:00.000Z</time>
      </trkpt>
      <trkpt lat="49.56824" lon="5.71386">
        <ele>293</ele>
        <time>1970-01-01T01:40:02.000Z</time>
      </trkpt>
      <trkpt lat="49.56826" lon="5.71393">
        <ele>293</ele>
        <time>1970-01-01T01:40:03.000Z</time>
      </trkpt>
      <trkpt lat="49.56828" lon="5.71407">
        <ele>293</ele>
        <time>1970-01-01T01:40:05.000Z</time>
      </trkpt>
      <trkpt lat="49.5683" lon="5.7141">
        <ele>293</ele>
        <time>1970-01-01T01:40:06.000Z</time>
      </trkpt>
      <trkpt lat="49.56839" lon="5.71418">
        <ele>293.1</ele>
        <time>1970-01-01T01:40:08.000Z</time>
      </trkpt>
      <trkpt lat="49.56844" lon="5.71421">
        <ele>293.2</ele>
        <time>1970-01-01T01:40:09.000Z</time>
      </trkpt>
      <trkpt lat="49.56854" lon="5.71425">
        <ele>293.3</ele>
        <time>1970-01-01T01:40:11.000Z</time>
      </trkpt>
      <trkpt lat="49.56859" lon="5.71428">
        <ele>293.4</ele>
        <time>1970-01-01T01:40:12.000Z</time>
      </trkpt>
      <trkpt lat="49.56868" lon="5.71433">
        <ele>293.6</ele>
        <time>1970-01-01T01:40:14.000Z</time>
      </trkpt>
      <trkpt lat="49.56873" lon="5.71436">
        <ele>293.7</ele>
        <time>1970-01-01T01:40:15.000Z</time>
      </trkpt>
      <trkpt lat="49.56883" lon="5.71442">
        <ele>294</ele>
        <time>1970-01-01T01:40:17.000Z</time>
      </trkpt>
      <trkpt lat="49.56888" lon="5.71445">
        <ele>294.2</ele>
        <time>1970-01-01T01:40:18.000Z</time>
      </trkpt>
      <trkpt lat="49.56898" lon="5.71452">
        <ele>294.4</ele>
        <time>1970-01-01T01:40:20.000Z</time>
      </trkpt>
      <trkpt lat="49.56907" lon="5.71459">
        <ele>294.7</ele>
        <time>1970-01-01T01:40:22.000Z</time>
      </trkpt>
      <trkpt lat="49.56916" lon="5.71466">
        <ele>295</ele>
        <time>1970-01-01T01:40:24.000Z</time>
      </trkpt>
      <trkpt lat="49.56921" lon="5.71469">
        <ele>295.1</ele>
        <time>1970-01-01T01:40:25.000Z</time>
      </trkpt>
      <trkpt lat="49.5693" lon="5.71476">
        <ele>295.4</ele>
        <time>1970-01-01T01:40:27.000Z</time>
      </trkpt>
      <trkpt lat="49.5694" lon="5.71482">
        <ele>295.6</ele>
        <time>1970-01-01T01:40:29.000Z</time>
      </trkpt>
      <trkpt lat="49.56949" lon="5.71487">
        <ele>295.9</ele>
        <time>1970-01-01T01:40:31.000Z</time>
      </trkpt>
      <trkpt lat="49.56954" lon="5.7149">
        <ele>296</ele>
        <time>1970-01-01T01:40:32.000Z</time>
      </trkpt>
      <trkpt lat="49.56964" lon="5.71494">
        <ele>296.3</ele>
        <time>1970-01-01T01:40:34.000Z</time>
      </trkpt>
      <trkpt lat="49.56973" lon="5.71497">
        <ele>296.5</ele>
        <time>1970-01-01T01:40:36.000Z</time>
      </trkpt>
      <trkpt lat="49.56978" lon="5.71499">
        <ele>296.7</ele>
        <time>1970-01-01T01:40:37.000Z</time>
      </trkpt>
      <trkpt lat="49.56987" lon="5.71502">
        <ele>297</ele>
        <time>1970-01-01T01:40:39.000Z</time>
      </trkpt>
      <trkpt lat="49.56992" lon="5.71503">
        <ele>297.2</ele>
        <time>1970-01-01T01:40:40.000Z</time>
      </trkpt>
      <trkpt lat="49.57002" lon="5.71505">
        <ele>297.4</ele>
        <time>1970-01-01T01:40:42.000Z</time>
      </trkpt>
      <trkpt lat="49.57006" lon="5.71506">
        <ele>297.5</ele>
        <time>1970-01-01T01:40:43.000Z</time>
      </trkpt>
      <trkpt lat="49.57017" lon="5.71506">
        <ele>297.8</ele>
        <time>1970-01-01T01:40:45.000Z</time>
      </trkpt>
      <trkpt lat="49.57021" lon="5.71505">
        <ele>297.9</ele>
        <time>1970-01-01T01:40:46.000Z</time>
      </trkpt>
      <trkpt lat="49.57031" lon="5.71505">
        <ele>298.2</ele>
        <time>1970-01-01T01:40:48.000Z</time>
      </trkpt>
      <trkpt lat="49.57035" lon="5.71506">
        <ele>298.3</ele>
        <time>1970-01-01T01:40:49.000Z</time>
      </trkpt>
      <trkpt lat="49.57044" lon="5.71505">
        <ele>298.5</ele>
        <time>1970-01-01T01:40:51.000Z</time>
      </trkpt>
      <trkpt lat="49.57047" lon="5.71504">
        <ele>298.6</ele>
        <time>1970-01-01T01:40:52.000Z</time>
      </trkpt>
      <trkpt lat="49.57052" lon="5.71503">
        <ele>298.8</ele>
        <time>1970-01-01T01:40:53.000Z</time>
      </trkpt>
      <trkpt lat="49.57062" lon="5.71501">
        <ele>299.1</ele>
        <time>1970-01-01T01:40:55.000Z</time>
      </trkpt>
      <trkpt lat="49.57068" lon="5.715">
        <ele>299.2</ele>
        <time>1970-01-01T01:40:56.000Z</time>
      </trkpt>
      <trkpt lat="49.57077" lon="5.71497">
        <ele>299.5</ele>
        <time>1970-01-01T01:40:58.000Z</time>
      </trkpt>
      <trkpt lat="49.57082" lon="5.71495">
        <ele>299.6</ele>
        <time>1970-01-01T01:40:59.000Z</time>
      </trkpt>
      <trkpt lat="49.57087" lon="5.71493">
        <ele>299.7</ele>
        <time>1970-01-01T01:41:00.000Z</time>
      </trkpt>
      <trkpt lat="49.57091" lon="5.71491">
        <ele>299.9</ele>
        <time>1970-01-01T01:41:01.000Z</time>
      </trkpt>
      <trkpt lat="49.57101" lon="5.71488">
        <ele>300.1</ele>
        <time>1970-01-01T01:41:03.000Z</time>
      </trkpt>
      <trkpt lat="49.57105" lon="5.71485">
        <ele>300.2</ele>
        <time>1970-01-01T01:41:04.000Z</time>
      </trkpt>
      <trkpt lat="49.57115" lon="5.71481">
        <ele>300.5</ele>
        <time>1970-01-01T01:41:06.000Z</time>
      </trkpt>
      <trkpt lat="49.5712" lon="5.71479">
        <ele>300.7</ele>
        <time>1970-01-01T01:41:07.000Z</time>
      </trkpt>
      <trkpt lat="49.5713" lon="5.71475">
        <ele>301</ele>
        <time>1970-01-01T01:41:09.000Z</time>
      </trkpt>
      <trkpt lat="49.57135" lon="5.71473">
        <ele>301</ele>
        <time>1970-01-01T01:41:10.000Z</time>
      </trkpt>
      <trkpt lat="49.57145" lon="5.7147">
        <ele>301.1</ele>
        <time>1970-01-01T01:41:12.000Z</time>
      </trkpt>
      <trkpt lat="49.5715" lon="5.71469">
        <ele>301.1</ele>
        <time>1970-01-01T01:41:13.000Z</time>
      </trkpt>
      <trkpt lat="49.5716" lon="5.71467">
        <ele>301.4</ele>
        <time>1970-01-01T01:41:15.000Z</time>
      </trkpt>
      <trkpt lat="49.5717" lon="5.71466">
        <ele>301.6</ele>
        <time>1970-01-01T01:41:17.000Z</time>
      </trkpt>
      <trkpt lat="49.57181" lon="5.71465">
        <ele>301.7</ele>
        <time>1970-01-01T01:41:19.000Z</time>
      </trkpt>
      <trkpt lat="49.57186" lon="5.71465">
        <ele>301.8</ele>
        <time>1970-01-01T01:41:20.000Z</time>
      </trkpt>
      <trkpt lat="49.57192" lon="5.71466">
        <ele>302.1</ele>
        <time>1970-01-01T01:41:21.000Z</time>
      </trkpt>
      <trkpt lat="49.57202" lon="5.71468">
        <ele>302.4</ele>
        <time>1970-01-01T01:41:23.000Z</time>
      </trkpt>
      <trkpt lat="49.57213" lon="5.7147">
        <ele>302.6</ele>
        <time>1970-01-01T01:41:25.000Z</time>
      </trkpt>
      <trkpt lat="49.57224" lon="5.71474">
        <ele>302.8</ele>
        <time>1970-01-01T01:41:27.000Z</time>
      </trkpt>
      <trkpt lat="49.57229" lon="5.71476">
        <ele>302.9</ele>
        <time>1970-01-01T01:41:28.000Z</time>
      </trkpt>
      <trkpt lat="49.57239" lon="5.71483">
        <ele>303.2</ele>
        <time>1970-01-01T01:41:30.000Z</time>
      </trkpt>
      <trkpt lat="49.57244" lon="5.71486">
        <ele>303.3</ele>
        <time>1970-01-01T01:41:31.000Z</time>
      </trkpt>
      <trkpt lat="49.57254" lon="5.71492">
        <ele>303.4</ele>
        <time>1970-01-01T01:41:33.000Z</time>
      </trkpt>
      <trkpt lat="49.57259" lon="5.71496">
        <ele>303.5</ele>
        <time>1970-01-01T01:41:34.000Z</time>
      </trkpt>
      <trkpt lat="49.57263" lon="5.71501">
        <ele>303.5</ele>
        <time>1970-01-01T01:41:35.000Z</time>
      </trkpt>
      <trkpt lat="49.57268" lon="5.71505">
        <ele>303.6</ele>
        <time>1970-01-01T01:41:36.000Z</time>
      </trkpt>
      <trkpt lat="49.57272" lon="5.7151">
        <ele>303.6</ele>
        <time>1970-01-01T01:41:37.000Z</time>
      </trkpt>
      <trkpt lat="49.57281" lon="5.7152">
        <ele>303.8</ele>
        <time>1970-01-01T01:41:39.000Z</time>
      </trkpt>
      <trkpt lat="49.57289" lon="5.71531">
        <ele>303.9</ele>
        <time>1970-01-01T01:41:41.000Z</time>
      </trkpt>
      <trkpt lat="49.57293" lon="5.71536">
        <ele>304</ele>
        <time>1970-01-01T01:41:42.000Z</time>
      </trkpt>
      <trkpt lat="49.57297" lon="5.71542">
        <ele>304</ele>
        <time>1970-01-01T01:41:43.000Z</time>
      </trkpt>
      <trkpt lat="49.57301" lon="5.71547">
        <ele>304.1</ele>
        <time>1970-01-01T01:41:44.000Z</time>
      </trkpt>
      <trkpt lat="49.57305" lon="5.71553">
        <ele>304.2</ele>
        <time>1970-01-01T01:41:45.000Z</time>
      </trkpt>
      <trkpt lat="49.57309" lon="5.71558">
        <ele>304.3</ele>
        <time>1970-01-01T01:41:46.000Z</time>
      </trkpt>
      <trkpt lat="49.57317" lon="5.71569">
        <ele>304.4</ele>
        <time>1970-01-01T01:41:48.000Z</time>
      </trkpt>
      <trkpt lat="49.57325" lon="5.71579">
        <ele>304.5</ele>
        <time>1970-01-01T01:41:50.000Z</time>
      </trkpt>
      <trkpt lat="49.57329" lon="5.71585">
        <ele>304.6</ele>
        <time>1970-01-01T01:41:51.000Z</time>
      </trkpt>
      <trkpt lat="49.57336" lon="5.71597">
        <ele>304.7</ele>
        <time>1970-01-01T01:41:53.000Z</time>
      </trkpt>
      <trkpt lat="49.57343" lon="5.71608">
        <ele>304.9</ele>
        <time>1970-01-01T01:41:55.000Z</time>
      </trkpt>
      <trkpt lat="49.57347" lon="5.71613">
        <ele>304.9</ele>
        <time>1970-01-01T01:41:56.000Z</time>
      </trkpt>
      <trkpt lat="49.57355" lon="5.71623">
        <ele>305</ele>
        <time>1970-01-01T01:41:58.000Z</time>
      </trkpt>
      <trkpt lat="49.57363" lon="5.71633">
        <ele>305.1</ele>
        <time>1970-01-01T01:42:00.000Z</time>
      </trkpt>
      <trkpt lat="49.57367" lon="5.71639">
        <ele>305.1</ele>
        <time>1970-01-01T01:42:01.000Z</time>
      </trkpt>
      <trkpt lat="49.57374" lon="5.71649">
        <ele>305.2</ele>
        <time>1970-01-01T01:42:03.000Z</time>
      </trkpt>
      <trkpt lat="49.57382" lon="5.71661">
        <ele>305.2</ele>
        <time>1970-01-01T01:42:05.000Z</time>
      </trkpt>
      <trkpt lat="49.5739" lon="5.71672">
        <ele>305.2</ele>
        <time>1970-01-01T01:42:07.000Z</time>
      </trkpt>
      <trkpt lat="49.57394" lon="5.71686">
        <ele>305.2</ele>
        <time>1970-01-01T01:42:09.000Z</time>
      </trkpt>
      <trkpt lat="49.574" lon="5.71699">
        <ele>305.1</ele>
        <time>1970-01-01T01:42:11.000Z</time>
      </trkpt>
      <trkpt lat="49.57404" lon="5.71704">
        <ele>305.1</ele>
        <time>1970-01-01T01:42:12.000Z</time>
      </trkpt>
      <trkpt lat="49.57408" lon="5.7171">
        <ele>305.1</ele>
        <time>1970-01-01T01:42:13.000Z</time>
      </trkpt>
      <trkpt lat="49.57416" lon="5.7172">
        <ele>305.3</ele>
        <time>1970-01-01T01:42:15.000Z</time>
      </trkpt>
      <trkpt lat="49.5742" lon="5.71725">
        <ele>305.3</ele>
        <time>1970-01-01T01:42:16.000Z</time>
      </trkpt>
      <trkpt lat="49.57424" lon="5.7173">
        <ele>305.4</ele>
        <time>1970-01-01T01:42:17.000Z</time>
      </trkpt>
      <trkpt lat="49.57431" lon="5.71742">
        <ele>305.4</ele>
        <time>1970-01-01T01:42:19.000Z</time>
      </trkpt>
      <trkpt lat="49.57438" lon="5.71752">
        <ele>305.5</ele>
        <time>1970-01-01T01:42:21.000Z</time>
      </trkpt>
      <trkpt lat="49.57441" lon="5.71758">
        <ele>305.5</ele>
        <time>1970-01-01T01:42:22.000Z</time>
      </trkpt>
      <trkpt lat="49.57445" lon="5.71764">
        <ele>305.5</ele>
        <time>1970-01-01T01:42:23.000Z</time>
      </trkpt>
      <trkpt lat="49.57452" lon="5.71776">
        <ele>305.5</ele>
        <time>1970-01-01T01:42:25.000Z</time>
      </trkpt>
      <trkpt lat="49.57455" lon="5.71782">
        <ele>305.5</ele>
        <time>1970-01-01T01:42:26.000Z</time>
      </trkpt>
      <trkpt lat="49.57458" lon="5.71788">
        <ele>305.5</ele>
        <time>1970-01-01T01:42:27.000Z</time>
      </trkpt>
      <trkpt lat="49.57461" lon="5.71794">
        <ele>305.6</ele>
        <time>1970-01-01T01:42:28.000Z</time>
      </trkpt>
      <trkpt lat="49.57467" lon="5.71807">
        <ele>305.7</ele>
        <time>1970-01-01T01:42:30.000Z</time>
      </trkpt>
      <trkpt lat="49.5747" lon="5.71813">
        <ele>305.8</ele>
        <time>1970-01-01T01:42:31.000Z</time>
      </trkpt>
      <trkpt lat="49.57472" lon="5.7182">
        <ele>305.9</ele>
        <time>1970-01-01T01:42:32.000Z</time>
      </trkpt>
      <trkpt lat="49.57477" lon="5.71832">
        <ele>306</ele>
        <time>1970-01-01T01:42:34.000Z</time>
      </trkpt>
      <trkpt lat="49.5748" lon="5.71845">
        <ele>306.2</ele>
        <time>1970-01-01T01:42:36.000Z</time>
      </trkpt>
      <trkpt lat="49.57483" lon="5.71857">
        <ele>306.4</ele>
        <time>1970-01-01T01:42:38.000Z</time>
      </trkpt>
      <trkpt lat="49.57486" lon="5.71868">
        <ele>306.7</ele>
        <time>1970-01-01T01:42:40.000Z</time>
      </trkpt>
      <trkpt lat="49.57487" lon="5.71874">
        <ele>306.8</ele>
        <time>1970-01-01T01:42:41.000Z</time>
      </trkpt>
      <trkpt lat="49.57491" lon="5.71885">
        <ele>307.1</ele>
        <time>1970-01-01T01:42:43.000Z</time>
      </trkpt>
      <trkpt lat="49.57494" lon="5.71893">
        <ele>307.2</ele>
        <time>1970-01-01T01:42:45.000Z</time>
      </trkpt>
      <trkpt lat="49.57496" lon="5.71899">
        <ele>307.4</ele>
        <time>1970-01-01T01:42:46.000Z</time>
      </trkpt>
      <trkpt lat="49.57499" lon="5.71908">
        <ele>307.6</ele>
        <time>1970-01-01T01:42:48.000Z</time>
      </trkpt>
      <trkpt lat="49.57501" lon="5.71917">
        <ele>307.9</ele>
        <time>1970-01-01T01:42:49.000Z</time>
      </trkpt>
      <trkpt lat="49.57503" lon="5.71923">
        <ele>308.1</ele>
        <time>1970-01-01T01:42:51.000Z</time>
      </trkpt>
      <trkpt lat="49.57505" lon="5.71929">
        <ele>308.3</ele>
        <time>1970-01-01T01:42:52.000Z</time>
      </trkpt>
      <trkpt lat="49.57508" lon="5.71938">
        <ele>308.6</ele>
        <time>1970-01-01T01:42:53.000Z</time>
      </trkpt>
      <trkpt lat="49.57511" lon="5.71946">
        <ele>308.9</ele>
        <time>1970-01-01T01:42:55.000Z</time>
      </trkpt>
      <trkpt lat="49.57514" lon="5.71952">
        <ele>309.1</ele>
        <time>1970-01-01T01:42:56.000Z</time>
      </trkpt>
      <trkpt lat="49.57517" lon="5.71959">
        <ele>309.4</ele>
        <time>1970-01-01T01:42:58.000Z</time>
      </trkpt>
      <trkpt lat="49.57519" lon="5.71964">
        <ele>309.6</ele>
        <time>1970-01-01T01:42:59.000Z</time>
      </trkpt>
      <trkpt lat="49.57522" lon="5.71971">
        <ele>309.9</ele>
        <time>1970-01-01T01:43:00.000Z</time>
      </trkpt>
      <trkpt lat="49.57525" lon="5.71979">
        <ele>310.2</ele>
        <time>1970-01-01T01:43:02.000Z</time>
      </trkpt>
      <trkpt lat="49.57528" lon="5.71987">
        <ele>310.5</ele>
        <time>1970-01-01T01:43:04.000Z</time>
      </trkpt>
      <trkpt lat="49.57531" lon="5.71993">
        <ele>310.7</ele>
        <time>1970-01-01T01:43:05.000Z</time>
      </trkpt>
      <trkpt lat="49.57534" lon="5.72">
        <ele>311</ele>
        <time>1970-01-01T01:43:07.000Z</time>
      </trkpt>
      <trkpt lat="49.57538" lon="5.72006">
        <ele>311.3</ele>
        <time>1970-01-01T01:43:08.000Z</time>
      </trkpt>
      <trkpt lat="49.57541" lon="5.72014">
        <ele>311.5</ele>
        <time>1970-01-01T01:43:10.000Z</time>
      </trkpt>
      <trkpt lat="49.57543" lon="5.72018">
        <ele>311.6</ele>
        <time>1970-01-01T01:43:11.000Z</time>
      </trkpt>
      <trkpt lat="49.57546" lon="5.72023">
        <ele>311.7</ele>
        <time>1970-01-01T01:43:12.000Z</time>
      </trkpt>
      <trkpt lat="49.57549" lon="5.72029">
        <ele>311.9</ele>
        <time>1970-01-01T01:43:13.000Z</time>
      </trkpt>
      <trkpt lat="49.57551" lon="5.72033">
        <ele>311.9</ele>
        <time>1970-01-01T01:43:14.000Z</time>
      </trkpt>
      <trkpt lat="49.57555" lon="5.72038">
        <ele>312</ele>
        <time>1970-01-01T01:43:15.000Z</time>
      </trkpt>
      <trkpt lat="49.57558" lon="5.72043">
        <ele>312.1</ele>
        <time>1970-01-01T01:43:16.000Z</time>
      </trkpt>
      <trkpt lat="49.57561" lon="5.72048">
        <ele>312.2</ele>
        <time>1970-01-01T01:43:17.000Z</time>
      </trkpt>
      <trkpt lat="49.57563" lon="5.72053">
        <ele>312.3</ele>
        <time>1970-01-01T01:43:19.000Z</time>
      </trkpt>
      <trkpt lat="49.57566" lon="5.72059">
        <ele>312.4</ele>
        <time>1970-01-01T01:43:20.000Z</time>
      </trkpt>
      <trkpt lat="49.57568" lon="5.72065">
        <ele>312.5</ele>
        <time>1970-01-01T01:43:21.000Z</time>
      </trkpt>
      <trkpt lat="49.57571" lon="5.72073">
        <ele>312.7</ele>
        <time>1970-01-01T01:43:23.000Z</time>
      </trkpt>
      <trkpt lat="49.57573" lon="5.72079">
        <ele>312.8</ele>
        <time>1970-01-01T01:43:24.000Z</time>
      </trkpt>
      <trkpt lat="49.57574" lon="5.72086">
        <ele>312.7</ele>
        <time>1970-01-01T01:43:25.000Z</time>
      </trkpt>
      <trkpt lat="49.57574" lon="5.72094">
        <ele>312.7</ele>
        <time>1970-01-01T01:43:26.000Z</time>
      </trkpt>
      <trkpt lat="49.57575" lon="5.72107">
        <ele>312.6</ele>
        <time>1970-01-01T01:43:28.000Z</time>
      </trkpt>
      <trkpt lat="49.57576" lon="5.72114">
        <ele>312.5</ele>
        <time>1970-01-01T01:43:29.000Z</time>
      </trkpt>
      <trkpt lat="49.57578" lon="5.72122">
        <ele>312.4</ele>
        <time>1970-01-01T01:43:31.000Z</time>
      </trkpt>
      <trkpt lat="49.57581" lon="5.72135">
        <ele>312.2</ele>
        <time>1970-01-01T01:43:32.000Z</time>
      </trkpt>
      <trkpt lat="49.57586" lon="5.7215">
        <ele>312</ele>
        <time>1970-01-01T01:43:34.000Z</time>
      </trkpt>
      <trkpt lat="49.5759" lon="5.72163">
        <ele>311.8</ele>
        <time>1970-01-01T01:43:36.000Z</time>
      </trkpt>
      <trkpt lat="49.57596" lon="5.72179">
        <ele>311.7</ele>
        <time>1970-01-01T01:43:38.000Z</time>
      </trkpt>
      <trkpt lat="49.57599" lon="5.72187">
        <ele>311.7</ele>
        <time>1970-01-01T01:43:39.000Z</time>
      </trkpt>
      <trkpt lat="49.57603" lon="5.72198">
        <ele>311.7</ele>
        <time>1970-01-01T01:43:41.000Z</time>
      </trkpt>
      <trkpt lat="49.57605" lon="5.72209">
        <ele>311.7</ele>
        <time>1970-01-01T01:43:42.000Z</time>
      </trkpt>
      <trkpt lat="49.57606" lon="5.72219">
        <ele>311.7</ele>
        <time>1970-01-01T01:43:43.000Z</time>
      </trkpt>
      <trkpt lat="49.57607" lon="5.72229">
        <ele>311.8</ele>
        <time>1970-01-01T01:43:44.000Z</time>
      </trkpt>
      <trkpt lat="49.57606" lon="5.7225">
        <ele>311.9</ele>
        <time>1970-01-01T01:43:46.000Z</time>
      </trkpt>
      <trkpt lat="49.57607" lon="5.72261">
        <ele>312</ele>
        <time>1970-01-01T01:43:47.000Z</time>
      </trkpt>
      <trkpt lat="49.57608" lon="5.7227">
        <ele>312.1</ele>
        <time>1970-01-01T01:43:48.000Z</time>
      </trkpt>
      <trkpt lat="49.57609" lon="5.7229">
        <ele>312.3</ele>
        <time>1970-01-01T01:43:50.000Z</time>
      </trkpt>
      <trkpt lat="49.57609" lon="5.72299">
        <ele>312.4</ele>
        <time>1970-01-01T01:43:51.000Z</time>
      </trkpt>
      <trkpt lat="49.57607" lon="5.72309">
        <ele>312.4</ele>
        <time>1970-01-01T01:43:53.000Z</time>
      </trkpt>
      <trkpt lat="49.57606" lon="5.72319">
        <ele>312.5</ele>
        <time>1970-01-01T01:43:54.000Z</time>
      </trkpt>
      <trkpt lat="49.57606" lon="5.72342">
        <ele>312.8</ele>
        <time>1970-01-01T01:43:56.000Z</time>
      </trkpt>
      <trkpt lat="49.57606" lon="5.72353">
        <ele>312.9</ele>
        <time>1970-01-01T01:43:57.000Z</time>
      </trkpt>
      <trkpt lat="49.57607" lon="5.72375">
        <ele>313.1</ele>
        <time>1970-01-01T01:43:59.000Z</time>
      </trkpt>
      <trkpt lat="49.57608" lon="5.72385">
        <ele>313.2</ele>
        <time>1970-01-01T01:44:00.000Z</time>
      </trkpt>
      <trkpt lat="49.57608" lon="5.72394">
        <ele>313.3</ele>
        <time>1970-01-01T01:44:01.000Z</time>
      </trkpt>
      <trkpt lat="49.57612" lon="5.72412">
        <ele>313.5</ele>
        <time>1970-01-01T01:44:03.000Z</time>
      </trkpt>
      <trkpt lat="49.57614" lon="5.72422">
        <ele>313.6</ele>
        <time>1970-01-01T01:44:04.000Z</time>
      </trkpt>
      <trkpt lat="49.57616" lon="5.72441">
        <ele>313.8</ele>
        <time>1970-01-01T01:44:06.000Z</time>
      </trkpt>
      <trkpt lat="49.57617" lon="5.72449">
        <ele>313.8</ele>
        <time>1970-01-01T01:44:07.000Z</time>
      </trkpt>
      <trkpt lat="49.57618" lon="5.72458">
        <ele>313.9</ele>
        <time>1970-01-01T01:44:08.000Z</time>
      </trkpt>
      <trkpt lat="49.5762" lon="5.72475">
        <ele>314</ele>
        <time>1970-01-01T01:44:10.000Z</time>
      </trkpt>
      <trkpt lat="49.57622" lon="5.72491">
        <ele>313.9</ele>
        <time>1970-01-01T01:44:12.000Z</time>
      </trkpt>
      <trkpt lat="49.57623" lon="5.72499">
        <ele>313.8</ele>
        <time>1970-01-01T01:44:13.000Z</time>
      </trkpt>
      <trkpt lat="49.57625" lon="5.72507">
        <ele>313.7</ele>
        <time>1970-01-01T01:44:14.000Z</time>
      </trkpt>
      <trkpt lat="49.57627" lon="5.72523">
        <ele>313.5</ele>
        <time>1970-01-01T01:44:16.000Z</time>
      </trkpt>
      <trkpt lat="49.57628" lon="5.72531">
        <ele>313.4</ele>
        <time>1970-01-01T01:44:17.000Z</time>
      </trkpt>
      <trkpt lat="49.57631" lon="5.72547">
        <ele>313.3</ele>
        <time>1970-01-01T01:44:19.000Z</time>
      </trkpt>
      <trkpt lat="49.57634" lon="5.72564">
        <ele>313.1</ele>
        <time>1970-01-01T01:44:21.000Z</time>
      </trkpt>
      <trkpt lat="49.57637" lon="5.72572">
        <ele>313.1</ele>
        <time>1970-01-01T01:44:22.000Z</time>
      </trkpt>
      <trkpt lat="49.57641" lon="5.72587">
        <ele>313</ele>
        <time>1970-01-01T01:44:24.000Z</time>
      </trkpt>
      <trkpt lat="49.57643" lon="5.72594">
        <ele>313</ele>
        <time>1970-01-01T01:44:25.000Z</time>
      </trkpt>
      <trkpt lat="49.57646" lon="5.72601">
        <ele>313</ele>
        <time>1970-01-01T01:44:26.000Z</time>
      </trkpt>
      <trkpt lat="49.57648" lon="5.72609">
        <ele>312.9</ele>
        <time>1970-01-01T01:44:27.000Z</time>
      </trkpt>
      <trkpt lat="49.57653" lon="5.72624">
        <ele>312.9</ele>
        <time>1970-01-01T01:44:29.000Z</time>
      </trkpt>
      <trkpt lat="49.57655" lon="5.72631">
        <ele>312.9</ele>
        <time>1970-01-01T01:44:30.000Z</time>
      </trkpt>
      <trkpt lat="49.57659" lon="5.72645">
        <ele>312.8</ele>
        <time>1970-01-01T01:44:32.000Z</time>
      </trkpt>
      <trkpt lat="49.57662" lon="5.72652">
        <ele>312.8</ele>
        <time>1970-01-01T01:44:33.000Z</time>
      </trkpt>
      <trkpt lat="49.57664" lon="5.72659">
        <ele>312.8</ele>
        <time>1970-01-01T01:44:34.000Z</time>
      </trkpt>
      <trkpt lat="49.57666" lon="5.72667">
        <ele>312.8</ele>
        <time>1970-01-01T01:44:35.000Z</time>
      </trkpt>
      <trkpt lat="49.5767" lon="5.72682">
        <ele>312.8</ele>
        <time>1970-01-01T01:44:37.000Z</time>
      </trkpt>
      <trkpt lat="49.57675" lon="5.72696">
        <ele>312.9</ele>
        <time>1970-01-01T01:44:39.000Z</time>
      </trkpt>
      <trkpt lat="49.57676" lon="5.72704">
        <ele>313</ele>
        <time>1970-01-01T01:44:40.000Z</time>
      </trkpt>
      <trkpt lat="49.57678" lon="5.72712">
        <ele>313</ele>
        <time>1970-01-01T01:44:41.000Z</time>
      </trkpt>
      <trkpt lat="49.57682" lon="5.72726">
        <ele>313.1</ele>
        <time>1970-01-01T01:44:43.000Z</time>
      </trkpt>
      <trkpt lat="49.57685" lon="5.72741">
        <ele>313.3</ele>
        <time>1970-01-01T01:44:45.000Z</time>
      </trkpt>
      <trkpt lat="49.57687" lon="5.72755">
        <ele>313.4</ele>
        <time>1970-01-01T01:44:47.000Z</time>
      </trkpt>
      <trkpt lat="49.57688" lon="5.72762">
        <ele>313.4</ele>
        <time>1970-01-01T01:44:48.000Z</time>
      </trkpt>
      <trkpt lat="49.57689" lon="5.72769">
        <ele>313.5</ele>
        <time>1970-01-01T01:44:49.000Z</time>
      </trkpt>
      <trkpt lat="49.57691" lon="5.72782">
        <ele>313.6</ele>
        <time>1970-01-01T01:44:51.000Z</time>
      </trkpt>
      <trkpt lat="49.57692" lon="5.7279">
        <ele>313.7</ele>
        <time>1970-01-01T01:44:52.000Z</time>
      </trkpt>
      <trkpt lat="49.57693" lon="5.72798">
        <ele>313.8</ele>
        <time>1970-01-01T01:44:53.000Z</time>
      </trkpt>
      <trkpt lat="49.57695" lon="5.72814">
        <ele>314.1</ele>
        <time>1970-01-01T01:44:55.000Z</time>
      </trkpt>
      <trkpt lat="49.57695" lon="5.72821">
        <ele>314.3</ele>
        <time>1970-01-01T01:44:56.000Z</time>
      </trkpt>
      <trkpt lat="49.57697" lon="5.72834">
        <ele>314.5</ele>
        <time>1970-01-01T01:44:58.000Z</time>
      </trkpt>
      <trkpt lat="49.57698" lon="5.72845">
        <ele>314.7</ele>
        <time>1970-01-01T01:45:00.000Z</time>
      </trkpt>
      <trkpt lat="49.57699" lon="5.72851">
        <ele>314.8</ele>
        <time>1970-01-01T01:45:01.000Z</time>
      </trkpt>
      <trkpt lat="49.57699" lon="5.72857">
        <ele>315</ele>
        <time>1970-01-01T01:45:02.000Z</time>
      </trkpt>
      <trkpt lat="49.57701" lon="5.72863">
        <ele>315</ele>
        <time>1970-01-01T01:45:04.000Z</time>
      </trkpt>
      <trkpt lat="49.57696" lon="5.72868">
        <ele>314.6</ele>
        <time>1970-01-01T01:45:06.000Z</time>
      </trkpt>
      <trkpt lat="49.57685" lon="5.72876">
        <ele>313.9</ele>
        <time>1970-01-01T01:45:07.000Z</time>
      </trkpt>
      <trkpt lat="49.57679" lon="5.7288">
        <ele>313.4</ele>
        <time>1970-01-01T01:45:08.000Z</time>
      </trkpt>
      <trkpt lat="49.57673" lon="5.72885">
        <ele>312.9</ele>
        <time>1970-01-01T01:45:09.000Z</time>
      </trkpt>
      <trkpt lat="49.57663" lon="5.72893">
        <ele>312.3</ele>
        <time>1970-01-01T01:45:11.000Z</time>
      </trkpt>
      <trkpt lat="49.57653" lon="5.72902">
        <ele>311.8</ele>
        <time>1970-01-01T01:45:13.000Z</time>
      </trkpt>
      <trkpt lat="49.57644" lon="5.72913">
        <ele>311.1</ele>
        <time>1970-01-01T01:45:15.000Z</time>
      </trkpt>
      <trkpt lat="49.57639" lon="5.7292">
        <ele>310.6</ele>
        <time>1970-01-01T01:45:16.000Z</time>
      </trkpt>
      <trkpt lat="49.57628" lon="5.72934">
        <ele>309.7</ele>
        <time>1970-01-01T01:45:18.000Z</time>
      </trkpt>
      <trkpt lat="49.57623" lon="5.72943">
        <ele>309.1</ele>
        <time>1970-01-01T01:45:19.000Z</time>
      </trkpt>
      <trkpt lat="49.57611" lon="5.7296">
        <ele>307.7</ele>
        <time>1970-01-01T01:45:21.000Z</time>
      </trkpt>
      <trkpt lat="49.57597" lon="5.72975">
        <ele>306.3</ele>
        <time>1970-01-01T01:45:23.000Z</time>
      </trkpt>
      <trkpt lat="49.5759" lon="5.72983">
        <ele>305.7</ele>
        <time>1970-01-01T01:45:24.000Z</time>
      </trkpt>
      <trkpt lat="49.57574" lon="5.72996">
        <ele>304.5</ele>
        <time>1970-01-01T01:45:26.000Z</time>
      </trkpt>
      <trkpt lat="49.57568" lon="5.73002">
        <ele>303.9</ele>
        <time>1970-01-01T01:45:27.000Z</time>
      </trkpt>
      <trkpt lat="49.57563" lon="5.73007">
        <ele>303.3</ele>
        <time>1970-01-01T01:45:28.000Z</time>
      </trkpt>
      <trkpt lat="49.57552" lon="5.73014">
        <ele>302.3</ele>
        <time>1970-01-01T01:45:30.000Z</time>
      </trkpt>
      <trkpt lat="49.57548" lon="5.73016">
        <ele>301.9</ele>
        <time>1970-01-01T01:45:31.000Z</time>
      </trkpt>
      <trkpt lat="49.57543" lon="5.73019">
        <ele>301.5</ele>
        <time>1970-01-01T01:45:33.000Z</time>
      </trkpt>
      <trkpt lat="49.57539" lon="5.73022">
        <ele>301</ele>
        <time>1970-01-01T01:45:34.000Z</time>
      </trkpt>
      <trkpt lat="49.57531" lon="5.73027">
        <ele>300.1</ele>
        <time>1970-01-01T01:45:36.000Z</time>
      </trkpt>
      <trkpt lat="49.57526" lon="5.7303">
        <ele>299.3</ele>
        <time>1970-01-01T01:45:37.000Z</time>
      </trkpt>
      <trkpt lat="49.57521" lon="5.73034">
        <ele>298.5</ele>
        <time>1970-01-01T01:45:38.000Z</time>
      </trkpt>
      <trkpt lat="49.57509" lon="5.73045">
        <ele>296.6</ele>
        <time>1970-01-01T01:45:40.000Z</time>
      </trkpt>
      <trkpt lat="49.57496" lon="5.73056">
        <ele>294.9</ele>
        <time>1970-01-01T01:45:42.000Z</time>
      </trkpt>
      <trkpt lat="49.57481" lon="5.73068">
        <ele>293</ele>
        <time>1970-01-01T01:45:44.000Z</time>
      </trkpt>
      <trkpt lat="49.57465" lon="5.7308">
        <ele>291</ele>
        <time>1970-01-01T01:45:46.000Z</time>
      </trkpt>
      <trkpt lat="49.57448" lon="5.73093">
        <ele>289.3</ele>
        <time>1970-01-01T01:45:48.000Z</time>
      </trkpt>
      <trkpt lat="49.57432" lon="5.73107">
        <ele>287.6</ele>
        <time>1970-01-01T01:45:50.000Z</time>
      </trkpt>
      <trkpt lat="49.57419" lon="5.73112">
        <ele>286.8</ele>
        <time>1970-01-01T01:45:52.000Z</time>
      </trkpt>
      <trkpt lat="49.57412" lon="5.73111">
        <ele>286.5</ele>
        <time>1970-01-01T01:45:53.000Z</time>
      </trkpt>
      <trkpt lat="49.574" lon="5.73101">
        <ele>286.1</ele>
        <time>1970-01-01T01:45:55.000Z</time>
      </trkpt>
      <trkpt lat="49.57389" lon="5.73089">
        <ele>286</ele>
        <time>1970-01-01T01:45:57.000Z</time>
      </trkpt>
      <trkpt lat="49.57379" lon="5.73078">
        <ele>285.9</ele>
        <time>1970-01-01T01:45:59.000Z</time>
      </trkpt>
      <trkpt lat="49.57373" lon="5.73072">
        <ele>285.7</ele>
        <time>1970-01-01T01:46:00.000Z</time>
      </trkpt>
      <trkpt lat="49.57362" lon="5.7306">
        <ele>285.4</ele>
        <time>1970-01-01T01:46:02.000Z</time>
      </trkpt>
      <trkpt lat="49.57357" lon="5.73054">
        <ele>285.2</ele>
        <time>1970-01-01T01:46:03.000Z</time>
      </trkpt>
      <trkpt lat="49.57346" lon="5.73042">
        <ele>284.9</ele>
        <time>1970-01-01T01:46:05.000Z</time>
      </trkpt>
      <trkpt lat="49.5734" lon="5.73046">
        <ele>284.7</ele>
        <time>1970-01-01T01:46:07.000Z</time>
      </trkpt>
      <trkpt lat="49.57334" lon="5.73058">
        <ele>284.2</ele>
        <time>1970-01-01T01:46:09.000Z</time>
      </trkpt>
      <trkpt lat="49.5733" lon="5.73066">
        <ele>283.8</ele>
        <time>1970-01-01T01:46:10.000Z</time>
      </trkpt>
      <trkpt lat="49.5732" lon="5.73081">
        <ele>282.7</ele>
        <time>1970-01-01T01:46:12.000Z</time>
      </trkpt>
      <trkpt lat="49.5731" lon="5.73097">
        <ele>281.2</ele>
        <time>1970-01-01T01:46:14.000Z</time>
      </trkpt>
      <trkpt lat="49.57304" lon="5.73102">
        <ele>280.6</ele>
        <time>1970-01-01T01:46:15.000Z</time>
      </trkpt>
      <trkpt lat="49.57298" lon="5.73102">
        <ele>280.1</ele>
        <time>1970-01-01T01:46:16.000Z</time>
      </trkpt>
      <trkpt lat="49.57285" lon="5.7309">
        <ele>279.1</ele>
        <time>1970-01-01T01:46:18.000Z</time>
      </trkpt>
      <trkpt lat="49.5728" lon="5.73082">
        <ele>278.6</ele>
        <time>1970-01-01T01:46:19.000Z</time>
      </trkpt>
      <trkpt lat="49.57274" lon="5.73075">
        <ele>278.2</ele>
        <time>1970-01-01T01:46:20.000Z</time>
      </trkpt>
      <trkpt lat="49.57262" lon="5.7306">
        <ele>278</ele>
        <time>1970-01-01T01:46:22.000Z</time>
      </trkpt>
      <trkpt lat="49.57257" lon="5.73052">
        <ele>277.8</ele>
        <time>1970-01-01T01:46:23.000Z</time>
      </trkpt>
      <trkpt lat="49.57246" lon="5.73038">
        <ele>277.2</ele>
        <time>1970-01-01T01:46:25.000Z</time>
      </trkpt>
      <trkpt lat="49.57236" lon="5.73022">
        <ele>276.7</ele>
        <time>1970-01-01T01:46:27.000Z</time>
      </trkpt>
      <trkpt lat="49.57227" lon="5.73005">
        <ele>276.4</ele>
        <time>1970-01-01T01:46:29.000Z</time>
      </trkpt>
      <trkpt lat="49.57218" lon="5.72988">
        <ele>275.9</ele>
        <time>1970-01-01T01:46:31.000Z</time>
      </trkpt>
      <trkpt lat="49.57214" lon="5.72979">
        <ele>275.5</ele>
        <time>1970-01-01T01:46:32.000Z</time>
      </trkpt>
      <trkpt lat="49.57207" lon="5.72959">
        <ele>274.6</ele>
        <time>1970-01-01T01:46:34.000Z</time>
      </trkpt>
      <trkpt lat="49.57204" lon="5.72948">
        <ele>274.2</ele>
        <time>1970-01-01T01:46:35.000Z</time>
      </trkpt>
      <trkpt lat="49.57198" lon="5.72925">
        <ele>273.1</ele>
        <time>1970-01-01T01:46:37.000Z</time>
      </trkpt>
      <trkpt lat="49.57195" lon="5.72913">
        <ele>272.4</ele>
        <time>1970-01-01T01:46:38.000Z</time>
      </trkpt>
      <trkpt lat="49.5719" lon="5.72888">
        <ele>271.2</ele>
        <time>1970-01-01T01:46:40.000Z</time>
      </trkpt>
      <trkpt lat="49.57188" lon="5.72875">
        <ele>270.8</ele>
        <time>1970-01-01T01:46:41.000Z</time>
      </trkpt>
      <trkpt lat="49.57187" lon="5.72862">
        <ele>270.2</ele>
        <time>1970-01-01T01:46:42.000Z</time>
      </trkpt>
      <trkpt lat="49.57184" lon="5.72835">
        <ele>269.2</ele>
        <time>1970-01-01T01:46:44.000Z</time>
      </trkpt>
      <trkpt lat="49.57182" lon="5.72822">
        <ele>268.9</ele>
        <time>1970-01-01T01:46:45.000Z</time>
      </trkpt>
      <trkpt lat="49.57179" lon="5.72796">
        <ele>268.4</ele>
        <time>1970-01-01T01:46:47.000Z</time>
      </trkpt>
      <trkpt lat="49.57174" lon="5.72771">
        <ele>267.9</ele>
        <time>1970-01-01T01:46:49.000Z</time>
      </trkpt>
      <trkpt lat="49.57169" lon="5.72748">
        <ele>267.5</ele>
        <time>1970-01-01T01:46:51.000Z</time>
      </trkpt>
      <trkpt lat="49.57166" lon="5.72737">
        <ele>267.3</ele>
        <time>1970-01-01T01:46:52.000Z</time>
      </trkpt>
      <trkpt lat="49.57161" lon="5.72715">
        <ele>267.2</ele>
        <time>1970-01-01T01:46:54.000Z</time>
      </trkpt>
      <trkpt lat="49.57158" lon="5.72705">
        <ele>267.3</ele>
        <time>1970-01-01T01:46:55.000Z</time>
      </trkpt>
      <trkpt lat="49.57152" lon="5.72686">
        <ele>267.5</ele>
        <time>1970-01-01T01:46:57.000Z</time>
      </trkpt>
      <trkpt lat="49.57148" lon="5.72668">
        <ele>267.7</ele>
        <time>1970-01-01T01:46:59.000Z</time>
      </trkpt>
      <trkpt lat="49.57146" lon="5.72659">
        <ele>267.7</ele>
        <time>1970-01-01T01:47:00.000Z</time>
      </trkpt>
      <trkpt lat="49.57142" lon="5.7264">
        <ele>267.9</ele>
        <time>1970-01-01T01:47:02.000Z</time>
      </trkpt>
      <trkpt lat="49.5714" lon="5.7263">
        <ele>267.9</ele>
        <time>1970-01-01T01:47:03.000Z</time>
      </trkpt>
      <trkpt lat="49.57138" lon="5.72621">
        <ele>267.9</ele>
        <time>1970-01-01T01:47:04.000Z</time>
      </trkpt>
      <trkpt lat="49.57133" lon="5.72601">
        <ele>267.9</ele>
        <time>1970-01-01T01:47:06.000Z</time>
      </trkpt>
      <trkpt lat="49.57129" lon="5.72579">
        <ele>267.4</ele>
        <time>1970-01-01T01:47:08.000Z</time>
      </trkpt>
      <trkpt lat="49.57124" lon="5.72557">
        <ele>266.6</ele>
        <time>1970-01-01T01:47:10.000Z</time>
      </trkpt>
      <trkpt lat="49.57121" lon="5.72546">
        <ele>266.2</ele>
        <time>1970-01-01T01:47:11.000Z</time>
      </trkpt>
      <trkpt lat="49.57117" lon="5.72523">
        <ele>265.8</ele>
        <time>1970-01-01T01:47:13.000Z</time>
      </trkpt>
      <trkpt lat="49.57112" lon="5.72502">
        <ele>265.4</ele>
        <time>1970-01-01T01:47:15.000Z</time>
      </trkpt>
      <trkpt lat="49.57109" lon="5.72491">
        <ele>265.3</ele>
        <time>1970-01-01T01:47:16.000Z</time>
      </trkpt>
      <trkpt lat="49.57103" lon="5.72469">
        <ele>265.1</ele>
        <time>1970-01-01T01:47:18.000Z</time>
      </trkpt>
      <trkpt lat="49.57099" lon="5.72459">
        <ele>264.9</ele>
        <time>1970-01-01T01:47:19.000Z</time>
      </trkpt>
      <trkpt lat="49.57093" lon="5.7244">
        <ele>264.6</ele>
        <time>1970-01-01T01:47:21.000Z</time>
      </trkpt>
      <trkpt lat="49.57086" lon="5.72422">
        <ele>264.3</ele>
        <time>1970-01-01T01:47:23.000Z</time>
      </trkpt>
      <trkpt lat="49.5708" lon="5.72406">
        <ele>263.9</ele>
        <time>1970-01-01T01:47:25.000Z</time>
      </trkpt>
      <trkpt lat="49.57071" lon="5.724">
        <ele>263.3</ele>
        <time>1970-01-01T01:47:27.000Z</time>
      </trkpt>
      <trkpt lat="49.57066" lon="5.724">
        <ele>262.9</ele>
        <time>1970-01-01T01:47:28.000Z</time>
      </trkpt>
      <trkpt lat="49.5706" lon="5.724">
        <ele>262.5</ele>
        <time>1970-01-01T01:47:29.000Z</time>
      </trkpt>
      <trkpt lat="49.57046" lon="5.72405">
        <ele>261.5</ele>
        <time>1970-01-01T01:47:31.000Z</time>
      </trkpt>
      <trkpt lat="49.57039" lon="5.72411">
        <ele>260.9</ele>
        <time>1970-01-01T01:47:32.000Z</time>
      </trkpt>
      <trkpt lat="49.57024" lon="5.7242">
        <ele>259.9</ele>
        <time>1970-01-01T01:47:34.000Z</time>
      </trkpt>
      <trkpt lat="49.57011" lon="5.7243">
        <ele>259.5</ele>
        <time>1970-01-01T01:47:36.000Z</time>
      </trkpt>
      <trkpt lat="49.56997" lon="5.72439">
        <ele>259.1</ele>
        <time>1970-01-01T01:47:38.000Z</time>
      </trkpt>
      <trkpt lat="49.5699" lon="5.72441">
        <ele>258.9</ele>
        <time>1970-01-01T01:47:39.000Z</time>
      </trkpt>
      <trkpt lat="49.56975" lon="5.72442">
        <ele>258.5</ele>
        <time>1970-01-01T01:47:41.000Z</time>
      </trkpt>
      <trkpt lat="49.56961" lon="5.72441">
        <ele>258.2</ele>
        <time>1970-01-01T01:47:43.000Z</time>
      </trkpt>
      <trkpt lat="49.56954" lon="5.72442">
        <ele>258</ele>
        <time>1970-01-01T01:47:44.000Z</time>
      </trkpt>
      <trkpt lat="49.56948" lon="5.72443">
        <ele>257.8</ele>
        <time>1970-01-01T01:47:45.000Z</time>
      </trkpt>
      <trkpt lat="49.56941" lon="5.72445">
        <ele>257.6</ele>
        <time>1970-01-01T01:47:46.000Z</time>
      </trkpt>
      <trkpt lat="49.56934" lon="5.72447">
        <ele>257.4</ele>
        <time>1970-01-01T01:47:47.000Z</time>
      </trkpt>
      <trkpt lat="49.56927" lon="5.72448">
        <ele>257.4</ele>
        <time>1970-01-01T01:47:48.000Z</time>
      </trkpt>
      <trkpt lat="49.56914" lon="5.7245">
        <ele>257.3</ele>
        <time>1970-01-01T01:47:50.000Z</time>
      </trkpt>
      <trkpt lat="49.56907" lon="5.7245">
        <ele>257.2</ele>
        <time>1970-01-01T01:47:51.000Z</time>
      </trkpt>
      <trkpt lat="49.569" lon="5.72451">
        <ele>257</ele>
        <time>1970-01-01T01:47:52.000Z</time>
      </trkpt>
      <trkpt lat="49.56887" lon="5.72448">
        <ele>256.7</ele>
        <time>1970-01-01T01:47:54.000Z</time>
      </trkpt>
      <trkpt lat="49.56881" lon="5.72446">
        <ele>256.6</ele>
        <time>1970-01-01T01:47:55.000Z</time>
      </trkpt>
      <trkpt lat="49.56875" lon="5.72443">
        <ele>256.5</ele>
        <time>1970-01-01T01:47:56.000Z</time>
      </trkpt>
      <trkpt lat="49.56864" lon="5.72436">
        <ele>256.4</ele>
        <time>1970-01-01T01:47:58.000Z</time>
      </trkpt>
      <trkpt lat="49.56853" lon="5.7243">
        <ele>256.3</ele>
        <time>1970-01-01T01:48:00.000Z</time>
      </trkpt>
      <trkpt lat="49.56847" lon="5.72427">
        <ele>256.1</ele>
        <time>1970-01-01T01:48:01.000Z</time>
      </trkpt>
      <trkpt lat="49.56841" lon="5.72423">
        <ele>256</ele>
        <time>1970-01-01T01:48:02.000Z</time>
      </trkpt>
      <trkpt lat="49.56836" lon="5.72418">
        <ele>255.9</ele>
        <time>1970-01-01T01:48:03.000Z</time>
      </trkpt>
      <trkpt lat="49.5683" lon="5.72413">
        <ele>255.9</ele>
        <time>1970-01-01T01:48:04.000Z</time>
      </trkpt>
      <trkpt lat="49.56819" lon="5.72403">
        <ele>255.8</ele>
        <time>1970-01-01T01:48:06.000Z</time>
      </trkpt>
      <trkpt lat="49.56814" lon="5.72398">
        <ele>255.7</ele>
        <time>1970-01-01T01:48:07.000Z</time>
      </trkpt>
      <trkpt lat="49.56808" lon="5.72394">
        <ele>255.7</ele>
        <time>1970-01-01T01:48:08.000Z</time>
      </trkpt>
      <trkpt lat="49.56796" lon="5.72385">
        <ele>255.6</ele>
        <time>1970-01-01T01:48:10.000Z</time>
      </trkpt>
      <trkpt lat="49.56784" lon="5.72376">
        <ele>255.5</ele>
        <time>1970-01-01T01:48:12.000Z</time>
      </trkpt>
      <trkpt lat="49.56773" lon="5.72368">
        <ele>255.4</ele>
        <time>1970-01-01T01:48:14.000Z</time>
      </trkpt>
      <trkpt lat="49.56761" lon="5.72363">
        <ele>255.3</ele>
        <time>1970-01-01T01:48:16.000Z</time>
      </trkpt>
      <trkpt lat="49.56755" lon="5.72361">
        <ele>255.4</ele>
        <time>1970-01-01T01:48:17.000Z</time>
      </trkpt>
      <trkpt lat="49.56743" lon="5.72357">
        <ele>255.3</ele>
        <time>1970-01-01T01:48:19.000Z</time>
      </trkpt>
      <trkpt lat="49.56737" lon="5.72356">
        <ele>255.1</ele>
        <time>1970-01-01T01:48:20.000Z</time>
      </trkpt>
      <trkpt lat="49.56731" lon="5.72357">
        <ele>255</ele>
        <time>1970-01-01T01:48:21.000Z</time>
      </trkpt>
      <trkpt lat="49.56719" lon="5.72364">
        <ele>254.7</ele>
        <time>1970-01-01T01:48:23.000Z</time>
      </trkpt>
      <trkpt lat="49.56709" lon="5.72375">
        <ele>254.4</ele>
        <time>1970-01-01T01:48:25.000Z</time>
      </trkpt>
      <trkpt lat="49.56705" lon="5.72381">
        <ele>254.3</ele>
        <time>1970-01-01T01:48:26.000Z</time>
      </trkpt>
      <trkpt lat="49.56696" lon="5.72393">
        <ele>254</ele>
        <time>1970-01-01T01:48:28.000Z</time>
      </trkpt>
      <trkpt lat="49.56687" lon="5.72405">
        <ele>253.6</ele>
        <time>1970-01-01T01:48:30.000Z</time>
      </trkpt>
      <trkpt lat="49.56677" lon="5.72416">
        <ele>253.2</ele>
        <time>1970-01-01T01:48:32.000Z</time>
      </trkpt>
      <trkpt lat="49.56668" lon="5.72428">
        <ele>252.9</ele>
        <time>1970-01-01T01:48:34.000Z</time>
      </trkpt>
      <trkpt lat="49.56663" lon="5.72433">
        <ele>252.6</ele>
        <time>1970-01-01T01:48:35.000Z</time>
      </trkpt>
      <trkpt lat="49.56659" lon="5.72439">
        <ele>252.2</ele>
        <time>1970-01-01T01:48:36.000Z</time>
      </trkpt>
      <trkpt lat="49.5665" lon="5.7245">
        <ele>251.8</ele>
        <time>1970-01-01T01:48:38.000Z</time>
      </trkpt>
      <trkpt lat="49.5664" lon="5.72462">
        <ele>251.4</ele>
        <time>1970-01-01T01:48:40.000Z</time>
      </trkpt>
      <trkpt lat="49.56635" lon="5.72467">
        <ele>251.2</ele>
        <time>1970-01-01T01:48:41.000Z</time>
      </trkpt>
      <trkpt lat="49.56631" lon="5.72473">
        <ele>251</ele>
        <time>1970-01-01T01:48:42.000Z</time>
      </trkpt>
      <trkpt lat="49.56622" lon="5.72485">
        <ele>250.8</ele>
        <time>1970-01-01T01:48:44.000Z</time>
      </trkpt>
      <trkpt lat="49.56613" lon="5.72496">
        <ele>250.8</ele>
        <time>1970-01-01T01:48:46.000Z</time>
      </trkpt>
      <trkpt lat="49.56604" lon="5.72508">
        <ele>250.7</ele>
        <time>1970-01-01T01:48:48.000Z</time>
      </trkpt>
      <trkpt lat="49.56594" lon="5.72521">
        <ele>250.6</ele>
        <time>1970-01-01T01:48:50.000Z</time>
      </trkpt>
      <trkpt lat="49.56584" lon="5.72532">
        <ele>250.5</ele>
        <time>1970-01-01T01:48:52.000Z</time>
      </trkpt>
      <trkpt lat="49.5658" lon="5.72539">
        <ele>249.8</ele>
      </trkpt>
      <trkpt lat="49.56563" lon="5.7255">
        <ele>249.8</ele>
      </trkpt>
      <trkpt lat="49.56561" lon="5.72548">
        <ele>249.8</ele>
      </trkpt>
      <trkpt lat="49.56561" lon="5.72546">
        <ele>249.7</ele>
      </trkpt>
      <trkpt lat="49.5655" lon="5.72534">
        <ele>250.1</ele>
        <time>1970-01-01T00:03:05.000Z</time>
      </trkpt>
      <trkpt lat="49.5654" lon="5.72524">
        <ele>250</ele>
        <time>1970-01-01T00:03:03.000Z</time>
      </trkpt>
      <trkpt lat="49.5653" lon="5.72514">
        <ele>250</ele>
        <time>1970-01-01T00:03:01.000Z</time>
      </trkpt>
      <trkpt lat="49.5652" lon="5.72503">
        <ele>250</ele>
        <time>1970-01-01T00:02:59.000Z</time>
      </trkpt>
      <trkpt lat="49.56515" lon="5.72497">
        <ele>250</ele>
        <time>1970-01-01T00:02:58.000Z</time>
      </trkpt>
      <trkpt lat="49.56506" lon="5.72486">
        <ele>249.8</ele>
        <time>1970-01-01T00:02:56.000Z</time>
      </trkpt>
      <trkpt lat="49.56496" lon="5.72474">
        <ele>249.7</ele>
        <time>1970-01-01T00:02:54.000Z</time>
      </trkpt>
      <trkpt lat="49.56487" lon="5.72463">
        <ele>249.6</ele>
        <time>1970-01-01T00:02:52.000Z</time>
      </trkpt>
      <trkpt lat="49.56477" lon="5.72452">
        <ele>249.5</ele>
        <time>1970-01-01T00:02:50.000Z</time>
      </trkpt>
      <trkpt lat="49.56468" lon="5.7244">
        <ele>249.4</ele>
        <time>1970-01-01T00:02:48.000Z</time>
      </trkpt>
      <trkpt lat="49.56464" lon="5.72434">
        <ele>249.4</ele>
        <time>1970-01-01T00:02:47.000Z</time>
      </trkpt>
      <trkpt lat="49.56455" lon="5.72423">
        <ele>249.3</ele>
        <time>1970-01-01T00:02:45.000Z</time>
      </trkpt>
      <trkpt lat="49.5645" lon="5.72418">
        <ele>249.3</ele>
        <time>1970-01-01T00:02:44.000Z</time>
      </trkpt>
      <trkpt lat="49.56442" lon="5.72408">
        <ele>249.3</ele>
        <time>1970-01-01T00:02:42.000Z</time>
      </trkpt>
      <trkpt lat="49.56438" lon="5.72403">
        <ele>249.3</ele>
        <time>1970-01-01T00:02:41.000Z</time>
      </trkpt>
      <trkpt lat="49.5643" lon="5.72391">
        <ele>249.4</ele>
        <time>1970-01-01T00:02:39.000Z</time>
      </trkpt>
      <trkpt lat="49.56425" lon="5.72385">
        <ele>249.5</ele>
        <time>1970-01-01T00:02:38.000Z</time>
      </trkpt>
      <trkpt lat="49.56421" lon="5.72379">
        <ele>249.5</ele>
        <time>1970-01-01T00:02:37.000Z</time>
      </trkpt>
      <trkpt lat="49.56413" lon="5.72367">
        <ele>249.4</ele>
        <time>1970-01-01T00:02:35.000Z</time>
      </trkpt>
      <trkpt lat="49.56409" lon="5.72361">
        <ele>249.4</ele>
        <time>1970-01-01T00:02:34.000Z</time>
      </trkpt>
      <trkpt lat="49.56405" lon="5.72354">
        <ele>249.3</ele>
        <time>1970-01-01T00:02:33.000Z</time>
      </trkpt>
      <trkpt lat="49.56402" lon="5.72347">
        <ele>249.3</ele>
        <time>1970-01-01T00:02:32.000Z</time>
      </trkpt>
      <trkpt lat="49.56395" lon="5.72333">
        <ele>249.2</ele>
        <time>1970-01-01T00:02:30.000Z</time>
      </trkpt>
      <trkpt lat="49.56387" lon="5.72319">
        <ele>249.2</ele>
        <time>1970-01-01T00:02:28.000Z</time>
      </trkpt>
      <trkpt lat="49.56383" lon="5.72311">
        <ele>249.1</ele>
        <time>1970-01-01T00:02:27.000Z</time>
      </trkpt>
      <trkpt lat="49.56376" lon="5.72296">
        <ele>249.1</ele>
        <time>1970-01-01T00:02:25.000Z</time>
      </trkpt>
      <trkpt lat="49.56369" lon="5.72281">
        <ele>249.1</ele>
        <time>1970-01-01T00:02:23.000Z</time>
      </trkpt>
      <trkpt lat="49.56365" lon="5.72274">
        <ele>249.1</ele>
        <time>1970-01-01T00:02:22.000Z</time>
      </trkpt>
      <trkpt lat="49.5636" lon="5.72259">
        <ele>249.1</ele>
        <time>1970-01-01T00:02:20.000Z</time>
      </trkpt>
      <trkpt lat="49.56357" lon="5.72252">
        <ele>249.1</ele>
        <time>1970-01-01T00:02:19.000Z</time>
      </trkpt>
      <trkpt lat="49.56352" lon="5.72236">
        <ele>249.1</ele>
        <time>1970-01-01T00:02:17.000Z</time>
      </trkpt>
      <trkpt lat="49.56349" lon="5.72228">
        <ele>249.1</ele>
        <time>1970-01-01T00:02:16.000Z</time>
      </trkpt>
      <trkpt lat="49.56343" lon="5.72212">
        <ele>249.1</ele>
        <time>1970-01-01T00:02:14.000Z</time>
      </trkpt>
      <trkpt lat="49.56338" lon="5.72196">
        <ele>248.8</ele>
        <time>1970-01-01T00:02:12.000Z</time>
      </trkpt>
      <trkpt lat="49.56336" lon="5.72188">
        <ele>248.6</ele>
        <time>1970-01-01T00:02:11.000Z</time>
      </trkpt>
      <trkpt lat="49.5633" lon="5.72172">
        <ele>248.5</ele>
        <time>1970-01-01T00:02:09.000Z</time>
      </trkpt>
      <trkpt lat="49.56325" lon="5.72156">
        <ele>248.5</ele>
        <time>1970-01-01T00:02:07.000Z</time>
      </trkpt>
      <trkpt lat="49.5632" lon="5.72139">
        <ele>248.5</ele>
        <time>1970-01-01T00:02:05.000Z</time>
      </trkpt>
      <trkpt lat="49.56317" lon="5.72131">
        <ele>248.5</ele>
        <time>1970-01-01T00:02:04.000Z</time>
      </trkpt>
      <trkpt lat="49.56313" lon="5.72114">
        <ele>248.5</ele>
        <time>1970-01-01T00:02:02.000Z</time>
      </trkpt>
      <trkpt lat="49.56308" lon="5.72097">
        <ele>248.4</ele>
        <time>1970-01-01T00:02:00.000Z</time>
      </trkpt>
      <trkpt lat="49.56303" lon="5.7208">
        <ele>248.1</ele>
        <time>1970-01-01T00:01:58.000Z</time>
      </trkpt>
      <trkpt lat="49.56301" lon="5.72072">
        <ele>247.9</ele>
        <time>1970-01-01T00:01:57.000Z</time>
      </trkpt>
      <trkpt lat="49.56298" lon="5.72063">
        <ele>247.8</ele>
        <time>1970-01-01T00:01:56.000Z</time>
      </trkpt>
      <trkpt lat="49.56293" lon="5.72046">
        <ele>247.8</ele>
        <time>1970-01-01T00:01:54.000Z</time>
      </trkpt>
      <trkpt lat="49.56291" lon="5.72037">
        <ele>247.8</ele>
        <time>1970-01-01T00:01:53.000Z</time>
      </trkpt>
      <trkpt lat="49.56286" lon="5.7202">
        <ele>247.8</ele>
        <time>1970-01-01T00:01:51.000Z</time>
      </trkpt>
      <trkpt lat="49.56282" lon="5.72003">
        <ele>247.8</ele>
        <time>1970-01-01T00:01:49.000Z</time>
      </trkpt>
      <trkpt lat="49.56278" lon="5.71987">
        <ele>247.7</ele>
        <time>1970-01-01T00:01:47.000Z</time>
      </trkpt>
      <trkpt lat="49.56274" lon="5.71971">
        <ele>247.4</ele>
        <time>1970-01-01T00:01:45.000Z</time>
      </trkpt>
      <trkpt lat="49.5627" lon="5.71954">
        <ele>247.2</ele>
        <time>1970-01-01T00:01:43.000Z</time>
      </trkpt>
      <trkpt lat="49.56267" lon="5.71947">
        <ele>247.2</ele>
        <time>1970-01-01T00:01:42.000Z</time>
      </trkpt>
      <trkpt lat="49.56265" lon="5.71938">
        <ele>247.2</ele>
        <time>1970-01-01T00:01:41.000Z</time>
      </trkpt>
      <trkpt lat="49.5626" lon="5.71923">
        <ele>247.2</ele>
        <time>1970-01-01T00:01:39.000Z</time>
      </trkpt>
      <trkpt lat="49.56258" lon="5.71916">
        <ele>247.2</ele>
        <time>1970-01-01T00:01:38.000Z</time>
      </trkpt>
      <trkpt lat="49.56255" lon="5.71909">
        <ele>247.2</ele>
        <time>1970-01-01T00:01:37.000Z</time>
      </trkpt>
      <trkpt lat="49.56248" lon="5.71895">
        <ele>247.1</ele>
        <time>1970-01-01T00:01:35.000Z</time>
      </trkpt>
      <trkpt lat="49.56242" lon="5.71881">
        <ele>246.9</ele>
        <time>1970-01-01T00:01:33.000Z</time>
      </trkpt>
      <trkpt lat="49.56237" lon="5.71868">
        <ele>246.8</ele>
        <time>1970-01-01T00:01:31.000Z</time>
      </trkpt>
      <trkpt lat="49.56232" lon="5.71853">
        <ele>246.9</ele>
        <time>1970-01-01T00:01:29.000Z</time>
      </trkpt>
      <trkpt lat="49.56222" lon="5.71848">
        <ele>247.1</ele>
        <time>1970-01-01T00:01:27.000Z</time>
      </trkpt>
      <trkpt lat="49.56217" lon="5.7185">
        <ele>247.1</ele>
        <time>1970-01-01T00:01:26.000Z</time>
      </trkpt>
      <trkpt lat="49.56207" lon="5.71855">
        <ele>247</ele>
        <time>1970-01-01T00:01:24.000Z</time>
      </trkpt>
      <trkpt lat="49.56202" lon="5.71857">
        <ele>247</ele>
        <time>1970-01-01T00:01:23.000Z</time>
      </trkpt>
      <trkpt lat="49.56191" lon="5.71862">
        <ele>246.9</ele>
        <time>1970-01-01T00:01:21.000Z</time>
      </trkpt>
      <trkpt lat="49.56181" lon="5.71867">
        <ele>246.9</ele>
        <time>1970-01-01T00:01:19.000Z</time>
      </trkpt>
      <trkpt lat="49.56175" lon="5.71868">
        <ele>246.9</ele>
        <time>1970-01-01T00:01:18.000Z</time>
      </trkpt>
      <trkpt lat="49.56164" lon="5.71872">
        <ele>247</ele>
        <time>1970-01-01T00:01:16.000Z</time>
      </trkpt>
      <trkpt lat="49.56153" lon="5.71877">
        <ele>247</ele>
        <time>1970-01-01T00:01:14.000Z</time>
      </trkpt>
      <trkpt lat="49.56143" lon="5.71881">
        <ele>247.2</ele>
        <time>1970-01-01T00:01:12.000Z</time>
      </trkpt>
      <trkpt lat="49.56137" lon="5.71883">
        <ele>247.3</ele>
        <time>1970-01-01T00:01:11.000Z</time>
      </trkpt>
      <trkpt lat="49.56126" lon="5.71888">
        <ele>247.4</ele>
        <time>1970-01-01T00:01:09.000Z</time>
      </trkpt>
      <trkpt lat="49.56115" lon="5.71892">
        <ele>247.5</ele>
        <time>1970-01-01T00:01:07.000Z</time>
      </trkpt>
      <trkpt lat="49.56103" lon="5.71899">
        <ele>247.6</ele>
        <time>1970-01-01T00:01:05.000Z</time>
      </trkpt>
      <trkpt lat="49.5609" lon="5.71909">
        <ele>247.7</ele>
        <time>1970-01-01T00:01:01.000Z</time>
      </trkpt>
      <trkpt lat="49.56085" lon="5.71906">
        <ele>247.8</ele>
        <time>1970-01-01T00:00:59.000Z</time>
      </trkpt>
      <trkpt lat="49.56082" lon="5.71906">
        <ele>247.9</ele>
        <time>1970-01-01T00:00:56.000Z</time>
      </trkpt>
      <trkpt lat="49.56076" lon="5.71907">
        <ele>248.1</ele>
        <time>1970-01-01T00:00:54.000Z</time>
      </trkpt>
      <trkpt lat="49.56064" lon="5.71906">
        <ele>248.6</ele>
        <time>1970-01-01T00:00:52.000Z</time>
      </trkpt>
      <trkpt lat="49.5605" lon="5.71908">
        <ele>249.3</ele>
        <time>1970-01-01T00:00:50.000Z</time>
      </trkpt>
      <trkpt lat="49.56044" lon="5.7191">
        <ele>249.7</ele>
        <time>1970-01-01T00:00:49.000Z</time>
      </trkpt>
      <trkpt lat="49.56032" lon="5.71909">
        <ele>250.4</ele>
        <time>1970-01-01T00:00:47.000Z</time>
      </trkpt>
      <trkpt lat="49.56026" lon="5.7191">
        <ele>250.8</ele>
        <time>1970-01-01T00:00:46.000Z</time>
      </trkpt>
      <trkpt lat="49.56013" lon="5.71911">
        <ele>251.7</ele>
        <time>1970-01-01T00:00:44.000Z</time>
      </trkpt>
      <trkpt lat="49.56006" lon="5.7191">
        <ele>252.2</ele>
        <time>1970-01-01T00:00:43.000Z</time>
      </trkpt>
      <trkpt lat="49.55975" lon="5.71913">
        <ele>254.2</ele>
      </trkpt>
      <trkpt lat="49.55931" lon="5.71935">
        <ele>256</ele>
      </trkpt>
      <trkpt lat="49.55878" lon="5.71972">
        <ele>259</ele>
      </trkpt>
      <trkpt lat="49.55829" lon="5.72011">
        <ele>260.1</ele>
      </trkpt>
      <trkpt lat="49.55785" lon="5.72041">
        <ele>258.7</ele>
      </trkpt>
      <trkpt lat="49.55658" lon="5.72111">
        <ele>257.4</ele>
      </trkpt>
      <trkpt lat="49.5563" lon="5.72123">
        <ele>257.9</ele>
      </trkpt>
      <trkpt lat="49.55591" lon="5.72138">
        <ele>258.4</ele>
      </trkpt>
      <trkpt lat="49.55459" lon="5.72255">
        <ele>266.1</ele>
      </trkpt>
      <trkpt lat="49.55418" lon="5.72294">
        <ele>267.4</ele>
        <time>1970-01-01T00:00:00.000Z</time>
      </trkpt>
      <trkpt lat="49.55418" lon="5.72294">
        <ele>267.4</ele>
        <time>1970-01-01T00:00:00.000Z</time>
      </trkpt>
      <trkpt lat="49.55418" lon="5.72294">
        <ele>267.4</ele>
        <time>1970-01-01T00:00:01.000Z</time>
      </trkpt>
      <trkpt lat="49.55415" lon="5.72296">
        <ele>267.6</ele>
        <time>1970-01-01T00:00:07.000Z</time>
      </trkpt>
      <trkpt lat="49.55411" lon="5.723">
        <ele>267.8</ele>
        <time>1970-01-01T00:00:09.000Z</time>
      </trkpt>
      <trkpt lat="49.55407" lon="5.72304">
        <ele>268</ele>
        <time>1970-01-01T00:00:11.000Z</time>
      </trkpt>
      <trkpt lat="49.55403" lon="5.72308">
        <ele>268</ele>
        <time>1970-01-01T00:00:13.000Z</time>
      </trkpt>
      <trkpt lat="49.55393" lon="5.72319">
        <ele>268.4</ele>
        <time>1970-01-01T00:00:18.000Z</time>
      </trkpt>
      <trkpt lat="49.55391" lon="5.72321">
        <ele>268.6</ele>
        <time>1970-01-01T00:00:19.000Z</time>
      </trkpt>
      <trkpt lat="49.55391" lon="5.72321">
        <ele>268.8</ele>
        <time>1970-01-01T00:00:20.000Z</time>
      </trkpt>
      <trkpt lat="49.55387" lon="5.72322">
        <ele>269</ele>
        <time>1970-01-01T00:00:21.000Z</time>
      </trkpt>
      <trkpt lat="49.55385" lon="5.72323">
        <ele>269.4</ele>
        <time>1970-01-01T00:00:22.000Z</time>
      </trkpt>
      <trkpt lat="49.55383" lon="5.72324">
        <ele>269.6</ele>
        <time>1970-01-01T00:00:23.000Z</time>
      </trkpt>
      <trkpt lat="49.55381" lon="5.72324">
        <ele>270.2</ele>
        <time>1970-01-01T00:00:24.000Z</time>
      </trkpt>
      <trkpt lat="49.55377" lon="5.72323">
        <ele>270.6</ele>
        <time>1970-01-01T00:00:26.000Z</time>
      </trkpt>
      <trkpt lat="49.55375" lon="5.72322">
        <ele>270.6</ele>
        <time>1970-01-01T00:00:27.000Z</time>
      </trkpt>
      <trkpt lat="49.55372" lon="5.72318">
        <ele>271.2</ele>
        <time>1970-01-01T00:00:29.000Z</time>
      </trkpt>
      <trkpt lat="49.5537" lon="5.72316">
        <ele>271.2</ele>
        <time>1970-01-01T00:00:30.000Z</time>
      </trkpt>
      <trkpt lat="49.55368" lon="5.72314">
        <ele>271.4</ele>
        <time>1970-01-01T00:00:31.000Z</time>
      </trkpt>
      <trkpt lat="49.55367" lon="5.7231">
        <ele>271.8</ele>
        <time>1970-01-01T00:00:32.000Z</time>
      </trkpt>
      <trkpt lat="49.55366" lon="5.72307">
        <ele>272</ele>
        <time>1970-01-01T00:00:33.000Z</time>
      </trkpt>
      <trkpt lat="49.55365" lon="5.72303">
        <ele>272.2</ele>
        <time>1970-01-01T00:00:34.000Z</time>
      </trkpt>
      <trkpt lat="49.55364" lon="5.72299">
        <ele>272.4</ele>
        <time>1970-01-01T00:00:35.000Z</time>
      </trkpt>
      <trkpt lat="49.55363" lon="5.72296">
        <ele>272.4</ele>
        <time>1970-01-01T00:00:36.000Z</time>
      </trkpt>
      <trkpt lat="49.55363" lon="5.72292">
        <ele>272.4</ele>
        <time>1970-01-01T00:00:37.000Z</time>
      </trkpt>
      <trkpt lat="49.55362" lon="5.72288">
        <ele>272.8</ele>
        <time>1970-01-01T00:00:38.000Z</time>
      </trkpt>
      <trkpt lat="49.55361" lon="5.72284">
        <ele>272.8</ele>
        <time>1970-01-01T00:00:39.000Z</time>
      </trkpt>
      <trkpt lat="49.55361" lon="5.72284">
        <ele>272.8</ele>
        <time>1970-01-01T00:00:40.000Z</time>
      </trkpt>
      <trkpt lat="49.55359" lon="5.72276">
        <ele>272.8</ele>
        <time>1970-01-01T00:00:41.000Z</time>
      </trkpt>
      <trkpt lat="49.55358" lon="5.72273">
        <ele>272.6</ele>
        <time>1970-01-01T00:00:42.000Z</time>
      </trkpt>
      <trkpt lat="49.55357" lon="5.72269">
        <ele>272.6</ele>
        <time>1970-01-01T00:00:43.000Z</time>
      </trkpt>
      <trkpt lat="49.55356" lon="5.72266">
        <ele>272.6</ele>
        <time>1970-01-01T00:00:44.000Z</time>
      </trkpt>
      <trkpt lat="49.55355" lon="5.72262">
        <ele>272.6</ele>
        <time>1970-01-01T00:00:45.000Z</time>
      </trkpt>
      <trkpt lat="49.55354" lon="5.72259">
        <ele>272.6</ele>
        <time>1970-01-01T00:00:46.000Z</time>
      </trkpt>
      <trkpt lat="49.55354" lon="5.72256">
        <ele>272.4</ele>
        <time>1970-01-01T00:00:47.000Z</time>
      </trkpt>
      <trkpt lat="49.55353" lon="5.72252">
        <ele>272.4</ele>
        <time>1970-01-01T00:00:48.000Z</time>
      </trkpt>
      <trkpt lat="49.55352" lon="5.72249">
        <ele>272.4</ele>
        <time>1970-01-01T00:00:49.000Z</time>
      </trkpt>
      <trkpt lat="49.55351" lon="5.72246">
        <ele>272.4</ele>
        <time>1970-01-01T00:00:50.000Z</time>
      </trkpt>
      <trkpt lat="49.5535" lon="5.72243">
        <ele>272.6</ele>
        <time>1970-01-01T00:00:51.000Z</time>
      </trkpt>
      <trkpt lat="49.55349" lon="5.7224">
        <ele>272.6</ele>
        <time>1970-01-01T00:00:52.000Z</time>
      </trkpt>
      <trkpt lat="49.55348" lon="5.72238">
        <ele>272.6</ele>
        <time>1970-01-01T00:00:53.000Z</time>
      </trkpt>
      <trkpt lat="49.55347" lon="5.72235">
        <ele>272.6</ele>
        <time>1970-01-01T00:00:54.000Z</time>
      </trkpt>
      <trkpt lat="49.55342" lon="5.72221">
        <ele>272</ele>
        <time>1970-01-01T00:00:59.000Z</time>
      </trkpt>
      <trkpt lat="49.55329" lon="5.72196">
        <ele>272.2</ele>
        <time>1970-01-01T00:01:06.000Z</time>
      </trkpt>
      <trkpt lat="49.55314" lon="5.72169">
        <ele>273</ele>
        <time>1970-01-01T00:01:13.000Z</time>
      </trkpt>
      <trkpt lat="49.55311" lon="5.72161">
        <ele>273.2</ele>
        <time>1970-01-01T00:01:15.000Z</time>
      </trkpt>
      <trkpt lat="49.55308" lon="5.72143">
        <ele>273.6</ele>
        <time>1970-01-01T00:01:19.000Z</time>
      </trkpt>
      <trkpt lat="49.55309" lon="5.72113">
        <ele>273.8</ele>
        <time>1970-01-01T00:01:23.000Z</time>
      </trkpt>
      <trkpt lat="49.5531" lon="5.721">
        <ele>273.8</ele>
        <time>1970-01-01T00:01:25.000Z</time>
      </trkpt>
      <trkpt lat="49.55311" lon="5.72094">
        <ele>273.8</ele>
        <time>1970-01-01T00:01:26.000Z</time>
      </trkpt>
      <trkpt lat="49.55313" lon="5.72076">
        <ele>273.8</ele>
        <time>1970-01-01T00:01:29.000Z</time>
      </trkpt>
      <trkpt lat="49.55313" lon="5.72069">
        <ele>274</ele>
        <time>1970-01-01T00:01:30.000Z</time>
      </trkpt>
      <trkpt lat="49.55315" lon="5.72052">
        <ele>273.8</ele>
        <time>1970-01-01T00:01:34.000Z</time>
      </trkpt>
      <trkpt lat="49.55316" lon="5.72041">
        <ele>273.8</ele>
        <time>1970-01-01T00:01:35.000Z</time>
      </trkpt>
      <trkpt lat="49.55317" lon="5.72034">
        <ele>274</ele>
        <time>1970-01-01T00:01:36.000Z</time>
      </trkpt>
      <trkpt lat="49.55318" lon="5.72029">
        <ele>274</ele>
        <time>1970-01-01T00:01:37.000Z</time>
      </trkpt>
      <trkpt lat="49.55318" lon="5.72024">
        <ele>274</ele>
        <time>1970-01-01T00:01:38.000Z</time>
      </trkpt>
      <trkpt lat="49.55318" lon="5.72024">
        <ele>274</ele>
        <time>1970-01-01T00:01:39.000Z</time>
      </trkpt>
      <trkpt lat="49.5532" lon="5.72006">
        <ele>274.4</ele>
        <time>1970-01-01T00:01:41.000Z</time>
      </trkpt>
      <trkpt lat="49.55322" lon="5.71984">
        <ele>274.8</ele>
        <time>1970-01-01T00:01:45.000Z</time>
      </trkpt>
      <trkpt lat="49.55323" lon="5.71978">
        <ele>274.8</ele>
        <time>1970-01-01T00:01:46.000Z</time>
      </trkpt>
      <trkpt lat="49.55321" lon="5.71951">
        <ele>275.2</ele>
        <time>1970-01-01T00:01:50.000Z</time>
      </trkpt>
      <trkpt lat="49.55319" lon="5.71944">
        <ele>275.2</ele>
        <time>1970-01-01T00:01:51.000Z</time>
      </trkpt>
      <trkpt lat="49.55316" lon="5.71939">
        <ele>275.2</ele>
        <time>1970-01-01T00:01:52.000Z</time>
      </trkpt>
      <trkpt lat="49.55313" lon="5.71935">
        <ele>275</ele>
        <time>1970-01-01T00:01:53.000Z</time>
      </trkpt>
      <trkpt lat="49.5531" lon="5.71932">
        <ele>275</ele>
        <time>1970-01-01T00:01:54.000Z</time>
      </trkpt>
      <trkpt lat="49.55307" lon="5.7193">
        <ele>275</ele>
        <time>1970-01-01T00:01:55.000Z</time>
      </trkpt>
      <trkpt lat="49.55305" lon="5.7193">
        <ele>275</ele>
        <time>1970-01-01T00:01:56.000Z</time>
      </trkpt>
      <trkpt lat="49.55302" lon="5.71929">
        <ele>275</ele>
        <time>1970-01-01T00:01:57.000Z</time>
      </trkpt>
      <trkpt lat="49.55299" lon="5.71929">
        <ele>275.2</ele>
        <time>1970-01-01T00:01:58.000Z</time>
      </trkpt>
      <trkpt lat="49.55299" lon="5.71929">
        <ele>275.2</ele>
        <time>1970-01-01T00:01:59.000Z</time>
      </trkpt>
      <trkpt lat="49.55294" lon="5.71928">
        <ele>275.2</ele>
        <time>1970-01-01T00:02:00.000Z</time>
      </trkpt>
      <trkpt lat="49.55292" lon="5.71928">
        <ele>275.2</ele>
        <time>1970-01-01T00:02:01.000Z</time>
      </trkpt>
      <trkpt lat="49.5529" lon="5.71928">
        <ele>275.4</ele>
        <time>1970-01-01T00:02:02.000Z</time>
      </trkpt>
      <trkpt lat="49.55288" lon="5.71928">
        <ele>275.6</ele>
        <time>1970-01-01T00:02:03.000Z</time>
      </trkpt>
      <trkpt lat="49.55285" lon="5.71928">
        <ele>275.8</ele>
        <time>1970-01-01T00:02:04.000Z</time>
      </trkpt>
      <trkpt lat="49.55284" lon="5.71929">
        <ele>275.8</ele>
        <time>1970-01-01T00:02:05.000Z</time>
      </trkpt>
      <trkpt lat="49.55282" lon="5.71929">
        <ele>276</ele>
        <time>1970-01-01T00:02:06.000Z</time>
      </trkpt>
      <trkpt lat="49.55278" lon="5.71929">
        <ele>276</ele>
        <time>1970-01-01T00:02:08.000Z</time>
      </trkpt>
      <trkpt lat="49.55276" lon="5.7193">
        <ele>276.2</ele>
        <time>1970-01-01T00:02:09.000Z</time>
      </trkpt>
      <trkpt lat="49.55274" lon="5.7193">
        <ele>276.6</ele>
        <time>1970-01-01T00:02:10.000Z</time>
      </trkpt>
      <trkpt lat="49.55272" lon="5.7193">
        <ele>276.8</ele>
        <time>1970-01-01T00:02:11.000Z</time>
      </trkpt>
      <trkpt lat="49.55269" lon="5.7193">
        <ele>277.2</ele>
        <time>1970-01-01T00:02:13.000Z</time>
      </trkpt>
      <trkpt lat="49.55267" lon="5.71931">
        <ele>277.4</ele>
        <time>1970-01-01T00:02:14.000Z</time>
      </trkpt>
      <trkpt lat="49.55264" lon="5.71931">
        <ele>278.2</ele>
        <time>1970-01-01T00:02:16.000Z</time>
      </trkpt>
      <trkpt lat="49.55263" lon="5.71931">
        <ele>278.4</ele>
        <time>1970-01-01T00:02:17.000Z</time>
      </trkpt>
      <trkpt lat="49.55263" lon="5.71931">
        <ele>278.6</ele>
        <time>1970-01-01T00:02:18.000Z</time>
      </trkpt>
      <trkpt lat="49.55259" lon="5.7193">
        <ele>278.8</ele>
        <time>1970-01-01T00:02:19.000Z</time>
      </trkpt>
      <trkpt lat="49.55258" lon="5.7193">
        <ele>279.2</ele>
        <time>1970-01-01T00:02:20.000Z</time>
      </trkpt>
      <trkpt lat="49.55256" lon="5.7193">
        <ele>279.6</ele>
        <time>1970-01-01T00:02:21.000Z</time>
      </trkpt>
      <trkpt lat="49.55255" lon="5.71929">
        <ele>279.8</ele>
        <time>1970-01-01T00:02:22.000Z</time>
      </trkpt>
      <trkpt lat="49.55255" lon="5.71929">
        <ele>280</ele>
        <time>1970-01-01T00:02:23.000Z</time>
      </trkpt>
      <trkpt lat="49.55251" lon="5.7193">
        <ele>280.4</ele>
        <time>1970-01-01T00:02:24.000Z</time>
      </trkpt>
      <trkpt lat="49.5525" lon="5.7193">
        <ele>280.8</ele>
        <time>1970-01-01T00:02:25.000Z</time>
      </trkpt>
      <trkpt lat="49.55248" lon="5.7193">
        <ele>280.8</ele>
        <time>1970-01-01T00:02:26.000Z</time>
      </trkpt>
      <trkpt lat="49.55246" lon="5.71929">
        <ele>281</ele>
        <time>1970-01-01T00:02:27.000Z</time>
      </trkpt>
      <trkpt lat="49.55245" lon="5.71929">
        <ele>281.2</ele>
        <time>1970-01-01T00:02:28.000Z</time>
      </trkpt>
      <trkpt lat="49.55243" lon="5.71929">
        <ele>281.4</ele>
        <time>1970-01-01T00:02:29.000Z</time>
      </trkpt>
      <trkpt lat="49.55242" lon="5.71928">
        <ele>281.6</ele>
        <time>1970-01-01T00:02:30.000Z</time>
      </trkpt>
      <trkpt lat="49.5524" lon="5.71928">
        <ele>282</ele>
        <time>1970-01-01T00:02:31.000Z</time>
      </trkpt>
      <trkpt lat="49.55239" lon="5.71928">
        <ele>282.2</ele>
        <time>1970-01-01T00:02:32.000Z</time>
      </trkpt>
      <trkpt lat="49.55237" lon="5.71928">
        <ele>282.6</ele>
        <time>1970-01-01T00:02:33.000Z</time>
      </trkpt>
      <trkpt lat="49.55236" lon="5.71928">
        <ele>282.8</ele>
        <time>1970-01-01T00:02:34.000Z</time>
      </trkpt>
      <trkpt lat="49.55234" lon="5.71927">
        <ele>283</ele>
        <time>1970-01-01T00:02:35.000Z</time>
      </trkpt>
      <trkpt lat="49.55233" lon="5.71927">
        <ele>283.4</ele>
        <time>1970-01-01T00:02:36.000Z</time>
      </trkpt>
      <trkpt lat="49.55231" lon="5.71927">
        <ele>283.6</ele>
        <time>1970-01-01T00:02:37.000Z</time>
      </trkpt>
      <trkpt lat="49.55231" lon="5.71927">
        <ele>283.8</ele>
        <time>1970-01-01T00:02:38.000Z</time>
      </trkpt>
      <trkpt lat="49.55229" lon="5.71927">
        <ele>283.8</ele>
        <time>1970-01-01T00:02:39.000Z</time>
      </trkpt>
      <trkpt lat="49.55227" lon="5.71927">
        <ele>284.2</ele>
        <time>1970-01-01T00:02:40.000Z</time>
      </trkpt>
      <trkpt lat="49.55227" lon="5.71927">
        <ele>284.6</ele>
        <time>1970-01-01T00:02:41.000Z</time>
      </trkpt>
      <trkpt lat="49.55225" lon="5.71926">
        <ele>284.6</ele>
        <time>1970-01-01T00:02:42.000Z</time>
      </trkpt>
      <trkpt lat="49.55225" lon="5.71926">
        <ele>285</ele>
        <time>1970-01-01T00:02:43.000Z</time>
      </trkpt>
      <trkpt lat="49.55224" lon="5.71925">
        <ele>285</ele>
        <time>1970-01-01T00:02:44.000Z</time>
      </trkpt>
      <trkpt lat="49.5522" lon="5.71924">
        <ele>285.4</ele>
        <time>1970-01-01T00:02:45.000Z</time>
      </trkpt>
      <trkpt lat="49.55219" lon="5.71923">
        <ele>285.6</ele>
        <time>1970-01-01T00:02:46.000Z</time>
      </trkpt>
      <trkpt lat="49.55217" lon="5.71923">
        <ele>285.8</ele>
        <time>1970-01-01T00:02:47.000Z</time>
      </trkpt>
      <trkpt lat="49.55216" lon="5.71923">
        <ele>286</ele>
        <time>1970-01-01T00:02:48.000Z</time>
      </trkpt>
      <trkpt lat="49.55214" lon="5.71923">
        <ele>286.2</ele>
        <time>1970-01-01T00:02:49.000Z</time>
      </trkpt>
      <trkpt lat="49.55212" lon="5.71922">
        <ele>286.4</ele>
        <time>1970-01-01T00:02:50.000Z</time>
      </trkpt>
      <trkpt lat="49.55211" lon="5.71922">
        <ele>286.6</ele>
        <time>1970-01-01T00:02:51.000Z</time>
      </trkpt>
      <trkpt lat="49.55209" lon="5.71921">
        <ele>287</ele>
        <time>1970-01-01T00:02:52.000Z</time>
      </trkpt>
      <trkpt lat="49.55209" lon="5.71921">
        <ele>287</ele>
        <time>1970-01-01T00:02:53.000Z</time>
      </trkpt>
      <trkpt lat="49.55206" lon="5.7192">
        <ele>287.2</ele>
        <time>1970-01-01T00:02:54.000Z</time>
      </trkpt>
      <trkpt lat="49.55204" lon="5.7192">
        <ele>287.4</ele>
        <time>1970-01-01T00:02:55.000Z</time>
      </trkpt>
      <trkpt lat="49.55202" lon="5.71919">
        <ele>287.6</ele>
        <time>1970-01-01T00:02:56.000Z</time>
      </trkpt>
      <trkpt lat="49.55201" lon="5.71919">
        <ele>287.6</ele>
        <time>1970-01-01T00:02:57.000Z</time>
      </trkpt>
      <trkpt lat="49.55201" lon="5.71919">
        <ele>288</ele>
        <time>1970-01-01T00:02:58.000Z</time>
      </trkpt>
      <trkpt lat="49.55197" lon="5.71917">
        <ele>288.4</ele>
        <time>1970-01-01T00:02:59.000Z</time>
      </trkpt>
      <trkpt lat="49.55196" lon="5.71917">
        <ele>288.4</ele>
        <time>1970-01-01T00:03:00.000Z</time>
      </trkpt>
      <trkpt lat="49.55194" lon="5.71916">
        <ele>288.8</ele>
        <time>1970-01-01T00:03:01.000Z</time>
      </trkpt>
      <trkpt lat="49.55192" lon="5.71915">
        <ele>288.8</ele>
        <time>1970-01-01T00:03:02.000Z</time>
      </trkpt>
      <trkpt lat="49.55191" lon="5.71915">
        <ele>289.2</ele>
        <time>1970-01-01T00:03:03.000Z</time>
      </trkpt>
      <trkpt lat="49.55189" lon="5.71915">
        <ele>289.4</ele>
        <time>1970-01-01T00:03:04.000Z</time>
      </trkpt>
      <trkpt lat="49.55187" lon="5.71914">
        <ele>289.6</ele>
        <time>1970-01-01T00:03:05.000Z</time>
      </trkpt>
      <trkpt lat="49.55186" lon="5.71913">
        <ele>290</ele>
        <time>1970-01-01T00:03:06.000Z</time>
      </trkpt>
      <trkpt lat="49.55186" lon="5.71913">
        <ele>290</ele>
        <time>1970-01-01T00:03:07.000Z</time>
      </trkpt>
      <trkpt lat="49.55183" lon="5.71912">
        <ele>290.4</ele>
        <time>1970-01-01T00:03:08.000Z</time>
      </trkpt>
      <trkpt lat="49.55181" lon="5.71911">
        <ele>290.6</ele>
        <time>1970-01-01T00:03:09.000Z</time>
      </trkpt>
      <trkpt lat="49.5518" lon="5.71911">
        <ele>290.6</ele>
        <time>1970-01-01T00:03:10.000Z</time>
      </trkpt>
      <trkpt lat="49.55178" lon="5.7191">
        <ele>290.8</ele>
        <time>1970-01-01T00:03:11.000Z</time>
      </trkpt>
      <trkpt lat="49.55176" lon="5.71909">
        <ele>291.2</ele>
        <time>1970-01-01T00:03:12.000Z</time>
      </trkpt>
      <trkpt lat="49.55174" lon="5.71908">
        <ele>291.4</ele>
        <time>1970-01-01T00:03:13.000Z</time>
      </trkpt>
      <trkpt lat="49.55173" lon="5.71907">
        <ele>291.4</ele>
        <time>1970-01-01T00:03:14.000Z</time>
      </trkpt>
      <trkpt lat="49.55172" lon="5.71906">
        <ele>291.6</ele>
        <time>1970-01-01T00:03:15.000Z</time>
      </trkpt>
      <trkpt lat="49.5517" lon="5.71905">
        <ele>291.8</ele>
        <time>1970-01-01T00:03:16.000Z</time>
      </trkpt>
      <trkpt lat="49.55169" lon="5.71904">
        <ele>292.2</ele>
        <time>1970-01-01T00:03:17.000Z</time>
      </trkpt>
      <trkpt lat="49.55167" lon="5.71904">
        <ele>292.4</ele>
        <time>1970-01-01T00:03:18.000Z</time>
      </trkpt>
      <trkpt lat="49.55166" lon="5.71904">
        <ele>292.8</ele>
        <time>1970-01-01T00:03:19.000Z</time>
      </trkpt>
      <trkpt lat="49.55164" lon="5.71903">
        <ele>293</ele>
        <time>1970-01-01T00:03:20.000Z</time>
      </trkpt>
      <trkpt lat="49.55163" lon="5.71902">
        <ele>293</ele>
        <time>1970-01-01T00:03:21.000Z</time>
      </trkpt>
      <trkpt lat="49.55161" lon="5.719">
        <ele>293.2</ele>
        <time>1970-01-01T00:03:22.000Z</time>
      </trkpt>
      <trkpt lat="49.5516" lon="5.719">
        <ele>293.6</ele>
        <time>1970-01-01T00:03:23.000Z</time>
      </trkpt>
      <trkpt lat="49.55159" lon="5.719">
        <ele>293.8</ele>
        <time>1970-01-01T00:03:24.000Z</time>
      </trkpt>
      <trkpt lat="49.55157" lon="5.71899">
        <ele>294</ele>
        <time>1970-01-01T00:03:25.000Z</time>
      </trkpt>
      <trkpt lat="49.55156" lon="5.71898">
        <ele>294.2</ele>
        <time>1970-01-01T00:03:26.000Z</time>
      </trkpt>
      <trkpt lat="49.55154" lon="5.71898">
        <ele>294.4</ele>
        <time>1970-01-01T00:03:27.000Z</time>
      </trkpt>
      <trkpt lat="49.55153" lon="5.71897">
        <ele>294.6</ele>
        <time>1970-01-01T00:03:28.000Z</time>
      </trkpt>
      <trkpt lat="49.55151" lon="5.71897">
        <ele>294.6</ele>
        <time>1970-01-01T00:03:29.000Z</time>
      </trkpt>
      <trkpt lat="49.55149" lon="5.71896">
        <ele>295</ele>
        <time>1970-01-01T00:03:30.000Z</time>
      </trkpt>
      <trkpt lat="49.55148" lon="5.71895">
        <ele>295.4</ele>
        <time>1970-01-01T00:03:31.000Z</time>
      </trkpt>
      <trkpt lat="49.55146" lon="5.71895">
        <ele>295.6</ele>
        <time>1970-01-01T00:03:32.000Z</time>
      </trkpt>
      <trkpt lat="49.55145" lon="5.71895">
        <ele>295.8</ele>
        <time>1970-01-01T00:03:33.000Z</time>
      </trkpt>
      <trkpt lat="49.55143" lon="5.71894">
        <ele>295.8</ele>
        <time>1970-01-01T00:03:34.000Z</time>
      </trkpt>
      <trkpt lat="49.55142" lon="5.71893">
        <ele>296.2</ele>
        <time>1970-01-01T00:03:35.000Z</time>
      </trkpt>
      <trkpt lat="49.5514" lon="5.71892">
        <ele>296.4</ele>
        <time>1970-01-01T00:03:36.000Z</time>
      </trkpt>
      <trkpt lat="49.55139" lon="5.71891">
        <ele>296.6</ele>
        <time>1970-01-01T00:03:37.000Z</time>
      </trkpt>
      <trkpt lat="49.55137" lon="5.7189">
        <ele>296.8</ele>
        <time>1970-01-01T00:03:38.000Z</time>
      </trkpt>
      <trkpt lat="49.55137" lon="5.7189">
        <ele>296.8</ele>
        <time>1970-01-01T00:03:39.000Z</time>
      </trkpt>
      <trkpt lat="49.55134" lon="5.71889">
        <ele>297.2</ele>
        <time>1970-01-01T00:03:40.000Z</time>
      </trkpt>
      <trkpt lat="49.55133" lon="5.71889">
        <ele>297.2</ele>
        <time>1970-01-01T00:03:41.000Z</time>
      </trkpt>
      <trkpt lat="49.55131" lon="5.71888">
        <ele>297.6</ele>
        <time>1970-01-01T00:03:42.000Z</time>
      </trkpt>
      <trkpt lat="49.55131" lon="5.71888">
        <ele>297.8</ele>
        <time>1970-01-01T00:03:43.000Z</time>
      </trkpt>
      <trkpt lat="49.55128" lon="5.71887">
        <ele>298.2</ele>
        <time>1970-01-01T00:03:44.000Z</time>
      </trkpt>
      <trkpt lat="49.55126" lon="5.71886">
        <ele>298.4</ele>
        <time>1970-01-01T00:03:45.000Z</time>
      </trkpt>
      <trkpt lat="49.55125" lon="5.71885">
        <ele>298.4</ele>
        <time>1970-01-01T00:03:46.000Z</time>
      </trkpt>
      <trkpt lat="49.55123" lon="5.71885">
        <ele>298.6</ele>
        <time>1970-01-01T00:03:47.000Z</time>
      </trkpt>
      <trkpt lat="49.55122" lon="5.71884">
        <ele>298.8</ele>
        <time>1970-01-01T00:03:48.000Z</time>
      </trkpt>
      <trkpt lat="49.5512" lon="5.71883">
        <ele>298.8</ele>
        <time>1970-01-01T00:03:49.000Z</time>
      </trkpt>
      <trkpt lat="49.55119" lon="5.71883">
        <ele>299</ele>
        <time>1970-01-01T00:03:50.000Z</time>
      </trkpt>
      <trkpt lat="49.55118" lon="5.71882">
        <ele>299.4</ele>
        <time>1970-01-01T00:03:51.000Z</time>
      </trkpt>
      <trkpt lat="49.55116" lon="5.71882">
        <ele>299.6</ele>
        <time>1970-01-01T00:03:52.000Z</time>
      </trkpt>
      <trkpt lat="49.55115" lon="5.71881">
        <ele>300</ele>
        <time>1970-01-01T00:03:53.000Z</time>
      </trkpt>
      <trkpt lat="49.55113" lon="5.71881">
        <ele>300</ele>
        <time>1970-01-01T00:03:54.000Z</time>
      </trkpt>
      <trkpt lat="49.55112" lon="5.7188">
        <ele>300.4</ele>
        <time>1970-01-01T00:03:55.000Z</time>
      </trkpt>
      <trkpt lat="49.5511" lon="5.71879">
        <ele>300.6</ele>
        <time>1970-01-01T00:03:56.000Z</time>
      </trkpt>
      <trkpt lat="49.55109" lon="5.71879">
        <ele>300.6</ele>
        <time>1970-01-01T00:03:57.000Z</time>
      </trkpt>
      <trkpt lat="49.55107" lon="5.71878">
        <ele>301</ele>
        <time>1970-01-01T00:03:58.000Z</time>
      </trkpt>
      <trkpt lat="49.55105" lon="5.71878">
        <ele>301.2</ele>
        <time>1970-01-01T00:03:59.000Z</time>
      </trkpt>
      <trkpt lat="49.55104" lon="5.71877">
        <ele>301.4</ele>
        <time>1970-01-01T00:04:00.000Z</time>
      </trkpt>
      <trkpt lat="49.55102" lon="5.71876">
        <ele>301.6</ele>
        <time>1970-01-01T00:04:01.000Z</time>
      </trkpt>
      <trkpt lat="49.551" lon="5.71876">
        <ele>301.8</ele>
        <time>1970-01-01T00:04:02.000Z</time>
      </trkpt>
      <trkpt lat="49.55099" lon="5.71875">
        <ele>302</ele>
        <time>1970-01-01T00:04:03.000Z</time>
      </trkpt>
      <trkpt lat="49.55099" lon="5.71875">
        <ele>302.2</ele>
        <time>1970-01-01T00:04:04.000Z</time>
      </trkpt>
      <trkpt lat="49.55096" lon="5.71873">
        <ele>302.6</ele>
        <time>1970-01-01T00:04:05.000Z</time>
      </trkpt>
      <trkpt lat="49.55095" lon="5.71872">
        <ele>302.6</ele>
        <time>1970-01-01T00:04:06.000Z</time>
      </trkpt>
      <trkpt lat="49.55093" lon="5.71871">
        <ele>303</ele>
        <time>1970-01-01T00:04:07.000Z</time>
      </trkpt>
      <trkpt lat="49.55092" lon="5.71871">
        <ele>303.2</ele>
        <time>1970-01-01T00:04:08.000Z</time>
      </trkpt>
      <trkpt lat="49.55091" lon="5.7187">
        <ele>303.4</ele>
        <time>1970-01-01T00:04:09.000Z</time>
      </trkpt>
      <trkpt lat="49.55089" lon="5.71869">
        <ele>303.6</ele>
        <time>1970-01-01T00:04:10.000Z</time>
      </trkpt>
      <trkpt lat="49.55088" lon="5.71869">
        <ele>303.8</ele>
        <time>1970-01-01T00:04:11.000Z</time>
      </trkpt>
      <trkpt lat="49.55086" lon="5.71868">
        <ele>303.8</ele>
        <time>1970-01-01T00:04:12.000Z</time>
      </trkpt>
      <trkpt lat="49.55085" lon="5.71867">
        <ele>304.4</ele>
        <time>1970-01-01T00:04:13.000Z</time>
      </trkpt>
      <trkpt lat="49.55083" lon="5.71867">
        <ele>304.6</ele>
        <time>1970-01-01T00:04:14.000Z</time>
      </trkpt>
      <trkpt lat="49.55082" lon="5.71866">
        <ele>304.8</ele>
        <time>1970-01-01T00:04:15.000Z</time>
      </trkpt>
      <trkpt lat="49.5508" lon="5.71865">
        <ele>304.8</ele>
        <time>1970-01-01T00:04:16.000Z</time>
      </trkpt>
      <trkpt lat="49.55078" lon="5.71865">
        <ele>305.2</ele>
        <time>1970-01-01T00:04:17.000Z</time>
      </trkpt>
      <trkpt lat="49.55077" lon="5.71864">
        <ele>305.4</ele>
        <time>1970-01-01T00:04:18.000Z</time>
      </trkpt>
      <trkpt lat="49.55075" lon="5.71864">
        <ele>305.4</ele>
        <time>1970-01-01T00:04:19.000Z</time>
      </trkpt>
      <trkpt lat="49.55074" lon="5.71863">
        <ele>305.4</ele>
        <time>1970-01-01T00:04:20.000Z</time>
      </trkpt>
      <trkpt lat="49.55073" lon="5.71862">
        <ele>305.6</ele>
        <time>1970-01-01T00:04:21.000Z</time>
      </trkpt>
      <trkpt lat="49.55071" lon="5.71862">
        <ele>305.8</ele>
        <time>1970-01-01T00:04:22.000Z</time>
      </trkpt>
      <trkpt lat="49.5507" lon="5.71861">
        <ele>306.2</ele>
        <time>1970-01-01T00:04:23.000Z</time>
      </trkpt>
      <trkpt lat="49.55069" lon="5.71861">
        <ele>306.2</ele>
        <time>1970-01-01T00:04:24.000Z</time>
      </trkpt>
      <trkpt lat="49.55067" lon="5.7186">
        <ele>306.6</ele>
        <time>1970-01-01T00:04:25.000Z</time>
      </trkpt>
      <trkpt lat="49.55066" lon="5.7186">
        <ele>306.8</ele>
        <time>1970-01-01T00:04:26.000Z</time>
      </trkpt>
      <trkpt lat="49.55065" lon="5.7186">
        <ele>307</ele>
        <time>1970-01-01T00:04:27.000Z</time>
      </trkpt>
      <trkpt lat="49.55064" lon="5.7186">
        <ele>307</ele>
        <time>1970-01-01T00:04:28.000Z</time>
      </trkpt>
      <trkpt lat="49.55062" lon="5.7186">
        <ele>307.2</ele>
        <time>1970-01-01T00:04:29.000Z</time>
      </trkpt>
      <trkpt lat="49.55061" lon="5.7186">
        <ele>307.4</ele>
        <time>1970-01-01T00:04:30.000Z</time>
      </trkpt>
      <trkpt lat="49.55059" lon="5.7186">
        <ele>307.6</ele>
        <time>1970-01-01T00:04:31.000Z</time>
      </trkpt>
      <trkpt lat="49.55058" lon="5.7186">
        <ele>307.8</ele>
        <time>1970-01-01T00:04:32.000Z</time>
      </trkpt>
      <trkpt lat="49.55057" lon="5.7186">
        <ele>308</ele>
        <time>1970-01-01T00:04:33.000Z</time>
      </trkpt>
      <trkpt lat="49.55056" lon="5.7186">
        <ele>308.2</ele>
        <time>1970-01-01T00:04:34.000Z</time>
      </trkpt>
      <trkpt lat="49.55055" lon="5.7186">
        <ele>308.6</ele>
        <time>1970-01-01T00:04:35.000Z</time>
      </trkpt>
      <trkpt lat="49.55053" lon="5.71859">
        <ele>308.8</ele>
        <time>1970-01-01T00:04:36.000Z</time>
      </trkpt>
      <trkpt lat="49.55052" lon="5.71858">
        <ele>308.8</ele>
        <time>1970-01-01T00:04:37.000Z</time>
      </trkpt>
      <trkpt lat="49.5505" lon="5.71858">
        <ele>309</ele>
        <time>1970-01-01T00:04:38.000Z</time>
      </trkpt>
      <trkpt lat="49.55049" lon="5.71858">
        <ele>309.4</ele>
        <time>1970-01-01T00:04:39.000Z</time>
      </trkpt>
      <trkpt lat="49.55049" lon="5.71858">
        <ele>309.6</ele>
        <time>1970-01-01T00:04:40.000Z</time>
      </trkpt>
      <trkpt lat="49.55047" lon="5.71857">
        <ele>310</ele>
        <time>1970-01-01T00:04:41.000Z</time>
      </trkpt>
      <trkpt lat="49.55045" lon="5.71856">
        <ele>310.2</ele>
        <time>1970-01-01T00:04:42.000Z</time>
      </trkpt>
      <trkpt lat="49.55044" lon="5.71856">
        <ele>310.2</ele>
        <time>1970-01-01T00:04:43.000Z</time>
      </trkpt>
      <trkpt lat="49.55043" lon="5.71855">
        <ele>310.4</ele>
        <time>1970-01-01T00:04:44.000Z</time>
      </trkpt>
      <trkpt lat="49.55042" lon="5.71855">
        <ele>310.8</ele>
        <time>1970-01-01T00:04:45.000Z</time>
      </trkpt>
      <trkpt lat="49.55041" lon="5.71854">
        <ele>311</ele>
        <time>1970-01-01T00:04:46.000Z</time>
      </trkpt>
      <trkpt lat="49.5504" lon="5.71853">
        <ele>311.4</ele>
        <time>1970-01-01T00:04:47.000Z</time>
      </trkpt>
      <trkpt lat="49.55039" lon="5.71853">
        <ele>311.8</ele>
        <time>1970-01-01T00:04:48.000Z</time>
      </trkpt>
      <trkpt lat="49.55038" lon="5.71853">
        <ele>312</ele>
        <time>1970-01-01T00:04:49.000Z</time>
      </trkpt>
      <trkpt lat="49.55037" lon="5.71852">
        <ele>312.4</ele>
        <time>1970-01-01T00:04:50.000Z</time>
      </trkpt>
      <trkpt lat="49.55036" lon="5.71852">
        <ele>312.8</ele>
        <time>1970-01-01T00:04:51.000Z</time>
      </trkpt>
      <trkpt lat="49.55034" lon="5.71852">
        <ele>313.2</ele>
        <time>1970-01-01T00:04:52.000Z</time>
      </trkpt>
      <trkpt lat="49.55033" lon="5.71851">
        <ele>313.2</ele>
        <time>1970-01-01T00:04:53.000Z</time>
      </trkpt>
      <trkpt lat="49.55032" lon="5.7185">
        <ele>313.4</ele>
        <time>1970-01-01T00:04:54.000Z</time>
      </trkpt>
      <trkpt lat="49.55031" lon="5.7185">
        <ele>313.6</ele>
        <time>1970-01-01T00:04:55.000Z</time>
      </trkpt>
      <trkpt lat="49.5503" lon="5.7185">
        <ele>313.8</ele>
        <time>1970-01-01T00:04:56.000Z</time>
      </trkpt>
      <trkpt lat="49.55029" lon="5.7185">
        <ele>314</ele>
        <time>1970-01-01T00:04:57.000Z</time>
      </trkpt>
      <trkpt lat="49.55028" lon="5.71849">
        <ele>314.2</ele>
        <time>1970-01-01T00:04:58.000Z</time>
      </trkpt>
      <trkpt lat="49.55027" lon="5.71849">
        <ele>314.4</ele>
        <time>1970-01-01T00:04:59.000Z</time>
      </trkpt>
      <trkpt lat="49.55026" lon="5.71849">
        <ele>314.6</ele>
        <time>1970-01-01T00:05:00.000Z</time>
      </trkpt>
      <trkpt lat="49.55025" lon="5.71848">
        <ele>314.8</ele>
        <time>1970-01-01T00:05:01.000Z</time>
      </trkpt>
      <trkpt lat="49.55023" lon="5.71847">
        <ele>315</ele>
        <time>1970-01-01T00:05:02.000Z</time>
      </trkpt>
      <trkpt lat="49.55022" lon="5.71847">
        <ele>315.4</ele>
        <time>1970-01-01T00:05:03.000Z</time>
      </trkpt>
      <trkpt lat="49.55022" lon="5.71847">
        <ele>315.8</ele>
        <time>1970-01-01T00:05:04.000Z</time>
      </trkpt>
      <trkpt lat="49.5502" lon="5.71845">
        <ele>315.8</ele>
        <time>1970-01-01T00:05:05.000Z</time>
      </trkpt>
      <trkpt lat="49.55018" lon="5.71845">
        <ele>316.2</ele>
        <time>1970-01-01T00:05:06.000Z</time>
      </trkpt>
      <trkpt lat="49.55017" lon="5.71845">
        <ele>316.4</ele>
        <time>1970-01-01T00:05:07.000Z</time>
      </trkpt>
      <trkpt lat="49.55016" lon="5.71845">
        <ele>316.4</ele>
        <time>1970-01-01T00:05:08.000Z</time>
      </trkpt>
      <trkpt lat="49.55014" lon="5.71844">
        <ele>316.6</ele>
        <time>1970-01-01T00:05:09.000Z</time>
      </trkpt>
      <trkpt lat="49.55013" lon="5.71844">
        <ele>316.8</ele>
        <time>1970-01-01T00:05:10.000Z</time>
      </trkpt>
      <trkpt lat="49.55011" lon="5.71843">
        <ele>316.8</ele>
        <time>1970-01-01T00:05:11.000Z</time>
      </trkpt>
      <trkpt lat="49.5501" lon="5.71843">
        <ele>317</ele>
        <time>1970-01-01T00:05:12.000Z</time>
      </trkpt>
      <trkpt lat="49.55009" lon="5.71843">
        <ele>317.6</ele>
        <time>1970-01-01T00:05:13.000Z</time>
      </trkpt>
      <trkpt lat="49.55008" lon="5.71842">
        <ele>317.8</ele>
        <time>1970-01-01T00:05:14.000Z</time>
      </trkpt>
      <trkpt lat="49.55006" lon="5.71842">
        <ele>318</ele>
        <time>1970-01-01T00:05:15.000Z</time>
      </trkpt>
      <trkpt lat="49.55005" lon="5.71842">
        <ele>318.2</ele>
        <time>1970-01-01T00:05:16.000Z</time>
      </trkpt>
      <trkpt lat="49.55004" lon="5.71842">
        <ele>318.6</ele>
        <time>1970-01-01T00:05:17.000Z</time>
      </trkpt>
      <trkpt lat="49.55003" lon="5.71841">
        <ele>318.8</ele>
        <time>1970-01-01T00:05:18.000Z</time>
      </trkpt>
      <trkpt lat="49.55003" lon="5.71841">
        <ele>319.2</ele>
        <time>1970-01-01T00:05:19.000Z</time>
      </trkpt>
      <trkpt lat="49.55" lon="5.71839">
        <ele>319.4</ele>
        <time>1970-01-01T00:05:20.000Z</time>
      </trkpt>
      <trkpt lat="49.54999" lon="5.71839">
        <ele>319.8</ele>
        <time>1970-01-01T00:05:21.000Z</time>
      </trkpt>
      <trkpt lat="49.54998" lon="5.71838">
        <ele>320.2</ele>
        <time>1970-01-01T00:05:22.000Z</time>
      </trkpt>
      <trkpt lat="49.54997" lon="5.71838">
        <ele>320.4</ele>
        <time>1970-01-01T00:05:23.000Z</time>
      </trkpt>
      <trkpt lat="49.54996" lon="5.71836">
        <ele>320.6</ele>
        <time>1970-01-01T00:05:24.000Z</time>
      </trkpt>
      <trkpt lat="49.54996" lon="5.71836">
        <ele>320.8</ele>
        <time>1970-01-01T00:05:25.000Z</time>
      </trkpt>
      <trkpt lat="49.54993" lon="5.71835">
        <ele>321</ele>
        <time>1970-01-01T00:05:26.000Z</time>
      </trkpt>
      <trkpt lat="49.54992" lon="5.71834">
        <ele>321.2</ele>
        <time>1970-01-01T00:05:27.000Z</time>
      </trkpt>
      <trkpt lat="49.54991" lon="5.71834">
        <ele>321.6</ele>
        <time>1970-01-01T00:05:28.000Z</time>
      </trkpt>
      <trkpt lat="49.5499" lon="5.71834">
        <ele>321.8</ele>
        <time>1970-01-01T00:05:29.000Z</time>
      </trkpt>
      <trkpt lat="49.54988" lon="5.71835">
        <ele>322</ele>
        <time>1970-01-01T00:05:30.000Z</time>
      </trkpt>
      <trkpt lat="49.54987" lon="5.71835">
        <ele>322.2</ele>
        <time>1970-01-01T00:05:31.000Z</time>
      </trkpt>
      <trkpt lat="49.54986" lon="5.71835">
        <ele>322.4</ele>
        <time>1970-01-01T00:05:32.000Z</time>
      </trkpt>
      <trkpt lat="49.54985" lon="5.71835">
        <ele>322.6</ele>
        <time>1970-01-01T00:05:33.000Z</time>
      </trkpt>
      <trkpt lat="49.54984" lon="5.71835">
        <ele>322.8</ele>
        <time>1970-01-01T00:05:34.000Z</time>
      </trkpt>
      <trkpt lat="49.54984" lon="5.71835">
        <ele>323</ele>
        <time>1970-01-01T00:05:35.000Z</time>
      </trkpt>
      <trkpt lat="49.54982" lon="5.71835">
        <ele>323.2</ele>
        <time>1970-01-01T00:05:36.000Z</time>
      </trkpt>
      <trkpt lat="49.54981" lon="5.71834">
        <ele>323.4</ele>
        <time>1970-01-01T00:05:37.000Z</time>
      </trkpt>
      <trkpt lat="49.54979" lon="5.71834">
        <ele>323.6</ele>
        <time>1970-01-01T00:05:38.000Z</time>
      </trkpt>
      <trkpt lat="49.54978" lon="5.71834">
        <ele>323.8</ele>
        <time>1970-01-01T00:05:39.000Z</time>
      </trkpt>
      <trkpt lat="49.54977" lon="5.71834">
        <ele>323.8</ele>
        <time>1970-01-01T00:05:40.000Z</time>
      </trkpt>
      <trkpt lat="49.54975" lon="5.71834">
        <ele>324</ele>
        <time>1970-01-01T00:05:41.000Z</time>
      </trkpt>
      <trkpt lat="49.54974" lon="5.71834">
        <ele>324.2</ele>
        <time>1970-01-01T00:05:42.000Z</time>
      </trkpt>
      <trkpt lat="49.54973" lon="5.71833">
        <ele>324.4</ele>
        <time>1970-01-01T00:05:43.000Z</time>
      </trkpt>
      <trkpt lat="49.54972" lon="5.71833">
        <ele>324.4</ele>
        <time>1970-01-01T00:05:44.000Z</time>
      </trkpt>
      <trkpt lat="49.54971" lon="5.71832">
        <ele>324.6</ele>
        <time>1970-01-01T00:05:45.000Z</time>
      </trkpt>
      <trkpt lat="49.54969" lon="5.71832">
        <ele>324.8</ele>
        <time>1970-01-01T00:05:46.000Z</time>
      </trkpt>
      <trkpt lat="49.54968" lon="5.71831">
        <ele>324.8</ele>
        <time>1970-01-01T00:05:47.000Z</time>
      </trkpt>
      <trkpt lat="49.54968" lon="5.7183">
        <ele>325</ele>
        <time>1970-01-01T00:05:48.000Z</time>
      </trkpt>
      <trkpt lat="49.54967" lon="5.71829">
        <ele>325.4</ele>
        <time>1970-01-01T00:05:49.000Z</time>
      </trkpt>
      <trkpt lat="49.54966" lon="5.71829">
        <ele>325.6</ele>
        <time>1970-01-01T00:05:50.000Z</time>
      </trkpt>
      <trkpt lat="49.54964" lon="5.71829">
        <ele>325.8</ele>
        <time>1970-01-01T00:05:51.000Z</time>
      </trkpt>
      <trkpt lat="49.54963" lon="5.71829">
        <ele>326</ele>
        <time>1970-01-01T00:05:52.000Z</time>
      </trkpt>
      <trkpt lat="49.54961" lon="5.71828">
        <ele>326.4</ele>
        <time>1970-01-01T00:05:53.000Z</time>
      </trkpt>
      <trkpt lat="49.5496" lon="5.71828">
        <ele>326.6</ele>
        <time>1970-01-01T00:05:54.000Z</time>
      </trkpt>
      <trkpt lat="49.54958" lon="5.71828">
        <ele>326.8</ele>
        <time>1970-01-01T00:05:55.000Z</time>
      </trkpt>
      <trkpt lat="49.54956" lon="5.71828">
        <ele>327</ele>
        <time>1970-01-01T00:05:56.000Z</time>
      </trkpt>
      <trkpt lat="49.54955" lon="5.71828">
        <ele>327.2</ele>
        <time>1970-01-01T00:05:57.000Z</time>
      </trkpt>
      <trkpt lat="49.54953" lon="5.71828">
        <ele>327.4</ele>
        <time>1970-01-01T00:05:58.000Z</time>
      </trkpt>
      <trkpt lat="49.54951" lon="5.71828">
        <ele>327.4</ele>
        <time>1970-01-01T00:05:59.000Z</time>
      </trkpt>
      <trkpt lat="49.54948" lon="5.71829">
        <ele>327.6</ele>
        <time>1970-01-01T00:06:00.000Z</time>
      </trkpt>
      <trkpt lat="49.54946" lon="5.7183">
        <ele>327.8</ele>
        <time>1970-01-01T00:06:01.000Z</time>
      </trkpt>
      <trkpt lat="49.54944" lon="5.71831">
        <ele>328</ele>
        <time>1970-01-01T00:06:02.000Z</time>
      </trkpt>
      <trkpt lat="49.54942" lon="5.71831">
        <ele>328.2</ele>
        <time>1970-01-01T00:06:03.000Z</time>
      </trkpt>
      <trkpt lat="49.5494" lon="5.71833">
        <ele>328.4</ele>
        <time>1970-01-01T00:06:04.000Z</time>
      </trkpt>
      <trkpt lat="49.54939" lon="5.71835">
        <ele>328.6</ele>
        <time>1970-01-01T00:06:05.000Z</time>
      </trkpt>
      <trkpt lat="49.54937" lon="5.71837">
        <ele>328.8</ele>
        <time>1970-01-01T00:06:06.000Z</time>
      </trkpt>
      <trkpt lat="49.54936" lon="5.7184">
        <ele>329</ele>
        <time>1970-01-01T00:06:07.000Z</time>
      </trkpt>
      <trkpt lat="49.54935" lon="5.71842">
        <ele>329</ele>
        <time>1970-01-01T00:06:08.000Z</time>
      </trkpt>
      <trkpt lat="49.54934" lon="5.71846">
        <ele>329.2</ele>
        <time>1970-01-01T00:06:09.000Z</time>
      </trkpt>
      <trkpt lat="49.54933" lon="5.71849">
        <ele>329.4</ele>
        <time>1970-01-01T00:06:10.000Z</time>
      </trkpt>
      <trkpt lat="49.54932" lon="5.71853">
        <ele>329.6</ele>
        <time>1970-01-01T00:06:11.000Z</time>
      </trkpt>
      <trkpt lat="49.5493" lon="5.71856">
        <ele>329.6</ele>
        <time>1970-01-01T00:06:12.000Z</time>
      </trkpt>
      <trkpt lat="49.5493" lon="5.71856">
        <ele>329.8</ele>
        <time>1970-01-01T00:06:13.000Z</time>
      </trkpt>
      <trkpt lat="49.54929" lon="5.71865">
        <ele>329.8</ele>
        <time>1970-01-01T00:06:14.000Z</time>
      </trkpt>
      <trkpt lat="49.54928" lon="5.71868">
        <ele>330</ele>
        <time>1970-01-01T00:06:15.000Z</time>
      </trkpt>
      <trkpt lat="49.54927" lon="5.71871">
        <ele>330</ele>
        <time>1970-01-01T00:06:16.000Z</time>
      </trkpt>
      <trkpt lat="49.54926" lon="5.71874">
        <ele>330</ele>
        <time>1970-01-01T00:06:17.000Z</time>
      </trkpt>
      <trkpt lat="49.54926" lon="5.71874">
        <ele>330.2</ele>
        <time>1970-01-01T00:06:18.000Z</time>
      </trkpt>
      <trkpt lat="49.54925" lon="5.71882">
        <ele>330.2</ele>
        <time>1970-01-01T00:06:19.000Z</time>
      </trkpt>
      <trkpt lat="49.54925" lon="5.71887">
        <ele>330.2</ele>
        <time>1970-01-01T00:06:20.000Z</time>
      </trkpt>
      <trkpt lat="49.54924" lon="5.71892">
        <ele>330.2</ele>
        <time>1970-01-01T00:06:21.000Z</time>
      </trkpt>
      <trkpt lat="49.54924" lon="5.71896">
        <ele>330.4</ele>
        <time>1970-01-01T00:06:22.000Z</time>
      </trkpt>
      <trkpt lat="49.54923" lon="5.71901">
        <ele>330.6</ele>
        <time>1970-01-01T00:06:23.000Z</time>
      </trkpt>
      <trkpt lat="49.54923" lon="5.71906">
        <ele>330.8</ele>
        <time>1970-01-01T00:06:24.000Z</time>
      </trkpt>
      <trkpt lat="49.54922" lon="5.71911">
        <ele>330.8</ele>
        <time>1970-01-01T00:06:25.000Z</time>
      </trkpt>
      <trkpt lat="49.54921" lon="5.71917">
        <ele>330.8</ele>
        <time>1970-01-01T00:06:26.000Z</time>
      </trkpt>
      <trkpt lat="49.54921" lon="5.71923">
        <ele>331</ele>
        <time>1970-01-01T00:06:27.000Z</time>
      </trkpt>
      <trkpt lat="49.5492" lon="5.7193">
        <ele>331</ele>
        <time>1970-01-01T00:06:28.000Z</time>
      </trkpt>
      <trkpt lat="49.54919" lon="5.71938">
        <ele>331</ele>
        <time>1970-01-01T00:06:29.000Z</time>
      </trkpt>
      <trkpt lat="49.54918" lon="5.71945">
        <ele>331</ele>
        <time>1970-01-01T00:06:30.000Z</time>
      </trkpt>
      <trkpt lat="49.54916" lon="5.71953">
        <ele>331</ele>
        <time>1970-01-01T00:06:31.000Z</time>
      </trkpt>
      <trkpt lat="49.54915" lon="5.71961">
        <ele>330.8</ele>
        <time>1970-01-01T00:06:32.000Z</time>
      </trkpt>
      <trkpt lat="49.54915" lon="5.71969">
        <ele>330.8</ele>
        <time>1970-01-01T00:06:33.000Z</time>
      </trkpt>
      <trkpt lat="49.54914" lon="5.71977">
        <ele>330.8</ele>
        <time>1970-01-01T00:06:34.000Z</time>
      </trkpt>
      <trkpt lat="49.54914" lon="5.71985">
        <ele>330.8</ele>
        <time>1970-01-01T00:06:35.000Z</time>
      </trkpt>
      <trkpt lat="49.54915" lon="5.71993">
        <ele>330.6</ele>
        <time>1970-01-01T00:06:36.000Z</time>
      </trkpt>
      <trkpt lat="49.54919" lon="5.72008">
        <ele>330.4</ele>
        <time>1970-01-01T00:06:38.000Z</time>
      </trkpt>
      <trkpt lat="49.5492" lon="5.72015">
        <ele>330.4</ele>
        <time>1970-01-01T00:06:39.000Z</time>
      </trkpt>
      <trkpt lat="49.54921" lon="5.72022">
        <ele>330.4</ele>
        <time>1970-01-01T00:06:40.000Z</time>
      </trkpt>
      <trkpt lat="49.54921" lon="5.72027">
        <ele>330.2</ele>
        <time>1970-01-01T00:06:41.000Z</time>
      </trkpt>
      <trkpt lat="49.54922" lon="5.72031">
        <ele>330.2</ele>
        <time>1970-01-01T00:06:42.000Z</time>
      </trkpt>
      <trkpt lat="49.54923" lon="5.72036">
        <ele>330</ele>
        <time>1970-01-01T00:06:43.000Z</time>
      </trkpt>
      <trkpt lat="49.54924" lon="5.72042">
        <ele>330</ele>
        <time>1970-01-01T00:06:44.000Z</time>
      </trkpt>
      <trkpt lat="49.54924" lon="5.7205">
        <ele>329.4</ele>
        <time>1970-01-01T00:06:46.000Z</time>
      </trkpt>
      <trkpt lat="49.54925" lon="5.72055">
        <ele>329.2</ele>
        <time>1970-01-01T00:06:47.000Z</time>
      </trkpt>
      <trkpt lat="49.54926" lon="5.72061">
        <ele>329</ele>
        <time>1970-01-01T00:06:48.000Z</time>
      </trkpt>
      <trkpt lat="49.54926" lon="5.72068">
        <ele>329.2</ele>
        <time>1970-01-01T00:06:50.000Z</time>
      </trkpt>
      <trkpt lat="49.54927" lon="5.72072">
        <ele>329.2</ele>
        <time>1970-01-01T00:06:51.000Z</time>
      </trkpt>
      <trkpt lat="49.54928" lon="5.72076">
        <ele>329.4</ele>
        <time>1970-01-01T00:06:52.000Z</time>
      </trkpt>
      <trkpt lat="49.54928" lon="5.72081">
        <ele>329.4</ele>
        <time>1970-01-01T00:06:53.000Z</time>
      </trkpt>
      <trkpt lat="49.54929" lon="5.72086">
        <ele>329.4</ele>
        <time>1970-01-01T00:06:54.000Z</time>
      </trkpt>
      <trkpt lat="49.54929" lon="5.7209">
        <ele>329.4</ele>
        <time>1970-01-01T00:06:55.000Z</time>
      </trkpt>
      <trkpt lat="49.5493" lon="5.72095">
        <ele>329.6</ele>
        <time>1970-01-01T00:06:56.000Z</time>
      </trkpt>
      <trkpt lat="49.54931" lon="5.72099">
        <ele>329.6</ele>
        <time>1970-01-01T00:06:57.000Z</time>
      </trkpt>
      <trkpt lat="49.54931" lon="5.72103">
        <ele>329.6</ele>
        <time>1970-01-01T00:06:58.000Z</time>
      </trkpt>
      <trkpt lat="49.5493" lon="5.72106">
        <ele>329.8</ele>
        <time>1970-01-01T00:06:59.000Z</time>
      </trkpt>
      <trkpt lat="49.54931" lon="5.72113">
        <ele>329.8</ele>
        <time>1970-01-01T00:07:01.000Z</time>
      </trkpt>
      <trkpt lat="49.54932" lon="5.72116">
        <ele>330</ele>
        <time>1970-01-01T00:07:02.000Z</time>
      </trkpt>
      <trkpt lat="49.54932" lon="5.72121">
        <ele>330.2</ele>
        <time>1970-01-01T00:07:03.000Z</time>
      </trkpt>
      <trkpt lat="49.54933" lon="5.72126">
        <ele>330.4</ele>
        <time>1970-01-01T00:07:04.000Z</time>
      </trkpt>
      <trkpt lat="49.54934" lon="5.72129">
        <ele>330.6</ele>
        <time>1970-01-01T00:07:05.000Z</time>
      </trkpt>
      <trkpt lat="49.54936" lon="5.72133">
        <ele>330.6</ele>
        <time>1970-01-01T00:07:06.000Z</time>
      </trkpt>
      <trkpt lat="49.54936" lon="5.72137">
        <ele>330.8</ele>
        <time>1970-01-01T00:07:07.000Z</time>
      </trkpt>
      <trkpt lat="49.54936" lon="5.7214">
        <ele>331</ele>
        <time>1970-01-01T00:07:08.000Z</time>
      </trkpt>
      <trkpt lat="49.54936" lon="5.72145">
        <ele>331.2</ele>
        <time>1970-01-01T00:07:09.000Z</time>
      </trkpt>
      <trkpt lat="49.54937" lon="5.72148">
        <ele>331.4</ele>
        <time>1970-01-01T00:07:10.000Z</time>
      </trkpt>
      <trkpt lat="49.54937" lon="5.72152">
        <ele>331.6</ele>
        <time>1970-01-01T00:07:11.000Z</time>
      </trkpt>
      <trkpt lat="49.54937" lon="5.72156">
        <ele>331.6</ele>
        <time>1970-01-01T00:07:12.000Z</time>
      </trkpt>
      <trkpt lat="49.54937" lon="5.72159">
        <ele>332</ele>
        <time>1970-01-01T00:07:13.000Z</time>
      </trkpt>
      <trkpt lat="49.54937" lon="5.72165">
        <ele>332.2</ele>
        <time>1970-01-01T00:07:15.000Z</time>
      </trkpt>
      <trkpt lat="49.54937" lon="5.72168">
        <ele>332.2</ele>
        <time>1970-01-01T00:07:16.000Z</time>
      </trkpt>
      <trkpt lat="49.54938" lon="5.7217">
        <ele>332.4</ele>
        <time>1970-01-01T00:07:17.000Z</time>
      </trkpt>
      <trkpt lat="49.54938" lon="5.72173">
        <ele>332.6</ele>
        <time>1970-01-01T00:07:18.000Z</time>
      </trkpt>
      <trkpt lat="49.54938" lon="5.72175">
        <ele>333</ele>
        <time>1970-01-01T00:07:19.000Z</time>
      </trkpt>
      <trkpt lat="49.54938" lon="5.72177">
        <ele>333.2</ele>
        <time>1970-01-01T00:07:20.000Z</time>
      </trkpt>
      <trkpt lat="49.54938" lon="5.7218">
        <ele>333.4</ele>
        <time>1970-01-01T00:07:21.000Z</time>
      </trkpt>
      <trkpt lat="49.54937" lon="5.72182">
        <ele>333.8</ele>
        <time>1970-01-01T00:07:22.000Z</time>
      </trkpt>
      <trkpt lat="49.54936" lon="5.72185">
        <ele>333.8</ele>
        <time>1970-01-01T00:07:23.000Z</time>
      </trkpt>
      <trkpt lat="49.54936" lon="5.72187">
        <ele>334</ele>
        <time>1970-01-01T00:07:24.000Z</time>
      </trkpt>
      <trkpt lat="49.54936" lon="5.7219">
        <ele>334.2</ele>
        <time>1970-01-01T00:07:25.000Z</time>
      </trkpt>
      <trkpt lat="49.54936" lon="5.72192">
        <ele>334.4</ele>
        <time>1970-01-01T00:07:26.000Z</time>
      </trkpt>
      <trkpt lat="49.54936" lon="5.72194">
        <ele>335</ele>
        <time>1970-01-01T00:07:27.000Z</time>
      </trkpt>
      <trkpt lat="49.54935" lon="5.72197">
        <ele>335</ele>
        <time>1970-01-01T00:07:28.000Z</time>
      </trkpt>
      <trkpt lat="49.54935" lon="5.72199">
        <ele>335.4</ele>
        <time>1970-01-01T00:07:29.000Z</time>
      </trkpt>
      <trkpt lat="49.54935" lon="5.72202">
        <ele>335.6</ele>
        <time>1970-01-01T00:07:30.000Z</time>
      </trkpt>
      <trkpt lat="49.54935" lon="5.72204">
        <ele>336</ele>
        <time>1970-01-01T00:07:31.000Z</time>
      </trkpt>
      <trkpt lat="49.54935" lon="5.72206">
        <ele>336</ele>
        <time>1970-01-01T00:07:32.000Z</time>
      </trkpt>
      <trkpt lat="49.54936" lon="5.72209">
        <ele>336.4</ele>
        <time>1970-01-01T00:07:33.000Z</time>
      </trkpt>
      <trkpt lat="49.54935" lon="5.72212">
        <ele>336.6</ele>
        <time>1970-01-01T00:07:34.000Z</time>
      </trkpt>
      <trkpt lat="49.54935" lon="5.72214">
        <ele>336.8</ele>
        <time>1970-01-01T00:07:35.000Z</time>
      </trkpt>
      <trkpt lat="49.54935" lon="5.72217">
        <ele>337.2</ele>
        <time>1970-01-01T00:07:36.000Z</time>
      </trkpt>
      <trkpt lat="49.54934" lon="5.7222">
        <ele>337.4</ele>
        <time>1970-01-01T00:07:37.000Z</time>
      </trkpt>
      <trkpt lat="49.54934" lon="5.72223">
        <ele>337.8</ele>
        <time>1970-01-01T00:07:38.000Z</time>
      </trkpt>
      <trkpt lat="49.54935" lon="5.72225">
        <ele>338</ele>
        <time>1970-01-01T00:07:39.000Z</time>
      </trkpt>
      <trkpt lat="49.54935" lon="5.72228">
        <ele>338.6</ele>
        <time>1970-01-01T00:07:40.000Z</time>
      </trkpt>
      <trkpt lat="49.54935" lon="5.72231">
        <ele>338.8</ele>
        <time>1970-01-01T00:07:41.000Z</time>
      </trkpt>
      <trkpt lat="49.54934" lon="5.72233">
        <ele>339</ele>
        <time>1970-01-01T00:07:42.000Z</time>
      </trkpt>
      <trkpt lat="49.54934" lon="5.72235">
        <ele>339.2</ele>
        <time>1970-01-01T00:07:43.000Z</time>
      </trkpt>
      <trkpt lat="49.54934" lon="5.72236">
        <ele>339.2</ele>
        <time>1970-01-01T00:07:44.000Z</time>
      </trkpt>
      <trkpt lat="49.54934" lon="5.72237">
        <ele>339.4</ele>
        <time>1970-01-01T00:07:45.000Z</time>
      </trkpt>
      <trkpt lat="49.54934" lon="5.72239">
        <ele>339.6</ele>
        <time>1970-01-01T00:07:46.000Z</time>
      </trkpt>
      <trkpt lat="49.54934" lon="5.72241">
        <ele>339.8</ele>
        <time>1970-01-01T00:07:47.000Z</time>
      </trkpt>
      <trkpt lat="49.54934" lon="5.72243">
        <ele>340</ele>
        <time>1970-01-01T00:07:48.000Z</time>
      </trkpt>
      <trkpt lat="49.54934" lon="5.72245">
        <ele>340.4</ele>
        <time>1970-01-01T00:07:49.000Z</time>
      </trkpt>
      <trkpt lat="49.54934" lon="5.72247">
        <ele>340.6</ele>
        <time>1970-01-01T00:07:50.000Z</time>
      </trkpt>
      <trkpt lat="49.54934" lon="5.7225">
        <ele>341</ele>
        <time>1970-01-01T00:07:51.000Z</time>
      </trkpt>
      <trkpt lat="49.54935" lon="5.72252">
        <ele>341.2</ele>
        <time>1970-01-01T00:07:52.000Z</time>
      </trkpt>
      <trkpt lat="49.54935" lon="5.72253">
        <ele>341.4</ele>
        <time>1970-01-01T00:07:53.000Z</time>
      </trkpt>
      <trkpt lat="49.54935" lon="5.72255">
        <ele>341.8</ele>
        <time>1970-01-01T00:07:54.000Z</time>
      </trkpt>
      <trkpt lat="49.54935" lon="5.72256">
        <ele>342</ele>
        <time>1970-01-01T00:07:55.000Z</time>
      </trkpt>
      <trkpt lat="49.54934" lon="5.72258">
        <ele>342.2</ele>
        <time>1970-01-01T00:07:56.000Z</time>
      </trkpt>
      <trkpt lat="49.54935" lon="5.7226">
        <ele>342.4</ele>
        <time>1970-01-01T00:07:57.000Z</time>
      </trkpt>
      <trkpt lat="49.54937" lon="5.72262">
        <ele>342.6</ele>
        <time>1970-01-01T00:07:58.000Z</time>
      </trkpt>
      <trkpt lat="49.54937" lon="5.72263">
        <ele>342.8</ele>
        <time>1970-01-01T00:07:59.000Z</time>
      </trkpt>
      <trkpt lat="49.54937" lon="5.72266">
        <ele>343.4</ele>
        <time>1970-01-01T00:08:00.000Z</time>
      </trkpt>
      <trkpt lat="49.54938" lon="5.72269">
        <ele>343.8</ele>
        <time>1970-01-01T00:08:01.000Z</time>
      </trkpt>
      <trkpt lat="49.54938" lon="5.72272">
        <ele>344</ele>
        <time>1970-01-01T00:08:02.000Z</time>
      </trkpt>
      <trkpt lat="49.54938" lon="5.72274">
        <ele>344.4</ele>
        <time>1970-01-01T00:08:03.000Z</time>
      </trkpt>
      <trkpt lat="49.54937" lon="5.72275">
        <ele>344.6</ele>
        <time>1970-01-01T00:08:04.000Z</time>
      </trkpt>
      <trkpt lat="49.54937" lon="5.72278">
        <ele>345</ele>
        <time>1970-01-01T00:08:05.000Z</time>
      </trkpt>
      <trkpt lat="49.54937" lon="5.72282">
        <ele>345.4</ele>
        <time>1970-01-01T00:08:06.000Z</time>
      </trkpt>
      <trkpt lat="49.54937" lon="5.72284">
        <ele>345.8</ele>
        <time>1970-01-01T00:08:07.000Z</time>
      </trkpt>
      <trkpt lat="49.54938" lon="5.72287">
        <ele>346</ele>
        <time>1970-01-01T00:08:08.000Z</time>
      </trkpt>
      <trkpt lat="49.54939" lon="5.72289">
        <ele>346.2</ele>
        <time>1970-01-01T00:08:09.000Z</time>
      </trkpt>
      <trkpt lat="49.5494" lon="5.72291">
        <ele>346.4</ele>
        <time>1970-01-01T00:08:10.000Z</time>
      </trkpt>
      <trkpt lat="49.54941" lon="5.72294">
        <ele>346.6</ele>
        <time>1970-01-01T00:08:11.000Z</time>
      </trkpt>
      <trkpt lat="49.54942" lon="5.72296">
        <ele>346.8</ele>
        <time>1970-01-01T00:08:12.000Z</time>
      </trkpt>
      <trkpt lat="49.54943" lon="5.72299">
        <ele>347</ele>
        <time>1970-01-01T00:08:13.000Z</time>
      </trkpt>
      <trkpt lat="49.54944" lon="5.72301">
        <ele>347</ele>
        <time>1970-01-01T00:08:14.000Z</time>
      </trkpt>
      <trkpt lat="49.54945" lon="5.72302">
        <ele>347.2</ele>
        <time>1970-01-01T00:08:15.000Z</time>
      </trkpt>
      <trkpt lat="49.54946" lon="5.72304">
        <ele>347.4</ele>
        <time>1970-01-01T00:08:16.000Z</time>
      </trkpt>
      <trkpt lat="49.54948" lon="5.72306">
        <ele>347.6</ele>
        <time>1970-01-01T00:08:17.000Z</time>
      </trkpt>
      <trkpt lat="49.54948" lon="5.72309">
        <ele>347.8</ele>
        <time>1970-01-01T00:08:18.000Z</time>
      </trkpt>
      <trkpt lat="49.54948" lon="5.72311">
        <ele>348.2</ele>
        <time>1970-01-01T00:08:19.000Z</time>
      </trkpt>
      <trkpt lat="49.5495" lon="5.72313">
        <ele>348.4</ele>
        <time>1970-01-01T00:08:20.000Z</time>
      </trkpt>
      <trkpt lat="49.54949" lon="5.72316">
        <ele>348.4</ele>
        <time>1970-01-01T00:08:21.000Z</time>
      </trkpt>
      <trkpt lat="49.54948" lon="5.72319">
        <ele>348.6</ele>
        <time>1970-01-01T00:08:22.000Z</time>
      </trkpt>
      <trkpt lat="49.54946" lon="5.72319">
        <ele>348.6</ele>
        <time>1970-01-01T00:08:23.000Z</time>
      </trkpt>
      <trkpt lat="49.54945" lon="5.72319">
        <ele>348.8</ele>
        <time>1970-01-01T00:08:24.000Z</time>
      </trkpt>
      <trkpt lat="49.54944" lon="5.72318">
        <ele>349</ele>
        <time>1970-01-01T00:08:25.000Z</time>
      </trkpt>
      <trkpt lat="49.54943" lon="5.72315">
        <ele>349</ele>
        <time>1970-01-01T00:08:26.000Z</time>
      </trkpt>
      <trkpt lat="49.54942" lon="5.72314">
        <ele>349</ele>
        <time>1970-01-01T00:08:27.000Z</time>
      </trkpt>
      <trkpt lat="49.54941" lon="5.72313">
        <ele>349</ele>
        <time>1970-01-01T00:08:28.000Z</time>
      </trkpt>
      <trkpt lat="49.5494" lon="5.72311">
        <ele>349.2</ele>
        <time>1970-01-01T00:08:29.000Z</time>
      </trkpt>
      <trkpt lat="49.54939" lon="5.7231">
        <ele>349.2</ele>
        <time>1970-01-01T00:08:30.000Z</time>
      </trkpt>
      <trkpt lat="49.54938" lon="5.72308">
        <ele>349.2</ele>
        <time>1970-01-01T00:08:31.000Z</time>
      </trkpt>
      <trkpt lat="49.54938" lon="5.72307">
        <ele>349.4</ele>
        <time>1970-01-01T00:08:32.000Z</time>
      </trkpt>
      <trkpt lat="49.54936" lon="5.72304">
        <ele>349.4</ele>
        <time>1970-01-01T00:08:33.000Z</time>
      </trkpt>
      <trkpt lat="49.54934" lon="5.723">
        <ele>349.4</ele>
        <time>1970-01-01T00:08:34.000Z</time>
      </trkpt>
      <trkpt lat="49.54933" lon="5.72297">
        <ele>349.4</ele>
        <time>1970-01-01T00:08:35.000Z</time>
      </trkpt>
      <trkpt lat="49.54932" lon="5.72293">
        <ele>349.4</ele>
        <time>1970-01-01T00:08:36.000Z</time>
      </trkpt>
      <trkpt lat="49.54931" lon="5.72289">
        <ele>349.4</ele>
        <time>1970-01-01T00:08:37.000Z</time>
      </trkpt>
      <trkpt lat="49.54929" lon="5.72283">
        <ele>349.4</ele>
        <time>1970-01-01T00:08:38.000Z</time>
      </trkpt>
      <trkpt lat="49.54927" lon="5.72276">
        <ele>349.4</ele>
        <time>1970-01-01T00:08:39.000Z</time>
      </trkpt>
      <trkpt lat="49.54924" lon="5.7227">
        <ele>349.4</ele>
        <time>1970-01-01T00:08:40.000Z</time>
      </trkpt>
      <trkpt lat="49.54921" lon="5.72262">
        <ele>349.6</ele>
        <time>1970-01-01T00:08:41.000Z</time>
      </trkpt>
      <trkpt lat="49.54919" lon="5.72257">
        <ele>349.6</ele>
        <time>1970-01-01T00:08:42.000Z</time>
      </trkpt>
      <trkpt lat="49.54917" lon="5.72251">
        <ele>349.6</ele>
        <time>1970-01-01T00:08:43.000Z</time>
      </trkpt>
      <trkpt lat="49.54916" lon="5.72247">
        <ele>349.6</ele>
        <time>1970-01-01T00:08:44.000Z</time>
      </trkpt>
      <trkpt lat="49.54914" lon="5.7224">
        <ele>349.4</ele>
        <time>1970-01-01T00:08:45.000Z</time>
      </trkpt>
      <trkpt lat="49.54912" lon="5.72233">
        <ele>349.6</ele>
        <time>1970-01-01T00:08:46.000Z</time>
      </trkpt>
      <trkpt lat="49.54908" lon="5.72219">
        <ele>349.6</ele>
        <time>1970-01-01T00:08:48.000Z</time>
      </trkpt>
      <trkpt lat="49.54904" lon="5.72206">
        <ele>349.8</ele>
        <time>1970-01-01T00:08:50.000Z</time>
      </trkpt>
      <trkpt lat="49.54901" lon="5.72199">
        <ele>349.8</ele>
        <time>1970-01-01T00:08:51.000Z</time>
      </trkpt>
      <trkpt lat="49.54898" lon="5.72194">
        <ele>349.8</ele>
        <time>1970-01-01T00:08:52.000Z</time>
      </trkpt>
      <trkpt lat="49.54894" lon="5.72181">
        <ele>350</ele>
        <time>1970-01-01T00:08:54.000Z</time>
      </trkpt>
      <trkpt lat="49.54891" lon="5.72168">
        <ele>350</ele>
        <time>1970-01-01T00:08:55.000Z</time>
      </trkpt>
      <trkpt lat="49.54888" lon="5.72147">
        <ele>350</ele>
        <time>1970-01-01T00:08:57.000Z</time>
      </trkpt>
      <trkpt lat="49.54887" lon="5.72137">
        <ele>350</ele>
        <time>1970-01-01T00:08:58.000Z</time>
      </trkpt>
      <trkpt lat="49.54887" lon="5.72131">
        <ele>350</ele>
        <time>1970-01-01T00:08:59.000Z</time>
      </trkpt>
      <trkpt lat="49.54886" lon="5.72124">
        <ele>350</ele>
        <time>1970-01-01T00:09:00.000Z</time>
      </trkpt>
      <trkpt lat="49.54886" lon="5.72119">
        <ele>350</ele>
        <time>1970-01-01T00:09:01.000Z</time>
      </trkpt>
      <trkpt lat="49.54884" lon="5.72112">
        <ele>350</ele>
        <time>1970-01-01T00:09:02.000Z</time>
      </trkpt>
      <trkpt lat="49.54881" lon="5.72095">
        <ele>350.2</ele>
        <time>1970-01-01T00:09:04.000Z</time>
      </trkpt>
      <trkpt lat="49.54881" lon="5.7209">
        <ele>350.2</ele>
        <time>1970-01-01T00:09:05.000Z</time>
      </trkpt>
      <trkpt lat="49.54881" lon="5.72084">
        <ele>350.2</ele>
        <time>1970-01-01T00:09:06.000Z</time>
      </trkpt>
      <trkpt lat="49.54879" lon="5.72077">
        <ele>350.2</ele>
        <time>1970-01-01T00:09:07.000Z</time>
      </trkpt>
      <trkpt lat="49.54878" lon="5.72067">
        <ele>350.2</ele>
        <time>1970-01-01T00:09:08.000Z</time>
      </trkpt>
      <trkpt lat="49.54877" lon="5.72062">
        <ele>350.2</ele>
        <time>1970-01-01T00:09:09.000Z</time>
      </trkpt>
      <trkpt lat="49.54874" lon="5.72049">
        <ele>350.4</ele>
        <time>1970-01-01T00:09:11.000Z</time>
      </trkpt>
      <trkpt lat="49.54874" lon="5.72045">
        <ele>350.4</ele>
        <time>1970-01-01T00:09:12.000Z</time>
      </trkpt>
      <trkpt lat="49.54873" lon="5.72031">
        <ele>350.2</ele>
        <time>1970-01-01T00:09:14.000Z</time>
      </trkpt>
      <trkpt lat="49.54873" lon="5.72024">
        <ele>350.2</ele>
        <time>1970-01-01T00:09:15.000Z</time>
      </trkpt>
      <trkpt lat="49.54874" lon="5.72019">
        <ele>350.2</ele>
        <time>1970-01-01T00:09:16.000Z</time>
      </trkpt>
      <trkpt lat="49.54874" lon="5.72">
        <ele>350.4</ele>
        <time>1970-01-01T00:09:19.000Z</time>
      </trkpt>
      <trkpt lat="49.54873" lon="5.71984">
        <ele>350.4</ele>
        <time>1970-01-01T00:09:21.000Z</time>
      </trkpt>
      <trkpt lat="49.54873" lon="5.7198">
        <ele>350.4</ele>
        <time>1970-01-01T00:09:22.000Z</time>
      </trkpt>
      <trkpt lat="49.54875" lon="5.71972">
        <ele>350.4</ele>
        <time>1970-01-01T00:09:24.000Z</time>
      </trkpt>
      <trkpt lat="49.54877" lon="5.71968">
        <ele>350.6</ele>
        <time>1970-01-01T00:09:25.000Z</time>
      </trkpt>
      <trkpt lat="49.54879" lon="5.71964">
        <ele>350.4</ele>
        <time>1970-01-01T00:09:26.000Z</time>
      </trkpt>
      <trkpt lat="49.54881" lon="5.71959">
        <ele>350.2</ele>
        <time>1970-01-01T00:09:27.000Z</time>
      </trkpt>
      <trkpt lat="49.54887" lon="5.71943">
        <ele>350.2</ele>
        <time>1970-01-01T00:09:30.000Z</time>
      </trkpt>
      <trkpt lat="49.54888" lon="5.71936">
        <ele>350</ele>
        <time>1970-01-01T00:09:31.000Z</time>
      </trkpt>
      <trkpt lat="49.54889" lon="5.71928">
        <ele>350</ele>
        <time>1970-01-01T00:09:32.000Z</time>
      </trkpt>
      <trkpt lat="49.54889" lon="5.7192">
        <ele>350</ele>
        <time>1970-01-01T00:09:33.000Z</time>
      </trkpt>
      <trkpt lat="49.5489" lon="5.71911">
        <ele>350</ele>
        <time>1970-01-01T00:09:34.000Z</time>
      </trkpt>
      <trkpt lat="49.54891" lon="5.71895">
        <ele>349.8</ele>
        <time>1970-01-01T00:09:36.000Z</time>
      </trkpt>
      <trkpt lat="49.54891" lon="5.71878">
        <ele>349.8</ele>
        <time>1970-01-01T00:09:38.000Z</time>
      </trkpt>
      <trkpt lat="49.54891" lon="5.7187">
        <ele>349.6</ele>
        <time>1970-01-01T00:09:39.000Z</time>
      </trkpt>
      <trkpt lat="49.54891" lon="5.71856">
        <ele>349.6</ele>
        <time>1970-01-01T00:09:41.000Z</time>
      </trkpt>
      <trkpt lat="49.54891" lon="5.71849">
        <ele>349.6</ele>
        <time>1970-01-01T00:09:42.000Z</time>
      </trkpt>
      <trkpt lat="49.54891" lon="5.71842">
        <ele>349.4</ele>
        <time>1970-01-01T00:09:43.000Z</time>
      </trkpt>
      <trkpt lat="49.5489" lon="5.71835">
        <ele>349.4</ele>
        <time>1970-01-01T00:09:44.000Z</time>
      </trkpt>
      <trkpt lat="49.5489" lon="5.71829">
        <ele>349.4</ele>
        <time>1970-01-01T00:09:45.000Z</time>
      </trkpt>
      <trkpt lat="49.5489" lon="5.71825">
        <ele>349.4</ele>
        <time>1970-01-01T00:09:46.000Z</time>
      </trkpt>
      <trkpt lat="49.54891" lon="5.71821">
        <ele>349.2</ele>
        <time>1970-01-01T00:09:47.000Z</time>
      </trkpt>
      <trkpt lat="49.54891" lon="5.71816">
        <ele>349.2</ele>
        <time>1970-01-01T00:09:48.000Z</time>
      </trkpt>
      <trkpt lat="49.54894" lon="5.71811">
        <ele>349.2</ele>
        <time>1970-01-01T00:09:49.000Z</time>
      </trkpt>
      <trkpt lat="49.54897" lon="5.71808">
        <ele>349.2</ele>
        <time>1970-01-01T00:09:50.000Z</time>
      </trkpt>
      <trkpt lat="49.54898" lon="5.71804">
        <ele>349.2</ele>
        <time>1970-01-01T00:09:51.000Z</time>
      </trkpt>
      <trkpt lat="49.54898" lon="5.71799">
        <ele>349.2</ele>
        <time>1970-01-01T00:09:52.000Z</time>
      </trkpt>
      <trkpt lat="49.54899" lon="5.71793">
        <ele>349.2</ele>
        <time>1970-01-01T00:09:53.000Z</time>
      </trkpt>
      <trkpt lat="49.54899" lon="5.71785">
        <ele>349.2</ele>
        <time>1970-01-01T00:09:54.000Z</time>
      </trkpt>
      <trkpt lat="49.549" lon="5.71778">
        <ele>349.2</ele>
        <time>1970-01-01T00:09:55.000Z</time>
      </trkpt>
      <trkpt lat="49.54902" lon="5.7177">
        <ele>349</ele>
        <time>1970-01-01T00:09:56.000Z</time>
      </trkpt>
      <trkpt lat="49.54905" lon="5.71764">
        <ele>349</ele>
        <time>1970-01-01T00:09:57.000Z</time>
      </trkpt>
      <trkpt lat="49.54907" lon="5.71758">
        <ele>348.8</ele>
        <time>1970-01-01T00:09:58.000Z</time>
      </trkpt>
      <trkpt lat="49.5491" lon="5.71749">
        <ele>348.6</ele>
        <time>1970-01-01T00:09:59.000Z</time>
      </trkpt>
      <trkpt lat="49.54912" lon="5.71742">
        <ele>348.4</ele>
        <time>1970-01-01T00:10:00.000Z</time>
      </trkpt>
      <trkpt lat="49.54913" lon="5.7173">
        <ele>347.8</ele>
        <time>1970-01-01T00:10:01.000Z</time>
      </trkpt>
      <trkpt lat="49.54914" lon="5.71723">
        <ele>347.4</ele>
        <time>1970-01-01T00:10:02.000Z</time>
      </trkpt>
      <trkpt lat="49.54916" lon="5.71717">
        <ele>346.8</ele>
        <time>1970-01-01T00:10:03.000Z</time>
      </trkpt>
      <trkpt lat="49.54919" lon="5.7171">
        <ele>346.6</ele>
        <time>1970-01-01T00:10:04.000Z</time>
      </trkpt>
      <trkpt lat="49.54921" lon="5.71707">
        <ele>346</ele>
        <time>1970-01-01T00:10:05.000Z</time>
      </trkpt>
      <trkpt lat="49.5492" lon="5.71702">
        <ele>345.8</ele>
        <time>1970-01-01T00:10:06.000Z</time>
      </trkpt>
      <trkpt lat="49.5492" lon="5.71697">
        <ele>345.4</ele>
        <time>1970-01-01T00:10:07.000Z</time>
      </trkpt>
      <trkpt lat="49.5492" lon="5.71692">
        <ele>344.8</ele>
        <time>1970-01-01T00:10:08.000Z</time>
      </trkpt>
      <trkpt lat="49.54921" lon="5.71686">
        <ele>344.8</ele>
        <time>1970-01-01T00:10:09.000Z</time>
      </trkpt>
      <trkpt lat="49.54921" lon="5.71679">
        <ele>344.4</ele>
        <time>1970-01-01T00:10:10.000Z</time>
      </trkpt>
      <trkpt lat="49.5492" lon="5.71674">
        <ele>344.2</ele>
        <time>1970-01-01T00:10:11.000Z</time>
      </trkpt>
      <trkpt lat="49.54921" lon="5.7167">
        <ele>343.8</ele>
        <time>1970-01-01T00:10:12.000Z</time>
      </trkpt>
      <trkpt lat="49.54921" lon="5.71667">
        <ele>343.6</ele>
        <time>1970-01-01T00:10:13.000Z</time>
      </trkpt>
      <trkpt lat="49.54921" lon="5.71666">
        <ele>343.4</ele>
        <time>1970-01-01T00:10:14.000Z</time>
      </trkpt>
      <trkpt lat="49.54918" lon="5.71667">
        <ele>343.4</ele>
        <time>1970-01-01T00:10:15.000Z</time>
      </trkpt>
      <trkpt lat="49.54916" lon="5.71669">
        <ele>343.2</ele>
        <time>1970-01-01T00:10:16.000Z</time>
      </trkpt>
      <trkpt lat="49.54916" lon="5.71672">
        <ele>343</ele>
        <time>1970-01-01T00:10:17.000Z</time>
      </trkpt>
      <trkpt lat="49.54915" lon="5.71674">
        <ele>343</ele>
        <time>1970-01-01T00:10:18.000Z</time>
      </trkpt>
      <trkpt lat="49.54913" lon="5.71678">
        <ele>343</ele>
        <time>1970-01-01T00:10:20.000Z</time>
      </trkpt>
      <trkpt lat="49.54912" lon="5.71679">
        <ele>343.2</ele>
        <time>1970-01-01T00:10:21.000Z</time>
      </trkpt>
      <trkpt lat="49.54911" lon="5.71681">
        <ele>343.2</ele>
        <time>1970-01-01T00:10:22.000Z</time>
      </trkpt>
      <trkpt lat="49.5491" lon="5.71683">
        <ele>343.4</ele>
        <time>1970-01-01T00:10:23.000Z</time>
      </trkpt>
      <trkpt lat="49.54909" lon="5.71685">
        <ele>343.6</ele>
        <time>1970-01-01T00:10:24.000Z</time>
      </trkpt>
      <trkpt lat="49.54907" lon="5.71687">
        <ele>344</ele>
        <time>1970-01-01T00:10:25.000Z</time>
      </trkpt>
      <trkpt lat="49.54904" lon="5.71692">
        <ele>345.2</ele>
        <time>1970-01-01T00:10:28.000Z</time>
      </trkpt>
      <trkpt lat="49.54903" lon="5.71694">
        <ele>345.4</ele>
        <time>1970-01-01T00:10:29.000Z</time>
      </trkpt>
      <trkpt lat="49.54902" lon="5.71695">
        <ele>345.8</ele>
        <time>1970-01-01T00:10:30.000Z</time>
      </trkpt>
      <trkpt lat="49.54901" lon="5.71698">
        <ele>346</ele>
        <time>1970-01-01T00:10:31.000Z</time>
      </trkpt>
      <trkpt lat="49.54901" lon="5.71701">
        <ele>346.2</ele>
        <time>1970-01-01T00:10:32.000Z</time>
      </trkpt>
      <trkpt lat="49.549" lon="5.71703">
        <ele>346.6</ele>
        <time>1970-01-01T00:10:33.000Z</time>
      </trkpt>
      <trkpt lat="49.54899" lon="5.71706">
        <ele>347</ele>
        <time>1970-01-01T00:10:34.000Z</time>
      </trkpt>
      <trkpt lat="49.54899" lon="5.71708">
        <ele>347.4</ele>
        <time>1970-01-01T00:10:35.000Z</time>
      </trkpt>
      <trkpt lat="49.54899" lon="5.71712">
        <ele>348</ele>
        <time>1970-01-01T00:10:37.000Z</time>
      </trkpt>
      <trkpt lat="49.54896" lon="5.71718">
        <ele>348.2</ele>
        <time>1970-01-01T00:10:39.000Z</time>
      </trkpt>
      <trkpt lat="49.54896" lon="5.71721">
        <ele>348.2</ele>
        <time>1970-01-01T00:10:40.000Z</time>
      </trkpt>
      <trkpt lat="49.54895" lon="5.71723">
        <ele>348.4</ele>
        <time>1970-01-01T00:10:41.000Z</time>
      </trkpt>
      <trkpt lat="49.54894" lon="5.71726">
        <ele>349</ele>
        <time>1970-01-01T00:10:42.000Z</time>
      </trkpt>
      <trkpt lat="49.54894" lon="5.7173">
        <ele>349.2</ele>
        <time>1970-01-01T00:10:43.000Z</time>
      </trkpt>
      <trkpt lat="49.54894" lon="5.71732">
        <ele>349.6</ele>
        <time>1970-01-01T00:10:44.000Z</time>
      </trkpt>
      <trkpt lat="49.54893" lon="5.71735">
        <ele>349.8</ele>
        <time>1970-01-01T00:10:45.000Z</time>
      </trkpt>
      <trkpt lat="49.54892" lon="5.71739">
        <ele>350</ele>
        <time>1970-01-01T00:10:46.000Z</time>
      </trkpt>
      <trkpt lat="49.54892" lon="5.71742">
        <ele>350</ele>
        <time>1970-01-01T00:10:47.000Z</time>
      </trkpt>
      <trkpt lat="49.5489" lon="5.71746">
        <ele>350.2</ele>
        <time>1970-01-01T00:10:48.000Z</time>
      </trkpt>
      <trkpt lat="49.5489" lon="5.71749">
        <ele>350.4</ele>
        <time>1970-01-01T00:10:49.000Z</time>
      </trkpt>
      <trkpt lat="49.54888" lon="5.71751">
        <ele>350.8</ele>
        <time>1970-01-01T00:10:50.000Z</time>
      </trkpt>
      <trkpt lat="49.54888" lon="5.71754">
        <ele>351</ele>
        <time>1970-01-01T00:10:51.000Z</time>
      </trkpt>
      <trkpt lat="49.54886" lon="5.71756">
        <ele>351</ele>
        <time>1970-01-01T00:10:52.000Z</time>
      </trkpt>
      <trkpt lat="49.54884" lon="5.71757">
        <ele>351.2</ele>
        <time>1970-01-01T00:10:53.000Z</time>
      </trkpt>
      <trkpt lat="49.54883" lon="5.71759">
        <ele>351.2</ele>
        <time>1970-01-01T00:10:54.000Z</time>
      </trkpt>
      <trkpt lat="49.54882" lon="5.7176">
        <ele>351.4</ele>
        <time>1970-01-01T00:10:55.000Z</time>
      </trkpt>
      <trkpt lat="49.54881" lon="5.71762">
        <ele>351.4</ele>
        <time>1970-01-01T00:10:56.000Z</time>
      </trkpt>
      <trkpt lat="49.5488" lon="5.71763">
        <ele>351.8</ele>
        <time>1970-01-01T00:10:57.000Z</time>
      </trkpt>
      <trkpt lat="49.54878" lon="5.71764">
        <ele>351.8</ele>
        <time>1970-01-01T00:10:58.000Z</time>
      </trkpt>
      <trkpt lat="49.54877" lon="5.71765">
        <ele>352.2</ele>
        <time>1970-01-01T00:10:59.000Z</time>
      </trkpt>
      <trkpt lat="49.54876" lon="5.71767">
        <ele>353</ele>
        <time>1970-01-01T00:11:00.000Z</time>
      </trkpt>
      <trkpt lat="49.54874" lon="5.71768">
        <ele>353.2</ele>
        <time>1970-01-01T00:11:01.000Z</time>
      </trkpt>
      <trkpt lat="49.54874" lon="5.71769">
        <ele>353.6</ele>
        <time>1970-01-01T00:11:02.000Z</time>
      </trkpt>
      <trkpt lat="49.54873" lon="5.7177">
        <ele>353.8</ele>
        <time>1970-01-01T00:11:03.000Z</time>
      </trkpt>
      <trkpt lat="49.54872" lon="5.71772">
        <ele>354.4</ele>
        <time>1970-01-01T00:11:04.000Z</time>
      </trkpt>
      <trkpt lat="49.54871" lon="5.71774">
        <ele>354.8</ele>
        <time>1970-01-01T00:11:05.000Z</time>
      </trkpt>
      <trkpt lat="49.5487" lon="5.71776">
        <ele>355</ele>
        <time>1970-01-01T00:11:06.000Z</time>
      </trkpt>
      <trkpt lat="49.5487" lon="5.71778">
        <ele>355.2</ele>
        <time>1970-01-01T00:11:07.000Z</time>
      </trkpt>
      <trkpt lat="49.54869" lon="5.7178">
        <ele>355.4</ele>
        <time>1970-01-01T00:11:08.000Z</time>
      </trkpt>
      <trkpt lat="49.54869" lon="5.71782">
        <ele>355.8</ele>
        <time>1970-01-01T00:11:09.000Z</time>
      </trkpt>
      <trkpt lat="49.54868" lon="5.71785">
        <ele>355.8</ele>
        <time>1970-01-01T00:11:10.000Z</time>
      </trkpt>
      <trkpt lat="49.54868" lon="5.71788">
        <ele>356.2</ele>
        <time>1970-01-01T00:11:11.000Z</time>
      </trkpt>
      <trkpt lat="49.54867" lon="5.71791">
        <ele>356.4</ele>
        <time>1970-01-01T00:11:12.000Z</time>
      </trkpt>
      <trkpt lat="49.54866" lon="5.71795">
        <ele>356.6</ele>
        <time>1970-01-01T00:11:13.000Z</time>
      </trkpt>
      <trkpt lat="49.54865" lon="5.71798">
        <ele>356.8</ele>
        <time>1970-01-01T00:11:14.000Z</time>
      </trkpt>
      <trkpt lat="49.54864" lon="5.71801">
        <ele>357</ele>
        <time>1970-01-01T00:11:15.000Z</time>
      </trkpt>
      <trkpt lat="49.54864" lon="5.71804">
        <ele>357.2</ele>
        <time>1970-01-01T00:11:16.000Z</time>
      </trkpt>
      <trkpt lat="49.54864" lon="5.71807">
        <ele>357.4</ele>
        <time>1970-01-01T00:11:17.000Z</time>
      </trkpt>
      <trkpt lat="49.54863" lon="5.71811">
        <ele>357.4</ele>
        <time>1970-01-01T00:11:18.000Z</time>
      </trkpt>
      <trkpt lat="49.54863" lon="5.71813">
        <ele>357.6</ele>
        <time>1970-01-01T00:11:19.000Z</time>
      </trkpt>
      <trkpt lat="49.54863" lon="5.71815">
        <ele>357.8</ele>
        <time>1970-01-01T00:11:20.000Z</time>
      </trkpt>
      <trkpt lat="49.54863" lon="5.71817">
        <ele>358</ele>
        <time>1970-01-01T00:11:21.000Z</time>
      </trkpt>
      <trkpt lat="49.54862" lon="5.7182">
        <ele>358.4</ele>
        <time>1970-01-01T00:11:22.000Z</time>
      </trkpt>
      <trkpt lat="49.54862" lon="5.71823">
        <ele>358.4</ele>
        <time>1970-01-01T00:11:23.000Z</time>
      </trkpt>
      <trkpt lat="49.54861" lon="5.71826">
        <ele>358.8</ele>
        <time>1970-01-01T00:11:24.000Z</time>
      </trkpt>
      <trkpt lat="49.5486" lon="5.71828">
        <ele>359.2</ele>
        <time>1970-01-01T00:11:25.000Z</time>
      </trkpt>
      <trkpt lat="49.5486" lon="5.7183">
        <ele>359.2</ele>
        <time>1970-01-01T00:11:26.000Z</time>
      </trkpt>
      <trkpt lat="49.5486" lon="5.71831">
        <ele>359.4</ele>
        <time>1970-01-01T00:11:27.000Z</time>
      </trkpt>
      <trkpt lat="49.54858" lon="5.71833">
        <ele>359.6</ele>
        <time>1970-01-01T00:11:28.000Z</time>
      </trkpt>
      <trkpt lat="49.54857" lon="5.71835">
        <ele>359.8</ele>
        <time>1970-01-01T00:11:29.000Z</time>
      </trkpt>
      <trkpt lat="49.54857" lon="5.71837">
        <ele>360</ele>
        <time>1970-01-01T00:11:30.000Z</time>
      </trkpt>
      <trkpt lat="49.54857" lon="5.71839">
        <ele>360.4</ele>
        <time>1970-01-01T00:11:31.000Z</time>
      </trkpt>
      <trkpt lat="49.54856" lon="5.7184">
        <ele>360.4</ele>
        <time>1970-01-01T00:11:32.000Z</time>
      </trkpt>
      <trkpt lat="49.54856" lon="5.71841">
        <ele>360.8</ele>
        <time>1970-01-01T00:11:33.000Z</time>
      </trkpt>
      <trkpt lat="49.54855" lon="5.71843">
        <ele>361.4</ele>
        <time>1970-01-01T00:11:34.000Z</time>
      </trkpt>
      <trkpt lat="49.54855" lon="5.71844">
        <ele>361.6</ele>
        <time>1970-01-01T00:11:35.000Z</time>
      </trkpt>
      <trkpt lat="49.54855" lon="5.71846">
        <ele>361.8</ele>
        <time>1970-01-01T00:11:36.000Z</time>
      </trkpt>
      <trkpt lat="49.54854" lon="5.71848">
        <ele>362</ele>
        <time>1970-01-01T00:11:37.000Z</time>
      </trkpt>
      <trkpt lat="49.54854" lon="5.71849">
        <ele>362.2</ele>
        <time>1970-01-01T00:11:38.000Z</time>
      </trkpt>
      <trkpt lat="49.54853" lon="5.7185">
        <ele>362.2</ele>
        <time>1970-01-01T00:11:39.000Z</time>
      </trkpt>
      <trkpt lat="49.54853" lon="5.71852">
        <ele>362.8</ele>
        <time>1970-01-01T00:11:40.000Z</time>
      </trkpt>
      <trkpt lat="49.54853" lon="5.71853">
        <ele>363</ele>
        <time>1970-01-01T00:11:41.000Z</time>
      </trkpt>
      <trkpt lat="49.54853" lon="5.71855">
        <ele>363.2</ele>
        <time>1970-01-01T00:11:42.000Z</time>
      </trkpt>
      <trkpt lat="49.54852" lon="5.71857">
        <ele>363.6</ele>
        <time>1970-01-01T00:11:43.000Z</time>
      </trkpt>
      <trkpt lat="49.54852" lon="5.71859">
        <ele>363.8</ele>
        <time>1970-01-01T00:11:44.000Z</time>
      </trkpt>
      <trkpt lat="49.54851" lon="5.71861">
        <ele>364.2</ele>
        <time>1970-01-01T00:11:45.000Z</time>
      </trkpt>
      <trkpt lat="49.5485" lon="5.71863">
        <ele>364.4</ele>
        <time>1970-01-01T00:11:46.000Z</time>
      </trkpt>
      <trkpt lat="49.54849" lon="5.71865">
        <ele>365</ele>
        <time>1970-01-01T00:11:47.000Z</time>
      </trkpt>
      <trkpt lat="49.54848" lon="5.71867">
        <ele>365</ele>
        <time>1970-01-01T00:11:48.000Z</time>
      </trkpt>
      <trkpt lat="49.54847" lon="5.7187">
        <ele>365.6</ele>
        <time>1970-01-01T00:11:49.000Z</time>
      </trkpt>
      <trkpt lat="49.54847" lon="5.71872">
        <ele>365.6</ele>
        <time>1970-01-01T00:11:50.000Z</time>
      </trkpt>
      <trkpt lat="49.54847" lon="5.71874">
        <ele>365.8</ele>
        <time>1970-01-01T00:11:51.000Z</time>
      </trkpt>
      <trkpt lat="49.54846" lon="5.71876">
        <ele>366</ele>
        <time>1970-01-01T00:11:52.000Z</time>
      </trkpt>
      <trkpt lat="49.54845" lon="5.71878">
        <ele>366.2</ele>
        <time>1970-01-01T00:11:53.000Z</time>
      </trkpt>
      <trkpt lat="49.54845" lon="5.71881">
        <ele>366.4</ele>
        <time>1970-01-01T00:11:54.000Z</time>
      </trkpt>
      <trkpt lat="49.54845" lon="5.71882">
        <ele>366.4</ele>
        <time>1970-01-01T00:11:55.000Z</time>
      </trkpt>
      <trkpt lat="49.54845" lon="5.71884">
        <ele>366.8</ele>
        <time>1970-01-01T00:11:56.000Z</time>
      </trkpt>
      <trkpt lat="49.54845" lon="5.71885">
        <ele>367</ele>
        <time>1970-01-01T00:11:57.000Z</time>
      </trkpt>
      <trkpt lat="49.54844" lon="5.71887">
        <ele>367.4</ele>
        <time>1970-01-01T00:11:58.000Z</time>
      </trkpt>
      <trkpt lat="49.54844" lon="5.7189">
        <ele>367.6</ele>
        <time>1970-01-01T00:11:59.000Z</time>
      </trkpt>
      <trkpt lat="49.54843" lon="5.71892">
        <ele>367.8</ele>
        <time>1970-01-01T00:12:00.000Z</time>
      </trkpt>
      <trkpt lat="49.54841" lon="5.71895">
        <ele>368</ele>
        <time>1970-01-01T00:12:01.000Z</time>
      </trkpt>
      <trkpt lat="49.5484" lon="5.71899">
        <ele>368</ele>
        <time>1970-01-01T00:12:02.000Z</time>
      </trkpt>
      <trkpt lat="49.54839" lon="5.71903">
        <ele>368.4</ele>
        <time>1970-01-01T00:12:03.000Z</time>
      </trkpt>
      <trkpt lat="49.54838" lon="5.71906">
        <ele>368.8</ele>
        <time>1970-01-01T00:12:04.000Z</time>
      </trkpt>
      <trkpt lat="49.54837" lon="5.71909">
        <ele>369</ele>
        <time>1970-01-01T00:12:05.000Z</time>
      </trkpt>
      <trkpt lat="49.54837" lon="5.71911">
        <ele>369</ele>
        <time>1970-01-01T00:12:06.000Z</time>
      </trkpt>
      <trkpt lat="49.54836" lon="5.71914">
        <ele>369.6</ele>
        <time>1970-01-01T00:12:07.000Z</time>
      </trkpt>
      <trkpt lat="49.54836" lon="5.71916">
        <ele>370</ele>
        <time>1970-01-01T00:12:08.000Z</time>
      </trkpt>
      <trkpt lat="49.54835" lon="5.71919">
        <ele>370</ele>
        <time>1970-01-01T00:12:09.000Z</time>
      </trkpt>
      <trkpt lat="49.54835" lon="5.71922">
        <ele>370.2</ele>
        <time>1970-01-01T00:12:10.000Z</time>
      </trkpt>
      <trkpt lat="49.54834" lon="5.71925">
        <ele>370.4</ele>
        <time>1970-01-01T00:12:11.000Z</time>
      </trkpt>
      <trkpt lat="49.54835" lon="5.71927">
        <ele>370.6</ele>
        <time>1970-01-01T00:12:12.000Z</time>
      </trkpt>
      <trkpt lat="49.54835" lon="5.71928">
        <ele>370.6</ele>
        <time>1970-01-01T00:12:13.000Z</time>
      </trkpt>
      <trkpt lat="49.54836" lon="5.7193">
        <ele>370.8</ele>
        <time>1970-01-01T00:12:14.000Z</time>
      </trkpt>
      <trkpt lat="49.54836" lon="5.71932">
        <ele>370.8</ele>
        <time>1970-01-01T00:12:15.000Z</time>
      </trkpt>
      <trkpt lat="49.54834" lon="5.71936">
        <ele>371</ele>
        <time>1970-01-01T00:12:16.000Z</time>
      </trkpt>
      <trkpt lat="49.54834" lon="5.71938">
        <ele>371.2</ele>
        <time>1970-01-01T00:12:17.000Z</time>
      </trkpt>
      <trkpt lat="49.54833" lon="5.7194">
        <ele>371.4</ele>
        <time>1970-01-01T00:12:18.000Z</time>
      </trkpt>
      <trkpt lat="49.54832" lon="5.71942">
        <ele>371.6</ele>
        <time>1970-01-01T00:12:19.000Z</time>
      </trkpt>
      <trkpt lat="49.54831" lon="5.71943">
        <ele>371.8</ele>
        <time>1970-01-01T00:12:20.000Z</time>
      </trkpt>
      <trkpt lat="49.5483" lon="5.71945">
        <ele>372</ele>
        <time>1970-01-01T00:12:21.000Z</time>
      </trkpt>
      <trkpt lat="49.54829" lon="5.71947">
        <ele>372.2</ele>
        <time>1970-01-01T00:12:22.000Z</time>
      </trkpt>
      <trkpt lat="49.54827" lon="5.71949">
        <ele>372.2</ele>
        <time>1970-01-01T00:12:23.000Z</time>
      </trkpt>
      <trkpt lat="49.54825" lon="5.71951">
        <ele>372.4</ele>
        <time>1970-01-01T00:12:24.000Z</time>
      </trkpt>
      <trkpt lat="49.54824" lon="5.71952">
        <ele>372.8</ele>
        <time>1970-01-01T00:12:25.000Z</time>
      </trkpt>
      <trkpt lat="49.54823" lon="5.71954">
        <ele>373.2</ele>
        <time>1970-01-01T00:12:26.000Z</time>
      </trkpt>
      <trkpt lat="49.54822" lon="5.71955">
        <ele>373.4</ele>
        <time>1970-01-01T00:12:27.000Z</time>
      </trkpt>
      <trkpt lat="49.5482" lon="5.71957">
        <ele>373.6</ele>
        <time>1970-01-01T00:12:28.000Z</time>
      </trkpt>
      <trkpt lat="49.54818" lon="5.71959">
        <ele>373.8</ele>
        <time>1970-01-01T00:12:29.000Z</time>
      </trkpt>
      <trkpt lat="49.54816" lon="5.71961">
        <ele>374.2</ele>
        <time>1970-01-01T00:12:30.000Z</time>
      </trkpt>
      <trkpt lat="49.54815" lon="5.71962">
        <ele>374.4</ele>
        <time>1970-01-01T00:12:31.000Z</time>
      </trkpt>
      <trkpt lat="49.54813" lon="5.71963">
        <ele>374.6</ele>
        <time>1970-01-01T00:12:32.000Z</time>
      </trkpt>
      <trkpt lat="49.54812" lon="5.71965">
        <ele>374.6</ele>
        <time>1970-01-01T00:12:33.000Z</time>
      </trkpt>
      <trkpt lat="49.5481" lon="5.71966">
        <ele>374.8</ele>
        <time>1970-01-01T00:12:34.000Z</time>
      </trkpt>
      <trkpt lat="49.54808" lon="5.71968">
        <ele>375.2</ele>
        <time>1970-01-01T00:12:35.000Z</time>
      </trkpt>
      <trkpt lat="49.54807" lon="5.71969">
        <ele>375.2</ele>
        <time>1970-01-01T00:12:36.000Z</time>
      </trkpt>
      <trkpt lat="49.54806" lon="5.7197">
        <ele>375.6</ele>
        <time>1970-01-01T00:12:37.000Z</time>
      </trkpt>
      <trkpt lat="49.54805" lon="5.7197">
        <ele>375.6</ele>
        <time>1970-01-01T00:12:38.000Z</time>
      </trkpt>
      <trkpt lat="49.54804" lon="5.71972">
        <ele>376</ele>
        <time>1970-01-01T00:12:39.000Z</time>
      </trkpt>
      <trkpt lat="49.54802" lon="5.71973">
        <ele>376.2</ele>
        <time>1970-01-01T00:12:40.000Z</time>
      </trkpt>
      <trkpt lat="49.54801" lon="5.71974">
        <ele>376.8</ele>
        <time>1970-01-01T00:12:41.000Z</time>
      </trkpt>
      <trkpt lat="49.548" lon="5.71974">
        <ele>377.2</ele>
        <time>1970-01-01T00:12:42.000Z</time>
      </trkpt>
      <trkpt lat="49.54799" lon="5.71974">
        <ele>377.2</ele>
        <time>1970-01-01T00:12:43.000Z</time>
      </trkpt>
      <trkpt lat="49.54798" lon="5.71975">
        <ele>377.4</ele>
        <time>1970-01-01T00:12:44.000Z</time>
      </trkpt>
      <trkpt lat="49.54796" lon="5.71975">
        <ele>377.6</ele>
        <time>1970-01-01T00:12:45.000Z</time>
      </trkpt>
      <trkpt lat="49.54795" lon="5.71976">
        <ele>378</ele>
        <time>1970-01-01T00:12:46.000Z</time>
      </trkpt>
      <trkpt lat="49.54794" lon="5.71976">
        <ele>378.4</ele>
        <time>1970-01-01T00:12:47.000Z</time>
      </trkpt>
      <trkpt lat="49.54793" lon="5.71977">
        <ele>378.6</ele>
        <time>1970-01-01T00:12:48.000Z</time>
      </trkpt>
      <trkpt lat="49.54792" lon="5.71978">
        <ele>378.8</ele>
        <time>1970-01-01T00:12:49.000Z</time>
      </trkpt>
      <trkpt lat="49.54791" lon="5.71979">
        <ele>379</ele>
        <time>1970-01-01T00:12:50.000Z</time>
      </trkpt>
      <trkpt lat="49.54791" lon="5.71981">
        <ele>379.2</ele>
        <time>1970-01-01T00:12:51.000Z</time>
      </trkpt>
      <trkpt lat="49.54788" lon="5.71989">
        <ele>388.8</ele>
      </trkpt>
      <trkpt lat="49.54781" lon="5.71904">
        <ele>389.7</ele>
      </trkpt>
      <trkpt lat="49.5478" lon="5.71836">
        <ele>389.9</ele>
      </trkpt>
      <trkpt lat="49.54807" lon="5.71675">
        <ele>390.7</ele>
      </trkpt>
      <trkpt lat="49.54838" lon="5.71592">
        <ele>385.3</ele>
      </trkpt>
      <trkpt lat="49.54865" lon="5.71468">
        <ele>379.9</ele>
      </trkpt>
      <trkpt lat="49.54888" lon="5.71325">
        <ele>373.9</ele>
      </trkpt>
      <trkpt lat="49.54875" lon="5.71326">
        <ele>376.3</ele>
      </trkpt>
      <trkpt lat="49.54855" lon="5.71308">
        <ele>379</ele>
      </trkpt>
      <trkpt lat="49.5481" lon="5.71189">
        <ele>383.9</ele>
      </trkpt>
      <trkpt lat="49.54763" lon="5.71123">
        <ele>385.8</ele>
      </trkpt>
      <trkpt lat="49.54754" lon="5.71123">
        <ele>386.4</ele>
      </trkpt>
      <trkpt lat="49.54741" lon="5.71143">
        <ele>394.3</ele>
      </trkpt>
      <trkpt lat="49.54733" lon="5.71154">
        <ele>379</ele>
        <time>1970-01-01T00:25:33.000Z</time>
      </trkpt>
      <trkpt lat="49.54731" lon="5.71153">
        <ele>379</ele>
        <time>1970-01-01T00:25:34.000Z</time>
      </trkpt>
      <trkpt lat="49.54728" lon="5.71151">
        <ele>378.8</ele>
        <time>1970-01-01T00:25:35.000Z</time>
      </trkpt>
      <trkpt lat="49.54726" lon="5.71146">
        <ele>378.8</ele>
        <time>1970-01-01T00:25:36.000Z</time>
      </trkpt>
      <trkpt lat="49.54725" lon="5.71142">
        <ele>378.8</ele>
        <time>1970-01-01T00:25:37.000Z</time>
      </trkpt>
      <trkpt lat="49.54723" lon="5.71136">
        <ele>378.8</ele>
        <time>1970-01-01T00:25:38.000Z</time>
      </trkpt>
      <trkpt lat="49.5472" lon="5.71129">
        <ele>379</ele>
        <time>1970-01-01T00:25:40.000Z</time>
      </trkpt>
      <trkpt lat="49.54717" lon="5.7112">
        <ele>379</ele>
        <time>1970-01-01T00:25:42.000Z</time>
      </trkpt>
      <trkpt lat="49.54712" lon="5.71111">
        <ele>379.2</ele>
        <time>1970-01-01T00:25:44.000Z</time>
      </trkpt>
      <trkpt lat="49.54709" lon="5.71107">
        <ele>379.6</ele>
        <time>1970-01-01T00:25:45.000Z</time>
      </trkpt>
      <trkpt lat="49.54707" lon="5.71103">
        <ele>379.6</ele>
        <time>1970-01-01T00:25:46.000Z</time>
      </trkpt>
      <trkpt lat="49.54704" lon="5.71099">
        <ele>380</ele>
        <time>1970-01-01T00:25:47.000Z</time>
      </trkpt>
      <trkpt lat="49.54702" lon="5.71097">
        <ele>380.4</ele>
        <time>1970-01-01T00:25:48.000Z</time>
      </trkpt>
      <trkpt lat="49.54699" lon="5.71094">
        <ele>380.6</ele>
        <time>1970-01-01T00:25:49.000Z</time>
      </trkpt>
      <trkpt lat="49.54694" lon="5.71089">
        <ele>381</ele>
        <time>1970-01-01T00:25:51.000Z</time>
      </trkpt>
      <trkpt lat="49.54693" lon="5.71088">
        <ele>381.2</ele>
        <time>1970-01-01T00:25:52.000Z</time>
      </trkpt>
      <trkpt lat="49.5469" lon="5.71086">
        <ele>381.4</ele>
        <time>1970-01-01T00:25:53.000Z</time>
      </trkpt>
      <trkpt lat="49.54688" lon="5.71085">
        <ele>381.8</ele>
        <time>1970-01-01T00:25:54.000Z</time>
      </trkpt>
      <trkpt lat="49.54684" lon="5.71084">
        <ele>382</ele>
        <time>1970-01-01T00:25:55.000Z</time>
      </trkpt>
      <trkpt lat="49.54681" lon="5.71084">
        <ele>382.4</ele>
        <time>1970-01-01T00:25:56.000Z</time>
      </trkpt>
      <trkpt lat="49.54677" lon="5.71083">
        <ele>382.6</ele>
        <time>1970-01-01T00:25:57.000Z</time>
      </trkpt>
      <trkpt lat="49.54673" lon="5.71082">
        <ele>382.8</ele>
        <time>1970-01-01T00:25:58.000Z</time>
      </trkpt>
      <trkpt lat="49.5467" lon="5.71082">
        <ele>383</ele>
        <time>1970-01-01T00:25:59.000Z</time>
      </trkpt>
      <trkpt lat="49.54667" lon="5.71081">
        <ele>383</ele>
        <time>1970-01-01T00:26:00.000Z</time>
      </trkpt>
      <trkpt lat="49.54663" lon="5.71079">
        <ele>383.2</ele>
        <time>1970-01-01T00:26:01.000Z</time>
      </trkpt>
      <trkpt lat="49.54661" lon="5.71077">
        <ele>383.4</ele>
        <time>1970-01-01T00:26:02.000Z</time>
      </trkpt>
      <trkpt lat="49.54658" lon="5.71075">
        <ele>383.6</ele>
        <time>1970-01-01T00:26:03.000Z</time>
      </trkpt>
      <trkpt lat="49.54654" lon="5.71072">
        <ele>383.6</ele>
        <time>1970-01-01T00:26:04.000Z</time>
      </trkpt>
      <trkpt lat="49.54651" lon="5.71069">
        <ele>383.6</ele>
        <time>1970-01-01T00:26:05.000Z</time>
      </trkpt>
      <trkpt lat="49.54647" lon="5.71065">
        <ele>383.8</ele>
        <time>1970-01-01T00:26:06.000Z</time>
      </trkpt>
      <trkpt lat="49.54643" lon="5.71061">
        <ele>384</ele>
        <time>1970-01-01T00:26:07.000Z</time>
      </trkpt>
      <trkpt lat="49.5464" lon="5.71057">
        <ele>384</ele>
        <time>1970-01-01T00:26:08.000Z</time>
      </trkpt>
      <trkpt lat="49.54637" lon="5.71054">
        <ele>384</ele>
        <time>1970-01-01T00:26:09.000Z</time>
      </trkpt>
      <trkpt lat="49.54633" lon="5.7105">
        <ele>384.2</ele>
        <time>1970-01-01T00:26:10.000Z</time>
      </trkpt>
      <trkpt lat="49.54629" lon="5.71045">
        <ele>384.2</ele>
        <time>1970-01-01T00:26:11.000Z</time>
      </trkpt>
      <trkpt lat="49.54624" lon="5.71041">
        <ele>384.2</ele>
        <time>1970-01-01T00:26:12.000Z</time>
      </trkpt>
      <trkpt lat="49.5462" lon="5.71036">
        <ele>384.4</ele>
        <time>1970-01-01T00:26:13.000Z</time>
      </trkpt>
      <trkpt lat="49.54616" lon="5.71032">
        <ele>384.4</ele>
        <time>1970-01-01T00:26:14.000Z</time>
      </trkpt>
      <trkpt lat="49.54612" lon="5.71028">
        <ele>384.4</ele>
        <time>1970-01-01T00:26:15.000Z</time>
      </trkpt>
      <trkpt lat="49.54608" lon="5.71024">
        <ele>384.4</ele>
        <time>1970-01-01T00:26:16.000Z</time>
      </trkpt>
      <trkpt lat="49.54605" lon="5.71021">
        <ele>384.6</ele>
        <time>1970-01-01T00:26:17.000Z</time>
      </trkpt>
      <trkpt lat="49.54601" lon="5.71019">
        <ele>384.6</ele>
        <time>1970-01-01T00:26:18.000Z</time>
      </trkpt>
      <trkpt lat="49.54596" lon="5.71017">
        <ele>384.6</ele>
        <time>1970-01-01T00:26:19.000Z</time>
      </trkpt>
      <trkpt lat="49.54592" lon="5.71015">
        <ele>384.6</ele>
        <time>1970-01-01T00:26:20.000Z</time>
      </trkpt>
      <trkpt lat="49.54588" lon="5.71012">
        <ele>384.6</ele>
        <time>1970-01-01T00:26:21.000Z</time>
      </trkpt>
      <trkpt lat="49.54583" lon="5.71006">
        <ele>384.6</ele>
        <time>1970-01-01T00:26:22.000Z</time>
      </trkpt>
      <trkpt lat="49.54577" lon="5.71003">
        <ele>384.6</ele>
        <time>1970-01-01T00:26:23.000Z</time>
      </trkpt>
      <trkpt lat="49.5457" lon="5.70997">
        <ele>384.6</ele>
        <time>1970-01-01T00:26:24.000Z</time>
      </trkpt>
      <trkpt lat="49.54565" lon="5.70993">
        <ele>384.6</ele>
        <time>1970-01-01T00:26:25.000Z</time>
      </trkpt>
      <trkpt lat="49.54561" lon="5.70988">
        <ele>384.6</ele>
        <time>1970-01-01T00:26:26.000Z</time>
      </trkpt>
      <trkpt lat="49.54553" lon="5.70978">
        <ele>384.4</ele>
        <time>1970-01-01T00:26:28.000Z</time>
      </trkpt>
      <trkpt lat="49.54546" lon="5.70964">
        <ele>384.4</ele>
        <time>1970-01-01T00:26:30.000Z</time>
      </trkpt>
      <trkpt lat="49.54543" lon="5.70957">
        <ele>384</ele>
        <time>1970-01-01T00:26:31.000Z</time>
      </trkpt>
      <trkpt lat="49.5454" lon="5.70951">
        <ele>384.2</ele>
        <time>1970-01-01T00:26:32.000Z</time>
      </trkpt>
      <trkpt lat="49.54538" lon="5.70944">
        <ele>383.8</ele>
        <time>1970-01-01T00:26:33.000Z</time>
      </trkpt>
      <trkpt lat="49.54536" lon="5.70937">
        <ele>383.8</ele>
        <time>1970-01-01T00:26:34.000Z</time>
      </trkpt>
      <trkpt lat="49.54534" lon="5.70931">
        <ele>383.8</ele>
        <time>1970-01-01T00:26:35.000Z</time>
      </trkpt>
      <trkpt lat="49.54531" lon="5.70924">
        <ele>383.6</ele>
        <time>1970-01-01T00:26:36.000Z</time>
      </trkpt>
      <trkpt lat="49.54519" lon="5.70898">
        <ele>383</ele>
        <time>1970-01-01T00:26:40.000Z</time>
      </trkpt>
      <trkpt lat="49.54516" lon="5.70891">
        <ele>382.8</ele>
        <time>1970-01-01T00:26:41.000Z</time>
      </trkpt>
      <trkpt lat="49.54514" lon="5.70884">
        <ele>382.6</ele>
        <time>1970-01-01T00:26:42.000Z</time>
      </trkpt>
      <trkpt lat="49.54503" lon="5.70857">
        <ele>382.4</ele>
        <time>1970-01-01T00:26:46.000Z</time>
      </trkpt>
      <trkpt lat="49.54497" lon="5.70843">
        <ele>382.4</ele>
        <time>1970-01-01T00:26:48.000Z</time>
      </trkpt>
      <trkpt lat="49.5449" lon="5.70829">
        <ele>382.4</ele>
        <time>1970-01-01T00:26:50.000Z</time>
      </trkpt>
      <trkpt lat="49.54483" lon="5.70816">
        <ele>382.4</ele>
        <time>1970-01-01T00:26:52.000Z</time>
      </trkpt>
      <trkpt lat="49.54477" lon="5.70804">
        <ele>382.4</ele>
        <time>1970-01-01T00:26:54.000Z</time>
      </trkpt>
      <trkpt lat="49.54474" lon="5.70797">
        <ele>382.2</ele>
        <time>1970-01-01T00:26:55.000Z</time>
      </trkpt>
      <trkpt lat="49.54473" lon="5.70789">
        <ele>382</ele>
        <time>1970-01-01T00:26:56.000Z</time>
      </trkpt>
      <trkpt lat="49.54472" lon="5.70781">
        <ele>381.8</ele>
        <time>1970-01-01T00:26:57.000Z</time>
      </trkpt>
      <trkpt lat="49.54472" lon="5.70774">
        <ele>381.8</ele>
        <time>1970-01-01T00:26:58.000Z</time>
      </trkpt>
      <trkpt lat="49.54473" lon="5.70768">
        <ele>381.8</ele>
        <time>1970-01-01T00:26:59.000Z</time>
      </trkpt>
      <trkpt lat="49.54475" lon="5.70763">
        <ele>381.6</ele>
        <time>1970-01-01T00:27:00.000Z</time>
      </trkpt>
      <trkpt lat="49.54476" lon="5.70759">
        <ele>381.6</ele>
        <time>1970-01-01T00:27:01.000Z</time>
      </trkpt>
      <trkpt lat="49.54477" lon="5.70756">
        <ele>381.8</ele>
        <time>1970-01-01T00:27:02.000Z</time>
      </trkpt>
      <trkpt lat="49.54479" lon="5.70754">
        <ele>381.8</ele>
        <time>1970-01-01T00:27:03.000Z</time>
      </trkpt>
      <trkpt lat="49.54481" lon="5.70752">
        <ele>381.8</ele>
        <time>1970-01-01T00:27:04.000Z</time>
      </trkpt>
      <trkpt lat="49.54484" lon="5.70749">
        <ele>381.8</ele>
        <time>1970-01-01T00:27:05.000Z</time>
      </trkpt>
      <trkpt lat="49.54487" lon="5.70747">
        <ele>381.8</ele>
        <time>1970-01-01T00:27:06.000Z</time>
      </trkpt>
      <trkpt lat="49.54489" lon="5.70743">
        <ele>382</ele>
        <time>1970-01-01T00:27:07.000Z</time>
      </trkpt>
      <trkpt lat="49.54495" lon="5.70739">
        <ele>382.2</ele>
        <time>1970-01-01T00:27:09.000Z</time>
      </trkpt>
      <trkpt lat="49.54501" lon="5.70735">
        <ele>382.4</ele>
        <time>1970-01-01T00:27:11.000Z</time>
      </trkpt>
      <trkpt lat="49.54504" lon="5.70734">
        <ele>382.8</ele>
        <time>1970-01-01T00:27:12.000Z</time>
      </trkpt>
      <trkpt lat="49.54506" lon="5.70732">
        <ele>383.2</ele>
        <time>1970-01-01T00:27:13.000Z</time>
      </trkpt>
      <trkpt lat="49.54509" lon="5.70731">
        <ele>383.4</ele>
        <time>1970-01-01T00:27:14.000Z</time>
      </trkpt>
      <trkpt lat="49.54511" lon="5.70728">
        <ele>383.6</ele>
        <time>1970-01-01T00:27:15.000Z</time>
      </trkpt>
      <trkpt lat="49.54514" lon="5.70726">
        <ele>383.8</ele>
        <time>1970-01-01T00:27:16.000Z</time>
      </trkpt>
      <trkpt lat="49.54526" lon="5.70715">
        <ele>384.6</ele>
        <time>1970-01-01T00:27:21.000Z</time>
      </trkpt>
      <trkpt lat="49.5453" lon="5.7071">
        <ele>384.8</ele>
        <time>1970-01-01T00:27:23.000Z</time>
      </trkpt>
      <trkpt lat="49.54532" lon="5.70707">
        <ele>385</ele>
        <time>1970-01-01T00:27:24.000Z</time>
      </trkpt>
      <trkpt lat="49.54535" lon="5.70705">
        <ele>385.2</ele>
        <time>1970-01-01T00:27:25.000Z</time>
      </trkpt>
      <trkpt lat="49.54538" lon="5.70702">
        <ele>385.2</ele>
        <time>1970-01-01T00:27:26.000Z</time>
      </trkpt>
      <trkpt lat="49.54541" lon="5.70699">
        <ele>385.4</ele>
        <time>1970-01-01T00:27:27.000Z</time>
      </trkpt>
      <trkpt lat="49.54543" lon="5.70697">
        <ele>385.4</ele>
        <time>1970-01-01T00:27:28.000Z</time>
      </trkpt>
      <trkpt lat="49.54547" lon="5.70694">
        <ele>385.6</ele>
        <time>1970-01-01T00:27:29.000Z</time>
      </trkpt>
      <trkpt lat="49.54549" lon="5.70692">
        <ele>385.8</ele>
        <time>1970-01-01T00:27:30.000Z</time>
      </trkpt>
      <trkpt lat="49.54552" lon="5.70689">
        <ele>385.8</ele>
        <time>1970-01-01T00:27:31.000Z</time>
      </trkpt>
      <trkpt lat="49.54556" lon="5.70684">
        <ele>386</ele>
        <time>1970-01-01T00:27:32.000Z</time>
      </trkpt>
      <trkpt lat="49.54559" lon="5.7068">
        <ele>386</ele>
        <time>1970-01-01T00:27:33.000Z</time>
      </trkpt>
      <trkpt lat="49.54563" lon="5.70676">
        <ele>386.2</ele>
        <time>1970-01-01T00:27:34.000Z</time>
      </trkpt>
      <trkpt lat="49.54566" lon="5.70671">
        <ele>386.2</ele>
        <time>1970-01-01T00:27:35.000Z</time>
      </trkpt>
      <trkpt lat="49.5457" lon="5.70667">
        <ele>386.2</ele>
        <time>1970-01-01T00:27:36.000Z</time>
      </trkpt>
      <trkpt lat="49.54573" lon="5.70663">
        <ele>386.2</ele>
        <time>1970-01-01T00:27:37.000Z</time>
      </trkpt>
      <trkpt lat="49.54577" lon="5.7066">
        <ele>386.4</ele>
        <time>1970-01-01T00:27:38.000Z</time>
      </trkpt>
      <trkpt lat="49.54581" lon="5.70656">
        <ele>386.4</ele>
        <time>1970-01-01T00:27:39.000Z</time>
      </trkpt>
      <trkpt lat="49.54586" lon="5.70653">
        <ele>386.4</ele>
        <time>1970-01-01T00:27:40.000Z</time>
      </trkpt>
      <trkpt lat="49.54591" lon="5.70648">
        <ele>386.4</ele>
        <time>1970-01-01T00:27:41.000Z</time>
      </trkpt>
      <trkpt lat="49.54596" lon="5.70643">
        <ele>386.4</ele>
        <time>1970-01-01T00:27:42.000Z</time>
      </trkpt>
      <trkpt lat="49.546" lon="5.70638">
        <ele>385.8</ele>
        <time>1970-01-01T00:27:43.000Z</time>
      </trkpt>
      <trkpt lat="49.54604" lon="5.70632">
        <ele>385.6</ele>
        <time>1970-01-01T00:27:44.000Z</time>
      </trkpt>
      <trkpt lat="49.54606" lon="5.70626">
        <ele>385.4</ele>
        <time>1970-01-01T00:27:45.000Z</time>
      </trkpt>
      <trkpt lat="49.54607" lon="5.70619">
        <ele>385.2</ele>
        <time>1970-01-01T00:27:46.000Z</time>
      </trkpt>
      <trkpt lat="49.54607" lon="5.70612">
        <ele>385</ele>
        <time>1970-01-01T00:27:47.000Z</time>
      </trkpt>
      <trkpt lat="49.54606" lon="5.70606">
        <ele>384.8</ele>
        <time>1970-01-01T00:27:48.000Z</time>
      </trkpt>
      <trkpt lat="49.54604" lon="5.70602">
        <ele>384.4</ele>
        <time>1970-01-01T00:27:49.000Z</time>
      </trkpt>
      <trkpt lat="49.54601" lon="5.70598">
        <ele>383.8</ele>
        <time>1970-01-01T00:27:50.000Z</time>
      </trkpt>
      <trkpt lat="49.54598" lon="5.70593">
        <ele>383.6</ele>
        <time>1970-01-01T00:27:51.000Z</time>
      </trkpt>
      <trkpt lat="49.54595" lon="5.70587">
        <ele>383.2</ele>
        <time>1970-01-01T00:27:52.000Z</time>
      </trkpt>
      <trkpt lat="49.54592" lon="5.70583">
        <ele>383.2</ele>
        <time>1970-01-01T00:27:53.000Z</time>
      </trkpt>
      <trkpt lat="49.54586" lon="5.70574">
        <ele>382.8</ele>
        <time>1970-01-01T00:27:55.000Z</time>
      </trkpt>
      <trkpt lat="49.54584" lon="5.7057">
        <ele>383</ele>
        <time>1970-01-01T00:27:56.000Z</time>
      </trkpt>
      <trkpt lat="49.54581" lon="5.70565">
        <ele>382.8</ele>
        <time>1970-01-01T00:27:57.000Z</time>
      </trkpt>
      <trkpt lat="49.54576" lon="5.70556">
        <ele>382.8</ele>
        <time>1970-01-01T00:27:59.000Z</time>
      </trkpt>
      <trkpt lat="49.54568" lon="5.70542">
        <ele>383.2</ele>
        <time>1970-01-01T00:28:02.000Z</time>
      </trkpt>
      <trkpt lat="49.54558" lon="5.70521">
        <ele>383.4</ele>
        <time>1970-01-01T00:28:06.000Z</time>
      </trkpt>
      <trkpt lat="49.54548" lon="5.70504">
        <ele>383.4</ele>
        <time>1970-01-01T00:28:09.000Z</time>
      </trkpt>
      <trkpt lat="49.54541" lon="5.70494">
        <ele>383.2</ele>
        <time>1970-01-01T00:28:11.000Z</time>
      </trkpt>
      <trkpt lat="49.54537" lon="5.70489">
        <ele>383.4</ele>
        <time>1970-01-01T00:28:12.000Z</time>
      </trkpt>
      <trkpt lat="49.54533" lon="5.70484">
        <ele>383</ele>
        <time>1970-01-01T00:28:13.000Z</time>
      </trkpt>
      <trkpt lat="49.5453" lon="5.70479">
        <ele>383</ele>
        <time>1970-01-01T00:28:14.000Z</time>
      </trkpt>
      <trkpt lat="49.54527" lon="5.70474">
        <ele>383</ele>
        <time>1970-01-01T00:28:15.000Z</time>
      </trkpt>
      <trkpt lat="49.54525" lon="5.70469">
        <ele>383</ele>
        <time>1970-01-01T00:28:16.000Z</time>
      </trkpt>
      <trkpt lat="49.54519" lon="5.70458">
        <ele>383</ele>
        <time>1970-01-01T00:28:18.000Z</time>
      </trkpt>
      <trkpt lat="49.54506" lon="5.70437">
        <ele>383.8</ele>
        <time>1970-01-01T00:28:22.000Z</time>
      </trkpt>
      <trkpt lat="49.54499" lon="5.70426">
        <ele>383.8</ele>
        <time>1970-01-01T00:28:24.000Z</time>
      </trkpt>
      <trkpt lat="49.54473" lon="5.70392">
        <ele>383.6</ele>
        <time>1970-01-01T00:28:31.000Z</time>
      </trkpt>
      <trkpt lat="49.54469" lon="5.70386">
        <ele>383.6</ele>
        <time>1970-01-01T00:28:32.000Z</time>
      </trkpt>
      <trkpt lat="49.54465" lon="5.70378">
        <ele>383.6</ele>
        <time>1970-01-01T00:28:33.000Z</time>
      </trkpt>
      <trkpt lat="49.54461" lon="5.70372">
        <ele>383.6</ele>
        <time>1970-01-01T00:28:34.000Z</time>
      </trkpt>
      <trkpt lat="49.54457" lon="5.70367">
        <ele>383.6</ele>
        <time>1970-01-01T00:28:35.000Z</time>
      </trkpt>
      <trkpt lat="49.54443" lon="5.70344">
        <ele>383</ele>
        <time>1970-01-01T00:28:39.000Z</time>
      </trkpt>
      <trkpt lat="49.54433" lon="5.70326">
        <ele>383.6</ele>
        <time>1970-01-01T00:28:42.000Z</time>
      </trkpt>
      <trkpt lat="49.54428" lon="5.70313">
        <ele>383.8</ele>
        <time>1970-01-01T00:28:44.000Z</time>
      </trkpt>
      <trkpt lat="49.54426" lon="5.70306">
        <ele>383.8</ele>
        <time>1970-01-01T00:28:45.000Z</time>
      </trkpt>
      <trkpt lat="49.54422" lon="5.70291">
        <ele>383.6</ele>
        <time>1970-01-01T00:28:47.000Z</time>
      </trkpt>
      <trkpt lat="49.54421" lon="5.70285">
        <ele>383.4</ele>
        <time>1970-01-01T00:28:48.000Z</time>
      </trkpt>
      <trkpt lat="49.54419" lon="5.70278">
        <ele>383.4</ele>
        <time>1970-01-01T00:28:49.000Z</time>
      </trkpt>
      <trkpt lat="49.54413" lon="5.70248">
        <ele>382.6</ele>
        <time>1970-01-01T00:28:53.000Z</time>
      </trkpt>
      <trkpt lat="49.54411" lon="5.70241">
        <ele>382.2</ele>
        <time>1970-01-01T00:28:54.000Z</time>
      </trkpt>
      <trkpt lat="49.54409" lon="5.70234">
        <ele>381.8</ele>
        <time>1970-01-01T00:28:55.000Z</time>
      </trkpt>
      <trkpt lat="49.54405" lon="5.70218">
        <ele>381.4</ele>
        <time>1970-01-01T00:28:57.000Z</time>
      </trkpt>
      <trkpt lat="49.54395" lon="5.70181">
        <ele>381.2</ele>
        <time>1970-01-01T00:29:01.000Z</time>
      </trkpt>
      <trkpt lat="49.5439" lon="5.70163">
        <ele>381</ele>
        <time>1970-01-01T00:29:03.000Z</time>
      </trkpt>
      <trkpt lat="49.54384" lon="5.70146">
        <ele>380.4</ele>
        <time>1970-01-01T00:29:05.000Z</time>
      </trkpt>
      <trkpt lat="49.54382" lon="5.70137">
        <ele>380.4</ele>
        <time>1970-01-01T00:29:06.000Z</time>
      </trkpt>
      <trkpt lat="49.54379" lon="5.7013">
        <ele>380</ele>
        <time>1970-01-01T00:29:07.000Z</time>
      </trkpt>
      <trkpt lat="49.54374" lon="5.70111">
        <ele>379.4</ele>
        <time>1970-01-01T00:29:09.000Z</time>
      </trkpt>
      <trkpt lat="49.54372" lon="5.70103">
        <ele>379.2</ele>
        <time>1970-01-01T00:29:10.000Z</time>
      </trkpt>
      <trkpt lat="49.5437" lon="5.70093">
        <ele>378.8</ele>
        <time>1970-01-01T00:29:11.000Z</time>
      </trkpt>
      <trkpt lat="49.54368" lon="5.70084">
        <ele>378.6</ele>
        <time>1970-01-01T00:29:12.000Z</time>
      </trkpt>
      <trkpt lat="49.54367" lon="5.70076">
        <ele>378.4</ele>
        <time>1970-01-01T00:29:13.000Z</time>
      </trkpt>
      <trkpt lat="49.54369" lon="5.70062">
        <ele>378</ele>
        <time>1970-01-01T00:29:15.000Z</time>
      </trkpt>
      <trkpt lat="49.5437" lon="5.70055">
        <ele>378</ele>
        <time>1970-01-01T00:29:16.000Z</time>
      </trkpt>
      <trkpt lat="49.54372" lon="5.70049">
        <ele>378</ele>
        <time>1970-01-01T00:29:17.000Z</time>
      </trkpt>
      <trkpt lat="49.54374" lon="5.70042">
        <ele>378</ele>
        <time>1970-01-01T00:29:18.000Z</time>
      </trkpt>
      <trkpt lat="49.54377" lon="5.70028">
        <ele>377.8</ele>
        <time>1970-01-01T00:29:20.000Z</time>
      </trkpt>
      <trkpt lat="49.54379" lon="5.70022">
        <ele>377.4</ele>
        <time>1970-01-01T00:29:21.000Z</time>
      </trkpt>
      <trkpt lat="49.54381" lon="5.7001">
        <ele>377</ele>
        <time>1970-01-01T00:29:23.000Z</time>
      </trkpt>
      <trkpt lat="49.54385" lon="5.69996">
        <ele>376.4</ele>
        <time>1970-01-01T00:29:25.000Z</time>
      </trkpt>
      <trkpt lat="49.54388" lon="5.6999">
        <ele>376</ele>
        <time>1970-01-01T00:29:26.000Z</time>
      </trkpt>
      <trkpt lat="49.54395" lon="5.69976">
        <ele>375.2</ele>
        <time>1970-01-01T00:29:28.000Z</time>
      </trkpt>
      <trkpt lat="49.54404" lon="5.69964">
        <ele>375</ele>
        <time>1970-01-01T00:29:30.000Z</time>
      </trkpt>
      <trkpt lat="49.54407" lon="5.69958">
        <ele>374.8</ele>
        <time>1970-01-01T00:29:31.000Z</time>
      </trkpt>
      <trkpt lat="49.54411" lon="5.69952">
        <ele>374.6</ele>
        <time>1970-01-01T00:29:32.000Z</time>
      </trkpt>
      <trkpt lat="49.54414" lon="5.69945">
        <ele>374.4</ele>
        <time>1970-01-01T00:29:33.000Z</time>
      </trkpt>
      <trkpt lat="49.54416" lon="5.69938">
        <ele>374.2</ele>
        <time>1970-01-01T00:29:34.000Z</time>
      </trkpt>
      <trkpt lat="49.54416" lon="5.6993">
        <ele>374.2</ele>
        <time>1970-01-01T00:29:35.000Z</time>
      </trkpt>
      <trkpt lat="49.54416" lon="5.69922">
        <ele>373.6</ele>
        <time>1970-01-01T00:29:36.000Z</time>
      </trkpt>
      <trkpt lat="49.54415" lon="5.69916">
        <ele>373.4</ele>
        <time>1970-01-01T00:29:37.000Z</time>
      </trkpt>
      <trkpt lat="49.54415" lon="5.69909">
        <ele>373.2</ele>
        <time>1970-01-01T00:29:38.000Z</time>
      </trkpt>
      <trkpt lat="49.54416" lon="5.69905">
        <ele>373</ele>
        <time>1970-01-01T00:29:39.000Z</time>
      </trkpt>
      <trkpt lat="49.54415" lon="5.69898">
        <ele>372.8</ele>
        <time>1970-01-01T00:29:40.000Z</time>
      </trkpt>
      <trkpt lat="49.54413" lon="5.69893">
        <ele>372.8</ele>
        <time>1970-01-01T00:29:41.000Z</time>
      </trkpt>
      <trkpt lat="49.54413" lon="5.69888">
        <ele>372.6</ele>
        <time>1970-01-01T00:29:42.000Z</time>
      </trkpt>
      <trkpt lat="49.5441" lon="5.69874">
        <ele>372.4</ele>
        <time>1970-01-01T00:29:44.000Z</time>
      </trkpt>
      <trkpt lat="49.54408" lon="5.6987">
        <ele>372.4</ele>
        <time>1970-01-01T00:29:45.000Z</time>
      </trkpt>
      <trkpt lat="49.54406" lon="5.69866">
        <ele>372.4</ele>
        <time>1970-01-01T00:29:46.000Z</time>
      </trkpt>
      <trkpt lat="49.54403" lon="5.6986">
        <ele>372.6</ele>
        <time>1970-01-01T00:29:47.000Z</time>
      </trkpt>
      <trkpt lat="49.544" lon="5.69855">
        <ele>372.8</ele>
        <time>1970-01-01T00:29:48.000Z</time>
      </trkpt>
      <trkpt lat="49.54398" lon="5.69851">
        <ele>372.8</ele>
        <time>1970-01-01T00:29:49.000Z</time>
      </trkpt>
      <trkpt lat="49.54395" lon="5.69849">
        <ele>373</ele>
        <time>1970-01-01T00:29:50.000Z</time>
      </trkpt>
      <trkpt lat="49.54393" lon="5.69846">
        <ele>373</ele>
        <time>1970-01-01T00:29:51.000Z</time>
      </trkpt>
      <trkpt lat="49.5439" lon="5.69844">
        <ele>373.2</ele>
        <time>1970-01-01T00:29:52.000Z</time>
      </trkpt>
      <trkpt lat="49.54386" lon="5.69841">
        <ele>373.6</ele>
        <time>1970-01-01T00:29:53.000Z</time>
      </trkpt>
      <trkpt lat="49.54379" lon="5.6983">
        <ele>374.2</ele>
        <time>1970-01-01T00:29:55.000Z</time>
      </trkpt>
      <trkpt lat="49.54376" lon="5.69827">
        <ele>374.4</ele>
        <time>1970-01-01T00:29:56.000Z</time>
      </trkpt>
      <trkpt lat="49.54373" lon="5.69823">
        <ele>374.8</ele>
        <time>1970-01-01T00:29:57.000Z</time>
      </trkpt>
      <trkpt lat="49.5437" lon="5.69819">
        <ele>374.8</ele>
        <time>1970-01-01T00:29:58.000Z</time>
      </trkpt>
      <trkpt lat="49.54369" lon="5.69815">
        <ele>375</ele>
        <time>1970-01-01T00:29:59.000Z</time>
      </trkpt>
      <trkpt lat="49.54368" lon="5.69811">
        <ele>375</ele>
        <time>1970-01-01T00:30:00.000Z</time>
      </trkpt>
      <trkpt lat="49.54368" lon="5.69806">
        <ele>375</ele>
        <time>1970-01-01T00:30:01.000Z</time>
      </trkpt>
      <trkpt lat="49.54367" lon="5.69802">
        <ele>375.2</ele>
        <time>1970-01-01T00:30:02.000Z</time>
      </trkpt>
      <trkpt lat="49.54363" lon="5.69797">
        <ele>375.4</ele>
        <time>1970-01-01T00:30:03.000Z</time>
      </trkpt>
      <trkpt lat="49.5436" lon="5.69791">
        <ele>375.4</ele>
        <time>1970-01-01T00:30:04.000Z</time>
      </trkpt>
      <trkpt lat="49.54359" lon="5.69785">
        <ele>375.6</ele>
        <time>1970-01-01T00:30:05.000Z</time>
      </trkpt>
      <trkpt lat="49.54359" lon="5.69778">
        <ele>375.8</ele>
        <time>1970-01-01T00:30:06.000Z</time>
      </trkpt>
      <trkpt lat="49.5436" lon="5.69774">
        <ele>375.8</ele>
        <time>1970-01-01T00:30:07.000Z</time>
      </trkpt>
      <trkpt lat="49.54361" lon="5.69772">
        <ele>376</ele>
        <time>1970-01-01T00:30:08.000Z</time>
      </trkpt>
      <trkpt lat="49.54362" lon="5.69769">
        <ele>376.2</ele>
        <time>1970-01-01T00:30:09.000Z</time>
      </trkpt>
      <trkpt lat="49.54364" lon="5.69765">
        <ele>376.4</ele>
        <time>1970-01-01T00:30:10.000Z</time>
      </trkpt>
      <trkpt lat="49.54366" lon="5.69762">
        <ele>376.6</ele>
        <time>1970-01-01T00:30:11.000Z</time>
      </trkpt>
      <trkpt lat="49.54367" lon="5.69757">
        <ele>376.8</ele>
        <time>1970-01-01T00:30:12.000Z</time>
      </trkpt>
      <trkpt lat="49.54368" lon="5.69754">
        <ele>377</ele>
        <time>1970-01-01T00:30:13.000Z</time>
      </trkpt>
      <trkpt lat="49.5437" lon="5.69753">
        <ele>377.2</ele>
        <time>1970-01-01T00:30:14.000Z</time>
      </trkpt>
      <trkpt lat="49.54373" lon="5.69752">
        <ele>377.6</ele>
        <time>1970-01-01T00:30:15.000Z</time>
      </trkpt>
      <trkpt lat="49.54374" lon="5.69751">
        <ele>377.8</ele>
        <time>1970-01-01T00:30:16.000Z</time>
      </trkpt>
      <trkpt lat="49.54375" lon="5.69749">
        <ele>378</ele>
        <time>1970-01-01T00:30:17.000Z</time>
      </trkpt>
      <trkpt lat="49.54375" lon="5.69746">
        <ele>378.2</ele>
        <time>1970-01-01T00:30:18.000Z</time>
      </trkpt>
      <trkpt lat="49.54375" lon="5.69743">
        <ele>378.6</ele>
        <time>1970-01-01T00:30:19.000Z</time>
      </trkpt>
      <trkpt lat="49.54375" lon="5.6974">
        <ele>378.8</ele>
        <time>1970-01-01T00:30:20.000Z</time>
      </trkpt>
      <trkpt lat="49.54376" lon="5.69737">
        <ele>379</ele>
        <time>1970-01-01T00:30:21.000Z</time>
      </trkpt>
      <trkpt lat="49.54376" lon="5.69734">
        <ele>379.2</ele>
        <time>1970-01-01T00:30:22.000Z</time>
      </trkpt>
      <trkpt lat="49.54376" lon="5.69732">
        <ele>379.4</ele>
        <time>1970-01-01T00:30:23.000Z</time>
      </trkpt>
      <trkpt lat="49.54377" lon="5.69729">
        <ele>379.8</ele>
        <time>1970-01-01T00:30:24.000Z</time>
      </trkpt>
      <trkpt lat="49.54377" lon="5.69726">
        <ele>379.8</ele>
        <time>1970-01-01T00:30:25.000Z</time>
      </trkpt>
      <trkpt lat="49.54377" lon="5.69723">
        <ele>380.2</ele>
        <time>1970-01-01T00:30:26.000Z</time>
      </trkpt>
      <trkpt lat="49.54377" lon="5.69719">
        <ele>380.4</ele>
        <time>1970-01-01T00:30:27.000Z</time>
      </trkpt>
      <trkpt lat="49.54377" lon="5.69717">
        <ele>380.4</ele>
        <time>1970-01-01T00:30:28.000Z</time>
      </trkpt>
      <trkpt lat="49.54376" lon="5.69713">
        <ele>380.4</ele>
        <time>1970-01-01T00:30:29.000Z</time>
      </trkpt>
      <trkpt lat="49.54377" lon="5.69711">
        <ele>380.4</ele>
        <time>1970-01-01T00:30:30.000Z</time>
      </trkpt>
      <trkpt lat="49.54378" lon="5.69709">
        <ele>380.6</ele>
        <time>1970-01-01T00:30:31.000Z</time>
      </trkpt>
      <trkpt lat="49.54379" lon="5.69706">
        <ele>380.6</ele>
        <time>1970-01-01T00:30:32.000Z</time>
      </trkpt>
      <trkpt lat="49.5438" lon="5.69703">
        <ele>381.4</ele>
        <time>1970-01-01T00:30:33.000Z</time>
      </trkpt>
      <trkpt lat="49.54382" lon="5.69699">
        <ele>381.6</ele>
        <time>1970-01-01T00:30:34.000Z</time>
      </trkpt>
      <trkpt lat="49.54384" lon="5.69694">
        <ele>382</ele>
        <time>1970-01-01T00:30:35.000Z</time>
      </trkpt>
      <trkpt lat="49.54386" lon="5.6969">
        <ele>382</ele>
        <time>1970-01-01T00:30:36.000Z</time>
      </trkpt>
      <trkpt lat="49.54387" lon="5.69685">
        <ele>382</ele>
        <time>1970-01-01T00:30:37.000Z</time>
      </trkpt>
      <trkpt lat="49.54388" lon="5.69678">
        <ele>381.8</ele>
        <time>1970-01-01T00:30:38.000Z</time>
      </trkpt>
      <trkpt lat="49.54387" lon="5.6967">
        <ele>381.8</ele>
        <time>1970-01-01T00:30:39.000Z</time>
      </trkpt>
      <trkpt lat="49.54385" lon="5.69663">
        <ele>381.8</ele>
        <time>1970-01-01T00:30:40.000Z</time>
      </trkpt>
      <trkpt lat="49.54382" lon="5.69655">
        <ele>381.8</ele>
        <time>1970-01-01T00:30:41.000Z</time>
      </trkpt>
      <trkpt lat="49.5438" lon="5.69647">
        <ele>381.6</ele>
        <time>1970-01-01T00:30:42.000Z</time>
      </trkpt>
      <trkpt lat="49.54378" lon="5.6964">
        <ele>381.6</ele>
        <time>1970-01-01T00:30:43.000Z</time>
      </trkpt>
      <trkpt lat="49.54379" lon="5.69633">
        <ele>381.4</ele>
        <time>1970-01-01T00:30:44.000Z</time>
      </trkpt>
      <trkpt lat="49.54381" lon="5.69628">
        <ele>381.4</ele>
        <time>1970-01-01T00:30:45.000Z</time>
      </trkpt>
      <trkpt lat="49.54384" lon="5.69622">
        <ele>381.2</ele>
        <time>1970-01-01T00:30:46.000Z</time>
      </trkpt>
      <trkpt lat="49.54386" lon="5.69617">
        <ele>381.2</ele>
        <time>1970-01-01T00:30:47.000Z</time>
      </trkpt>
      <trkpt lat="49.54388" lon="5.69611">
        <ele>381.2</ele>
        <time>1970-01-01T00:30:48.000Z</time>
      </trkpt>
      <trkpt lat="49.54392" lon="5.69605">
        <ele>381.2</ele>
        <time>1970-01-01T00:30:49.000Z</time>
      </trkpt>
      <trkpt lat="49.54395" lon="5.69598">
        <ele>381.2</ele>
        <time>1970-01-01T00:30:50.000Z</time>
      </trkpt>
      <trkpt lat="49.54407" lon="5.69569">
        <ele>381</ele>
        <time>1970-01-01T00:30:54.000Z</time>
      </trkpt>
      <trkpt lat="49.54409" lon="5.69563">
        <ele>381</ele>
        <time>1970-01-01T00:30:55.000Z</time>
      </trkpt>
      <trkpt lat="49.5441" lon="5.69555">
        <ele>380.6</ele>
        <time>1970-01-01T00:30:56.000Z</time>
      </trkpt>
      <trkpt lat="49.54411" lon="5.69551">
        <ele>380.4</ele>
        <time>1970-01-01T00:30:57.000Z</time>
      </trkpt>
      <trkpt lat="49.54411" lon="5.69545">
        <ele>380.2</ele>
        <time>1970-01-01T00:30:58.000Z</time>
      </trkpt>
      <trkpt lat="49.54409" lon="5.69534">
        <ele>380.2</ele>
        <time>1970-01-01T00:30:59.000Z</time>
      </trkpt>
      <trkpt lat="49.54408" lon="5.69527">
        <ele>379.8</ele>
        <time>1970-01-01T00:31:00.000Z</time>
      </trkpt>
      <trkpt lat="49.54408" lon="5.69522">
        <ele>379.6</ele>
        <time>1970-01-01T00:31:01.000Z</time>
      </trkpt>
      <trkpt lat="49.54411" lon="5.69509">
        <ele>379.4</ele>
        <time>1970-01-01T00:31:03.000Z</time>
      </trkpt>
      <trkpt lat="49.54411" lon="5.69502">
        <ele>379.4</ele>
        <time>1970-01-01T00:31:04.000Z</time>
      </trkpt>
      <trkpt lat="49.54413" lon="5.69495">
        <ele>379.4</ele>
        <time>1970-01-01T00:31:05.000Z</time>
      </trkpt>
      <trkpt lat="49.54414" lon="5.69487">
        <ele>379.2</ele>
        <time>1970-01-01T00:31:06.000Z</time>
      </trkpt>
      <trkpt lat="49.54414" lon="5.69478">
        <ele>379.2</ele>
        <time>1970-01-01T00:31:07.000Z</time>
      </trkpt>
      <trkpt lat="49.54415" lon="5.69472">
        <ele>379.2</ele>
        <time>1970-01-01T00:31:08.000Z</time>
      </trkpt>
      <trkpt lat="49.54416" lon="5.69466">
        <ele>379.2</ele>
        <time>1970-01-01T00:31:09.000Z</time>
      </trkpt>
      <trkpt lat="49.54417" lon="5.69461">
        <ele>379.2</ele>
        <time>1970-01-01T00:31:10.000Z</time>
      </trkpt>
      <trkpt lat="49.54418" lon="5.69458">
        <ele>379</ele>
        <time>1970-01-01T00:31:11.000Z</time>
      </trkpt>
      <trkpt lat="49.54428" lon="5.69443">
        <ele>380.4</ele>
        <time>1970-01-01T00:36:07.000Z</time>
      </trkpt>
      <trkpt lat="49.54433" lon="5.69435">
        <ele>380</ele>
        <time>1970-01-01T00:36:08.000Z</time>
      </trkpt>
      <trkpt lat="49.54437" lon="5.69425">
        <ele>379.6</ele>
        <time>1970-01-01T00:36:09.000Z</time>
      </trkpt>
      <trkpt lat="49.54444" lon="5.694">
        <ele>378.8</ele>
        <time>1970-01-01T00:36:11.000Z</time>
      </trkpt>
      <trkpt lat="49.54447" lon="5.69389">
        <ele>378.2</ele>
        <time>1970-01-01T00:36:12.000Z</time>
      </trkpt>
      <trkpt lat="49.5445" lon="5.69379">
        <ele>377.4</ele>
        <time>1970-01-01T00:36:13.000Z</time>
      </trkpt>
      <trkpt lat="49.54452" lon="5.69369">
        <ele>377</ele>
        <time>1970-01-01T00:36:14.000Z</time>
      </trkpt>
      <trkpt lat="49.54455" lon="5.69358">
        <ele>375.8</ele>
        <time>1970-01-01T00:36:15.000Z</time>
      </trkpt>
      <trkpt lat="49.54458" lon="5.69348">
        <ele>375.2</ele>
        <time>1970-01-01T00:36:16.000Z</time>
      </trkpt>
      <trkpt lat="49.5446" lon="5.69338">
        <ele>373.8</ele>
        <time>1970-01-01T00:36:17.000Z</time>
      </trkpt>
      <trkpt lat="49.54462" lon="5.69327">
        <ele>370.6</ele>
        <time>1970-01-01T00:36:18.000Z</time>
      </trkpt>
      <trkpt lat="49.54464" lon="5.69315">
        <ele>369.4</ele>
        <time>1970-01-01T00:36:19.000Z</time>
      </trkpt>
      <trkpt lat="49.54466" lon="5.69304">
        <ele>367.8</ele>
        <time>1970-01-01T00:36:20.000Z</time>
      </trkpt>
      <trkpt lat="49.54472" lon="5.69281">
        <ele>365.6</ele>
        <time>1970-01-01T00:36:22.000Z</time>
      </trkpt>
      <trkpt lat="49.54481" lon="5.69256">
        <ele>361.8</ele>
        <time>1970-01-01T00:36:24.000Z</time>
      </trkpt>
      <trkpt lat="49.54485" lon="5.69245">
        <ele>360.4</ele>
        <time>1970-01-01T00:36:25.000Z</time>
      </trkpt>
      <trkpt lat="49.54489" lon="5.69234">
        <ele>358.4</ele>
        <time>1970-01-01T00:36:26.000Z</time>
      </trkpt>
      <trkpt lat="49.54495" lon="5.69225">
        <ele>356.2</ele>
        <time>1970-01-01T00:36:27.000Z</time>
      </trkpt>
      <trkpt lat="49.545" lon="5.69216">
        <ele>355</ele>
        <time>1970-01-01T00:36:28.000Z</time>
      </trkpt>
      <trkpt lat="49.54505" lon="5.69209">
        <ele>352.4</ele>
        <time>1970-01-01T00:36:29.000Z</time>
      </trkpt>
      <trkpt lat="49.54509" lon="5.69205">
        <ele>351</ele>
        <time>1970-01-01T00:36:30.000Z</time>
      </trkpt>
      <trkpt lat="49.5451" lon="5.69201">
        <ele>349.2</ele>
        <time>1970-01-01T00:36:31.000Z</time>
      </trkpt>
      <trkpt lat="49.5451" lon="5.69196">
        <ele>348.4</ele>
        <time>1970-01-01T00:36:32.000Z</time>
      </trkpt>
      <trkpt lat="49.54511" lon="5.69191">
        <ele>346</ele>
        <time>1970-01-01T00:36:33.000Z</time>
      </trkpt>
      <trkpt lat="49.54511" lon="5.69185">
        <ele>344.8</ele>
        <time>1970-01-01T00:36:34.000Z</time>
      </trkpt>
      <trkpt lat="49.54512" lon="5.69178">
        <ele>343.4</ele>
        <time>1970-01-01T00:36:35.000Z</time>
      </trkpt>
      <trkpt lat="49.54509" lon="5.69174">
        <ele>342.6</ele>
        <time>1970-01-01T00:36:36.000Z</time>
      </trkpt>
      <trkpt lat="49.54506" lon="5.69166">
        <ele>342.2</ele>
        <time>1970-01-01T00:36:37.000Z</time>
      </trkpt>
      <trkpt lat="49.54506" lon="5.69162">
        <ele>341.6</ele>
        <time>1970-01-01T00:36:38.000Z</time>
      </trkpt>
      <trkpt lat="49.54505" lon="5.69159">
        <ele>341.4</ele>
        <time>1970-01-01T00:36:39.000Z</time>
      </trkpt>
      <trkpt lat="49.54503" lon="5.69158">
        <ele>340.6</ele>
        <time>1970-01-01T00:36:40.000Z</time>
      </trkpt>
      <trkpt lat="49.54501" lon="5.69157">
        <ele>340.4</ele>
        <time>1970-01-01T00:36:41.000Z</time>
      </trkpt>
      <trkpt lat="49.54499" lon="5.69158">
        <ele>339.8</ele>
        <time>1970-01-01T00:36:42.000Z</time>
      </trkpt>
      <trkpt lat="49.54498" lon="5.69158">
        <ele>339.2</ele>
        <time>1970-01-01T00:36:43.000Z</time>
      </trkpt>
      <trkpt lat="49.54496" lon="5.69157">
        <ele>339</ele>
        <time>1970-01-01T00:36:44.000Z</time>
      </trkpt>
      <trkpt lat="49.54495" lon="5.69156">
        <ele>338.8</ele>
        <time>1970-01-01T00:36:45.000Z</time>
      </trkpt>
      <trkpt lat="49.54495" lon="5.69154">
        <ele>338.8</ele>
        <time>1970-01-01T00:36:46.000Z</time>
      </trkpt>
      <trkpt lat="49.54493" lon="5.69154">
        <ele>338.8</ele>
        <time>1970-01-01T00:36:47.000Z</time>
      </trkpt>
      <trkpt lat="49.5449" lon="5.69154">
        <ele>338.8</ele>
        <time>1970-01-01T00:36:48.000Z</time>
      </trkpt>
      <trkpt lat="49.54488" lon="5.69153">
        <ele>338.8</ele>
        <time>1970-01-01T00:36:49.000Z</time>
      </trkpt>
      <trkpt lat="49.54486" lon="5.69153">
        <ele>339</ele>
        <time>1970-01-01T00:36:50.000Z</time>
      </trkpt>
      <trkpt lat="49.54484" lon="5.69151">
        <ele>339.8</ele>
        <time>1970-01-01T00:36:52.000Z</time>
      </trkpt>
      <trkpt lat="49.54483" lon="5.69151">
        <ele>340.2</ele>
        <time>1970-01-01T00:36:53.000Z</time>
      </trkpt>
      <trkpt lat="49.54482" lon="5.69151">
        <ele>340.8</ele>
        <time>1970-01-01T00:36:54.000Z</time>
      </trkpt>
      <trkpt lat="49.5448" lon="5.6915">
        <ele>341</ele>
        <time>1970-01-01T00:36:55.000Z</time>
      </trkpt>
      <trkpt lat="49.54477" lon="5.69149">
        <ele>341.8</ele>
        <time>1970-01-01T00:36:57.000Z</time>
      </trkpt>
      <trkpt lat="49.54475" lon="5.69148">
        <ele>342.2</ele>
        <time>1970-01-01T00:36:58.000Z</time>
      </trkpt>
      <trkpt lat="49.54467" lon="5.69144">
        <ele>343.2</ele>
        <time>1970-01-01T00:37:02.000Z</time>
      </trkpt>
      <trkpt lat="49.54461" lon="5.69139">
        <ele>343.8</ele>
        <time>1970-01-01T00:37:05.000Z</time>
      </trkpt>
      <trkpt lat="49.54458" lon="5.69137">
        <ele>344</ele>
        <time>1970-01-01T00:37:06.000Z</time>
      </trkpt>
      <trkpt lat="49.54456" lon="5.69136">
        <ele>344.2</ele>
        <time>1970-01-01T00:37:07.000Z</time>
      </trkpt>
      <trkpt lat="49.54454" lon="5.69135">
        <ele>344.4</ele>
        <time>1970-01-01T00:37:08.000Z</time>
      </trkpt>
      <trkpt lat="49.54449" lon="5.69133">
        <ele>344.6</ele>
        <time>1970-01-01T00:37:10.000Z</time>
      </trkpt>
      <trkpt lat="49.54442" lon="5.69129">
        <ele>344.8</ele>
        <time>1970-01-01T00:37:13.000Z</time>
      </trkpt>
      <trkpt lat="49.54439" lon="5.69127">
        <ele>344.8</ele>
        <time>1970-01-01T00:37:14.000Z</time>
      </trkpt>
      <trkpt lat="49.54438" lon="5.69127">
        <ele>345</ele>
        <time>1970-01-01T00:37:15.000Z</time>
      </trkpt>
      <trkpt lat="49.54435" lon="5.69126">
        <ele>345</ele>
        <time>1970-01-01T00:37:16.000Z</time>
      </trkpt>
      <trkpt lat="49.54433" lon="5.69125">
        <ele>345.4</ele>
        <time>1970-01-01T00:37:17.000Z</time>
      </trkpt>
      <trkpt lat="49.54431" lon="5.69124">
        <ele>345.4</ele>
        <time>1970-01-01T00:37:18.000Z</time>
      </trkpt>
      <trkpt lat="49.54428" lon="5.69124">
        <ele>345.8</ele>
        <time>1970-01-01T00:37:19.000Z</time>
      </trkpt>
      <trkpt lat="49.54426" lon="5.69122">
        <ele>345.8</ele>
        <time>1970-01-01T00:37:20.000Z</time>
      </trkpt>
      <trkpt lat="49.54423" lon="5.69119">
        <ele>346</ele>
        <time>1970-01-01T00:37:21.000Z</time>
      </trkpt>
      <trkpt lat="49.54419" lon="5.69118">
        <ele>346.2</ele>
        <time>1970-01-01T00:37:22.000Z</time>
      </trkpt>
      <trkpt lat="49.54415" lon="5.69115">
        <ele>346.4</ele>
        <time>1970-01-01T00:37:23.000Z</time>
      </trkpt>
      <trkpt lat="49.54412" lon="5.69114">
        <ele>346.4</ele>
        <time>1970-01-01T00:37:24.000Z</time>
      </trkpt>
      <trkpt lat="49.54408" lon="5.69114">
        <ele>346.8</ele>
        <time>1970-01-01T00:37:25.000Z</time>
      </trkpt>
      <trkpt lat="49.54405" lon="5.69112">
        <ele>346.8</ele>
        <time>1970-01-01T00:37:26.000Z</time>
      </trkpt>
      <trkpt lat="49.54402" lon="5.6911">
        <ele>346.8</ele>
        <time>1970-01-01T00:37:27.000Z</time>
      </trkpt>
      <trkpt lat="49.54399" lon="5.69107">
        <ele>346.6</ele>
        <time>1970-01-01T00:37:28.000Z</time>
      </trkpt>
      <trkpt lat="49.54396" lon="5.69107">
        <ele>346.6</ele>
        <time>1970-01-01T00:37:29.000Z</time>
      </trkpt>
      <trkpt lat="49.54392" lon="5.69108">
        <ele>346.6</ele>
        <time>1970-01-01T00:37:30.000Z</time>
      </trkpt>
      <trkpt lat="49.54389" lon="5.69112">
        <ele>346.6</ele>
        <time>1970-01-01T00:37:31.000Z</time>
      </trkpt>
      <trkpt lat="49.54383" lon="5.69114">
        <ele>346.4</ele>
        <time>1970-01-01T00:37:32.000Z</time>
      </trkpt>
      <trkpt lat="49.54377" lon="5.69112">
        <ele>346.4</ele>
        <time>1970-01-01T00:37:33.000Z</time>
      </trkpt>
      <trkpt lat="49.54372" lon="5.69113">
        <ele>346.4</ele>
        <time>1970-01-01T00:37:34.000Z</time>
      </trkpt>
      <trkpt lat="49.54367" lon="5.69113">
        <ele>346.4</ele>
        <time>1970-01-01T00:37:35.000Z</time>
      </trkpt>
      <trkpt lat="49.54364" lon="5.69112">
        <ele>346.4</ele>
        <time>1970-01-01T00:37:36.000Z</time>
      </trkpt>
      <trkpt lat="49.54358" lon="5.69114">
        <ele>346.4</ele>
        <time>1970-01-01T00:37:37.000Z</time>
      </trkpt>
      <trkpt lat="49.54351" lon="5.69114">
        <ele>346.4</ele>
        <time>1970-01-01T00:37:38.000Z</time>
      </trkpt>
      <trkpt lat="49.54338" lon="5.69119">
        <ele>346.4</ele>
        <time>1970-01-01T00:37:40.000Z</time>
      </trkpt>
      <trkpt lat="49.54333" lon="5.69121">
        <ele>346.4</ele>
        <time>1970-01-01T00:37:41.000Z</time>
      </trkpt>
      <trkpt lat="49.54329" lon="5.69124">
        <ele>346.4</ele>
        <time>1970-01-01T00:37:42.000Z</time>
      </trkpt>
      <trkpt lat="49.54324" lon="5.69124">
        <ele>346.4</ele>
        <time>1970-01-01T00:37:43.000Z</time>
      </trkpt>
      <trkpt lat="49.54319" lon="5.69127">
        <ele>346.4</ele>
        <time>1970-01-01T00:37:44.000Z</time>
      </trkpt>
      <trkpt lat="49.54315" lon="5.69128">
        <ele>346.4</ele>
        <time>1970-01-01T00:37:45.000Z</time>
      </trkpt>
      <trkpt lat="49.54311" lon="5.6913">
        <ele>346.4</ele>
        <time>1970-01-01T00:37:46.000Z</time>
      </trkpt>
      <trkpt lat="49.54307" lon="5.69131">
        <ele>346.4</ele>
        <time>1970-01-01T00:37:47.000Z</time>
      </trkpt>
      <trkpt lat="49.54303" lon="5.69134">
        <ele>346.4</ele>
        <time>1970-01-01T00:37:48.000Z</time>
      </trkpt>
      <trkpt lat="49.54299" lon="5.69135">
        <ele>346.4</ele>
        <time>1970-01-01T00:37:49.000Z</time>
      </trkpt>
      <trkpt lat="49.54296" lon="5.69137">
        <ele>346.4</ele>
        <time>1970-01-01T00:37:50.000Z</time>
      </trkpt>
      <trkpt lat="49.54293" lon="5.69138">
        <ele>346.4</ele>
        <time>1970-01-01T00:37:51.000Z</time>
      </trkpt>
      <trkpt lat="49.5429" lon="5.69139">
        <ele>346.4</ele>
        <time>1970-01-01T00:37:52.000Z</time>
      </trkpt>
      <trkpt lat="49.54286" lon="5.69141">
        <ele>346.6</ele>
        <time>1970-01-01T00:37:53.000Z</time>
      </trkpt>
      <trkpt lat="49.54284" lon="5.69142">
        <ele>346.4</ele>
        <time>1970-01-01T00:37:54.000Z</time>
      </trkpt>
      <trkpt lat="49.54282" lon="5.69143">
        <ele>346.4</ele>
        <time>1970-01-01T00:37:55.000Z</time>
      </trkpt>
      <trkpt lat="49.54276" lon="5.69143">
        <ele>346.6</ele>
        <time>1970-01-01T00:37:57.000Z</time>
      </trkpt>
      <trkpt lat="49.5426" lon="5.69142">
        <ele>346.4</ele>
        <time>1970-01-01T00:38:01.000Z</time>
      </trkpt>
      <trkpt lat="49.54249" lon="5.69142">
        <ele>346.2</ele>
        <time>1970-01-01T00:38:03.000Z</time>
      </trkpt>
      <trkpt lat="49.5423" lon="5.69141">
        <ele>345.6</ele>
        <time>1970-01-01T00:38:06.000Z</time>
      </trkpt>
      <trkpt lat="49.54216" lon="5.69138">
        <ele>345.2</ele>
        <time>1970-01-01T00:38:08.000Z</time>
      </trkpt>
      <trkpt lat="49.54194" lon="5.69132">
        <ele>343.8</ele>
        <time>1970-01-01T00:38:11.000Z</time>
      </trkpt>
      <trkpt lat="49.54181" lon="5.69127">
        <ele>342.6</ele>
        <time>1970-01-01T00:38:13.000Z</time>
      </trkpt>
      <trkpt lat="49.54174" lon="5.69125">
        <ele>342.2</ele>
        <time>1970-01-01T00:38:14.000Z</time>
      </trkpt>
      <trkpt lat="49.54167" lon="5.69122">
        <ele>341.8</ele>
        <time>1970-01-01T00:38:15.000Z</time>
      </trkpt>
      <trkpt lat="49.54161" lon="5.69122">
        <ele>341.6</ele>
        <time>1970-01-01T00:38:16.000Z</time>
      </trkpt>
      <trkpt lat="49.54154" lon="5.69121">
        <ele>341.2</ele>
        <time>1970-01-01T00:38:17.000Z</time>
      </trkpt>
      <trkpt lat="49.54148" lon="5.6912">
        <ele>340.8</ele>
        <time>1970-01-01T00:38:18.000Z</time>
      </trkpt>
      <trkpt lat="49.54142" lon="5.6912">
        <ele>340.8</ele>
        <time>1970-01-01T00:38:19.000Z</time>
      </trkpt>
      <trkpt lat="49.5413" lon="5.69119">
        <ele>340.4</ele>
        <time>1970-01-01T00:38:21.000Z</time>
      </trkpt>
      <trkpt lat="49.54124" lon="5.69119">
        <ele>340.2</ele>
        <time>1970-01-01T00:38:22.000Z</time>
      </trkpt>
      <trkpt lat="49.54113" lon="5.69118">
        <ele>340.2</ele>
        <time>1970-01-01T00:38:24.000Z</time>
      </trkpt>
      <trkpt lat="49.54109" lon="5.69117">
        <ele>340.2</ele>
        <time>1970-01-01T00:38:25.000Z</time>
      </trkpt>
      <trkpt lat="49.54097" lon="5.69116">
        <ele>340</ele>
        <time>1970-01-01T00:38:27.000Z</time>
      </trkpt>
      <trkpt lat="49.54091" lon="5.69116">
        <ele>339.8</ele>
        <time>1970-01-01T00:38:28.000Z</time>
      </trkpt>
      <trkpt lat="49.54085" lon="5.69113">
        <ele>339.8</ele>
        <time>1970-01-01T00:38:29.000Z</time>
      </trkpt>
      <trkpt lat="49.54061" lon="5.69106">
        <ele>339.6</ele>
        <time>1970-01-01T00:38:33.000Z</time>
      </trkpt>
      <trkpt lat="49.54055" lon="5.69104">
        <ele>339.6</ele>
        <time>1970-01-01T00:38:34.000Z</time>
      </trkpt>
      <trkpt lat="49.54049" lon="5.691">
        <ele>339.4</ele>
        <time>1970-01-01T00:38:35.000Z</time>
      </trkpt>
      <trkpt lat="49.54043" lon="5.69099">
        <ele>339.4</ele>
        <time>1970-01-01T00:38:36.000Z</time>
      </trkpt>
      <trkpt lat="49.54026" lon="5.69094">
        <ele>339.4</ele>
        <time>1970-01-01T00:38:39.000Z</time>
      </trkpt>
      <trkpt lat="49.54021" lon="5.69093">
        <ele>339.6</ele>
        <time>1970-01-01T00:38:40.000Z</time>
      </trkpt>
      <trkpt lat="49.54016" lon="5.6909">
        <ele>339.4</ele>
        <time>1970-01-01T00:38:41.000Z</time>
      </trkpt>
      <trkpt lat="49.54011" lon="5.69088">
        <ele>339.6</ele>
        <time>1970-01-01T00:38:42.000Z</time>
      </trkpt>
      <trkpt lat="49.54007" lon="5.69086">
        <ele>339.6</ele>
        <time>1970-01-01T00:38:43.000Z</time>
      </trkpt>
      <trkpt lat="49.54002" lon="5.69085">
        <ele>339.8</ele>
        <time>1970-01-01T00:38:44.000Z</time>
      </trkpt>
      <trkpt lat="49.53996" lon="5.69083">
        <ele>339.8</ele>
        <time>1970-01-01T00:38:45.000Z</time>
      </trkpt>
      <trkpt lat="49.53992" lon="5.69082">
        <ele>339.8</ele>
        <time>1970-01-01T00:38:46.000Z</time>
      </trkpt>
      <trkpt lat="49.53987" lon="5.69082">
        <ele>339.8</ele>
        <time>1970-01-01T00:38:47.000Z</time>
      </trkpt>
      <trkpt lat="49.53983" lon="5.69082">
        <ele>339.8</ele>
        <time>1970-01-01T00:38:48.000Z</time>
      </trkpt>
      <trkpt lat="49.53979" lon="5.69082">
        <ele>339.8</ele>
        <time>1970-01-01T00:38:49.000Z</time>
      </trkpt>
      <trkpt lat="49.53975" lon="5.69083">
        <ele>339.8</ele>
        <time>1970-01-01T00:38:50.000Z</time>
      </trkpt>
      <trkpt lat="49.53971" lon="5.69083">
        <ele>340</ele>
        <time>1970-01-01T00:38:51.000Z</time>
      </trkpt>
      <trkpt lat="49.53968" lon="5.69084">
        <ele>340</ele>
        <time>1970-01-01T00:38:52.000Z</time>
      </trkpt>
      <trkpt lat="49.5395" lon="5.6909">
        <ele>340.4</ele>
        <time>1970-01-01T00:38:57.000Z</time>
      </trkpt>
      <trkpt lat="49.53943" lon="5.69094">
        <ele>340.4</ele>
        <time>1970-01-01T00:38:59.000Z</time>
      </trkpt>
      <trkpt lat="49.5393" lon="5.69106">
        <ele>340.4</ele>
        <time>1970-01-01T00:39:02.000Z</time>
      </trkpt>
      <trkpt lat="49.53913" lon="5.69128">
        <ele>339.8</ele>
        <time>1970-01-01T00:39:06.000Z</time>
      </trkpt>
      <trkpt lat="49.5391" lon="5.69134">
        <ele>339.4</ele>
        <time>1970-01-01T00:39:07.000Z</time>
      </trkpt>
      <trkpt lat="49.53906" lon="5.69141">
        <ele>339.4</ele>
        <time>1970-01-01T00:39:08.000Z</time>
      </trkpt>
      <trkpt lat="49.53903" lon="5.69149">
        <ele>339.2</ele>
        <time>1970-01-01T00:39:09.000Z</time>
      </trkpt>
      <trkpt lat="49.539" lon="5.69156">
        <ele>338.8</ele>
        <time>1970-01-01T00:39:10.000Z</time>
      </trkpt>
      <trkpt lat="49.53897" lon="5.69163">
        <ele>338.6</ele>
        <time>1970-01-01T00:39:11.000Z</time>
      </trkpt>
      <trkpt lat="49.53895" lon="5.6917">
        <ele>338.4</ele>
        <time>1970-01-01T00:39:12.000Z</time>
      </trkpt>
      <trkpt lat="49.53893" lon="5.69177">
        <ele>338.2</ele>
        <time>1970-01-01T00:39:13.000Z</time>
      </trkpt>
      <trkpt lat="49.53891" lon="5.69184">
        <ele>338</ele>
        <time>1970-01-01T00:39:14.000Z</time>
      </trkpt>
      <trkpt lat="49.53889" lon="5.69191">
        <ele>338</ele>
        <time>1970-01-01T00:39:15.000Z</time>
      </trkpt>
      <trkpt lat="49.53887" lon="5.69197">
        <ele>337.8</ele>
        <time>1970-01-01T00:39:16.000Z</time>
      </trkpt>
      <trkpt lat="49.53884" lon="5.69211">
        <ele>337.6</ele>
        <time>1970-01-01T00:39:18.000Z</time>
      </trkpt>
      <trkpt lat="49.53882" lon="5.69219">
        <ele>337.6</ele>
        <time>1970-01-01T00:39:19.000Z</time>
      </trkpt>
      <trkpt lat="49.53878" lon="5.69226">
        <ele>337.6</ele>
        <time>1970-01-01T00:39:20.000Z</time>
      </trkpt>
      <trkpt lat="49.53875" lon="5.69234">
        <ele>337.6</ele>
        <time>1970-01-01T00:39:21.000Z</time>
      </trkpt>
      <trkpt lat="49.53872" lon="5.69241">
        <ele>337.6</ele>
        <time>1970-01-01T00:39:22.000Z</time>
      </trkpt>
      <trkpt lat="49.53859" lon="5.69265">
        <ele>337.2</ele>
        <time>1970-01-01T00:39:25.000Z</time>
      </trkpt>
      <trkpt lat="49.53858" lon="5.69273">
        <ele>337</ele>
        <time>1970-01-01T00:39:26.000Z</time>
      </trkpt>
      <trkpt lat="49.53851" lon="5.69289">
        <ele>336.8</ele>
        <time>1970-01-01T00:39:28.000Z</time>
      </trkpt>
      <trkpt lat="49.53851" lon="5.69295">
        <ele>336.8</ele>
        <time>1970-01-01T00:39:29.000Z</time>
      </trkpt>
      <trkpt lat="49.53849" lon="5.69299">
        <ele>336.6</ele>
        <time>1970-01-01T00:39:30.000Z</time>
      </trkpt>
      <trkpt lat="49.53848" lon="5.693">
        <ele>336.4</ele>
        <time>1970-01-01T00:39:31.000Z</time>
      </trkpt>
      <trkpt lat="49.53841" lon="5.69301">
        <ele>336.2</ele>
        <time>1970-01-01T00:39:33.000Z</time>
      </trkpt>
      <trkpt lat="49.53835" lon="5.69304">
        <ele>336</ele>
        <time>1970-01-01T00:39:34.000Z</time>
      </trkpt>
      <trkpt lat="49.53823" lon="5.69308">
        <ele>335.6</ele>
        <time>1970-01-01T00:39:36.000Z</time>
      </trkpt>
      <trkpt lat="49.53815" lon="5.69309">
        <ele>334.8</ele>
        <time>1970-01-01T00:39:37.000Z</time>
      </trkpt>
      <trkpt lat="49.53808" lon="5.6931">
        <ele>334.2</ele>
        <time>1970-01-01T00:39:38.000Z</time>
      </trkpt>
      <trkpt lat="49.538" lon="5.69311">
        <ele>333.2</ele>
        <time>1970-01-01T00:39:39.000Z</time>
      </trkpt>
      <trkpt lat="49.53784" lon="5.69314">
        <ele>332.4</ele>
        <time>1970-01-01T00:39:41.000Z</time>
      </trkpt>
      <trkpt lat="49.53767" lon="5.69319">
        <ele>331.4</ele>
        <time>1970-01-01T00:39:43.000Z</time>
      </trkpt>
      <trkpt lat="49.53757" lon="5.69321">
        <ele>330.6</ele>
        <time>1970-01-01T00:39:44.000Z</time>
      </trkpt>
      <trkpt lat="49.53739" lon="5.69326">
        <ele>329.6</ele>
        <time>1970-01-01T00:39:46.000Z</time>
      </trkpt>
      <trkpt lat="49.5373" lon="5.69327">
        <ele>329.2</ele>
        <time>1970-01-01T00:39:47.000Z</time>
      </trkpt>
      <trkpt lat="49.53721" lon="5.69328">
        <ele>327.2</ele>
        <time>1970-01-01T00:39:48.000Z</time>
      </trkpt>
      <trkpt lat="49.53713" lon="5.69328">
        <ele>326.4</ele>
        <time>1970-01-01T00:39:49.000Z</time>
      </trkpt>
      <trkpt lat="49.53705" lon="5.69329">
        <ele>325</ele>
        <time>1970-01-01T00:39:50.000Z</time>
      </trkpt>
      <trkpt lat="49.53697" lon="5.69329">
        <ele>324.6</ele>
        <time>1970-01-01T00:39:51.000Z</time>
      </trkpt>
      <trkpt lat="49.53689" lon="5.6933">
        <ele>323.4</ele>
        <time>1970-01-01T00:39:52.000Z</time>
      </trkpt>
      <trkpt lat="49.53682" lon="5.6933">
        <ele>322.4</ele>
        <time>1970-01-01T00:39:53.000Z</time>
      </trkpt>
      <trkpt lat="49.53675" lon="5.6933">
        <ele>321.4</ele>
        <time>1970-01-01T00:39:54.000Z</time>
      </trkpt>
      <trkpt lat="49.53669" lon="5.6933">
        <ele>319.8</ele>
        <time>1970-01-01T00:39:55.000Z</time>
      </trkpt>
      <trkpt lat="49.53664" lon="5.69329">
        <ele>319</ele>
        <time>1970-01-01T00:39:56.000Z</time>
      </trkpt>
      <trkpt lat="49.53659" lon="5.69327">
        <ele>317.4</ele>
        <time>1970-01-01T00:39:57.000Z</time>
      </trkpt>
      <trkpt lat="49.53654" lon="5.69325">
        <ele>316.2</ele>
        <time>1970-01-01T00:39:58.000Z</time>
      </trkpt>
      <trkpt lat="49.5365" lon="5.69323">
        <ele>314.8</ele>
        <time>1970-01-01T00:39:59.000Z</time>
      </trkpt>
      <trkpt lat="49.53648" lon="5.69322">
        <ele>314.4</ele>
        <time>1970-01-01T00:40:00.000Z</time>
      </trkpt>
      <trkpt lat="49.53646" lon="5.6932">
        <ele>313</ele>
        <time>1970-01-01T00:40:01.000Z</time>
      </trkpt>
      <trkpt lat="49.53644" lon="5.69317">
        <ele>311.4</ele>
        <time>1970-01-01T00:40:02.000Z</time>
      </trkpt>
      <trkpt lat="49.5364" lon="5.69313">
        <ele>310.8</ele>
        <time>1970-01-01T00:40:03.000Z</time>
      </trkpt>
      <trkpt lat="49.53636" lon="5.69309">
        <ele>309.2</ele>
        <time>1970-01-01T00:40:04.000Z</time>
      </trkpt>
      <trkpt lat="49.53631" lon="5.69305">
        <ele>308.4</ele>
        <time>1970-01-01T00:40:05.000Z</time>
      </trkpt>
      <trkpt lat="49.53627" lon="5.693">
        <ele>307.8</ele>
        <time>1970-01-01T00:40:06.000Z</time>
      </trkpt>
      <trkpt lat="49.53622" lon="5.69295">
        <ele>307.4</ele>
        <time>1970-01-01T00:40:07.000Z</time>
      </trkpt>
      <trkpt lat="49.53617" lon="5.69289">
        <ele>306.6</ele>
        <time>1970-01-01T00:40:08.000Z</time>
      </trkpt>
      <trkpt lat="49.53614" lon="5.69283">
        <ele>306</ele>
        <time>1970-01-01T00:40:09.000Z</time>
      </trkpt>
      <trkpt lat="49.53612" lon="5.69277">
        <ele>305.4</ele>
        <time>1970-01-01T00:40:10.000Z</time>
      </trkpt>
      <trkpt lat="49.5361" lon="5.6927">
        <ele>304</ele>
        <time>1970-01-01T00:40:11.000Z</time>
      </trkpt>
      <trkpt lat="49.53609" lon="5.69264">
        <ele>303.4</ele>
        <time>1970-01-01T00:40:12.000Z</time>
      </trkpt>
      <trkpt lat="49.53608" lon="5.69257">
        <ele>302.2</ele>
        <time>1970-01-01T00:40:13.000Z</time>
      </trkpt>
      <trkpt lat="49.53607" lon="5.6925">
        <ele>301.4</ele>
        <time>1970-01-01T00:40:14.000Z</time>
      </trkpt>
      <trkpt lat="49.53607" lon="5.69244">
        <ele>300.4</ele>
        <time>1970-01-01T00:40:15.000Z</time>
      </trkpt>
      <trkpt lat="49.53607" lon="5.69236">
        <ele>300.2</ele>
        <time>1970-01-01T00:40:16.000Z</time>
      </trkpt>
      <trkpt lat="49.53606" lon="5.69229">
        <ele>299.4</ele>
        <time>1970-01-01T00:40:17.000Z</time>
      </trkpt>
      <trkpt lat="49.53607" lon="5.69221">
        <ele>299</ele>
        <time>1970-01-01T00:40:18.000Z</time>
      </trkpt>
      <trkpt lat="49.53607" lon="5.69206">
        <ele>298.6</ele>
        <time>1970-01-01T00:40:20.000Z</time>
      </trkpt>
      <trkpt lat="49.53607" lon="5.692">
        <ele>298.4</ele>
        <time>1970-01-01T00:40:21.000Z</time>
      </trkpt>
      <trkpt lat="49.53607" lon="5.69196">
        <ele>298.2</ele>
        <time>1970-01-01T00:40:22.000Z</time>
      </trkpt>
      <trkpt lat="49.53608" lon="5.69193">
        <ele>298</ele>
        <time>1970-01-01T00:40:23.000Z</time>
      </trkpt>
      <trkpt lat="49.53609" lon="5.69189">
        <ele>298</ele>
        <time>1970-01-01T00:40:24.000Z</time>
      </trkpt>
      <trkpt lat="49.53611" lon="5.6918">
        <ele>297.8</ele>
        <time>1970-01-01T00:40:26.000Z</time>
      </trkpt>
      <trkpt lat="49.53613" lon="5.69167">
        <ele>297.6</ele>
        <time>1970-01-01T00:40:28.000Z</time>
      </trkpt>
      <trkpt lat="49.53619" lon="5.69134">
        <ele>297.2</ele>
        <time>1970-01-01T00:40:33.000Z</time>
      </trkpt>
      <trkpt lat="49.53622" lon="5.69117">
        <ele>297</ele>
        <time>1970-01-01T00:40:35.000Z</time>
      </trkpt>
      <trkpt lat="49.53623" lon="5.6911">
        <ele>296.6</ele>
        <time>1970-01-01T00:40:36.000Z</time>
      </trkpt>
      <trkpt lat="49.53621" lon="5.69102">
        <ele>296.4</ele>
        <time>1970-01-01T00:40:37.000Z</time>
      </trkpt>
      <trkpt lat="49.53617" lon="5.69097">
        <ele>295.8</ele>
        <time>1970-01-01T00:40:38.000Z</time>
      </trkpt>
      <trkpt lat="49.53613" lon="5.69093">
        <ele>295.6</ele>
        <time>1970-01-01T00:40:39.000Z</time>
      </trkpt>
      <trkpt lat="49.53608" lon="5.69089">
        <ele>294.6</ele>
        <time>1970-01-01T00:40:40.000Z</time>
      </trkpt>
      <trkpt lat="49.53603" lon="5.69084">
        <ele>294.4</ele>
        <time>1970-01-01T00:40:41.000Z</time>
      </trkpt>
      <trkpt lat="49.53592" lon="5.69077">
        <ele>293.4</ele>
        <time>1970-01-01T00:40:43.000Z</time>
      </trkpt>
      <trkpt lat="49.53587" lon="5.69074">
        <ele>292.4</ele>
        <time>1970-01-01T00:40:44.000Z</time>
      </trkpt>
      <trkpt lat="49.53583" lon="5.69071">
        <ele>291</ele>
        <time>1970-01-01T00:40:45.000Z</time>
      </trkpt>
      <trkpt lat="49.53574" lon="5.69063">
        <ele>289.2</ele>
        <time>1970-01-01T00:40:47.000Z</time>
      </trkpt>
      <trkpt lat="49.5357" lon="5.69059">
        <ele>288.4</ele>
        <time>1970-01-01T00:40:48.000Z</time>
      </trkpt>
      <trkpt lat="49.53567" lon="5.69056">
        <ele>287.8</ele>
        <time>1970-01-01T00:40:49.000Z</time>
      </trkpt>
      <trkpt lat="49.53562" lon="5.69053">
        <ele>286.8</ele>
        <time>1970-01-01T00:40:50.000Z</time>
      </trkpt>
      <trkpt lat="49.53558" lon="5.69049">
        <ele>285.2</ele>
        <time>1970-01-01T00:40:51.000Z</time>
      </trkpt>
      <trkpt lat="49.53553" lon="5.69044">
        <ele>283.8</ele>
        <time>1970-01-01T00:40:52.000Z</time>
      </trkpt>
      <trkpt lat="49.53545" lon="5.69036">
        <ele>282.2</ele>
        <time>1970-01-01T00:40:54.000Z</time>
      </trkpt>
      <trkpt lat="49.53541" lon="5.6903">
        <ele>281.8</ele>
        <time>1970-01-01T00:40:55.000Z</time>
      </trkpt>
      <trkpt lat="49.53538" lon="5.69024">
        <ele>280.6</ele>
        <time>1970-01-01T00:40:56.000Z</time>
      </trkpt>
      <trkpt lat="49.53536" lon="5.69016">
        <ele>280</ele>
        <time>1970-01-01T00:40:57.000Z</time>
      </trkpt>
      <trkpt lat="49.53534" lon="5.69007">
        <ele>278.8</ele>
        <time>1970-01-01T00:40:58.000Z</time>
      </trkpt>
      <trkpt lat="49.53534" lon="5.68998">
        <ele>278.4</ele>
        <time>1970-01-01T00:40:59.000Z</time>
      </trkpt>
      <trkpt lat="49.53532" lon="5.68992">
        <ele>277.2</ele>
        <time>1970-01-01T00:41:00.000Z</time>
      </trkpt>
      <trkpt lat="49.53531" lon="5.68985">
        <ele>275.8</ele>
        <time>1970-01-01T00:41:01.000Z</time>
      </trkpt>
      <trkpt lat="49.53531" lon="5.68977">
        <ele>275.4</ele>
        <time>1970-01-01T00:41:02.000Z</time>
      </trkpt>
      <trkpt lat="49.53532" lon="5.68969">
        <ele>274.6</ele>
        <time>1970-01-01T00:41:03.000Z</time>
      </trkpt>
      <trkpt lat="49.53532" lon="5.68949">
        <ele>273.4</ele>
        <time>1970-01-01T00:41:05.000Z</time>
      </trkpt>
      <trkpt lat="49.53534" lon="5.6894">
        <ele>273</ele>
        <time>1970-01-01T00:41:06.000Z</time>
      </trkpt>
      <trkpt lat="49.53535" lon="5.68931">
        <ele>272.4</ele>
        <time>1970-01-01T00:41:07.000Z</time>
      </trkpt>
      <trkpt lat="49.53535" lon="5.68921">
        <ele>272.2</ele>
        <time>1970-01-01T00:41:08.000Z</time>
      </trkpt>
      <trkpt lat="49.53535" lon="5.68912">
        <ele>271.4</ele>
        <time>1970-01-01T00:41:09.000Z</time>
      </trkpt>
      <trkpt lat="49.53535" lon="5.68904">
        <ele>271</ele>
        <time>1970-01-01T00:41:10.000Z</time>
      </trkpt>
      <trkpt lat="49.53536" lon="5.68887">
        <ele>270.4</ele>
        <time>1970-01-01T00:41:12.000Z</time>
      </trkpt>
      <trkpt lat="49.53537" lon="5.68869">
        <ele>269.6</ele>
        <time>1970-01-01T00:41:14.000Z</time>
      </trkpt>
      <trkpt lat="49.53539" lon="5.68851">
        <ele>268.8</ele>
        <time>1970-01-01T00:41:16.000Z</time>
      </trkpt>
      <trkpt lat="49.53541" lon="5.68843">
        <ele>268.6</ele>
        <time>1970-01-01T00:41:17.000Z</time>
      </trkpt>
      <trkpt lat="49.53543" lon="5.68834">
        <ele>268</ele>
        <time>1970-01-01T00:41:18.000Z</time>
      </trkpt>
      <trkpt lat="49.53545" lon="5.68827">
        <ele>267.4</ele>
        <time>1970-01-01T00:41:19.000Z</time>
      </trkpt>
      <trkpt lat="49.53548" lon="5.68819">
        <ele>267.2</ele>
        <time>1970-01-01T00:41:20.000Z</time>
      </trkpt>
      <trkpt lat="49.53551" lon="5.68812">
        <ele>266.6</ele>
        <time>1970-01-01T00:41:21.000Z</time>
      </trkpt>
      <trkpt lat="49.53553" lon="5.68805">
        <ele>266.6</ele>
        <time>1970-01-01T00:41:22.000Z</time>
      </trkpt>
      <trkpt lat="49.53556" lon="5.68797">
        <ele>266.4</ele>
        <time>1970-01-01T00:41:23.000Z</time>
      </trkpt>
      <trkpt lat="49.5356" lon="5.68784">
        <ele>266</ele>
        <time>1970-01-01T00:41:25.000Z</time>
      </trkpt>
      <trkpt lat="49.53562" lon="5.68778">
        <ele>266</ele>
        <time>1970-01-01T00:41:26.000Z</time>
      </trkpt>
      <trkpt lat="49.53564" lon="5.68773">
        <ele>265.6</ele>
        <time>1970-01-01T00:41:27.000Z</time>
      </trkpt>
      <trkpt lat="49.53564" lon="5.68769">
        <ele>265.2</ele>
        <time>1970-01-01T00:41:28.000Z</time>
      </trkpt>
      <trkpt lat="49.53563" lon="5.68765">
        <ele>265</ele>
        <time>1970-01-01T00:41:29.000Z</time>
      </trkpt>
      <trkpt lat="49.53561" lon="5.68765">
        <ele>264.4</ele>
        <time>1970-01-01T00:41:30.000Z</time>
      </trkpt>
      <trkpt lat="49.53559" lon="5.68767">
        <ele>264</ele>
        <time>1970-01-01T00:41:31.000Z</time>
      </trkpt>
      <trkpt lat="49.53552" lon="5.68777">
        <ele>263.2</ele>
        <time>1970-01-01T00:41:34.000Z</time>
      </trkpt>
      <trkpt lat="49.53549" lon="5.68781">
        <ele>263</ele>
        <time>1970-01-01T00:41:35.000Z</time>
      </trkpt>
      <trkpt lat="49.53546" lon="5.68785">
        <ele>263</ele>
        <time>1970-01-01T00:41:36.000Z</time>
      </trkpt>
      <trkpt lat="49.53543" lon="5.68789">
        <ele>262.8</ele>
        <time>1970-01-01T00:41:37.000Z</time>
      </trkpt>
      <trkpt lat="49.53537" lon="5.68797">
        <ele>262.6</ele>
        <time>1970-01-01T00:41:39.000Z</time>
      </trkpt>
      <trkpt lat="49.53533" lon="5.68805">
        <ele>262.4</ele>
        <time>1970-01-01T00:41:41.000Z</time>
      </trkpt>
      <trkpt lat="49.53528" lon="5.68815">
        <ele>262.4</ele>
        <time>1970-01-01T00:41:43.000Z</time>
      </trkpt>
      <trkpt lat="49.53525" lon="5.6882">
        <ele>262.4</ele>
        <time>1970-01-01T00:41:44.000Z</time>
      </trkpt>
      <trkpt lat="49.5352" lon="5.6883">
        <ele>262.4</ele>
        <time>1970-01-01T00:41:46.000Z</time>
      </trkpt>
      <trkpt lat="49.53518" lon="5.68836">
        <ele>262.4</ele>
        <time>1970-01-01T00:41:47.000Z</time>
      </trkpt>
      <trkpt lat="49.53512" lon="5.68852">
        <ele>262.6</ele>
        <time>1970-01-01T00:41:50.000Z</time>
      </trkpt>
      <trkpt lat="49.5351" lon="5.68858">
        <ele>262.8</ele>
        <time>1970-01-01T00:41:51.000Z</time>
      </trkpt>
      <trkpt lat="49.53508" lon="5.68864">
        <ele>262.8</ele>
        <time>1970-01-01T00:41:52.000Z</time>
      </trkpt>
      <trkpt lat="49.53507" lon="5.6887">
        <ele>262.8</ele>
        <time>1970-01-01T00:41:53.000Z</time>
      </trkpt>
      <trkpt lat="49.53506" lon="5.68877">
        <ele>262.8</ele>
        <time>1970-01-01T00:41:54.000Z</time>
      </trkpt>
      <trkpt lat="49.53502" lon="5.6889">
        <ele>262.8</ele>
        <time>1970-01-01T00:41:56.000Z</time>
      </trkpt>
      <trkpt lat="49.53494" lon="5.68908">
        <ele>262.8</ele>
        <time>1970-01-01T00:41:59.000Z</time>
      </trkpt>
      <trkpt lat="49.53492" lon="5.68914">
        <ele>262.8</ele>
        <time>1970-01-01T00:42:00.000Z</time>
      </trkpt>
      <trkpt lat="49.53473" lon="5.68958">
        <ele>262.8</ele>
        <time>1970-01-01T00:42:07.000Z</time>
      </trkpt>
      <trkpt lat="49.53467" lon="5.68972">
        <ele>262.8</ele>
        <time>1970-01-01T00:42:09.000Z</time>
      </trkpt>
      <trkpt lat="49.53464" lon="5.68979">
        <ele>262.8</ele>
        <time>1970-01-01T00:42:10.000Z</time>
      </trkpt>
      <trkpt lat="49.53458" lon="5.68993">
        <ele>262.8</ele>
        <time>1970-01-01T00:42:12.000Z</time>
      </trkpt>
      <trkpt lat="49.53455" lon="5.69">
        <ele>262.6</ele>
        <time>1970-01-01T00:42:13.000Z</time>
      </trkpt>
      <trkpt lat="49.53453" lon="5.69007">
        <ele>262.6</ele>
        <time>1970-01-01T00:42:14.000Z</time>
      </trkpt>
      <trkpt lat="49.53447" lon="5.69019">
        <ele>262.8</ele>
        <time>1970-01-01T00:42:16.000Z</time>
      </trkpt>
      <trkpt lat="49.53444" lon="5.69023">
        <ele>262.8</ele>
        <time>1970-01-01T00:42:17.000Z</time>
      </trkpt>
      <trkpt lat="49.5344" lon="5.69026">
        <ele>262.8</ele>
        <time>1970-01-01T00:42:18.000Z</time>
      </trkpt>
      <trkpt lat="49.53436" lon="5.69027">
        <ele>262.6</ele>
        <time>1970-01-01T00:42:19.000Z</time>
      </trkpt>
      <trkpt lat="49.53432" lon="5.69026">
        <ele>262.6</ele>
        <time>1970-01-01T00:42:20.000Z</time>
      </trkpt>
      <trkpt lat="49.53423" lon="5.69023">
        <ele>262.4</ele>
        <time>1970-01-01T00:42:22.000Z</time>
      </trkpt>
      <trkpt lat="49.53419" lon="5.69022">
        <ele>262.4</ele>
        <time>1970-01-01T00:42:23.000Z</time>
      </trkpt>
      <trkpt lat="49.53416" lon="5.6902">
        <ele>262.4</ele>
        <time>1970-01-01T00:42:24.000Z</time>
      </trkpt>
      <trkpt lat="49.53413" lon="5.69019">
        <ele>262.4</ele>
        <time>1970-01-01T00:42:25.000Z</time>
      </trkpt>
      <trkpt lat="49.5341" lon="5.69018">
        <ele>262.2</ele>
        <time>1970-01-01T00:42:26.000Z</time>
      </trkpt>
      <trkpt lat="49.53408" lon="5.69018">
        <ele>262.2</ele>
        <time>1970-01-01T00:42:27.000Z</time>
      </trkpt>
      <trkpt lat="49.53407" lon="5.69018">
        <ele>262</ele>
        <time>1970-01-01T00:42:28.000Z</time>
      </trkpt>
      <trkpt lat="49.53405" lon="5.69018">
        <ele>261.8</ele>
        <time>1970-01-01T00:42:29.000Z</time>
      </trkpt>
      <trkpt lat="49.53405" lon="5.69018">
        <ele>261.4</ele>
        <time>1970-01-01T00:42:34.000Z</time>
      </trkpt>
      <trkpt lat="49.53405" lon="5.69018">
        <ele>261.2</ele>
        <time>1970-01-01T00:42:35.000Z</time>
      </trkpt>
      <trkpt lat="49.53403" lon="5.69014">
        <ele>261</ele>
        <time>1970-01-01T00:42:46.000Z</time>
      </trkpt>
      <trkpt lat="49.53402" lon="5.69004">
        <ele>261.2</ele>
        <time>1970-01-01T00:42:48.000Z</time>
      </trkpt>
      <trkpt lat="49.53401" lon="5.68992">
        <ele>261.2</ele>
        <time>1970-01-01T00:42:50.000Z</time>
      </trkpt>
      <trkpt lat="49.53401" lon="5.68986">
        <ele>261.2</ele>
        <time>1970-01-01T00:42:51.000Z</time>
      </trkpt>
      <trkpt lat="49.534" lon="5.68968">
        <ele>261.2</ele>
        <time>1970-01-01T00:42:54.000Z</time>
      </trkpt>
      <trkpt lat="49.53399" lon="5.68964">
        <ele>261</ele>
        <time>1970-01-01T00:42:55.000Z</time>
      </trkpt>
      <trkpt lat="49.53399" lon="5.6896">
        <ele>261</ele>
        <time>1970-01-01T00:42:56.000Z</time>
      </trkpt>
      <trkpt lat="49.53399" lon="5.68957">
        <ele>261</ele>
        <time>1970-01-01T00:42:57.000Z</time>
      </trkpt>
      <trkpt lat="49.53399" lon="5.68953">
        <ele>260.8</ele>
        <time>1970-01-01T00:42:58.000Z</time>
      </trkpt>
      <trkpt lat="49.53398" lon="5.68931">
        <ele>260</ele>
        <time>1970-01-01T00:43:02.000Z</time>
      </trkpt>
      <trkpt lat="49.53395" lon="5.68919">
        <ele>259.6</ele>
        <time>1970-01-01T00:43:04.000Z</time>
      </trkpt>
      <trkpt lat="49.53392" lon="5.68914">
        <ele>259.6</ele>
        <time>1970-01-01T00:43:05.000Z</time>
      </trkpt>
      <trkpt lat="49.53388" lon="5.68911">
        <ele>259.6</ele>
        <time>1970-01-01T00:43:06.000Z</time>
      </trkpt>
      <trkpt lat="49.53385" lon="5.68909">
        <ele>259.6</ele>
        <time>1970-01-01T00:43:07.000Z</time>
      </trkpt>
      <trkpt lat="49.53381" lon="5.68908">
        <ele>259.6</ele>
        <time>1970-01-01T00:43:08.000Z</time>
      </trkpt>
      <trkpt lat="49.53377" lon="5.68907">
        <ele>259.6</ele>
        <time>1970-01-01T00:43:09.000Z</time>
      </trkpt>
      <trkpt lat="49.53374" lon="5.68906">
        <ele>259.6</ele>
        <time>1970-01-01T00:43:10.000Z</time>
      </trkpt>
      <trkpt lat="49.5337" lon="5.68905">
        <ele>259.6</ele>
        <time>1970-01-01T00:43:11.000Z</time>
      </trkpt>
      <trkpt lat="49.53367" lon="5.68904">
        <ele>259.4</ele>
        <time>1970-01-01T00:43:12.000Z</time>
      </trkpt>
      <trkpt lat="49.53365" lon="5.68903">
        <ele>259.4</ele>
        <time>1970-01-01T00:43:13.000Z</time>
      </trkpt>
      <trkpt lat="49.53363" lon="5.68903">
        <ele>259.4</ele>
        <time>1970-01-01T00:43:14.000Z</time>
      </trkpt>
      <trkpt lat="49.53361" lon="5.68905">
        <ele>259.4</ele>
        <time>1970-01-01T00:43:15.000Z</time>
      </trkpt>
      <trkpt lat="49.53359" lon="5.68908">
        <ele>259.6</ele>
        <time>1970-01-01T00:43:16.000Z</time>
      </trkpt>
      <trkpt lat="49.53357" lon="5.68912">
        <ele>259.6</ele>
        <time>1970-01-01T00:43:17.000Z</time>
      </trkpt>
      <trkpt lat="49.53356" lon="5.68918">
        <ele>259.6</ele>
        <time>1970-01-01T00:43:18.000Z</time>
      </trkpt>
      <trkpt lat="49.53357" lon="5.68938">
        <ele>259.6</ele>
        <time>1970-01-01T00:43:21.000Z</time>
      </trkpt>
      <trkpt lat="49.53358" lon="5.68945">
        <ele>259.8</ele>
        <time>1970-01-01T00:43:22.000Z</time>
      </trkpt>
      <trkpt lat="49.53358" lon="5.68952">
        <ele>259.8</ele>
        <time>1970-01-01T00:43:23.000Z</time>
      </trkpt>
      <trkpt lat="49.53363" lon="5.69016">
        <ele>260.4</ele>
        <time>1970-01-01T00:43:31.000Z</time>
      </trkpt>
      <trkpt lat="49.53364" lon="5.69034">
        <ele>260.4</ele>
        <time>1970-01-01T00:43:33.000Z</time>
      </trkpt>
      <trkpt lat="49.53368" lon="5.69089">
        <ele>260.6</ele>
        <time>1970-01-01T00:43:39.000Z</time>
      </trkpt>
      <trkpt lat="49.53369" lon="5.69107">
        <ele>260.6</ele>
        <time>1970-01-01T00:43:41.000Z</time>
      </trkpt>
      <trkpt lat="49.53371" lon="5.69125">
        <ele>260.4</ele>
        <time>1970-01-01T00:43:43.000Z</time>
      </trkpt>
      <trkpt lat="49.53374" lon="5.69151">
        <ele>260.4</ele>
        <time>1970-01-01T00:43:46.000Z</time>
      </trkpt>
      <trkpt lat="49.53375" lon="5.69159">
        <ele>260.4</ele>
        <time>1970-01-01T00:43:47.000Z</time>
      </trkpt>
      <trkpt lat="49.53375" lon="5.69168">
        <ele>260.4</ele>
        <time>1970-01-01T00:43:48.000Z</time>
      </trkpt>
      <trkpt lat="49.53376" lon="5.69176">
        <ele>260.4</ele>
        <time>1970-01-01T00:43:49.000Z</time>
      </trkpt>
      <trkpt lat="49.53375" lon="5.69184">
        <ele>260.4</ele>
        <time>1970-01-01T00:43:50.000Z</time>
      </trkpt>
      <trkpt lat="49.53372" lon="5.69192">
        <ele>260.6</ele>
        <time>1970-01-01T00:43:51.000Z</time>
      </trkpt>
      <trkpt lat="49.5337" lon="5.69199">
        <ele>260.6</ele>
        <time>1970-01-01T00:43:52.000Z</time>
      </trkpt>
      <trkpt lat="49.5337" lon="5.69206">
        <ele>261</ele>
        <time>1970-01-01T00:43:53.000Z</time>
      </trkpt>
      <trkpt lat="49.5337" lon="5.69212">
        <ele>261.2</ele>
        <time>1970-01-01T00:43:54.000Z</time>
      </trkpt>
      <trkpt lat="49.53369" lon="5.69219">
        <ele>261.4</ele>
        <time>1970-01-01T00:43:55.000Z</time>
      </trkpt>
      <trkpt lat="49.53368" lon="5.69225">
        <ele>261.6</ele>
        <time>1970-01-01T00:43:56.000Z</time>
      </trkpt>
      <trkpt lat="49.53368" lon="5.69231">
        <ele>261.8</ele>
        <time>1970-01-01T00:43:57.000Z</time>
      </trkpt>
      <trkpt lat="49.53367" lon="5.69237">
        <ele>262</ele>
        <time>1970-01-01T00:43:58.000Z</time>
      </trkpt>
      <trkpt lat="49.53366" lon="5.69243">
        <ele>262</ele>
        <time>1970-01-01T00:43:59.000Z</time>
      </trkpt>
      <trkpt lat="49.53365" lon="5.69248">
        <ele>262.4</ele>
        <time>1970-01-01T00:44:00.000Z</time>
      </trkpt>
      <trkpt lat="49.53364" lon="5.69253">
        <ele>262.6</ele>
        <time>1970-01-01T00:44:01.000Z</time>
      </trkpt>
      <trkpt lat="49.53363" lon="5.69258">
        <ele>262.8</ele>
        <time>1970-01-01T00:44:02.000Z</time>
      </trkpt>
      <trkpt lat="49.53356" lon="5.69278">
        <ele>263.6</ele>
        <time>1970-01-01T00:44:06.000Z</time>
      </trkpt>
      <trkpt lat="49.53354" lon="5.69282">
        <ele>263.6</ele>
        <time>1970-01-01T00:44:07.000Z</time>
      </trkpt>
      <trkpt lat="49.53351" lon="5.69307">
        <ele>266.2</ele>
      </trkpt>
      <trkpt lat="49.53351" lon="5.69348">
        <ele>267.8</ele>
        <time>1970-01-01T02:56:00.000Z</time>
      </trkpt>
      <trkpt lat="49.53351" lon="5.6936">
        <ele>267.6</ele>
        <time>1970-01-01T02:56:02.000Z</time>
      </trkpt>
      <trkpt lat="49.53351" lon="5.69365">
        <ele>267.6</ele>
        <time>1970-01-01T02:56:03.000Z</time>
      </trkpt>
      <trkpt lat="49.5335" lon="5.6937">
        <ele>267.8</ele>
        <time>1970-01-01T02:56:04.000Z</time>
      </trkpt>
      <trkpt lat="49.5335" lon="5.69376">
        <ele>268</ele>
        <time>1970-01-01T02:56:05.000Z</time>
      </trkpt>
      <trkpt lat="49.5335" lon="5.69381">
        <ele>268</ele>
        <time>1970-01-01T02:56:06.000Z</time>
      </trkpt>
      <trkpt lat="49.53349" lon="5.69431">
        <ele>269</ele>
        <time>1970-01-01T02:56:14.000Z</time>
      </trkpt>
      <trkpt lat="49.53349" lon="5.69443">
        <ele>269.2</ele>
        <time>1970-01-01T02:56:16.000Z</time>
      </trkpt>
      <trkpt lat="49.53342" lon="5.69485">
        <ele>269.6</ele>
        <time>1970-01-01T02:56:22.000Z</time>
      </trkpt>
      <trkpt lat="49.5334" lon="5.69493">
        <ele>269.6</ele>
        <time>1970-01-01T02:56:23.000Z</time>
      </trkpt>
      <trkpt lat="49.53332" lon="5.69545">
        <ele>269.2</ele>
        <time>1970-01-01T02:56:30.000Z</time>
      </trkpt>
      <trkpt lat="49.53331" lon="5.69562">
        <ele>269.2</ele>
        <time>1970-01-01T02:56:32.000Z</time>
      </trkpt>
      <trkpt lat="49.53331" lon="5.6957">
        <ele>269.2</ele>
        <time>1970-01-01T02:56:33.000Z</time>
      </trkpt>
      <trkpt lat="49.53332" lon="5.69577">
        <ele>269</ele>
        <time>1970-01-01T02:56:34.000Z</time>
      </trkpt>
      <trkpt lat="49.53333" lon="5.69593">
        <ele>269</ele>
        <time>1970-01-01T02:56:36.000Z</time>
      </trkpt>
      <trkpt lat="49.53337" lon="5.69633">
        <ele>268.8</ele>
        <time>1970-01-01T02:56:41.000Z</time>
      </trkpt>
      <trkpt lat="49.53338" lon="5.6964">
        <ele>268.6</ele>
        <time>1970-01-01T02:56:42.000Z</time>
      </trkpt>
      <trkpt lat="49.5334" lon="5.69647">
        <ele>268.6</ele>
        <time>1970-01-01T02:56:43.000Z</time>
      </trkpt>
      <trkpt lat="49.53341" lon="5.69653">
        <ele>268.6</ele>
        <time>1970-01-01T02:56:44.000Z</time>
      </trkpt>
      <trkpt lat="49.53343" lon="5.69659">
        <ele>268.6</ele>
        <time>1970-01-01T02:56:45.000Z</time>
      </trkpt>
      <trkpt lat="49.53345" lon="5.69665">
        <ele>268.6</ele>
        <time>1970-01-01T02:56:46.000Z</time>
      </trkpt>
      <trkpt lat="49.53347" lon="5.69671">
        <ele>268.6</ele>
        <time>1970-01-01T02:56:47.000Z</time>
      </trkpt>
      <trkpt lat="49.5335" lon="5.69676">
        <ele>268.8</ele>
        <time>1970-01-01T02:56:48.000Z</time>
      </trkpt>
      <trkpt lat="49.53353" lon="5.69682">
        <ele>268.8</ele>
        <time>1970-01-01T02:56:49.000Z</time>
      </trkpt>
      <trkpt lat="49.53355" lon="5.69686">
        <ele>269</ele>
        <time>1970-01-01T02:56:50.000Z</time>
      </trkpt>
      <trkpt lat="49.53367" lon="5.69707">
        <ele>269</ele>
        <time>1970-01-01T02:56:54.000Z</time>
      </trkpt>
      <trkpt lat="49.53369" lon="5.69711">
        <ele>269.2</ele>
        <time>1970-01-01T02:56:55.000Z</time>
      </trkpt>
      <trkpt lat="49.53375" lon="5.69721">
        <ele>269.4</ele>
        <time>1970-01-01T02:56:57.000Z</time>
      </trkpt>
      <trkpt lat="49.53378" lon="5.69726">
        <ele>269.4</ele>
        <time>1970-01-01T02:56:58.000Z</time>
      </trkpt>
      <trkpt lat="49.53379" lon="5.6973">
        <ele>269.4</ele>
        <time>1970-01-01T02:56:59.000Z</time>
      </trkpt>
      <trkpt lat="49.53381" lon="5.69735">
        <ele>269.4</ele>
        <time>1970-01-01T02:57:00.000Z</time>
      </trkpt>
      <trkpt lat="49.53382" lon="5.6974">
        <ele>269.4</ele>
        <time>1970-01-01T02:57:01.000Z</time>
      </trkpt>
      <trkpt lat="49.53383" lon="5.69745">
        <ele>269.4</ele>
        <time>1970-01-01T02:57:02.000Z</time>
      </trkpt>
      <trkpt lat="49.53384" lon="5.69749">
        <ele>269.4</ele>
        <time>1970-01-01T02:57:03.000Z</time>
      </trkpt>
      <trkpt lat="49.53385" lon="5.69754">
        <ele>269.6</ele>
        <time>1970-01-01T02:57:04.000Z</time>
      </trkpt>
      <trkpt lat="49.53386" lon="5.69759">
        <ele>269.8</ele>
        <time>1970-01-01T02:57:05.000Z</time>
      </trkpt>
      <trkpt lat="49.53386" lon="5.69762">
        <ele>269.8</ele>
        <time>1970-01-01T02:57:06.000Z</time>
      </trkpt>
      <trkpt lat="49.53387" lon="5.69766">
        <ele>269.8</ele>
        <time>1970-01-01T02:57:07.000Z</time>
      </trkpt>
      <trkpt lat="49.53387" lon="5.69769">
        <ele>269.8</ele>
        <time>1970-01-01T02:57:08.000Z</time>
      </trkpt>
      <trkpt lat="49.53387" lon="5.69773">
        <ele>270</ele>
        <time>1970-01-01T02:57:09.000Z</time>
      </trkpt>
      <trkpt lat="49.53388" lon="5.69776">
        <ele>270</ele>
        <time>1970-01-01T02:57:10.000Z</time>
      </trkpt>
      <trkpt lat="49.53388" lon="5.69779">
        <ele>270</ele>
        <time>1970-01-01T02:57:11.000Z</time>
      </trkpt>
      <trkpt lat="49.53389" lon="5.69785">
        <ele>270.4</ele>
        <time>1970-01-01T02:57:13.000Z</time>
      </trkpt>
      <trkpt lat="49.5339" lon="5.69787">
        <ele>271</ele>
        <time>1970-01-01T02:57:14.000Z</time>
      </trkpt>
      <trkpt lat="49.5339" lon="5.6979">
        <ele>271.2</ele>
        <time>1970-01-01T02:57:15.000Z</time>
      </trkpt>
      <trkpt lat="49.53392" lon="5.69801">
        <ele>272.2</ele>
        <time>1970-01-01T02:57:19.000Z</time>
      </trkpt>
      <trkpt lat="49.53393" lon="5.69803">
        <ele>272.4</ele>
        <time>1970-01-01T02:57:20.000Z</time>
      </trkpt>
      <trkpt lat="49.53394" lon="5.69808">
        <ele>272.8</ele>
        <time>1970-01-01T02:57:22.000Z</time>
      </trkpt>
      <trkpt lat="49.53394" lon="5.69811">
        <ele>273.2</ele>
        <time>1970-01-01T02:57:23.000Z</time>
      </trkpt>
      <trkpt lat="49.53394" lon="5.69813">
        <ele>273.4</ele>
        <time>1970-01-01T02:57:24.000Z</time>
      </trkpt>
      <trkpt lat="49.53395" lon="5.69816">
        <ele>273.6</ele>
        <time>1970-01-01T02:57:25.000Z</time>
      </trkpt>
      <trkpt lat="49.53395" lon="5.69818">
        <ele>273.8</ele>
        <time>1970-01-01T02:57:26.000Z</time>
      </trkpt>
      <trkpt lat="49.53396" lon="5.69821">
        <ele>274.2</ele>
        <time>1970-01-01T02:57:27.000Z</time>
      </trkpt>
      <trkpt lat="49.53396" lon="5.69823">
        <ele>274.4</ele>
        <time>1970-01-01T02:57:28.000Z</time>
      </trkpt>
      <trkpt lat="49.53397" lon="5.69826">
        <ele>274.8</ele>
        <time>1970-01-01T02:57:29.000Z</time>
      </trkpt>
      <trkpt lat="49.53397" lon="5.6983">
        <ele>275</ele>
        <time>1970-01-01T02:57:30.000Z</time>
      </trkpt>
      <trkpt lat="49.53398" lon="5.69834">
        <ele>275.2</ele>
        <time>1970-01-01T02:57:31.000Z</time>
      </trkpt>
      <trkpt lat="49.53398" lon="5.69838">
        <ele>275.6</ele>
        <time>1970-01-01T02:57:32.000Z</time>
      </trkpt>
      <trkpt lat="49.534" lon="5.69842">
        <ele>275.6</ele>
        <time>1970-01-01T02:57:33.000Z</time>
      </trkpt>
      <trkpt lat="49.53401" lon="5.69847">
        <ele>275.8</ele>
        <time>1970-01-01T02:57:34.000Z</time>
      </trkpt>
      <trkpt lat="49.53402" lon="5.69851">
        <ele>276</ele>
        <time>1970-01-01T02:57:35.000Z</time>
      </trkpt>
      <trkpt lat="49.53403" lon="5.69856">
        <ele>276</ele>
        <time>1970-01-01T02:57:36.000Z</time>
      </trkpt>
      <trkpt lat="49.53404" lon="5.6986">
        <ele>276</ele>
        <time>1970-01-01T02:57:37.000Z</time>
      </trkpt>
      <trkpt lat="49.53405" lon="5.69865">
        <ele>276.2</ele>
        <time>1970-01-01T02:57:38.000Z</time>
      </trkpt>
      <trkpt lat="49.53406" lon="5.6987">
        <ele>276.4</ele>
        <time>1970-01-01T02:57:39.000Z</time>
      </trkpt>
      <trkpt lat="49.53407" lon="5.69875">
        <ele>276.6</ele>
        <time>1970-01-01T02:57:40.000Z</time>
      </trkpt>
      <trkpt lat="49.53409" lon="5.69879">
        <ele>276.8</ele>
        <time>1970-01-01T02:57:41.000Z</time>
      </trkpt>
      <trkpt lat="49.5341" lon="5.69884">
        <ele>277</ele>
        <time>1970-01-01T02:57:42.000Z</time>
      </trkpt>
      <trkpt lat="49.53411" lon="5.69889">
        <ele>277.2</ele>
        <time>1970-01-01T02:57:43.000Z</time>
      </trkpt>
      <trkpt lat="49.53413" lon="5.69894">
        <ele>277.4</ele>
        <time>1970-01-01T02:57:44.000Z</time>
      </trkpt>
      <trkpt lat="49.53414" lon="5.69899">
        <ele>277.6</ele>
        <time>1970-01-01T02:57:45.000Z</time>
      </trkpt>
      <trkpt lat="49.53416" lon="5.69903">
        <ele>277.6</ele>
        <time>1970-01-01T02:57:46.000Z</time>
      </trkpt>
      <trkpt lat="49.53418" lon="5.69908">
        <ele>277.6</ele>
        <time>1970-01-01T02:57:47.000Z</time>
      </trkpt>
      <trkpt lat="49.53419" lon="5.69912">
        <ele>277.8</ele>
        <time>1970-01-01T02:57:48.000Z</time>
      </trkpt>
      <trkpt lat="49.53421" lon="5.69917">
        <ele>277.8</ele>
        <time>1970-01-01T02:57:49.000Z</time>
      </trkpt>
      <trkpt lat="49.53423" lon="5.69921">
        <ele>278</ele>
        <time>1970-01-01T02:57:50.000Z</time>
      </trkpt>
      <trkpt lat="49.53425" lon="5.69926">
        <ele>278.2</ele>
        <time>1970-01-01T02:57:51.000Z</time>
      </trkpt>
      <trkpt lat="49.53427" lon="5.69931">
        <ele>278.4</ele>
        <time>1970-01-01T02:57:52.000Z</time>
      </trkpt>
      <trkpt lat="49.53429" lon="5.69935">
        <ele>278.4</ele>
        <time>1970-01-01T02:57:53.000Z</time>
      </trkpt>
      <trkpt lat="49.53429" lon="5.69935">
        <ele>278.4</ele>
        <time>1970-01-01T02:57:54.000Z</time>
      </trkpt>
      <trkpt lat="49.53433" lon="5.69944">
        <ele>278.4</ele>
        <time>1970-01-01T02:57:55.000Z</time>
      </trkpt>
      <trkpt lat="49.53436" lon="5.69949">
        <ele>278.4</ele>
        <time>1970-01-01T02:57:56.000Z</time>
      </trkpt>
      <trkpt lat="49.53438" lon="5.69953">
        <ele>278.4</ele>
        <time>1970-01-01T02:57:57.000Z</time>
      </trkpt>
      <trkpt lat="49.5344" lon="5.69958">
        <ele>278.4</ele>
        <time>1970-01-01T02:57:58.000Z</time>
      </trkpt>
      <trkpt lat="49.53442" lon="5.69962">
        <ele>278.4</ele>
        <time>1970-01-01T02:57:59.000Z</time>
      </trkpt>
      <trkpt lat="49.53444" lon="5.69968">
        <ele>278.4</ele>
        <time>1970-01-01T02:58:00.000Z</time>
      </trkpt>
      <trkpt lat="49.53446" lon="5.69972">
        <ele>278.6</ele>
        <time>1970-01-01T02:58:01.000Z</time>
      </trkpt>
      <trkpt lat="49.53448" lon="5.69976">
        <ele>278.6</ele>
        <time>1970-01-01T02:58:02.000Z</time>
      </trkpt>
      <trkpt lat="49.5345" lon="5.69981">
        <ele>278.8</ele>
        <time>1970-01-01T02:58:03.000Z</time>
      </trkpt>
      <trkpt lat="49.53452" lon="5.69986">
        <ele>278.8</ele>
        <time>1970-01-01T02:58:04.000Z</time>
      </trkpt>
      <trkpt lat="49.53454" lon="5.6999">
        <ele>278.8</ele>
        <time>1970-01-01T02:58:05.000Z</time>
      </trkpt>
      <trkpt lat="49.53456" lon="5.69995">
        <ele>279</ele>
        <time>1970-01-01T02:58:06.000Z</time>
      </trkpt>
      <trkpt lat="49.5346" lon="5.70004">
        <ele>279.2</ele>
        <time>1970-01-01T02:58:08.000Z</time>
      </trkpt>
      <trkpt lat="49.53464" lon="5.70013">
        <ele>279.2</ele>
        <time>1970-01-01T02:58:10.000Z</time>
      </trkpt>
      <trkpt lat="49.53471" lon="5.70033">
        <ele>279.4</ele>
        <time>1970-01-01T02:58:14.000Z</time>
      </trkpt>
      <trkpt lat="49.53473" lon="5.70038">
        <ele>279.4</ele>
        <time>1970-01-01T02:58:15.000Z</time>
      </trkpt>
      <trkpt lat="49.53476" lon="5.70047">
        <ele>279.4</ele>
        <time>1970-01-01T02:58:17.000Z</time>
      </trkpt>
      <trkpt lat="49.53489" lon="5.70089">
        <ele>279.6</ele>
        <time>1970-01-01T02:58:25.000Z</time>
      </trkpt>
      <trkpt lat="49.5349" lon="5.70094">
        <ele>279.8</ele>
        <time>1970-01-01T02:58:26.000Z</time>
      </trkpt>
      <trkpt lat="49.53494" lon="5.70104">
        <ele>280.2</ele>
        <time>1970-01-01T02:58:28.000Z</time>
      </trkpt>
      <trkpt lat="49.53496" lon="5.70108">
        <ele>280.2</ele>
        <time>1970-01-01T02:58:29.000Z</time>
      </trkpt>
      <trkpt lat="49.53506" lon="5.70134">
        <ele>280.4</ele>
        <time>1970-01-01T02:58:34.000Z</time>
      </trkpt>
      <trkpt lat="49.53508" lon="5.70139">
        <ele>280.6</ele>
        <time>1970-01-01T02:58:35.000Z</time>
      </trkpt>
      <trkpt lat="49.53511" lon="5.70149">
        <ele>280.6</ele>
        <time>1970-01-01T02:58:37.000Z</time>
      </trkpt>
      <trkpt lat="49.53516" lon="5.7016">
        <ele>280.8</ele>
        <time>1970-01-01T02:58:39.000Z</time>
      </trkpt>
      <trkpt lat="49.53534" lon="5.70202">
        <ele>281.4</ele>
        <time>1970-01-01T02:58:47.000Z</time>
      </trkpt>
      <trkpt lat="49.53536" lon="5.70207">
        <ele>281.4</ele>
        <time>1970-01-01T02:58:48.000Z</time>
      </trkpt>
      <trkpt lat="49.53543" lon="5.70222">
        <ele>281.4</ele>
        <time>1970-01-01T02:58:51.000Z</time>
      </trkpt>
      <trkpt lat="49.53547" lon="5.7023">
        <ele>281.4</ele>
        <time>1970-01-01T02:58:53.000Z</time>
      </trkpt>
      <trkpt lat="49.5355" lon="5.70234">
        <ele>281.4</ele>
        <time>1970-01-01T02:58:54.000Z</time>
      </trkpt>
      <trkpt lat="49.53551" lon="5.70237">
        <ele>281.4</ele>
        <time>1970-01-01T02:58:55.000Z</time>
      </trkpt>
      <trkpt lat="49.53553" lon="5.7024">
        <ele>281.4</ele>
        <time>1970-01-01T02:58:56.000Z</time>
      </trkpt>
      <trkpt lat="49.53554" lon="5.70244">
        <ele>281.4</ele>
        <time>1970-01-01T02:58:57.000Z</time>
      </trkpt>
      <trkpt lat="49.53555" lon="5.70245">
        <ele>281.4</ele>
        <time>1970-01-01T02:58:58.000Z</time>
      </trkpt>
      <trkpt lat="49.53556" lon="5.70245">
        <ele>281.4</ele>
        <time>1970-01-01T02:59:01.000Z</time>
      </trkpt>
      <trkpt lat="49.53556" lon="5.70245">
        <ele>281.4</ele>
        <time>1970-01-01T02:59:02.000Z</time>
      </trkpt>
      <trkpt lat="49.53561" lon="5.70247">
        <ele>281.4</ele>
        <time>1970-01-01T02:59:11.000Z</time>
      </trkpt>
      <trkpt lat="49.53565" lon="5.70249">
        <ele>281.4</ele>
        <time>1970-01-01T02:59:13.000Z</time>
      </trkpt>
      <trkpt lat="49.53569" lon="5.70252">
        <ele>281.6</ele>
        <time>1970-01-01T02:59:15.000Z</time>
      </trkpt>
      <trkpt lat="49.53574" lon="5.70259">
        <ele>281.8</ele>
        <time>1970-01-01T02:59:18.000Z</time>
      </trkpt>
      <trkpt lat="49.53578" lon="5.70263">
        <ele>281.8</ele>
        <time>1970-01-01T02:59:20.000Z</time>
      </trkpt>
      <trkpt lat="49.53584" lon="5.7027">
        <ele>282.2</ele>
        <time>1970-01-01T02:59:23.000Z</time>
      </trkpt>
      <trkpt lat="49.53589" lon="5.70275">
        <ele>282.2</ele>
        <time>1970-01-01T02:59:26.000Z</time>
      </trkpt>
      <trkpt lat="49.53591" lon="5.70276">
        <ele>282.2</ele>
        <time>1970-01-01T02:59:27.000Z</time>
      </trkpt>
      <trkpt lat="49.53604" lon="5.70292">
        <ele>282.6</ele>
        <time>1970-01-01T02:59:33.000Z</time>
      </trkpt>
      <trkpt lat="49.53604" lon="5.70292">
        <ele>282.6</ele>
        <time>1970-01-01T02:59:34.000Z</time>
      </trkpt>
      <trkpt lat="49.53607" lon="5.70295">
        <ele>282.6</ele>
        <time>1970-01-01T02:59:35.000Z</time>
      </trkpt>
      <trkpt lat="49.53609" lon="5.70297">
        <ele>282.8</ele>
        <time>1970-01-01T02:59:36.000Z</time>
      </trkpt>
      <trkpt lat="49.5361" lon="5.70299">
        <ele>282.6</ele>
        <time>1970-01-01T02:59:37.000Z</time>
      </trkpt>
      <trkpt lat="49.53611" lon="5.70301">
        <ele>282.6</ele>
        <time>1970-01-01T02:59:38.000Z</time>
      </trkpt>
      <trkpt lat="49.53612" lon="5.70302">
        <ele>282.6</ele>
        <time>1970-01-01T02:59:39.000Z</time>
      </trkpt>
      <trkpt lat="49.53659" lon="5.70386">
        <ele>285</ele>
        <time>1970-01-01T03:05:11.000Z</time>
      </trkpt>
      <trkpt lat="49.53662" lon="5.70389">
        <ele>285.2</ele>
        <time>1970-01-01T03:05:12.000Z</time>
      </trkpt>
      <trkpt lat="49.53664" lon="5.70392">
        <ele>285.4</ele>
        <time>1970-01-01T03:05:13.000Z</time>
      </trkpt>
      <trkpt lat="49.53666" lon="5.70395">
        <ele>285.6</ele>
        <time>1970-01-01T03:05:14.000Z</time>
      </trkpt>
      <trkpt lat="49.53669" lon="5.70398">
        <ele>285.8</ele>
        <time>1970-01-01T03:05:15.000Z</time>
      </trkpt>
      <trkpt lat="49.53674" lon="5.70406">
        <ele>286</ele>
        <time>1970-01-01T03:05:17.000Z</time>
      </trkpt>
      <trkpt lat="49.53676" lon="5.70408">
        <ele>286.2</ele>
        <time>1970-01-01T03:05:18.000Z</time>
      </trkpt>
      <trkpt lat="49.53685" lon="5.70417">
        <ele>286.4</ele>
        <time>1970-01-01T03:05:21.000Z</time>
      </trkpt>
      <trkpt lat="49.53688" lon="5.70419">
        <ele>286.6</ele>
        <time>1970-01-01T03:05:22.000Z</time>
      </trkpt>
      <trkpt lat="49.5369" lon="5.70421">
        <ele>286.8</ele>
        <time>1970-01-01T03:05:23.000Z</time>
      </trkpt>
      <trkpt lat="49.53692" lon="5.70423">
        <ele>286.8</ele>
        <time>1970-01-01T03:05:24.000Z</time>
      </trkpt>
      <trkpt lat="49.53696" lon="5.70425">
        <ele>286.8</ele>
        <time>1970-01-01T03:05:25.000Z</time>
      </trkpt>
      <trkpt lat="49.53699" lon="5.70427">
        <ele>286.8</ele>
        <time>1970-01-01T03:05:26.000Z</time>
      </trkpt>
      <trkpt lat="49.53702" lon="5.70429">
        <ele>287</ele>
        <time>1970-01-01T03:05:27.000Z</time>
      </trkpt>
      <trkpt lat="49.53704" lon="5.7043">
        <ele>287</ele>
        <time>1970-01-01T03:05:28.000Z</time>
      </trkpt>
      <trkpt lat="49.53707" lon="5.70431">
        <ele>287.2</ele>
        <time>1970-01-01T03:05:29.000Z</time>
      </trkpt>
      <trkpt lat="49.53711" lon="5.70432">
        <ele>287.4</ele>
        <time>1970-01-01T03:05:30.000Z</time>
      </trkpt>
      <trkpt lat="49.53714" lon="5.70433">
        <ele>287.6</ele>
        <time>1970-01-01T03:05:31.000Z</time>
      </trkpt>
      <trkpt lat="49.53717" lon="5.70434">
        <ele>287.6</ele>
        <time>1970-01-01T03:05:32.000Z</time>
      </trkpt>
      <trkpt lat="49.53719" lon="5.70435">
        <ele>287.6</ele>
        <time>1970-01-01T03:05:33.000Z</time>
      </trkpt>
      <trkpt lat="49.53722" lon="5.70436">
        <ele>287.8</ele>
        <time>1970-01-01T03:05:34.000Z</time>
      </trkpt>
      <trkpt lat="49.53725" lon="5.70436">
        <ele>287.8</ele>
        <time>1970-01-01T03:05:35.000Z</time>
      </trkpt>
      <trkpt lat="49.53728" lon="5.70437">
        <ele>288</ele>
        <time>1970-01-01T03:05:36.000Z</time>
      </trkpt>
      <trkpt lat="49.5373" lon="5.70437">
        <ele>288</ele>
        <time>1970-01-01T03:05:37.000Z</time>
      </trkpt>
      <trkpt lat="49.53733" lon="5.70438">
        <ele>288.4</ele>
        <time>1970-01-01T03:05:38.000Z</time>
      </trkpt>
      <trkpt lat="49.53736" lon="5.70438">
        <ele>288.4</ele>
        <time>1970-01-01T03:05:39.000Z</time>
      </trkpt>
      <trkpt lat="49.53739" lon="5.70438">
        <ele>288.4</ele>
        <time>1970-01-01T03:05:40.000Z</time>
      </trkpt>
      <trkpt lat="49.53742" lon="5.70438">
        <ele>288.6</ele>
        <time>1970-01-01T03:05:41.000Z</time>
      </trkpt>
      <trkpt lat="49.53744" lon="5.70439">
        <ele>288.6</ele>
        <time>1970-01-01T03:05:42.000Z</time>
      </trkpt>
      <trkpt lat="49.53747" lon="5.70439">
        <ele>289</ele>
        <time>1970-01-01T03:05:43.000Z</time>
      </trkpt>
      <trkpt lat="49.5375" lon="5.70439">
        <ele>289</ele>
        <time>1970-01-01T03:05:44.000Z</time>
      </trkpt>
      <trkpt lat="49.53753" lon="5.7044">
        <ele>289.2</ele>
        <time>1970-01-01T03:05:45.000Z</time>
      </trkpt>
      <trkpt lat="49.53756" lon="5.70439">
        <ele>289.2</ele>
        <time>1970-01-01T03:05:46.000Z</time>
      </trkpt>
      <trkpt lat="49.53759" lon="5.7044">
        <ele>289.2</ele>
        <time>1970-01-01T03:05:47.000Z</time>
      </trkpt>
      <trkpt lat="49.53762" lon="5.7044">
        <ele>289.4</ele>
        <time>1970-01-01T03:05:48.000Z</time>
      </trkpt>
      <trkpt lat="49.53765" lon="5.7044">
        <ele>289.6</ele>
        <time>1970-01-01T03:05:49.000Z</time>
      </trkpt>
      <trkpt lat="49.53768" lon="5.70441">
        <ele>289.6</ele>
        <time>1970-01-01T03:05:50.000Z</time>
      </trkpt>
      <trkpt lat="49.5377" lon="5.70441">
        <ele>289.6</ele>
        <time>1970-01-01T03:05:51.000Z</time>
      </trkpt>
      <trkpt lat="49.53774" lon="5.70441">
        <ele>289.6</ele>
        <time>1970-01-01T03:05:52.000Z</time>
      </trkpt>
      <trkpt lat="49.53777" lon="5.7044">
        <ele>289.6</ele>
        <time>1970-01-01T03:05:53.000Z</time>
      </trkpt>
      <trkpt lat="49.5378" lon="5.7044">
        <ele>289.8</ele>
        <time>1970-01-01T03:05:54.000Z</time>
      </trkpt>
      <trkpt lat="49.53782" lon="5.70439">
        <ele>289.8</ele>
        <time>1970-01-01T03:05:55.000Z</time>
      </trkpt>
      <trkpt lat="49.53785" lon="5.70438">
        <ele>290</ele>
        <time>1970-01-01T03:05:56.000Z</time>
      </trkpt>
      <trkpt lat="49.53788" lon="5.70437">
        <ele>290</ele>
        <time>1970-01-01T03:05:57.000Z</time>
      </trkpt>
      <trkpt lat="49.53791" lon="5.70436">
        <ele>290</ele>
        <time>1970-01-01T03:05:58.000Z</time>
      </trkpt>
      <trkpt lat="49.53794" lon="5.70435">
        <ele>290</ele>
        <time>1970-01-01T03:05:59.000Z</time>
      </trkpt>
      <trkpt lat="49.53805" lon="5.70429">
        <ele>290.4</ele>
        <time>1970-01-01T03:06:03.000Z</time>
      </trkpt>
      <trkpt lat="49.53807" lon="5.70428">
        <ele>290.6</ele>
        <time>1970-01-01T03:06:04.000Z</time>
      </trkpt>
      <trkpt lat="49.53817" lon="5.7042">
        <ele>291</ele>
        <time>1970-01-01T03:06:08.000Z</time>
      </trkpt>
      <trkpt lat="49.53819" lon="5.70419">
        <ele>291.2</ele>
        <time>1970-01-01T03:06:09.000Z</time>
      </trkpt>
      <trkpt lat="49.53821" lon="5.70417">
        <ele>291.4</ele>
        <time>1970-01-01T03:06:10.000Z</time>
      </trkpt>
      <trkpt lat="49.53824" lon="5.70415">
        <ele>291.6</ele>
        <time>1970-01-01T03:06:11.000Z</time>
      </trkpt>
      <trkpt lat="49.53827" lon="5.70414">
        <ele>291.6</ele>
        <time>1970-01-01T03:06:12.000Z</time>
      </trkpt>
      <trkpt lat="49.53831" lon="5.7041">
        <ele>292</ele>
        <time>1970-01-01T03:06:14.000Z</time>
      </trkpt>
      <trkpt lat="49.53834" lon="5.70408">
        <ele>292.2</ele>
        <time>1970-01-01T03:06:15.000Z</time>
      </trkpt>
      <trkpt lat="49.53838" lon="5.70405">
        <ele>292.6</ele>
        <time>1970-01-01T03:06:17.000Z</time>
      </trkpt>
      <trkpt lat="49.5384" lon="5.70403">
        <ele>292.6</ele>
        <time>1970-01-01T03:06:18.000Z</time>
      </trkpt>
      <trkpt lat="49.53842" lon="5.70401">
        <ele>293</ele>
        <time>1970-01-01T03:06:19.000Z</time>
      </trkpt>
      <trkpt lat="49.53844" lon="5.70398">
        <ele>293</ele>
        <time>1970-01-01T03:06:20.000Z</time>
      </trkpt>
      <trkpt lat="49.53846" lon="5.70396">
        <ele>293.2</ele>
        <time>1970-01-01T03:06:21.000Z</time>
      </trkpt>
      <trkpt lat="49.53849" lon="5.70395">
        <ele>293.2</ele>
        <time>1970-01-01T03:06:22.000Z</time>
      </trkpt>
      <trkpt lat="49.5385" lon="5.70393">
        <ele>293.4</ele>
        <time>1970-01-01T03:06:23.000Z</time>
      </trkpt>
      <trkpt lat="49.53853" lon="5.70391">
        <ele>293.4</ele>
        <time>1970-01-01T03:06:24.000Z</time>
      </trkpt>
      <trkpt lat="49.53855" lon="5.70389">
        <ele>293.4</ele>
        <time>1970-01-01T03:06:25.000Z</time>
      </trkpt>
      <trkpt lat="49.53857" lon="5.70388">
        <ele>293.4</ele>
        <time>1970-01-01T03:06:26.000Z</time>
      </trkpt>
      <trkpt lat="49.53858" lon="5.70387">
        <ele>293.4</ele>
        <time>1970-01-01T03:06:27.000Z</time>
      </trkpt>
      <trkpt lat="49.5386" lon="5.70385">
        <ele>293.6</ele>
        <time>1970-01-01T03:06:28.000Z</time>
      </trkpt>
      <trkpt lat="49.53862" lon="5.70383">
        <ele>293.8</ele>
        <time>1970-01-01T03:06:29.000Z</time>
      </trkpt>
      <trkpt lat="49.53864" lon="5.70381">
        <ele>293.8</ele>
        <time>1970-01-01T03:06:30.000Z</time>
      </trkpt>
      <trkpt lat="49.53866" lon="5.70379">
        <ele>294</ele>
        <time>1970-01-01T03:06:31.000Z</time>
      </trkpt>
      <trkpt lat="49.53868" lon="5.70377">
        <ele>294</ele>
        <time>1970-01-01T03:06:32.000Z</time>
      </trkpt>
      <trkpt lat="49.5387" lon="5.70376">
        <ele>294.4</ele>
        <time>1970-01-01T03:06:33.000Z</time>
      </trkpt>
      <trkpt lat="49.53873" lon="5.70374">
        <ele>294.4</ele>
        <time>1970-01-01T03:06:34.000Z</time>
      </trkpt>
      <trkpt lat="49.53875" lon="5.70372">
        <ele>294.6</ele>
        <time>1970-01-01T03:06:35.000Z</time>
      </trkpt>
      <trkpt lat="49.53877" lon="5.70371">
        <ele>294.8</ele>
        <time>1970-01-01T03:06:36.000Z</time>
      </trkpt>
      <trkpt lat="49.53879" lon="5.70369">
        <ele>295</ele>
        <time>1970-01-01T03:06:37.000Z</time>
      </trkpt>
      <trkpt lat="49.53881" lon="5.70367">
        <ele>295</ele>
        <time>1970-01-01T03:06:38.000Z</time>
      </trkpt>
      <trkpt lat="49.53883" lon="5.70365">
        <ele>295.2</ele>
        <time>1970-01-01T03:06:39.000Z</time>
      </trkpt>
      <trkpt lat="49.53885" lon="5.70363">
        <ele>295.2</ele>
        <time>1970-01-01T03:06:40.000Z</time>
      </trkpt>
      <trkpt lat="49.53887" lon="5.70361">
        <ele>295.2</ele>
        <time>1970-01-01T03:06:41.000Z</time>
      </trkpt>
      <trkpt lat="49.53889" lon="5.70359">
        <ele>295.2</ele>
        <time>1970-01-01T03:06:42.000Z</time>
      </trkpt>
      <trkpt lat="49.53892" lon="5.70357">
        <ele>295.2</ele>
        <time>1970-01-01T03:06:43.000Z</time>
      </trkpt>
      <trkpt lat="49.53894" lon="5.70355">
        <ele>295.4</ele>
        <time>1970-01-01T03:06:44.000Z</time>
      </trkpt>
      <trkpt lat="49.53896" lon="5.70353">
        <ele>295.4</ele>
        <time>1970-01-01T03:06:45.000Z</time>
      </trkpt>
      <trkpt lat="49.53898" lon="5.70351">
        <ele>295.4</ele>
        <time>1970-01-01T03:06:46.000Z</time>
      </trkpt>
      <trkpt lat="49.539" lon="5.70349">
        <ele>295.6</ele>
        <time>1970-01-01T03:06:47.000Z</time>
      </trkpt>
      <trkpt lat="49.53903" lon="5.70347">
        <ele>295.6</ele>
        <time>1970-01-01T03:06:48.000Z</time>
      </trkpt>
      <trkpt lat="49.53905" lon="5.70344">
        <ele>295.8</ele>
        <time>1970-01-01T03:06:49.000Z</time>
      </trkpt>
      <trkpt lat="49.53907" lon="5.70342">
        <ele>295.8</ele>
        <time>1970-01-01T03:06:50.000Z</time>
      </trkpt>
      <trkpt lat="49.5391" lon="5.7034">
        <ele>295.8</ele>
        <time>1970-01-01T03:06:51.000Z</time>
      </trkpt>
      <trkpt lat="49.53913" lon="5.70337">
        <ele>296</ele>
        <time>1970-01-01T03:06:52.000Z</time>
      </trkpt>
      <trkpt lat="49.53915" lon="5.70335">
        <ele>296.2</ele>
        <time>1970-01-01T03:06:53.000Z</time>
      </trkpt>
      <trkpt lat="49.53918" lon="5.70333">
        <ele>296.2</ele>
        <time>1970-01-01T03:06:54.000Z</time>
      </trkpt>
      <trkpt lat="49.53919" lon="5.70332">
        <ele>296.4</ele>
        <time>1970-01-01T03:06:55.000Z</time>
      </trkpt>
      <trkpt lat="49.53922" lon="5.7033">
        <ele>296.6</ele>
        <time>1970-01-01T03:06:56.000Z</time>
      </trkpt>
      <trkpt lat="49.53925" lon="5.70328">
        <ele>296.6</ele>
        <time>1970-01-01T03:06:57.000Z</time>
      </trkpt>
      <trkpt lat="49.53927" lon="5.70327">
        <ele>297</ele>
        <time>1970-01-01T03:06:58.000Z</time>
      </trkpt>
      <trkpt lat="49.53929" lon="5.70326">
        <ele>297.2</ele>
        <time>1970-01-01T03:06:59.000Z</time>
      </trkpt>
      <trkpt lat="49.53931" lon="5.70324">
        <ele>297.4</ele>
        <time>1970-01-01T03:07:00.000Z</time>
      </trkpt>
      <trkpt lat="49.53934" lon="5.70322">
        <ele>297.6</ele>
        <time>1970-01-01T03:07:01.000Z</time>
      </trkpt>
      <trkpt lat="49.53936" lon="5.70321">
        <ele>297.6</ele>
        <time>1970-01-01T03:07:02.000Z</time>
      </trkpt>
      <trkpt lat="49.53939" lon="5.7032">
        <ele>297.8</ele>
        <time>1970-01-01T03:07:03.000Z</time>
      </trkpt>
      <trkpt lat="49.5394" lon="5.7032">
        <ele>298</ele>
        <time>1970-01-01T03:07:04.000Z</time>
      </trkpt>
      <trkpt lat="49.53943" lon="5.70319">
        <ele>298.2</ele>
        <time>1970-01-01T03:07:05.000Z</time>
      </trkpt>
      <trkpt lat="49.53945" lon="5.70319">
        <ele>298.4</ele>
        <time>1970-01-01T03:07:06.000Z</time>
      </trkpt>
      <trkpt lat="49.53947" lon="5.70318">
        <ele>298.6</ele>
        <time>1970-01-01T03:07:07.000Z</time>
      </trkpt>
      <trkpt lat="49.53949" lon="5.70318">
        <ele>298.8</ele>
        <time>1970-01-01T03:07:08.000Z</time>
      </trkpt>
      <trkpt lat="49.53952" lon="5.70319">
        <ele>299</ele>
        <time>1970-01-01T03:07:09.000Z</time>
      </trkpt>
      <trkpt lat="49.53954" lon="5.7032">
        <ele>299.2</ele>
        <time>1970-01-01T03:07:10.000Z</time>
      </trkpt>
      <trkpt lat="49.53956" lon="5.70321">
        <ele>299.2</ele>
        <time>1970-01-01T03:07:11.000Z</time>
      </trkpt>
      <trkpt lat="49.53958" lon="5.70323">
        <ele>299.4</ele>
        <time>1970-01-01T03:07:12.000Z</time>
      </trkpt>
      <trkpt lat="49.5396" lon="5.70325">
        <ele>299.4</ele>
        <time>1970-01-01T03:07:13.000Z</time>
      </trkpt>
      <trkpt lat="49.53961" lon="5.70327">
        <ele>299.4</ele>
        <time>1970-01-01T03:07:14.000Z</time>
      </trkpt>
      <trkpt lat="49.53963" lon="5.7033">
        <ele>299.6</ele>
        <time>1970-01-01T03:07:15.000Z</time>
      </trkpt>
      <trkpt lat="49.53965" lon="5.70333">
        <ele>300.2</ele>
        <time>1970-01-01T03:07:16.000Z</time>
      </trkpt>
      <trkpt lat="49.53967" lon="5.70336">
        <ele>300.2</ele>
        <time>1970-01-01T03:07:17.000Z</time>
      </trkpt>
      <trkpt lat="49.53968" lon="5.70339">
        <ele>300.6</ele>
        <time>1970-01-01T03:07:18.000Z</time>
      </trkpt>
      <trkpt lat="49.53969" lon="5.70341">
        <ele>300.6</ele>
        <time>1970-01-01T03:07:19.000Z</time>
      </trkpt>
      <trkpt lat="49.53971" lon="5.70344">
        <ele>300.8</ele>
        <time>1970-01-01T03:07:20.000Z</time>
      </trkpt>
      <trkpt lat="49.53973" lon="5.70348">
        <ele>300.8</ele>
        <time>1970-01-01T03:07:21.000Z</time>
      </trkpt>
      <trkpt lat="49.53975" lon="5.70351">
        <ele>301</ele>
        <time>1970-01-01T03:07:22.000Z</time>
      </trkpt>
      <trkpt lat="49.53976" lon="5.70354">
        <ele>301</ele>
        <time>1970-01-01T03:07:23.000Z</time>
      </trkpt>
      <trkpt lat="49.53977" lon="5.70357">
        <ele>301.2</ele>
        <time>1970-01-01T03:07:24.000Z</time>
      </trkpt>
      <trkpt lat="49.53978" lon="5.70361">
        <ele>301.2</ele>
        <time>1970-01-01T03:07:25.000Z</time>
      </trkpt>
      <trkpt lat="49.53979" lon="5.70363">
        <ele>301.2</ele>
        <time>1970-01-01T03:07:26.000Z</time>
      </trkpt>
      <trkpt lat="49.53981" lon="5.70367">
        <ele>301.4</ele>
        <time>1970-01-01T03:07:27.000Z</time>
      </trkpt>
      <trkpt lat="49.53982" lon="5.70371">
        <ele>301.6</ele>
        <time>1970-01-01T03:07:28.000Z</time>
      </trkpt>
      <trkpt lat="49.53984" lon="5.70374">
        <ele>301.6</ele>
        <time>1970-01-01T03:07:29.000Z</time>
      </trkpt>
      <trkpt lat="49.53986" lon="5.70379">
        <ele>301.8</ele>
        <time>1970-01-01T03:07:30.000Z</time>
      </trkpt>
      <trkpt lat="49.53988" lon="5.70383">
        <ele>301.8</ele>
        <time>1970-01-01T03:07:31.000Z</time>
      </trkpt>
      <trkpt lat="49.5399" lon="5.70387">
        <ele>302</ele>
        <time>1970-01-01T03:07:32.000Z</time>
      </trkpt>
      <trkpt lat="49.53991" lon="5.7039">
        <ele>302.4</ele>
        <time>1970-01-01T03:07:33.000Z</time>
      </trkpt>
      <trkpt lat="49.53993" lon="5.70394">
        <ele>302.8</ele>
        <time>1970-01-01T03:07:34.000Z</time>
      </trkpt>
      <trkpt lat="49.53995" lon="5.70398">
        <ele>303</ele>
        <time>1970-01-01T03:07:35.000Z</time>
      </trkpt>
      <trkpt lat="49.53996" lon="5.70401">
        <ele>303.4</ele>
        <time>1970-01-01T03:07:36.000Z</time>
      </trkpt>
      <trkpt lat="49.53998" lon="5.70405">
        <ele>303.6</ele>
        <time>1970-01-01T03:07:37.000Z</time>
      </trkpt>
      <trkpt lat="49.53999" lon="5.70408">
        <ele>303.6</ele>
        <time>1970-01-01T03:07:38.000Z</time>
      </trkpt>
      <trkpt lat="49.54001" lon="5.70412">
        <ele>303.8</ele>
        <time>1970-01-01T03:07:39.000Z</time>
      </trkpt>
      <trkpt lat="49.54004" lon="5.70415">
        <ele>303.8</ele>
        <time>1970-01-01T03:07:40.000Z</time>
      </trkpt>
      <trkpt lat="49.54005" lon="5.70419">
        <ele>304</ele>
        <time>1970-01-01T03:07:41.000Z</time>
      </trkpt>
      <trkpt lat="49.54007" lon="5.70422">
        <ele>304.2</ele>
        <time>1970-01-01T03:07:42.000Z</time>
      </trkpt>
      <trkpt lat="49.54009" lon="5.70424">
        <ele>304.4</ele>
        <time>1970-01-01T03:07:43.000Z</time>
      </trkpt>
      <trkpt lat="49.54012" lon="5.70427">
        <ele>304.4</ele>
        <time>1970-01-01T03:07:44.000Z</time>
      </trkpt>
      <trkpt lat="49.54014" lon="5.70431">
        <ele>304.6</ele>
        <time>1970-01-01T03:07:45.000Z</time>
      </trkpt>
      <trkpt lat="49.54016" lon="5.70432">
        <ele>304.6</ele>
        <time>1970-01-01T03:07:46.000Z</time>
      </trkpt>
      <trkpt lat="49.54019" lon="5.70434">
        <ele>304.6</ele>
        <time>1970-01-01T03:07:47.000Z</time>
      </trkpt>
      <trkpt lat="49.54021" lon="5.70436">
        <ele>304.8</ele>
        <time>1970-01-01T03:07:48.000Z</time>
      </trkpt>
      <trkpt lat="49.54024" lon="5.70439">
        <ele>304.8</ele>
        <time>1970-01-01T03:07:49.000Z</time>
      </trkpt>
      <trkpt lat="49.54026" lon="5.70442">
        <ele>305.2</ele>
        <time>1970-01-01T03:07:50.000Z</time>
      </trkpt>
      <trkpt lat="49.54029" lon="5.70444">
        <ele>305.4</ele>
        <time>1970-01-01T03:07:51.000Z</time>
      </trkpt>
      <trkpt lat="49.54031" lon="5.70446">
        <ele>305.4</ele>
        <time>1970-01-01T03:07:52.000Z</time>
      </trkpt>
      <trkpt lat="49.54034" lon="5.70449">
        <ele>305.6</ele>
        <time>1970-01-01T03:07:53.000Z</time>
      </trkpt>
      <trkpt lat="49.54036" lon="5.70452">
        <ele>305.8</ele>
        <time>1970-01-01T03:07:54.000Z</time>
      </trkpt>
      <trkpt lat="49.54039" lon="5.70454">
        <ele>305.8</ele>
        <time>1970-01-01T03:07:55.000Z</time>
      </trkpt>
      <trkpt lat="49.54041" lon="5.70455">
        <ele>305.8</ele>
        <time>1970-01-01T03:07:56.000Z</time>
      </trkpt>
      <trkpt lat="49.54042" lon="5.70458">
        <ele>306</ele>
        <time>1970-01-01T03:07:57.000Z</time>
      </trkpt>
      <trkpt lat="49.54044" lon="5.7046">
        <ele>306</ele>
        <time>1970-01-01T03:07:58.000Z</time>
      </trkpt>
      <trkpt lat="49.54048" lon="5.70465">
        <ele>305.8</ele>
        <time>1970-01-01T03:07:59.000Z</time>
      </trkpt>
      <trkpt lat="49.54051" lon="5.70469">
        <ele>305.8</ele>
        <time>1970-01-01T03:08:00.000Z</time>
      </trkpt>
      <trkpt lat="49.54054" lon="5.70471">
        <ele>305.8</ele>
        <time>1970-01-01T03:08:01.000Z</time>
      </trkpt>
      <trkpt lat="49.54056" lon="5.70473">
        <ele>305.8</ele>
        <time>1970-01-01T03:08:02.000Z</time>
      </trkpt>
      <trkpt lat="49.54058" lon="5.70475">
        <ele>305.8</ele>
        <time>1970-01-01T03:08:03.000Z</time>
      </trkpt>
      <trkpt lat="49.5406" lon="5.70478">
        <ele>306</ele>
        <time>1970-01-01T03:08:04.000Z</time>
      </trkpt>
      <trkpt lat="49.54063" lon="5.70481">
        <ele>306.2</ele>
        <time>1970-01-01T03:08:05.000Z</time>
      </trkpt>
      <trkpt lat="49.54065" lon="5.70484">
        <ele>306.4</ele>
        <time>1970-01-01T03:08:06.000Z</time>
      </trkpt>
      <trkpt lat="49.54068" lon="5.70486">
        <ele>306.6</ele>
        <time>1970-01-01T03:08:07.000Z</time>
      </trkpt>
      <trkpt lat="49.54072" lon="5.70488">
        <ele>306.8</ele>
        <time>1970-01-01T03:08:08.000Z</time>
      </trkpt>
      <trkpt lat="49.54074" lon="5.70491">
        <ele>306.8</ele>
        <time>1970-01-01T03:08:09.000Z</time>
      </trkpt>
      <trkpt lat="49.54077" lon="5.70494">
        <ele>307</ele>
        <time>1970-01-01T03:08:10.000Z</time>
      </trkpt>
      <trkpt lat="49.5408" lon="5.70496">
        <ele>307</ele>
        <time>1970-01-01T03:08:11.000Z</time>
      </trkpt>
      <trkpt lat="49.54083" lon="5.70497">
        <ele>307.2</ele>
        <time>1970-01-01T03:08:12.000Z</time>
      </trkpt>
      <trkpt lat="49.54085" lon="5.70499">
        <ele>307.2</ele>
        <time>1970-01-01T03:08:13.000Z</time>
      </trkpt>
      <trkpt lat="49.54088" lon="5.70501">
        <ele>307.2</ele>
        <time>1970-01-01T03:08:14.000Z</time>
      </trkpt>
      <trkpt lat="49.54091" lon="5.70504">
        <ele>307.2</ele>
        <time>1970-01-01T03:08:15.000Z</time>
      </trkpt>
      <trkpt lat="49.54096" lon="5.70508">
        <ele>307.4</ele>
        <time>1970-01-01T03:08:17.000Z</time>
      </trkpt>
      <trkpt lat="49.54099" lon="5.70511">
        <ele>307.4</ele>
        <time>1970-01-01T03:08:18.000Z</time>
      </trkpt>
      <trkpt lat="49.54101" lon="5.70513">
        <ele>307.4</ele>
        <time>1970-01-01T03:08:19.000Z</time>
      </trkpt>
      <trkpt lat="49.54103" lon="5.70515">
        <ele>307.6</ele>
        <time>1970-01-01T03:08:20.000Z</time>
      </trkpt>
      <trkpt lat="49.54105" lon="5.70517">
        <ele>307.8</ele>
        <time>1970-01-01T03:08:21.000Z</time>
      </trkpt>
      <trkpt lat="49.54107" lon="5.7052">
        <ele>308.2</ele>
        <time>1970-01-01T03:08:22.000Z</time>
      </trkpt>
      <trkpt lat="49.54109" lon="5.70523">
        <ele>308.2</ele>
        <time>1970-01-01T03:08:23.000Z</time>
      </trkpt>
      <trkpt lat="49.54123" lon="5.70546">
        <ele>308.8</ele>
        <time>1970-01-01T03:08:30.000Z</time>
      </trkpt>
      <trkpt lat="49.54125" lon="5.7055">
        <ele>308.8</ele>
        <time>1970-01-01T03:08:31.000Z</time>
      </trkpt>
      <trkpt lat="49.54127" lon="5.70554">
        <ele>308.8</ele>
        <time>1970-01-01T03:08:32.000Z</time>
      </trkpt>
      <trkpt lat="49.5413" lon="5.70559">
        <ele>309</ele>
        <time>1970-01-01T03:08:33.000Z</time>
      </trkpt>
      <trkpt lat="49.54132" lon="5.70562">
        <ele>309</ele>
        <time>1970-01-01T03:08:34.000Z</time>
      </trkpt>
      <trkpt lat="49.54134" lon="5.70565">
        <ele>309</ele>
        <time>1970-01-01T03:08:35.000Z</time>
      </trkpt>
      <trkpt lat="49.54139" lon="5.70572">
        <ele>309</ele>
        <time>1970-01-01T03:08:37.000Z</time>
      </trkpt>
      <trkpt lat="49.54141" lon="5.70577">
        <ele>309.2</ele>
        <time>1970-01-01T03:08:38.000Z</time>
      </trkpt>
      <trkpt lat="49.54143" lon="5.70581">
        <ele>309.4</ele>
        <time>1970-01-01T03:08:39.000Z</time>
      </trkpt>
      <trkpt lat="49.5415" lon="5.70597">
        <ele>309.8</ele>
        <time>1970-01-01T03:08:43.000Z</time>
      </trkpt>
      <trkpt lat="49.54154" lon="5.70604">
        <ele>310</ele>
        <time>1970-01-01T03:08:45.000Z</time>
      </trkpt>
      <trkpt lat="49.54157" lon="5.70612">
        <ele>310.4</ele>
        <time>1970-01-01T03:08:47.000Z</time>
      </trkpt>
      <trkpt lat="49.54164" lon="5.70627">
        <ele>310.8</ele>
        <time>1970-01-01T03:08:51.000Z</time>
      </trkpt>
      <trkpt lat="49.54165" lon="5.7063">
        <ele>311</ele>
        <time>1970-01-01T03:08:52.000Z</time>
      </trkpt>
      <trkpt lat="49.54169" lon="5.70638">
        <ele>311</ele>
        <time>1970-01-01T03:08:54.000Z</time>
      </trkpt>
      <trkpt lat="49.5417" lon="5.7064">
        <ele>311</ele>
        <time>1970-01-01T03:08:55.000Z</time>
      </trkpt>
      <trkpt lat="49.54172" lon="5.70642">
        <ele>311.2</ele>
        <time>1970-01-01T03:08:56.000Z</time>
      </trkpt>
      <trkpt lat="49.54173" lon="5.70646">
        <ele>311.2</ele>
        <time>1970-01-01T03:08:57.000Z</time>
      </trkpt>
      <trkpt lat="49.54175" lon="5.7065">
        <ele>311.4</ele>
        <time>1970-01-01T03:08:58.000Z</time>
      </trkpt>
      <trkpt lat="49.54176" lon="5.70654">
        <ele>311.6</ele>
        <time>1970-01-01T03:08:59.000Z</time>
      </trkpt>
      <trkpt lat="49.54178" lon="5.70657">
        <ele>312</ele>
        <time>1970-01-01T03:09:00.000Z</time>
      </trkpt>
      <trkpt lat="49.5418" lon="5.70661">
        <ele>312</ele>
        <time>1970-01-01T03:09:01.000Z</time>
      </trkpt>
      <trkpt lat="49.54182" lon="5.70664">
        <ele>312.2</ele>
        <time>1970-01-01T03:09:02.000Z</time>
      </trkpt>
      <trkpt lat="49.54184" lon="5.70667">
        <ele>312.2</ele>
        <time>1970-01-01T03:09:03.000Z</time>
      </trkpt>
      <trkpt lat="49.54186" lon="5.7067">
        <ele>312.4</ele>
        <time>1970-01-01T03:09:04.000Z</time>
      </trkpt>
      <trkpt lat="49.54187" lon="5.70674">
        <ele>312.4</ele>
        <time>1970-01-01T03:09:05.000Z</time>
      </trkpt>
      <trkpt lat="49.54189" lon="5.70677">
        <ele>312.4</ele>
        <time>1970-01-01T03:09:06.000Z</time>
      </trkpt>
      <trkpt lat="49.54191" lon="5.70681">
        <ele>312.6</ele>
        <time>1970-01-01T03:09:07.000Z</time>
      </trkpt>
      <trkpt lat="49.54192" lon="5.70684">
        <ele>312.6</ele>
        <time>1970-01-01T03:09:08.000Z</time>
      </trkpt>
      <trkpt lat="49.54194" lon="5.70688">
        <ele>312.8</ele>
        <time>1970-01-01T03:09:09.000Z</time>
      </trkpt>
      <trkpt lat="49.54196" lon="5.70692">
        <ele>312.8</ele>
        <time>1970-01-01T03:09:10.000Z</time>
      </trkpt>
      <trkpt lat="49.54198" lon="5.70697">
        <ele>313</ele>
        <time>1970-01-01T03:09:11.000Z</time>
      </trkpt>
      <trkpt lat="49.54199" lon="5.707">
        <ele>313.4</ele>
        <time>1970-01-01T03:09:12.000Z</time>
      </trkpt>
      <trkpt lat="49.54201" lon="5.70704">
        <ele>313.4</ele>
        <time>1970-01-01T03:09:13.000Z</time>
      </trkpt>
      <trkpt lat="49.54203" lon="5.70707">
        <ele>313.6</ele>
        <time>1970-01-01T03:09:14.000Z</time>
      </trkpt>
      <trkpt lat="49.54204" lon="5.7071">
        <ele>313.6</ele>
        <time>1970-01-01T03:09:15.000Z</time>
      </trkpt>
      <trkpt lat="49.54206" lon="5.70715">
        <ele>313.8</ele>
        <time>1970-01-01T03:09:16.000Z</time>
      </trkpt>
      <trkpt lat="49.54208" lon="5.7072">
        <ele>314</ele>
        <time>1970-01-01T03:09:17.000Z</time>
      </trkpt>
      <trkpt lat="49.5421" lon="5.70725">
        <ele>314.2</ele>
        <time>1970-01-01T03:09:18.000Z</time>
      </trkpt>
      <trkpt lat="49.54212" lon="5.7073">
        <ele>314.4</ele>
        <time>1970-01-01T03:09:19.000Z</time>
      </trkpt>
      <trkpt lat="49.54214" lon="5.70733">
        <ele>314.4</ele>
        <time>1970-01-01T03:09:20.000Z</time>
      </trkpt>
      <trkpt lat="49.54215" lon="5.70737">
        <ele>314.6</ele>
        <time>1970-01-01T03:09:21.000Z</time>
      </trkpt>
      <trkpt lat="49.54217" lon="5.70741">
        <ele>314.8</ele>
        <time>1970-01-01T03:09:22.000Z</time>
      </trkpt>
      <trkpt lat="49.54218" lon="5.70744">
        <ele>314.8</ele>
        <time>1970-01-01T03:09:23.000Z</time>
      </trkpt>
      <trkpt lat="49.54221" lon="5.70748">
        <ele>315</ele>
        <time>1970-01-01T03:09:24.000Z</time>
      </trkpt>
      <trkpt lat="49.54223" lon="5.70752">
        <ele>315.4</ele>
        <time>1970-01-01T03:09:25.000Z</time>
      </trkpt>
      <trkpt lat="49.54224" lon="5.70756">
        <ele>315.4</ele>
        <time>1970-01-01T03:09:26.000Z</time>
      </trkpt>
      <trkpt lat="49.54226" lon="5.70759">
        <ele>315.6</ele>
        <time>1970-01-01T03:09:27.000Z</time>
      </trkpt>
      <trkpt lat="49.54226" lon="5.70762">
        <ele>315.8</ele>
        <time>1970-01-01T03:09:28.000Z</time>
      </trkpt>
      <trkpt lat="49.54228" lon="5.70766">
        <ele>315.8</ele>
        <time>1970-01-01T03:09:29.000Z</time>
      </trkpt>
      <trkpt lat="49.54229" lon="5.70769">
        <ele>315.4</ele>
        <time>1970-01-01T03:09:30.000Z</time>
      </trkpt>
      <trkpt lat="49.54232" lon="5.70773">
        <ele>315.4</ele>
        <time>1970-01-01T03:09:31.000Z</time>
      </trkpt>
      <trkpt lat="49.54233" lon="5.70776">
        <ele>315.4</ele>
        <time>1970-01-01T03:09:32.000Z</time>
      </trkpt>
      <trkpt lat="49.54235" lon="5.70779">
        <ele>315.4</ele>
        <time>1970-01-01T03:09:33.000Z</time>
      </trkpt>
      <trkpt lat="49.54236" lon="5.70782">
        <ele>315.6</ele>
        <time>1970-01-01T03:09:34.000Z</time>
      </trkpt>
      <trkpt lat="49.54238" lon="5.70785">
        <ele>315.6</ele>
        <time>1970-01-01T03:09:35.000Z</time>
      </trkpt>
      <trkpt lat="49.5424" lon="5.70789">
        <ele>315.6</ele>
        <time>1970-01-01T03:09:36.000Z</time>
      </trkpt>
      <trkpt lat="49.54241" lon="5.70792">
        <ele>315.6</ele>
        <time>1970-01-01T03:09:37.000Z</time>
      </trkpt>
      <trkpt lat="49.54243" lon="5.70795">
        <ele>315.6</ele>
        <time>1970-01-01T03:09:38.000Z</time>
      </trkpt>
      <trkpt lat="49.54244" lon="5.70797">
        <ele>315.8</ele>
        <time>1970-01-01T03:09:39.000Z</time>
      </trkpt>
      <trkpt lat="49.54246" lon="5.70801">
        <ele>315.8</ele>
        <time>1970-01-01T03:09:40.000Z</time>
      </trkpt>
      <trkpt lat="49.54248" lon="5.70804">
        <ele>316.2</ele>
        <time>1970-01-01T03:09:41.000Z</time>
      </trkpt>
      <trkpt lat="49.54251" lon="5.70813">
        <ele>316.6</ele>
        <time>1970-01-01T03:09:44.000Z</time>
      </trkpt>
      <trkpt lat="49.54252" lon="5.70816">
        <ele>316.8</ele>
        <time>1970-01-01T03:09:45.000Z</time>
      </trkpt>
      <trkpt lat="49.54256" lon="5.70823">
        <ele>317</ele>
        <time>1970-01-01T03:09:47.000Z</time>
      </trkpt>
      <trkpt lat="49.54258" lon="5.70827">
        <ele>317.4</ele>
        <time>1970-01-01T03:09:48.000Z</time>
      </trkpt>
      <trkpt lat="49.54259" lon="5.7083">
        <ele>317.6</ele>
        <time>1970-01-01T03:09:49.000Z</time>
      </trkpt>
      <trkpt lat="49.54261" lon="5.70833">
        <ele>317.8</ele>
        <time>1970-01-01T03:09:50.000Z</time>
      </trkpt>
      <trkpt lat="49.54263" lon="5.70837">
        <ele>317.8</ele>
        <time>1970-01-01T03:09:51.000Z</time>
      </trkpt>
      <trkpt lat="49.54264" lon="5.7084">
        <ele>318</ele>
        <time>1970-01-01T03:09:52.000Z</time>
      </trkpt>
      <trkpt lat="49.54265" lon="5.70842">
        <ele>318</ele>
        <time>1970-01-01T03:09:53.000Z</time>
      </trkpt>
      <trkpt lat="49.54266" lon="5.70846">
        <ele>318.2</ele>
        <time>1970-01-01T03:09:54.000Z</time>
      </trkpt>
      <trkpt lat="49.54268" lon="5.70849">
        <ele>318.4</ele>
        <time>1970-01-01T03:09:55.000Z</time>
      </trkpt>
      <trkpt lat="49.5427" lon="5.70853">
        <ele>318.4</ele>
        <time>1970-01-01T03:09:56.000Z</time>
      </trkpt>
      <trkpt lat="49.54271" lon="5.70856">
        <ele>318.6</ele>
        <time>1970-01-01T03:09:57.000Z</time>
      </trkpt>
      <trkpt lat="49.54272" lon="5.70858">
        <ele>318.8</ele>
        <time>1970-01-01T03:09:58.000Z</time>
      </trkpt>
      <trkpt lat="49.54274" lon="5.70861">
        <ele>318.8</ele>
        <time>1970-01-01T03:09:59.000Z</time>
      </trkpt>
      <trkpt lat="49.54275" lon="5.70865">
        <ele>318.8</ele>
        <time>1970-01-01T03:10:00.000Z</time>
      </trkpt>
      <trkpt lat="49.54276" lon="5.70868">
        <ele>318.8</ele>
        <time>1970-01-01T03:10:01.000Z</time>
      </trkpt>
      <trkpt lat="49.54278" lon="5.70871">
        <ele>318.8</ele>
        <time>1970-01-01T03:10:02.000Z</time>
      </trkpt>
      <trkpt lat="49.54279" lon="5.70875">
        <ele>318.8</ele>
        <time>1970-01-01T03:10:03.000Z</time>
      </trkpt>
      <trkpt lat="49.5428" lon="5.70878">
        <ele>318.8</ele>
        <time>1970-01-01T03:10:04.000Z</time>
      </trkpt>
      <trkpt lat="49.54281" lon="5.70882">
        <ele>319</ele>
        <time>1970-01-01T03:10:05.000Z</time>
      </trkpt>
      <trkpt lat="49.54283" lon="5.70885">
        <ele>319.4</ele>
        <time>1970-01-01T03:10:06.000Z</time>
      </trkpt>
      <trkpt lat="49.54284" lon="5.70888">
        <ele>319.8</ele>
        <time>1970-01-01T03:10:07.000Z</time>
      </trkpt>
      <trkpt lat="49.54284" lon="5.70891">
        <ele>320</ele>
        <time>1970-01-01T03:10:08.000Z</time>
      </trkpt>
      <trkpt lat="49.54285" lon="5.70893">
        <ele>320.2</ele>
        <time>1970-01-01T03:10:09.000Z</time>
      </trkpt>
      <trkpt lat="49.54286" lon="5.70897">
        <ele>320.2</ele>
        <time>1970-01-01T03:10:10.000Z</time>
      </trkpt>
      <trkpt lat="49.54286" lon="5.709">
        <ele>320.4</ele>
        <time>1970-01-01T03:10:11.000Z</time>
      </trkpt>
      <trkpt lat="49.54287" lon="5.70903">
        <ele>320.6</ele>
        <time>1970-01-01T03:10:12.000Z</time>
      </trkpt>
      <trkpt lat="49.54288" lon="5.70907">
        <ele>321</ele>
        <time>1970-01-01T03:10:13.000Z</time>
      </trkpt>
      <trkpt lat="49.54289" lon="5.7091">
        <ele>321</ele>
        <time>1970-01-01T03:10:14.000Z</time>
      </trkpt>
      <trkpt lat="49.5429" lon="5.70913">
        <ele>321.2</ele>
        <time>1970-01-01T03:10:15.000Z</time>
      </trkpt>
      <trkpt lat="49.54291" lon="5.70918">
        <ele>321.4</ele>
        <time>1970-01-01T03:10:16.000Z</time>
      </trkpt>
      <trkpt lat="49.54292" lon="5.70922">
        <ele>321.4</ele>
        <time>1970-01-01T03:10:17.000Z</time>
      </trkpt>
      <trkpt lat="49.54294" lon="5.70926">
        <ele>321.4</ele>
        <time>1970-01-01T03:10:18.000Z</time>
      </trkpt>
      <trkpt lat="49.54295" lon="5.7093">
        <ele>321.6</ele>
        <time>1970-01-01T03:10:19.000Z</time>
      </trkpt>
      <trkpt lat="49.54297" lon="5.7094">
        <ele>321.8</ele>
        <time>1970-01-01T03:10:20.000Z</time>
      </trkpt>
      <trkpt lat="49.54298" lon="5.70943">
        <ele>321.8</ele>
        <time>1970-01-01T03:10:21.000Z</time>
      </trkpt>
      <trkpt lat="49.54299" lon="5.70945">
        <ele>322.2</ele>
        <time>1970-01-01T03:10:22.000Z</time>
      </trkpt>
      <trkpt lat="49.543" lon="5.70948">
        <ele>322.4</ele>
        <time>1970-01-01T03:10:23.000Z</time>
      </trkpt>
      <trkpt lat="49.54301" lon="5.70952">
        <ele>322.8</ele>
        <time>1970-01-01T03:10:24.000Z</time>
      </trkpt>
      <trkpt lat="49.54302" lon="5.70956">
        <ele>323</ele>
        <time>1970-01-01T03:10:25.000Z</time>
      </trkpt>
      <trkpt lat="49.54304" lon="5.70959">
        <ele>323.2</ele>
        <time>1970-01-01T03:10:26.000Z</time>
      </trkpt>
      <trkpt lat="49.54304" lon="5.70963">
        <ele>323.2</ele>
        <time>1970-01-01T03:10:27.000Z</time>
      </trkpt>
      <trkpt lat="49.54305" lon="5.70966">
        <ele>323.4</ele>
        <time>1970-01-01T03:10:28.000Z</time>
      </trkpt>
      <trkpt lat="49.54306" lon="5.70969">
        <ele>323.4</ele>
        <time>1970-01-01T03:10:29.000Z</time>
      </trkpt>
      <trkpt lat="49.54307" lon="5.70973">
        <ele>323.4</ele>
        <time>1970-01-01T03:10:30.000Z</time>
      </trkpt>
      <trkpt lat="49.54308" lon="5.70977">
        <ele>323.4</ele>
        <time>1970-01-01T03:10:31.000Z</time>
      </trkpt>
      <trkpt lat="49.54309" lon="5.70979">
        <ele>323.4</ele>
        <time>1970-01-01T03:10:32.000Z</time>
      </trkpt>
      <trkpt lat="49.5431" lon="5.70982">
        <ele>323.4</ele>
        <time>1970-01-01T03:10:33.000Z</time>
      </trkpt>
      <trkpt lat="49.54312" lon="5.70986">
        <ele>323.6</ele>
        <time>1970-01-01T03:10:34.000Z</time>
      </trkpt>
      <trkpt lat="49.54313" lon="5.7099">
        <ele>323.6</ele>
        <time>1970-01-01T03:10:35.000Z</time>
      </trkpt>
      <trkpt lat="49.54314" lon="5.70993">
        <ele>323.8</ele>
        <time>1970-01-01T03:10:36.000Z</time>
      </trkpt>
      <trkpt lat="49.54314" lon="5.70996">
        <ele>324</ele>
        <time>1970-01-01T03:10:37.000Z</time>
      </trkpt>
      <trkpt lat="49.54315" lon="5.70998">
        <ele>324</ele>
        <time>1970-01-01T03:10:38.000Z</time>
      </trkpt>
      <trkpt lat="49.54316" lon="5.71001">
        <ele>324.2</ele>
        <time>1970-01-01T03:10:39.000Z</time>
      </trkpt>
      <trkpt lat="49.54318" lon="5.71003">
        <ele>324.4</ele>
        <time>1970-01-01T03:10:40.000Z</time>
      </trkpt>
      <trkpt lat="49.54318" lon="5.71006">
        <ele>324.4</ele>
        <time>1970-01-01T03:10:41.000Z</time>
      </trkpt>
      <trkpt lat="49.54319" lon="5.71009">
        <ele>324.6</ele>
        <time>1970-01-01T03:10:42.000Z</time>
      </trkpt>
      <trkpt lat="49.5432" lon="5.71012">
        <ele>324.8</ele>
        <time>1970-01-01T03:10:43.000Z</time>
      </trkpt>
      <trkpt lat="49.54321" lon="5.71015">
        <ele>324.8</ele>
        <time>1970-01-01T03:10:44.000Z</time>
      </trkpt>
      <trkpt lat="49.54323" lon="5.71019">
        <ele>325</ele>
        <time>1970-01-01T03:10:45.000Z</time>
      </trkpt>
      <trkpt lat="49.54324" lon="5.71022">
        <ele>325.2</ele>
        <time>1970-01-01T03:10:46.000Z</time>
      </trkpt>
      <trkpt lat="49.54325" lon="5.71025">
        <ele>325.2</ele>
        <time>1970-01-01T03:10:47.000Z</time>
      </trkpt>
      <trkpt lat="49.54326" lon="5.71027">
        <ele>325.4</ele>
        <time>1970-01-01T03:10:48.000Z</time>
      </trkpt>
      <trkpt lat="49.54327" lon="5.7103">
        <ele>325.4</ele>
        <time>1970-01-01T03:10:49.000Z</time>
      </trkpt>
      <trkpt lat="49.54329" lon="5.71033">
        <ele>325.4</ele>
        <time>1970-01-01T03:10:50.000Z</time>
      </trkpt>
      <trkpt lat="49.5433" lon="5.71035">
        <ele>325.4</ele>
        <time>1970-01-01T03:10:51.000Z</time>
      </trkpt>
      <trkpt lat="49.54332" lon="5.71038">
        <ele>325.6</ele>
        <time>1970-01-01T03:10:52.000Z</time>
      </trkpt>
      <trkpt lat="49.54333" lon="5.7104">
        <ele>325.6</ele>
        <time>1970-01-01T03:10:53.000Z</time>
      </trkpt>
      <trkpt lat="49.54335" lon="5.71043">
        <ele>325.8</ele>
        <time>1970-01-01T03:10:54.000Z</time>
      </trkpt>
      <trkpt lat="49.54337" lon="5.71046">
        <ele>325.8</ele>
        <time>1970-01-01T03:10:55.000Z</time>
      </trkpt>
      <trkpt lat="49.54338" lon="5.71049">
        <ele>326.2</ele>
        <time>1970-01-01T03:10:56.000Z</time>
      </trkpt>
      <trkpt lat="49.5434" lon="5.71053">
        <ele>326.6</ele>
        <time>1970-01-01T03:10:57.000Z</time>
      </trkpt>
      <trkpt lat="49.54341" lon="5.71056">
        <ele>326.6</ele>
        <time>1970-01-01T03:10:58.000Z</time>
      </trkpt>
      <trkpt lat="49.54343" lon="5.71061">
        <ele>326.6</ele>
        <time>1970-01-01T03:10:59.000Z</time>
      </trkpt>
      <trkpt lat="49.54344" lon="5.71065">
        <ele>326.6</ele>
        <time>1970-01-01T03:11:00.000Z</time>
      </trkpt>
      <trkpt lat="49.54346" lon="5.71068">
        <ele>326.6</ele>
        <time>1970-01-01T03:11:01.000Z</time>
      </trkpt>
      <trkpt lat="49.54348" lon="5.71071">
        <ele>326.6</ele>
        <time>1970-01-01T03:11:02.000Z</time>
      </trkpt>
      <trkpt lat="49.54349" lon="5.71074">
        <ele>326.8</ele>
        <time>1970-01-01T03:11:03.000Z</time>
      </trkpt>
      <trkpt lat="49.54351" lon="5.71078">
        <ele>326.8</ele>
        <time>1970-01-01T03:11:04.000Z</time>
      </trkpt>
      <trkpt lat="49.54353" lon="5.71083">
        <ele>326.8</ele>
        <time>1970-01-01T03:11:05.000Z</time>
      </trkpt>
      <trkpt lat="49.54356" lon="5.71088">
        <ele>327</ele>
        <time>1970-01-01T03:11:06.000Z</time>
      </trkpt>
      <trkpt lat="49.54358" lon="5.71092">
        <ele>327</ele>
        <time>1970-01-01T03:11:07.000Z</time>
      </trkpt>
      <trkpt lat="49.54359" lon="5.71094">
        <ele>327.2</ele>
        <time>1970-01-01T03:11:08.000Z</time>
      </trkpt>
      <trkpt lat="49.54361" lon="5.71098">
        <ele>327.4</ele>
        <time>1970-01-01T03:11:09.000Z</time>
      </trkpt>
      <trkpt lat="49.54363" lon="5.71102">
        <ele>327.6</ele>
        <time>1970-01-01T03:11:10.000Z</time>
      </trkpt>
      <trkpt lat="49.54365" lon="5.71107">
        <ele>327.6</ele>
        <time>1970-01-01T03:11:11.000Z</time>
      </trkpt>
      <trkpt lat="49.54366" lon="5.7111">
        <ele>327.8</ele>
        <time>1970-01-01T03:11:12.000Z</time>
      </trkpt>
      <trkpt lat="49.54367" lon="5.71113">
        <ele>328</ele>
        <time>1970-01-01T03:11:13.000Z</time>
      </trkpt>
      <trkpt lat="49.5437" lon="5.71117">
        <ele>328</ele>
        <time>1970-01-01T03:11:14.000Z</time>
      </trkpt>
      <trkpt lat="49.5437" lon="5.71121">
        <ele>328.2</ele>
        <time>1970-01-01T03:11:15.000Z</time>
      </trkpt>
      <trkpt lat="49.5437" lon="5.71125">
        <ele>328.4</ele>
        <time>1970-01-01T03:11:16.000Z</time>
      </trkpt>
      <trkpt lat="49.5437" lon="5.7113">
        <ele>328.4</ele>
        <time>1970-01-01T03:11:17.000Z</time>
      </trkpt>
      <trkpt lat="49.54372" lon="5.71132">
        <ele>328.6</ele>
        <time>1970-01-01T03:11:18.000Z</time>
      </trkpt>
      <trkpt lat="49.54374" lon="5.71136">
        <ele>328.8</ele>
        <time>1970-01-01T03:11:19.000Z</time>
      </trkpt>
      <trkpt lat="49.54375" lon="5.7114">
        <ele>328.8</ele>
        <time>1970-01-01T03:11:20.000Z</time>
      </trkpt>
      <trkpt lat="49.54376" lon="5.71143">
        <ele>329</ele>
        <time>1970-01-01T03:11:21.000Z</time>
      </trkpt>
      <trkpt lat="49.54377" lon="5.71146">
        <ele>329.2</ele>
        <time>1970-01-01T03:11:22.000Z</time>
      </trkpt>
      <trkpt lat="49.54378" lon="5.71149">
        <ele>329.4</ele>
        <time>1970-01-01T03:11:23.000Z</time>
      </trkpt>
      <trkpt lat="49.5438" lon="5.71153">
        <ele>329.6</ele>
        <time>1970-01-01T03:11:24.000Z</time>
      </trkpt>
      <trkpt lat="49.54381" lon="5.71156">
        <ele>329.6</ele>
        <time>1970-01-01T03:11:25.000Z</time>
      </trkpt>
      <trkpt lat="49.54383" lon="5.71159">
        <ele>329.8</ele>
        <time>1970-01-01T03:11:26.000Z</time>
      </trkpt>
      <trkpt lat="49.54384" lon="5.71162">
        <ele>329.8</ele>
        <time>1970-01-01T03:11:27.000Z</time>
      </trkpt>
      <trkpt lat="49.54386" lon="5.71165">
        <ele>330</ele>
        <time>1970-01-01T03:11:28.000Z</time>
      </trkpt>
      <trkpt lat="49.54388" lon="5.71169">
        <ele>330</ele>
        <time>1970-01-01T03:11:29.000Z</time>
      </trkpt>
      <trkpt lat="49.54389" lon="5.71171">
        <ele>330.2</ele>
        <time>1970-01-01T03:11:30.000Z</time>
      </trkpt>
      <trkpt lat="49.54391" lon="5.71174">
        <ele>330.4</ele>
        <time>1970-01-01T03:11:31.000Z</time>
      </trkpt>
      <trkpt lat="49.54392" lon="5.71176">
        <ele>330.4</ele>
        <time>1970-01-01T03:11:32.000Z</time>
      </trkpt>
      <trkpt lat="49.54393" lon="5.71178">
        <ele>331</ele>
        <time>1970-01-01T03:11:33.000Z</time>
      </trkpt>
      <trkpt lat="49.54395" lon="5.71182">
        <ele>331.4</ele>
        <time>1970-01-01T03:11:34.000Z</time>
      </trkpt>
      <trkpt lat="49.54396" lon="5.71185">
        <ele>331.8</ele>
        <time>1970-01-01T03:11:35.000Z</time>
      </trkpt>
      <trkpt lat="49.54398" lon="5.71189">
        <ele>332</ele>
        <time>1970-01-01T03:11:36.000Z</time>
      </trkpt>
      <trkpt lat="49.544" lon="5.71192">
        <ele>332.2</ele>
        <time>1970-01-01T03:11:37.000Z</time>
      </trkpt>
      <trkpt lat="49.54401" lon="5.71195">
        <ele>332.2</ele>
        <time>1970-01-01T03:11:38.000Z</time>
      </trkpt>
      <trkpt lat="49.54403" lon="5.71198">
        <ele>332.4</ele>
        <time>1970-01-01T03:11:39.000Z</time>
      </trkpt>
      <trkpt lat="49.54405" lon="5.71201">
        <ele>332.6</ele>
        <time>1970-01-01T03:11:40.000Z</time>
      </trkpt>
      <trkpt lat="49.54408" lon="5.71204">
        <ele>332.8</ele>
        <time>1970-01-01T03:11:41.000Z</time>
      </trkpt>
      <trkpt lat="49.54409" lon="5.71207">
        <ele>332.8</ele>
        <time>1970-01-01T03:11:42.000Z</time>
      </trkpt>
      <trkpt lat="49.54411" lon="5.71209">
        <ele>333</ele>
        <time>1970-01-01T03:11:43.000Z</time>
      </trkpt>
      <trkpt lat="49.54412" lon="5.71213">
        <ele>333</ele>
        <time>1970-01-01T03:11:44.000Z</time>
      </trkpt>
      <trkpt lat="49.54414" lon="5.71216">
        <ele>333</ele>
        <time>1970-01-01T03:11:45.000Z</time>
      </trkpt>
      <trkpt lat="49.54416" lon="5.71219">
        <ele>333.4</ele>
        <time>1970-01-01T03:11:46.000Z</time>
      </trkpt>
      <trkpt lat="49.54417" lon="5.71221">
        <ele>333.4</ele>
        <time>1970-01-01T03:11:47.000Z</time>
      </trkpt>
      <trkpt lat="49.54419" lon="5.71225">
        <ele>333.6</ele>
        <time>1970-01-01T03:11:48.000Z</time>
      </trkpt>
      <trkpt lat="49.54421" lon="5.71231">
        <ele>333.6</ele>
        <time>1970-01-01T03:11:49.000Z</time>
      </trkpt>
      <trkpt lat="49.54423" lon="5.71233">
        <ele>333.8</ele>
        <time>1970-01-01T03:11:50.000Z</time>
      </trkpt>
      <trkpt lat="49.54424" lon="5.71235">
        <ele>334</ele>
        <time>1970-01-01T03:11:51.000Z</time>
      </trkpt>
      <trkpt lat="49.54426" lon="5.71236">
        <ele>333.8</ele>
        <time>1970-01-01T03:11:52.000Z</time>
      </trkpt>
      <trkpt lat="49.54428" lon="5.71238">
        <ele>334</ele>
        <time>1970-01-01T03:11:53.000Z</time>
      </trkpt>
      <trkpt lat="49.54429" lon="5.71241">
        <ele>334.6</ele>
        <time>1970-01-01T03:11:54.000Z</time>
      </trkpt>
      <trkpt lat="49.54432" lon="5.71245">
        <ele>334.8</ele>
        <time>1970-01-01T03:11:55.000Z</time>
      </trkpt>
      <trkpt lat="49.54434" lon="5.71249">
        <ele>335.2</ele>
        <time>1970-01-01T03:11:56.000Z</time>
      </trkpt>
      <trkpt lat="49.54435" lon="5.71251">
        <ele>335.2</ele>
        <time>1970-01-01T03:11:57.000Z</time>
      </trkpt>
      <trkpt lat="49.54436" lon="5.71254">
        <ele>335.6</ele>
        <time>1970-01-01T03:11:58.000Z</time>
      </trkpt>
      <trkpt lat="49.54437" lon="5.71256">
        <ele>335.6</ele>
        <time>1970-01-01T03:11:59.000Z</time>
      </trkpt>
      <trkpt lat="49.54439" lon="5.71257">
        <ele>335.8</ele>
        <time>1970-01-01T03:12:00.000Z</time>
      </trkpt>
      <trkpt lat="49.54441" lon="5.71258">
        <ele>336</ele>
        <time>1970-01-01T03:12:01.000Z</time>
      </trkpt>
      <trkpt lat="49.54443" lon="5.71259">
        <ele>336.4</ele>
        <time>1970-01-01T03:12:02.000Z</time>
      </trkpt>
      <trkpt lat="49.54444" lon="5.71261">
        <ele>336.6</ele>
        <time>1970-01-01T03:12:03.000Z</time>
      </trkpt>
      <trkpt lat="49.54446" lon="5.71263">
        <ele>336.8</ele>
        <time>1970-01-01T03:12:04.000Z</time>
      </trkpt>
      <trkpt lat="49.54448" lon="5.71265">
        <ele>337.2</ele>
        <time>1970-01-01T03:12:05.000Z</time>
      </trkpt>
      <trkpt lat="49.54449" lon="5.71267">
        <ele>337.2</ele>
        <time>1970-01-01T03:12:06.000Z</time>
      </trkpt>
      <trkpt lat="49.5445" lon="5.71269">
        <ele>337.4</ele>
        <time>1970-01-01T03:12:07.000Z</time>
      </trkpt>
      <trkpt lat="49.54452" lon="5.71271">
        <ele>337.4</ele>
        <time>1970-01-01T03:12:08.000Z</time>
      </trkpt>
      <trkpt lat="49.54454" lon="5.71273">
        <ele>337.6</ele>
        <time>1970-01-01T03:12:09.000Z</time>
      </trkpt>
      <trkpt lat="49.54456" lon="5.71276">
        <ele>338</ele>
        <time>1970-01-01T03:12:10.000Z</time>
      </trkpt>
      <trkpt lat="49.54457" lon="5.71277">
        <ele>338.2</ele>
        <time>1970-01-01T03:12:11.000Z</time>
      </trkpt>
      <trkpt lat="49.54459" lon="5.7128">
        <ele>338.6</ele>
        <time>1970-01-01T03:12:12.000Z</time>
      </trkpt>
      <trkpt lat="49.5446" lon="5.71283">
        <ele>338.6</ele>
        <time>1970-01-01T03:12:13.000Z</time>
      </trkpt>
      <trkpt lat="49.54461" lon="5.71285">
        <ele>339</ele>
        <time>1970-01-01T03:12:14.000Z</time>
      </trkpt>
      <trkpt lat="49.54462" lon="5.71288">
        <ele>339</ele>
        <time>1970-01-01T03:12:15.000Z</time>
      </trkpt>
      <trkpt lat="49.54463" lon="5.7129">
        <ele>339.2</ele>
        <time>1970-01-01T03:12:16.000Z</time>
      </trkpt>
      <trkpt lat="49.54465" lon="5.71292">
        <ele>339.4</ele>
        <time>1970-01-01T03:12:17.000Z</time>
      </trkpt>
      <trkpt lat="49.54466" lon="5.71295">
        <ele>339.6</ele>
        <time>1970-01-01T03:12:18.000Z</time>
      </trkpt>
      <trkpt lat="49.54467" lon="5.71297">
        <ele>339.6</ele>
        <time>1970-01-01T03:12:19.000Z</time>
      </trkpt>
      <trkpt lat="49.54468" lon="5.713">
        <ele>339.6</ele>
        <time>1970-01-01T03:12:20.000Z</time>
      </trkpt>
      <trkpt lat="49.5447" lon="5.71302">
        <ele>339.8</ele>
        <time>1970-01-01T03:12:21.000Z</time>
      </trkpt>
      <trkpt lat="49.54471" lon="5.71305">
        <ele>340.2</ele>
        <time>1970-01-01T03:12:22.000Z</time>
      </trkpt>
      <trkpt lat="49.54472" lon="5.71308">
        <ele>340.2</ele>
        <time>1970-01-01T03:12:23.000Z</time>
      </trkpt>
      <trkpt lat="49.54472" lon="5.71311">
        <ele>340.2</ele>
        <time>1970-01-01T03:12:24.000Z</time>
      </trkpt>
      <trkpt lat="49.54472" lon="5.71314">
        <ele>340.4</ele>
        <time>1970-01-01T03:12:25.000Z</time>
      </trkpt>
      <trkpt lat="49.54473" lon="5.71316">
        <ele>340.4</ele>
        <time>1970-01-01T03:12:26.000Z</time>
      </trkpt>
      <trkpt lat="49.54474" lon="5.71319">
        <ele>340.8</ele>
        <time>1970-01-01T03:12:27.000Z</time>
      </trkpt>
      <trkpt lat="49.54475" lon="5.71322">
        <ele>341.4</ele>
        <time>1970-01-01T03:12:28.000Z</time>
      </trkpt>
      <trkpt lat="49.54476" lon="5.71324">
        <ele>341.6</ele>
        <time>1970-01-01T03:12:29.000Z</time>
      </trkpt>
      <trkpt lat="49.54477" lon="5.71328">
        <ele>341.8</ele>
        <time>1970-01-01T03:12:30.000Z</time>
      </trkpt>
      <trkpt lat="49.54478" lon="5.7133">
        <ele>342</ele>
        <time>1970-01-01T03:12:31.000Z</time>
      </trkpt>
      <trkpt lat="49.54478" lon="5.71332">
        <ele>342.4</ele>
        <time>1970-01-01T03:12:32.000Z</time>
      </trkpt>
      <trkpt lat="49.54478" lon="5.71335">
        <ele>342.4</ele>
        <time>1970-01-01T03:12:33.000Z</time>
      </trkpt>
      <trkpt lat="49.54478" lon="5.71338">
        <ele>342.6</ele>
        <time>1970-01-01T03:12:34.000Z</time>
      </trkpt>
      <trkpt lat="49.54477" lon="5.71341">
        <ele>342.8</ele>
        <time>1970-01-01T03:12:35.000Z</time>
      </trkpt>
      <trkpt lat="49.54477" lon="5.71344">
        <ele>342.8</ele>
        <time>1970-01-01T03:12:36.000Z</time>
      </trkpt>
      <trkpt lat="49.54477" lon="5.71347">
        <ele>343</ele>
        <time>1970-01-01T03:12:37.000Z</time>
      </trkpt>
      <trkpt lat="49.54478" lon="5.71351">
        <ele>343</ele>
        <time>1970-01-01T03:12:38.000Z</time>
      </trkpt>
      <trkpt lat="49.54479" lon="5.71355">
        <ele>343.2</ele>
        <time>1970-01-01T03:12:39.000Z</time>
      </trkpt>
      <trkpt lat="49.54479" lon="5.71358">
        <ele>343.4</ele>
        <time>1970-01-01T03:12:40.000Z</time>
      </trkpt>
      <trkpt lat="49.54479" lon="5.7136">
        <ele>343.6</ele>
        <time>1970-01-01T03:12:41.000Z</time>
      </trkpt>
      <trkpt lat="49.5448" lon="5.71363">
        <ele>343.8</ele>
        <time>1970-01-01T03:12:42.000Z</time>
      </trkpt>
      <trkpt lat="49.5448" lon="5.71366">
        <ele>343.8</ele>
        <time>1970-01-01T03:12:43.000Z</time>
      </trkpt>
      <trkpt lat="49.54481" lon="5.71369">
        <ele>344.2</ele>
        <time>1970-01-01T03:12:44.000Z</time>
      </trkpt>
      <trkpt lat="49.54482" lon="5.71372">
        <ele>344.2</ele>
        <time>1970-01-01T03:12:45.000Z</time>
      </trkpt>
      <trkpt lat="49.54482" lon="5.71374">
        <ele>344.2</ele>
        <time>1970-01-01T03:12:46.000Z</time>
      </trkpt>
      <trkpt lat="49.54482" lon="5.71376">
        <ele>344.4</ele>
        <time>1970-01-01T03:12:47.000Z</time>
      </trkpt>
      <trkpt lat="49.54483" lon="5.71379">
        <ele>344.6</ele>
        <time>1970-01-01T03:12:48.000Z</time>
      </trkpt>
      <trkpt lat="49.54484" lon="5.71384">
        <ele>344.6</ele>
        <time>1970-01-01T03:12:49.000Z</time>
      </trkpt>
      <trkpt lat="49.54485" lon="5.71387">
        <ele>344.6</ele>
        <time>1970-01-01T03:12:50.000Z</time>
      </trkpt>
      <trkpt lat="49.54486" lon="5.71392">
        <ele>344.8</ele>
        <time>1970-01-01T03:12:51.000Z</time>
      </trkpt>
      <trkpt lat="49.54487" lon="5.71396">
        <ele>344.8</ele>
        <time>1970-01-01T03:12:52.000Z</time>
      </trkpt>
      <trkpt lat="49.54488" lon="5.71399">
        <ele>345</ele>
        <time>1970-01-01T03:12:53.000Z</time>
      </trkpt>
      <trkpt lat="49.54489" lon="5.71403">
        <ele>345</ele>
        <time>1970-01-01T03:12:54.000Z</time>
      </trkpt>
      <trkpt lat="49.54491" lon="5.71406">
        <ele>345.2</ele>
        <time>1970-01-01T03:12:55.000Z</time>
      </trkpt>
      <trkpt lat="49.54491" lon="5.71409">
        <ele>345.2</ele>
        <time>1970-01-01T03:12:56.000Z</time>
      </trkpt>
      <trkpt lat="49.54492" lon="5.71414">
        <ele>345.6</ele>
        <time>1970-01-01T03:12:57.000Z</time>
      </trkpt>
      <trkpt lat="49.54494" lon="5.71416">
        <ele>345.8</ele>
        <time>1970-01-01T03:12:58.000Z</time>
      </trkpt>
      <trkpt lat="49.54495" lon="5.71417">
        <ele>346</ele>
        <time>1970-01-01T03:12:59.000Z</time>
      </trkpt>
      <trkpt lat="49.54494" lon="5.71419">
        <ele>346.2</ele>
        <time>1970-01-01T03:13:00.000Z</time>
      </trkpt>
      <trkpt lat="49.54495" lon="5.7142">
        <ele>346.2</ele>
        <time>1970-01-01T03:13:01.000Z</time>
      </trkpt>
      <trkpt lat="49.54496" lon="5.71422">
        <ele>346.4</ele>
        <time>1970-01-01T03:13:02.000Z</time>
      </trkpt>
      <trkpt lat="49.54497" lon="5.71425">
        <ele>346.4</ele>
        <time>1970-01-01T03:13:03.000Z</time>
      </trkpt>
      <trkpt lat="49.54496" lon="5.71428">
        <ele>346.6</ele>
        <time>1970-01-01T03:13:04.000Z</time>
      </trkpt>
      <trkpt lat="49.54497" lon="5.71431">
        <ele>346.6</ele>
        <time>1970-01-01T03:13:05.000Z</time>
      </trkpt>
      <trkpt lat="49.54497" lon="5.71434">
        <ele>347</ele>
        <time>1970-01-01T03:13:06.000Z</time>
      </trkpt>
      <trkpt lat="49.54498" lon="5.71437">
        <ele>347</ele>
        <time>1970-01-01T03:13:07.000Z</time>
      </trkpt>
      <trkpt lat="49.54499" lon="5.7144">
        <ele>347.6</ele>
        <time>1970-01-01T03:13:08.000Z</time>
      </trkpt>
      <trkpt lat="49.545" lon="5.71443">
        <ele>348</ele>
        <time>1970-01-01T03:13:09.000Z</time>
      </trkpt>
      <trkpt lat="49.54499" lon="5.71446">
        <ele>348.4</ele>
        <time>1970-01-01T03:13:10.000Z</time>
      </trkpt>
      <trkpt lat="49.545" lon="5.7145">
        <ele>348.4</ele>
        <time>1970-01-01T03:13:11.000Z</time>
      </trkpt>
      <trkpt lat="49.54501" lon="5.71453">
        <ele>348.6</ele>
        <time>1970-01-01T03:13:12.000Z</time>
      </trkpt>
      <trkpt lat="49.54501" lon="5.71456">
        <ele>348.8</ele>
        <time>1970-01-01T03:13:13.000Z</time>
      </trkpt>
      <trkpt lat="49.54502" lon="5.71459">
        <ele>349</ele>
        <time>1970-01-01T03:13:14.000Z</time>
      </trkpt>
      <trkpt lat="49.54502" lon="5.71463">
        <ele>349.2</ele>
        <time>1970-01-01T03:13:15.000Z</time>
      </trkpt>
      <trkpt lat="49.54503" lon="5.71466">
        <ele>349.4</ele>
        <time>1970-01-01T03:13:16.000Z</time>
      </trkpt>
      <trkpt lat="49.54503" lon="5.71469">
        <ele>349.4</ele>
        <time>1970-01-01T03:13:17.000Z</time>
      </trkpt>
      <trkpt lat="49.54503" lon="5.71472">
        <ele>349.6</ele>
        <time>1970-01-01T03:13:18.000Z</time>
      </trkpt>
      <trkpt lat="49.54504" lon="5.71475">
        <ele>349.8</ele>
        <time>1970-01-01T03:13:19.000Z</time>
      </trkpt>
      <trkpt lat="49.54504" lon="5.71477">
        <ele>349.8</ele>
        <time>1970-01-01T03:13:20.000Z</time>
      </trkpt>
      <trkpt lat="49.54504" lon="5.7148">
        <ele>350</ele>
        <time>1970-01-01T03:13:21.000Z</time>
      </trkpt>
      <trkpt lat="49.54505" lon="5.71483">
        <ele>350.2</ele>
        <time>1970-01-01T03:13:22.000Z</time>
      </trkpt>
      <trkpt lat="49.54505" lon="5.71485">
        <ele>350.2</ele>
        <time>1970-01-01T03:13:23.000Z</time>
      </trkpt>
      <trkpt lat="49.54506" lon="5.71487">
        <ele>350.4</ele>
        <time>1970-01-01T03:13:24.000Z</time>
      </trkpt>
      <trkpt lat="49.54506" lon="5.7149">
        <ele>350.4</ele>
        <time>1970-01-01T03:13:25.000Z</time>
      </trkpt>
      <trkpt lat="49.54507" lon="5.71494">
        <ele>350.6</ele>
        <time>1970-01-01T03:13:26.000Z</time>
      </trkpt>
      <trkpt lat="49.54507" lon="5.71497">
        <ele>350.8</ele>
        <time>1970-01-01T03:13:27.000Z</time>
      </trkpt>
      <trkpt lat="49.54508" lon="5.71499">
        <ele>350.8</ele>
        <time>1970-01-01T03:13:28.000Z</time>
      </trkpt>
      <trkpt lat="49.54508" lon="5.71501">
        <ele>351</ele>
        <time>1970-01-01T03:13:29.000Z</time>
      </trkpt>
      <trkpt lat="49.54508" lon="5.71505">
        <ele>351.2</ele>
        <time>1970-01-01T03:13:30.000Z</time>
      </trkpt>
      <trkpt lat="49.54507" lon="5.71508">
        <ele>351.2</ele>
        <time>1970-01-01T03:13:31.000Z</time>
      </trkpt>
      <trkpt lat="49.54508" lon="5.71512">
        <ele>351.2</ele>
        <time>1970-01-01T03:13:32.000Z</time>
      </trkpt>
      <trkpt lat="49.54509" lon="5.71515">
        <ele>351.4</ele>
        <time>1970-01-01T03:13:33.000Z</time>
      </trkpt>
      <trkpt lat="49.54509" lon="5.71519">
        <ele>351.6</ele>
        <time>1970-01-01T03:13:34.000Z</time>
      </trkpt>
      <trkpt lat="49.5451" lon="5.71522">
        <ele>351.8</ele>
        <time>1970-01-01T03:13:35.000Z</time>
      </trkpt>
      <trkpt lat="49.5451" lon="5.71524">
        <ele>352</ele>
        <time>1970-01-01T03:13:36.000Z</time>
      </trkpt>
      <trkpt lat="49.5451" lon="5.71527">
        <ele>352</ele>
        <time>1970-01-01T03:13:37.000Z</time>
      </trkpt>
      <trkpt lat="49.5451" lon="5.71531">
        <ele>352.4</ele>
        <time>1970-01-01T03:13:38.000Z</time>
      </trkpt>
      <trkpt lat="49.54508" lon="5.71535">
        <ele>352.6</ele>
        <time>1970-01-01T03:13:39.000Z</time>
      </trkpt>
      <trkpt lat="49.54507" lon="5.71539">
        <ele>353</ele>
        <time>1970-01-01T03:13:40.000Z</time>
      </trkpt>
      <trkpt lat="49.54507" lon="5.71544">
        <ele>353.2</ele>
        <time>1970-01-01T03:13:41.000Z</time>
      </trkpt>
      <trkpt lat="49.54508" lon="5.71549">
        <ele>353.4</ele>
        <time>1970-01-01T03:13:42.000Z</time>
      </trkpt>
      <trkpt lat="49.54507" lon="5.71555">
        <ele>353.8</ele>
        <time>1970-01-01T03:13:43.000Z</time>
      </trkpt>
      <trkpt lat="49.54506" lon="5.71559">
        <ele>353.8</ele>
        <time>1970-01-01T03:13:44.000Z</time>
      </trkpt>
      <trkpt lat="49.54505" lon="5.71561">
        <ele>354</ele>
        <time>1970-01-01T03:13:45.000Z</time>
      </trkpt>
      <trkpt lat="49.54504" lon="5.71563">
        <ele>354.2</ele>
        <time>1970-01-01T03:13:46.000Z</time>
      </trkpt>
      <trkpt lat="49.54505" lon="5.71566">
        <ele>354.6</ele>
        <time>1970-01-01T03:13:47.000Z</time>
      </trkpt>
      <trkpt lat="49.54505" lon="5.71569">
        <ele>354.6</ele>
        <time>1970-01-01T03:13:48.000Z</time>
      </trkpt>
      <trkpt lat="49.54505" lon="5.71571">
        <ele>355</ele>
        <time>1970-01-01T03:13:49.000Z</time>
      </trkpt>
      <trkpt lat="49.54505" lon="5.71574">
        <ele>355.2</ele>
        <time>1970-01-01T03:13:50.000Z</time>
      </trkpt>
      <trkpt lat="49.54506" lon="5.71576">
        <ele>355.4</ele>
        <time>1970-01-01T03:13:51.000Z</time>
      </trkpt>
      <trkpt lat="49.54506" lon="5.71578">
        <ele>355.6</ele>
        <time>1970-01-01T03:13:52.000Z</time>
      </trkpt>
      <trkpt lat="49.54506" lon="5.71581">
        <ele>355.6</ele>
        <time>1970-01-01T03:13:53.000Z</time>
      </trkpt>
      <trkpt lat="49.54506" lon="5.71583">
        <ele>355.8</ele>
        <time>1970-01-01T03:13:54.000Z</time>
      </trkpt>
      <trkpt lat="49.54507" lon="5.71585">
        <ele>356</ele>
        <time>1970-01-01T03:13:55.000Z</time>
      </trkpt>
      <trkpt lat="49.54507" lon="5.71588">
        <ele>356</ele>
        <time>1970-01-01T03:13:56.000Z</time>
      </trkpt>
      <trkpt lat="49.54507" lon="5.7159">
        <ele>356.2</ele>
        <time>1970-01-01T03:13:57.000Z</time>
      </trkpt>
      <trkpt lat="49.54507" lon="5.71593">
        <ele>356.4</ele>
        <time>1970-01-01T03:13:58.000Z</time>
      </trkpt>
      <trkpt lat="49.54507" lon="5.71595">
        <ele>356.6</ele>
        <time>1970-01-01T03:13:59.000Z</time>
      </trkpt>
      <trkpt lat="49.54507" lon="5.71598">
        <ele>356.6</ele>
        <time>1970-01-01T03:14:00.000Z</time>
      </trkpt>
      <trkpt lat="49.54507" lon="5.71601">
        <ele>357</ele>
        <time>1970-01-01T03:14:01.000Z</time>
      </trkpt>
      <trkpt lat="49.54507" lon="5.71603">
        <ele>357</ele>
        <time>1970-01-01T03:14:02.000Z</time>
      </trkpt>
      <trkpt lat="49.54506" lon="5.71606">
        <ele>357.2</ele>
        <time>1970-01-01T03:14:03.000Z</time>
      </trkpt>
      <trkpt lat="49.54506" lon="5.71608">
        <ele>357.4</ele>
        <time>1970-01-01T03:14:04.000Z</time>
      </trkpt>
      <trkpt lat="49.54506" lon="5.71611">
        <ele>357.4</ele>
        <time>1970-01-01T03:14:05.000Z</time>
      </trkpt>
      <trkpt lat="49.54506" lon="5.71614">
        <ele>357.8</ele>
        <time>1970-01-01T03:14:06.000Z</time>
      </trkpt>
      <trkpt lat="49.54505" lon="5.71616">
        <ele>358</ele>
        <time>1970-01-01T03:14:07.000Z</time>
      </trkpt>
      <trkpt lat="49.54505" lon="5.71619">
        <ele>358</ele>
        <time>1970-01-01T03:14:08.000Z</time>
      </trkpt>
      <trkpt lat="49.54504" lon="5.71621">
        <ele>358</ele>
        <time>1970-01-01T03:14:09.000Z</time>
      </trkpt>
      <trkpt lat="49.54503" lon="5.71622">
        <ele>358.4</ele>
        <time>1970-01-01T03:14:10.000Z</time>
      </trkpt>
      <trkpt lat="49.54502" lon="5.71624">
        <ele>358.4</ele>
        <time>1970-01-01T03:14:11.000Z</time>
      </trkpt>
      <trkpt lat="49.54501" lon="5.71626">
        <ele>358.8</ele>
        <time>1970-01-01T03:14:12.000Z</time>
      </trkpt>
      <trkpt lat="49.545" lon="5.71627">
        <ele>358.8</ele>
        <time>1970-01-01T03:14:13.000Z</time>
      </trkpt>
      <trkpt lat="49.54499" lon="5.71627">
        <ele>359</ele>
        <time>1970-01-01T03:14:14.000Z</time>
      </trkpt>
      <trkpt lat="49.54498" lon="5.71627">
        <ele>359.2</ele>
        <time>1970-01-01T03:14:15.000Z</time>
      </trkpt>
      <trkpt lat="49.54496" lon="5.71627">
        <ele>359.4</ele>
        <time>1970-01-01T03:14:16.000Z</time>
      </trkpt>
      <trkpt lat="49.54495" lon="5.71627">
        <ele>359.6</ele>
        <time>1970-01-01T03:14:17.000Z</time>
      </trkpt>
      <trkpt lat="49.54493" lon="5.71627">
        <ele>359.8</ele>
        <time>1970-01-01T03:14:18.000Z</time>
      </trkpt>
      <trkpt lat="49.54492" lon="5.71627">
        <ele>360</ele>
        <time>1970-01-01T03:14:19.000Z</time>
      </trkpt>
      <trkpt lat="49.5449" lon="5.71627">
        <ele>360.2</ele>
        <time>1970-01-01T03:14:20.000Z</time>
      </trkpt>
      <trkpt lat="49.54489" lon="5.71626">
        <ele>360.6</ele>
        <time>1970-01-01T03:14:21.000Z</time>
      </trkpt>
      <trkpt lat="49.54488" lon="5.71626">
        <ele>360.8</ele>
        <time>1970-01-01T03:14:22.000Z</time>
      </trkpt>
      <trkpt lat="49.54486" lon="5.71624">
        <ele>361</ele>
        <time>1970-01-01T03:14:23.000Z</time>
      </trkpt>
      <trkpt lat="49.54485" lon="5.71623">
        <ele>361</ele>
        <time>1970-01-01T03:14:24.000Z</time>
      </trkpt>
      <trkpt lat="49.54483" lon="5.71621">
        <ele>361.2</ele>
        <time>1970-01-01T03:14:25.000Z</time>
      </trkpt>
      <trkpt lat="49.54482" lon="5.71619">
        <ele>361.4</ele>
        <time>1970-01-01T03:14:26.000Z</time>
      </trkpt>
      <trkpt lat="49.54481" lon="5.71617">
        <ele>361.6</ele>
        <time>1970-01-01T03:14:27.000Z</time>
      </trkpt>
      <trkpt lat="49.54479" lon="5.71616">
        <ele>361.8</ele>
        <time>1970-01-01T03:14:28.000Z</time>
      </trkpt>
      <trkpt lat="49.54478" lon="5.71614">
        <ele>362</ele>
        <time>1970-01-01T03:14:29.000Z</time>
      </trkpt>
      <trkpt lat="49.54477" lon="5.71612">
        <ele>362.2</ele>
        <time>1970-01-01T03:14:30.000Z</time>
      </trkpt>
      <trkpt lat="49.54475" lon="5.71609">
        <ele>362.2</ele>
        <time>1970-01-01T03:14:31.000Z</time>
      </trkpt>
      <trkpt lat="49.54474" lon="5.71607">
        <ele>362.4</ele>
        <time>1970-01-01T03:14:32.000Z</time>
      </trkpt>
      <trkpt lat="49.54472" lon="5.71605">
        <ele>362.8</ele>
        <time>1970-01-01T03:14:33.000Z</time>
      </trkpt>
      <trkpt lat="49.54471" lon="5.71603">
        <ele>362.8</ele>
        <time>1970-01-01T03:14:34.000Z</time>
      </trkpt>
      <trkpt lat="49.54469" lon="5.71601">
        <ele>363</ele>
        <time>1970-01-01T03:14:35.000Z</time>
      </trkpt>
      <trkpt lat="49.54468" lon="5.71599">
        <ele>363</ele>
        <time>1970-01-01T03:14:36.000Z</time>
      </trkpt>
      <trkpt lat="49.54467" lon="5.71598">
        <ele>363.2</ele>
        <time>1970-01-01T03:14:37.000Z</time>
      </trkpt>
      <trkpt lat="49.54465" lon="5.71596">
        <ele>363.2</ele>
        <time>1970-01-01T03:14:38.000Z</time>
      </trkpt>
      <trkpt lat="49.54464" lon="5.71594">
        <ele>363.4</ele>
        <time>1970-01-01T03:14:39.000Z</time>
      </trkpt>
      <trkpt lat="49.54463" lon="5.71593">
        <ele>363.8</ele>
        <time>1970-01-01T03:14:40.000Z</time>
      </trkpt>
      <trkpt lat="49.54462" lon="5.71591">
        <ele>363.8</ele>
        <time>1970-01-01T03:14:41.000Z</time>
      </trkpt>
      <trkpt lat="49.54461" lon="5.71589">
        <ele>364</ele>
        <time>1970-01-01T03:14:42.000Z</time>
      </trkpt>
      <trkpt lat="49.54459" lon="5.71588">
        <ele>364</ele>
        <time>1970-01-01T03:14:43.000Z</time>
      </trkpt>
      <trkpt lat="49.54457" lon="5.71585">
        <ele>364.4</ele>
        <time>1970-01-01T03:14:44.000Z</time>
      </trkpt>
      <trkpt lat="49.54455" lon="5.71583">
        <ele>364.4</ele>
        <time>1970-01-01T03:14:45.000Z</time>
      </trkpt>
      <trkpt lat="49.54454" lon="5.71581">
        <ele>364.8</ele>
        <time>1970-01-01T03:14:46.000Z</time>
      </trkpt>
      <trkpt lat="49.54452" lon="5.71579">
        <ele>365</ele>
        <time>1970-01-01T03:14:47.000Z</time>
      </trkpt>
      <trkpt lat="49.54451" lon="5.71578">
        <ele>365.2</ele>
        <time>1970-01-01T03:14:48.000Z</time>
      </trkpt>
      <trkpt lat="49.5445" lon="5.71578">
        <ele>365.4</ele>
        <time>1970-01-01T03:14:49.000Z</time>
      </trkpt>
      <trkpt lat="49.54449" lon="5.71577">
        <ele>365.4</ele>
        <time>1970-01-01T03:14:50.000Z</time>
      </trkpt>
      <trkpt lat="49.54448" lon="5.71576">
        <ele>365.6</ele>
        <time>1970-01-01T03:14:51.000Z</time>
      </trkpt>
      <trkpt lat="49.54446" lon="5.71575">
        <ele>365.6</ele>
        <time>1970-01-01T03:14:52.000Z</time>
      </trkpt>
      <trkpt lat="49.54445" lon="5.71573">
        <ele>365.6</ele>
        <time>1970-01-01T03:14:53.000Z</time>
      </trkpt>
      <trkpt lat="49.54444" lon="5.71572">
        <ele>365.8</ele>
        <time>1970-01-01T03:14:54.000Z</time>
      </trkpt>
      <trkpt lat="49.54443" lon="5.71571">
        <ele>365.6</ele>
        <time>1970-01-01T03:14:55.000Z</time>
      </trkpt>
      <trkpt lat="49.54442" lon="5.71569">
        <ele>366</ele>
        <time>1970-01-01T03:14:56.000Z</time>
      </trkpt>
      <trkpt lat="49.5444" lon="5.71568">
        <ele>366</ele>
        <time>1970-01-01T03:14:57.000Z</time>
      </trkpt>
      <trkpt lat="49.54438" lon="5.71566">
        <ele>366</ele>
        <time>1970-01-01T03:14:58.000Z</time>
      </trkpt>
      <trkpt lat="49.54436" lon="5.71564">
        <ele>366.2</ele>
        <time>1970-01-01T03:14:59.000Z</time>
      </trkpt>
      <trkpt lat="49.54434" lon="5.71562">
        <ele>366.4</ele>
        <time>1970-01-01T03:15:00.000Z</time>
      </trkpt>
      <trkpt lat="49.54433" lon="5.7156">
        <ele>366.6</ele>
        <time>1970-01-01T03:15:01.000Z</time>
      </trkpt>
      <trkpt lat="49.54431" lon="5.71558">
        <ele>366.8</ele>
        <time>1970-01-01T03:15:02.000Z</time>
      </trkpt>
      <trkpt lat="49.5443" lon="5.71556">
        <ele>367</ele>
        <time>1970-01-01T03:15:03.000Z</time>
      </trkpt>
      <trkpt lat="49.54428" lon="5.71554">
        <ele>367.2</ele>
        <time>1970-01-01T03:15:04.000Z</time>
      </trkpt>
      <trkpt lat="49.54427" lon="5.71552">
        <ele>367.4</ele>
        <time>1970-01-01T03:15:05.000Z</time>
      </trkpt>
      <trkpt lat="49.54426" lon="5.7155">
        <ele>367.4</ele>
        <time>1970-01-01T03:15:06.000Z</time>
      </trkpt>
      <trkpt lat="49.54424" lon="5.7155">
        <ele>367.6</ele>
        <time>1970-01-01T03:15:07.000Z</time>
      </trkpt>
      <trkpt lat="49.54422" lon="5.71548">
        <ele>367.8</ele>
        <time>1970-01-01T03:15:08.000Z</time>
      </trkpt>
      <trkpt lat="49.54419" lon="5.71548">
        <ele>368</ele>
        <time>1970-01-01T03:15:09.000Z</time>
      </trkpt>
      <trkpt lat="49.54417" lon="5.71546">
        <ele>368.2</ele>
        <time>1970-01-01T03:15:10.000Z</time>
      </trkpt>
      <trkpt lat="49.54415" lon="5.71545">
        <ele>368.4</ele>
        <time>1970-01-01T03:15:11.000Z</time>
      </trkpt>
      <trkpt lat="49.54413" lon="5.71544">
        <ele>368.4</ele>
        <time>1970-01-01T03:15:12.000Z</time>
      </trkpt>
      <trkpt lat="49.54411" lon="5.71542">
        <ele>368.6</ele>
        <time>1970-01-01T03:15:13.000Z</time>
      </trkpt>
      <trkpt lat="49.5441" lon="5.71539">
        <ele>368.8</ele>
        <time>1970-01-01T03:15:14.000Z</time>
      </trkpt>
      <trkpt lat="49.54408" lon="5.71539">
        <ele>369</ele>
        <time>1970-01-01T03:15:15.000Z</time>
      </trkpt>
      <trkpt lat="49.54407" lon="5.71538">
        <ele>369.2</ele>
        <time>1970-01-01T03:15:16.000Z</time>
      </trkpt>
      <trkpt lat="49.54405" lon="5.71537">
        <ele>369.2</ele>
        <time>1970-01-01T03:15:17.000Z</time>
      </trkpt>
      <trkpt lat="49.54403" lon="5.71537">
        <ele>369.4</ele>
        <time>1970-01-01T03:15:18.000Z</time>
      </trkpt>
      <trkpt lat="49.544" lon="5.71535">
        <ele>369.4</ele>
        <time>1970-01-01T03:15:19.000Z</time>
      </trkpt>
      <trkpt lat="49.54398" lon="5.71533">
        <ele>369.6</ele>
        <time>1970-01-01T03:15:20.000Z</time>
      </trkpt>
      <trkpt lat="49.54396" lon="5.71531">
        <ele>369.8</ele>
        <time>1970-01-01T03:15:21.000Z</time>
      </trkpt>
      <trkpt lat="49.54394" lon="5.71531">
        <ele>369.8</ele>
        <time>1970-01-01T03:15:22.000Z</time>
      </trkpt>
      <trkpt lat="49.54392" lon="5.7153">
        <ele>370</ele>
        <time>1970-01-01T03:15:23.000Z</time>
      </trkpt>
      <trkpt lat="49.5439" lon="5.7153">
        <ele>370.2</ele>
        <time>1970-01-01T03:15:24.000Z</time>
      </trkpt>
      <trkpt lat="49.54387" lon="5.71528">
        <ele>370.6</ele>
        <time>1970-01-01T03:15:25.000Z</time>
      </trkpt>
      <trkpt lat="49.54386" lon="5.71528">
        <ele>370.8</ele>
        <time>1970-01-01T03:15:26.000Z</time>
      </trkpt>
      <trkpt lat="49.54383" lon="5.71528">
        <ele>371</ele>
        <time>1970-01-01T03:15:27.000Z</time>
      </trkpt>
      <trkpt lat="49.54382" lon="5.71527">
        <ele>371</ele>
        <time>1970-01-01T03:15:28.000Z</time>
      </trkpt>
      <trkpt lat="49.54381" lon="5.71528">
        <ele>371.2</ele>
        <time>1970-01-01T03:15:29.000Z</time>
      </trkpt>
      <trkpt lat="49.54381" lon="5.71531">
        <ele>371.4</ele>
        <time>1970-01-01T03:15:30.000Z</time>
      </trkpt>
      <trkpt lat="49.5438" lon="5.71534">
        <ele>371.6</ele>
        <time>1970-01-01T03:15:31.000Z</time>
      </trkpt>
      <trkpt lat="49.5438" lon="5.71535">
        <ele>371.8</ele>
        <time>1970-01-01T03:15:32.000Z</time>
      </trkpt>
      <trkpt lat="49.54379" lon="5.71537">
        <ele>371.8</ele>
        <time>1970-01-01T03:15:33.000Z</time>
      </trkpt>
      <trkpt lat="49.54378" lon="5.71538">
        <ele>372</ele>
        <time>1970-01-01T03:15:34.000Z</time>
      </trkpt>
      <trkpt lat="49.54378" lon="5.71541">
        <ele>372.2</ele>
        <time>1970-01-01T03:15:35.000Z</time>
      </trkpt>
      <trkpt lat="49.54378" lon="5.71543">
        <ele>372.2</ele>
        <time>1970-01-01T03:15:36.000Z</time>
      </trkpt>
      <trkpt lat="49.54379" lon="5.71545">
        <ele>372.4</ele>
        <time>1970-01-01T03:15:37.000Z</time>
      </trkpt>
      <trkpt lat="49.54379" lon="5.71547">
        <ele>372.6</ele>
        <time>1970-01-01T03:15:38.000Z</time>
      </trkpt>
      <trkpt lat="49.5438" lon="5.71549">
        <ele>373</ele>
        <time>1970-01-01T03:15:39.000Z</time>
      </trkpt>
      <trkpt lat="49.54381" lon="5.71551">
        <ele>373.2</ele>
        <time>1970-01-01T03:15:40.000Z</time>
      </trkpt>
      <trkpt lat="49.54382" lon="5.71554">
        <ele>373.4</ele>
        <time>1970-01-01T03:15:41.000Z</time>
      </trkpt>
      <trkpt lat="49.54384" lon="5.71556">
        <ele>373.6</ele>
        <time>1970-01-01T03:15:42.000Z</time>
      </trkpt>
      <trkpt lat="49.54386" lon="5.71559">
        <ele>373.6</ele>
        <time>1970-01-01T03:15:43.000Z</time>
      </trkpt>
      <trkpt lat="49.54388" lon="5.71562">
        <ele>373.6</ele>
        <time>1970-01-01T03:15:44.000Z</time>
      </trkpt>
      <trkpt lat="49.5439" lon="5.71565">
        <ele>373.8</ele>
        <time>1970-01-01T03:15:45.000Z</time>
      </trkpt>
      <trkpt lat="49.54392" lon="5.71567">
        <ele>373.8</ele>
        <time>1970-01-01T03:15:46.000Z</time>
      </trkpt>
      <trkpt lat="49.54394" lon="5.7157">
        <ele>373.8</ele>
        <time>1970-01-01T03:15:47.000Z</time>
      </trkpt>
      <trkpt lat="49.54395" lon="5.71573">
        <ele>374</ele>
        <time>1970-01-01T03:15:48.000Z</time>
      </trkpt>
      <trkpt lat="49.54397" lon="5.71577">
        <ele>374.2</ele>
        <time>1970-01-01T03:15:49.000Z</time>
      </trkpt>
      <trkpt lat="49.544" lon="5.71581">
        <ele>374.4</ele>
        <time>1970-01-01T03:15:50.000Z</time>
      </trkpt>
      <trkpt lat="49.54402" lon="5.71584">
        <ele>374.4</ele>
        <time>1970-01-01T03:15:51.000Z</time>
      </trkpt>
      <trkpt lat="49.54404" lon="5.71588">
        <ele>374.6</ele>
        <time>1970-01-01T03:15:52.000Z</time>
      </trkpt>
      <trkpt lat="49.54406" lon="5.71591">
        <ele>374.8</ele>
        <time>1970-01-01T03:15:53.000Z</time>
      </trkpt>
      <trkpt lat="49.54408" lon="5.71595">
        <ele>374.8</ele>
        <time>1970-01-01T03:15:54.000Z</time>
      </trkpt>
      <trkpt lat="49.54411" lon="5.71599">
        <ele>375</ele>
        <time>1970-01-01T03:15:55.000Z</time>
      </trkpt>
      <trkpt lat="49.54413" lon="5.71602">
        <ele>375</ele>
        <time>1970-01-01T03:15:56.000Z</time>
      </trkpt>
      <trkpt lat="49.54416" lon="5.71606">
        <ele>375</ele>
        <time>1970-01-01T03:15:57.000Z</time>
      </trkpt>
      <trkpt lat="49.54418" lon="5.7161">
        <ele>375</ele>
        <time>1970-01-01T03:15:58.000Z</time>
      </trkpt>
      <trkpt lat="49.54421" lon="5.71614">
        <ele>375</ele>
        <time>1970-01-01T03:15:59.000Z</time>
      </trkpt>
      <trkpt lat="49.54424" lon="5.71618">
        <ele>375</ele>
        <time>1970-01-01T03:16:00.000Z</time>
      </trkpt>
      <trkpt lat="49.54426" lon="5.71622">
        <ele>374.8</ele>
        <time>1970-01-01T03:16:01.000Z</time>
      </trkpt>
      <trkpt lat="49.54429" lon="5.71627">
        <ele>375</ele>
        <time>1970-01-01T03:16:02.000Z</time>
      </trkpt>
      <trkpt lat="49.54432" lon="5.71631">
        <ele>375</ele>
        <time>1970-01-01T03:16:03.000Z</time>
      </trkpt>
      <trkpt lat="49.54434" lon="5.71635">
        <ele>375</ele>
        <time>1970-01-01T03:16:04.000Z</time>
      </trkpt>
      <trkpt lat="49.54437" lon="5.71639">
        <ele>375</ele>
        <time>1970-01-01T03:16:05.000Z</time>
      </trkpt>
      <trkpt lat="49.5444" lon="5.71644">
        <ele>374.6</ele>
        <time>1970-01-01T03:16:06.000Z</time>
      </trkpt>
      <trkpt lat="49.54444" lon="5.7165">
        <ele>374.6</ele>
        <time>1970-01-01T03:16:07.000Z</time>
      </trkpt>
      <trkpt lat="49.54448" lon="5.71655">
        <ele>374.6</ele>
        <time>1970-01-01T03:16:08.000Z</time>
      </trkpt>
      <trkpt lat="49.54456" lon="5.71667">
        <ele>374.6</ele>
        <time>1970-01-01T03:16:10.000Z</time>
      </trkpt>
      <trkpt lat="49.54466" lon="5.71684">
        <ele>374.6</ele>
        <time>1970-01-01T03:16:13.000Z</time>
      </trkpt>
      <trkpt lat="49.5447" lon="5.71689">
        <ele>374.6</ele>
        <time>1970-01-01T03:16:14.000Z</time>
      </trkpt>
      <trkpt lat="49.54476" lon="5.71699">
        <ele>374.6</ele>
        <time>1970-01-01T03:16:16.000Z</time>
      </trkpt>
      <trkpt lat="49.5448" lon="5.71703">
        <ele>374.6</ele>
        <time>1970-01-01T03:16:17.000Z</time>
      </trkpt>
      <trkpt lat="49.54484" lon="5.71707">
        <ele>374.6</ele>
        <time>1970-01-01T03:16:18.000Z</time>
      </trkpt>
      <trkpt lat="49.54486" lon="5.7171">
        <ele>374.6</ele>
        <time>1970-01-01T03:16:19.000Z</time>
      </trkpt>
      <trkpt lat="49.54489" lon="5.71713">
        <ele>374.6</ele>
        <time>1970-01-01T03:16:20.000Z</time>
      </trkpt>
      <trkpt lat="49.54491" lon="5.71715">
        <ele>374.6</ele>
        <time>1970-01-01T03:16:21.000Z</time>
      </trkpt>
      <trkpt lat="49.54494" lon="5.71718">
        <ele>374.6</ele>
        <time>1970-01-01T03:16:22.000Z</time>
      </trkpt>
      <trkpt lat="49.545" lon="5.71723">
        <ele>374.8</ele>
        <time>1970-01-01T03:16:24.000Z</time>
      </trkpt>
      <trkpt lat="49.54506" lon="5.71726">
        <ele>375</ele>
        <time>1970-01-01T03:16:26.000Z</time>
      </trkpt>
      <trkpt lat="49.54517" lon="5.71731">
        <ele>375.4</ele>
        <time>1970-01-01T03:16:30.000Z</time>
      </trkpt>
      <trkpt lat="49.5452" lon="5.71733">
        <ele>375.6</ele>
        <time>1970-01-01T03:16:31.000Z</time>
      </trkpt>
      <trkpt lat="49.54523" lon="5.71735">
        <ele>375.8</ele>
        <time>1970-01-01T03:16:32.000Z</time>
      </trkpt>
      <trkpt lat="49.54528" lon="5.71738">
        <ele>376.4</ele>
        <time>1970-01-01T03:16:34.000Z</time>
      </trkpt>
      <trkpt lat="49.54531" lon="5.71738">
        <ele>376.4</ele>
        <time>1970-01-01T03:16:35.000Z</time>
      </trkpt>
      <trkpt lat="49.54533" lon="5.71739">
        <ele>376.4</ele>
        <time>1970-01-01T03:16:36.000Z</time>
      </trkpt>
      <trkpt lat="49.5454" lon="5.71742">
        <ele>376.6</ele>
        <time>1970-01-01T03:16:38.000Z</time>
      </trkpt>
      <trkpt lat="49.54543" lon="5.71744">
        <ele>376.6</ele>
        <time>1970-01-01T03:16:39.000Z</time>
      </trkpt>
      <trkpt lat="49.54547" lon="5.71745">
        <ele>376.6</ele>
        <time>1970-01-01T03:16:40.000Z</time>
      </trkpt>
      <trkpt lat="49.5455" lon="5.71746">
        <ele>376.6</ele>
        <time>1970-01-01T03:16:41.000Z</time>
      </trkpt>
      <trkpt lat="49.54554" lon="5.71748">
        <ele>376.6</ele>
        <time>1970-01-01T03:16:42.000Z</time>
      </trkpt>
      <trkpt lat="49.54558" lon="5.71749">
        <ele>376.6</ele>
        <time>1970-01-01T03:16:43.000Z</time>
      </trkpt>
      <trkpt lat="49.54561" lon="5.71752">
        <ele>376.6</ele>
        <time>1970-01-01T03:16:44.000Z</time>
      </trkpt>
      <trkpt lat="49.54569" lon="5.71761">
        <ele>376.6</ele>
        <time>1970-01-01T03:16:46.000Z</time>
      </trkpt>
      <trkpt lat="49.54571" lon="5.71765">
        <ele>376.6</ele>
        <time>1970-01-01T03:16:47.000Z</time>
      </trkpt>
      <trkpt lat="49.54573" lon="5.71769">
        <ele>376.6</ele>
        <time>1970-01-01T03:16:48.000Z</time>
      </trkpt>
      <trkpt lat="49.54575" lon="5.71774">
        <ele>376.6</ele>
        <time>1970-01-01T03:16:49.000Z</time>
      </trkpt>
      <trkpt lat="49.54575" lon="5.7178">
        <ele>376.6</ele>
        <time>1970-01-01T03:16:50.000Z</time>
      </trkpt>
      <trkpt lat="49.54575" lon="5.71786">
        <ele>376.8</ele>
        <time>1970-01-01T03:16:51.000Z</time>
      </trkpt>
      <trkpt lat="49.54577" lon="5.71791">
        <ele>376.8</ele>
        <time>1970-01-01T03:16:52.000Z</time>
      </trkpt>
      <trkpt lat="49.54577" lon="5.71796">
        <ele>376.8</ele>
        <time>1970-01-01T03:16:53.000Z</time>
      </trkpt>
      <trkpt lat="49.54577" lon="5.718">
        <ele>376.8</ele>
        <time>1970-01-01T03:16:54.000Z</time>
      </trkpt>
      <trkpt lat="49.54578" lon="5.71803">
        <ele>377</ele>
        <time>1970-01-01T03:16:55.000Z</time>
      </trkpt>
      <trkpt lat="49.5458" lon="5.71807">
        <ele>377</ele>
        <time>1970-01-01T03:16:56.000Z</time>
      </trkpt>
      <trkpt lat="49.54581" lon="5.71811">
        <ele>377</ele>
        <time>1970-01-01T03:16:57.000Z</time>
      </trkpt>
      <trkpt lat="49.54582" lon="5.71814">
        <ele>377</ele>
        <time>1970-01-01T03:16:58.000Z</time>
      </trkpt>
      <trkpt lat="49.54582" lon="5.71819">
        <ele>377</ele>
        <time>1970-01-01T03:16:59.000Z</time>
      </trkpt>
      <trkpt lat="49.54583" lon="5.71823">
        <ele>377.2</ele>
        <time>1970-01-01T03:17:00.000Z</time>
      </trkpt>
      <trkpt lat="49.54583" lon="5.71826">
        <ele>377.4</ele>
        <time>1970-01-01T03:17:01.000Z</time>
      </trkpt>
      <trkpt lat="49.54585" lon="5.71831">
        <ele>377.6</ele>
        <time>1970-01-01T03:17:02.000Z</time>
      </trkpt>
      <trkpt lat="49.54586" lon="5.71834">
        <ele>378.2</ele>
        <time>1970-01-01T03:17:03.000Z</time>
      </trkpt>
      <trkpt lat="49.54586" lon="5.71836">
        <ele>378.4</ele>
        <time>1970-01-01T03:17:04.000Z</time>
      </trkpt>
      <trkpt lat="49.54586" lon="5.71839">
        <ele>378.6</ele>
        <time>1970-01-01T03:17:05.000Z</time>
      </trkpt>
      <trkpt lat="49.54585" lon="5.71842">
        <ele>379</ele>
        <time>1970-01-01T03:17:06.000Z</time>
      </trkpt>
      <trkpt lat="49.54586" lon="5.71845">
        <ele>379.2</ele>
        <time>1970-01-01T03:17:07.000Z</time>
      </trkpt>
      <trkpt lat="49.54587" lon="5.71848">
        <ele>379.6</ele>
        <time>1970-01-01T03:17:08.000Z</time>
      </trkpt>
      <trkpt lat="49.54588" lon="5.71851">
        <ele>379.8</ele>
        <time>1970-01-01T03:17:09.000Z</time>
      </trkpt>
      <trkpt lat="49.54589" lon="5.71854">
        <ele>380.2</ele>
        <time>1970-01-01T03:17:10.000Z</time>
      </trkpt>
      <trkpt lat="49.54588" lon="5.71858">
        <ele>380.2</ele>
        <time>1970-01-01T03:17:11.000Z</time>
      </trkpt>
      <trkpt lat="49.54588" lon="5.71861">
        <ele>380.6</ele>
        <time>1970-01-01T03:17:12.000Z</time>
      </trkpt>
      <trkpt lat="49.54588" lon="5.71865">
        <ele>380.6</ele>
        <time>1970-01-01T03:17:13.000Z</time>
      </trkpt>
      <trkpt lat="49.54588" lon="5.7187">
        <ele>381</ele>
        <time>1970-01-01T03:17:14.000Z</time>
      </trkpt>
      <trkpt lat="49.54587" lon="5.71874">
        <ele>381</ele>
        <time>1970-01-01T03:17:15.000Z</time>
      </trkpt>
      <trkpt lat="49.54587" lon="5.71877">
        <ele>381.2</ele>
        <time>1970-01-01T03:17:16.000Z</time>
      </trkpt>
      <trkpt lat="49.54585" lon="5.7188">
        <ele>381.2</ele>
        <time>1970-01-01T03:17:17.000Z</time>
      </trkpt>
      <trkpt lat="49.54584" lon="5.71883">
        <ele>381.4</ele>
        <time>1970-01-01T03:17:18.000Z</time>
      </trkpt>
      <trkpt lat="49.54583" lon="5.71886">
        <ele>381.4</ele>
        <time>1970-01-01T03:17:19.000Z</time>
      </trkpt>
      <trkpt lat="49.54582" lon="5.71889">
        <ele>381.6</ele>
        <time>1970-01-01T03:17:20.000Z</time>
      </trkpt>
      <trkpt lat="49.54581" lon="5.71891">
        <ele>381.8</ele>
        <time>1970-01-01T03:17:21.000Z</time>
      </trkpt>
      <trkpt lat="49.5458" lon="5.71895">
        <ele>381.8</ele>
        <time>1970-01-01T03:17:22.000Z</time>
      </trkpt>
      <trkpt lat="49.54579" lon="5.71898">
        <ele>382</ele>
        <time>1970-01-01T03:17:23.000Z</time>
      </trkpt>
      <trkpt lat="49.54577" lon="5.719">
        <ele>382</ele>
        <time>1970-01-01T03:17:24.000Z</time>
      </trkpt>
      <trkpt lat="49.54576" lon="5.71903">
        <ele>382</ele>
        <time>1970-01-01T03:17:25.000Z</time>
      </trkpt>
      <trkpt lat="49.54574" lon="5.71907">
        <ele>382.2</ele>
        <time>1970-01-01T03:17:26.000Z</time>
      </trkpt>
      <trkpt lat="49.54571" lon="5.7191">
        <ele>382.2</ele>
        <time>1970-01-01T03:17:27.000Z</time>
      </trkpt>
      <trkpt lat="49.54568" lon="5.71913">
        <ele>382.2</ele>
        <time>1970-01-01T03:17:28.000Z</time>
      </trkpt>
      <trkpt lat="49.54567" lon="5.71916">
        <ele>382.2</ele>
        <time>1970-01-01T03:17:29.000Z</time>
      </trkpt>
      <trkpt lat="49.54565" lon="5.71919">
        <ele>382.2</ele>
        <time>1970-01-01T03:17:30.000Z</time>
      </trkpt>
      <trkpt lat="49.54563" lon="5.71921">
        <ele>382.2</ele>
        <time>1970-01-01T03:17:31.000Z</time>
      </trkpt>
      <trkpt lat="49.54561" lon="5.71924">
        <ele>382.2</ele>
        <time>1970-01-01T03:17:32.000Z</time>
      </trkpt>
      <trkpt lat="49.5456" lon="5.71927">
        <ele>382.2</ele>
        <time>1970-01-01T03:17:33.000Z</time>
      </trkpt>
      <trkpt lat="49.54558" lon="5.7193">
        <ele>382.4</ele>
        <time>1970-01-01T03:17:34.000Z</time>
      </trkpt>
      <trkpt lat="49.54556" lon="5.71934">
        <ele>382.6</ele>
        <time>1970-01-01T03:17:35.000Z</time>
      </trkpt>
      <trkpt lat="49.54555" lon="5.71939">
        <ele>382.8</ele>
        <time>1970-01-01T03:17:36.000Z</time>
      </trkpt>
      <trkpt lat="49.54553" lon="5.71942">
        <ele>382.8</ele>
        <time>1970-01-01T03:17:37.000Z</time>
      </trkpt>
      <trkpt lat="49.54551" lon="5.71944">
        <ele>383</ele>
        <time>1970-01-01T03:17:38.000Z</time>
      </trkpt>
      <trkpt lat="49.54548" lon="5.71947">
        <ele>383.2</ele>
        <time>1970-01-01T03:17:39.000Z</time>
      </trkpt>
      <trkpt lat="49.54544" lon="5.71952">
        <ele>383.4</ele>
        <time>1970-01-01T03:17:40.000Z</time>
      </trkpt>
      <trkpt lat="49.54541" lon="5.71956">
        <ele>383.4</ele>
        <time>1970-01-01T03:17:41.000Z</time>
      </trkpt>
      <trkpt lat="49.54538" lon="5.71961">
        <ele>383.6</ele>
        <time>1970-01-01T03:17:42.000Z</time>
      </trkpt>
      <trkpt lat="49.54536" lon="5.71965">
        <ele>383.8</ele>
        <time>1970-01-01T03:17:43.000Z</time>
      </trkpt>
      <trkpt lat="49.54534" lon="5.71971">
        <ele>383.8</ele>
        <time>1970-01-01T03:17:44.000Z</time>
      </trkpt>
      <trkpt lat="49.54531" lon="5.71977">
        <ele>383.8</ele>
        <time>1970-01-01T03:17:45.000Z</time>
      </trkpt>
      <trkpt lat="49.54528" lon="5.71982">
        <ele>384</ele>
        <time>1970-01-01T03:17:46.000Z</time>
      </trkpt>
      <trkpt lat="49.54527" lon="5.71987">
        <ele>384.2</ele>
        <time>1970-01-01T03:17:47.000Z</time>
      </trkpt>
      <trkpt lat="49.54524" lon="5.71992">
        <ele>384.2</ele>
        <time>1970-01-01T03:17:48.000Z</time>
      </trkpt>
      <trkpt lat="49.54523" lon="5.71996">
        <ele>384.2</ele>
        <time>1970-01-01T03:17:49.000Z</time>
      </trkpt>
      <trkpt lat="49.54521" lon="5.72">
        <ele>384.2</ele>
        <time>1970-01-01T03:17:50.000Z</time>
      </trkpt>
      <trkpt lat="49.54519" lon="5.72003">
        <ele>384.2</ele>
        <time>1970-01-01T03:17:51.000Z</time>
      </trkpt>
      <trkpt lat="49.54515" lon="5.72006">
        <ele>384.2</ele>
        <time>1970-01-01T03:17:52.000Z</time>
      </trkpt>
      <trkpt lat="49.54511" lon="5.7201">
        <ele>384.4</ele>
        <time>1970-01-01T03:17:53.000Z</time>
      </trkpt>
      <trkpt lat="49.54508" lon="5.72014">
        <ele>384.4</ele>
        <time>1970-01-01T03:17:54.000Z</time>
      </trkpt>
      <trkpt lat="49.54505" lon="5.72018">
        <ele>384.4</ele>
        <time>1970-01-01T03:17:55.000Z</time>
      </trkpt>
      <trkpt lat="49.54499" lon="5.72024">
        <ele>384.4</ele>
        <time>1970-01-01T03:17:56.000Z</time>
      </trkpt>
      <trkpt lat="49.54497" lon="5.72026">
        <ele>384.4</ele>
        <time>1970-01-01T03:17:57.000Z</time>
      </trkpt>
      <trkpt lat="49.54494" lon="5.72028">
        <ele>384.4</ele>
        <time>1970-01-01T03:17:58.000Z</time>
      </trkpt>
      <trkpt lat="49.54488" lon="5.7203">
        <ele>384.4</ele>
        <time>1970-01-01T03:17:59.000Z</time>
      </trkpt>
      <trkpt lat="49.54483" lon="5.72034">
        <ele>384.4</ele>
        <time>1970-01-01T03:18:00.000Z</time>
      </trkpt>
      <trkpt lat="49.54481" lon="5.7204">
        <ele>384.4</ele>
        <time>1970-01-01T03:18:02.000Z</time>
      </trkpt>
      <trkpt lat="49.5448" lon="5.72043">
        <ele>384.4</ele>
        <time>1970-01-01T03:18:03.000Z</time>
      </trkpt>
      <trkpt lat="49.54478" lon="5.72046">
        <ele>384.6</ele>
        <time>1970-01-01T03:18:04.000Z</time>
      </trkpt>
      <trkpt lat="49.54477" lon="5.72047">
        <ele>384.8</ele>
        <time>1970-01-01T03:18:05.000Z</time>
      </trkpt>
      <trkpt lat="49.54477" lon="5.72047">
        <ele>384.8</ele>
        <time>1970-01-01T03:18:05.000Z</time>
      </trkpt>
      <trkpt lat="49.5447" lon="5.72056">
        <ele>385.2</ele>
        <time>1970-01-01T03:18:07.000Z</time>
      </trkpt>
      <trkpt lat="49.54476" lon="5.72057">
        <ele>386.2</ele>
        <time>1970-01-01T03:18:42.000Z</time>
      </trkpt>
      <trkpt lat="49.54477" lon="5.72058">
        <ele>385.8</ele>
        <time>1970-01-01T03:18:43.000Z</time>
      </trkpt>
      <trkpt lat="49.54478" lon="5.72061">
        <ele>385.8</ele>
        <time>1970-01-01T03:18:44.000Z</time>
      </trkpt>
      <trkpt lat="49.5448" lon="5.72066">
        <ele>385.4</ele>
        <time>1970-01-01T03:18:46.000Z</time>
      </trkpt>
      <trkpt lat="49.54481" lon="5.7207">
        <ele>385.4</ele>
        <time>1970-01-01T03:18:47.000Z</time>
      </trkpt>
      <trkpt lat="49.54483" lon="5.72075">
        <ele>385.4</ele>
        <time>1970-01-01T03:18:48.000Z</time>
      </trkpt>
      <trkpt lat="49.54485" lon="5.72085">
        <ele>385.6</ele>
        <time>1970-01-01T03:18:50.000Z</time>
      </trkpt>
      <trkpt lat="49.54488" lon="5.72096">
        <ele>385.6</ele>
        <time>1970-01-01T03:18:52.000Z</time>
      </trkpt>
      <trkpt lat="49.5449" lon="5.72107">
        <ele>386</ele>
        <time>1970-01-01T03:18:55.000Z</time>
      </trkpt>
      <trkpt lat="49.5449" lon="5.72115">
        <ele>386.2</ele>
        <time>1970-01-01T03:18:57.000Z</time>
      </trkpt>
      <trkpt lat="49.54488" lon="5.72131">
        <ele>386.8</ele>
        <time>1970-01-01T03:19:00.000Z</time>
      </trkpt>
      <trkpt lat="49.54487" lon="5.72138">
        <ele>387</ele>
        <time>1970-01-01T03:19:01.000Z</time>
      </trkpt>
      <trkpt lat="49.54486" lon="5.72143">
        <ele>387.2</ele>
        <time>1970-01-01T03:19:02.000Z</time>
      </trkpt>
      <trkpt lat="49.54484" lon="5.72165">
        <ele>388</ele>
        <time>1970-01-01T03:19:06.000Z</time>
      </trkpt>
      <trkpt lat="49.54484" lon="5.72172">
        <ele>388</ele>
        <time>1970-01-01T03:19:07.000Z</time>
      </trkpt>
      <trkpt lat="49.54482" lon="5.72177">
        <ele>388.2</ele>
        <time>1970-01-01T03:19:08.000Z</time>
      </trkpt>
      <trkpt lat="49.5448" lon="5.72189">
        <ele>388.4</ele>
        <time>1970-01-01T03:19:10.000Z</time>
      </trkpt>
      <trkpt lat="49.5448" lon="5.72189">
        <ele>388.6</ele>
        <time>1970-01-01T03:19:11.000Z</time>
      </trkpt>
      <trkpt lat="49.54479" lon="5.72214">
        <ele>389</ele>
        <time>1970-01-01T03:19:13.000Z</time>
      </trkpt>
      <trkpt lat="49.5448" lon="5.72223">
        <ele>389</ele>
        <time>1970-01-01T03:19:14.000Z</time>
      </trkpt>
      <trkpt lat="49.54481" lon="5.72231">
        <ele>389.2</ele>
        <time>1970-01-01T03:19:15.000Z</time>
      </trkpt>
      <trkpt lat="49.54481" lon="5.72241">
        <ele>389.2</ele>
        <time>1970-01-01T03:19:16.000Z</time>
      </trkpt>
      <trkpt lat="49.54482" lon="5.72248">
        <ele>389.2</ele>
        <time>1970-01-01T03:19:17.000Z</time>
      </trkpt>
      <trkpt lat="49.54483" lon="5.72255">
        <ele>389.4</ele>
        <time>1970-01-01T03:19:18.000Z</time>
      </trkpt>
      <trkpt lat="49.54485" lon="5.72259">
        <ele>389.4</ele>
        <time>1970-01-01T03:19:19.000Z</time>
      </trkpt>
      <trkpt lat="49.54486" lon="5.72265">
        <ele>389.4</ele>
        <time>1970-01-01T03:19:20.000Z</time>
      </trkpt>
      <trkpt lat="49.54485" lon="5.72271">
        <ele>389.4</ele>
        <time>1970-01-01T03:19:21.000Z</time>
      </trkpt>
      <trkpt lat="49.54486" lon="5.72277">
        <ele>389.4</ele>
        <time>1970-01-01T03:19:22.000Z</time>
      </trkpt>
      <trkpt lat="49.54488" lon="5.72285">
        <ele>389.4</ele>
        <time>1970-01-01T03:19:23.000Z</time>
      </trkpt>
      <trkpt lat="49.54487" lon="5.72292">
        <ele>389.4</ele>
        <time>1970-01-01T03:19:24.000Z</time>
      </trkpt>
      <trkpt lat="49.54485" lon="5.72299">
        <ele>389.4</ele>
        <time>1970-01-01T03:19:25.000Z</time>
      </trkpt>
      <trkpt lat="49.54483" lon="5.72304">
        <ele>389.4</ele>
        <time>1970-01-01T03:19:26.000Z</time>
      </trkpt>
      <trkpt lat="49.54478" lon="5.72311">
        <ele>389.2</ele>
        <time>1970-01-01T03:19:27.000Z</time>
      </trkpt>
      <trkpt lat="49.54476" lon="5.72318">
        <ele>389.2</ele>
        <time>1970-01-01T03:19:28.000Z</time>
      </trkpt>
      <trkpt lat="49.54475" lon="5.72326">
        <ele>389.2</ele>
        <time>1970-01-01T03:19:29.000Z</time>
      </trkpt>
      <trkpt lat="49.54474" lon="5.72334">
        <ele>389.2</ele>
        <time>1970-01-01T03:19:30.000Z</time>
      </trkpt>
      <trkpt lat="49.54474" lon="5.72342">
        <ele>389</ele>
        <time>1970-01-01T03:19:31.000Z</time>
      </trkpt>
      <trkpt lat="49.54471" lon="5.72348">
        <ele>389</ele>
        <time>1970-01-01T03:19:32.000Z</time>
      </trkpt>
      <trkpt lat="49.54468" lon="5.72354">
        <ele>388.8</ele>
        <time>1970-01-01T03:19:33.000Z</time>
      </trkpt>
      <trkpt lat="49.54466" lon="5.7236">
        <ele>388.6</ele>
        <time>1970-01-01T03:19:34.000Z</time>
      </trkpt>
      <trkpt lat="49.54465" lon="5.72367">
        <ele>388.6</ele>
        <time>1970-01-01T03:19:35.000Z</time>
      </trkpt>
      <trkpt lat="49.54462" lon="5.72371">
        <ele>388.2</ele>
        <time>1970-01-01T03:19:36.000Z</time>
      </trkpt>
      <trkpt lat="49.54462" lon="5.72374">
        <ele>388.2</ele>
        <time>1970-01-01T03:19:37.000Z</time>
      </trkpt>
      <trkpt lat="49.54462" lon="5.72377">
        <ele>387.8</ele>
        <time>1970-01-01T03:19:38.000Z</time>
      </trkpt>
      <trkpt lat="49.54462" lon="5.72386">
        <ele>387.6</ele>
        <time>1970-01-01T03:19:39.000Z</time>
      </trkpt>
      <trkpt lat="49.54462" lon="5.72401">
        <ele>387.2</ele>
        <time>1970-01-01T03:19:40.000Z</time>
      </trkpt>
      <trkpt lat="49.54464" lon="5.72408">
        <ele>387</ele>
        <time>1970-01-01T03:19:41.000Z</time>
      </trkpt>
      <trkpt lat="49.54466" lon="5.72415">
        <ele>386.8</ele>
        <time>1970-01-01T03:19:42.000Z</time>
      </trkpt>
      <trkpt lat="49.54469" lon="5.72422">
        <ele>386.6</ele>
        <time>1970-01-01T03:19:43.000Z</time>
      </trkpt>
      <trkpt lat="49.54471" lon="5.7243">
        <ele>386.4</ele>
        <time>1970-01-01T03:19:44.000Z</time>
      </trkpt>
      <trkpt lat="49.54472" lon="5.72439">
        <ele>386.2</ele>
        <time>1970-01-01T03:19:45.000Z</time>
      </trkpt>
      <trkpt lat="49.54472" lon="5.7246">
        <ele>385.8</ele>
        <time>1970-01-01T03:19:48.000Z</time>
      </trkpt>
      <trkpt lat="49.54474" lon="5.72465">
        <ele>385.6</ele>
        <time>1970-01-01T03:19:49.000Z</time>
      </trkpt>
      <trkpt lat="49.54475" lon="5.72472">
        <ele>385.4</ele>
        <time>1970-01-01T03:19:50.000Z</time>
      </trkpt>
      <trkpt lat="49.54475" lon="5.72479">
        <ele>385.4</ele>
        <time>1970-01-01T03:19:51.000Z</time>
      </trkpt>
      <trkpt lat="49.54477" lon="5.72507">
        <ele>384.6</ele>
        <time>1970-01-01T03:19:54.000Z</time>
      </trkpt>
      <trkpt lat="49.5448" lon="5.72526">
        <ele>384</ele>
        <time>1970-01-01T03:19:56.000Z</time>
      </trkpt>
      <trkpt lat="49.54483" lon="5.72539">
        <ele>383.6</ele>
        <time>1970-01-01T03:19:58.000Z</time>
      </trkpt>
      <trkpt lat="49.54482" lon="5.72547">
        <ele>383.4</ele>
        <time>1970-01-01T03:19:59.000Z</time>
      </trkpt>
      <trkpt lat="49.54485" lon="5.72562">
        <ele>382.6</ele>
        <time>1970-01-01T03:20:01.000Z</time>
      </trkpt>
      <trkpt lat="49.54486" lon="5.72567">
        <ele>382.4</ele>
        <time>1970-01-01T03:20:02.000Z</time>
      </trkpt>
      <trkpt lat="49.54487" lon="5.72574">
        <ele>382.4</ele>
        <time>1970-01-01T03:20:03.000Z</time>
      </trkpt>
      <trkpt lat="49.54488" lon="5.72588">
        <ele>382.2</ele>
        <time>1970-01-01T03:20:05.000Z</time>
      </trkpt>
      <trkpt lat="49.54489" lon="5.72593">
        <ele>382.2</ele>
        <time>1970-01-01T03:20:06.000Z</time>
      </trkpt>
      <trkpt lat="49.5449" lon="5.726">
        <ele>382</ele>
        <time>1970-01-01T03:20:07.000Z</time>
      </trkpt>
      <trkpt lat="49.5449" lon="5.72606">
        <ele>382</ele>
        <time>1970-01-01T03:20:08.000Z</time>
      </trkpt>
      <trkpt lat="49.5449" lon="5.72612">
        <ele>382</ele>
        <time>1970-01-01T03:20:09.000Z</time>
      </trkpt>
      <trkpt lat="49.5449" lon="5.72617">
        <ele>382</ele>
        <time>1970-01-01T03:20:10.000Z</time>
      </trkpt>
      <trkpt lat="49.5449" lon="5.72623">
        <ele>382</ele>
        <time>1970-01-01T03:20:11.000Z</time>
      </trkpt>
      <trkpt lat="49.54491" lon="5.7263">
        <ele>382</ele>
        <time>1970-01-01T03:20:12.000Z</time>
      </trkpt>
      <trkpt lat="49.54491" lon="5.72634">
        <ele>382</ele>
        <time>1970-01-01T03:20:13.000Z</time>
      </trkpt>
      <trkpt lat="49.54491" lon="5.72639">
        <ele>382</ele>
        <time>1970-01-01T03:20:14.000Z</time>
      </trkpt>
      <trkpt lat="49.54491" lon="5.7266">
        <ele>382.6</ele>
        <time>1970-01-01T03:20:17.000Z</time>
      </trkpt>
      <trkpt lat="49.54491" lon="5.72665">
        <ele>382.6</ele>
        <time>1970-01-01T03:20:18.000Z</time>
      </trkpt>
      <trkpt lat="49.54491" lon="5.72668">
        <ele>382.6</ele>
        <time>1970-01-01T03:20:19.000Z</time>
      </trkpt>
      <trkpt lat="49.5449" lon="5.72672">
        <ele>382.8</ele>
        <time>1970-01-01T03:20:20.000Z</time>
      </trkpt>
      <trkpt lat="49.54488" lon="5.72676">
        <ele>382.8</ele>
        <time>1970-01-01T03:20:21.000Z</time>
      </trkpt>
      <trkpt lat="49.54487" lon="5.72681">
        <ele>383</ele>
        <time>1970-01-01T03:20:22.000Z</time>
      </trkpt>
      <trkpt lat="49.54485" lon="5.72686">
        <ele>383</ele>
        <time>1970-01-01T03:20:23.000Z</time>
      </trkpt>
      <trkpt lat="49.54483" lon="5.72692">
        <ele>383.2</ele>
        <time>1970-01-01T03:20:24.000Z</time>
      </trkpt>
      <trkpt lat="49.5448" lon="5.72698">
        <ele>383.4</ele>
        <time>1970-01-01T03:20:25.000Z</time>
      </trkpt>
      <trkpt lat="49.54477" lon="5.72705">
        <ele>383.4</ele>
        <time>1970-01-01T03:20:26.000Z</time>
      </trkpt>
      <trkpt lat="49.54473" lon="5.72712">
        <ele>383.4</ele>
        <time>1970-01-01T03:20:27.000Z</time>
      </trkpt>
      <trkpt lat="49.54463" lon="5.72726">
        <ele>383.6</ele>
        <time>1970-01-01T03:20:29.000Z</time>
      </trkpt>
      <trkpt lat="49.54458" lon="5.72734">
        <ele>383.6</ele>
        <time>1970-01-01T03:20:30.000Z</time>
      </trkpt>
      <trkpt lat="49.54445" lon="5.72754">
        <ele>383.4</ele>
        <time>1970-01-01T03:20:33.000Z</time>
      </trkpt>
      <trkpt lat="49.54441" lon="5.72762">
        <ele>383.4</ele>
        <time>1970-01-01T03:20:34.000Z</time>
      </trkpt>
      <trkpt lat="49.54438" lon="5.72769">
        <ele>383.2</ele>
        <time>1970-01-01T03:20:35.000Z</time>
      </trkpt>
      <trkpt lat="49.54437" lon="5.72774">
        <ele>383.2</ele>
        <time>1970-01-01T03:20:36.000Z</time>
      </trkpt>
      <trkpt lat="49.54438" lon="5.72778">
        <ele>383.2</ele>
        <time>1970-01-01T03:20:37.000Z</time>
      </trkpt>
      <trkpt lat="49.54439" lon="5.72783">
        <ele>383.2</ele>
        <time>1970-01-01T03:20:38.000Z</time>
      </trkpt>
      <trkpt lat="49.54442" lon="5.72787">
        <ele>383.2</ele>
        <time>1970-01-01T03:20:39.000Z</time>
      </trkpt>
      <trkpt lat="49.54448" lon="5.728">
        <ele>383</ele>
        <time>1970-01-01T03:20:41.000Z</time>
      </trkpt>
      <trkpt lat="49.54449" lon="5.72807">
        <ele>382.8</ele>
        <time>1970-01-01T03:20:42.000Z</time>
      </trkpt>
      <trkpt lat="49.54451" lon="5.72814">
        <ele>382.6</ele>
        <time>1970-01-01T03:20:43.000Z</time>
      </trkpt>
      <trkpt lat="49.54455" lon="5.72822">
        <ele>382.6</ele>
        <time>1970-01-01T03:20:44.000Z</time>
      </trkpt>
      <trkpt lat="49.54458" lon="5.72828">
        <ele>382.4</ele>
        <time>1970-01-01T03:20:45.000Z</time>
      </trkpt>
      <trkpt lat="49.54461" lon="5.72834">
        <ele>382.4</ele>
        <time>1970-01-01T03:20:46.000Z</time>
      </trkpt>
      <trkpt lat="49.54463" lon="5.72839">
        <ele>382.4</ele>
        <time>1970-01-01T03:20:47.000Z</time>
      </trkpt>
      <trkpt lat="49.54465" lon="5.72843">
        <ele>382.4</ele>
        <time>1970-01-01T03:20:48.000Z</time>
      </trkpt>
      <trkpt lat="49.54467" lon="5.72847">
        <ele>382.4</ele>
        <time>1970-01-01T03:20:49.000Z</time>
      </trkpt>
      <trkpt lat="49.5447" lon="5.7285">
        <ele>382.4</ele>
        <time>1970-01-01T03:20:50.000Z</time>
      </trkpt>
      <trkpt lat="49.54472" lon="5.72854">
        <ele>382.4</ele>
        <time>1970-01-01T03:20:51.000Z</time>
      </trkpt>
      <trkpt lat="49.54476" lon="5.72862">
        <ele>383</ele>
        <time>1970-01-01T03:20:53.000Z</time>
      </trkpt>
      <trkpt lat="49.54484" lon="5.72878">
        <ele>383.4</ele>
        <time>1970-01-01T03:20:56.000Z</time>
      </trkpt>
      <trkpt lat="49.54487" lon="5.72882">
        <ele>383.4</ele>
        <time>1970-01-01T03:20:57.000Z</time>
      </trkpt>
      <trkpt lat="49.5449" lon="5.72887">
        <ele>383.6</ele>
        <time>1970-01-01T03:20:58.000Z</time>
      </trkpt>
      <trkpt lat="49.545" lon="5.72917">
        <ele>383.8</ele>
        <time>1970-01-01T03:21:03.000Z</time>
      </trkpt>
      <trkpt lat="49.54503" lon="5.72923">
        <ele>384</ele>
        <time>1970-01-01T03:21:04.000Z</time>
      </trkpt>
      <trkpt lat="49.54505" lon="5.72927">
        <ele>384</ele>
        <time>1970-01-01T03:21:05.000Z</time>
      </trkpt>
      <trkpt lat="49.54506" lon="5.72932">
        <ele>384</ele>
        <time>1970-01-01T03:21:06.000Z</time>
      </trkpt>
      <trkpt lat="49.54509" lon="5.72938">
        <ele>384.2</ele>
        <time>1970-01-01T03:21:07.000Z</time>
      </trkpt>
      <trkpt lat="49.54511" lon="5.72945">
        <ele>384.2</ele>
        <time>1970-01-01T03:21:08.000Z</time>
      </trkpt>
      <trkpt lat="49.54513" lon="5.72952">
        <ele>384.2</ele>
        <time>1970-01-01T03:21:09.000Z</time>
      </trkpt>
      <trkpt lat="49.54519" lon="5.72976">
        <ele>384.4</ele>
        <time>1970-01-01T03:21:13.000Z</time>
      </trkpt>
      <trkpt lat="49.54519" lon="5.72984">
        <ele>384.4</ele>
        <time>1970-01-01T03:21:14.000Z</time>
      </trkpt>
      <trkpt lat="49.54517" lon="5.72995">
        <ele>384.4</ele>
        <time>1970-01-01T03:21:15.000Z</time>
      </trkpt>
      <trkpt lat="49.54516" lon="5.73002">
        <ele>384.4</ele>
        <time>1970-01-01T03:21:16.000Z</time>
      </trkpt>
      <trkpt lat="49.54518" lon="5.73011">
        <ele>384.4</ele>
        <time>1970-01-01T03:21:17.000Z</time>
      </trkpt>
      <trkpt lat="49.54521" lon="5.73027">
        <ele>384.4</ele>
        <time>1970-01-01T03:21:19.000Z</time>
      </trkpt>
      <trkpt lat="49.54522" lon="5.73035">
        <ele>384.4</ele>
        <time>1970-01-01T03:21:20.000Z</time>
      </trkpt>
      <trkpt lat="49.54524" lon="5.73042">
        <ele>384.6</ele>
        <time>1970-01-01T03:21:21.000Z</time>
      </trkpt>
      <trkpt lat="49.54525" lon="5.73048">
        <ele>384.6</ele>
        <time>1970-01-01T03:21:22.000Z</time>
      </trkpt>
      <trkpt lat="49.54525" lon="5.73055">
        <ele>384.4</ele>
        <time>1970-01-01T03:21:23.000Z</time>
      </trkpt>
      <trkpt lat="49.54526" lon="5.73061">
        <ele>384.6</ele>
        <time>1970-01-01T03:21:24.000Z</time>
      </trkpt>
      <trkpt lat="49.54525" lon="5.73066">
        <ele>384.6</ele>
        <time>1970-01-01T03:21:25.000Z</time>
      </trkpt>
      <trkpt lat="49.54527" lon="5.73073">
        <ele>384.6</ele>
        <time>1970-01-01T03:21:26.000Z</time>
      </trkpt>
      <trkpt lat="49.54529" lon="5.73079">
        <ele>384.8</ele>
        <time>1970-01-01T03:21:27.000Z</time>
      </trkpt>
      <trkpt lat="49.5453" lon="5.73084">
        <ele>384.4</ele>
        <time>1970-01-01T03:21:28.000Z</time>
      </trkpt>
      <trkpt lat="49.54532" lon="5.73091">
        <ele>384.4</ele>
        <time>1970-01-01T03:21:29.000Z</time>
      </trkpt>
      <trkpt lat="49.54534" lon="5.73098">
        <ele>384.4</ele>
        <time>1970-01-01T03:21:30.000Z</time>
      </trkpt>
      <trkpt lat="49.54539" lon="5.73109">
        <ele>384.4</ele>
        <time>1970-01-01T03:21:32.000Z</time>
      </trkpt>
      <trkpt lat="49.54542" lon="5.73114">
        <ele>384.4</ele>
        <time>1970-01-01T03:21:33.000Z</time>
      </trkpt>
      <trkpt lat="49.54544" lon="5.7312">
        <ele>384.4</ele>
        <time>1970-01-01T03:21:34.000Z</time>
      </trkpt>
      <trkpt lat="49.54545" lon="5.73126">
        <ele>384.4</ele>
        <time>1970-01-01T03:21:35.000Z</time>
      </trkpt>
      <trkpt lat="49.54544" lon="5.73133">
        <ele>384.2</ele>
        <time>1970-01-01T03:21:36.000Z</time>
      </trkpt>
      <trkpt lat="49.54544" lon="5.73147">
        <ele>384.4</ele>
        <time>1970-01-01T03:21:38.000Z</time>
      </trkpt>
      <trkpt lat="49.54545" lon="5.73153">
        <ele>384.4</ele>
        <time>1970-01-01T03:21:39.000Z</time>
      </trkpt>
      <trkpt lat="49.54546" lon="5.7316">
        <ele>384.4</ele>
        <time>1970-01-01T03:21:40.000Z</time>
      </trkpt>
      <trkpt lat="49.54548" lon="5.73166">
        <ele>384.4</ele>
        <time>1970-01-01T03:21:41.000Z</time>
      </trkpt>
      <trkpt lat="49.54549" lon="5.73171">
        <ele>384.4</ele>
        <time>1970-01-01T03:21:42.000Z</time>
      </trkpt>
      <trkpt lat="49.5455" lon="5.73179">
        <ele>384.4</ele>
        <time>1970-01-01T03:21:43.000Z</time>
      </trkpt>
      <trkpt lat="49.54552" lon="5.73186">
        <ele>384.4</ele>
        <time>1970-01-01T03:21:44.000Z</time>
      </trkpt>
      <trkpt lat="49.54552" lon="5.73191">
        <ele>384.4</ele>
        <time>1970-01-01T03:21:45.000Z</time>
      </trkpt>
      <trkpt lat="49.54553" lon="5.73198">
        <ele>384.6</ele>
        <time>1970-01-01T03:21:46.000Z</time>
      </trkpt>
      <trkpt lat="49.54554" lon="5.73204">
        <ele>384.6</ele>
        <time>1970-01-01T03:21:47.000Z</time>
      </trkpt>
      <trkpt lat="49.54556" lon="5.7321">
        <ele>384.6</ele>
        <time>1970-01-01T03:21:48.000Z</time>
      </trkpt>
      <trkpt lat="49.54558" lon="5.73214">
        <ele>384.6</ele>
        <time>1970-01-01T03:21:49.000Z</time>
      </trkpt>
      <trkpt lat="49.54561" lon="5.73218">
        <ele>384.6</ele>
        <time>1970-01-01T03:21:50.000Z</time>
      </trkpt>
      <trkpt lat="49.54562" lon="5.73221">
        <ele>384.6</ele>
        <time>1970-01-01T03:21:51.000Z</time>
      </trkpt>
      <trkpt lat="49.54563" lon="5.73223">
        <ele>384.4</ele>
        <time>1970-01-01T03:21:52.000Z</time>
      </trkpt>
      <trkpt lat="49.54568" lon="5.7323">
        <ele>384.2</ele>
        <time>1970-01-01T03:21:54.000Z</time>
      </trkpt>
      <trkpt lat="49.5457" lon="5.73233">
        <ele>384.2</ele>
        <time>1970-01-01T03:21:55.000Z</time>
      </trkpt>
      <trkpt lat="49.54579" lon="5.73242">
        <ele>384.4</ele>
        <time>1970-01-01T03:21:59.000Z</time>
      </trkpt>
      <trkpt lat="49.54585" lon="5.73245">
        <ele>384.4</ele>
        <time>1970-01-01T03:22:01.000Z</time>
      </trkpt>
      <trkpt lat="49.54588" lon="5.73247">
        <ele>384.4</ele>
        <time>1970-01-01T03:22:02.000Z</time>
      </trkpt>
      <trkpt lat="49.54592" lon="5.7325">
        <ele>384.6</ele>
        <time>1970-01-01T03:22:03.000Z</time>
      </trkpt>
      <trkpt lat="49.54594" lon="5.73252">
        <ele>385</ele>
        <time>1970-01-01T03:22:04.000Z</time>
      </trkpt>
      <trkpt lat="49.54597" lon="5.73255">
        <ele>385</ele>
        <time>1970-01-01T03:22:05.000Z</time>
      </trkpt>
      <trkpt lat="49.54602" lon="5.73258">
        <ele>385.4</ele>
        <time>1970-01-01T03:22:07.000Z</time>
      </trkpt>
      <trkpt lat="49.54608" lon="5.73262">
        <ele>385.8</ele>
        <time>1970-01-01T03:22:09.000Z</time>
      </trkpt>
      <trkpt lat="49.5462" lon="5.73267">
        <ele>386.2</ele>
        <time>1970-01-01T03:22:12.000Z</time>
      </trkpt>
      <trkpt lat="49.54625" lon="5.7327">
        <ele>386.4</ele>
        <time>1970-01-01T03:22:13.000Z</time>
      </trkpt>
      <trkpt lat="49.54632" lon="5.73276">
        <ele>387</ele>
        <time>1970-01-01T03:22:15.000Z</time>
      </trkpt>
      <trkpt lat="49.54634" lon="5.7328">
        <ele>387</ele>
        <time>1970-01-01T03:22:16.000Z</time>
      </trkpt>
      <trkpt lat="49.54636" lon="5.73284">
        <ele>387.2</ele>
        <time>1970-01-01T03:22:17.000Z</time>
      </trkpt>
      <trkpt lat="49.54641" lon="5.73292">
        <ele>387.4</ele>
        <time>1970-01-01T03:22:19.000Z</time>
      </trkpt>
      <trkpt lat="49.54641" lon="5.73295">
        <ele>387.6</ele>
        <time>1970-01-01T03:22:20.000Z</time>
      </trkpt>
      <trkpt lat="49.54641" lon="5.73297">
        <ele>387.8</ele>
        <time>1970-01-01T03:22:21.000Z</time>
      </trkpt>
      <trkpt lat="49.54641" lon="5.733">
        <ele>387.8</ele>
        <time>1970-01-01T03:22:22.000Z</time>
      </trkpt>
      <trkpt lat="49.5464" lon="5.73303">
        <ele>387.8</ele>
        <time>1970-01-01T03:22:23.000Z</time>
      </trkpt>
      <trkpt lat="49.54638" lon="5.73305">
        <ele>388</ele>
        <time>1970-01-01T03:22:24.000Z</time>
      </trkpt>
      <trkpt lat="49.54635" lon="5.73309">
        <ele>388</ele>
        <time>1970-01-01T03:22:25.000Z</time>
      </trkpt>
      <trkpt lat="49.54632" lon="5.73311">
        <ele>388</ele>
        <time>1970-01-01T03:22:26.000Z</time>
      </trkpt>
      <trkpt lat="49.54628" lon="5.73313">
        <ele>388</ele>
        <time>1970-01-01T03:22:27.000Z</time>
      </trkpt>
      <trkpt lat="49.54625" lon="5.73314">
        <ele>388</ele>
        <time>1970-01-01T03:22:28.000Z</time>
      </trkpt>
      <trkpt lat="49.54621" lon="5.73316">
        <ele>387.8</ele>
        <time>1970-01-01T03:22:29.000Z</time>
      </trkpt>
      <trkpt lat="49.54618" lon="5.73317">
        <ele>387.8</ele>
        <time>1970-01-01T03:22:30.000Z</time>
      </trkpt>
      <trkpt lat="49.54615" lon="5.73319">
        <ele>387.6</ele>
        <time>1970-01-01T03:22:31.000Z</time>
      </trkpt>
      <trkpt lat="49.54612" lon="5.73321">
        <ele>387.4</ele>
        <time>1970-01-01T03:22:32.000Z</time>
      </trkpt>
      <trkpt lat="49.5461" lon="5.73324">
        <ele>387</ele>
        <time>1970-01-01T03:22:33.000Z</time>
      </trkpt>
      <trkpt lat="49.54609" lon="5.73327">
        <ele>386.8</ele>
        <time>1970-01-01T03:22:34.000Z</time>
      </trkpt>
      <trkpt lat="49.54609" lon="5.73331">
        <ele>386.4</ele>
        <time>1970-01-01T03:22:35.000Z</time>
      </trkpt>
      <trkpt lat="49.54607" lon="5.73336">
        <ele>386.2</ele>
        <time>1970-01-01T03:22:36.000Z</time>
      </trkpt>
      <trkpt lat="49.54605" lon="5.73342">
        <ele>386</ele>
        <time>1970-01-01T03:22:37.000Z</time>
      </trkpt>
      <trkpt lat="49.54605" lon="5.73348">
        <ele>386</ele>
        <time>1970-01-01T03:22:38.000Z</time>
      </trkpt>
      <trkpt lat="49.54603" lon="5.73363">
        <ele>385.8</ele>
        <time>1970-01-01T03:22:41.000Z</time>
      </trkpt>
      <trkpt lat="49.54602" lon="5.73368">
        <ele>385.6</ele>
        <time>1970-01-01T03:22:42.000Z</time>
      </trkpt>
      <trkpt lat="49.546" lon="5.73372">
        <ele>385.6</ele>
        <time>1970-01-01T03:22:43.000Z</time>
      </trkpt>
      <trkpt lat="49.54598" lon="5.73383">
        <ele>385.6</ele>
        <time>1970-01-01T03:22:45.000Z</time>
      </trkpt>
      <trkpt lat="49.54597" lon="5.73391">
        <ele>385.4</ele>
        <time>1970-01-01T03:22:46.000Z</time>
      </trkpt>
      <trkpt lat="49.54595" lon="5.73396">
        <ele>385.2</ele>
        <time>1970-01-01T03:22:47.000Z</time>
      </trkpt>
      <trkpt lat="49.54594" lon="5.734">
        <ele>385.2</ele>
        <time>1970-01-01T03:22:48.000Z</time>
      </trkpt>
      <trkpt lat="49.54593" lon="5.73406">
        <ele>385.2</ele>
        <time>1970-01-01T03:22:49.000Z</time>
      </trkpt>
      <trkpt lat="49.54592" lon="5.73409">
        <ele>385</ele>
        <time>1970-01-01T03:22:50.000Z</time>
      </trkpt>
      <trkpt lat="49.5459" lon="5.73411">
        <ele>384.8</ele>
        <time>1970-01-01T03:22:51.000Z</time>
      </trkpt>
      <trkpt lat="49.54589" lon="5.73411">
        <ele>384.6</ele>
        <time>1970-01-01T03:22:52.000Z</time>
      </trkpt>
      <trkpt lat="49.5459" lon="5.73412">
        <ele>383.6</ele>
        <time>1970-01-01T03:23:01.000Z</time>
      </trkpt>
      <trkpt lat="49.5459" lon="5.73413">
        <ele>383.6</ele>
        <time>1970-01-01T03:23:02.000Z</time>
      </trkpt>
      <trkpt lat="49.54591" lon="5.73412">
        <ele>383.6</ele>
        <time>1970-01-01T03:23:03.000Z</time>
      </trkpt>
      <trkpt lat="49.54591" lon="5.73412">
        <ele>383.6</ele>
        <time>1970-01-01T03:23:04.000Z</time>
      </trkpt>
      <trkpt lat="49.54591" lon="5.73412">
        <ele>383.8</ele>
        <time>1970-01-01T03:23:11.000Z</time>
      </trkpt>
      <trkpt lat="49.54591" lon="5.73415">
        <ele>383.8</ele>
        <time>1970-01-01T03:23:13.000Z</time>
      </trkpt>
      <trkpt lat="49.54591" lon="5.73416">
        <ele>383.8</ele>
        <time>1970-01-01T03:23:14.000Z</time>
      </trkpt>
      <trkpt lat="49.54591" lon="5.73416">
        <ele>383.8</ele>
        <time>1970-01-01T03:23:17.000Z</time>
      </trkpt>
      <trkpt lat="49.54591" lon="5.73416">
        <ele>383.8</ele>
        <time>1970-01-01T03:23:18.000Z</time>
      </trkpt>
      <trkpt lat="49.5459" lon="5.73421">
        <ele>383.6</ele>
        <time>1970-01-01T03:23:20.000Z</time>
      </trkpt>
      <trkpt lat="49.54587" lon="5.7343">
        <ele>383.6</ele>
        <time>1970-01-01T03:23:22.000Z</time>
      </trkpt>
      <trkpt lat="49.54586" lon="5.73434">
        <ele>383.4</ele>
        <time>1970-01-01T03:23:23.000Z</time>
      </trkpt>
      <trkpt lat="49.54586" lon="5.73438">
        <ele>383.4</ele>
        <time>1970-01-01T03:23:24.000Z</time>
      </trkpt>
      <trkpt lat="49.54585" lon="5.73441">
        <ele>383.2</ele>
        <time>1970-01-01T03:23:25.000Z</time>
      </trkpt>
      <trkpt lat="49.54583" lon="5.73445">
        <ele>382.8</ele>
        <time>1970-01-01T03:23:26.000Z</time>
      </trkpt>
      <trkpt lat="49.54577" lon="5.73459">
        <ele>382.4</ele>
        <time>1970-01-01T03:23:29.000Z</time>
      </trkpt>
      <trkpt lat="49.54574" lon="5.73473">
        <ele>382</ele>
        <time>1970-01-01T03:23:32.000Z</time>
      </trkpt>
      <trkpt lat="49.54572" lon="5.73477">
        <ele>382</ele>
        <time>1970-01-01T03:23:33.000Z</time>
      </trkpt>
      <trkpt lat="49.5457" lon="5.73482">
        <ele>381.8</ele>
        <time>1970-01-01T03:23:34.000Z</time>
      </trkpt>
      <trkpt lat="49.54568" lon="5.73485">
        <ele>381.8</ele>
        <time>1970-01-01T03:23:35.000Z</time>
      </trkpt>
      <trkpt lat="49.54568" lon="5.73485">
        <ele>381.6</ele>
        <time>1970-01-01T03:23:36.000Z</time>
      </trkpt>
      <trkpt lat="49.54565" lon="5.73489">
        <ele>381</ele>
        <time>1970-01-01T03:23:44.000Z</time>
      </trkpt>
      <trkpt lat="49.54565" lon="5.73487">
        <ele>381</ele>
        <time>1970-01-01T03:23:45.000Z</time>
      </trkpt>
      <trkpt lat="49.54561" lon="5.73479">
        <ele>380.8</ele>
        <time>1970-01-01T03:23:49.000Z</time>
      </trkpt>
      <trkpt lat="49.54559" lon="5.73476">
        <ele>380.8</ele>
        <time>1970-01-01T03:23:50.000Z</time>
      </trkpt>
      <trkpt lat="49.54557" lon="5.73475">
        <ele>380.8</ele>
        <time>1970-01-01T03:23:51.000Z</time>
      </trkpt>
      <trkpt lat="49.54556" lon="5.73473">
        <ele>380.8</ele>
        <time>1970-01-01T03:23:52.000Z</time>
      </trkpt>
      <trkpt lat="49.54556" lon="5.73471">
        <ele>380.6</ele>
        <time>1970-01-01T03:23:53.000Z</time>
      </trkpt>
      <trkpt lat="49.54553" lon="5.73466">
        <ele>379.8</ele>
        <time>1970-01-01T03:23:55.000Z</time>
      </trkpt>
      <trkpt lat="49.54551" lon="5.73462">
        <ele>379.8</ele>
        <time>1970-01-01T03:23:56.000Z</time>
      </trkpt>
      <trkpt lat="49.54549" lon="5.73458">
        <ele>379.6</ele>
        <time>1970-01-01T03:23:57.000Z</time>
      </trkpt>
      <trkpt lat="49.54546" lon="5.73454">
        <ele>379.2</ele>
        <time>1970-01-01T03:23:58.000Z</time>
      </trkpt>
      <trkpt lat="49.54536" lon="5.73432">
        <ele>378.6</ele>
        <time>1970-01-01T03:24:02.000Z</time>
      </trkpt>
      <trkpt lat="49.54534" lon="5.73423">
        <ele>378.6</ele>
        <time>1970-01-01T03:24:03.000Z</time>
      </trkpt>
      <trkpt lat="49.5453" lon="5.73414">
        <ele>378.2</ele>
        <time>1970-01-01T03:24:04.000Z</time>
      </trkpt>
      <trkpt lat="49.54522" lon="5.73396">
        <ele>377.2</ele>
        <time>1970-01-01T03:24:06.000Z</time>
      </trkpt>
      <trkpt lat="49.54516" lon="5.73386">
        <ele>376.8</ele>
        <time>1970-01-01T03:24:07.000Z</time>
      </trkpt>
      <trkpt lat="49.54502" lon="5.73364">
        <ele>375.4</ele>
        <time>1970-01-01T03:24:09.000Z</time>
      </trkpt>
      <trkpt lat="49.54496" lon="5.73356">
        <ele>375</ele>
        <time>1970-01-01T03:24:10.000Z</time>
      </trkpt>
      <trkpt lat="49.54491" lon="5.73351">
        <ele>374.2</ele>
        <time>1970-01-01T03:24:11.000Z</time>
      </trkpt>
      <trkpt lat="49.54484" lon="5.73344">
        <ele>374</ele>
        <time>1970-01-01T03:24:12.000Z</time>
      </trkpt>
      <trkpt lat="49.54478" lon="5.73338">
        <ele>371.8</ele>
        <time>1970-01-01T03:24:13.000Z</time>
      </trkpt>
      <trkpt lat="49.54465" lon="5.73319">
        <ele>369.4</ele>
        <time>1970-01-01T03:24:15.000Z</time>
      </trkpt>
      <trkpt lat="49.54454" lon="5.73306">
        <ele>368.2</ele>
        <time>1970-01-01T03:24:17.000Z</time>
      </trkpt>
      <trkpt lat="49.54448" lon="5.73298">
        <ele>366.8</ele>
        <time>1970-01-01T03:24:18.000Z</time>
      </trkpt>
      <trkpt lat="49.54442" lon="5.73292">
        <ele>366.2</ele>
        <time>1970-01-01T03:24:19.000Z</time>
      </trkpt>
      <trkpt lat="49.54436" lon="5.73285">
        <ele>364.8</ele>
        <time>1970-01-01T03:24:20.000Z</time>
      </trkpt>
      <trkpt lat="49.54431" lon="5.73278">
        <ele>363.8</ele>
        <time>1970-01-01T03:24:21.000Z</time>
      </trkpt>
      <trkpt lat="49.54425" lon="5.73267">
        <ele>362.6</ele>
        <time>1970-01-01T03:24:22.000Z</time>
      </trkpt>
      <trkpt lat="49.54421" lon="5.7326">
        <ele>361.8</ele>
        <time>1970-01-01T03:24:23.000Z</time>
      </trkpt>
      <trkpt lat="49.54419" lon="5.73254">
        <ele>361.2</ele>
        <time>1970-01-01T03:24:24.000Z</time>
      </trkpt>
      <trkpt lat="49.54417" lon="5.73249">
        <ele>359.6</ele>
        <time>1970-01-01T03:24:25.000Z</time>
      </trkpt>
      <trkpt lat="49.54417" lon="5.73243">
        <ele>359</ele>
        <time>1970-01-01T03:24:26.000Z</time>
      </trkpt>
      <trkpt lat="49.54415" lon="5.73233">
        <ele>358</ele>
        <time>1970-01-01T03:24:27.000Z</time>
      </trkpt>
      <trkpt lat="49.54412" lon="5.73221">
        <ele>357.6</ele>
        <time>1970-01-01T03:24:28.000Z</time>
      </trkpt>
      <trkpt lat="49.54409" lon="5.73207">
        <ele>357</ele>
        <time>1970-01-01T03:24:29.000Z</time>
      </trkpt>
      <trkpt lat="49.54405" lon="5.73194">
        <ele>356.6</ele>
        <time>1970-01-01T03:24:30.000Z</time>
      </trkpt>
      <trkpt lat="49.54402" lon="5.73182">
        <ele>356.2</ele>
        <time>1970-01-01T03:24:31.000Z</time>
      </trkpt>
      <trkpt lat="49.544" lon="5.7317">
        <ele>354.6</ele>
        <time>1970-01-01T03:24:32.000Z</time>
      </trkpt>
      <trkpt lat="49.54394" lon="5.73147">
        <ele>352.8</ele>
        <time>1970-01-01T03:24:34.000Z</time>
      </trkpt>
      <trkpt lat="49.54388" lon="5.73124">
        <ele>351.6</ele>
        <time>1970-01-01T03:24:36.000Z</time>
      </trkpt>
      <trkpt lat="49.54385" lon="5.73114">
        <ele>351.2</ele>
        <time>1970-01-01T03:24:37.000Z</time>
      </trkpt>
      <trkpt lat="49.54383" lon="5.73104">
        <ele>350.4</ele>
        <time>1970-01-01T03:24:38.000Z</time>
      </trkpt>
      <trkpt lat="49.54381" lon="5.73095">
        <ele>350.2</ele>
        <time>1970-01-01T03:24:39.000Z</time>
      </trkpt>
      <trkpt lat="49.54378" lon="5.73085">
        <ele>349.4</ele>
        <time>1970-01-01T03:24:40.000Z</time>
      </trkpt>
      <trkpt lat="49.54375" lon="5.73075">
        <ele>348.2</ele>
        <time>1970-01-01T03:24:41.000Z</time>
      </trkpt>
      <trkpt lat="49.54372" lon="5.73064">
        <ele>347.6</ele>
        <time>1970-01-01T03:24:42.000Z</time>
      </trkpt>
      <trkpt lat="49.54367" lon="5.73055">
        <ele>346.8</ele>
        <time>1970-01-01T03:24:43.000Z</time>
      </trkpt>
      <trkpt lat="49.54364" lon="5.73046">
        <ele>346.6</ele>
        <time>1970-01-01T03:24:44.000Z</time>
      </trkpt>
      <trkpt lat="49.54362" lon="5.73037">
        <ele>346.2</ele>
        <time>1970-01-01T03:24:45.000Z</time>
      </trkpt>
      <trkpt lat="49.5436" lon="5.7303">
        <ele>345.8</ele>
        <time>1970-01-01T03:24:46.000Z</time>
      </trkpt>
      <trkpt lat="49.54351" lon="5.73014">
        <ele>344.6</ele>
        <time>1970-01-01T03:24:48.000Z</time>
      </trkpt>
      <trkpt lat="49.54347" lon="5.73006">
        <ele>344.4</ele>
        <time>1970-01-01T03:24:49.000Z</time>
      </trkpt>
      <trkpt lat="49.54343" lon="5.72998">
        <ele>344.2</ele>
        <time>1970-01-01T03:24:50.000Z</time>
      </trkpt>
      <trkpt lat="49.5434" lon="5.7299">
        <ele>343.8</ele>
        <time>1970-01-01T03:24:51.000Z</time>
      </trkpt>
      <trkpt lat="49.54336" lon="5.72983">
        <ele>342.6</ele>
        <time>1970-01-01T03:24:52.000Z</time>
      </trkpt>
      <trkpt lat="49.5433" lon="5.72968">
        <ele>341.6</ele>
        <time>1970-01-01T03:24:54.000Z</time>
      </trkpt>
      <trkpt lat="49.54327" lon="5.72961">
        <ele>341.4</ele>
        <time>1970-01-01T03:24:55.000Z</time>
      </trkpt>
      <trkpt lat="49.5432" lon="5.72947">
        <ele>340.4</ele>
        <time>1970-01-01T03:24:57.000Z</time>
      </trkpt>
      <trkpt lat="49.54312" lon="5.72934">
        <ele>339.8</ele>
        <time>1970-01-01T03:24:59.000Z</time>
      </trkpt>
      <trkpt lat="49.54309" lon="5.72927">
        <ele>339.2</ele>
        <time>1970-01-01T03:25:00.000Z</time>
      </trkpt>
      <trkpt lat="49.54305" lon="5.72921">
        <ele>338.8</ele>
        <time>1970-01-01T03:25:01.000Z</time>
      </trkpt>
      <trkpt lat="49.54303" lon="5.72915">
        <ele>338.6</ele>
        <time>1970-01-01T03:25:02.000Z</time>
      </trkpt>
      <trkpt lat="49.543" lon="5.72908">
        <ele>337.6</ele>
        <time>1970-01-01T03:25:03.000Z</time>
      </trkpt>
      <trkpt lat="49.54297" lon="5.72902">
        <ele>337</ele>
        <time>1970-01-01T03:25:04.000Z</time>
      </trkpt>
      <trkpt lat="49.54295" lon="5.72895">
        <ele>336.8</ele>
        <time>1970-01-01T03:25:05.000Z</time>
      </trkpt>
      <trkpt lat="49.54292" lon="5.72888">
        <ele>336.4</ele>
        <time>1970-01-01T03:25:06.000Z</time>
      </trkpt>
      <trkpt lat="49.54287" lon="5.72873">
        <ele>335.6</ele>
        <time>1970-01-01T03:25:08.000Z</time>
      </trkpt>
      <trkpt lat="49.54284" lon="5.72865">
        <ele>335.4</ele>
        <time>1970-01-01T03:25:09.000Z</time>
      </trkpt>
      <trkpt lat="49.54282" lon="5.72857">
        <ele>335</ele>
        <time>1970-01-01T03:25:10.000Z</time>
      </trkpt>
      <trkpt lat="49.54281" lon="5.7285">
        <ele>334.8</ele>
        <time>1970-01-01T03:25:11.000Z</time>
      </trkpt>
      <trkpt lat="49.54278" lon="5.72843">
        <ele>334.6</ele>
        <time>1970-01-01T03:25:12.000Z</time>
      </trkpt>
      <trkpt lat="49.54274" lon="5.72829">
        <ele>334.4</ele>
        <time>1970-01-01T03:25:14.000Z</time>
      </trkpt>
      <trkpt lat="49.54271" lon="5.72822">
        <ele>334.2</ele>
        <time>1970-01-01T03:25:15.000Z</time>
      </trkpt>
      <trkpt lat="49.54265" lon="5.72809">
        <ele>333.6</ele>
        <time>1970-01-01T03:25:17.000Z</time>
      </trkpt>
      <trkpt lat="49.5426" lon="5.72796">
        <ele>332.8</ele>
        <time>1970-01-01T03:25:19.000Z</time>
      </trkpt>
      <trkpt lat="49.54255" lon="5.72784">
        <ele>332.4</ele>
        <time>1970-01-01T03:25:21.000Z</time>
      </trkpt>
      <trkpt lat="49.54252" lon="5.72776">
        <ele>332.2</ele>
        <time>1970-01-01T03:25:22.000Z</time>
      </trkpt>
      <trkpt lat="49.5424" lon="5.72751">
        <ele>331.8</ele>
        <time>1970-01-01T03:25:26.000Z</time>
      </trkpt>
      <trkpt lat="49.54237" lon="5.72746">
        <ele>331.8</ele>
        <time>1970-01-01T03:25:27.000Z</time>
      </trkpt>
      <trkpt lat="49.54234" lon="5.7274">
        <ele>331.6</ele>
        <time>1970-01-01T03:25:28.000Z</time>
      </trkpt>
      <trkpt lat="49.54226" lon="5.72725">
        <ele>331.2</ele>
        <time>1970-01-01T03:25:30.000Z</time>
      </trkpt>
      <trkpt lat="49.54225" lon="5.7272">
        <ele>331</ele>
        <time>1970-01-01T03:25:31.000Z</time>
      </trkpt>
      <trkpt lat="49.54223" lon="5.72716">
        <ele>331</ele>
        <time>1970-01-01T03:25:32.000Z</time>
      </trkpt>
      <trkpt lat="49.54221" lon="5.72712">
        <ele>330.4</ele>
        <time>1970-01-01T03:25:33.000Z</time>
      </trkpt>
      <trkpt lat="49.54219" lon="5.72708">
        <ele>330.4</ele>
        <time>1970-01-01T03:25:34.000Z</time>
      </trkpt>
      <trkpt lat="49.54216" lon="5.72703">
        <ele>330.2</ele>
        <time>1970-01-01T03:25:35.000Z</time>
      </trkpt>
      <trkpt lat="49.54209" lon="5.72687">
        <ele>330.2</ele>
        <time>1970-01-01T03:25:38.000Z</time>
      </trkpt>
      <trkpt lat="49.54207" lon="5.7268">
        <ele>330.2</ele>
        <time>1970-01-01T03:25:39.000Z</time>
      </trkpt>
      <trkpt lat="49.54205" lon="5.72673">
        <ele>330</ele>
        <time>1970-01-01T03:25:40.000Z</time>
      </trkpt>
      <trkpt lat="49.54203" lon="5.72667">
        <ele>330</ele>
        <time>1970-01-01T03:25:41.000Z</time>
      </trkpt>
      <trkpt lat="49.542" lon="5.72662">
        <ele>330</ele>
        <time>1970-01-01T03:25:42.000Z</time>
      </trkpt>
      <trkpt lat="49.54199" lon="5.72659">
        <ele>330</ele>
        <time>1970-01-01T03:25:43.000Z</time>
      </trkpt>
      <trkpt lat="49.54198" lon="5.72657">
        <ele>330</ele>
        <time>1970-01-01T03:25:44.000Z</time>
      </trkpt>
      <trkpt lat="49.54197" lon="5.72656">
        <ele>329.8</ele>
        <time>1970-01-01T03:25:45.000Z</time>
      </trkpt>
      <trkpt lat="49.54196" lon="5.72654">
        <ele>329.8</ele>
        <time>1970-01-01T03:25:46.000Z</time>
      </trkpt>
      <trkpt lat="49.54197" lon="5.72652">
        <ele>329.8</ele>
        <time>1970-01-01T03:25:47.000Z</time>
      </trkpt>
      <trkpt lat="49.54197" lon="5.7265">
        <ele>329.6</ele>
        <time>1970-01-01T03:25:48.000Z</time>
      </trkpt>
      <trkpt lat="49.54198" lon="5.72647">
        <ele>329.6</ele>
        <time>1970-01-01T03:25:49.000Z</time>
      </trkpt>
      <trkpt lat="49.54196" lon="5.72642">
        <ele>329.6</ele>
        <time>1970-01-01T03:25:51.000Z</time>
      </trkpt>
      <trkpt lat="49.54194" lon="5.72639">
        <ele>329.6</ele>
        <time>1970-01-01T03:25:52.000Z</time>
      </trkpt>
      <trkpt lat="49.54188" lon="5.72625">
        <ele>329.4</ele>
        <time>1970-01-01T03:25:56.000Z</time>
      </trkpt>
      <trkpt lat="49.54186" lon="5.72621">
        <ele>329.2</ele>
        <time>1970-01-01T03:25:57.000Z</time>
      </trkpt>
      <trkpt lat="49.54184" lon="5.72617">
        <ele>329.2</ele>
        <time>1970-01-01T03:25:58.000Z</time>
      </trkpt>
      <trkpt lat="49.54169" lon="5.72591">
        <ele>328.6</ele>
        <time>1970-01-01T03:26:03.000Z</time>
      </trkpt>
      <trkpt lat="49.54149" lon="5.72551">
        <ele>328.4</ele>
        <time>1970-01-01T03:26:08.000Z</time>
      </trkpt>
      <trkpt lat="49.54141" lon="5.72538">
        <ele>327.8</ele>
        <time>1970-01-01T03:26:10.000Z</time>
      </trkpt>
      <trkpt lat="49.54133" lon="5.72523">
        <ele>327.4</ele>
        <time>1970-01-01T03:26:12.000Z</time>
      </trkpt>
      <trkpt lat="49.54129" lon="5.72515">
        <ele>327.4</ele>
        <time>1970-01-01T03:26:13.000Z</time>
      </trkpt>
      <trkpt lat="49.54124" lon="5.72508">
        <ele>327.2</ele>
        <time>1970-01-01T03:26:14.000Z</time>
      </trkpt>
      <trkpt lat="49.54119" lon="5.725">
        <ele>327.2</ele>
        <time>1970-01-01T03:26:15.000Z</time>
      </trkpt>
      <trkpt lat="49.54115" lon="5.72492">
        <ele>327</ele>
        <time>1970-01-01T03:26:16.000Z</time>
      </trkpt>
      <trkpt lat="49.5411" lon="5.72484">
        <ele>326.6</ele>
        <time>1970-01-01T03:26:17.000Z</time>
      </trkpt>
      <trkpt lat="49.54106" lon="5.72477">
        <ele>325.8</ele>
        <time>1970-01-01T03:26:18.000Z</time>
      </trkpt>
      <trkpt lat="49.54102" lon="5.72471">
        <ele>325</ele>
        <time>1970-01-01T03:26:19.000Z</time>
      </trkpt>
      <trkpt lat="49.54092" lon="5.7246">
        <ele>324.6</ele>
        <time>1970-01-01T03:26:21.000Z</time>
      </trkpt>
      <trkpt lat="49.54083" lon="5.72448">
        <ele>324.2</ele>
        <time>1970-01-01T03:26:23.000Z</time>
      </trkpt>
      <trkpt lat="49.54079" lon="5.72443">
        <ele>324.2</ele>
        <time>1970-01-01T03:26:24.000Z</time>
      </trkpt>
      <trkpt lat="49.54074" lon="5.72438">
        <ele>324</ele>
        <time>1970-01-01T03:26:25.000Z</time>
      </trkpt>
      <trkpt lat="49.54061" lon="5.72422">
        <ele>323.4</ele>
        <time>1970-01-01T03:26:28.000Z</time>
      </trkpt>
      <trkpt lat="49.54056" lon="5.72416">
        <ele>323</ele>
        <time>1970-01-01T03:26:29.000Z</time>
      </trkpt>
      <trkpt lat="49.54052" lon="5.72411">
        <ele>322.8</ele>
        <time>1970-01-01T03:26:30.000Z</time>
      </trkpt>
      <trkpt lat="49.54047" lon="5.72406">
        <ele>322.6</ele>
        <time>1970-01-01T03:26:31.000Z</time>
      </trkpt>
      <trkpt lat="49.54042" lon="5.72401">
        <ele>322.4</ele>
        <time>1970-01-01T03:26:32.000Z</time>
      </trkpt>
      <trkpt lat="49.54038" lon="5.72397">
        <ele>322.4</ele>
        <time>1970-01-01T03:26:33.000Z</time>
      </trkpt>
      <trkpt lat="49.54034" lon="5.72394">
        <ele>322.4</ele>
        <time>1970-01-01T03:26:34.000Z</time>
      </trkpt>
      <trkpt lat="49.5403" lon="5.7239">
        <ele>322.2</ele>
        <time>1970-01-01T03:26:35.000Z</time>
      </trkpt>
      <trkpt lat="49.54018" lon="5.72378">
        <ele>321.8</ele>
        <time>1970-01-01T03:26:38.000Z</time>
      </trkpt>
      <trkpt lat="49.54014" lon="5.72373">
        <ele>321.6</ele>
        <time>1970-01-01T03:26:39.000Z</time>
      </trkpt>
      <trkpt lat="49.53997" lon="5.72355">
        <ele>321</ele>
        <time>1970-01-01T03:26:43.000Z</time>
      </trkpt>
      <trkpt lat="49.53993" lon="5.72351">
        <ele>321</ele>
        <time>1970-01-01T03:26:44.000Z</time>
      </trkpt>
      <trkpt lat="49.53989" lon="5.72346">
        <ele>321</ele>
        <time>1970-01-01T03:26:45.000Z</time>
      </trkpt>
      <trkpt lat="49.53986" lon="5.72342">
        <ele>321.4</ele>
        <time>1970-01-01T03:26:46.000Z</time>
      </trkpt>
      <trkpt lat="49.53982" lon="5.72338">
        <ele>321.4</ele>
        <time>1970-01-01T03:26:47.000Z</time>
      </trkpt>
      <trkpt lat="49.53979" lon="5.72334">
        <ele>321.4</ele>
        <time>1970-01-01T03:26:48.000Z</time>
      </trkpt>
      <trkpt lat="49.53975" lon="5.72329">
        <ele>321.4</ele>
        <time>1970-01-01T03:26:49.000Z</time>
      </trkpt>
      <trkpt lat="49.53972" lon="5.72323">
        <ele>321.6</ele>
        <time>1970-01-01T03:26:50.000Z</time>
      </trkpt>
      <trkpt lat="49.53968" lon="5.72318">
        <ele>321.6</ele>
        <time>1970-01-01T03:26:51.000Z</time>
      </trkpt>
      <trkpt lat="49.53961" lon="5.72307">
        <ele>321.6</ele>
        <time>1970-01-01T03:26:53.000Z</time>
      </trkpt>
      <trkpt lat="49.53958" lon="5.72303">
        <ele>321.6</ele>
        <time>1970-01-01T03:26:54.000Z</time>
      </trkpt>
      <trkpt lat="49.53955" lon="5.723">
        <ele>321.6</ele>
        <time>1970-01-01T03:26:55.000Z</time>
      </trkpt>
      <trkpt lat="49.53952" lon="5.72297">
        <ele>321.6</ele>
        <time>1970-01-01T03:26:56.000Z</time>
      </trkpt>
      <trkpt lat="49.53949" lon="5.72293">
        <ele>321.6</ele>
        <time>1970-01-01T03:26:57.000Z</time>
      </trkpt>
      <trkpt lat="49.53946" lon="5.7229">
        <ele>321.4</ele>
        <time>1970-01-01T03:26:58.000Z</time>
      </trkpt>
      <trkpt lat="49.53943" lon="5.72288">
        <ele>321.4</ele>
        <time>1970-01-01T03:26:59.000Z</time>
      </trkpt>
      <trkpt lat="49.53941" lon="5.72286">
        <ele>321.6</ele>
        <time>1970-01-01T03:27:00.000Z</time>
      </trkpt>
      <trkpt lat="49.53938" lon="5.72284">
        <ele>321.6</ele>
        <time>1970-01-01T03:27:01.000Z</time>
      </trkpt>
      <trkpt lat="49.53935" lon="5.72282">
        <ele>321.8</ele>
        <time>1970-01-01T03:27:02.000Z</time>
      </trkpt>
      <trkpt lat="49.53933" lon="5.7228">
        <ele>321.8</ele>
        <time>1970-01-01T03:27:03.000Z</time>
      </trkpt>
      <trkpt lat="49.5393" lon="5.72276">
        <ele>322.4</ele>
        <time>1970-01-01T03:27:04.000Z</time>
      </trkpt>
      <trkpt lat="49.53927" lon="5.7227">
        <ele>322.6</ele>
        <time>1970-01-01T03:27:06.000Z</time>
      </trkpt>
      <trkpt lat="49.53923" lon="5.72257">
        <ele>322.8</ele>
        <time>1970-01-01T03:27:08.000Z</time>
      </trkpt>
      <trkpt lat="49.53918" lon="5.72246">
        <ele>323</ele>
        <time>1970-01-01T03:27:10.000Z</time>
      </trkpt>
      <trkpt lat="49.53911" lon="5.72222">
        <ele>322.8</ele>
        <time>1970-01-01T03:27:14.000Z</time>
      </trkpt>
      <trkpt lat="49.53909" lon="5.72217">
        <ele>322.8</ele>
        <time>1970-01-01T03:27:15.000Z</time>
      </trkpt>
      <trkpt lat="49.53904" lon="5.72208">
        <ele>322.8</ele>
        <time>1970-01-01T03:27:17.000Z</time>
      </trkpt>
      <trkpt lat="49.53901" lon="5.72204">
        <ele>322.8</ele>
        <time>1970-01-01T03:27:18.000Z</time>
      </trkpt>
      <trkpt lat="49.539" lon="5.72201">
        <ele>322.8</ele>
        <time>1970-01-01T03:27:19.000Z</time>
      </trkpt>
      <trkpt lat="49.53897" lon="5.72197">
        <ele>322.6</ele>
        <time>1970-01-01T03:27:20.000Z</time>
      </trkpt>
      <trkpt lat="49.53895" lon="5.72193">
        <ele>322.6</ele>
        <time>1970-01-01T03:27:21.000Z</time>
      </trkpt>
      <trkpt lat="49.53893" lon="5.72188">
        <ele>322.6</ele>
        <time>1970-01-01T03:27:22.000Z</time>
      </trkpt>
      <trkpt lat="49.5389" lon="5.72184">
        <ele>322.6</ele>
        <time>1970-01-01T03:27:23.000Z</time>
      </trkpt>
      <trkpt lat="49.53887" lon="5.7218">
        <ele>322.6</ele>
        <time>1970-01-01T03:27:24.000Z</time>
      </trkpt>
      <trkpt lat="49.53882" lon="5.72173">
        <ele>322.8</ele>
        <time>1970-01-01T03:27:26.000Z</time>
      </trkpt>
      <trkpt lat="49.53874" lon="5.72163">
        <ele>323</ele>
        <time>1970-01-01T03:27:29.000Z</time>
      </trkpt>
      <trkpt lat="49.53871" lon="5.72159">
        <ele>323</ele>
        <time>1970-01-01T03:27:30.000Z</time>
      </trkpt>
      <trkpt lat="49.53868" lon="5.72156">
        <ele>323</ele>
        <time>1970-01-01T03:27:31.000Z</time>
      </trkpt>
      <trkpt lat="49.53859" lon="5.72146">
        <ele>323</ele>
        <time>1970-01-01T03:27:34.000Z</time>
      </trkpt>
      <trkpt lat="49.53847" lon="5.72132">
        <ele>323</ele>
        <time>1970-01-01T03:27:37.000Z</time>
      </trkpt>
      <trkpt lat="49.53837" lon="5.72122">
        <ele>323</ele>
        <time>1970-01-01T03:27:39.000Z</time>
      </trkpt>
      <trkpt lat="49.53832" lon="5.72118">
        <ele>323.2</ele>
        <time>1970-01-01T03:27:40.000Z</time>
      </trkpt>
      <trkpt lat="49.5381" lon="5.72101">
        <ele>323.2</ele>
        <time>1970-01-01T03:27:44.000Z</time>
      </trkpt>
      <trkpt lat="49.53792" lon="5.72089">
        <ele>323</ele>
        <time>1970-01-01T03:27:47.000Z</time>
      </trkpt>
      <trkpt lat="49.53781" lon="5.72082">
        <ele>322.6</ele>
        <time>1970-01-01T03:27:49.000Z</time>
      </trkpt>
      <trkpt lat="49.53776" lon="5.7208">
        <ele>322.6</ele>
        <time>1970-01-01T03:27:50.000Z</time>
      </trkpt>
      <trkpt lat="49.5377" lon="5.72078">
        <ele>322.6</ele>
        <time>1970-01-01T03:27:51.000Z</time>
      </trkpt>
      <trkpt lat="49.53748" lon="5.7207">
        <ele>321.6</ele>
        <time>1970-01-01T03:27:55.000Z</time>
      </trkpt>
      <trkpt lat="49.53725" lon="5.72058">
        <ele>320.8</ele>
        <time>1970-01-01T03:27:59.000Z</time>
      </trkpt>
      <trkpt lat="49.5372" lon="5.72054">
        <ele>320.4</ele>
        <time>1970-01-01T03:28:00.000Z</time>
      </trkpt>
      <trkpt lat="49.53714" lon="5.7205">
        <ele>320</ele>
        <time>1970-01-01T03:28:01.000Z</time>
      </trkpt>
      <trkpt lat="49.53708" lon="5.72046">
        <ele>319.8</ele>
        <time>1970-01-01T03:28:02.000Z</time>
      </trkpt>
      <trkpt lat="49.53698" lon="5.72038">
        <ele>319.4</ele>
        <time>1970-01-01T03:28:04.000Z</time>
      </trkpt>
      <trkpt lat="49.53682" lon="5.72025">
        <ele>318</ele>
        <time>1970-01-01T03:28:07.000Z</time>
      </trkpt>
      <trkpt lat="49.53665" lon="5.72011">
        <ele>317</ele>
        <time>1970-01-01T03:28:10.000Z</time>
      </trkpt>
      <trkpt lat="49.53655" lon="5.72002">
        <ele>316.4</ele>
        <time>1970-01-01T03:28:12.000Z</time>
      </trkpt>
      <trkpt lat="49.53644" lon="5.71992">
        <ele>315.8</ele>
        <time>1970-01-01T03:28:14.000Z</time>
      </trkpt>
      <trkpt lat="49.53608" lon="5.71955">
        <ele>314.8</ele>
        <time>1970-01-01T03:28:21.000Z</time>
      </trkpt>
      <trkpt lat="49.53591" lon="5.71936">
        <ele>313.8</ele>
        <time>1970-01-01T03:28:24.000Z</time>
      </trkpt>
      <trkpt lat="49.5358" lon="5.71924">
        <ele>312.6</ele>
        <time>1970-01-01T03:28:26.000Z</time>
      </trkpt>
      <trkpt lat="49.53575" lon="5.71918">
        <ele>312.2</ele>
        <time>1970-01-01T03:28:27.000Z</time>
      </trkpt>
      <trkpt lat="49.53569" lon="5.71913">
        <ele>311.8</ele>
        <time>1970-01-01T03:28:28.000Z</time>
      </trkpt>
      <trkpt lat="49.53547" lon="5.71898">
        <ele>311</ele>
        <time>1970-01-01T03:28:31.000Z</time>
      </trkpt>
      <trkpt lat="49.53532" lon="5.71889">
        <ele>310.4</ele>
        <time>1970-01-01T03:28:33.000Z</time>
      </trkpt>
      <trkpt lat="49.53524" lon="5.71885">
        <ele>310</ele>
        <time>1970-01-01T03:28:34.000Z</time>
      </trkpt>
      <trkpt lat="49.53516" lon="5.7188">
        <ele>309.4</ele>
        <time>1970-01-01T03:28:35.000Z</time>
      </trkpt>
      <trkpt lat="49.53509" lon="5.71876">
        <ele>308.8</ele>
        <time>1970-01-01T03:28:36.000Z</time>
      </trkpt>
      <trkpt lat="49.53501" lon="5.71872">
        <ele>308</ele>
        <time>1970-01-01T03:28:37.000Z</time>
      </trkpt>
      <trkpt lat="49.53495" lon="5.71867">
        <ele>307.6</ele>
        <time>1970-01-01T03:28:38.000Z</time>
      </trkpt>
      <trkpt lat="49.53488" lon="5.71862">
        <ele>307.4</ele>
        <time>1970-01-01T03:28:39.000Z</time>
      </trkpt>
      <trkpt lat="49.53482" lon="5.71858">
        <ele>306.8</ele>
        <time>1970-01-01T03:28:40.000Z</time>
      </trkpt>
      <trkpt lat="49.53477" lon="5.71853">
        <ele>306.4</ele>
        <time>1970-01-01T03:28:41.000Z</time>
      </trkpt>
      <trkpt lat="49.53472" lon="5.71849">
        <ele>305.6</ele>
        <time>1970-01-01T03:28:42.000Z</time>
      </trkpt>
      <trkpt lat="49.53467" lon="5.71845">
        <ele>305.4</ele>
        <time>1970-01-01T03:28:43.000Z</time>
      </trkpt>
      <trkpt lat="49.53463" lon="5.7184">
        <ele>305</ele>
        <time>1970-01-01T03:28:44.000Z</time>
      </trkpt>
      <trkpt lat="49.53459" lon="5.71836">
        <ele>304.8</ele>
        <time>1970-01-01T03:28:45.000Z</time>
      </trkpt>
      <trkpt lat="49.53456" lon="5.71832">
        <ele>304.6</ele>
        <time>1970-01-01T03:28:46.000Z</time>
      </trkpt>
      <trkpt lat="49.53452" lon="5.71828">
        <ele>304.6</ele>
        <time>1970-01-01T03:28:47.000Z</time>
      </trkpt>
      <trkpt lat="49.53448" lon="5.71825">
        <ele>304.6</ele>
        <time>1970-01-01T03:28:48.000Z</time>
      </trkpt>
      <trkpt lat="49.53445" lon="5.71822">
        <ele>304.4</ele>
        <time>1970-01-01T03:28:49.000Z</time>
      </trkpt>
      <trkpt lat="49.53442" lon="5.71819">
        <ele>304.4</ele>
        <time>1970-01-01T03:28:50.000Z</time>
      </trkpt>
      <trkpt lat="49.53439" lon="5.71815">
        <ele>304.4</ele>
        <time>1970-01-01T03:28:51.000Z</time>
      </trkpt>
      <trkpt lat="49.53436" lon="5.71812">
        <ele>304.4</ele>
        <time>1970-01-01T03:28:52.000Z</time>
      </trkpt>
      <trkpt lat="49.53433" lon="5.71809">
        <ele>304.4</ele>
        <time>1970-01-01T03:28:53.000Z</time>
      </trkpt>
      <trkpt lat="49.53427" lon="5.71802">
        <ele>304.8</ele>
        <time>1970-01-01T03:28:55.000Z</time>
      </trkpt>
      <trkpt lat="49.53424" lon="5.71799">
        <ele>305</ele>
        <time>1970-01-01T03:28:56.000Z</time>
      </trkpt>
      <trkpt lat="49.53416" lon="5.71789">
        <ele>305</ele>
        <time>1970-01-01T03:28:59.000Z</time>
      </trkpt>
      <trkpt lat="49.53413" lon="5.71786">
        <ele>305.2</ele>
        <time>1970-01-01T03:29:00.000Z</time>
      </trkpt>
      <trkpt lat="49.53411" lon="5.71783">
        <ele>305.2</ele>
        <time>1970-01-01T03:29:01.000Z</time>
      </trkpt>
      <trkpt lat="49.53406" lon="5.71777">
        <ele>305.2</ele>
        <time>1970-01-01T03:29:03.000Z</time>
      </trkpt>
      <trkpt lat="49.53397" lon="5.71769">
        <ele>305.2</ele>
        <time>1970-01-01T03:29:06.000Z</time>
      </trkpt>
      <trkpt lat="49.53388" lon="5.7176">
        <ele>305.2</ele>
        <time>1970-01-01T03:29:09.000Z</time>
      </trkpt>
      <trkpt lat="49.53386" lon="5.71757">
        <ele>305</ele>
        <time>1970-01-01T03:29:10.000Z</time>
      </trkpt>
      <trkpt lat="49.53385" lon="5.71756">
        <ele>304.8</ele>
        <time>1970-01-01T03:29:11.000Z</time>
      </trkpt>
      <trkpt lat="49.53385" lon="5.71757">
        <ele>303.8</ele>
        <time>1970-01-01T03:33:19.000Z</time>
      </trkpt>
      <trkpt lat="49.53371" lon="5.71745">
        <ele>303.2</ele>
        <time>1970-01-01T03:33:24.000Z</time>
      </trkpt>
      <trkpt lat="49.53359" lon="5.71737">
        <ele>302.8</ele>
        <time>1970-01-01T03:33:27.000Z</time>
      </trkpt>
      <trkpt lat="49.53355" lon="5.71735">
        <ele>302.6</ele>
        <time>1970-01-01T03:33:28.000Z</time>
      </trkpt>
      <trkpt lat="49.53352" lon="5.71734">
        <ele>302.4</ele>
        <time>1970-01-01T03:33:29.000Z</time>
      </trkpt>
      <trkpt lat="49.5335" lon="5.71732">
        <ele>302.2</ele>
        <time>1970-01-01T03:33:30.000Z</time>
      </trkpt>
      <trkpt lat="49.53347" lon="5.71731">
        <ele>301.8</ele>
        <time>1970-01-01T03:33:31.000Z</time>
      </trkpt>
      <trkpt lat="49.53345" lon="5.7173">
        <ele>301.6</ele>
        <time>1970-01-01T03:33:32.000Z</time>
      </trkpt>
      <trkpt lat="49.53342" lon="5.71729">
        <ele>301</ele>
        <time>1970-01-01T03:33:33.000Z</time>
      </trkpt>
      <trkpt lat="49.53337" lon="5.71727">
        <ele>300.2</ele>
        <time>1970-01-01T03:33:35.000Z</time>
      </trkpt>
      <trkpt lat="49.53334" lon="5.71728">
        <ele>299.4</ele>
        <time>1970-01-01T03:33:36.000Z</time>
      </trkpt>
      <trkpt lat="49.53332" lon="5.7173">
        <ele>299.2</ele>
        <time>1970-01-01T03:33:37.000Z</time>
      </trkpt>
      <trkpt lat="49.53331" lon="5.71733">
        <ele>298.8</ele>
        <time>1970-01-01T03:33:38.000Z</time>
      </trkpt>
      <trkpt lat="49.53331" lon="5.71736">
        <ele>298.6</ele>
        <time>1970-01-01T03:33:39.000Z</time>
      </trkpt>
      <trkpt lat="49.53331" lon="5.71738">
        <ele>298.2</ele>
        <time>1970-01-01T03:33:40.000Z</time>
      </trkpt>
      <trkpt lat="49.53332" lon="5.71741">
        <ele>298</ele>
        <time>1970-01-01T03:33:41.000Z</time>
      </trkpt>
      <trkpt lat="49.53332" lon="5.71744">
        <ele>298</ele>
        <time>1970-01-01T03:33:42.000Z</time>
      </trkpt>
      <trkpt lat="49.53332" lon="5.7175">
        <ele>297.8</ele>
        <time>1970-01-01T03:33:44.000Z</time>
      </trkpt>
      <trkpt lat="49.53332" lon="5.71753">
        <ele>297.8</ele>
        <time>1970-01-01T03:33:45.000Z</time>
      </trkpt>
      <trkpt lat="49.53332" lon="5.71756">
        <ele>297.8</ele>
        <time>1970-01-01T03:33:46.000Z</time>
      </trkpt>
      <trkpt lat="49.53331" lon="5.71758">
        <ele>297.8</ele>
        <time>1970-01-01T03:33:47.000Z</time>
      </trkpt>
      <trkpt lat="49.53331" lon="5.7176">
        <ele>297.8</ele>
        <time>1970-01-01T03:33:48.000Z</time>
      </trkpt>
      <trkpt lat="49.5333" lon="5.71761">
        <ele>297.8</ele>
        <time>1970-01-01T03:33:49.000Z</time>
      </trkpt>
      <trkpt lat="49.5333" lon="5.71763">
        <ele>298</ele>
        <time>1970-01-01T03:33:50.000Z</time>
      </trkpt>
      <trkpt lat="49.5333" lon="5.71767">
        <ele>298.4</ele>
        <time>1970-01-01T03:33:52.000Z</time>
      </trkpt>
      <trkpt lat="49.5333" lon="5.7177">
        <ele>298.6</ele>
        <time>1970-01-01T03:33:53.000Z</time>
      </trkpt>
      <trkpt lat="49.53331" lon="5.71772">
        <ele>298.8</ele>
        <time>1970-01-01T03:33:54.000Z</time>
      </trkpt>
      <trkpt lat="49.53331" lon="5.71775">
        <ele>299</ele>
        <time>1970-01-01T03:33:55.000Z</time>
      </trkpt>
      <trkpt lat="49.53332" lon="5.71784">
        <ele>299.6</ele>
        <time>1970-01-01T03:33:58.000Z</time>
      </trkpt>
      <trkpt lat="49.53333" lon="5.71796">
        <ele>300</ele>
        <time>1970-01-01T03:34:01.000Z</time>
      </trkpt>
      <trkpt lat="49.53333" lon="5.718">
        <ele>300.2</ele>
        <time>1970-01-01T03:34:02.000Z</time>
      </trkpt>
      <trkpt lat="49.53333" lon="5.71804">
        <ele>300.4</ele>
        <time>1970-01-01T03:34:03.000Z</time>
      </trkpt>
      <trkpt lat="49.53334" lon="5.71817">
        <ele>300.6</ele>
        <time>1970-01-01T03:34:06.000Z</time>
      </trkpt>
      <trkpt lat="49.53335" lon="5.71821">
        <ele>300.8</ele>
        <time>1970-01-01T03:34:07.000Z</time>
      </trkpt>
      <trkpt lat="49.53336" lon="5.71824">
        <ele>301</ele>
        <time>1970-01-01T03:34:08.000Z</time>
      </trkpt>
      <trkpt lat="49.53336" lon="5.71827">
        <ele>301</ele>
        <time>1970-01-01T03:34:09.000Z</time>
      </trkpt>
      <trkpt lat="49.53336" lon="5.71836">
        <ele>301.4</ele>
        <time>1970-01-01T03:34:11.000Z</time>
      </trkpt>
      <trkpt lat="49.53335" lon="5.71841">
        <ele>301.4</ele>
        <time>1970-01-01T03:34:12.000Z</time>
      </trkpt>
      <trkpt lat="49.53335" lon="5.71846">
        <ele>301.4</ele>
        <time>1970-01-01T03:34:13.000Z</time>
      </trkpt>
      <trkpt lat="49.53336" lon="5.71851">
        <ele>301.6</ele>
        <time>1970-01-01T03:34:14.000Z</time>
      </trkpt>
      <trkpt lat="49.53336" lon="5.7186">
        <ele>301.6</ele>
        <time>1970-01-01T03:34:16.000Z</time>
      </trkpt>
      <trkpt lat="49.53339" lon="5.71869">
        <ele>301.8</ele>
        <time>1970-01-01T03:34:18.000Z</time>
      </trkpt>
      <trkpt lat="49.53339" lon="5.71872">
        <ele>301.8</ele>
        <time>1970-01-01T03:34:19.000Z</time>
      </trkpt>
      <trkpt lat="49.5334" lon="5.71882">
        <ele>302</ele>
        <time>1970-01-01T03:34:21.000Z</time>
      </trkpt>
      <trkpt lat="49.53342" lon="5.71895">
        <ele>302.8</ele>
        <time>1970-01-01T03:34:24.000Z</time>
      </trkpt>
      <trkpt lat="49.53344" lon="5.71899">
        <ele>303.2</ele>
        <time>1970-01-01T03:34:25.000Z</time>
      </trkpt>
      <trkpt lat="49.53345" lon="5.71903">
        <ele>303.6</ele>
        <time>1970-01-01T03:34:26.000Z</time>
      </trkpt>
      <trkpt lat="49.53347" lon="5.71907">
        <ele>303.6</ele>
        <time>1970-01-01T03:34:27.000Z</time>
      </trkpt>
      <trkpt lat="49.53346" lon="5.71912">
        <ele>303.8</ele>
        <time>1970-01-01T03:34:28.000Z</time>
      </trkpt>
      <trkpt lat="49.53347" lon="5.71915">
        <ele>303.8</ele>
        <time>1970-01-01T03:34:29.000Z</time>
      </trkpt>
      <trkpt lat="49.53345" lon="5.71921">
        <ele>304.2</ele>
        <time>1970-01-01T03:34:30.000Z</time>
      </trkpt>
      <trkpt lat="49.53345" lon="5.71924">
        <ele>304.2</ele>
        <time>1970-01-01T03:34:31.000Z</time>
      </trkpt>
      <trkpt lat="49.53344" lon="5.71929">
        <ele>304.6</ele>
        <time>1970-01-01T03:34:32.000Z</time>
      </trkpt>
      <trkpt lat="49.53343" lon="5.71933">
        <ele>304.8</ele>
        <time>1970-01-01T03:34:33.000Z</time>
      </trkpt>
      <trkpt lat="49.53341" lon="5.71939">
        <ele>304.8</ele>
        <time>1970-01-01T03:34:34.000Z</time>
      </trkpt>
      <trkpt lat="49.5334" lon="5.71946">
        <ele>305</ele>
        <time>1970-01-01T03:34:35.000Z</time>
      </trkpt>
      <trkpt lat="49.53337" lon="5.71954">
        <ele>305</ele>
        <time>1970-01-01T03:34:36.000Z</time>
      </trkpt>
      <trkpt lat="49.53332" lon="5.71961">
        <ele>305.2</ele>
        <time>1970-01-01T03:34:37.000Z</time>
      </trkpt>
      <trkpt lat="49.53334" lon="5.71969">
        <ele>305.2</ele>
        <time>1970-01-01T03:34:38.000Z</time>
      </trkpt>
      <trkpt lat="49.53336" lon="5.71975">
        <ele>305.2</ele>
        <time>1970-01-01T03:34:39.000Z</time>
      </trkpt>
      <trkpt lat="49.53338" lon="5.71981">
        <ele>305.2</ele>
        <time>1970-01-01T03:34:40.000Z</time>
      </trkpt>
      <trkpt lat="49.5334" lon="5.71987">
        <ele>305.2</ele>
        <time>1970-01-01T03:34:41.000Z</time>
      </trkpt>
      <trkpt lat="49.5334" lon="5.71994">
        <ele>305.2</ele>
        <time>1970-01-01T03:34:42.000Z</time>
      </trkpt>
      <trkpt lat="49.53341" lon="5.72002">
        <ele>305.2</ele>
        <time>1970-01-01T03:34:43.000Z</time>
      </trkpt>
      <trkpt lat="49.5334" lon="5.7201">
        <ele>305.4</ele>
        <time>1970-01-01T03:34:44.000Z</time>
      </trkpt>
      <trkpt lat="49.53341" lon="5.72017">
        <ele>305.4</ele>
        <time>1970-01-01T03:34:45.000Z</time>
      </trkpt>
      <trkpt lat="49.53342" lon="5.72025">
        <ele>305.4</ele>
        <time>1970-01-01T03:34:46.000Z</time>
      </trkpt>
      <trkpt lat="49.53344" lon="5.7203">
        <ele>305.2</ele>
        <time>1970-01-01T03:34:47.000Z</time>
      </trkpt>
      <trkpt lat="49.53345" lon="5.72035">
        <ele>305</ele>
        <time>1970-01-01T03:34:48.000Z</time>
      </trkpt>
      <trkpt lat="49.53346" lon="5.72039">
        <ele>305</ele>
        <time>1970-01-01T03:34:49.000Z</time>
      </trkpt>
      <trkpt lat="49.53349" lon="5.72044">
        <ele>305.2</ele>
        <time>1970-01-01T03:34:50.000Z</time>
      </trkpt>
      <trkpt lat="49.53349" lon="5.7205">
        <ele>305</ele>
        <time>1970-01-01T03:34:51.000Z</time>
      </trkpt>
      <trkpt lat="49.53348" lon="5.72056">
        <ele>304.8</ele>
        <time>1970-01-01T03:34:52.000Z</time>
      </trkpt>
      <trkpt lat="49.53349" lon="5.72061">
        <ele>304.8</ele>
        <time>1970-01-01T03:34:53.000Z</time>
      </trkpt>
      <trkpt lat="49.5335" lon="5.72067">
        <ele>304.8</ele>
        <time>1970-01-01T03:34:54.000Z</time>
      </trkpt>
      <trkpt lat="49.53352" lon="5.72076">
        <ele>304.8</ele>
        <time>1970-01-01T03:34:56.000Z</time>
      </trkpt>
      <trkpt lat="49.53354" lon="5.7208">
        <ele>305</ele>
        <time>1970-01-01T03:34:57.000Z</time>
      </trkpt>
      <trkpt lat="49.53356" lon="5.72085">
        <ele>305</ele>
        <time>1970-01-01T03:34:58.000Z</time>
      </trkpt>
      <trkpt lat="49.53358" lon="5.7209">
        <ele>305</ele>
        <time>1970-01-01T03:34:59.000Z</time>
      </trkpt>
      <trkpt lat="49.5336" lon="5.72096">
        <ele>305.2</ele>
        <time>1970-01-01T03:35:00.000Z</time>
      </trkpt>
      <trkpt lat="49.53362" lon="5.72102">
        <ele>305.2</ele>
        <time>1970-01-01T03:35:01.000Z</time>
      </trkpt>
      <trkpt lat="49.53365" lon="5.72107">
        <ele>305.4</ele>
        <time>1970-01-01T03:35:02.000Z</time>
      </trkpt>
      <trkpt lat="49.53367" lon="5.72113">
        <ele>305.6</ele>
        <time>1970-01-01T03:35:03.000Z</time>
      </trkpt>
      <trkpt lat="49.53369" lon="5.72117">
        <ele>305.6</ele>
        <time>1970-01-01T03:35:04.000Z</time>
      </trkpt>
      <trkpt lat="49.53371" lon="5.72122">
        <ele>305.8</ele>
        <time>1970-01-01T03:35:05.000Z</time>
      </trkpt>
      <trkpt lat="49.53372" lon="5.72134">
        <ele>306.6</ele>
        <time>1970-01-01T03:35:07.000Z</time>
      </trkpt>
      <trkpt lat="49.53373" lon="5.7214">
        <ele>306.8</ele>
        <time>1970-01-01T03:35:08.000Z</time>
      </trkpt>
      <trkpt lat="49.53376" lon="5.72152">
        <ele>307</ele>
        <time>1970-01-01T03:35:10.000Z</time>
      </trkpt>
      <trkpt lat="49.53379" lon="5.7217">
        <ele>307.4</ele>
        <time>1970-01-01T03:35:13.000Z</time>
      </trkpt>
      <trkpt lat="49.53386" lon="5.72195">
        <ele>307.4</ele>
        <time>1970-01-01T03:35:17.000Z</time>
      </trkpt>
      <trkpt lat="49.53388" lon="5.72207">
        <ele>307.2</ele>
        <time>1970-01-01T03:35:19.000Z</time>
      </trkpt>
      <trkpt lat="49.53388" lon="5.72215">
        <ele>307.2</ele>
        <time>1970-01-01T03:35:20.000Z</time>
      </trkpt>
      <trkpt lat="49.53389" lon="5.72221">
        <ele>307.2</ele>
        <time>1970-01-01T03:35:21.000Z</time>
      </trkpt>
      <trkpt lat="49.53391" lon="5.72236">
        <ele>307.2</ele>
        <time>1970-01-01T03:35:23.000Z</time>
      </trkpt>
      <trkpt lat="49.5339" lon="5.72244">
        <ele>307.2</ele>
        <time>1970-01-01T03:35:24.000Z</time>
      </trkpt>
      <trkpt lat="49.53398" lon="5.72273">
        <ele>306.8</ele>
        <time>1970-01-01T03:35:28.000Z</time>
      </trkpt>
      <trkpt lat="49.534" lon="5.72279">
        <ele>307.2</ele>
        <time>1970-01-01T03:35:29.000Z</time>
      </trkpt>
      <trkpt lat="49.53401" lon="5.72285">
        <ele>307.4</ele>
        <time>1970-01-01T03:35:30.000Z</time>
      </trkpt>
      <trkpt lat="49.53406" lon="5.72304">
        <ele>307.4</ele>
        <time>1970-01-01T03:35:33.000Z</time>
      </trkpt>
      <trkpt lat="49.53409" lon="5.72313">
        <ele>307.6</ele>
        <time>1970-01-01T03:35:34.000Z</time>
      </trkpt>
      <trkpt lat="49.53419" lon="5.72349">
        <ele>307.4</ele>
        <time>1970-01-01T03:35:39.000Z</time>
      </trkpt>
      <trkpt lat="49.53421" lon="5.72355">
        <ele>307.2</ele>
        <time>1970-01-01T03:35:40.000Z</time>
      </trkpt>
      <trkpt lat="49.53429" lon="5.72386">
        <ele>306.8</ele>
        <time>1970-01-01T03:35:44.000Z</time>
      </trkpt>
      <trkpt lat="49.5343" lon="5.72394">
        <ele>306.8</ele>
        <time>1970-01-01T03:35:45.000Z</time>
      </trkpt>
      <trkpt lat="49.53431" lon="5.72403">
        <ele>306.6</ele>
        <time>1970-01-01T03:35:46.000Z</time>
      </trkpt>
      <trkpt lat="49.53433" lon="5.7241">
        <ele>306.6</ele>
        <time>1970-01-01T03:35:47.000Z</time>
      </trkpt>
      <trkpt lat="49.53435" lon="5.72418">
        <ele>306.4</ele>
        <time>1970-01-01T03:35:48.000Z</time>
      </trkpt>
      <trkpt lat="49.53436" lon="5.72426">
        <ele>306.4</ele>
        <time>1970-01-01T03:35:49.000Z</time>
      </trkpt>
      <trkpt lat="49.53438" lon="5.72435">
        <ele>306.2</ele>
        <time>1970-01-01T03:35:50.000Z</time>
      </trkpt>
      <trkpt lat="49.53439" lon="5.72443">
        <ele>306.2</ele>
        <time>1970-01-01T03:35:51.000Z</time>
      </trkpt>
      <trkpt lat="49.53441" lon="5.7245">
        <ele>306</ele>
        <time>1970-01-01T03:35:52.000Z</time>
      </trkpt>
      <trkpt lat="49.53442" lon="5.72475">
        <ele>305.8</ele>
        <time>1970-01-01T03:35:55.000Z</time>
      </trkpt>
      <trkpt lat="49.53443" lon="5.72483">
        <ele>305.8</ele>
        <time>1970-01-01T03:35:56.000Z</time>
      </trkpt>
      <trkpt lat="49.53444" lon="5.7249">
        <ele>305.8</ele>
        <time>1970-01-01T03:35:57.000Z</time>
      </trkpt>
      <trkpt lat="49.53445" lon="5.72499">
        <ele>305.8</ele>
        <time>1970-01-01T03:35:58.000Z</time>
      </trkpt>
      <trkpt lat="49.53446" lon="5.72504">
        <ele>305.8</ele>
        <time>1970-01-01T03:35:59.000Z</time>
      </trkpt>
      <trkpt lat="49.53447" lon="5.7251">
        <ele>305.8</ele>
        <time>1970-01-01T03:36:00.000Z</time>
      </trkpt>
      <trkpt lat="49.53449" lon="5.72516">
        <ele>305.8</ele>
        <time>1970-01-01T03:36:01.000Z</time>
      </trkpt>
      <trkpt lat="49.53451" lon="5.72521">
        <ele>305.8</ele>
        <time>1970-01-01T03:36:02.000Z</time>
      </trkpt>
      <trkpt lat="49.53453" lon="5.72527">
        <ele>305.8</ele>
        <time>1970-01-01T03:36:03.000Z</time>
      </trkpt>
      <trkpt lat="49.53455" lon="5.72532">
        <ele>305.8</ele>
        <time>1970-01-01T03:36:04.000Z</time>
      </trkpt>
      <trkpt lat="49.53457" lon="5.72537">
        <ele>305.8</ele>
        <time>1970-01-01T03:36:05.000Z</time>
      </trkpt>
      <trkpt lat="49.53458" lon="5.72541">
        <ele>305.8</ele>
        <time>1970-01-01T03:36:06.000Z</time>
      </trkpt>
      <trkpt lat="49.53459" lon="5.72546">
        <ele>305.8</ele>
        <time>1970-01-01T03:36:07.000Z</time>
      </trkpt>
      <trkpt lat="49.53458" lon="5.72552">
        <ele>305.8</ele>
        <time>1970-01-01T03:36:08.000Z</time>
      </trkpt>
      <trkpt lat="49.53459" lon="5.72557">
        <ele>305.8</ele>
        <time>1970-01-01T03:36:09.000Z</time>
      </trkpt>
      <trkpt lat="49.53461" lon="5.72562">
        <ele>306</ele>
        <time>1970-01-01T03:36:10.000Z</time>
      </trkpt>
      <trkpt lat="49.53462" lon="5.72568">
        <ele>306.2</ele>
        <time>1970-01-01T03:36:11.000Z</time>
      </trkpt>
      <trkpt lat="49.53463" lon="5.72573">
        <ele>306.4</ele>
        <time>1970-01-01T03:36:12.000Z</time>
      </trkpt>
      <trkpt lat="49.53464" lon="5.72579">
        <ele>306.6</ele>
        <time>1970-01-01T03:36:13.000Z</time>
      </trkpt>
      <trkpt lat="49.53466" lon="5.72584">
        <ele>306.6</ele>
        <time>1970-01-01T03:36:14.000Z</time>
      </trkpt>
      <trkpt lat="49.53466" lon="5.72601">
        <ele>307.2</ele>
        <time>1970-01-01T03:36:17.000Z</time>
      </trkpt>
      <trkpt lat="49.53466" lon="5.72612">
        <ele>307.4</ele>
        <time>1970-01-01T03:36:19.000Z</time>
      </trkpt>
      <trkpt lat="49.53466" lon="5.72617">
        <ele>307.6</ele>
        <time>1970-01-01T03:36:20.000Z</time>
      </trkpt>
      <trkpt lat="49.53469" lon="5.72633">
        <ele>308.2</ele>
        <time>1970-01-01T03:36:23.000Z</time>
      </trkpt>
      <trkpt lat="49.53471" lon="5.7264">
        <ele>308.6</ele>
        <time>1970-01-01T03:36:24.000Z</time>
      </trkpt>
      <trkpt lat="49.53471" lon="5.72647">
        <ele>308.8</ele>
        <time>1970-01-01T03:36:25.000Z</time>
      </trkpt>
      <trkpt lat="49.53471" lon="5.72654">
        <ele>309.2</ele>
        <time>1970-01-01T03:36:26.000Z</time>
      </trkpt>
      <trkpt lat="49.53471" lon="5.72667">
        <ele>309.8</ele>
        <time>1970-01-01T03:36:28.000Z</time>
      </trkpt>
      <trkpt lat="49.53471" lon="5.72673">
        <ele>310</ele>
        <time>1970-01-01T03:36:29.000Z</time>
      </trkpt>
      <trkpt lat="49.53472" lon="5.72679">
        <ele>310.2</ele>
        <time>1970-01-01T03:36:30.000Z</time>
      </trkpt>
      <trkpt lat="49.53472" lon="5.72685">
        <ele>310.4</ele>
        <time>1970-01-01T03:36:31.000Z</time>
      </trkpt>
      <trkpt lat="49.53473" lon="5.72691">
        <ele>310.6</ele>
        <time>1970-01-01T03:36:32.000Z</time>
      </trkpt>
      <trkpt lat="49.53474" lon="5.72696">
        <ele>310.6</ele>
        <time>1970-01-01T03:36:33.000Z</time>
      </trkpt>
      <trkpt lat="49.53475" lon="5.72701">
        <ele>310.8</ele>
        <time>1970-01-01T03:36:34.000Z</time>
      </trkpt>
      <trkpt lat="49.53475" lon="5.72708">
        <ele>311</ele>
        <time>1970-01-01T03:36:35.000Z</time>
      </trkpt>
      <trkpt lat="49.53474" lon="5.72714">
        <ele>311</ele>
        <time>1970-01-01T03:36:36.000Z</time>
      </trkpt>
      <trkpt lat="49.53475" lon="5.72721">
        <ele>311</ele>
        <time>1970-01-01T03:36:37.000Z</time>
      </trkpt>
      <trkpt lat="49.53475" lon="5.72726">
        <ele>311</ele>
        <time>1970-01-01T03:36:38.000Z</time>
      </trkpt>
      <trkpt lat="49.53476" lon="5.72732">
        <ele>311</ele>
        <time>1970-01-01T03:36:39.000Z</time>
      </trkpt>
      <trkpt lat="49.53474" lon="5.72742">
        <ele>311</ele>
        <time>1970-01-01T03:36:40.000Z</time>
      </trkpt>
      <trkpt lat="49.53472" lon="5.72752">
        <ele>311</ele>
        <time>1970-01-01T03:36:41.000Z</time>
      </trkpt>
      <trkpt lat="49.53472" lon="5.7276">
        <ele>311</ele>
        <time>1970-01-01T03:36:42.000Z</time>
      </trkpt>
      <trkpt lat="49.53473" lon="5.72767">
        <ele>311</ele>
        <time>1970-01-01T03:36:43.000Z</time>
      </trkpt>
      <trkpt lat="49.53473" lon="5.72775">
        <ele>311</ele>
        <time>1970-01-01T03:36:44.000Z</time>
      </trkpt>
      <trkpt lat="49.53474" lon="5.72782">
        <ele>310.8</ele>
        <time>1970-01-01T03:36:45.000Z</time>
      </trkpt>
      <trkpt lat="49.53475" lon="5.72787">
        <ele>310.8</ele>
        <time>1970-01-01T03:36:46.000Z</time>
      </trkpt>
      <trkpt lat="49.53474" lon="5.72792">
        <ele>310.6</ele>
        <time>1970-01-01T03:36:47.000Z</time>
      </trkpt>
      <trkpt lat="49.53474" lon="5.72799">
        <ele>310.6</ele>
        <time>1970-01-01T03:36:48.000Z</time>
      </trkpt>
      <trkpt lat="49.53473" lon="5.72806">
        <ele>310.6</ele>
        <time>1970-01-01T03:36:49.000Z</time>
      </trkpt>
      <trkpt lat="49.53473" lon="5.72811">
        <ele>310.4</ele>
        <time>1970-01-01T03:36:50.000Z</time>
      </trkpt>
      <trkpt lat="49.53473" lon="5.72818">
        <ele>310.4</ele>
        <time>1970-01-01T03:36:51.000Z</time>
      </trkpt>
      <trkpt lat="49.5347" lon="5.72834">
        <ele>310.4</ele>
        <time>1970-01-01T03:36:53.000Z</time>
      </trkpt>
      <trkpt lat="49.53469" lon="5.72842">
        <ele>310.2</ele>
        <time>1970-01-01T03:36:54.000Z</time>
      </trkpt>
      <trkpt lat="49.53469" lon="5.72842">
        <ele>310.2</ele>
        <time>1970-01-01T03:36:55.000Z</time>
      </trkpt>
      <trkpt lat="49.53468" lon="5.72855">
        <ele>310.2</ele>
        <time>1970-01-01T03:36:56.000Z</time>
      </trkpt>
      <trkpt lat="49.53468" lon="5.72883">
        <ele>310.4</ele>
        <time>1970-01-01T03:37:00.000Z</time>
      </trkpt>
      <trkpt lat="49.53467" lon="5.72891">
        <ele>310.6</ele>
        <time>1970-01-01T03:37:01.000Z</time>
      </trkpt>
      <trkpt lat="49.53466" lon="5.72905">
        <ele>310.6</ele>
        <time>1970-01-01T03:37:03.000Z</time>
      </trkpt>
      <trkpt lat="49.53465" lon="5.7292">
        <ele>311</ele>
        <time>1970-01-01T03:37:05.000Z</time>
      </trkpt>
      <trkpt lat="49.53465" lon="5.72926">
        <ele>310.8</ele>
        <time>1970-01-01T03:37:06.000Z</time>
      </trkpt>
      <trkpt lat="49.53466" lon="5.72932">
        <ele>311</ele>
        <time>1970-01-01T03:37:07.000Z</time>
      </trkpt>
      <trkpt lat="49.53466" lon="5.72938">
        <ele>311</ele>
        <time>1970-01-01T03:37:08.000Z</time>
      </trkpt>
      <trkpt lat="49.53467" lon="5.72944">
        <ele>311</ele>
        <time>1970-01-01T03:37:09.000Z</time>
      </trkpt>
      <trkpt lat="49.53467" lon="5.7295">
        <ele>311.2</ele>
        <time>1970-01-01T03:37:10.000Z</time>
      </trkpt>
      <trkpt lat="49.53467" lon="5.72956">
        <ele>311</ele>
        <time>1970-01-01T03:37:11.000Z</time>
      </trkpt>
      <trkpt lat="49.53467" lon="5.72961">
        <ele>310.8</ele>
        <time>1970-01-01T03:37:12.000Z</time>
      </trkpt>
      <trkpt lat="49.53468" lon="5.72966">
        <ele>311</ele>
        <time>1970-01-01T03:37:13.000Z</time>
      </trkpt>
      <trkpt lat="49.53468" lon="5.72971">
        <ele>311.2</ele>
        <time>1970-01-01T03:37:14.000Z</time>
      </trkpt>
      <trkpt lat="49.53468" lon="5.72976">
        <ele>311.2</ele>
        <time>1970-01-01T03:37:15.000Z</time>
      </trkpt>
      <trkpt lat="49.53468" lon="5.72981">
        <ele>311.6</ele>
        <time>1970-01-01T03:37:16.000Z</time>
      </trkpt>
      <trkpt lat="49.53469" lon="5.72986">
        <ele>311.6</ele>
        <time>1970-01-01T03:37:17.000Z</time>
      </trkpt>
      <trkpt lat="49.53469" lon="5.72991">
        <ele>311.6</ele>
        <time>1970-01-01T03:37:18.000Z</time>
      </trkpt>
      <trkpt lat="49.5347" lon="5.72996">
        <ele>311.8</ele>
        <time>1970-01-01T03:37:19.000Z</time>
      </trkpt>
      <trkpt lat="49.53471" lon="5.73">
        <ele>311.8</ele>
        <time>1970-01-01T03:37:20.000Z</time>
      </trkpt>
      <trkpt lat="49.53471" lon="5.73004">
        <ele>312</ele>
        <time>1970-01-01T03:37:21.000Z</time>
      </trkpt>
      <trkpt lat="49.53472" lon="5.73008">
        <ele>312</ele>
        <time>1970-01-01T03:37:22.000Z</time>
      </trkpt>
      <trkpt lat="49.53473" lon="5.73012">
        <ele>312.2</ele>
        <time>1970-01-01T03:37:23.000Z</time>
      </trkpt>
      <trkpt lat="49.53473" lon="5.73016">
        <ele>312.4</ele>
        <time>1970-01-01T03:37:24.000Z</time>
      </trkpt>
      <trkpt lat="49.53473" lon="5.73024">
        <ele>312.6</ele>
        <time>1970-01-01T03:37:26.000Z</time>
      </trkpt>
      <trkpt lat="49.53473" lon="5.73028">
        <ele>312.8</ele>
        <time>1970-01-01T03:37:27.000Z</time>
      </trkpt>
      <trkpt lat="49.53474" lon="5.73032">
        <ele>312.8</ele>
        <time>1970-01-01T03:37:28.000Z</time>
      </trkpt>
      <trkpt lat="49.53474" lon="5.73035">
        <ele>313</ele>
        <time>1970-01-01T03:37:29.000Z</time>
      </trkpt>
      <trkpt lat="49.53473" lon="5.73056">
        <ele>313.4</ele>
        <time>1970-01-01T03:37:34.000Z</time>
      </trkpt>
      <trkpt lat="49.5347" lon="5.73071">
        <ele>314</ele>
        <time>1970-01-01T03:37:37.000Z</time>
      </trkpt>
      <trkpt lat="49.53469" lon="5.73081">
        <ele>314.2</ele>
        <time>1970-01-01T03:37:39.000Z</time>
      </trkpt>
      <trkpt lat="49.53468" lon="5.73086">
        <ele>314.2</ele>
        <time>1970-01-01T03:37:40.000Z</time>
      </trkpt>
      <trkpt lat="49.53468" lon="5.73091">
        <ele>314.2</ele>
        <time>1970-01-01T03:37:41.000Z</time>
      </trkpt>
      <trkpt lat="49.53467" lon="5.73096">
        <ele>314.2</ele>
        <time>1970-01-01T03:37:42.000Z</time>
      </trkpt>
      <trkpt lat="49.53465" lon="5.73102">
        <ele>314.2</ele>
        <time>1970-01-01T03:37:43.000Z</time>
      </trkpt>
      <trkpt lat="49.53463" lon="5.73108">
        <ele>314</ele>
        <time>1970-01-01T03:37:44.000Z</time>
      </trkpt>
      <trkpt lat="49.5346" lon="5.73112">
        <ele>314</ele>
        <time>1970-01-01T03:37:45.000Z</time>
      </trkpt>
      <trkpt lat="49.53457" lon="5.73113">
        <ele>314</ele>
        <time>1970-01-01T03:37:46.000Z</time>
      </trkpt>
      <trkpt lat="49.53454" lon="5.73113">
        <ele>314</ele>
        <time>1970-01-01T03:37:47.000Z</time>
      </trkpt>
      <trkpt lat="49.53448" lon="5.73109">
        <ele>312.6</ele>
        <time>1970-01-01T03:37:49.000Z</time>
      </trkpt>
      <trkpt lat="49.53438" lon="5.731">
        <ele>312.2</ele>
        <time>1970-01-01T03:37:51.000Z</time>
      </trkpt>
      <trkpt lat="49.53433" lon="5.73093">
        <ele>312</ele>
        <time>1970-01-01T03:37:52.000Z</time>
      </trkpt>
      <trkpt lat="49.53429" lon="5.73087">
        <ele>311.8</ele>
        <time>1970-01-01T03:37:53.000Z</time>
      </trkpt>
      <trkpt lat="49.53424" lon="5.73083">
        <ele>311.4</ele>
        <time>1970-01-01T03:37:54.000Z</time>
      </trkpt>
      <trkpt lat="49.53418" lon="5.7308">
        <ele>310</ele>
        <time>1970-01-01T03:37:55.000Z</time>
      </trkpt>
      <trkpt lat="49.53413" lon="5.73079">
        <ele>308.8</ele>
        <time>1970-01-01T03:37:56.000Z</time>
      </trkpt>
      <trkpt lat="49.53407" lon="5.73078">
        <ele>308.4</ele>
        <time>1970-01-01T03:37:57.000Z</time>
      </trkpt>
      <trkpt lat="49.53402" lon="5.7308">
        <ele>307.6</ele>
        <time>1970-01-01T03:37:58.000Z</time>
      </trkpt>
      <trkpt lat="49.53397" lon="5.73084">
        <ele>307</ele>
        <time>1970-01-01T03:37:59.000Z</time>
      </trkpt>
      <trkpt lat="49.53394" lon="5.73088">
        <ele>306.2</ele>
        <time>1970-01-01T03:38:00.000Z</time>
      </trkpt>
      <trkpt lat="49.53391" lon="5.73093">
        <ele>306</ele>
        <time>1970-01-01T03:38:01.000Z</time>
      </trkpt>
      <trkpt lat="49.53389" lon="5.73098">
        <ele>305.8</ele>
        <time>1970-01-01T03:38:02.000Z</time>
      </trkpt>
      <trkpt lat="49.53387" lon="5.73103">
        <ele>305.6</ele>
        <time>1970-01-01T03:38:03.000Z</time>
      </trkpt>
      <trkpt lat="49.53386" lon="5.73107">
        <ele>305.4</ele>
        <time>1970-01-01T03:38:04.000Z</time>
      </trkpt>
      <trkpt lat="49.53386" lon="5.73111">
        <ele>305.4</ele>
        <time>1970-01-01T03:38:05.000Z</time>
      </trkpt>
      <trkpt lat="49.53387" lon="5.73115">
        <ele>305.4</ele>
        <time>1970-01-01T03:38:06.000Z</time>
      </trkpt>
      <trkpt lat="49.53388" lon="5.73125">
        <ele>305.2</ele>
        <time>1970-01-01T03:38:08.000Z</time>
      </trkpt>
      <trkpt lat="49.5339" lon="5.7313">
        <ele>305.6</ele>
        <time>1970-01-01T03:38:09.000Z</time>
      </trkpt>
      <trkpt lat="49.5339" lon="5.73135">
        <ele>305.6</ele>
        <time>1970-01-01T03:38:10.000Z</time>
      </trkpt>
      <trkpt lat="49.53391" lon="5.73139">
        <ele>305.6</ele>
        <time>1970-01-01T03:38:11.000Z</time>
      </trkpt>
      <trkpt lat="49.53392" lon="5.73149">
        <ele>305.6</ele>
        <time>1970-01-01T03:38:13.000Z</time>
      </trkpt>
      <trkpt lat="49.53396" lon="5.73168">
        <ele>306.2</ele>
        <time>1970-01-01T03:38:17.000Z</time>
      </trkpt>
      <trkpt lat="49.53397" lon="5.73178">
        <ele>306.2</ele>
        <time>1970-01-01T03:38:18.000Z</time>
      </trkpt>
      <trkpt lat="49.53402" lon="5.73193">
        <ele>306.4</ele>
        <time>1970-01-01T03:38:20.000Z</time>
      </trkpt>
      <trkpt lat="49.53403" lon="5.732">
        <ele>306.4</ele>
        <time>1970-01-01T03:38:21.000Z</time>
      </trkpt>
      <trkpt lat="49.53408" lon="5.73214">
        <ele>306.6</ele>
        <time>1970-01-01T03:38:23.000Z</time>
      </trkpt>
      <trkpt lat="49.5341" lon="5.73219">
        <ele>306.8</ele>
        <time>1970-01-01T03:38:24.000Z</time>
      </trkpt>
      <trkpt lat="49.53409" lon="5.73224">
        <ele>306.8</ele>
        <time>1970-01-01T03:38:25.000Z</time>
      </trkpt>
      <trkpt lat="49.53408" lon="5.73229">
        <ele>306.8</ele>
        <time>1970-01-01T03:38:26.000Z</time>
      </trkpt>
      <trkpt lat="49.53409" lon="5.73238">
        <ele>307</ele>
        <time>1970-01-01T03:38:27.000Z</time>
      </trkpt>
      <trkpt lat="49.53412" lon="5.73258">
        <ele>307</ele>
        <time>1970-01-01T03:38:29.000Z</time>
      </trkpt>
      <trkpt lat="49.53413" lon="5.73265">
        <ele>307</ele>
        <time>1970-01-01T03:38:30.000Z</time>
      </trkpt>
      <trkpt lat="49.53413" lon="5.73271">
        <ele>307</ele>
        <time>1970-01-01T03:38:31.000Z</time>
      </trkpt>
      <trkpt lat="49.53411" lon="5.73278">
        <ele>307</ele>
        <time>1970-01-01T03:38:32.000Z</time>
      </trkpt>
      <trkpt lat="49.53412" lon="5.73285">
        <ele>307</ele>
        <time>1970-01-01T03:38:33.000Z</time>
      </trkpt>
      <trkpt lat="49.53414" lon="5.73293">
        <ele>307.2</ele>
        <time>1970-01-01T03:38:34.000Z</time>
      </trkpt>
      <trkpt lat="49.53415" lon="5.733">
        <ele>307.2</ele>
        <time>1970-01-01T03:38:35.000Z</time>
      </trkpt>
      <trkpt lat="49.53413" lon="5.73307">
        <ele>307.4</ele>
        <time>1970-01-01T03:38:36.000Z</time>
      </trkpt>
      <trkpt lat="49.53411" lon="5.73314">
        <ele>307.6</ele>
        <time>1970-01-01T03:38:38.000Z</time>
      </trkpt>
      <trkpt lat="49.53409" lon="5.7332">
        <ele>307.8</ele>
        <time>1970-01-01T03:38:39.000Z</time>
      </trkpt>
      <trkpt lat="49.53408" lon="5.73328">
        <ele>307.8</ele>
        <time>1970-01-01T03:38:40.000Z</time>
      </trkpt>
      <trkpt lat="49.53407" lon="5.73337">
        <ele>307.8</ele>
        <time>1970-01-01T03:38:41.000Z</time>
      </trkpt>
      <trkpt lat="49.53407" lon="5.73344">
        <ele>307.8</ele>
        <time>1970-01-01T03:38:42.000Z</time>
      </trkpt>
      <trkpt lat="49.53405" lon="5.73349">
        <ele>308</ele>
        <time>1970-01-01T03:38:43.000Z</time>
      </trkpt>
      <trkpt lat="49.53403" lon="5.73354">
        <ele>308</ele>
        <time>1970-01-01T03:38:44.000Z</time>
      </trkpt>
      <trkpt lat="49.53398" lon="5.73362">
        <ele>308.2</ele>
        <time>1970-01-01T03:38:45.000Z</time>
      </trkpt>
      <trkpt lat="49.53389" lon="5.73366">
        <ele>308.2</ele>
        <time>1970-01-01T03:38:46.000Z</time>
      </trkpt>
      <trkpt lat="49.53385" lon="5.73371">
        <ele>308.2</ele>
        <time>1970-01-01T03:38:47.000Z</time>
      </trkpt>
      <trkpt lat="49.53382" lon="5.73375">
        <ele>308.4</ele>
        <time>1970-01-01T03:38:48.000Z</time>
      </trkpt>
      <trkpt lat="49.53379" lon="5.73379">
        <ele>308.6</ele>
        <time>1970-01-01T03:38:49.000Z</time>
      </trkpt>
      <trkpt lat="49.53375" lon="5.73387">
        <ele>308.6</ele>
        <time>1970-01-01T03:38:51.000Z</time>
      </trkpt>
      <trkpt lat="49.53373" lon="5.73392">
        <ele>308.6</ele>
        <time>1970-01-01T03:38:52.000Z</time>
      </trkpt>
      <trkpt lat="49.5337" lon="5.73397">
        <ele>308.6</ele>
        <time>1970-01-01T03:38:53.000Z</time>
      </trkpt>
      <trkpt lat="49.53366" lon="5.73402">
        <ele>308.6</ele>
        <time>1970-01-01T03:38:54.000Z</time>
      </trkpt>
      <trkpt lat="49.53362" lon="5.73405">
        <ele>308.8</ele>
        <time>1970-01-01T03:38:55.000Z</time>
      </trkpt>
      <trkpt lat="49.53358" lon="5.73412">
        <ele>308.8</ele>
        <time>1970-01-01T03:38:56.000Z</time>
      </trkpt>
      <trkpt lat="49.53356" lon="5.73415">
        <ele>309</ele>
        <time>1970-01-01T03:38:57.000Z</time>
      </trkpt>
      <trkpt lat="49.53355" lon="5.73417">
        <ele>309</ele>
        <time>1970-01-01T03:38:58.000Z</time>
      </trkpt>
      <trkpt lat="49.53353" lon="5.73421">
        <ele>309.2</ele>
        <time>1970-01-01T03:38:59.000Z</time>
      </trkpt>
      <trkpt lat="49.53352" lon="5.73424">
        <ele>309.2</ele>
        <time>1970-01-01T03:39:00.000Z</time>
      </trkpt>
      <trkpt lat="49.53349" lon="5.73428">
        <ele>309.2</ele>
        <time>1970-01-01T03:39:01.000Z</time>
      </trkpt>
      <trkpt lat="49.53344" lon="5.73436">
        <ele>309.2</ele>
        <time>1970-01-01T03:39:03.000Z</time>
      </trkpt>
      <trkpt lat="49.53344" lon="5.73439">
        <ele>309.4</ele>
        <time>1970-01-01T03:39:04.000Z</time>
      </trkpt>
      <trkpt lat="49.53342" lon="5.73442">
        <ele>309.2</ele>
        <time>1970-01-01T03:39:05.000Z</time>
      </trkpt>
      <trkpt lat="49.53339" lon="5.73445">
        <ele>309.4</ele>
        <time>1970-01-01T03:39:06.000Z</time>
      </trkpt>
      <trkpt lat="49.53337" lon="5.73449">
        <ele>309.4</ele>
        <time>1970-01-01T03:39:07.000Z</time>
      </trkpt>
      <trkpt lat="49.53337" lon="5.73451">
        <ele>309.6</ele>
        <time>1970-01-01T03:39:08.000Z</time>
      </trkpt>
      <trkpt lat="49.53336" lon="5.73452">
        <ele>309.8</ele>
        <time>1970-01-01T03:39:09.000Z</time>
      </trkpt>
      <trkpt lat="49.53335" lon="5.73456">
        <ele>310</ele>
        <time>1970-01-01T03:39:10.000Z</time>
      </trkpt>
      <trkpt lat="49.53336" lon="5.73458">
        <ele>310</ele>
        <time>1970-01-01T03:39:11.000Z</time>
      </trkpt>
      <trkpt lat="49.53335" lon="5.7346">
        <ele>310.2</ele>
        <time>1970-01-01T03:39:12.000Z</time>
      </trkpt>
      <trkpt lat="49.53333" lon="5.73462">
        <ele>310.2</ele>
        <time>1970-01-01T03:39:13.000Z</time>
      </trkpt>
      <trkpt lat="49.53332" lon="5.73465">
        <ele>310.4</ele>
        <time>1970-01-01T03:39:14.000Z</time>
      </trkpt>
      <trkpt lat="49.53328" lon="5.73468">
        <ele>310.6</ele>
        <time>1970-01-01T03:39:15.000Z</time>
      </trkpt>
      <trkpt lat="49.53326" lon="5.7347">
        <ele>310.6</ele>
        <time>1970-01-01T03:39:16.000Z</time>
      </trkpt>
      <trkpt lat="49.53324" lon="5.73472">
        <ele>311</ele>
        <time>1970-01-01T03:39:17.000Z</time>
      </trkpt>
      <trkpt lat="49.53323" lon="5.73474">
        <ele>311.2</ele>
        <time>1970-01-01T03:39:18.000Z</time>
      </trkpt>
      <trkpt lat="49.53321" lon="5.73476">
        <ele>311.4</ele>
        <time>1970-01-01T03:39:19.000Z</time>
      </trkpt>
      <trkpt lat="49.53319" lon="5.73479">
        <ele>311.6</ele>
        <time>1970-01-01T03:39:20.000Z</time>
      </trkpt>
      <trkpt lat="49.53318" lon="5.73481">
        <ele>311.8</ele>
        <time>1970-01-01T03:39:21.000Z</time>
      </trkpt>
      <trkpt lat="49.53316" lon="5.73484">
        <ele>311.8</ele>
        <time>1970-01-01T03:39:22.000Z</time>
      </trkpt>
      <trkpt lat="49.53315" lon="5.73485">
        <ele>311.8</ele>
        <time>1970-01-01T03:39:23.000Z</time>
      </trkpt>
      <trkpt lat="49.53314" lon="5.73487">
        <ele>312</ele>
        <time>1970-01-01T03:39:24.000Z</time>
      </trkpt>
      <trkpt lat="49.53313" lon="5.73488">
        <ele>312.2</ele>
        <time>1970-01-01T03:39:25.000Z</time>
      </trkpt>
      <trkpt lat="49.53311" lon="5.73491">
        <ele>312.6</ele>
        <time>1970-01-01T03:39:26.000Z</time>
      </trkpt>
      <trkpt lat="49.53309" lon="5.73493">
        <ele>313</ele>
        <time>1970-01-01T03:39:27.000Z</time>
      </trkpt>
      <trkpt lat="49.53308" lon="5.73496">
        <ele>313.2</ele>
        <time>1970-01-01T03:39:28.000Z</time>
      </trkpt>
      <trkpt lat="49.53306" lon="5.73498">
        <ele>313.6</ele>
        <time>1970-01-01T03:39:29.000Z</time>
      </trkpt>
      <trkpt lat="49.53305" lon="5.735">
        <ele>313.8</ele>
        <time>1970-01-01T03:39:30.000Z</time>
      </trkpt>
      <trkpt lat="49.53305" lon="5.73502">
        <ele>314.2</ele>
        <time>1970-01-01T03:39:31.000Z</time>
      </trkpt>
      <trkpt lat="49.53304" lon="5.73504">
        <ele>314.4</ele>
        <time>1970-01-01T03:39:32.000Z</time>
      </trkpt>
      <trkpt lat="49.53304" lon="5.73506">
        <ele>314.6</ele>
        <time>1970-01-01T03:39:33.000Z</time>
      </trkpt>
      <trkpt lat="49.53303" lon="5.73511">
        <ele>314.8</ele>
        <time>1970-01-01T03:39:34.000Z</time>
      </trkpt>
      <trkpt lat="49.53302" lon="5.73516">
        <ele>315</ele>
        <time>1970-01-01T03:39:35.000Z</time>
      </trkpt>
      <trkpt lat="49.53301" lon="5.73521">
        <ele>315.4</ele>
        <time>1970-01-01T03:39:36.000Z</time>
      </trkpt>
      <trkpt lat="49.53301" lon="5.73525">
        <ele>315.6</ele>
        <time>1970-01-01T03:39:37.000Z</time>
      </trkpt>
      <trkpt lat="49.53302" lon="5.73529">
        <ele>315.8</ele>
        <time>1970-01-01T03:39:38.000Z</time>
      </trkpt>
      <trkpt lat="49.53302" lon="5.73534">
        <ele>316</ele>
        <time>1970-01-01T03:39:39.000Z</time>
      </trkpt>
      <trkpt lat="49.53302" lon="5.7354">
        <ele>316</ele>
        <time>1970-01-01T03:39:40.000Z</time>
      </trkpt>
      <trkpt lat="49.533" lon="5.7355">
        <ele>316.2</ele>
        <time>1970-01-01T03:39:41.000Z</time>
      </trkpt>
      <trkpt lat="49.53297" lon="5.73562">
        <ele>316.2</ele>
        <time>1970-01-01T03:39:42.000Z</time>
      </trkpt>
      <trkpt lat="49.53298" lon="5.73575">
        <ele>316</ele>
        <time>1970-01-01T03:39:43.000Z</time>
      </trkpt>
      <trkpt lat="49.53298" lon="5.73581">
        <ele>316</ele>
        <time>1970-01-01T03:39:44.000Z</time>
      </trkpt>
      <trkpt lat="49.53297" lon="5.73587">
        <ele>315.8</ele>
        <time>1970-01-01T03:39:45.000Z</time>
      </trkpt>
      <trkpt lat="49.53295" lon="5.7359">
        <ele>315.8</ele>
        <time>1970-01-01T03:39:46.000Z</time>
      </trkpt>
      <trkpt lat="49.53293" lon="5.73593">
        <ele>315.8</ele>
        <time>1970-01-01T03:39:47.000Z</time>
      </trkpt>
      <trkpt lat="49.53292" lon="5.73596">
        <ele>315.6</ele>
        <time>1970-01-01T03:39:48.000Z</time>
      </trkpt>
      <trkpt lat="49.53291" lon="5.736">
        <ele>315.6</ele>
        <time>1970-01-01T03:39:49.000Z</time>
      </trkpt>
      <trkpt lat="49.5329" lon="5.73604">
        <ele>315.6</ele>
        <time>1970-01-01T03:39:50.000Z</time>
      </trkpt>
      <trkpt lat="49.5329" lon="5.73609">
        <ele>315.6</ele>
        <time>1970-01-01T03:39:51.000Z</time>
      </trkpt>
      <trkpt lat="49.5329" lon="5.73611">
        <ele>315.6</ele>
        <time>1970-01-01T03:39:52.000Z</time>
      </trkpt>
      <trkpt lat="49.5329" lon="5.73614">
        <ele>315.6</ele>
        <time>1970-01-01T03:39:53.000Z</time>
      </trkpt>
      <trkpt lat="49.53291" lon="5.73617">
        <ele>316</ele>
        <time>1970-01-01T03:39:54.000Z</time>
      </trkpt>
      <trkpt lat="49.53293" lon="5.7362">
        <ele>316</ele>
        <time>1970-01-01T03:39:55.000Z</time>
      </trkpt>
      <trkpt lat="49.53294" lon="5.73625">
        <ele>316.4</ele>
        <time>1970-01-01T03:39:56.000Z</time>
      </trkpt>
      <trkpt lat="49.53294" lon="5.73631">
        <ele>316.6</ele>
        <time>1970-01-01T03:39:57.000Z</time>
      </trkpt>
      <trkpt lat="49.53295" lon="5.73635">
        <ele>316.8</ele>
        <time>1970-01-01T03:39:58.000Z</time>
      </trkpt>
      <trkpt lat="49.53294" lon="5.73639">
        <ele>317</ele>
        <time>1970-01-01T03:39:59.000Z</time>
      </trkpt>
      <trkpt lat="49.53294" lon="5.73642">
        <ele>317</ele>
        <time>1970-01-01T03:40:00.000Z</time>
      </trkpt>
      <trkpt lat="49.53294" lon="5.73645">
        <ele>317.2</ele>
        <time>1970-01-01T03:40:01.000Z</time>
      </trkpt>
      <trkpt lat="49.53293" lon="5.73649">
        <ele>317.4</ele>
        <time>1970-01-01T03:40:02.000Z</time>
      </trkpt>
      <trkpt lat="49.53291" lon="5.73652">
        <ele>317.4</ele>
        <time>1970-01-01T03:40:03.000Z</time>
      </trkpt>
      <trkpt lat="49.53289" lon="5.73655">
        <ele>317.4</ele>
        <time>1970-01-01T03:40:04.000Z</time>
      </trkpt>
      <trkpt lat="49.53285" lon="5.73659">
        <ele>317.6</ele>
        <time>1970-01-01T03:40:05.000Z</time>
      </trkpt>
      <trkpt lat="49.53284" lon="5.73662">
        <ele>317.6</ele>
        <time>1970-01-01T03:40:06.000Z</time>
      </trkpt>
      <trkpt lat="49.53283" lon="5.73666">
        <ele>318</ele>
        <time>1970-01-01T03:40:07.000Z</time>
      </trkpt>
      <trkpt lat="49.53283" lon="5.73669">
        <ele>318.2</ele>
        <time>1970-01-01T03:40:08.000Z</time>
      </trkpt>
      <trkpt lat="49.53284" lon="5.73671">
        <ele>318.6</ele>
        <time>1970-01-01T03:40:09.000Z</time>
      </trkpt>
      <trkpt lat="49.53286" lon="5.73673">
        <ele>319</ele>
        <time>1970-01-01T03:40:10.000Z</time>
      </trkpt>
      <trkpt lat="49.53286" lon="5.73675">
        <ele>319.4</ele>
        <time>1970-01-01T03:40:11.000Z</time>
      </trkpt>
      <trkpt lat="49.53287" lon="5.73678">
        <ele>319.8</ele>
        <time>1970-01-01T03:40:12.000Z</time>
      </trkpt>
      <trkpt lat="49.53288" lon="5.73681">
        <ele>319.8</ele>
        <time>1970-01-01T03:40:13.000Z</time>
      </trkpt>
      <trkpt lat="49.5329" lon="5.73686">
        <ele>320</ele>
        <time>1970-01-01T03:40:14.000Z</time>
      </trkpt>
      <trkpt lat="49.53292" lon="5.73689">
        <ele>320.2</ele>
        <time>1970-01-01T03:40:15.000Z</time>
      </trkpt>
      <trkpt lat="49.53291" lon="5.73693">
        <ele>320.2</ele>
        <time>1970-01-01T03:40:16.000Z</time>
      </trkpt>
      <trkpt lat="49.5329" lon="5.73696">
        <ele>320.4</ele>
        <time>1970-01-01T03:40:17.000Z</time>
      </trkpt>
      <trkpt lat="49.5329" lon="5.73698">
        <ele>320.6</ele>
        <time>1970-01-01T03:40:18.000Z</time>
      </trkpt>
      <trkpt lat="49.5329" lon="5.73701">
        <ele>320.8</ele>
        <time>1970-01-01T03:40:19.000Z</time>
      </trkpt>
      <trkpt lat="49.5329" lon="5.73704">
        <ele>320.8</ele>
        <time>1970-01-01T03:40:20.000Z</time>
      </trkpt>
      <trkpt lat="49.53288" lon="5.73706">
        <ele>321</ele>
        <time>1970-01-01T03:40:21.000Z</time>
      </trkpt>
      <trkpt lat="49.53287" lon="5.73711">
        <ele>321</ele>
        <time>1970-01-01T03:40:22.000Z</time>
      </trkpt>
      <trkpt lat="49.53288" lon="5.73715">
        <ele>321.2</ele>
        <time>1970-01-01T03:40:23.000Z</time>
      </trkpt>
      <trkpt lat="49.53286" lon="5.7372">
        <ele>321.4</ele>
        <time>1970-01-01T03:40:24.000Z</time>
      </trkpt>
      <trkpt lat="49.53285" lon="5.73725">
        <ele>321.6</ele>
        <time>1970-01-01T03:40:25.000Z</time>
      </trkpt>
      <trkpt lat="49.53284" lon="5.7373">
        <ele>322</ele>
        <time>1970-01-01T03:40:26.000Z</time>
      </trkpt>
      <trkpt lat="49.53283" lon="5.73735">
        <ele>322</ele>
        <time>1970-01-01T03:40:27.000Z</time>
      </trkpt>
      <trkpt lat="49.53283" lon="5.73739">
        <ele>322.2</ele>
        <time>1970-01-01T03:40:28.000Z</time>
      </trkpt>
      <trkpt lat="49.53284" lon="5.73742">
        <ele>322.4</ele>
        <time>1970-01-01T03:40:29.000Z</time>
      </trkpt>
      <trkpt lat="49.53281" lon="5.73747">
        <ele>322.4</ele>
        <time>1970-01-01T03:40:30.000Z</time>
      </trkpt>
      <trkpt lat="49.53282" lon="5.73751">
        <ele>322.6</ele>
        <time>1970-01-01T03:40:31.000Z</time>
      </trkpt>
      <trkpt lat="49.53283" lon="5.73754">
        <ele>322.6</ele>
        <time>1970-01-01T03:40:32.000Z</time>
      </trkpt>
      <trkpt lat="49.53283" lon="5.73758">
        <ele>322.8</ele>
        <time>1970-01-01T03:40:33.000Z</time>
      </trkpt>
      <trkpt lat="49.53283" lon="5.73762">
        <ele>322.8</ele>
        <time>1970-01-01T03:40:34.000Z</time>
      </trkpt>
      <trkpt lat="49.53283" lon="5.73766">
        <ele>323</ele>
        <time>1970-01-01T03:40:35.000Z</time>
      </trkpt>
      <trkpt lat="49.53284" lon="5.7377">
        <ele>323</ele>
        <time>1970-01-01T03:40:36.000Z</time>
      </trkpt>
      <trkpt lat="49.53286" lon="5.73773">
        <ele>323</ele>
        <time>1970-01-01T03:40:37.000Z</time>
      </trkpt>
      <trkpt lat="49.53289" lon="5.73777">
        <ele>323.2</ele>
        <time>1970-01-01T03:40:38.000Z</time>
      </trkpt>
      <trkpt lat="49.5329" lon="5.73781">
        <ele>323.2</ele>
        <time>1970-01-01T03:40:39.000Z</time>
      </trkpt>
      <trkpt lat="49.5329" lon="5.73783">
        <ele>323.2</ele>
        <time>1970-01-01T03:40:40.000Z</time>
      </trkpt>
      <trkpt lat="49.53291" lon="5.73787">
        <ele>323.2</ele>
        <time>1970-01-01T03:40:41.000Z</time>
      </trkpt>
      <trkpt lat="49.53292" lon="5.73791">
        <ele>323.4</ele>
        <time>1970-01-01T03:40:42.000Z</time>
      </trkpt>
      <trkpt lat="49.53294" lon="5.73795">
        <ele>323.4</ele>
        <time>1970-01-01T03:40:43.000Z</time>
      </trkpt>
      <trkpt lat="49.53298" lon="5.73798">
        <ele>323.6</ele>
        <time>1970-01-01T03:40:44.000Z</time>
      </trkpt>
      <trkpt lat="49.53302" lon="5.738">
        <ele>323.6</ele>
        <time>1970-01-01T03:40:45.000Z</time>
      </trkpt>
      <trkpt lat="49.53303" lon="5.73803">
        <ele>323.6</ele>
        <time>1970-01-01T03:40:46.000Z</time>
      </trkpt>
      <trkpt lat="49.53302" lon="5.73806">
        <ele>323.6</ele>
        <time>1970-01-01T03:40:47.000Z</time>
      </trkpt>
      <trkpt lat="49.53303" lon="5.73809">
        <ele>323.6</ele>
        <time>1970-01-01T03:40:48.000Z</time>
      </trkpt>
      <trkpt lat="49.53303" lon="5.73813">
        <ele>323.6</ele>
        <time>1970-01-01T03:40:49.000Z</time>
      </trkpt>
      <trkpt lat="49.53303" lon="5.73817">
        <ele>323.6</ele>
        <time>1970-01-01T03:40:50.000Z</time>
      </trkpt>
      <trkpt lat="49.53303" lon="5.73821">
        <ele>323.8</ele>
        <time>1970-01-01T03:40:51.000Z</time>
      </trkpt>
      <trkpt lat="49.53303" lon="5.73826">
        <ele>323.8</ele>
        <time>1970-01-01T03:40:52.000Z</time>
      </trkpt>
      <trkpt lat="49.53303" lon="5.7383">
        <ele>323.8</ele>
        <time>1970-01-01T03:40:53.000Z</time>
      </trkpt>
      <trkpt lat="49.53304" lon="5.73835">
        <ele>323.8</ele>
        <time>1970-01-01T03:40:54.000Z</time>
      </trkpt>
      <trkpt lat="49.53304" lon="5.73839">
        <ele>323.8</ele>
        <time>1970-01-01T03:40:55.000Z</time>
      </trkpt>
      <trkpt lat="49.53307" lon="5.73853">
        <ele>323.8</ele>
        <time>1970-01-01T03:40:58.000Z</time>
      </trkpt>
      <trkpt lat="49.53307" lon="5.73857">
        <ele>323.8</ele>
        <time>1970-01-01T03:40:59.000Z</time>
      </trkpt>
      <trkpt lat="49.53308" lon="5.73872">
        <ele>324</ele>
        <time>1970-01-01T03:41:02.000Z</time>
      </trkpt>
      <trkpt lat="49.53309" lon="5.73877">
        <ele>324.2</ele>
        <time>1970-01-01T03:41:03.000Z</time>
      </trkpt>
      <trkpt lat="49.5331" lon="5.73882">
        <ele>324.2</ele>
        <time>1970-01-01T03:41:04.000Z</time>
      </trkpt>
      <trkpt lat="49.53312" lon="5.73903">
        <ele>324.4</ele>
        <time>1970-01-01T03:41:08.000Z</time>
      </trkpt>
      <trkpt lat="49.53313" lon="5.73907">
        <ele>324.4</ele>
        <time>1970-01-01T03:41:09.000Z</time>
      </trkpt>
      <trkpt lat="49.53315" lon="5.73912">
        <ele>324.6</ele>
        <time>1970-01-01T03:41:10.000Z</time>
      </trkpt>
      <trkpt lat="49.53317" lon="5.73917">
        <ele>324.6</ele>
        <time>1970-01-01T03:41:11.000Z</time>
      </trkpt>
      <trkpt lat="49.53319" lon="5.73922">
        <ele>324.6</ele>
        <time>1970-01-01T03:41:12.000Z</time>
      </trkpt>
      <trkpt lat="49.5332" lon="5.73932">
        <ele>325</ele>
        <time>1970-01-01T03:41:14.000Z</time>
      </trkpt>
      <trkpt lat="49.53323" lon="5.73941">
        <ele>325.2</ele>
        <time>1970-01-01T03:41:16.000Z</time>
      </trkpt>
      <trkpt lat="49.53326" lon="5.73946">
        <ele>325.2</ele>
        <time>1970-01-01T03:41:17.000Z</time>
      </trkpt>
      <trkpt lat="49.53327" lon="5.7395">
        <ele>325.4</ele>
        <time>1970-01-01T03:41:18.000Z</time>
      </trkpt>
      <trkpt lat="49.53328" lon="5.73954">
        <ele>325.6</ele>
        <time>1970-01-01T03:41:19.000Z</time>
      </trkpt>
      <trkpt lat="49.53331" lon="5.73967">
        <ele>326.4</ele>
        <time>1970-01-01T03:41:22.000Z</time>
      </trkpt>
      <trkpt lat="49.53332" lon="5.73975">
        <ele>326.8</ele>
        <time>1970-01-01T03:41:23.000Z</time>
      </trkpt>
      <trkpt lat="49.53333" lon="5.73983">
        <ele>327</ele>
        <time>1970-01-01T03:41:24.000Z</time>
      </trkpt>
      <trkpt lat="49.53336" lon="5.7399">
        <ele>327.2</ele>
        <time>1970-01-01T03:41:25.000Z</time>
      </trkpt>
      <trkpt lat="49.53339" lon="5.73994">
        <ele>327.4</ele>
        <time>1970-01-01T03:41:26.000Z</time>
      </trkpt>
      <trkpt lat="49.53341" lon="5.73998">
        <ele>327.4</ele>
        <time>1970-01-01T03:41:27.000Z</time>
      </trkpt>
      <trkpt lat="49.53342" lon="5.74005">
        <ele>327.4</ele>
        <time>1970-01-01T03:41:28.000Z</time>
      </trkpt>
      <trkpt lat="49.53341" lon="5.7401">
        <ele>327.4</ele>
        <time>1970-01-01T03:41:29.000Z</time>
      </trkpt>
      <trkpt lat="49.53342" lon="5.74013">
        <ele>327.4</ele>
        <time>1970-01-01T03:41:30.000Z</time>
      </trkpt>
      <trkpt lat="49.53344" lon="5.74016">
        <ele>327.6</ele>
        <time>1970-01-01T03:41:31.000Z</time>
      </trkpt>
      <trkpt lat="49.53349" lon="5.7402">
        <ele>327.6</ele>
        <time>1970-01-01T03:41:32.000Z</time>
      </trkpt>
      <trkpt lat="49.53352" lon="5.74027">
        <ele>327.6</ele>
        <time>1970-01-01T03:41:33.000Z</time>
      </trkpt>
      <trkpt lat="49.53353" lon="5.74032">
        <ele>327.6</ele>
        <time>1970-01-01T03:41:34.000Z</time>
      </trkpt>
      <trkpt lat="49.53354" lon="5.7404">
        <ele>327.6</ele>
        <time>1970-01-01T03:41:35.000Z</time>
      </trkpt>
      <trkpt lat="49.53353" lon="5.74042">
        <ele>327.6</ele>
        <time>1970-01-01T03:41:36.000Z</time>
      </trkpt>
      <trkpt lat="49.53354" lon="5.74044">
        <ele>327.6</ele>
        <time>1970-01-01T03:41:37.000Z</time>
      </trkpt>
      <trkpt lat="49.53356" lon="5.74046">
        <ele>327.6</ele>
        <time>1970-01-01T03:41:38.000Z</time>
      </trkpt>
      <trkpt lat="49.53357" lon="5.74049">
        <ele>327.6</ele>
        <time>1970-01-01T03:41:39.000Z</time>
      </trkpt>
      <trkpt lat="49.53359" lon="5.74052">
        <ele>327.8</ele>
        <time>1970-01-01T03:41:40.000Z</time>
      </trkpt>
      <trkpt lat="49.5336" lon="5.74056">
        <ele>327.8</ele>
        <time>1970-01-01T03:41:41.000Z</time>
      </trkpt>
      <trkpt lat="49.53363" lon="5.74061">
        <ele>327.8</ele>
        <time>1970-01-01T03:41:42.000Z</time>
      </trkpt>
      <trkpt lat="49.53361" lon="5.74066">
        <ele>327.8</ele>
        <time>1970-01-01T03:41:43.000Z</time>
      </trkpt>
      <trkpt lat="49.53363" lon="5.74075">
        <ele>327.8</ele>
        <time>1970-01-01T03:41:45.000Z</time>
      </trkpt>
      <trkpt lat="49.53367" lon="5.74083">
        <ele>327.8</ele>
        <time>1970-01-01T03:41:47.000Z</time>
      </trkpt>
      <trkpt lat="49.53369" lon="5.74087">
        <ele>327.6</ele>
        <time>1970-01-01T03:41:48.000Z</time>
      </trkpt>
      <trkpt lat="49.53374" lon="5.74099">
        <ele>327.6</ele>
        <time>1970-01-01T03:41:50.000Z</time>
      </trkpt>
      <trkpt lat="49.53375" lon="5.74105">
        <ele>327.6</ele>
        <time>1970-01-01T03:41:51.000Z</time>
      </trkpt>
      <trkpt lat="49.53377" lon="5.7411">
        <ele>327.6</ele>
        <time>1970-01-01T03:41:52.000Z</time>
      </trkpt>
      <trkpt lat="49.53377" lon="5.74113">
        <ele>327.4</ele>
        <time>1970-01-01T03:41:53.000Z</time>
      </trkpt>
      <trkpt lat="49.53377" lon="5.74118">
        <ele>327.4</ele>
        <time>1970-01-01T03:41:54.000Z</time>
      </trkpt>
      <trkpt lat="49.5338" lon="5.74122">
        <ele>327.2</ele>
        <time>1970-01-01T03:41:55.000Z</time>
      </trkpt>
      <trkpt lat="49.53382" lon="5.74127">
        <ele>327.2</ele>
        <time>1970-01-01T03:41:56.000Z</time>
      </trkpt>
      <trkpt lat="49.53384" lon="5.74133">
        <ele>327.4</ele>
        <time>1970-01-01T03:41:57.000Z</time>
      </trkpt>
      <trkpt lat="49.53386" lon="5.74141">
        <ele>327.4</ele>
        <time>1970-01-01T03:41:58.000Z</time>
      </trkpt>
      <trkpt lat="49.53387" lon="5.74149">
        <ele>327.4</ele>
        <time>1970-01-01T03:41:59.000Z</time>
      </trkpt>
      <trkpt lat="49.53385" lon="5.74155">
        <ele>327.4</ele>
        <time>1970-01-01T03:42:00.000Z</time>
      </trkpt>
      <trkpt lat="49.53384" lon="5.7416">
        <ele>327.6</ele>
        <time>1970-01-01T03:42:01.000Z</time>
      </trkpt>
      <trkpt lat="49.53387" lon="5.74169">
        <ele>327.8</ele>
        <time>1970-01-01T03:42:03.000Z</time>
      </trkpt>
      <trkpt lat="49.53388" lon="5.74172">
        <ele>327.8</ele>
        <time>1970-01-01T03:42:04.000Z</time>
      </trkpt>
      <trkpt lat="49.53389" lon="5.74176">
        <ele>327.8</ele>
        <time>1970-01-01T03:42:05.000Z</time>
      </trkpt>
      <trkpt lat="49.5339" lon="5.74181">
        <ele>327.8</ele>
        <time>1970-01-01T03:42:06.000Z</time>
      </trkpt>
      <trkpt lat="49.5339" lon="5.74186">
        <ele>327.8</ele>
        <time>1970-01-01T03:42:07.000Z</time>
      </trkpt>
      <trkpt lat="49.53389" lon="5.7419">
        <ele>328</ele>
        <time>1970-01-01T03:42:08.000Z</time>
      </trkpt>
      <trkpt lat="49.53389" lon="5.74194">
        <ele>328</ele>
        <time>1970-01-01T03:42:09.000Z</time>
      </trkpt>
      <trkpt lat="49.53389" lon="5.74213">
        <ele>328.2</ele>
        <time>1970-01-01T03:42:12.000Z</time>
      </trkpt>
      <trkpt lat="49.53392" lon="5.74219">
        <ele>328.2</ele>
        <time>1970-01-01T03:42:13.000Z</time>
      </trkpt>
      <trkpt lat="49.53395" lon="5.74223">
        <ele>328.2</ele>
        <time>1970-01-01T03:42:14.000Z</time>
      </trkpt>
      <trkpt lat="49.53398" lon="5.74225">
        <ele>328.2</ele>
        <time>1970-01-01T03:42:15.000Z</time>
      </trkpt>
      <trkpt lat="49.534" lon="5.74228">
        <ele>328.2</ele>
        <time>1970-01-01T03:42:16.000Z</time>
      </trkpt>
      <trkpt lat="49.53403" lon="5.7423">
        <ele>328</ele>
        <time>1970-01-01T03:42:17.000Z</time>
      </trkpt>
      <trkpt lat="49.53405" lon="5.74232">
        <ele>327.6</ele>
        <time>1970-01-01T03:42:18.000Z</time>
      </trkpt>
      <trkpt lat="49.53406" lon="5.74233">
        <ele>327.2</ele>
        <time>1970-01-01T03:42:19.000Z</time>
      </trkpt>
      <trkpt lat="49.53409" lon="5.74234">
        <ele>326.8</ele>
        <time>1970-01-01T03:42:20.000Z</time>
      </trkpt>
      <trkpt lat="49.53412" lon="5.74233">
        <ele>326.6</ele>
        <time>1970-01-01T03:42:21.000Z</time>
      </trkpt>
      <trkpt lat="49.53413" lon="5.74232">
        <ele>326</ele>
        <time>1970-01-01T03:42:22.000Z</time>
      </trkpt>
      <trkpt lat="49.53415" lon="5.74229">
        <ele>325.2</ele>
        <time>1970-01-01T03:42:25.000Z</time>
      </trkpt>
      <trkpt lat="49.53415" lon="5.74229">
        <ele>324.6</ele>
        <time>1970-01-01T03:42:26.000Z</time>
      </trkpt>
      <trkpt lat="49.53415" lon="5.74229">
        <ele>324</ele>
        <time>1970-01-01T03:42:27.000Z</time>
      </trkpt>
      <trkpt lat="49.53418" lon="5.7423">
        <ele>323.6</ele>
        <time>1970-01-01T03:42:28.000Z</time>
      </trkpt>
      <trkpt lat="49.53421" lon="5.74233">
        <ele>322.6</ele>
        <time>1970-01-01T03:42:29.000Z</time>
      </trkpt>
      <trkpt lat="49.5342" lon="5.74236">
        <ele>322.4</ele>
        <time>1970-01-01T03:42:30.000Z</time>
      </trkpt>
      <trkpt lat="49.53422" lon="5.74239">
        <ele>322</ele>
        <time>1970-01-01T03:42:31.000Z</time>
      </trkpt>
      <trkpt lat="49.53423" lon="5.74243">
        <ele>322</ele>
        <time>1970-01-01T03:42:32.000Z</time>
      </trkpt>
      <trkpt lat="49.53425" lon="5.74246">
        <ele>321.8</ele>
        <time>1970-01-01T03:42:33.000Z</time>
      </trkpt>
      <trkpt lat="49.53426" lon="5.7425">
        <ele>321.8</ele>
        <time>1970-01-01T03:42:34.000Z</time>
      </trkpt>
      <trkpt lat="49.53428" lon="5.74254">
        <ele>321.6</ele>
        <time>1970-01-01T03:42:35.000Z</time>
      </trkpt>
      <trkpt lat="49.5343" lon="5.74257">
        <ele>321.6</ele>
        <time>1970-01-01T03:42:36.000Z</time>
      </trkpt>
      <trkpt lat="49.53444" lon="5.74276">
        <ele>322</ele>
        <time>1970-01-01T03:42:40.000Z</time>
      </trkpt>
      <trkpt lat="49.53449" lon="5.74286">
        <ele>322</ele>
        <time>1970-01-01T03:42:42.000Z</time>
      </trkpt>
      <trkpt lat="49.53459" lon="5.74311">
        <ele>322</ele>
        <time>1970-01-01T03:42:47.000Z</time>
      </trkpt>
      <trkpt lat="49.53463" lon="5.74314">
        <ele>322.2</ele>
        <time>1970-01-01T03:42:48.000Z</time>
      </trkpt>
      <trkpt lat="49.53466" lon="5.74318">
        <ele>322.2</ele>
        <time>1970-01-01T03:42:49.000Z</time>
      </trkpt>
      <trkpt lat="49.53469" lon="5.74321">
        <ele>322.2</ele>
        <time>1970-01-01T03:42:50.000Z</time>
      </trkpt>
      <trkpt lat="49.53471" lon="5.74324">
        <ele>322.4</ele>
        <time>1970-01-01T03:42:51.000Z</time>
      </trkpt>
      <trkpt lat="49.53473" lon="5.74328">
        <ele>322.4</ele>
        <time>1970-01-01T03:42:52.000Z</time>
      </trkpt>
      <trkpt lat="49.53476" lon="5.74333">
        <ele>322.6</ele>
        <time>1970-01-01T03:42:53.000Z</time>
      </trkpt>
      <trkpt lat="49.53479" lon="5.74337">
        <ele>322.6</ele>
        <time>1970-01-01T03:42:54.000Z</time>
      </trkpt>
      <trkpt lat="49.53482" lon="5.74347">
        <ele>322.6</ele>
        <time>1970-01-01T03:42:56.000Z</time>
      </trkpt>
      <trkpt lat="49.53483" lon="5.74351">
        <ele>322.6</ele>
        <time>1970-01-01T03:42:57.000Z</time>
      </trkpt>
      <trkpt lat="49.53484" lon="5.74355">
        <ele>322.6</ele>
        <time>1970-01-01T03:42:58.000Z</time>
      </trkpt>
      <trkpt lat="49.53487" lon="5.74366">
        <ele>322.6</ele>
        <time>1970-01-01T03:43:00.000Z</time>
      </trkpt>
      <trkpt lat="49.53488" lon="5.74369">
        <ele>322.6</ele>
        <time>1970-01-01T03:43:01.000Z</time>
      </trkpt>
      <trkpt lat="49.53489" lon="5.74372">
        <ele>322.8</ele>
        <time>1970-01-01T03:43:02.000Z</time>
      </trkpt>
      <trkpt lat="49.53491" lon="5.74374">
        <ele>322.8</ele>
        <time>1970-01-01T03:43:03.000Z</time>
      </trkpt>
      <trkpt lat="49.53494" lon="5.74386">
        <ele>323</ele>
        <time>1970-01-01T03:43:06.000Z</time>
      </trkpt>
      <trkpt lat="49.53495" lon="5.74391">
        <ele>323</ele>
        <time>1970-01-01T03:43:07.000Z</time>
      </trkpt>
      <trkpt lat="49.53497" lon="5.74395">
        <ele>323</ele>
        <time>1970-01-01T03:43:08.000Z</time>
      </trkpt>
      <trkpt lat="49.53501" lon="5.74402">
        <ele>323.2</ele>
        <time>1970-01-01T03:43:10.000Z</time>
      </trkpt>
      <trkpt lat="49.53503" lon="5.74405">
        <ele>323.2</ele>
        <time>1970-01-01T03:43:11.000Z</time>
      </trkpt>
      <trkpt lat="49.53506" lon="5.7441">
        <ele>323.2</ele>
        <time>1970-01-01T03:43:12.000Z</time>
      </trkpt>
      <trkpt lat="49.53507" lon="5.74415">
        <ele>323.4</ele>
        <time>1970-01-01T03:43:13.000Z</time>
      </trkpt>
      <trkpt lat="49.53508" lon="5.7442">
        <ele>323.6</ele>
        <time>1970-01-01T03:43:14.000Z</time>
      </trkpt>
      <trkpt lat="49.53512" lon="5.74433">
        <ele>324.4</ele>
        <time>1970-01-01T03:43:17.000Z</time>
      </trkpt>
      <trkpt lat="49.53513" lon="5.74436">
        <ele>324.6</ele>
        <time>1970-01-01T03:43:18.000Z</time>
      </trkpt>
      <trkpt lat="49.53515" lon="5.7444">
        <ele>325</ele>
        <time>1970-01-01T03:43:19.000Z</time>
      </trkpt>
      <trkpt lat="49.53518" lon="5.7445">
        <ele>325</ele>
        <time>1970-01-01T03:43:21.000Z</time>
      </trkpt>
      <trkpt lat="49.53519" lon="5.74454">
        <ele>325</ele>
        <time>1970-01-01T03:43:22.000Z</time>
      </trkpt>
      <trkpt lat="49.53523" lon="5.74463">
        <ele>325</ele>
        <time>1970-01-01T03:43:24.000Z</time>
      </trkpt>
      <trkpt lat="49.53526" lon="5.74468">
        <ele>325</ele>
        <time>1970-01-01T03:43:25.000Z</time>
      </trkpt>
      <trkpt lat="49.53527" lon="5.74472">
        <ele>325</ele>
        <time>1970-01-01T03:43:26.000Z</time>
      </trkpt>
      <trkpt lat="49.53528" lon="5.74477">
        <ele>325.2</ele>
        <time>1970-01-01T03:43:27.000Z</time>
      </trkpt>
      <trkpt lat="49.53528" lon="5.74482">
        <ele>325.2</ele>
        <time>1970-01-01T03:43:28.000Z</time>
      </trkpt>
      <trkpt lat="49.53528" lon="5.74486">
        <ele>325.2</ele>
        <time>1970-01-01T03:43:29.000Z</time>
      </trkpt>
      <trkpt lat="49.5353" lon="5.74492">
        <ele>325.2</ele>
        <time>1970-01-01T03:43:30.000Z</time>
      </trkpt>
      <trkpt lat="49.53531" lon="5.74495">
        <ele>325.2</ele>
        <time>1970-01-01T03:43:31.000Z</time>
      </trkpt>
      <trkpt lat="49.53533" lon="5.74498">
        <ele>325.4</ele>
        <time>1970-01-01T03:43:32.000Z</time>
      </trkpt>
      <trkpt lat="49.53533" lon="5.74502">
        <ele>325.4</ele>
        <time>1970-01-01T03:43:33.000Z</time>
      </trkpt>
      <trkpt lat="49.53536" lon="5.74509">
        <ele>325.4</ele>
        <time>1970-01-01T03:43:34.000Z</time>
      </trkpt>
      <trkpt lat="49.53538" lon="5.74515">
        <ele>325.4</ele>
        <time>1970-01-01T03:43:35.000Z</time>
      </trkpt>
      <trkpt lat="49.53539" lon="5.74522">
        <ele>325.4</ele>
        <time>1970-01-01T03:43:36.000Z</time>
      </trkpt>
      <trkpt lat="49.53541" lon="5.74531">
        <ele>325.6</ele>
        <time>1970-01-01T03:43:38.000Z</time>
      </trkpt>
      <trkpt lat="49.5354" lon="5.74536">
        <ele>325.6</ele>
        <time>1970-01-01T03:43:39.000Z</time>
      </trkpt>
      <trkpt lat="49.53541" lon="5.74544">
        <ele>325.8</ele>
        <time>1970-01-01T03:43:40.000Z</time>
      </trkpt>
      <trkpt lat="49.53543" lon="5.74549">
        <ele>325.8</ele>
        <time>1970-01-01T03:43:41.000Z</time>
      </trkpt>
      <trkpt lat="49.53545" lon="5.74552">
        <ele>325.8</ele>
        <time>1970-01-01T03:43:42.000Z</time>
      </trkpt>
      <trkpt lat="49.53546" lon="5.74555">
        <ele>325.8</ele>
        <time>1970-01-01T03:43:43.000Z</time>
      </trkpt>
      <trkpt lat="49.53548" lon="5.74556">
        <ele>325.8</ele>
        <time>1970-01-01T03:43:44.000Z</time>
      </trkpt>
      <trkpt lat="49.53549" lon="5.74559">
        <ele>326</ele>
        <time>1970-01-01T03:43:45.000Z</time>
      </trkpt>
      <trkpt lat="49.53548" lon="5.74563">
        <ele>326.2</ele>
        <time>1970-01-01T03:43:46.000Z</time>
      </trkpt>
      <trkpt lat="49.53549" lon="5.74576">
        <ele>327.2</ele>
        <time>1970-01-01T03:43:50.000Z</time>
      </trkpt>
      <trkpt lat="49.53549" lon="5.74579">
        <ele>327.4</ele>
        <time>1970-01-01T03:43:51.000Z</time>
      </trkpt>
      <trkpt lat="49.5355" lon="5.74586">
        <ele>327.6</ele>
        <time>1970-01-01T03:43:53.000Z</time>
      </trkpt>
      <trkpt lat="49.53551" lon="5.74589">
        <ele>327.6</ele>
        <time>1970-01-01T03:43:54.000Z</time>
      </trkpt>
      <trkpt lat="49.53551" lon="5.74593">
        <ele>327.8</ele>
        <time>1970-01-01T03:43:55.000Z</time>
      </trkpt>
      <trkpt lat="49.53551" lon="5.74596">
        <ele>327.8</ele>
        <time>1970-01-01T03:43:56.000Z</time>
      </trkpt>
      <trkpt lat="49.5355" lon="5.74601">
        <ele>328</ele>
        <time>1970-01-01T03:43:57.000Z</time>
      </trkpt>
      <trkpt lat="49.53549" lon="5.74605">
        <ele>328</ele>
        <time>1970-01-01T03:43:58.000Z</time>
      </trkpt>
      <trkpt lat="49.53549" lon="5.74609">
        <ele>328</ele>
        <time>1970-01-01T03:43:59.000Z</time>
      </trkpt>
      <trkpt lat="49.53549" lon="5.74612">
        <ele>328.2</ele>
        <time>1970-01-01T03:44:00.000Z</time>
      </trkpt>
      <trkpt lat="49.5355" lon="5.74616">
        <ele>328.4</ele>
        <time>1970-01-01T03:44:01.000Z</time>
      </trkpt>
      <trkpt lat="49.5355" lon="5.74621">
        <ele>328.4</ele>
        <time>1970-01-01T03:44:02.000Z</time>
      </trkpt>
      <trkpt lat="49.53549" lon="5.74624">
        <ele>328.6</ele>
        <time>1970-01-01T03:44:03.000Z</time>
      </trkpt>
      <trkpt lat="49.53549" lon="5.74628">
        <ele>328.6</ele>
        <time>1970-01-01T03:44:04.000Z</time>
      </trkpt>
      <trkpt lat="49.53548" lon="5.74632">
        <ele>328.8</ele>
        <time>1970-01-01T03:44:05.000Z</time>
      </trkpt>
      <trkpt lat="49.53548" lon="5.74636">
        <ele>329</ele>
        <time>1970-01-01T03:44:06.000Z</time>
      </trkpt>
      <trkpt lat="49.53548" lon="5.7464">
        <ele>329.2</ele>
        <time>1970-01-01T03:44:07.000Z</time>
      </trkpt>
      <trkpt lat="49.53547" lon="5.74643">
        <ele>329.4</ele>
        <time>1970-01-01T03:44:08.000Z</time>
      </trkpt>
      <trkpt lat="49.53547" lon="5.74649">
        <ele>329.6</ele>
        <time>1970-01-01T03:44:09.000Z</time>
      </trkpt>
      <trkpt lat="49.53547" lon="5.74652">
        <ele>329.6</ele>
        <time>1970-01-01T03:44:10.000Z</time>
      </trkpt>
      <trkpt lat="49.53546" lon="5.74656">
        <ele>329.8</ele>
        <time>1970-01-01T03:44:11.000Z</time>
      </trkpt>
      <trkpt lat="49.53544" lon="5.74663">
        <ele>329.8</ele>
        <time>1970-01-01T03:44:12.000Z</time>
      </trkpt>
      <trkpt lat="49.53545" lon="5.74668">
        <ele>330</ele>
        <time>1970-01-01T03:44:13.000Z</time>
      </trkpt>
      <trkpt lat="49.53545" lon="5.74673">
        <ele>330.2</ele>
        <time>1970-01-01T03:44:14.000Z</time>
      </trkpt>
      <trkpt lat="49.53545" lon="5.74678">
        <ele>330.2</ele>
        <time>1970-01-01T03:44:15.000Z</time>
      </trkpt>
      <trkpt lat="49.53544" lon="5.74681">
        <ele>330.2</ele>
        <time>1970-01-01T03:44:16.000Z</time>
      </trkpt>
      <trkpt lat="49.53544" lon="5.74683">
        <ele>330.2</ele>
        <time>1970-01-01T03:44:17.000Z</time>
      </trkpt>
      <trkpt lat="49.53545" lon="5.74686">
        <ele>330.4</ele>
        <time>1970-01-01T03:44:18.000Z</time>
      </trkpt>
      <trkpt lat="49.53547" lon="5.7469">
        <ele>330.6</ele>
        <time>1970-01-01T03:44:19.000Z</time>
      </trkpt>
      <trkpt lat="49.53549" lon="5.74694">
        <ele>330.6</ele>
        <time>1970-01-01T03:44:20.000Z</time>
      </trkpt>
      <trkpt lat="49.5355" lon="5.74698">
        <ele>330.8</ele>
        <time>1970-01-01T03:44:21.000Z</time>
      </trkpt>
      <trkpt lat="49.5355" lon="5.74702">
        <ele>331.2</ele>
        <time>1970-01-01T03:44:22.000Z</time>
      </trkpt>
      <trkpt lat="49.5355" lon="5.74708">
        <ele>331.4</ele>
        <time>1970-01-01T03:44:23.000Z</time>
      </trkpt>
      <trkpt lat="49.53552" lon="5.74711">
        <ele>331.4</ele>
        <time>1970-01-01T03:44:24.000Z</time>
      </trkpt>
      <trkpt lat="49.53553" lon="5.74713">
        <ele>331.4</ele>
        <time>1970-01-01T03:44:25.000Z</time>
      </trkpt>
      <trkpt lat="49.53554" lon="5.74717">
        <ele>331.6</ele>
        <time>1970-01-01T03:44:26.000Z</time>
      </trkpt>
      <trkpt lat="49.53556" lon="5.7472">
        <ele>331.8</ele>
        <time>1970-01-01T03:44:27.000Z</time>
      </trkpt>
      <trkpt lat="49.53558" lon="5.74722">
        <ele>331.8</ele>
        <time>1970-01-01T03:44:28.000Z</time>
      </trkpt>
      <trkpt lat="49.5356" lon="5.74725">
        <ele>331.8</ele>
        <time>1970-01-01T03:44:29.000Z</time>
      </trkpt>
      <trkpt lat="49.53562" lon="5.74728">
        <ele>331.8</ele>
        <time>1970-01-01T03:44:30.000Z</time>
      </trkpt>
      <trkpt lat="49.53564" lon="5.7473">
        <ele>331.8</ele>
        <time>1970-01-01T03:44:31.000Z</time>
      </trkpt>
      <trkpt lat="49.53567" lon="5.74732">
        <ele>332</ele>
        <time>1970-01-01T03:44:32.000Z</time>
      </trkpt>
      <trkpt lat="49.53568" lon="5.74735">
        <ele>332</ele>
        <time>1970-01-01T03:44:33.000Z</time>
      </trkpt>
      <trkpt lat="49.53571" lon="5.74736">
        <ele>332</ele>
        <time>1970-01-01T03:44:34.000Z</time>
      </trkpt>
      <trkpt lat="49.53574" lon="5.74739">
        <ele>332</ele>
        <time>1970-01-01T03:44:35.000Z</time>
      </trkpt>
      <trkpt lat="49.53577" lon="5.74741">
        <ele>332</ele>
        <time>1970-01-01T03:44:36.000Z</time>
      </trkpt>
      <trkpt lat="49.53578" lon="5.74744">
        <ele>332.2</ele>
        <time>1970-01-01T03:44:37.000Z</time>
      </trkpt>
      <trkpt lat="49.53579" lon="5.74749">
        <ele>332.2</ele>
        <time>1970-01-01T03:44:38.000Z</time>
      </trkpt>
      <trkpt lat="49.5358" lon="5.74755">
        <ele>332.4</ele>
        <time>1970-01-01T03:44:39.000Z</time>
      </trkpt>
      <trkpt lat="49.53582" lon="5.74759">
        <ele>332.4</ele>
        <time>1970-01-01T03:44:40.000Z</time>
      </trkpt>
      <trkpt lat="49.53584" lon="5.74761">
        <ele>332.6</ele>
        <time>1970-01-01T03:44:41.000Z</time>
      </trkpt>
      <trkpt lat="49.53583" lon="5.7477">
        <ele>333.6</ele>
        <time>1970-01-01T03:44:59.000Z</time>
      </trkpt>
      <trkpt lat="49.53583" lon="5.74774">
        <ele>333.6</ele>
        <time>1970-01-01T03:45:00.000Z</time>
      </trkpt>
      <trkpt lat="49.53583" lon="5.74777">
        <ele>333.6</ele>
        <time>1970-01-01T03:45:01.000Z</time>
      </trkpt>
      <trkpt lat="49.53582" lon="5.74779">
        <ele>333.6</ele>
        <time>1970-01-01T03:45:02.000Z</time>
      </trkpt>
      <trkpt lat="49.53582" lon="5.74786">
        <ele>333.8</ele>
        <time>1970-01-01T03:45:04.000Z</time>
      </trkpt>
      <trkpt lat="49.53583" lon="5.74789">
        <ele>334</ele>
        <time>1970-01-01T03:45:05.000Z</time>
      </trkpt>
      <trkpt lat="49.53585" lon="5.74791">
        <ele>334</ele>
        <time>1970-01-01T03:45:06.000Z</time>
      </trkpt>
      <trkpt lat="49.53587" lon="5.74793">
        <ele>334.2</ele>
        <time>1970-01-01T03:45:07.000Z</time>
      </trkpt>
      <trkpt lat="49.53588" lon="5.74796">
        <ele>334.6</ele>
        <time>1970-01-01T03:45:08.000Z</time>
      </trkpt>
      <trkpt lat="49.53589" lon="5.74798">
        <ele>334.6</ele>
        <time>1970-01-01T03:45:09.000Z</time>
      </trkpt>
      <trkpt lat="49.53592" lon="5.748">
        <ele>335.2</ele>
        <time>1970-01-01T03:45:10.000Z</time>
      </trkpt>
      <trkpt lat="49.536" lon="5.74807">
        <ele>335.6</ele>
        <time>1970-01-01T03:45:12.000Z</time>
      </trkpt>
      <trkpt lat="49.53607" lon="5.74815">
        <ele>336.2</ele>
        <time>1970-01-01T03:45:15.000Z</time>
      </trkpt>
      <trkpt lat="49.5361" lon="5.74817">
        <ele>336.2</ele>
        <time>1970-01-01T03:45:16.000Z</time>
      </trkpt>
      <trkpt lat="49.53613" lon="5.7482">
        <ele>336.2</ele>
        <time>1970-01-01T03:45:17.000Z</time>
      </trkpt>
      <trkpt lat="49.53616" lon="5.74825">
        <ele>336.2</ele>
        <time>1970-01-01T03:45:18.000Z</time>
      </trkpt>
      <trkpt lat="49.53619" lon="5.7483">
        <ele>336.4</ele>
        <time>1970-01-01T03:45:19.000Z</time>
      </trkpt>
      <trkpt lat="49.53619" lon="5.74836">
        <ele>336.4</ele>
        <time>1970-01-01T03:45:20.000Z</time>
      </trkpt>
      <trkpt lat="49.53621" lon="5.74843">
        <ele>336.4</ele>
        <time>1970-01-01T03:45:21.000Z</time>
      </trkpt>
      <trkpt lat="49.53624" lon="5.74849">
        <ele>336.4</ele>
        <time>1970-01-01T03:45:22.000Z</time>
      </trkpt>
      <trkpt lat="49.53627" lon="5.74853">
        <ele>336.4</ele>
        <time>1970-01-01T03:45:23.000Z</time>
      </trkpt>
      <trkpt lat="49.53628" lon="5.74857">
        <ele>336.6</ele>
        <time>1970-01-01T03:45:24.000Z</time>
      </trkpt>
      <trkpt lat="49.53633" lon="5.7486">
        <ele>336.6</ele>
        <time>1970-01-01T03:45:25.000Z</time>
      </trkpt>
      <trkpt lat="49.53636" lon="5.74866">
        <ele>336.6</ele>
        <time>1970-01-01T03:45:26.000Z</time>
      </trkpt>
      <trkpt lat="49.53638" lon="5.74872">
        <ele>336.8</ele>
        <time>1970-01-01T03:45:27.000Z</time>
      </trkpt>
      <trkpt lat="49.53641" lon="5.74875">
        <ele>336.8</ele>
        <time>1970-01-01T03:45:28.000Z</time>
      </trkpt>
      <trkpt lat="49.53646" lon="5.7488">
        <ele>336.8</ele>
        <time>1970-01-01T03:45:29.000Z</time>
      </trkpt>
      <trkpt lat="49.53648" lon="5.74883">
        <ele>336.8</ele>
        <time>1970-01-01T03:45:30.000Z</time>
      </trkpt>
      <trkpt lat="49.5365" lon="5.74885">
        <ele>337</ele>
        <time>1970-01-01T03:45:31.000Z</time>
      </trkpt>
      <trkpt lat="49.53652" lon="5.74888">
        <ele>337</ele>
        <time>1970-01-01T03:45:32.000Z</time>
      </trkpt>
      <trkpt lat="49.5366" lon="5.74904">
        <ele>337</ele>
        <time>1970-01-01T03:45:36.000Z</time>
      </trkpt>
      <trkpt lat="49.53664" lon="5.74911">
        <ele>337.4</ele>
        <time>1970-01-01T03:45:38.000Z</time>
      </trkpt>
      <trkpt lat="49.53665" lon="5.74914">
        <ele>337.4</ele>
        <time>1970-01-01T03:45:39.000Z</time>
      </trkpt>
      <trkpt lat="49.53666" lon="5.74917">
        <ele>337.6</ele>
        <time>1970-01-01T03:45:40.000Z</time>
      </trkpt>
      <trkpt lat="49.53666" lon="5.7492">
        <ele>337.8</ele>
        <time>1970-01-01T03:45:41.000Z</time>
      </trkpt>
      <trkpt lat="49.53668" lon="5.74923">
        <ele>337.8</ele>
        <time>1970-01-01T03:45:42.000Z</time>
      </trkpt>
      <trkpt lat="49.53669" lon="5.74928">
        <ele>337.8</ele>
        <time>1970-01-01T03:45:43.000Z</time>
      </trkpt>
      <trkpt lat="49.53672" lon="5.74931">
        <ele>338</ele>
        <time>1970-01-01T03:45:44.000Z</time>
      </trkpt>
      <trkpt lat="49.53674" lon="5.74934">
        <ele>338</ele>
        <time>1970-01-01T03:45:45.000Z</time>
      </trkpt>
      <trkpt lat="49.53675" lon="5.74937">
        <ele>338</ele>
        <time>1970-01-01T03:45:46.000Z</time>
      </trkpt>
      <trkpt lat="49.53678" lon="5.74946">
        <ele>338.2</ele>
        <time>1970-01-01T03:45:48.000Z</time>
      </trkpt>
      <trkpt lat="49.53683" lon="5.74954">
        <ele>338.4</ele>
        <time>1970-01-01T03:45:50.000Z</time>
      </trkpt>
      <trkpt lat="49.53687" lon="5.74959">
        <ele>338.6</ele>
        <time>1970-01-01T03:45:51.000Z</time>
      </trkpt>
      <trkpt lat="49.53689" lon="5.74964">
        <ele>338.8</ele>
        <time>1970-01-01T03:45:52.000Z</time>
      </trkpt>
      <trkpt lat="49.5369" lon="5.74968">
        <ele>338.8</ele>
        <time>1970-01-01T03:45:53.000Z</time>
      </trkpt>
      <trkpt lat="49.53692" lon="5.74973">
        <ele>338.8</ele>
        <time>1970-01-01T03:45:54.000Z</time>
      </trkpt>
      <trkpt lat="49.53695" lon="5.74977">
        <ele>339</ele>
        <time>1970-01-01T03:45:55.000Z</time>
      </trkpt>
      <trkpt lat="49.53698" lon="5.7498">
        <ele>339.2</ele>
        <time>1970-01-01T03:45:56.000Z</time>
      </trkpt>
      <trkpt lat="49.53699" lon="5.74983">
        <ele>339.2</ele>
        <time>1970-01-01T03:45:57.000Z</time>
      </trkpt>
      <trkpt lat="49.53702" lon="5.74986">
        <ele>339.4</ele>
        <time>1970-01-01T03:45:58.000Z</time>
      </trkpt>
      <trkpt lat="49.53704" lon="5.74989">
        <ele>339.6</ele>
        <time>1970-01-01T03:45:59.000Z</time>
      </trkpt>
      <trkpt lat="49.53706" lon="5.74994">
        <ele>339.6</ele>
        <time>1970-01-01T03:46:00.000Z</time>
      </trkpt>
      <trkpt lat="49.53707" lon="5.74997">
        <ele>339.8</ele>
        <time>1970-01-01T03:46:01.000Z</time>
      </trkpt>
      <trkpt lat="49.53708" lon="5.74997">
        <ele>339.8</ele>
        <time>1970-01-01T03:46:02.000Z</time>
      </trkpt>
      <trkpt lat="49.53708" lon="5.74997">
        <ele>340.2</ele>
        <time>1970-01-01T03:46:03.000Z</time>
      </trkpt>
      <trkpt lat="49.53707" lon="5.74999">
        <ele>340.4</ele>
        <time>1970-01-01T03:46:04.000Z</time>
      </trkpt>
      <trkpt lat="49.53708" lon="5.74999">
        <ele>340.6</ele>
        <time>1970-01-01T03:46:05.000Z</time>
      </trkpt>
      <trkpt lat="49.53708" lon="5.75">
        <ele>340.6</ele>
        <time>1970-01-01T03:46:06.000Z</time>
      </trkpt>
      <trkpt lat="49.5371" lon="5.75001">
        <ele>340.8</ele>
        <time>1970-01-01T03:46:07.000Z</time>
      </trkpt>
      <trkpt lat="49.5371" lon="5.75002">
        <ele>341</ele>
        <time>1970-01-01T03:46:08.000Z</time>
      </trkpt>
      <trkpt lat="49.5371" lon="5.75002">
        <ele>341</ele>
        <time>1970-01-01T03:46:09.000Z</time>
      </trkpt>
      <trkpt lat="49.53712" lon="5.75004">
        <ele>341.2</ele>
        <time>1970-01-01T03:46:12.000Z</time>
      </trkpt>
      <trkpt lat="49.53714" lon="5.75012">
        <ele>341.2</ele>
        <time>1970-01-01T03:46:13.000Z</time>
      </trkpt>
      <trkpt lat="49.53715" lon="5.75016">
        <ele>341</ele>
        <time>1970-01-01T03:46:14.000Z</time>
      </trkpt>
      <trkpt lat="49.53714" lon="5.75018">
        <ele>341</ele>
        <time>1970-01-01T03:46:15.000Z</time>
      </trkpt>
      <trkpt lat="49.53715" lon="5.75019">
        <ele>341</ele>
        <time>1970-01-01T03:46:16.000Z</time>
      </trkpt>
      <trkpt lat="49.53717" lon="5.75022">
        <ele>341.2</ele>
        <time>1970-01-01T03:46:17.000Z</time>
      </trkpt>
      <trkpt lat="49.53719" lon="5.75026">
        <ele>341.2</ele>
        <time>1970-01-01T03:46:18.000Z</time>
      </trkpt>
      <trkpt lat="49.5372" lon="5.75031">
        <ele>341.4</ele>
        <time>1970-01-01T03:46:19.000Z</time>
      </trkpt>
      <trkpt lat="49.53721" lon="5.75037">
        <ele>341.4</ele>
        <time>1970-01-01T03:46:20.000Z</time>
      </trkpt>
      <trkpt lat="49.53725" lon="5.75042">
        <ele>341.4</ele>
        <time>1970-01-01T03:46:21.000Z</time>
      </trkpt>
      <trkpt lat="49.53728" lon="5.75045">
        <ele>341.4</ele>
        <time>1970-01-01T03:46:22.000Z</time>
      </trkpt>
      <trkpt lat="49.53732" lon="5.7505">
        <ele>341.6</ele>
        <time>1970-01-01T03:46:23.000Z</time>
      </trkpt>
      <trkpt lat="49.53735" lon="5.75051">
        <ele>341.6</ele>
        <time>1970-01-01T03:46:24.000Z</time>
      </trkpt>
      <trkpt lat="49.53741" lon="5.75059">
        <ele>341.8</ele>
        <time>1970-01-01T03:46:26.000Z</time>
      </trkpt>
      <trkpt lat="49.53742" lon="5.75064">
        <ele>342</ele>
        <time>1970-01-01T03:46:27.000Z</time>
      </trkpt>
      <trkpt lat="49.53744" lon="5.75066">
        <ele>342.2</ele>
        <time>1970-01-01T03:46:28.000Z</time>
      </trkpt>
      <trkpt lat="49.53745" lon="5.7507">
        <ele>342.2</ele>
        <time>1970-01-01T03:46:29.000Z</time>
      </trkpt>
      <trkpt lat="49.53747" lon="5.75072">
        <ele>342.4</ele>
        <time>1970-01-01T03:46:30.000Z</time>
      </trkpt>
      <trkpt lat="49.53749" lon="5.75075">
        <ele>342.6</ele>
        <time>1970-01-01T03:46:31.000Z</time>
      </trkpt>
      <trkpt lat="49.53754" lon="5.75078">
        <ele>343</ele>
        <time>1970-01-01T03:46:32.000Z</time>
      </trkpt>
      <trkpt lat="49.53758" lon="5.75082">
        <ele>343.2</ele>
        <time>1970-01-01T03:46:33.000Z</time>
      </trkpt>
      <trkpt lat="49.53763" lon="5.75093">
        <ele>343.6</ele>
        <time>1970-01-01T03:46:35.000Z</time>
      </trkpt>
      <trkpt lat="49.53764" lon="5.75095">
        <ele>343.8</ele>
        <time>1970-01-01T03:46:36.000Z</time>
      </trkpt>
      <trkpt lat="49.53766" lon="5.75098">
        <ele>344</ele>
        <time>1970-01-01T03:46:37.000Z</time>
      </trkpt>
      <trkpt lat="49.53767" lon="5.75103">
        <ele>344</ele>
        <time>1970-01-01T03:46:38.000Z</time>
      </trkpt>
      <trkpt lat="49.53767" lon="5.75108">
        <ele>344.2</ele>
        <time>1970-01-01T03:46:39.000Z</time>
      </trkpt>
      <trkpt lat="49.53768" lon="5.7511">
        <ele>344.2</ele>
        <time>1970-01-01T03:46:40.000Z</time>
      </trkpt>
      <trkpt lat="49.53769" lon="5.75113">
        <ele>344</ele>
        <time>1970-01-01T03:46:41.000Z</time>
      </trkpt>
      <trkpt lat="49.53769" lon="5.75114">
        <ele>344.2</ele>
        <time>1970-01-01T03:46:42.000Z</time>
      </trkpt>
      <trkpt lat="49.53769" lon="5.75114">
        <ele>344.2</ele>
        <time>1970-01-01T03:46:43.000Z</time>
      </trkpt>
      <trkpt lat="49.53769" lon="5.75119">
        <ele>344.2</ele>
        <time>1970-01-01T03:46:44.000Z</time>
      </trkpt>
      <trkpt lat="49.53769" lon="5.75119">
        <ele>344.4</ele>
        <time>1970-01-01T03:46:45.000Z</time>
      </trkpt>
      <trkpt lat="49.5377" lon="5.7512">
        <ele>344.4</ele>
        <time>1970-01-01T03:46:46.000Z</time>
      </trkpt>
      <trkpt lat="49.53771" lon="5.75122">
        <ele>344.4</ele>
        <time>1970-01-01T03:46:47.000Z</time>
      </trkpt>
      <trkpt lat="49.53772" lon="5.75122">
        <ele>344.6</ele>
        <time>1970-01-01T03:46:48.000Z</time>
      </trkpt>
      <trkpt lat="49.53772" lon="5.75124">
        <ele>344.6</ele>
        <time>1970-01-01T03:46:49.000Z</time>
      </trkpt>
      <trkpt lat="49.53774" lon="5.75125">
        <ele>344.8</ele>
        <time>1970-01-01T03:46:50.000Z</time>
      </trkpt>
      <trkpt lat="49.53777" lon="5.75126">
        <ele>344.8</ele>
        <time>1970-01-01T03:46:51.000Z</time>
      </trkpt>
      <trkpt lat="49.53778" lon="5.75129">
        <ele>344.8</ele>
        <time>1970-01-01T03:46:52.000Z</time>
      </trkpt>
      <trkpt lat="49.53781" lon="5.75131">
        <ele>344.8</ele>
        <time>1970-01-01T03:46:53.000Z</time>
      </trkpt>
      <trkpt lat="49.53782" lon="5.75136">
        <ele>345</ele>
        <time>1970-01-01T03:46:54.000Z</time>
      </trkpt>
      <trkpt lat="49.53783" lon="5.75139">
        <ele>345</ele>
        <time>1970-01-01T03:46:55.000Z</time>
      </trkpt>
      <trkpt lat="49.53785" lon="5.75141">
        <ele>345</ele>
        <time>1970-01-01T03:46:56.000Z</time>
      </trkpt>
      <trkpt lat="49.53787" lon="5.75143">
        <ele>345.2</ele>
        <time>1970-01-01T03:46:57.000Z</time>
      </trkpt>
      <trkpt lat="49.53788" lon="5.75145">
        <ele>345.2</ele>
        <time>1970-01-01T03:46:58.000Z</time>
      </trkpt>
      <trkpt lat="49.53789" lon="5.75148">
        <ele>345.4</ele>
        <time>1970-01-01T03:46:59.000Z</time>
      </trkpt>
      <trkpt lat="49.53789" lon="5.7515">
        <ele>345.6</ele>
        <time>1970-01-01T03:47:00.000Z</time>
      </trkpt>
      <trkpt lat="49.53789" lon="5.75153">
        <ele>345.6</ele>
        <time>1970-01-01T03:47:01.000Z</time>
      </trkpt>
      <trkpt lat="49.53787" lon="5.75158">
        <ele>345.8</ele>
        <time>1970-01-01T03:47:02.000Z</time>
      </trkpt>
      <trkpt lat="49.53788" lon="5.75164">
        <ele>345.8</ele>
        <time>1970-01-01T03:47:03.000Z</time>
      </trkpt>
      <trkpt lat="49.53788" lon="5.75167">
        <ele>345.8</ele>
        <time>1970-01-01T03:47:04.000Z</time>
      </trkpt>
      <trkpt lat="49.53789" lon="5.75172">
        <ele>346</ele>
        <time>1970-01-01T03:47:05.000Z</time>
      </trkpt>
      <trkpt lat="49.5379" lon="5.75175">
        <ele>345.8</ele>
        <time>1970-01-01T03:47:06.000Z</time>
      </trkpt>
      <trkpt lat="49.53791" lon="5.75179">
        <ele>345.8</ele>
        <time>1970-01-01T03:47:07.000Z</time>
      </trkpt>
      <trkpt lat="49.53793" lon="5.75181">
        <ele>346.2</ele>
        <time>1970-01-01T03:47:08.000Z</time>
      </trkpt>
      <trkpt lat="49.53796" lon="5.75186">
        <ele>346.2</ele>
        <time>1970-01-01T03:47:09.000Z</time>
      </trkpt>
      <trkpt lat="49.53797" lon="5.75188">
        <ele>346.2</ele>
        <time>1970-01-01T03:47:10.000Z</time>
      </trkpt>
      <trkpt lat="49.538" lon="5.75191">
        <ele>346.4</ele>
        <time>1970-01-01T03:47:11.000Z</time>
      </trkpt>
      <trkpt lat="49.53799" lon="5.75194">
        <ele>346.4</ele>
        <time>1970-01-01T03:47:12.000Z</time>
      </trkpt>
      <trkpt lat="49.53799" lon="5.75197">
        <ele>346.6</ele>
        <time>1970-01-01T03:47:13.000Z</time>
      </trkpt>
      <trkpt lat="49.53802" lon="5.75201">
        <ele>346.6</ele>
        <time>1970-01-01T03:47:15.000Z</time>
      </trkpt>
      <trkpt lat="49.53804" lon="5.75203">
        <ele>346.8</ele>
        <time>1970-01-01T03:47:16.000Z</time>
      </trkpt>
      <trkpt lat="49.53805" lon="5.75203">
        <ele>346.8</ele>
        <time>1970-01-01T03:47:17.000Z</time>
      </trkpt>
      <trkpt lat="49.53808" lon="5.75207">
        <ele>347</ele>
        <time>1970-01-01T03:47:18.000Z</time>
      </trkpt>
      <trkpt lat="49.53809" lon="5.75212">
        <ele>347</ele>
        <time>1970-01-01T03:47:19.000Z</time>
      </trkpt>
      <trkpt lat="49.53813" lon="5.75217">
        <ele>347.2</ele>
        <time>1970-01-01T03:47:20.000Z</time>
      </trkpt>
      <trkpt lat="49.53815" lon="5.7522">
        <ele>347.2</ele>
        <time>1970-01-01T03:47:21.000Z</time>
      </trkpt>
      <trkpt lat="49.53816" lon="5.75221">
        <ele>347.4</ele>
        <time>1970-01-01T03:47:22.000Z</time>
      </trkpt>
      <trkpt lat="49.53817" lon="5.75224">
        <ele>347.6</ele>
        <time>1970-01-01T03:47:23.000Z</time>
      </trkpt>
      <trkpt lat="49.5382" lon="5.75231">
        <ele>347.8</ele>
        <time>1970-01-01T03:47:25.000Z</time>
      </trkpt>
      <trkpt lat="49.53825" lon="5.75235">
        <ele>348</ele>
        <time>1970-01-01T03:47:27.000Z</time>
      </trkpt>
      <trkpt lat="49.53826" lon="5.75237">
        <ele>348</ele>
        <time>1970-01-01T03:47:28.000Z</time>
      </trkpt>
      <trkpt lat="49.53828" lon="5.75239">
        <ele>348</ele>
        <time>1970-01-01T03:47:29.000Z</time>
      </trkpt>
      <trkpt lat="49.53829" lon="5.75242">
        <ele>348</ele>
        <time>1970-01-01T03:47:30.000Z</time>
      </trkpt>
      <trkpt lat="49.5383" lon="5.75245">
        <ele>348</ele>
        <time>1970-01-01T03:47:31.000Z</time>
      </trkpt>
      <trkpt lat="49.53832" lon="5.7525">
        <ele>348</ele>
        <time>1970-01-01T03:47:32.000Z</time>
      </trkpt>
      <trkpt lat="49.53832" lon="5.75251">
        <ele>348</ele>
        <time>1970-01-01T03:47:33.000Z</time>
      </trkpt>
      <trkpt lat="49.5383" lon="5.75252">
        <ele>348.2</ele>
        <time>1970-01-01T03:47:42.000Z</time>
      </trkpt>
      <trkpt lat="49.5383" lon="5.75253">
        <ele>348.2</ele>
        <time>1970-01-01T03:47:43.000Z</time>
      </trkpt>
      <trkpt lat="49.53833" lon="5.75256">
        <ele>348.2</ele>
        <time>1970-01-01T03:47:45.000Z</time>
      </trkpt>
      <trkpt lat="49.53833" lon="5.75256">
        <ele>348.2</ele>
        <time>1970-01-01T03:47:46.000Z</time>
      </trkpt>
      <trkpt lat="49.53833" lon="5.75256">
        <ele>348.2</ele>
        <time>1970-01-01T03:47:48.000Z</time>
      </trkpt>
      <trkpt lat="49.53833" lon="5.75256">
        <ele>348.2</ele>
        <time>1970-01-01T03:47:49.000Z</time>
      </trkpt>
      <trkpt lat="49.53833" lon="5.75256">
        <ele>348.2</ele>
        <time>1970-01-01T03:47:50.000Z</time>
      </trkpt>
      <trkpt lat="49.53834" lon="5.75257">
        <ele>348</ele>
        <time>1970-01-01T03:47:52.000Z</time>
      </trkpt>
      <trkpt lat="49.53834" lon="5.75257">
        <ele>347.8</ele>
        <time>1970-01-01T03:47:53.000Z</time>
      </trkpt>
      <trkpt lat="49.53834" lon="5.75257">
        <ele>347.8</ele>
        <time>1970-01-01T03:47:54.000Z</time>
      </trkpt>
      <trkpt lat="49.53834" lon="5.75257">
        <ele>347.8</ele>
        <time>1970-01-01T03:47:55.000Z</time>
      </trkpt>
      <trkpt lat="49.53837" lon="5.75262">
        <ele>348</ele>
        <time>1970-01-01T03:47:58.000Z</time>
      </trkpt>
      <trkpt lat="49.53837" lon="5.75262">
        <ele>348</ele>
        <time>1970-01-01T03:47:59.000Z</time>
      </trkpt>
      <trkpt lat="49.53837" lon="5.75262">
        <ele>348</ele>
        <time>1970-01-01T03:48:00.000Z</time>
      </trkpt>
      <trkpt lat="49.53837" lon="5.75263">
        <ele>347.8</ele>
        <time>1970-01-01T03:48:01.000Z</time>
      </trkpt>
      <trkpt lat="49.53837" lon="5.75263">
        <ele>347.8</ele>
        <time>1970-01-01T03:48:02.000Z</time>
      </trkpt>
      <trkpt lat="49.53838" lon="5.75263">
        <ele>347.6</ele>
        <time>1970-01-01T03:48:03.000Z</time>
      </trkpt>
      <trkpt lat="49.53842" lon="5.75267">
        <ele>347.6</ele>
        <time>1970-01-01T03:48:06.000Z</time>
      </trkpt>
      <trkpt lat="49.53843" lon="5.75269">
        <ele>347.8</ele>
        <time>1970-01-01T03:48:08.000Z</time>
      </trkpt>
      <trkpt lat="49.53843" lon="5.75269">
        <ele>347.8</ele>
        <time>1970-01-01T03:48:09.000Z</time>
      </trkpt>
      <trkpt lat="49.53844" lon="5.7527">
        <ele>347.8</ele>
        <time>1970-01-01T03:48:10.000Z</time>
      </trkpt>
      <trkpt lat="49.53846" lon="5.75273">
        <ele>347.8</ele>
        <time>1970-01-01T03:48:11.000Z</time>
      </trkpt>
      <trkpt lat="49.53848" lon="5.75276">
        <ele>347.8</ele>
        <time>1970-01-01T03:48:12.000Z</time>
      </trkpt>
      <trkpt lat="49.53849" lon="5.75276">
        <ele>348</ele>
        <time>1970-01-01T03:48:13.000Z</time>
      </trkpt>
      <trkpt lat="49.5385" lon="5.75277">
        <ele>348</ele>
        <time>1970-01-01T03:48:14.000Z</time>
      </trkpt>
      <trkpt lat="49.53851" lon="5.75279">
        <ele>348.2</ele>
        <time>1970-01-01T03:48:15.000Z</time>
      </trkpt>
      <trkpt lat="49.53855" lon="5.75287">
        <ele>348.2</ele>
        <time>1970-01-01T03:48:18.000Z</time>
      </trkpt>
      <trkpt lat="49.53856" lon="5.75289">
        <ele>348.2</ele>
        <time>1970-01-01T03:48:19.000Z</time>
      </trkpt>
      <trkpt lat="49.53858" lon="5.7529">
        <ele>348.2</ele>
        <time>1970-01-01T03:48:20.000Z</time>
      </trkpt>
      <trkpt lat="49.53859" lon="5.75293">
        <ele>348.4</ele>
        <time>1970-01-01T03:48:21.000Z</time>
      </trkpt>
      <trkpt lat="49.53865" lon="5.75299">
        <ele>348.4</ele>
        <time>1970-01-01T03:48:24.000Z</time>
      </trkpt>
      <trkpt lat="49.53866" lon="5.753">
        <ele>348.6</ele>
        <time>1970-01-01T03:48:25.000Z</time>
      </trkpt>
      <trkpt lat="49.53875" lon="5.75304">
        <ele>349</ele>
        <time>1970-01-01T03:48:28.000Z</time>
      </trkpt>
      <trkpt lat="49.53878" lon="5.75306">
        <ele>349</ele>
        <time>1970-01-01T03:48:29.000Z</time>
      </trkpt>
      <trkpt lat="49.53881" lon="5.75308">
        <ele>349</ele>
        <time>1970-01-01T03:48:30.000Z</time>
      </trkpt>
      <trkpt lat="49.53884" lon="5.7531">
        <ele>349</ele>
        <time>1970-01-01T03:48:31.000Z</time>
      </trkpt>
      <trkpt lat="49.53889" lon="5.75314">
        <ele>349</ele>
        <time>1970-01-01T03:48:32.000Z</time>
      </trkpt>
      <trkpt lat="49.53896" lon="5.75318">
        <ele>349.2</ele>
        <time>1970-01-01T03:48:34.000Z</time>
      </trkpt>
      <trkpt lat="49.53902" lon="5.75322">
        <ele>349.4</ele>
        <time>1970-01-01T03:48:36.000Z</time>
      </trkpt>
      <trkpt lat="49.53904" lon="5.75324">
        <ele>349.4</ele>
        <time>1970-01-01T03:48:37.000Z</time>
      </trkpt>
      <trkpt lat="49.53907" lon="5.75327">
        <ele>349.6</ele>
        <time>1970-01-01T03:48:38.000Z</time>
      </trkpt>
      <trkpt lat="49.53908" lon="5.75327">
        <ele>349.8</ele>
        <time>1970-01-01T03:48:39.000Z</time>
      </trkpt>
      <trkpt lat="49.53909" lon="5.75327">
        <ele>349.8</ele>
        <time>1970-01-01T03:48:40.000Z</time>
      </trkpt>
      <trkpt lat="49.53911" lon="5.75326">
        <ele>350</ele>
        <time>1970-01-01T03:48:41.000Z</time>
      </trkpt>
      <trkpt lat="49.53913" lon="5.75326">
        <ele>350</ele>
        <time>1970-01-01T03:48:42.000Z</time>
      </trkpt>
      <trkpt lat="49.53915" lon="5.75325">
        <ele>350.2</ele>
        <time>1970-01-01T03:48:43.000Z</time>
      </trkpt>
      <trkpt lat="49.53919" lon="5.75325">
        <ele>350.4</ele>
        <time>1970-01-01T03:48:45.000Z</time>
      </trkpt>
      <trkpt lat="49.53922" lon="5.75326">
        <ele>350.6</ele>
        <time>1970-01-01T03:48:46.000Z</time>
      </trkpt>
      <trkpt lat="49.53925" lon="5.75328">
        <ele>350.6</ele>
        <time>1970-01-01T03:48:47.000Z</time>
      </trkpt>
      <trkpt lat="49.53927" lon="5.75327">
        <ele>350.6</ele>
        <time>1970-01-01T03:48:48.000Z</time>
      </trkpt>
      <trkpt lat="49.53932" lon="5.75327">
        <ele>351</ele>
        <time>1970-01-01T03:48:50.000Z</time>
      </trkpt>
      <trkpt lat="49.53935" lon="5.75323">
        <ele>351.4</ele>
        <time>1970-01-01T03:48:51.000Z</time>
      </trkpt>
      <trkpt lat="49.53938" lon="5.75323">
        <ele>351.4</ele>
        <time>1970-01-01T03:48:52.000Z</time>
      </trkpt>
      <trkpt lat="49.5394" lon="5.75324">
        <ele>351.8</ele>
        <time>1970-01-01T03:48:53.000Z</time>
      </trkpt>
      <trkpt lat="49.53943" lon="5.75325">
        <ele>351.8</ele>
        <time>1970-01-01T03:48:54.000Z</time>
      </trkpt>
      <trkpt lat="49.53944" lon="5.75325">
        <ele>352</ele>
        <time>1970-01-01T03:48:55.000Z</time>
      </trkpt>
      <trkpt lat="49.53946" lon="5.75325">
        <ele>352.2</ele>
        <time>1970-01-01T03:48:56.000Z</time>
      </trkpt>
      <trkpt lat="49.53949" lon="5.75325">
        <ele>352.2</ele>
        <time>1970-01-01T03:48:57.000Z</time>
      </trkpt>
      <trkpt lat="49.53951" lon="5.75326">
        <ele>352.4</ele>
        <time>1970-01-01T03:48:58.000Z</time>
      </trkpt>
      <trkpt lat="49.53953" lon="5.75326">
        <ele>352.4</ele>
        <time>1970-01-01T03:48:59.000Z</time>
      </trkpt>
      <trkpt lat="49.53955" lon="5.75327">
        <ele>352.8</ele>
        <time>1970-01-01T03:49:00.000Z</time>
      </trkpt>
      <trkpt lat="49.53957" lon="5.75328">
        <ele>353</ele>
        <time>1970-01-01T03:49:01.000Z</time>
      </trkpt>
      <trkpt lat="49.5396" lon="5.75329">
        <ele>353.4</ele>
        <time>1970-01-01T03:49:02.000Z</time>
      </trkpt>
      <trkpt lat="49.53962" lon="5.75329">
        <ele>353.4</ele>
        <time>1970-01-01T03:49:03.000Z</time>
      </trkpt>
      <trkpt lat="49.53964" lon="5.7533">
        <ele>353.6</ele>
        <time>1970-01-01T03:49:04.000Z</time>
      </trkpt>
      <trkpt lat="49.53966" lon="5.7533">
        <ele>353.8</ele>
        <time>1970-01-01T03:49:05.000Z</time>
      </trkpt>
      <trkpt lat="49.53968" lon="5.75331">
        <ele>354</ele>
        <time>1970-01-01T03:49:06.000Z</time>
      </trkpt>
      <trkpt lat="49.5397" lon="5.75332">
        <ele>354.4</ele>
        <time>1970-01-01T03:49:07.000Z</time>
      </trkpt>
      <trkpt lat="49.53973" lon="5.75333">
        <ele>354.4</ele>
        <time>1970-01-01T03:49:08.000Z</time>
      </trkpt>
      <trkpt lat="49.53975" lon="5.75334">
        <ele>354.6</ele>
        <time>1970-01-01T03:49:09.000Z</time>
      </trkpt>
      <trkpt lat="49.53977" lon="5.75334">
        <ele>354.8</ele>
        <time>1970-01-01T03:49:10.000Z</time>
      </trkpt>
      <trkpt lat="49.5398" lon="5.75335">
        <ele>355</ele>
        <time>1970-01-01T03:49:11.000Z</time>
      </trkpt>
      <trkpt lat="49.53981" lon="5.75336">
        <ele>355.2</ele>
        <time>1970-01-01T03:49:12.000Z</time>
      </trkpt>
      <trkpt lat="49.53983" lon="5.75336">
        <ele>355.4</ele>
        <time>1970-01-01T03:49:13.000Z</time>
      </trkpt>
      <trkpt lat="49.53985" lon="5.75336">
        <ele>355.6</ele>
        <time>1970-01-01T03:49:14.000Z</time>
      </trkpt>
      <trkpt lat="49.53987" lon="5.75336">
        <ele>355.8</ele>
        <time>1970-01-01T03:49:15.000Z</time>
      </trkpt>
      <trkpt lat="49.5399" lon="5.75335">
        <ele>356</ele>
        <time>1970-01-01T03:49:16.000Z</time>
      </trkpt>
      <trkpt lat="49.53992" lon="5.75336">
        <ele>356</ele>
        <time>1970-01-01T03:49:17.000Z</time>
      </trkpt>
      <trkpt lat="49.53994" lon="5.75336">
        <ele>356.2</ele>
        <time>1970-01-01T03:49:18.000Z</time>
      </trkpt>
      <trkpt lat="49.53995" lon="5.75335">
        <ele>356</ele>
        <time>1970-01-01T03:49:19.000Z</time>
      </trkpt>
      <trkpt lat="49.53995" lon="5.75334">
        <ele>356.2</ele>
        <time>1970-01-01T03:49:20.000Z</time>
      </trkpt>
      <trkpt lat="49.53995" lon="5.75334">
        <ele>356.4</ele>
        <time>1970-01-01T03:49:21.000Z</time>
      </trkpt>
      <trkpt lat="49.54" lon="5.75335">
        <ele>357.6</ele>
        <time>1970-01-01T03:49:34.000Z</time>
      </trkpt>
      <trkpt lat="49.54" lon="5.75335">
        <ele>357.6</ele>
        <time>1970-01-01T03:49:35.000Z</time>
      </trkpt>
      <trkpt lat="49.54001" lon="5.75336">
        <ele>357.6</ele>
        <time>1970-01-01T03:49:36.000Z</time>
      </trkpt>
      <trkpt lat="49.54003" lon="5.75335">
        <ele>357.6</ele>
        <time>1970-01-01T03:49:37.000Z</time>
      </trkpt>
      <trkpt lat="49.54005" lon="5.75335">
        <ele>357.6</ele>
        <time>1970-01-01T03:49:38.000Z</time>
      </trkpt>
      <trkpt lat="49.54007" lon="5.75335">
        <ele>357.6</ele>
        <time>1970-01-01T03:49:39.000Z</time>
      </trkpt>
      <trkpt lat="49.54009" lon="5.75335">
        <ele>357.6</ele>
        <time>1970-01-01T03:49:40.000Z</time>
      </trkpt>
      <trkpt lat="49.54011" lon="5.75335">
        <ele>357.6</ele>
        <time>1970-01-01T03:49:41.000Z</time>
      </trkpt>
      <trkpt lat="49.54014" lon="5.75336">
        <ele>357.6</ele>
        <time>1970-01-01T03:49:42.000Z</time>
      </trkpt>
      <trkpt lat="49.54016" lon="5.75337">
        <ele>357.6</ele>
        <time>1970-01-01T03:49:43.000Z</time>
      </trkpt>
      <trkpt lat="49.54019" lon="5.75338">
        <ele>357.8</ele>
        <time>1970-01-01T03:49:44.000Z</time>
      </trkpt>
      <trkpt lat="49.54021" lon="5.75339">
        <ele>357.8</ele>
        <time>1970-01-01T03:49:45.000Z</time>
      </trkpt>
      <trkpt lat="49.5403" lon="5.75345">
        <ele>358.2</ele>
        <time>1970-01-01T03:49:49.000Z</time>
      </trkpt>
      <trkpt lat="49.54033" lon="5.75346">
        <ele>358.4</ele>
        <time>1970-01-01T03:49:50.000Z</time>
      </trkpt>
      <trkpt lat="49.54037" lon="5.75348">
        <ele>358.6</ele>
        <time>1970-01-01T03:49:52.000Z</time>
      </trkpt>
      <trkpt lat="49.54041" lon="5.75352">
        <ele>359</ele>
        <time>1970-01-01T03:49:54.000Z</time>
      </trkpt>
      <trkpt lat="49.54043" lon="5.75354">
        <ele>359.4</ele>
        <time>1970-01-01T03:49:55.000Z</time>
      </trkpt>
      <trkpt lat="49.54045" lon="5.75357">
        <ele>359.6</ele>
        <time>1970-01-01T03:49:56.000Z</time>
      </trkpt>
      <trkpt lat="49.54048" lon="5.7536">
        <ele>360</ele>
        <time>1970-01-01T03:49:57.000Z</time>
      </trkpt>
      <trkpt lat="49.54049" lon="5.75361">
        <ele>360.2</ele>
        <time>1970-01-01T03:49:58.000Z</time>
      </trkpt>
      <trkpt lat="49.54053" lon="5.75367">
        <ele>360.6</ele>
        <time>1970-01-01T03:50:00.000Z</time>
      </trkpt>
      <trkpt lat="49.54054" lon="5.75371">
        <ele>360.8</ele>
        <time>1970-01-01T03:50:01.000Z</time>
      </trkpt>
      <trkpt lat="49.54055" lon="5.75374">
        <ele>361</ele>
        <time>1970-01-01T03:50:02.000Z</time>
      </trkpt>
      <trkpt lat="49.54057" lon="5.75376">
        <ele>361.2</ele>
        <time>1970-01-01T03:50:03.000Z</time>
      </trkpt>
      <trkpt lat="49.54058" lon="5.75379">
        <ele>361.4</ele>
        <time>1970-01-01T03:50:04.000Z</time>
      </trkpt>
      <trkpt lat="49.54059" lon="5.7538">
        <ele>361.4</ele>
        <time>1970-01-01T03:50:05.000Z</time>
      </trkpt>
      <trkpt lat="49.54061" lon="5.75382">
        <ele>361.6</ele>
        <time>1970-01-01T03:50:06.000Z</time>
      </trkpt>
      <trkpt lat="49.54063" lon="5.75384">
        <ele>361.8</ele>
        <time>1970-01-01T03:50:07.000Z</time>
      </trkpt>
      <trkpt lat="49.54064" lon="5.75386">
        <ele>362</ele>
        <time>1970-01-01T03:50:08.000Z</time>
      </trkpt>
      <trkpt lat="49.54068" lon="5.75389">
        <ele>362</ele>
        <time>1970-01-01T03:50:09.000Z</time>
      </trkpt>
      <trkpt lat="49.5407" lon="5.75391">
        <ele>362.2</ele>
        <time>1970-01-01T03:50:10.000Z</time>
      </trkpt>
      <trkpt lat="49.54073" lon="5.75393">
        <ele>362.2</ele>
        <time>1970-01-01T03:50:11.000Z</time>
      </trkpt>
      <trkpt lat="49.54076" lon="5.75395">
        <ele>362.4</ele>
        <time>1970-01-01T03:50:12.000Z</time>
      </trkpt>
      <trkpt lat="49.54078" lon="5.75395">
        <ele>362.4</ele>
        <time>1970-01-01T03:50:13.000Z</time>
      </trkpt>
      <trkpt lat="49.54079" lon="5.75396">
        <ele>362.4</ele>
        <time>1970-01-01T03:50:14.000Z</time>
      </trkpt>
      <trkpt lat="49.54081" lon="5.75397">
        <ele>362.6</ele>
        <time>1970-01-01T03:50:15.000Z</time>
      </trkpt>
      <trkpt lat="49.54084" lon="5.75399">
        <ele>362.6</ele>
        <time>1970-01-01T03:50:16.000Z</time>
      </trkpt>
      <trkpt lat="49.54087" lon="5.75402">
        <ele>362.8</ele>
        <time>1970-01-01T03:50:17.000Z</time>
      </trkpt>
      <trkpt lat="49.54091" lon="5.75404">
        <ele>362.8</ele>
        <time>1970-01-01T03:50:18.000Z</time>
      </trkpt>
      <trkpt lat="49.54093" lon="5.75406">
        <ele>362.8</ele>
        <time>1970-01-01T03:50:19.000Z</time>
      </trkpt>
      <trkpt lat="49.54094" lon="5.75409">
        <ele>362.8</ele>
        <time>1970-01-01T03:50:20.000Z</time>
      </trkpt>
      <trkpt lat="49.54096" lon="5.75412">
        <ele>362.8</ele>
        <time>1970-01-01T03:50:21.000Z</time>
      </trkpt>
      <trkpt lat="49.54097" lon="5.75414">
        <ele>363</ele>
        <time>1970-01-01T03:50:22.000Z</time>
      </trkpt>
      <trkpt lat="49.541" lon="5.75417">
        <ele>363</ele>
        <time>1970-01-01T03:50:23.000Z</time>
      </trkpt>
      <trkpt lat="49.54103" lon="5.75419">
        <ele>363.2</ele>
        <time>1970-01-01T03:50:24.000Z</time>
      </trkpt>
      <trkpt lat="49.54105" lon="5.7542">
        <ele>363.2</ele>
        <time>1970-01-01T03:50:25.000Z</time>
      </trkpt>
      <trkpt lat="49.54107" lon="5.75422">
        <ele>363.6</ele>
        <time>1970-01-01T03:50:26.000Z</time>
      </trkpt>
      <trkpt lat="49.54105" lon="5.75425">
        <ele>363.8</ele>
        <time>1970-01-01T03:50:27.000Z</time>
      </trkpt>
      <trkpt lat="49.54107" lon="5.75426">
        <ele>364</ele>
        <time>1970-01-01T03:50:28.000Z</time>
      </trkpt>
      <trkpt lat="49.54109" lon="5.75427">
        <ele>364.2</ele>
        <time>1970-01-01T03:50:29.000Z</time>
      </trkpt>
      <trkpt lat="49.54112" lon="5.75429">
        <ele>364.2</ele>
        <time>1970-01-01T03:50:30.000Z</time>
      </trkpt>
      <trkpt lat="49.54113" lon="5.7543">
        <ele>364.4</ele>
        <time>1970-01-01T03:50:31.000Z</time>
      </trkpt>
      <trkpt lat="49.54115" lon="5.75431">
        <ele>364.6</ele>
        <time>1970-01-01T03:50:32.000Z</time>
      </trkpt>
      <trkpt lat="49.54117" lon="5.75432">
        <ele>364.8</ele>
        <time>1970-01-01T03:50:33.000Z</time>
      </trkpt>
      <trkpt lat="49.54119" lon="5.75432">
        <ele>365.2</ele>
        <time>1970-01-01T03:50:34.000Z</time>
      </trkpt>
      <trkpt lat="49.5412" lon="5.75434">
        <ele>365.2</ele>
        <time>1970-01-01T03:50:35.000Z</time>
      </trkpt>
      <trkpt lat="49.54124" lon="5.75435">
        <ele>365.4</ele>
        <time>1970-01-01T03:50:36.000Z</time>
      </trkpt>
      <trkpt lat="49.54125" lon="5.75437">
        <ele>365.4</ele>
        <time>1970-01-01T03:50:37.000Z</time>
      </trkpt>
      <trkpt lat="49.54127" lon="5.75438">
        <ele>365.6</ele>
        <time>1970-01-01T03:50:38.000Z</time>
      </trkpt>
      <trkpt lat="49.54128" lon="5.7544">
        <ele>365.6</ele>
        <time>1970-01-01T03:50:39.000Z</time>
      </trkpt>
      <trkpt lat="49.5413" lon="5.75442">
        <ele>365.8</ele>
        <time>1970-01-01T03:50:40.000Z</time>
      </trkpt>
      <trkpt lat="49.54131" lon="5.75443">
        <ele>366</ele>
        <time>1970-01-01T03:50:41.000Z</time>
      </trkpt>
      <trkpt lat="49.54133" lon="5.75445">
        <ele>366</ele>
        <time>1970-01-01T03:50:42.000Z</time>
      </trkpt>
      <trkpt lat="49.54135" lon="5.75446">
        <ele>366.2</ele>
        <time>1970-01-01T03:50:43.000Z</time>
      </trkpt>
      <trkpt lat="49.54137" lon="5.75449">
        <ele>366.4</ele>
        <time>1970-01-01T03:50:44.000Z</time>
      </trkpt>
      <trkpt lat="49.54139" lon="5.75451">
        <ele>366.8</ele>
        <time>1970-01-01T03:50:45.000Z</time>
      </trkpt>
      <trkpt lat="49.54141" lon="5.75453">
        <ele>367</ele>
        <time>1970-01-01T03:50:46.000Z</time>
      </trkpt>
      <trkpt lat="49.54143" lon="5.75454">
        <ele>367.2</ele>
        <time>1970-01-01T03:50:47.000Z</time>
      </trkpt>
      <trkpt lat="49.54144" lon="5.75456">
        <ele>367.4</ele>
        <time>1970-01-01T03:50:48.000Z</time>
      </trkpt>
      <trkpt lat="49.54146" lon="5.75458">
        <ele>367.6</ele>
        <time>1970-01-01T03:50:49.000Z</time>
      </trkpt>
      <trkpt lat="49.54147" lon="5.7546">
        <ele>367.8</ele>
        <time>1970-01-01T03:50:50.000Z</time>
      </trkpt>
      <trkpt lat="49.54149" lon="5.75461">
        <ele>368</ele>
        <time>1970-01-01T03:50:51.000Z</time>
      </trkpt>
      <trkpt lat="49.54152" lon="5.75463">
        <ele>368.2</ele>
        <time>1970-01-01T03:50:52.000Z</time>
      </trkpt>
      <trkpt lat="49.54154" lon="5.75464">
        <ele>368.4</ele>
        <time>1970-01-01T03:50:53.000Z</time>
      </trkpt>
      <trkpt lat="49.54155" lon="5.75466">
        <ele>368.4</ele>
        <time>1970-01-01T03:50:54.000Z</time>
      </trkpt>
      <trkpt lat="49.54157" lon="5.75467">
        <ele>368.6</ele>
        <time>1970-01-01T03:50:55.000Z</time>
      </trkpt>
      <trkpt lat="49.54159" lon="5.75469">
        <ele>369</ele>
        <time>1970-01-01T03:50:56.000Z</time>
      </trkpt>
      <trkpt lat="49.54161" lon="5.75472">
        <ele>369</ele>
        <time>1970-01-01T03:50:57.000Z</time>
      </trkpt>
      <trkpt lat="49.54164" lon="5.75474">
        <ele>369.2</ele>
        <time>1970-01-01T03:50:58.000Z</time>
      </trkpt>
      <trkpt lat="49.54167" lon="5.75476">
        <ele>369.6</ele>
        <time>1970-01-01T03:50:59.000Z</time>
      </trkpt>
      <trkpt lat="49.54169" lon="5.75478">
        <ele>369.6</ele>
        <time>1970-01-01T03:51:00.000Z</time>
      </trkpt>
      <trkpt lat="49.54171" lon="5.7548">
        <ele>369.8</ele>
        <time>1970-01-01T03:51:01.000Z</time>
      </trkpt>
      <trkpt lat="49.54173" lon="5.75482">
        <ele>370.2</ele>
        <time>1970-01-01T03:51:02.000Z</time>
      </trkpt>
      <trkpt lat="49.54175" lon="5.75485">
        <ele>370.6</ele>
        <time>1970-01-01T03:51:03.000Z</time>
      </trkpt>
      <trkpt lat="49.54176" lon="5.75491">
        <ele>370.6</ele>
        <time>1970-01-01T03:51:04.000Z</time>
      </trkpt>
      <trkpt lat="49.54179" lon="5.75495">
        <ele>370.8</ele>
        <time>1970-01-01T03:51:05.000Z</time>
      </trkpt>
      <trkpt lat="49.54182" lon="5.75498">
        <ele>371</ele>
        <time>1970-01-01T03:51:06.000Z</time>
      </trkpt>
      <trkpt lat="49.54184" lon="5.75502">
        <ele>371</ele>
        <time>1970-01-01T03:51:07.000Z</time>
      </trkpt>
      <trkpt lat="49.54186" lon="5.75503">
        <ele>371.2</ele>
        <time>1970-01-01T03:51:08.000Z</time>
      </trkpt>
      <trkpt lat="49.54187" lon="5.75504">
        <ele>371.4</ele>
        <time>1970-01-01T03:51:09.000Z</time>
      </trkpt>
      <trkpt lat="49.54188" lon="5.75505">
        <ele>371.4</ele>
        <time>1970-01-01T03:51:10.000Z</time>
      </trkpt>
      <trkpt lat="49.5419" lon="5.75508">
        <ele>371.4</ele>
        <time>1970-01-01T03:51:11.000Z</time>
      </trkpt>
      <trkpt lat="49.54191" lon="5.7551">
        <ele>371.4</ele>
        <time>1970-01-01T03:51:12.000Z</time>
      </trkpt>
      <trkpt lat="49.54191" lon="5.75511">
        <ele>371.2</ele>
        <time>1970-01-01T03:51:13.000Z</time>
      </trkpt>
      <trkpt lat="49.54193" lon="5.75514">
        <ele>371.6</ele>
        <time>1970-01-01T03:51:14.000Z</time>
      </trkpt>
      <trkpt lat="49.54195" lon="5.75518">
        <ele>371.4</ele>
        <time>1970-01-01T03:51:15.000Z</time>
      </trkpt>
      <trkpt lat="49.54197" lon="5.75519">
        <ele>371.4</ele>
        <time>1970-01-01T03:51:16.000Z</time>
      </trkpt>
      <trkpt lat="49.54198" lon="5.75521">
        <ele>371.6</ele>
        <time>1970-01-01T03:51:17.000Z</time>
      </trkpt>
      <trkpt lat="49.542" lon="5.75522">
        <ele>371.6</ele>
        <time>1970-01-01T03:51:18.000Z</time>
      </trkpt>
      <trkpt lat="49.54202" lon="5.75523">
        <ele>371.6</ele>
        <time>1970-01-01T03:51:19.000Z</time>
      </trkpt>
      <trkpt lat="49.54203" lon="5.75524">
        <ele>371.8</ele>
        <time>1970-01-01T03:51:20.000Z</time>
      </trkpt>
      <trkpt lat="49.54205" lon="5.75525">
        <ele>372</ele>
        <time>1970-01-01T03:51:21.000Z</time>
      </trkpt>
      <trkpt lat="49.54207" lon="5.75526">
        <ele>372.2</ele>
        <time>1970-01-01T03:51:22.000Z</time>
      </trkpt>
      <trkpt lat="49.54208" lon="5.75527">
        <ele>372.4</ele>
        <time>1970-01-01T03:51:23.000Z</time>
      </trkpt>
      <trkpt lat="49.5421" lon="5.7553">
        <ele>372.4</ele>
        <time>1970-01-01T03:51:24.000Z</time>
      </trkpt>
      <trkpt lat="49.54211" lon="5.75533">
        <ele>372.4</ele>
        <time>1970-01-01T03:51:25.000Z</time>
      </trkpt>
      <trkpt lat="49.54212" lon="5.75534">
        <ele>372.6</ele>
        <time>1970-01-01T03:51:26.000Z</time>
      </trkpt>
      <trkpt lat="49.54213" lon="5.75536">
        <ele>372.8</ele>
        <time>1970-01-01T03:51:27.000Z</time>
      </trkpt>
      <trkpt lat="49.54214" lon="5.75538">
        <ele>373</ele>
        <time>1970-01-01T03:51:28.000Z</time>
      </trkpt>
      <trkpt lat="49.54215" lon="5.7554">
        <ele>373</ele>
        <time>1970-01-01T03:51:29.000Z</time>
      </trkpt>
      <trkpt lat="49.54216" lon="5.75542">
        <ele>373.2</ele>
        <time>1970-01-01T03:51:30.000Z</time>
      </trkpt>
      <trkpt lat="49.54217" lon="5.75543">
        <ele>373.4</ele>
        <time>1970-01-01T03:51:31.000Z</time>
      </trkpt>
      <trkpt lat="49.54218" lon="5.75545">
        <ele>373.4</ele>
        <time>1970-01-01T03:51:32.000Z</time>
      </trkpt>
      <trkpt lat="49.54219" lon="5.75546">
        <ele>373.6</ele>
        <time>1970-01-01T03:51:33.000Z</time>
      </trkpt>
      <trkpt lat="49.54221" lon="5.75548">
        <ele>373.8</ele>
        <time>1970-01-01T03:51:34.000Z</time>
      </trkpt>
      <trkpt lat="49.54222" lon="5.75549">
        <ele>374</ele>
        <time>1970-01-01T03:51:35.000Z</time>
      </trkpt>
      <trkpt lat="49.54222" lon="5.7555">
        <ele>374</ele>
        <time>1970-01-01T03:51:36.000Z</time>
      </trkpt>
      <trkpt lat="49.54223" lon="5.7555">
        <ele>374.6</ele>
        <time>1970-01-01T03:51:37.000Z</time>
      </trkpt>
      <trkpt lat="49.54223" lon="5.75551">
        <ele>374.8</ele>
        <time>1970-01-01T03:51:38.000Z</time>
      </trkpt>
      <trkpt lat="49.54225" lon="5.75552">
        <ele>375.2</ele>
        <time>1970-01-01T03:51:39.000Z</time>
      </trkpt>
      <trkpt lat="49.54225" lon="5.75553">
        <ele>375.4</ele>
        <time>1970-01-01T03:51:40.000Z</time>
      </trkpt>
      <trkpt lat="49.54228" lon="5.75555">
        <ele>375.6</ele>
        <time>1970-01-01T03:51:41.000Z</time>
      </trkpt>
      <trkpt lat="49.54229" lon="5.75558">
        <ele>375.8</ele>
        <time>1970-01-01T03:51:42.000Z</time>
      </trkpt>
      <trkpt lat="49.5423" lon="5.7556">
        <ele>376</ele>
        <time>1970-01-01T03:51:43.000Z</time>
      </trkpt>
      <trkpt lat="49.54232" lon="5.75562">
        <ele>376</ele>
        <time>1970-01-01T03:51:44.000Z</time>
      </trkpt>
      <trkpt lat="49.54233" lon="5.75564">
        <ele>376.2</ele>
        <time>1970-01-01T03:51:45.000Z</time>
      </trkpt>
      <trkpt lat="49.54234" lon="5.75566">
        <ele>376.2</ele>
        <time>1970-01-01T03:51:46.000Z</time>
      </trkpt>
      <trkpt lat="49.54235" lon="5.75567">
        <ele>376.4</ele>
        <time>1970-01-01T03:51:47.000Z</time>
      </trkpt>
      <trkpt lat="49.54236" lon="5.75568">
        <ele>376.4</ele>
        <time>1970-01-01T03:51:48.000Z</time>
      </trkpt>
      <trkpt lat="49.54238" lon="5.75568">
        <ele>376.8</ele>
        <time>1970-01-01T03:51:49.000Z</time>
      </trkpt>
      <trkpt lat="49.54239" lon="5.7557">
        <ele>377.2</ele>
        <time>1970-01-01T03:51:50.000Z</time>
      </trkpt>
      <trkpt lat="49.54239" lon="5.75572">
        <ele>377.6</ele>
        <time>1970-01-01T03:51:51.000Z</time>
      </trkpt>
      <trkpt lat="49.5424" lon="5.75574">
        <ele>377.6</ele>
        <time>1970-01-01T03:51:52.000Z</time>
      </trkpt>
      <trkpt lat="49.5424" lon="5.75575">
        <ele>377.8</ele>
        <time>1970-01-01T03:51:53.000Z</time>
      </trkpt>
      <trkpt lat="49.5424" lon="5.75577">
        <ele>378</ele>
        <time>1970-01-01T03:51:54.000Z</time>
      </trkpt>
      <trkpt lat="49.54241" lon="5.75578">
        <ele>378.2</ele>
        <time>1970-01-01T03:51:55.000Z</time>
      </trkpt>
      <trkpt lat="49.54242" lon="5.75578">
        <ele>378.4</ele>
        <time>1970-01-01T03:51:56.000Z</time>
      </trkpt>
      <trkpt lat="49.54243" lon="5.75579">
        <ele>378.4</ele>
        <time>1970-01-01T03:51:57.000Z</time>
      </trkpt>
      <trkpt lat="49.54244" lon="5.7558">
        <ele>378.6</ele>
        <time>1970-01-01T03:51:58.000Z</time>
      </trkpt>
      <trkpt lat="49.54244" lon="5.75581">
        <ele>378.6</ele>
        <time>1970-01-01T03:51:59.000Z</time>
      </trkpt>
      <trkpt lat="49.54245" lon="5.75584">
        <ele>378.8</ele>
        <time>1970-01-01T03:52:00.000Z</time>
      </trkpt>
      <trkpt lat="49.54246" lon="5.75586">
        <ele>378.8</ele>
        <time>1970-01-01T03:52:01.000Z</time>
      </trkpt>
      <trkpt lat="49.54247" lon="5.75587">
        <ele>379</ele>
        <time>1970-01-01T03:52:02.000Z</time>
      </trkpt>
      <trkpt lat="49.54249" lon="5.75588">
        <ele>379</ele>
        <time>1970-01-01T03:52:03.000Z</time>
      </trkpt>
      <trkpt lat="49.5425" lon="5.75589">
        <ele>379</ele>
        <time>1970-01-01T03:52:04.000Z</time>
      </trkpt>
      <trkpt lat="49.54252" lon="5.75589">
        <ele>379.4</ele>
        <time>1970-01-01T03:52:05.000Z</time>
      </trkpt>
      <trkpt lat="49.54254" lon="5.75588">
        <ele>379.4</ele>
        <time>1970-01-01T03:52:06.000Z</time>
      </trkpt>
      <trkpt lat="49.54257" lon="5.75587">
        <ele>379.4</ele>
        <time>1970-01-01T03:52:07.000Z</time>
      </trkpt>
      <trkpt lat="49.54259" lon="5.75587">
        <ele>379.6</ele>
        <time>1970-01-01T03:52:08.000Z</time>
      </trkpt>
      <trkpt lat="49.54262" lon="5.75587">
        <ele>379.6</ele>
        <time>1970-01-01T03:52:09.000Z</time>
      </trkpt>
      <trkpt lat="49.54265" lon="5.75585">
        <ele>379.6</ele>
        <time>1970-01-01T03:52:10.000Z</time>
      </trkpt>
      <trkpt lat="49.54267" lon="5.75584">
        <ele>379.6</ele>
        <time>1970-01-01T03:52:11.000Z</time>
      </trkpt>
      <trkpt lat="49.54269" lon="5.75583">
        <ele>379.8</ele>
        <time>1970-01-01T03:52:12.000Z</time>
      </trkpt>
      <trkpt lat="49.5427" lon="5.75582">
        <ele>379.8</ele>
        <time>1970-01-01T03:52:13.000Z</time>
      </trkpt>
      <trkpt lat="49.54272" lon="5.75581">
        <ele>380</ele>
        <time>1970-01-01T03:52:14.000Z</time>
      </trkpt>
      <trkpt lat="49.54273" lon="5.75581">
        <ele>380</ele>
        <time>1970-01-01T03:52:15.000Z</time>
      </trkpt>
      <trkpt lat="49.54274" lon="5.7558">
        <ele>380.2</ele>
        <time>1970-01-01T03:52:16.000Z</time>
      </trkpt>
      <trkpt lat="49.54275" lon="5.7558">
        <ele>380.2</ele>
        <time>1970-01-01T03:52:17.000Z</time>
      </trkpt>
      <trkpt lat="49.54277" lon="5.75579">
        <ele>380.2</ele>
        <time>1970-01-01T03:52:18.000Z</time>
      </trkpt>
      <trkpt lat="49.54279" lon="5.75579">
        <ele>380.2</ele>
        <time>1970-01-01T03:52:19.000Z</time>
      </trkpt>
      <trkpt lat="49.54281" lon="5.75578">
        <ele>380.2</ele>
        <time>1970-01-01T03:52:20.000Z</time>
      </trkpt>
      <trkpt lat="49.54284" lon="5.75576">
        <ele>380.6</ele>
        <time>1970-01-01T03:52:21.000Z</time>
      </trkpt>
      <trkpt lat="49.54286" lon="5.75574">
        <ele>380.6</ele>
        <time>1970-01-01T03:52:22.000Z</time>
      </trkpt>
      <trkpt lat="49.54289" lon="5.75572">
        <ele>380.6</ele>
        <time>1970-01-01T03:52:23.000Z</time>
      </trkpt>
      <trkpt lat="49.54292" lon="5.75569">
        <ele>380.8</ele>
        <time>1970-01-01T03:52:24.000Z</time>
      </trkpt>
      <trkpt lat="49.54294" lon="5.75567">
        <ele>380.8</ele>
        <time>1970-01-01T03:52:25.000Z</time>
      </trkpt>
      <trkpt lat="49.54296" lon="5.75565">
        <ele>380.8</ele>
        <time>1970-01-01T03:52:26.000Z</time>
      </trkpt>
      <trkpt lat="49.54298" lon="5.75563">
        <ele>381</ele>
        <time>1970-01-01T03:52:27.000Z</time>
      </trkpt>
      <trkpt lat="49.54304" lon="5.75557">
        <ele>381</ele>
        <time>1970-01-01T03:52:30.000Z</time>
      </trkpt>
      <trkpt lat="49.54309" lon="5.75553">
        <ele>381.2</ele>
        <time>1970-01-01T03:52:32.000Z</time>
      </trkpt>
      <trkpt lat="49.54317" lon="5.75542">
        <ele>381.6</ele>
        <time>1970-01-01T03:52:36.000Z</time>
      </trkpt>
      <trkpt lat="49.54318" lon="5.75539">
        <ele>381.8</ele>
        <time>1970-01-01T03:52:37.000Z</time>
      </trkpt>
      <trkpt lat="49.54319" lon="5.75535">
        <ele>382</ele>
        <time>1970-01-01T03:52:38.000Z</time>
      </trkpt>
      <trkpt lat="49.54319" lon="5.75532">
        <ele>382.2</ele>
        <time>1970-01-01T03:52:39.000Z</time>
      </trkpt>
      <trkpt lat="49.54314" lon="5.75524">
        <ele>382.6</ele>
        <time>1970-01-01T03:52:42.000Z</time>
      </trkpt>
      <trkpt lat="49.54312" lon="5.75521">
        <ele>383</ele>
        <time>1970-01-01T03:52:43.000Z</time>
      </trkpt>
      <trkpt lat="49.5431" lon="5.75519">
        <ele>383.2</ele>
        <time>1970-01-01T03:52:44.000Z</time>
      </trkpt>
      <trkpt lat="49.54309" lon="5.75516">
        <ele>383.4</ele>
        <time>1970-01-01T03:52:45.000Z</time>
      </trkpt>
      <trkpt lat="49.54307" lon="5.75514">
        <ele>383.4</ele>
        <time>1970-01-01T03:52:46.000Z</time>
      </trkpt>
      <trkpt lat="49.54305" lon="5.75512">
        <ele>383.4</ele>
        <time>1970-01-01T03:52:47.000Z</time>
      </trkpt>
      <trkpt lat="49.54303" lon="5.75511">
        <ele>383.8</ele>
        <time>1970-01-01T03:52:48.000Z</time>
      </trkpt>
      <trkpt lat="49.54301" lon="5.7551">
        <ele>384</ele>
        <time>1970-01-01T03:52:49.000Z</time>
      </trkpt>
      <trkpt lat="49.54298" lon="5.75509">
        <ele>384.2</ele>
        <time>1970-01-01T03:52:50.000Z</time>
      </trkpt>
      <trkpt lat="49.54296" lon="5.75508">
        <ele>384.4</ele>
        <time>1970-01-01T03:52:51.000Z</time>
      </trkpt>
      <trkpt lat="49.54294" lon="5.75506">
        <ele>384.6</ele>
        <time>1970-01-01T03:52:52.000Z</time>
      </trkpt>
      <trkpt lat="49.54292" lon="5.75505">
        <ele>384.8</ele>
        <time>1970-01-01T03:52:53.000Z</time>
      </trkpt>
      <trkpt lat="49.5429" lon="5.75504">
        <ele>385.2</ele>
        <time>1970-01-01T03:52:54.000Z</time>
      </trkpt>
      <trkpt lat="49.54287" lon="5.75502">
        <ele>385.6</ele>
        <time>1970-01-01T03:52:55.000Z</time>
      </trkpt>
      <trkpt lat="49.54284" lon="5.75501">
        <ele>385.8</ele>
        <time>1970-01-01T03:52:56.000Z</time>
      </trkpt>
      <trkpt lat="49.54282" lon="5.755">
        <ele>386</ele>
        <time>1970-01-01T03:52:57.000Z</time>
      </trkpt>
      <trkpt lat="49.5428" lon="5.75499">
        <ele>386.2</ele>
        <time>1970-01-01T03:52:58.000Z</time>
      </trkpt>
      <trkpt lat="49.54277" lon="5.75498">
        <ele>386.4</ele>
        <time>1970-01-01T03:52:59.000Z</time>
      </trkpt>
      <trkpt lat="49.54275" lon="5.75497">
        <ele>386.6</ele>
        <time>1970-01-01T03:53:00.000Z</time>
      </trkpt>
      <trkpt lat="49.54273" lon="5.75498">
        <ele>386.8</ele>
        <time>1970-01-01T03:53:01.000Z</time>
      </trkpt>
      <trkpt lat="49.54271" lon="5.75497">
        <ele>387</ele>
        <time>1970-01-01T03:53:02.000Z</time>
      </trkpt>
      <trkpt lat="49.54268" lon="5.75496">
        <ele>387.2</ele>
        <time>1970-01-01T03:53:03.000Z</time>
      </trkpt>
      <trkpt lat="49.54265" lon="5.75495">
        <ele>387.6</ele>
        <time>1970-01-01T03:53:04.000Z</time>
      </trkpt>
      <trkpt lat="49.54261" lon="5.75493">
        <ele>387.6</ele>
        <time>1970-01-01T03:53:05.000Z</time>
      </trkpt>
      <trkpt lat="49.54257" lon="5.75491">
        <ele>387.8</ele>
        <time>1970-01-01T03:53:06.000Z</time>
      </trkpt>
      <trkpt lat="49.54253" lon="5.75489">
        <ele>388</ele>
        <time>1970-01-01T03:53:07.000Z</time>
      </trkpt>
      <trkpt lat="49.5425" lon="5.75486">
        <ele>388</ele>
        <time>1970-01-01T03:53:08.000Z</time>
      </trkpt>
      <trkpt lat="49.54247" lon="5.75484">
        <ele>388</ele>
        <time>1970-01-01T03:53:09.000Z</time>
      </trkpt>
      <trkpt lat="49.54244" lon="5.75482">
        <ele>388</ele>
        <time>1970-01-01T03:53:10.000Z</time>
      </trkpt>
      <trkpt lat="49.54241" lon="5.75479">
        <ele>387.8</ele>
        <time>1970-01-01T03:53:11.000Z</time>
      </trkpt>
      <trkpt lat="49.54238" lon="5.75477">
        <ele>387.8</ele>
        <time>1970-01-01T03:53:12.000Z</time>
      </trkpt>
      <trkpt lat="49.54235" lon="5.75474">
        <ele>387.8</ele>
        <time>1970-01-01T03:53:13.000Z</time>
      </trkpt>
      <trkpt lat="49.54232" lon="5.75471">
        <ele>387.6</ele>
        <time>1970-01-01T03:53:14.000Z</time>
      </trkpt>
      <trkpt lat="49.54229" lon="5.75467">
        <ele>387.4</ele>
        <time>1970-01-01T03:53:15.000Z</time>
      </trkpt>
      <trkpt lat="49.54227" lon="5.75463">
        <ele>387.4</ele>
        <time>1970-01-01T03:53:16.000Z</time>
      </trkpt>
      <trkpt lat="49.54226" lon="5.75459">
        <ele>387.2</ele>
        <time>1970-01-01T03:53:17.000Z</time>
      </trkpt>
      <trkpt lat="49.54224" lon="5.75455">
        <ele>387.2</ele>
        <time>1970-01-01T03:53:18.000Z</time>
      </trkpt>
      <trkpt lat="49.54222" lon="5.75451">
        <ele>387.2</ele>
        <time>1970-01-01T03:53:19.000Z</time>
      </trkpt>
      <trkpt lat="49.5422" lon="5.75447">
        <ele>387.2</ele>
        <time>1970-01-01T03:53:20.000Z</time>
      </trkpt>
      <trkpt lat="49.54218" lon="5.75442">
        <ele>387</ele>
        <time>1970-01-01T03:53:21.000Z</time>
      </trkpt>
      <trkpt lat="49.54218" lon="5.75437">
        <ele>387</ele>
        <time>1970-01-01T03:53:22.000Z</time>
      </trkpt>
      <trkpt lat="49.54216" lon="5.75431">
        <ele>387</ele>
        <time>1970-01-01T03:53:23.000Z</time>
      </trkpt>
      <trkpt lat="49.54215" lon="5.75423">
        <ele>387</ele>
        <time>1970-01-01T03:53:25.000Z</time>
      </trkpt>
      <trkpt lat="49.54205" lon="5.75399">
        <ele>387.6</ele>
        <time>1970-01-01T03:53:30.000Z</time>
      </trkpt>
      <trkpt lat="49.542" lon="5.75387">
        <ele>387.8</ele>
        <time>1970-01-01T03:53:32.000Z</time>
      </trkpt>
      <trkpt lat="49.54199" lon="5.75381">
        <ele>388</ele>
        <time>1970-01-01T03:53:33.000Z</time>
      </trkpt>
      <trkpt lat="49.54198" lon="5.75376">
        <ele>388.2</ele>
        <time>1970-01-01T03:53:34.000Z</time>
      </trkpt>
      <trkpt lat="49.54197" lon="5.75371">
        <ele>388.4</ele>
        <time>1970-01-01T03:53:35.000Z</time>
      </trkpt>
      <trkpt lat="49.54195" lon="5.75367">
        <ele>388.4</ele>
        <time>1970-01-01T03:53:36.000Z</time>
      </trkpt>
      <trkpt lat="49.54194" lon="5.75364">
        <ele>388.4</ele>
        <time>1970-01-01T03:53:37.000Z</time>
      </trkpt>
      <trkpt lat="49.54193" lon="5.7536">
        <ele>388.4</ele>
        <time>1970-01-01T03:53:38.000Z</time>
      </trkpt>
      <trkpt lat="49.54191" lon="5.75352">
        <ele>388.6</ele>
        <time>1970-01-01T03:53:40.000Z</time>
      </trkpt>
      <trkpt lat="49.5419" lon="5.75324">
        <ele>389</ele>
        <time>1970-01-01T03:53:45.000Z</time>
      </trkpt>
      <trkpt lat="49.54186" lon="5.75312">
        <ele>388.8</ele>
        <time>1970-01-01T03:53:47.000Z</time>
      </trkpt>
      <trkpt lat="49.54184" lon="5.75307">
        <ele>388.8</ele>
        <time>1970-01-01T03:53:48.000Z</time>
      </trkpt>
      <trkpt lat="49.54182" lon="5.753">
        <ele>388.8</ele>
        <time>1970-01-01T03:53:49.000Z</time>
      </trkpt>
      <trkpt lat="49.54173" lon="5.75276">
        <ele>388.8</ele>
        <time>1970-01-01T03:53:52.000Z</time>
      </trkpt>
      <trkpt lat="49.54172" lon="5.7527">
        <ele>388.8</ele>
        <time>1970-01-01T03:53:53.000Z</time>
      </trkpt>
      <trkpt lat="49.54169" lon="5.75249">
        <ele>388.6</ele>
        <time>1970-01-01T03:53:56.000Z</time>
      </trkpt>
      <trkpt lat="49.54166" lon="5.75243">
        <ele>388.6</ele>
        <time>1970-01-01T03:53:57.000Z</time>
      </trkpt>
      <trkpt lat="49.54164" lon="5.75235">
        <ele>388.6</ele>
        <time>1970-01-01T03:53:58.000Z</time>
      </trkpt>
      <trkpt lat="49.54163" lon="5.75228">
        <ele>388.4</ele>
        <time>1970-01-01T03:53:59.000Z</time>
      </trkpt>
      <trkpt lat="49.54162" lon="5.75214">
        <ele>388.2</ele>
        <time>1970-01-01T03:54:01.000Z</time>
      </trkpt>
      <trkpt lat="49.54161" lon="5.75184">
        <ele>387.6</ele>
        <time>1970-01-01T03:54:05.000Z</time>
      </trkpt>
      <trkpt lat="49.54155" lon="5.75167">
        <ele>387</ele>
        <time>1970-01-01T03:54:07.000Z</time>
      </trkpt>
      <trkpt lat="49.54152" lon="5.75158">
        <ele>386.8</ele>
        <time>1970-01-01T03:54:08.000Z</time>
      </trkpt>
      <trkpt lat="49.54149" lon="5.75149">
        <ele>386.6</ele>
        <time>1970-01-01T03:54:09.000Z</time>
      </trkpt>
      <trkpt lat="49.54147" lon="5.7514">
        <ele>386.2</ele>
        <time>1970-01-01T03:54:10.000Z</time>
      </trkpt>
      <trkpt lat="49.54146" lon="5.75131">
        <ele>386.2</ele>
        <time>1970-01-01T03:54:11.000Z</time>
      </trkpt>
      <trkpt lat="49.54146" lon="5.75123">
        <ele>385.6</ele>
        <time>1970-01-01T03:54:12.000Z</time>
      </trkpt>
      <trkpt lat="49.54147" lon="5.75115">
        <ele>385.2</ele>
        <time>1970-01-01T03:54:13.000Z</time>
      </trkpt>
      <trkpt lat="49.54148" lon="5.75109">
        <ele>384.2</ele>
        <time>1970-01-01T03:54:14.000Z</time>
      </trkpt>
      <trkpt lat="49.5415" lon="5.75103">
        <ele>383.8</ele>
        <time>1970-01-01T03:54:15.000Z</time>
      </trkpt>
      <trkpt lat="49.54151" lon="5.75098">
        <ele>383</ele>
        <time>1970-01-01T03:54:16.000Z</time>
      </trkpt>
      <trkpt lat="49.54152" lon="5.75093">
        <ele>382.8</ele>
        <time>1970-01-01T03:54:17.000Z</time>
      </trkpt>
      <trkpt lat="49.54154" lon="5.75089">
        <ele>382.6</ele>
        <time>1970-01-01T03:54:18.000Z</time>
      </trkpt>
      <trkpt lat="49.54156" lon="5.75085">
        <ele>382.4</ele>
        <time>1970-01-01T03:54:19.000Z</time>
      </trkpt>
      <trkpt lat="49.54158" lon="5.7508">
        <ele>382.4</ele>
        <time>1970-01-01T03:54:20.000Z</time>
      </trkpt>
      <trkpt lat="49.5416" lon="5.75075">
        <ele>382.2</ele>
        <time>1970-01-01T03:54:21.000Z</time>
      </trkpt>
      <trkpt lat="49.54164" lon="5.75065">
        <ele>382</ele>
        <time>1970-01-01T03:54:23.000Z</time>
      </trkpt>
      <trkpt lat="49.54166" lon="5.7506">
        <ele>382</ele>
        <time>1970-01-01T03:54:24.000Z</time>
      </trkpt>
      <trkpt lat="49.54171" lon="5.75052">
        <ele>382</ele>
        <time>1970-01-01T03:54:26.000Z</time>
      </trkpt>
      <trkpt lat="49.54174" lon="5.75048">
        <ele>382.2</ele>
        <time>1970-01-01T03:54:27.000Z</time>
      </trkpt>
      <trkpt lat="49.54176" lon="5.75044">
        <ele>382.2</ele>
        <time>1970-01-01T03:54:28.000Z</time>
      </trkpt>
      <trkpt lat="49.54179" lon="5.7504">
        <ele>382.2</ele>
        <time>1970-01-01T03:54:29.000Z</time>
      </trkpt>
      <trkpt lat="49.54181" lon="5.75037">
        <ele>382.4</ele>
        <time>1970-01-01T03:54:30.000Z</time>
      </trkpt>
      <trkpt lat="49.54189" lon="5.75027">
        <ele>382.6</ele>
        <time>1970-01-01T03:54:33.000Z</time>
      </trkpt>
      <trkpt lat="49.54191" lon="5.75023">
        <ele>382.8</ele>
        <time>1970-01-01T03:54:34.000Z</time>
      </trkpt>
      <trkpt lat="49.54194" lon="5.75019">
        <ele>383</ele>
        <time>1970-01-01T03:54:35.000Z</time>
      </trkpt>
      <trkpt lat="49.54197" lon="5.75016">
        <ele>383</ele>
        <time>1970-01-01T03:54:36.000Z</time>
      </trkpt>
      <trkpt lat="49.54207" lon="5.75009">
        <ele>384.2</ele>
        <time>1970-01-01T03:54:39.000Z</time>
      </trkpt>
      <trkpt lat="49.54209" lon="5.75007">
        <ele>384.2</ele>
        <time>1970-01-01T03:54:40.000Z</time>
      </trkpt>
      <trkpt lat="49.5421" lon="5.75004">
        <ele>384.4</ele>
        <time>1970-01-01T03:54:41.000Z</time>
      </trkpt>
      <trkpt lat="49.54213" lon="5.75">
        <ele>384.6</ele>
        <time>1970-01-01T03:54:42.000Z</time>
      </trkpt>
      <trkpt lat="49.54215" lon="5.74996">
        <ele>384.6</ele>
        <time>1970-01-01T03:54:43.000Z</time>
      </trkpt>
      <trkpt lat="49.54217" lon="5.74993">
        <ele>384.8</ele>
        <time>1970-01-01T03:54:44.000Z</time>
      </trkpt>
      <trkpt lat="49.5422" lon="5.7499">
        <ele>385.2</ele>
        <time>1970-01-01T03:54:45.000Z</time>
      </trkpt>
      <trkpt lat="49.54221" lon="5.74988">
        <ele>385.4</ele>
        <time>1970-01-01T03:54:46.000Z</time>
      </trkpt>
      <trkpt lat="49.54223" lon="5.74986">
        <ele>385.6</ele>
        <time>1970-01-01T03:54:47.000Z</time>
      </trkpt>
      <trkpt lat="49.54225" lon="5.74982">
        <ele>386</ele>
        <time>1970-01-01T03:54:48.000Z</time>
      </trkpt>
      <trkpt lat="49.5423" lon="5.74975">
        <ele>386.6</ele>
        <time>1970-01-01T03:54:50.000Z</time>
      </trkpt>
      <trkpt lat="49.54232" lon="5.74972">
        <ele>386.8</ele>
        <time>1970-01-01T03:54:51.000Z</time>
      </trkpt>
      <trkpt lat="49.54234" lon="5.7497">
        <ele>386.8</ele>
        <time>1970-01-01T03:54:52.000Z</time>
      </trkpt>
      <trkpt lat="49.54236" lon="5.74968">
        <ele>387</ele>
        <time>1970-01-01T03:54:53.000Z</time>
      </trkpt>
      <trkpt lat="49.54239" lon="5.74965">
        <ele>387</ele>
        <time>1970-01-01T03:54:54.000Z</time>
      </trkpt>
      <trkpt lat="49.54241" lon="5.74962">
        <ele>387.4</ele>
        <time>1970-01-01T03:54:55.000Z</time>
      </trkpt>
      <trkpt lat="49.54244" lon="5.7496">
        <ele>387.6</ele>
        <time>1970-01-01T03:54:56.000Z</time>
      </trkpt>
      <trkpt lat="49.54246" lon="5.74958">
        <ele>387.8</ele>
        <time>1970-01-01T03:54:57.000Z</time>
      </trkpt>
      <trkpt lat="49.54249" lon="5.74956">
        <ele>387.8</ele>
        <time>1970-01-01T03:54:58.000Z</time>
      </trkpt>
      <trkpt lat="49.54251" lon="5.74954">
        <ele>388</ele>
        <time>1970-01-01T03:54:59.000Z</time>
      </trkpt>
      <trkpt lat="49.54253" lon="5.74951">
        <ele>388</ele>
        <time>1970-01-01T03:55:00.000Z</time>
      </trkpt>
      <trkpt lat="49.54256" lon="5.7495">
        <ele>388</ele>
        <time>1970-01-01T03:55:01.000Z</time>
      </trkpt>
      <trkpt lat="49.54258" lon="5.74948">
        <ele>388.2</ele>
        <time>1970-01-01T03:55:02.000Z</time>
      </trkpt>
      <trkpt lat="49.54261" lon="5.74948">
        <ele>388.2</ele>
        <time>1970-01-01T03:55:03.000Z</time>
      </trkpt>
      <trkpt lat="49.54264" lon="5.74948">
        <ele>388.2</ele>
        <time>1970-01-01T03:55:04.000Z</time>
      </trkpt>
      <trkpt lat="49.54266" lon="5.74947">
        <ele>388.4</ele>
        <time>1970-01-01T03:55:05.000Z</time>
      </trkpt>
      <trkpt lat="49.54269" lon="5.74946">
        <ele>388.4</ele>
        <time>1970-01-01T03:55:06.000Z</time>
      </trkpt>
      <trkpt lat="49.54272" lon="5.74946">
        <ele>388.4</ele>
        <time>1970-01-01T03:55:07.000Z</time>
      </trkpt>
      <trkpt lat="49.54275" lon="5.74945">
        <ele>388.4</ele>
        <time>1970-01-01T03:55:08.000Z</time>
      </trkpt>
      <trkpt lat="49.54277" lon="5.74944">
        <ele>388.4</ele>
        <time>1970-01-01T03:55:09.000Z</time>
      </trkpt>
      <trkpt lat="49.5428" lon="5.74943">
        <ele>388.4</ele>
        <time>1970-01-01T03:55:10.000Z</time>
      </trkpt>
      <trkpt lat="49.54282" lon="5.74942">
        <ele>388.4</ele>
        <time>1970-01-01T03:55:11.000Z</time>
      </trkpt>
      <trkpt lat="49.54284" lon="5.74941">
        <ele>388.4</ele>
        <time>1970-01-01T03:55:12.000Z</time>
      </trkpt>
      <trkpt lat="49.54287" lon="5.7494">
        <ele>388.4</ele>
        <time>1970-01-01T03:55:13.000Z</time>
      </trkpt>
      <trkpt lat="49.5429" lon="5.74939">
        <ele>388.4</ele>
        <time>1970-01-01T03:55:14.000Z</time>
      </trkpt>
      <trkpt lat="49.54293" lon="5.74938">
        <ele>388.4</ele>
        <time>1970-01-01T03:55:15.000Z</time>
      </trkpt>
      <trkpt lat="49.54295" lon="5.74936">
        <ele>388.6</ele>
        <time>1970-01-01T03:55:16.000Z</time>
      </trkpt>
      <trkpt lat="49.54298" lon="5.74934">
        <ele>388.8</ele>
        <time>1970-01-01T03:55:17.000Z</time>
      </trkpt>
      <trkpt lat="49.543" lon="5.74932">
        <ele>389</ele>
        <time>1970-01-01T03:55:18.000Z</time>
      </trkpt>
      <trkpt lat="49.54303" lon="5.7493">
        <ele>389.2</ele>
        <time>1970-01-01T03:55:19.000Z</time>
      </trkpt>
      <trkpt lat="49.54306" lon="5.74929">
        <ele>389.6</ele>
        <time>1970-01-01T03:55:20.000Z</time>
      </trkpt>
      <trkpt lat="49.54309" lon="5.74927">
        <ele>389.6</ele>
        <time>1970-01-01T03:55:21.000Z</time>
      </trkpt>
      <trkpt lat="49.54314" lon="5.74923">
        <ele>389.8</ele>
        <time>1970-01-01T03:55:23.000Z</time>
      </trkpt>
      <trkpt lat="49.54322" lon="5.74919">
        <ele>390.4</ele>
        <time>1970-01-01T03:55:26.000Z</time>
      </trkpt>
      <trkpt lat="49.54324" lon="5.74918">
        <ele>390.4</ele>
        <time>1970-01-01T03:55:27.000Z</time>
      </trkpt>
      <trkpt lat="49.54328" lon="5.74917">
        <ele>390.4</ele>
        <time>1970-01-01T03:55:28.000Z</time>
      </trkpt>
      <trkpt lat="49.54331" lon="5.74916">
        <ele>390.4</ele>
        <time>1970-01-01T03:55:29.000Z</time>
      </trkpt>
      <trkpt lat="49.54334" lon="5.74915">
        <ele>390.4</ele>
        <time>1970-01-01T03:55:30.000Z</time>
      </trkpt>
      <trkpt lat="49.54337" lon="5.74914">
        <ele>390.4</ele>
        <time>1970-01-01T03:55:31.000Z</time>
      </trkpt>
      <trkpt lat="49.54339" lon="5.74913">
        <ele>390.8</ele>
        <time>1970-01-01T03:55:32.000Z</time>
      </trkpt>
      <trkpt lat="49.54342" lon="5.74912">
        <ele>390.6</ele>
        <time>1970-01-01T03:55:33.000Z</time>
      </trkpt>
      <trkpt lat="49.54344" lon="5.74911">
        <ele>391</ele>
        <time>1970-01-01T03:55:34.000Z</time>
      </trkpt>
      <trkpt lat="49.54346" lon="5.7491">
        <ele>391</ele>
        <time>1970-01-01T03:55:35.000Z</time>
      </trkpt>
      <trkpt lat="49.54348" lon="5.74909">
        <ele>390.8</ele>
        <time>1970-01-01T03:55:36.000Z</time>
      </trkpt>
      <trkpt lat="49.5435" lon="5.74909">
        <ele>391</ele>
        <time>1970-01-01T03:55:37.000Z</time>
      </trkpt>
      <trkpt lat="49.54353" lon="5.74908">
        <ele>391.2</ele>
        <time>1970-01-01T03:55:38.000Z</time>
      </trkpt>
      <trkpt lat="49.54355" lon="5.74907">
        <ele>391.2</ele>
        <time>1970-01-01T03:55:39.000Z</time>
      </trkpt>
      <trkpt lat="49.54357" lon="5.74906">
        <ele>391.6</ele>
        <time>1970-01-01T03:55:40.000Z</time>
      </trkpt>
      <trkpt lat="49.54359" lon="5.74904">
        <ele>391.8</ele>
        <time>1970-01-01T03:55:41.000Z</time>
      </trkpt>
      <trkpt lat="49.54361" lon="5.74903">
        <ele>392</ele>
        <time>1970-01-01T03:55:42.000Z</time>
      </trkpt>
      <trkpt lat="49.54363" lon="5.74901">
        <ele>392.2</ele>
        <time>1970-01-01T03:55:43.000Z</time>
      </trkpt>
      <trkpt lat="49.54365" lon="5.749">
        <ele>392.2</ele>
        <time>1970-01-01T03:55:44.000Z</time>
      </trkpt>
      <trkpt lat="49.54367" lon="5.74899">
        <ele>392.4</ele>
        <time>1970-01-01T03:55:45.000Z</time>
      </trkpt>
      <trkpt lat="49.54369" lon="5.74898">
        <ele>392.6</ele>
        <time>1970-01-01T03:55:46.000Z</time>
      </trkpt>
      <trkpt lat="49.5437" lon="5.74897">
        <ele>392.8</ele>
        <time>1970-01-01T03:55:47.000Z</time>
      </trkpt>
      <trkpt lat="49.54372" lon="5.74895">
        <ele>392.8</ele>
        <time>1970-01-01T03:55:48.000Z</time>
      </trkpt>
      <trkpt lat="49.54373" lon="5.74893">
        <ele>393</ele>
        <time>1970-01-01T03:55:49.000Z</time>
      </trkpt>
      <trkpt lat="49.54375" lon="5.74892">
        <ele>393.2</ele>
        <time>1970-01-01T03:55:50.000Z</time>
      </trkpt>
      <trkpt lat="49.54377" lon="5.74891">
        <ele>393.4</ele>
        <time>1970-01-01T03:55:51.000Z</time>
      </trkpt>
      <trkpt lat="49.54379" lon="5.7489">
        <ele>393.6</ele>
        <time>1970-01-01T03:55:52.000Z</time>
      </trkpt>
      <trkpt lat="49.54382" lon="5.74889">
        <ele>393.8</ele>
        <time>1970-01-01T03:55:53.000Z</time>
      </trkpt>
      <trkpt lat="49.54384" lon="5.74887">
        <ele>394.2</ele>
        <time>1970-01-01T03:55:54.000Z</time>
      </trkpt>
      <trkpt lat="49.54387" lon="5.74885">
        <ele>394.2</ele>
        <time>1970-01-01T03:55:55.000Z</time>
      </trkpt>
      <trkpt lat="49.5439" lon="5.74883">
        <ele>394.6</ele>
        <time>1970-01-01T03:55:56.000Z</time>
      </trkpt>
      <trkpt lat="49.54394" lon="5.7488">
        <ele>395</ele>
        <time>1970-01-01T03:55:57.000Z</time>
      </trkpt>
      <trkpt lat="49.54397" lon="5.74878">
        <ele>395.2</ele>
        <time>1970-01-01T03:55:58.000Z</time>
      </trkpt>
      <trkpt lat="49.544" lon="5.74877">
        <ele>395.4</ele>
        <time>1970-01-01T03:55:59.000Z</time>
      </trkpt>
      <trkpt lat="49.54403" lon="5.74874">
        <ele>395.6</ele>
        <time>1970-01-01T03:56:00.000Z</time>
      </trkpt>
      <trkpt lat="49.54406" lon="5.74872">
        <ele>395.8</ele>
        <time>1970-01-01T03:56:01.000Z</time>
      </trkpt>
      <trkpt lat="49.54408" lon="5.74871">
        <ele>395.8</ele>
        <time>1970-01-01T03:56:02.000Z</time>
      </trkpt>
      <trkpt lat="49.5441" lon="5.74869">
        <ele>395.8</ele>
        <time>1970-01-01T03:56:03.000Z</time>
      </trkpt>
      <trkpt lat="49.54412" lon="5.74868">
        <ele>396</ele>
        <time>1970-01-01T03:56:04.000Z</time>
      </trkpt>
      <trkpt lat="49.54415" lon="5.74867">
        <ele>396</ele>
        <time>1970-01-01T03:56:05.000Z</time>
      </trkpt>
      <trkpt lat="49.54418" lon="5.74866">
        <ele>396</ele>
        <time>1970-01-01T03:56:06.000Z</time>
      </trkpt>
      <trkpt lat="49.54421" lon="5.74865">
        <ele>396</ele>
        <time>1970-01-01T03:56:07.000Z</time>
      </trkpt>
      <trkpt lat="49.54422" lon="5.74864">
        <ele>396.2</ele>
        <time>1970-01-01T03:56:08.000Z</time>
      </trkpt>
      <trkpt lat="49.54425" lon="5.74864">
        <ele>396.2</ele>
        <time>1970-01-01T03:56:09.000Z</time>
      </trkpt>
      <trkpt lat="49.54428" lon="5.74863">
        <ele>396.4</ele>
        <time>1970-01-01T03:56:10.000Z</time>
      </trkpt>
      <trkpt lat="49.5443" lon="5.74862">
        <ele>396.4</ele>
        <time>1970-01-01T03:56:11.000Z</time>
      </trkpt>
      <trkpt lat="49.54432" lon="5.74861">
        <ele>396.4</ele>
        <time>1970-01-01T03:56:12.000Z</time>
      </trkpt>
      <trkpt lat="49.54435" lon="5.74859">
        <ele>396.6</ele>
        <time>1970-01-01T03:56:13.000Z</time>
      </trkpt>
      <trkpt lat="49.54438" lon="5.74858">
        <ele>396.6</ele>
        <time>1970-01-01T03:56:14.000Z</time>
      </trkpt>
      <trkpt lat="49.5444" lon="5.74857">
        <ele>396.8</ele>
        <time>1970-01-01T03:56:15.000Z</time>
      </trkpt>
      <trkpt lat="49.54442" lon="5.74856">
        <ele>396.8</ele>
        <time>1970-01-01T03:56:16.000Z</time>
      </trkpt>
      <trkpt lat="49.54444" lon="5.74855">
        <ele>396.8</ele>
        <time>1970-01-01T03:56:17.000Z</time>
      </trkpt>
      <trkpt lat="49.54447" lon="5.74854">
        <ele>396.8</ele>
        <time>1970-01-01T03:56:18.000Z</time>
      </trkpt>
      <trkpt lat="49.54449" lon="5.74853">
        <ele>396.8</ele>
        <time>1970-01-01T03:56:19.000Z</time>
      </trkpt>
      <trkpt lat="49.54451" lon="5.74853">
        <ele>397</ele>
        <time>1970-01-01T03:56:20.000Z</time>
      </trkpt>
      <trkpt lat="49.54454" lon="5.74853">
        <ele>397</ele>
        <time>1970-01-01T03:56:21.000Z</time>
      </trkpt>
      <trkpt lat="49.54456" lon="5.74853">
        <ele>397</ele>
        <time>1970-01-01T03:56:22.000Z</time>
      </trkpt>
      <trkpt lat="49.54458" lon="5.74852">
        <ele>397</ele>
        <time>1970-01-01T03:56:23.000Z</time>
      </trkpt>
      <trkpt lat="49.5446" lon="5.7485">
        <ele>397</ele>
        <time>1970-01-01T03:56:24.000Z</time>
      </trkpt>
      <trkpt lat="49.54462" lon="5.74848">
        <ele>397</ele>
        <time>1970-01-01T03:56:25.000Z</time>
      </trkpt>
      <trkpt lat="49.54462" lon="5.74845">
        <ele>397</ele>
        <time>1970-01-01T03:56:26.000Z</time>
      </trkpt>
      <trkpt lat="49.54462" lon="5.74843">
        <ele>397</ele>
        <time>1970-01-01T03:56:27.000Z</time>
      </trkpt>
      <trkpt lat="49.54459" lon="5.74833">
        <ele>397.2</ele>
        <time>1970-01-01T03:56:30.000Z</time>
      </trkpt>
      <trkpt lat="49.54458" lon="5.74825">
        <ele>397.4</ele>
        <time>1970-01-01T03:56:32.000Z</time>
      </trkpt>
      <trkpt lat="49.54457" lon="5.74822">
        <ele>397.4</ele>
        <time>1970-01-01T03:56:33.000Z</time>
      </trkpt>
      <trkpt lat="49.54456" lon="5.74815">
        <ele>397.4</ele>
        <time>1970-01-01T03:56:35.000Z</time>
      </trkpt>
      <trkpt lat="49.54454" lon="5.74808">
        <ele>397.6</ele>
        <time>1970-01-01T03:56:37.000Z</time>
      </trkpt>
      <trkpt lat="49.54451" lon="5.74795">
        <ele>398.2</ele>
        <time>1970-01-01T03:56:41.000Z</time>
      </trkpt>
      <trkpt lat="49.5445" lon="5.74792">
        <ele>398.4</ele>
        <time>1970-01-01T03:56:42.000Z</time>
      </trkpt>
      <trkpt lat="49.54448" lon="5.7478">
        <ele>398.8</ele>
        <time>1970-01-01T03:56:45.000Z</time>
      </trkpt>
      <trkpt lat="49.54447" lon="5.74776">
        <ele>399</ele>
        <time>1970-01-01T03:56:46.000Z</time>
      </trkpt>
      <trkpt lat="49.54447" lon="5.74772">
        <ele>399</ele>
        <time>1970-01-01T03:56:47.000Z</time>
      </trkpt>
      <trkpt lat="49.54449" lon="5.74767">
        <ele>399.2</ele>
        <time>1970-01-01T03:56:48.000Z</time>
      </trkpt>
      <trkpt lat="49.5445" lon="5.74763">
        <ele>399.4</ele>
        <time>1970-01-01T03:56:49.000Z</time>
      </trkpt>
      <trkpt lat="49.54452" lon="5.7476">
        <ele>399.8</ele>
        <time>1970-01-01T03:56:50.000Z</time>
      </trkpt>
      <trkpt lat="49.54453" lon="5.74757">
        <ele>400.2</ele>
        <time>1970-01-01T03:56:51.000Z</time>
      </trkpt>
      <trkpt lat="49.54454" lon="5.74755">
        <ele>400.4</ele>
        <time>1970-01-01T03:56:52.000Z</time>
      </trkpt>
      <trkpt lat="49.54455" lon="5.74753">
        <ele>400.6</ele>
        <time>1970-01-01T03:56:53.000Z</time>
      </trkpt>
      <trkpt lat="49.54457" lon="5.74751">
        <ele>400.8</ele>
        <time>1970-01-01T03:56:54.000Z</time>
      </trkpt>
      <trkpt lat="49.54458" lon="5.74748">
        <ele>400.8</ele>
        <time>1970-01-01T03:56:55.000Z</time>
      </trkpt>
      <trkpt lat="49.5446" lon="5.74744">
        <ele>401</ele>
        <time>1970-01-01T03:56:56.000Z</time>
      </trkpt>
      <trkpt lat="49.54466" lon="5.74733">
        <ele>401.6</ele>
        <time>1970-01-01T03:57:23.000Z</time>
      </trkpt>
      <trkpt lat="49.54466" lon="5.74732">
        <ele>401.6</ele>
        <time>1970-01-01T03:57:24.000Z</time>
      </trkpt>
      <trkpt lat="49.54467" lon="5.74728">
        <ele>401.6</ele>
        <time>1970-01-01T03:57:25.000Z</time>
      </trkpt>
      <trkpt lat="49.54468" lon="5.74724">
        <ele>401.8</ele>
        <time>1970-01-01T03:57:26.000Z</time>
      </trkpt>
      <trkpt lat="49.5447" lon="5.7472">
        <ele>401.8</ele>
        <time>1970-01-01T03:57:27.000Z</time>
      </trkpt>
      <trkpt lat="49.5447" lon="5.74716">
        <ele>401.8</ele>
        <time>1970-01-01T03:57:28.000Z</time>
      </trkpt>
      <trkpt lat="49.54472" lon="5.74712">
        <ele>402</ele>
        <time>1970-01-01T03:57:29.000Z</time>
      </trkpt>
      <trkpt lat="49.54474" lon="5.74708">
        <ele>402.2</ele>
        <time>1970-01-01T03:57:30.000Z</time>
      </trkpt>
      <trkpt lat="49.54476" lon="5.74703">
        <ele>402.4</ele>
        <time>1970-01-01T03:57:31.000Z</time>
      </trkpt>
      <trkpt lat="49.54479" lon="5.74698">
        <ele>402.4</ele>
        <time>1970-01-01T03:57:32.000Z</time>
      </trkpt>
      <trkpt lat="49.54482" lon="5.74693">
        <ele>402.6</ele>
        <time>1970-01-01T03:57:33.000Z</time>
      </trkpt>
      <trkpt lat="49.54484" lon="5.7469">
        <ele>402.6</ele>
        <time>1970-01-01T03:57:34.000Z</time>
      </trkpt>
      <trkpt lat="49.54485" lon="5.74688">
        <ele>402.6</ele>
        <time>1970-01-01T03:57:35.000Z</time>
      </trkpt>
      <trkpt lat="49.54488" lon="5.74685">
        <ele>402.8</ele>
        <time>1970-01-01T03:57:36.000Z</time>
      </trkpt>
      <trkpt lat="49.54491" lon="5.74682">
        <ele>402.8</ele>
        <time>1970-01-01T03:57:37.000Z</time>
      </trkpt>
      <trkpt lat="49.54495" lon="5.74679">
        <ele>402.8</ele>
        <time>1970-01-01T03:57:38.000Z</time>
      </trkpt>
      <trkpt lat="49.54499" lon="5.74676">
        <ele>402.8</ele>
        <time>1970-01-01T03:57:39.000Z</time>
      </trkpt>
      <trkpt lat="49.54502" lon="5.74673">
        <ele>403</ele>
        <time>1970-01-01T03:57:40.000Z</time>
      </trkpt>
      <trkpt lat="49.54506" lon="5.74669">
        <ele>403.2</ele>
        <time>1970-01-01T03:57:41.000Z</time>
      </trkpt>
      <trkpt lat="49.5451" lon="5.74666">
        <ele>403.4</ele>
        <time>1970-01-01T03:57:42.000Z</time>
      </trkpt>
      <trkpt lat="49.54514" lon="5.74664">
        <ele>403.4</ele>
        <time>1970-01-01T03:57:43.000Z</time>
      </trkpt>
      <trkpt lat="49.54517" lon="5.74662">
        <ele>403.4</ele>
        <time>1970-01-01T03:57:44.000Z</time>
      </trkpt>
      <trkpt lat="49.54521" lon="5.74659">
        <ele>403.4</ele>
        <time>1970-01-01T03:57:45.000Z</time>
      </trkpt>
      <trkpt lat="49.54524" lon="5.74656">
        <ele>403.6</ele>
        <time>1970-01-01T03:57:46.000Z</time>
      </trkpt>
      <trkpt lat="49.54528" lon="5.74653">
        <ele>403.6</ele>
        <time>1970-01-01T03:57:47.000Z</time>
      </trkpt>
      <trkpt lat="49.54532" lon="5.74649">
        <ele>403.8</ele>
        <time>1970-01-01T03:57:48.000Z</time>
      </trkpt>
      <trkpt lat="49.54536" lon="5.74646">
        <ele>404</ele>
        <time>1970-01-01T03:57:49.000Z</time>
      </trkpt>
      <trkpt lat="49.5454" lon="5.74643">
        <ele>404</ele>
        <time>1970-01-01T03:57:50.000Z</time>
      </trkpt>
      <trkpt lat="49.54544" lon="5.74639">
        <ele>404</ele>
        <time>1970-01-01T03:57:51.000Z</time>
      </trkpt>
      <trkpt lat="49.54548" lon="5.74635">
        <ele>404</ele>
        <time>1970-01-01T03:57:52.000Z</time>
      </trkpt>
      <trkpt lat="49.54552" lon="5.74632">
        <ele>404</ele>
        <time>1970-01-01T03:57:53.000Z</time>
      </trkpt>
      <trkpt lat="49.54556" lon="5.7463">
        <ele>404.2</ele>
        <time>1970-01-01T03:57:54.000Z</time>
      </trkpt>
      <trkpt lat="49.54561" lon="5.74626">
        <ele>404.2</ele>
        <time>1970-01-01T03:57:55.000Z</time>
      </trkpt>
      <trkpt lat="49.54566" lon="5.74622">
        <ele>404.2</ele>
        <time>1970-01-01T03:57:56.000Z</time>
      </trkpt>
      <trkpt lat="49.54571" lon="5.7462">
        <ele>404.2</ele>
        <time>1970-01-01T03:57:57.000Z</time>
      </trkpt>
      <trkpt lat="49.54588" lon="5.74608">
        <ele>404.2</ele>
        <time>1970-01-01T03:58:01.000Z</time>
      </trkpt>
      <trkpt lat="49.54605" lon="5.74595">
        <ele>404.2</ele>
        <time>1970-01-01T03:58:05.000Z</time>
      </trkpt>
      <trkpt lat="49.5461" lon="5.74591">
        <ele>404.2</ele>
        <time>1970-01-01T03:58:06.000Z</time>
      </trkpt>
      <trkpt lat="49.54616" lon="5.74584">
        <ele>404</ele>
        <time>1970-01-01T03:58:08.000Z</time>
      </trkpt>
      <trkpt lat="49.54621" lon="5.7458">
        <ele>404</ele>
        <time>1970-01-01T03:58:09.000Z</time>
      </trkpt>
      <trkpt lat="49.54625" lon="5.74577">
        <ele>404</ele>
        <time>1970-01-01T03:58:10.000Z</time>
      </trkpt>
      <trkpt lat="49.54629" lon="5.74575">
        <ele>404</ele>
        <time>1970-01-01T03:58:11.000Z</time>
      </trkpt>
      <trkpt lat="49.54637" lon="5.74568">
        <ele>403.8</ele>
        <time>1970-01-01T03:58:13.000Z</time>
      </trkpt>
      <trkpt lat="49.54646" lon="5.74561">
        <ele>403.8</ele>
        <time>1970-01-01T03:58:15.000Z</time>
      </trkpt>
      <trkpt lat="49.54655" lon="5.74556">
        <ele>403.8</ele>
        <time>1970-01-01T03:58:17.000Z</time>
      </trkpt>
      <trkpt lat="49.54659" lon="5.74552">
        <ele>403.8</ele>
        <time>1970-01-01T03:58:18.000Z</time>
      </trkpt>
      <trkpt lat="49.54669" lon="5.74544">
        <ele>403.8</ele>
        <time>1970-01-01T03:58:20.000Z</time>
      </trkpt>
      <trkpt lat="49.54682" lon="5.74532">
        <ele>403.8</ele>
        <time>1970-01-01T03:58:24.000Z</time>
      </trkpt>
      <trkpt lat="49.54685" lon="5.74529">
        <ele>403.8</ele>
        <time>1970-01-01T03:58:25.000Z</time>
      </trkpt>
      <trkpt lat="49.54693" lon="5.74524">
        <ele>403.6</ele>
        <time>1970-01-01T03:58:27.000Z</time>
      </trkpt>
      <trkpt lat="49.54697" lon="5.74521">
        <ele>403.6</ele>
        <time>1970-01-01T03:58:28.000Z</time>
      </trkpt>
      <trkpt lat="49.54705" lon="5.74517">
        <ele>403.4</ele>
        <time>1970-01-01T03:58:30.000Z</time>
      </trkpt>
      <trkpt lat="49.54714" lon="5.74512">
        <ele>403.2</ele>
        <time>1970-01-01T03:58:32.000Z</time>
      </trkpt>
      <trkpt lat="49.54717" lon="5.7451">
        <ele>403</ele>
        <time>1970-01-01T03:58:33.000Z</time>
      </trkpt>
      <trkpt lat="49.54721" lon="5.74508">
        <ele>402.8</ele>
        <time>1970-01-01T03:58:34.000Z</time>
      </trkpt>
      <trkpt lat="49.54725" lon="5.74506">
        <ele>402.8</ele>
        <time>1970-01-01T03:58:35.000Z</time>
      </trkpt>
      <trkpt lat="49.54729" lon="5.74504">
        <ele>402.6</ele>
        <time>1970-01-01T03:58:36.000Z</time>
      </trkpt>
      <trkpt lat="49.54733" lon="5.74502">
        <ele>402.6</ele>
        <time>1970-01-01T03:58:37.000Z</time>
      </trkpt>
      <trkpt lat="49.54737" lon="5.745">
        <ele>402.4</ele>
        <time>1970-01-01T03:58:38.000Z</time>
      </trkpt>
      <trkpt lat="49.5475" lon="5.74494">
        <ele>402.2</ele>
        <time>1970-01-01T03:58:41.000Z</time>
      </trkpt>
      <trkpt lat="49.54754" lon="5.74492">
        <ele>402.2</ele>
        <time>1970-01-01T03:58:42.000Z</time>
      </trkpt>
      <trkpt lat="49.54758" lon="5.74489">
        <ele>402.2</ele>
        <time>1970-01-01T03:58:43.000Z</time>
      </trkpt>
      <trkpt lat="49.54761" lon="5.74484">
        <ele>402.2</ele>
        <time>1970-01-01T03:58:44.000Z</time>
      </trkpt>
      <trkpt lat="49.54762" lon="5.74478">
        <ele>402.2</ele>
        <time>1970-01-01T03:58:45.000Z</time>
      </trkpt>
      <trkpt lat="49.54761" lon="5.74472">
        <ele>402.2</ele>
        <time>1970-01-01T03:58:46.000Z</time>
      </trkpt>
      <trkpt lat="49.54759" lon="5.74468">
        <ele>402.2</ele>
        <time>1970-01-01T03:58:47.000Z</time>
      </trkpt>
      <trkpt lat="49.54751" lon="5.74454">
        <ele>401.8</ele>
        <time>1970-01-01T03:58:50.000Z</time>
      </trkpt>
      <trkpt lat="49.5475" lon="5.7445">
        <ele>401.6</ele>
        <time>1970-01-01T03:58:51.000Z</time>
      </trkpt>
      <trkpt lat="49.54747" lon="5.74445">
        <ele>401.6</ele>
        <time>1970-01-01T03:58:52.000Z</time>
      </trkpt>
      <trkpt lat="49.54744" lon="5.7444">
        <ele>401.6</ele>
        <time>1970-01-01T03:58:53.000Z</time>
      </trkpt>
      <trkpt lat="49.54735" lon="5.74423">
        <ele>401.6</ele>
        <time>1970-01-01T03:58:56.000Z</time>
      </trkpt>
      <trkpt lat="49.54732" lon="5.74417">
        <ele>401.6</ele>
        <time>1970-01-01T03:58:57.000Z</time>
      </trkpt>
      <trkpt lat="49.54725" lon="5.74403">
        <ele>401.6</ele>
        <time>1970-01-01T03:58:59.000Z</time>
      </trkpt>
      <trkpt lat="49.54724" lon="5.74396">
        <ele>401.6</ele>
        <time>1970-01-01T03:59:00.000Z</time>
      </trkpt>
      <trkpt lat="49.54721" lon="5.74389">
        <ele>401.6</ele>
        <time>1970-01-01T03:59:01.000Z</time>
      </trkpt>
      <trkpt lat="49.54718" lon="5.74381">
        <ele>401.6</ele>
        <time>1970-01-01T03:59:02.000Z</time>
      </trkpt>
      <trkpt lat="49.54714" lon="5.74374">
        <ele>401.6</ele>
        <time>1970-01-01T03:59:03.000Z</time>
      </trkpt>
      <trkpt lat="49.54707" lon="5.74362">
        <ele>401.6</ele>
        <time>1970-01-01T03:59:05.000Z</time>
      </trkpt>
      <trkpt lat="49.54689" lon="5.7434">
        <ele>401.2</ele>
        <time>1970-01-01T03:59:10.000Z</time>
      </trkpt>
      <trkpt lat="49.54685" lon="5.74334">
        <ele>401.2</ele>
        <time>1970-01-01T03:59:11.000Z</time>
      </trkpt>
      <trkpt lat="49.54681" lon="5.74327">
        <ele>401.2</ele>
        <time>1970-01-01T03:59:12.000Z</time>
      </trkpt>
      <trkpt lat="49.54679" lon="5.74319">
        <ele>401.2</ele>
        <time>1970-01-01T03:59:13.000Z</time>
      </trkpt>
      <trkpt lat="49.54677" lon="5.74311">
        <ele>401.2</ele>
        <time>1970-01-01T03:59:14.000Z</time>
      </trkpt>
      <trkpt lat="49.54676" lon="5.74302">
        <ele>400.8</ele>
        <time>1970-01-01T03:59:15.000Z</time>
      </trkpt>
      <trkpt lat="49.54676" lon="5.74293">
        <ele>400.8</ele>
        <time>1970-01-01T03:59:16.000Z</time>
      </trkpt>
      <trkpt lat="49.54677" lon="5.74285">
        <ele>400.8</ele>
        <time>1970-01-01T03:59:17.000Z</time>
      </trkpt>
      <trkpt lat="49.54679" lon="5.74276">
        <ele>400.6</ele>
        <time>1970-01-01T03:59:18.000Z</time>
      </trkpt>
      <trkpt lat="49.54682" lon="5.74267">
        <ele>400.6</ele>
        <time>1970-01-01T03:59:19.000Z</time>
      </trkpt>
      <trkpt lat="49.54684" lon="5.74257">
        <ele>400.6</ele>
        <time>1970-01-01T03:59:20.000Z</time>
      </trkpt>
      <trkpt lat="49.54686" lon="5.74248">
        <ele>400</ele>
        <time>1970-01-01T03:59:21.000Z</time>
      </trkpt>
      <trkpt lat="49.54687" lon="5.74238">
        <ele>399.6</ele>
        <time>1970-01-01T03:59:22.000Z</time>
      </trkpt>
      <trkpt lat="49.54689" lon="5.74221">
        <ele>398.8</ele>
        <time>1970-01-01T03:59:24.000Z</time>
      </trkpt>
      <trkpt lat="49.54691" lon="5.74214">
        <ele>398.6</ele>
        <time>1970-01-01T03:59:25.000Z</time>
      </trkpt>
      <trkpt lat="49.54692" lon="5.74207">
        <ele>398.4</ele>
        <time>1970-01-01T03:59:26.000Z</time>
      </trkpt>
      <trkpt lat="49.54695" lon="5.742">
        <ele>398.4</ele>
        <time>1970-01-01T03:59:27.000Z</time>
      </trkpt>
      <trkpt lat="49.54698" lon="5.74192">
        <ele>398.2</ele>
        <time>1970-01-01T03:59:28.000Z</time>
      </trkpt>
      <trkpt lat="49.54702" lon="5.74183">
        <ele>398</ele>
        <time>1970-01-01T03:59:29.000Z</time>
      </trkpt>
      <trkpt lat="49.54705" lon="5.74176">
        <ele>398</ele>
        <time>1970-01-01T03:59:30.000Z</time>
      </trkpt>
      <trkpt lat="49.54708" lon="5.74167">
        <ele>397.6</ele>
        <time>1970-01-01T03:59:31.000Z</time>
      </trkpt>
      <trkpt lat="49.5471" lon="5.74158">
        <ele>397.8</ele>
        <time>1970-01-01T03:59:32.000Z</time>
      </trkpt>
      <trkpt lat="49.54711" lon="5.7415">
        <ele>397.6</ele>
        <time>1970-01-01T03:59:33.000Z</time>
      </trkpt>
      <trkpt lat="49.54709" lon="5.7414">
        <ele>397.6</ele>
        <time>1970-01-01T03:59:34.000Z</time>
      </trkpt>
      <trkpt lat="49.54707" lon="5.7413">
        <ele>397.4</ele>
        <time>1970-01-01T03:59:35.000Z</time>
      </trkpt>
      <trkpt lat="49.54705" lon="5.74119">
        <ele>397.4</ele>
        <time>1970-01-01T03:59:36.000Z</time>
      </trkpt>
      <trkpt lat="49.54704" lon="5.74111">
        <ele>396.6</ele>
        <time>1970-01-01T03:59:37.000Z</time>
      </trkpt>
      <trkpt lat="49.54703" lon="5.74103">
        <ele>396.2</ele>
        <time>1970-01-01T03:59:38.000Z</time>
      </trkpt>
      <trkpt lat="49.54699" lon="5.74095">
        <ele>395.8</ele>
        <time>1970-01-01T03:59:39.000Z</time>
      </trkpt>
      <trkpt lat="49.54697" lon="5.74088">
        <ele>395.4</ele>
        <time>1970-01-01T03:59:40.000Z</time>
      </trkpt>
      <trkpt lat="49.54694" lon="5.74081">
        <ele>395.2</ele>
        <time>1970-01-01T03:59:41.000Z</time>
      </trkpt>
      <trkpt lat="49.54689" lon="5.74068">
        <ele>394.6</ele>
        <time>1970-01-01T03:59:43.000Z</time>
      </trkpt>
      <trkpt lat="49.54687" lon="5.7406">
        <ele>394.4</ele>
        <time>1970-01-01T03:59:44.000Z</time>
      </trkpt>
      <trkpt lat="49.54687" lon="5.74053">
        <ele>394.4</ele>
        <time>1970-01-01T03:59:45.000Z</time>
      </trkpt>
      <trkpt lat="49.54684" lon="5.74041">
        <ele>394.2</ele>
        <time>1970-01-01T03:59:47.000Z</time>
      </trkpt>
      <trkpt lat="49.54686" lon="5.74027">
        <ele>394</ele>
        <time>1970-01-01T03:59:49.000Z</time>
      </trkpt>
      <trkpt lat="49.54685" lon="5.74008">
        <ele>393.8</ele>
        <time>1970-01-01T03:59:52.000Z</time>
      </trkpt>
      <trkpt lat="49.54686" lon="5.74002">
        <ele>393.6</ele>
        <time>1970-01-01T03:59:53.000Z</time>
      </trkpt>
      <trkpt lat="49.54688" lon="5.7399">
        <ele>393</ele>
        <time>1970-01-01T03:59:55.000Z</time>
      </trkpt>
      <trkpt lat="49.54688" lon="5.73981">
        <ele>392.8</ele>
        <time>1970-01-01T03:59:56.000Z</time>
      </trkpt>
      <trkpt lat="49.54689" lon="5.73974">
        <ele>392.8</ele>
        <time>1970-01-01T03:59:57.000Z</time>
      </trkpt>
      <trkpt lat="49.5469" lon="5.73967">
        <ele>392.6</ele>
        <time>1970-01-01T03:59:58.000Z</time>
      </trkpt>
      <trkpt lat="49.54691" lon="5.73959">
        <ele>392.6</ele>
        <time>1970-01-01T03:59:59.000Z</time>
      </trkpt>
      <trkpt lat="49.54691" lon="5.73952">
        <ele>392.4</ele>
        <time>1970-01-01T04:00:00.000Z</time>
      </trkpt>
      <trkpt lat="49.54692" lon="5.73946">
        <ele>392.4</ele>
        <time>1970-01-01T04:00:01.000Z</time>
      </trkpt>
      <trkpt lat="49.54692" lon="5.73939">
        <ele>392.4</ele>
        <time>1970-01-01T04:00:02.000Z</time>
      </trkpt>
      <trkpt lat="49.54692" lon="5.73931">
        <ele>392.4</ele>
        <time>1970-01-01T04:00:03.000Z</time>
      </trkpt>
      <trkpt lat="49.54692" lon="5.73924">
        <ele>391.8</ele>
        <time>1970-01-01T04:00:04.000Z</time>
      </trkpt>
      <trkpt lat="49.54691" lon="5.73909">
        <ele>391.6</ele>
        <time>1970-01-01T04:00:06.000Z</time>
      </trkpt>
      <trkpt lat="49.54692" lon="5.73902">
        <ele>391.2</ele>
        <time>1970-01-01T04:00:07.000Z</time>
      </trkpt>
      <trkpt lat="49.54693" lon="5.73896">
        <ele>391</ele>
        <time>1970-01-01T04:00:08.000Z</time>
      </trkpt>
      <trkpt lat="49.54695" lon="5.73891">
        <ele>390.8</ele>
        <time>1970-01-01T04:00:09.000Z</time>
      </trkpt>
      <trkpt lat="49.54697" lon="5.73888">
        <ele>390.8</ele>
        <time>1970-01-01T04:00:10.000Z</time>
      </trkpt>
      <trkpt lat="49.54698" lon="5.73887">
        <ele>390.6</ele>
        <time>1970-01-01T04:00:11.000Z</time>
      </trkpt>
      <trkpt lat="49.547" lon="5.73885">
        <ele>389.8</ele>
        <time>1970-01-01T04:00:12.000Z</time>
      </trkpt>
      <trkpt lat="49.54704" lon="5.73883">
        <ele>389.6</ele>
        <time>1970-01-01T04:00:13.000Z</time>
      </trkpt>
      <trkpt lat="49.54708" lon="5.73881">
        <ele>389.2</ele>
        <time>1970-01-01T04:00:14.000Z</time>
      </trkpt>
      <trkpt lat="49.54712" lon="5.73879">
        <ele>389</ele>
        <time>1970-01-01T04:00:15.000Z</time>
      </trkpt>
      <trkpt lat="49.54721" lon="5.73875">
        <ele>388.4</ele>
        <time>1970-01-01T04:00:17.000Z</time>
      </trkpt>
      <trkpt lat="49.5473" lon="5.73874">
        <ele>387.8</ele>
        <time>1970-01-01T04:00:19.000Z</time>
      </trkpt>
      <trkpt lat="49.54738" lon="5.73874">
        <ele>387.4</ele>
        <time>1970-01-01T04:00:21.000Z</time>
      </trkpt>
      <trkpt lat="49.54742" lon="5.73874">
        <ele>387.4</ele>
        <time>1970-01-01T04:00:22.000Z</time>
      </trkpt>
      <trkpt lat="49.54745" lon="5.73874">
        <ele>387</ele>
        <time>1970-01-01T04:00:23.000Z</time>
      </trkpt>
      <trkpt lat="49.54755" lon="5.73875">
        <ele>386.4</ele>
        <time>1970-01-01T04:00:26.000Z</time>
      </trkpt>
      <trkpt lat="49.54758" lon="5.73876">
        <ele>385.6</ele>
        <time>1970-01-01T04:00:27.000Z</time>
      </trkpt>
      <trkpt lat="49.54761" lon="5.73877">
        <ele>384.6</ele>
        <time>1970-01-01T04:00:28.000Z</time>
      </trkpt>
      <trkpt lat="49.54767" lon="5.73877">
        <ele>383.6</ele>
        <time>1970-01-01T04:00:29.000Z</time>
      </trkpt>
      <trkpt lat="49.54774" lon="5.73874">
        <ele>382.4</ele>
        <time>1970-01-01T04:00:30.000Z</time>
      </trkpt>
      <trkpt lat="49.54782" lon="5.73869">
        <ele>381.8</ele>
        <time>1970-01-01T04:00:31.000Z</time>
      </trkpt>
      <trkpt lat="49.54789" lon="5.73862">
        <ele>380.8</ele>
        <time>1970-01-01T04:00:32.000Z</time>
      </trkpt>
      <trkpt lat="49.54797" lon="5.73852">
        <ele>380.6</ele>
        <time>1970-01-01T04:00:33.000Z</time>
      </trkpt>
      <trkpt lat="49.54803" lon="5.73842">
        <ele>379.4</ele>
        <time>1970-01-01T04:00:34.000Z</time>
      </trkpt>
      <trkpt lat="49.54808" lon="5.73832">
        <ele>378.6</ele>
        <time>1970-01-01T04:00:35.000Z</time>
      </trkpt>
      <trkpt lat="49.54815" lon="5.73821">
        <ele>377</ele>
        <time>1970-01-01T04:00:36.000Z</time>
      </trkpt>
      <trkpt lat="49.54821" lon="5.73811">
        <ele>375.6</ele>
        <time>1970-01-01T04:00:37.000Z</time>
      </trkpt>
      <trkpt lat="49.54827" lon="5.73801">
        <ele>374.8</ele>
        <time>1970-01-01T04:00:38.000Z</time>
      </trkpt>
      <trkpt lat="49.54834" lon="5.73791">
        <ele>373.6</ele>
        <time>1970-01-01T04:00:39.000Z</time>
      </trkpt>
      <trkpt lat="49.54846" lon="5.73775">
        <ele>371.6</ele>
        <time>1970-01-01T04:00:41.000Z</time>
      </trkpt>
      <trkpt lat="49.54851" lon="5.73767">
        <ele>370.2</ele>
        <time>1970-01-01T04:00:42.000Z</time>
      </trkpt>
      <trkpt lat="49.54855" lon="5.73757">
        <ele>368</ele>
        <time>1970-01-01T04:00:43.000Z</time>
      </trkpt>
      <trkpt lat="49.54864" lon="5.7374">
        <ele>365.8</ele>
        <time>1970-01-01T04:00:45.000Z</time>
      </trkpt>
      <trkpt lat="49.54869" lon="5.73729">
        <ele>364.2</ele>
        <time>1970-01-01T04:00:46.000Z</time>
      </trkpt>
      <trkpt lat="49.54874" lon="5.7372">
        <ele>363.6</ele>
        <time>1970-01-01T04:00:47.000Z</time>
      </trkpt>
      <trkpt lat="49.54879" lon="5.73712">
        <ele>362.6</ele>
        <time>1970-01-01T04:00:48.000Z</time>
      </trkpt>
      <trkpt lat="49.54889" lon="5.737">
        <ele>361</ele>
        <time>1970-01-01T04:00:50.000Z</time>
      </trkpt>
      <trkpt lat="49.54901" lon="5.73688">
        <ele>358.8</ele>
        <time>1970-01-01T04:00:52.000Z</time>
      </trkpt>
      <trkpt lat="49.54904" lon="5.73683">
        <ele>358</ele>
        <time>1970-01-01T04:00:53.000Z</time>
      </trkpt>
      <trkpt lat="49.54908" lon="5.73679">
        <ele>356.8</ele>
        <time>1970-01-01T04:00:54.000Z</time>
      </trkpt>
      <trkpt lat="49.54911" lon="5.73675">
        <ele>355.2</ele>
        <time>1970-01-01T04:00:55.000Z</time>
      </trkpt>
      <trkpt lat="49.54913" lon="5.73672">
        <ele>354.6</ele>
        <time>1970-01-01T04:00:56.000Z</time>
      </trkpt>
      <trkpt lat="49.54915" lon="5.73669">
        <ele>353.8</ele>
        <time>1970-01-01T04:00:57.000Z</time>
      </trkpt>
      <trkpt lat="49.54918" lon="5.73662">
        <ele>352</ele>
        <time>1970-01-01T04:00:59.000Z</time>
      </trkpt>
      <trkpt lat="49.54921" lon="5.73658">
        <ele>351.6</ele>
        <time>1970-01-01T04:01:00.000Z</time>
      </trkpt>
      <trkpt lat="49.54925" lon="5.73654">
        <ele>350.2</ele>
        <time>1970-01-01T04:01:01.000Z</time>
      </trkpt>
      <trkpt lat="49.54937" lon="5.73645">
        <ele>348.4</ele>
        <time>1970-01-01T04:01:03.000Z</time>
      </trkpt>
      <trkpt lat="49.54944" lon="5.73638">
        <ele>347.6</ele>
        <time>1970-01-01T04:01:04.000Z</time>
      </trkpt>
      <trkpt lat="49.54948" lon="5.73633">
        <ele>347.4</ele>
        <time>1970-01-01T04:01:05.000Z</time>
      </trkpt>
      <trkpt lat="49.54951" lon="5.73627">
        <ele>346.4</ele>
        <time>1970-01-01T04:01:06.000Z</time>
      </trkpt>
      <trkpt lat="49.54954" lon="5.73624">
        <ele>346</ele>
        <time>1970-01-01T04:01:07.000Z</time>
      </trkpt>
      <trkpt lat="49.54954" lon="5.73621">
        <ele>345.2</ele>
        <time>1970-01-01T04:01:08.000Z</time>
      </trkpt>
      <trkpt lat="49.54953" lon="5.73618">
        <ele>344.8</ele>
        <time>1970-01-01T04:01:09.000Z</time>
      </trkpt>
      <trkpt lat="49.54952" lon="5.73616">
        <ele>343.8</ele>
        <time>1970-01-01T04:01:10.000Z</time>
      </trkpt>
      <trkpt lat="49.5495" lon="5.73615">
        <ele>342.6</ele>
        <time>1970-01-01T04:01:11.000Z</time>
      </trkpt>
      <trkpt lat="49.54948" lon="5.73612">
        <ele>342.4</ele>
        <time>1970-01-01T04:01:12.000Z</time>
      </trkpt>
      <trkpt lat="49.54948" lon="5.7361">
        <ele>342</ele>
        <time>1970-01-01T04:01:13.000Z</time>
      </trkpt>
      <trkpt lat="49.54949" lon="5.73609">
        <ele>342</ele>
        <time>1970-01-01T04:01:14.000Z</time>
      </trkpt>
      <trkpt lat="49.54947" lon="5.73606">
        <ele>341.8</ele>
        <time>1970-01-01T04:01:15.000Z</time>
      </trkpt>
      <trkpt lat="49.54946" lon="5.73604">
        <ele>342</ele>
        <time>1970-01-01T04:01:16.000Z</time>
      </trkpt>
      <trkpt lat="49.54945" lon="5.73601">
        <ele>342</ele>
        <time>1970-01-01T04:01:17.000Z</time>
      </trkpt>
      <trkpt lat="49.54943" lon="5.736">
        <ele>342</ele>
        <time>1970-01-01T04:01:18.000Z</time>
      </trkpt>
      <trkpt lat="49.54942" lon="5.73599">
        <ele>342.2</ele>
        <time>1970-01-01T04:01:19.000Z</time>
      </trkpt>
      <trkpt lat="49.54935" lon="5.73591">
        <ele>343.2</ele>
        <time>1970-01-01T04:01:23.000Z</time>
      </trkpt>
      <trkpt lat="49.54934" lon="5.73588">
        <ele>343.6</ele>
        <time>1970-01-01T04:01:24.000Z</time>
      </trkpt>
      <trkpt lat="49.54934" lon="5.73585">
        <ele>343.6</ele>
        <time>1970-01-01T04:01:25.000Z</time>
      </trkpt>
      <trkpt lat="49.54933" lon="5.73582">
        <ele>343.8</ele>
        <time>1970-01-01T04:01:26.000Z</time>
      </trkpt>
      <trkpt lat="49.54932" lon="5.73579">
        <ele>343.8</ele>
        <time>1970-01-01T04:01:27.000Z</time>
      </trkpt>
      <trkpt lat="49.54932" lon="5.73575">
        <ele>344.2</ele>
        <time>1970-01-01T04:01:28.000Z</time>
      </trkpt>
      <trkpt lat="49.54928" lon="5.73566">
        <ele>344.6</ele>
        <time>1970-01-01T04:01:31.000Z</time>
      </trkpt>
      <trkpt lat="49.54927" lon="5.73564">
        <ele>344.6</ele>
        <time>1970-01-01T04:01:32.000Z</time>
      </trkpt>
      <trkpt lat="49.54925" lon="5.73562">
        <ele>344.8</ele>
        <time>1970-01-01T04:01:33.000Z</time>
      </trkpt>
      <trkpt lat="49.54925" lon="5.73559">
        <ele>344.8</ele>
        <time>1970-01-01T04:01:34.000Z</time>
      </trkpt>
      <trkpt lat="49.54924" lon="5.73556">
        <ele>345</ele>
        <time>1970-01-01T04:01:35.000Z</time>
      </trkpt>
      <trkpt lat="49.54924" lon="5.73552">
        <ele>345</ele>
        <time>1970-01-01T04:01:36.000Z</time>
      </trkpt>
      <trkpt lat="49.54923" lon="5.73548">
        <ele>345</ele>
        <time>1970-01-01T04:01:37.000Z</time>
      </trkpt>
      <trkpt lat="49.54921" lon="5.73543">
        <ele>345</ele>
        <time>1970-01-01T04:01:38.000Z</time>
      </trkpt>
      <trkpt lat="49.54918" lon="5.73534">
        <ele>345</ele>
        <time>1970-01-01T04:01:40.000Z</time>
      </trkpt>
      <trkpt lat="49.54915" lon="5.73529">
        <ele>345</ele>
        <time>1970-01-01T04:01:41.000Z</time>
      </trkpt>
      <trkpt lat="49.54914" lon="5.73525">
        <ele>345</ele>
        <time>1970-01-01T04:01:42.000Z</time>
      </trkpt>
      <trkpt lat="49.54912" lon="5.73521">
        <ele>345</ele>
        <time>1970-01-01T04:01:43.000Z</time>
      </trkpt>
      <trkpt lat="49.54911" lon="5.73516">
        <ele>345</ele>
        <time>1970-01-01T04:01:44.000Z</time>
      </trkpt>
      <trkpt lat="49.54911" lon="5.73512">
        <ele>345</ele>
        <time>1970-01-01T04:01:45.000Z</time>
      </trkpt>
      <trkpt lat="49.54911" lon="5.73508">
        <ele>345</ele>
        <time>1970-01-01T04:01:46.000Z</time>
      </trkpt>
      <trkpt lat="49.5491" lon="5.73505">
        <ele>345</ele>
        <time>1970-01-01T04:01:47.000Z</time>
      </trkpt>
      <trkpt lat="49.54909" lon="5.73502">
        <ele>345</ele>
        <time>1970-01-01T04:01:48.000Z</time>
      </trkpt>
      <trkpt lat="49.54909" lon="5.73499">
        <ele>344.4</ele>
        <time>1970-01-01T04:04:57.000Z</time>
      </trkpt>
      <trkpt lat="49.54909" lon="5.73499">
        <ele>344.4</ele>
        <time>1970-01-01T04:04:58.000Z</time>
      </trkpt>
      <trkpt lat="49.54909" lon="5.73499">
        <ele>344.4</ele>
        <time>1970-01-01T04:04:59.000Z</time>
      </trkpt>
      <trkpt lat="49.54906" lon="5.73485">
        <ele>344.6</ele>
        <time>1970-01-01T04:05:03.000Z</time>
      </trkpt>
      <trkpt lat="49.54905" lon="5.73479">
        <ele>344.6</ele>
        <time>1970-01-01T04:05:04.000Z</time>
      </trkpt>
      <trkpt lat="49.54903" lon="5.73465">
        <ele>344.6</ele>
        <time>1970-01-01T04:05:06.000Z</time>
      </trkpt>
      <trkpt lat="49.54902" lon="5.73457">
        <ele>344.6</ele>
        <time>1970-01-01T04:05:07.000Z</time>
      </trkpt>
      <trkpt lat="49.549" lon="5.7345">
        <ele>344.6</ele>
        <time>1970-01-01T04:05:08.000Z</time>
      </trkpt>
      <trkpt lat="49.54898" lon="5.73444">
        <ele>344.6</ele>
        <time>1970-01-01T04:05:09.000Z</time>
      </trkpt>
      <trkpt lat="49.54897" lon="5.73439">
        <ele>344.4</ele>
        <time>1970-01-01T04:05:10.000Z</time>
      </trkpt>
      <trkpt lat="49.54896" lon="5.73435">
        <ele>344.2</ele>
        <time>1970-01-01T04:05:11.000Z</time>
      </trkpt>
      <trkpt lat="49.54895" lon="5.73432">
        <ele>344</ele>
        <time>1970-01-01T04:05:12.000Z</time>
      </trkpt>
      <trkpt lat="49.54895" lon="5.73429">
        <ele>343.8</ele>
        <time>1970-01-01T04:05:13.000Z</time>
      </trkpt>
      <trkpt lat="49.54895" lon="5.73424">
        <ele>343.6</ele>
        <time>1970-01-01T04:05:14.000Z</time>
      </trkpt>
      <trkpt lat="49.54892" lon="5.73415">
        <ele>343.4</ele>
        <time>1970-01-01T04:05:16.000Z</time>
      </trkpt>
      <trkpt lat="49.54891" lon="5.73409">
        <ele>343.2</ele>
        <time>1970-01-01T04:05:17.000Z</time>
      </trkpt>
      <trkpt lat="49.54887" lon="5.73399">
        <ele>343.2</ele>
        <time>1970-01-01T04:05:19.000Z</time>
      </trkpt>
      <trkpt lat="49.54884" lon="5.73392">
        <ele>343</ele>
        <time>1970-01-01T04:05:20.000Z</time>
      </trkpt>
      <trkpt lat="49.54882" lon="5.73387">
        <ele>343</ele>
        <time>1970-01-01T04:05:21.000Z</time>
      </trkpt>
      <trkpt lat="49.5488" lon="5.73382">
        <ele>343</ele>
        <time>1970-01-01T04:05:22.000Z</time>
      </trkpt>
      <trkpt lat="49.54878" lon="5.73377">
        <ele>343</ele>
        <time>1970-01-01T04:05:23.000Z</time>
      </trkpt>
      <trkpt lat="49.54876" lon="5.73372">
        <ele>343.2</ele>
        <time>1970-01-01T04:05:24.000Z</time>
      </trkpt>
      <trkpt lat="49.54874" lon="5.73368">
        <ele>343.2</ele>
        <time>1970-01-01T04:05:25.000Z</time>
      </trkpt>
      <trkpt lat="49.54873" lon="5.73364">
        <ele>343.4</ele>
        <time>1970-01-01T04:05:26.000Z</time>
      </trkpt>
      <trkpt lat="49.5487" lon="5.73355">
        <ele>343.8</ele>
        <time>1970-01-01T04:05:28.000Z</time>
      </trkpt>
      <trkpt lat="49.54867" lon="5.73347">
        <ele>344</ele>
        <time>1970-01-01T04:05:30.000Z</time>
      </trkpt>
      <trkpt lat="49.54862" lon="5.73342">
        <ele>344.2</ele>
        <time>1970-01-01T04:05:32.000Z</time>
      </trkpt>
      <trkpt lat="49.54861" lon="5.73339">
        <ele>344.4</ele>
        <time>1970-01-01T04:05:33.000Z</time>
      </trkpt>
      <trkpt lat="49.54861" lon="5.73337">
        <ele>344.6</ele>
        <time>1970-01-01T04:05:34.000Z</time>
      </trkpt>
      <trkpt lat="49.5486" lon="5.73335">
        <ele>344.8</ele>
        <time>1970-01-01T04:05:35.000Z</time>
      </trkpt>
      <trkpt lat="49.54859" lon="5.73334">
        <ele>345.2</ele>
        <time>1970-01-01T04:05:36.000Z</time>
      </trkpt>
      <trkpt lat="49.54858" lon="5.73331">
        <ele>345.2</ele>
        <time>1970-01-01T04:05:37.000Z</time>
      </trkpt>
      <trkpt lat="49.54857" lon="5.73329">
        <ele>345.4</ele>
        <time>1970-01-01T04:05:38.000Z</time>
      </trkpt>
      <trkpt lat="49.54856" lon="5.73326">
        <ele>345.6</ele>
        <time>1970-01-01T04:05:39.000Z</time>
      </trkpt>
      <trkpt lat="49.54855" lon="5.73325">
        <ele>346</ele>
        <time>1970-01-01T04:05:40.000Z</time>
      </trkpt>
      <trkpt lat="49.54855" lon="5.73321">
        <ele>346</ele>
        <time>1970-01-01T04:05:41.000Z</time>
      </trkpt>
      <trkpt lat="49.54854" lon="5.73318">
        <ele>346.2</ele>
        <time>1970-01-01T04:05:42.000Z</time>
      </trkpt>
      <trkpt lat="49.54852" lon="5.73314">
        <ele>346.6</ele>
        <time>1970-01-01T04:05:43.000Z</time>
      </trkpt>
      <trkpt lat="49.5485" lon="5.73309">
        <ele>347.2</ele>
        <time>1970-01-01T04:05:45.000Z</time>
      </trkpt>
      <trkpt lat="49.54849" lon="5.73308">
        <ele>347.4</ele>
        <time>1970-01-01T04:05:46.000Z</time>
      </trkpt>
      <trkpt lat="49.54848" lon="5.73306">
        <ele>347.6</ele>
        <time>1970-01-01T04:05:47.000Z</time>
      </trkpt>
      <trkpt lat="49.54846" lon="5.73303">
        <ele>347.8</ele>
        <time>1970-01-01T04:05:48.000Z</time>
      </trkpt>
      <trkpt lat="49.54845" lon="5.733">
        <ele>348.2</ele>
        <time>1970-01-01T04:05:49.000Z</time>
      </trkpt>
      <trkpt lat="49.54845" lon="5.73297">
        <ele>348.6</ele>
        <time>1970-01-01T04:05:50.000Z</time>
      </trkpt>
      <trkpt lat="49.54845" lon="5.73295">
        <ele>348.8</ele>
        <time>1970-01-01T04:05:51.000Z</time>
      </trkpt>
      <trkpt lat="49.54844" lon="5.73293">
        <ele>349.4</ele>
        <time>1970-01-01T04:05:52.000Z</time>
      </trkpt>
      <trkpt lat="49.54843" lon="5.73291">
        <ele>349.6</ele>
        <time>1970-01-01T04:05:53.000Z</time>
      </trkpt>
      <trkpt lat="49.54842" lon="5.73288">
        <ele>350</ele>
        <time>1970-01-01T04:05:54.000Z</time>
      </trkpt>
      <trkpt lat="49.54841" lon="5.73286">
        <ele>350.2</ele>
        <time>1970-01-01T04:05:55.000Z</time>
      </trkpt>
      <trkpt lat="49.5484" lon="5.73284">
        <ele>350.4</ele>
        <time>1970-01-01T04:05:56.000Z</time>
      </trkpt>
      <trkpt lat="49.54839" lon="5.73282">
        <ele>350.4</ele>
        <time>1970-01-01T04:05:57.000Z</time>
      </trkpt>
      <trkpt lat="49.54838" lon="5.7328">
        <ele>350.8</ele>
        <time>1970-01-01T04:05:58.000Z</time>
      </trkpt>
      <trkpt lat="49.54837" lon="5.73278">
        <ele>350.8</ele>
        <time>1970-01-01T04:05:59.000Z</time>
      </trkpt>
      <trkpt lat="49.54837" lon="5.73276">
        <ele>351</ele>
        <time>1970-01-01T04:06:00.000Z</time>
      </trkpt>
      <trkpt lat="49.54836" lon="5.73274">
        <ele>351.2</ele>
        <time>1970-01-01T04:06:01.000Z</time>
      </trkpt>
      <trkpt lat="49.54835" lon="5.73272">
        <ele>351.2</ele>
        <time>1970-01-01T04:06:02.000Z</time>
      </trkpt>
      <trkpt lat="49.54835" lon="5.7327">
        <ele>351.4</ele>
        <time>1970-01-01T04:06:03.000Z</time>
      </trkpt>
      <trkpt lat="49.54834" lon="5.73268">
        <ele>351.4</ele>
        <time>1970-01-01T04:06:04.000Z</time>
      </trkpt>
      <trkpt lat="49.54834" lon="5.73266">
        <ele>351.8</ele>
        <time>1970-01-01T04:06:05.000Z</time>
      </trkpt>
      <trkpt lat="49.54834" lon="5.73265">
        <ele>351.8</ele>
        <time>1970-01-01T04:06:06.000Z</time>
      </trkpt>
      <trkpt lat="49.54833" lon="5.73263">
        <ele>352.2</ele>
        <time>1970-01-01T04:06:07.000Z</time>
      </trkpt>
      <trkpt lat="49.54833" lon="5.7326">
        <ele>353</ele>
        <time>1970-01-01T04:06:08.000Z</time>
      </trkpt>
      <trkpt lat="49.54834" lon="5.73258">
        <ele>353.2</ele>
        <time>1970-01-01T04:06:09.000Z</time>
      </trkpt>
      <trkpt lat="49.54834" lon="5.73256">
        <ele>353.8</ele>
        <time>1970-01-01T04:06:10.000Z</time>
      </trkpt>
      <trkpt lat="49.54835" lon="5.73252">
        <ele>354</ele>
        <time>1970-01-01T04:06:11.000Z</time>
      </trkpt>
      <trkpt lat="49.54837" lon="5.73248">
        <ele>354.4</ele>
        <time>1970-01-01T04:06:12.000Z</time>
      </trkpt>
      <trkpt lat="49.54838" lon="5.73244">
        <ele>354.4</ele>
        <time>1970-01-01T04:06:13.000Z</time>
      </trkpt>
      <trkpt lat="49.5484" lon="5.7324">
        <ele>354.6</ele>
        <time>1970-01-01T04:06:14.000Z</time>
      </trkpt>
      <trkpt lat="49.54842" lon="5.73235">
        <ele>354.8</ele>
        <time>1970-01-01T04:06:15.000Z</time>
      </trkpt>
      <trkpt lat="49.54842" lon="5.73229">
        <ele>355</ele>
        <time>1970-01-01T04:06:16.000Z</time>
      </trkpt>
      <trkpt lat="49.54843" lon="5.73224">
        <ele>355.2</ele>
        <time>1970-01-01T04:06:17.000Z</time>
      </trkpt>
      <trkpt lat="49.54843" lon="5.73219">
        <ele>355.2</ele>
        <time>1970-01-01T04:06:18.000Z</time>
      </trkpt>
      <trkpt lat="49.54843" lon="5.73215">
        <ele>355.2</ele>
        <time>1970-01-01T04:06:19.000Z</time>
      </trkpt>
      <trkpt lat="49.54841" lon="5.7321">
        <ele>355.2</ele>
        <time>1970-01-01T04:06:20.000Z</time>
      </trkpt>
      <trkpt lat="49.5484" lon="5.73207">
        <ele>355.2</ele>
        <time>1970-01-01T04:06:21.000Z</time>
      </trkpt>
      <trkpt lat="49.54839" lon="5.73202">
        <ele>355.2</ele>
        <time>1970-01-01T04:06:22.000Z</time>
      </trkpt>
      <trkpt lat="49.54838" lon="5.73199">
        <ele>355.2</ele>
        <time>1970-01-01T04:06:23.000Z</time>
      </trkpt>
      <trkpt lat="49.54839" lon="5.73195">
        <ele>355.2</ele>
        <time>1970-01-01T04:06:24.000Z</time>
      </trkpt>
      <trkpt lat="49.5484" lon="5.7319">
        <ele>355.4</ele>
        <time>1970-01-01T04:06:25.000Z</time>
      </trkpt>
      <trkpt lat="49.5484" lon="5.73185">
        <ele>355.4</ele>
        <time>1970-01-01T04:06:26.000Z</time>
      </trkpt>
      <trkpt lat="49.5484" lon="5.73179">
        <ele>355.4</ele>
        <time>1970-01-01T04:06:27.000Z</time>
      </trkpt>
      <trkpt lat="49.54839" lon="5.73173">
        <ele>355.4</ele>
        <time>1970-01-01T04:06:28.000Z</time>
      </trkpt>
      <trkpt lat="49.5484" lon="5.73167">
        <ele>355.4</ele>
        <time>1970-01-01T04:06:29.000Z</time>
      </trkpt>
      <trkpt lat="49.54841" lon="5.73162">
        <ele>355.4</ele>
        <time>1970-01-01T04:06:30.000Z</time>
      </trkpt>
      <trkpt lat="49.54842" lon="5.73156">
        <ele>355.4</ele>
        <time>1970-01-01T04:06:31.000Z</time>
      </trkpt>
      <trkpt lat="49.54845" lon="5.73151">
        <ele>355.4</ele>
        <time>1970-01-01T04:06:32.000Z</time>
      </trkpt>
      <trkpt lat="49.54846" lon="5.73146">
        <ele>355.6</ele>
        <time>1970-01-01T04:06:33.000Z</time>
      </trkpt>
      <trkpt lat="49.54846" lon="5.73142">
        <ele>355.8</ele>
        <time>1970-01-01T04:06:34.000Z</time>
      </trkpt>
      <trkpt lat="49.54847" lon="5.73137">
        <ele>356</ele>
        <time>1970-01-01T04:06:35.000Z</time>
      </trkpt>
      <trkpt lat="49.54846" lon="5.73133">
        <ele>356</ele>
        <time>1970-01-01T04:06:36.000Z</time>
      </trkpt>
      <trkpt lat="49.54846" lon="5.73127">
        <ele>356.2</ele>
        <time>1970-01-01T04:06:37.000Z</time>
      </trkpt>
      <trkpt lat="49.54845" lon="5.73123">
        <ele>356.2</ele>
        <time>1970-01-01T04:06:38.000Z</time>
      </trkpt>
      <trkpt lat="49.54847" lon="5.73095">
        <ele>356.2</ele>
        <time>1970-01-01T04:06:43.000Z</time>
      </trkpt>
      <trkpt lat="49.54848" lon="5.73089">
        <ele>356.2</ele>
        <time>1970-01-01T04:06:44.000Z</time>
      </trkpt>
      <trkpt lat="49.54851" lon="5.73077">
        <ele>356.2</ele>
        <time>1970-01-01T04:06:45.000Z</time>
      </trkpt>
      <trkpt lat="49.54854" lon="5.73064">
        <ele>356.2</ele>
        <time>1970-01-01T04:06:48.000Z</time>
      </trkpt>
      <trkpt lat="49.54858" lon="5.73034">
        <ele>356.2</ele>
        <time>1970-01-01T04:06:52.000Z</time>
      </trkpt>
      <trkpt lat="49.54858" lon="5.73034">
        <ele>356.2</ele>
        <time>1970-01-01T04:06:53.000Z</time>
      </trkpt>
      <trkpt lat="49.54861" lon="5.73029">
        <ele>356.2</ele>
        <time>1970-01-01T04:06:54.000Z</time>
      </trkpt>
      <trkpt lat="49.54867" lon="5.73017">
        <ele>356.2</ele>
        <time>1970-01-01T04:06:57.000Z</time>
      </trkpt>
      <trkpt lat="49.54868" lon="5.7301">
        <ele>356.2</ele>
        <time>1970-01-01T04:06:58.000Z</time>
      </trkpt>
      <trkpt lat="49.54872" lon="5.73008">
        <ele>356.2</ele>
        <time>1970-01-01T04:06:59.000Z</time>
      </trkpt>
      <trkpt lat="49.54874" lon="5.73004">
        <ele>356</ele>
        <time>1970-01-01T04:07:00.000Z</time>
      </trkpt>
      <trkpt lat="49.54875" lon="5.73">
        <ele>356</ele>
        <time>1970-01-01T04:07:01.000Z</time>
      </trkpt>
      <trkpt lat="49.54876" lon="5.72983">
        <ele>356</ele>
        <time>1970-01-01T04:07:03.000Z</time>
      </trkpt>
      <trkpt lat="49.5488" lon="5.72974">
        <ele>355.6</ele>
        <time>1970-01-01T04:07:05.000Z</time>
      </trkpt>
      <trkpt lat="49.54884" lon="5.72965">
        <ele>355.2</ele>
        <time>1970-01-01T04:07:06.000Z</time>
      </trkpt>
      <trkpt lat="49.54903" lon="5.72929">
        <ele>354.6</ele>
        <time>1970-01-01T04:07:09.000Z</time>
      </trkpt>
      <trkpt lat="49.54913" lon="5.72914">
        <ele>354</ele>
        <time>1970-01-01T04:07:11.000Z</time>
      </trkpt>
      <trkpt lat="49.54917" lon="5.72908">
        <ele>353.6</ele>
        <time>1970-01-01T04:07:12.000Z</time>
      </trkpt>
      <trkpt lat="49.54922" lon="5.72904">
        <ele>352.6</ele>
        <time>1970-01-01T04:07:13.000Z</time>
      </trkpt>
      <trkpt lat="49.54922" lon="5.72904">
        <ele>352</ele>
        <time>1970-01-01T04:07:14.000Z</time>
      </trkpt>
      <trkpt lat="49.54928" lon="5.729">
        <ele>350.6</ele>
        <time>1970-01-01T04:07:15.000Z</time>
      </trkpt>
      <trkpt lat="49.54935" lon="5.72897">
        <ele>349.2</ele>
        <time>1970-01-01T04:07:16.000Z</time>
      </trkpt>
      <trkpt lat="49.54946" lon="5.72893">
        <ele>347.8</ele>
        <time>1970-01-01T04:07:17.000Z</time>
      </trkpt>
      <trkpt lat="49.54946" lon="5.72893">
        <ele>345.6</ele>
        <time>1970-01-01T04:07:18.000Z</time>
      </trkpt>
      <trkpt lat="49.54958" lon="5.72888">
        <ele>344.8</ele>
        <time>1970-01-01T04:07:19.000Z</time>
      </trkpt>
      <trkpt lat="49.54961" lon="5.72888">
        <ele>343.4</ele>
        <time>1970-01-01T04:07:20.000Z</time>
      </trkpt>
      <trkpt lat="49.54964" lon="5.72889">
        <ele>342.6</ele>
        <time>1970-01-01T04:07:21.000Z</time>
      </trkpt>
      <trkpt lat="49.54968" lon="5.72891">
        <ele>340.4</ele>
        <time>1970-01-01T04:07:22.000Z</time>
      </trkpt>
      <trkpt lat="49.54968" lon="5.72891">
        <ele>339.6</ele>
        <time>1970-01-01T04:07:23.000Z</time>
      </trkpt>
      <trkpt lat="49.54977" lon="5.72892">
        <ele>338.6</ele>
        <time>1970-01-01T04:07:24.000Z</time>
      </trkpt>
      <trkpt lat="49.54992" lon="5.72887">
        <ele>337.2</ele>
        <time>1970-01-01T04:07:26.000Z</time>
      </trkpt>
      <trkpt lat="49.54992" lon="5.72887">
        <ele>335.4</ele>
        <time>1970-01-01T04:07:27.000Z</time>
      </trkpt>
      <trkpt lat="49.54999" lon="5.72885">
        <ele>334.2</ele>
        <time>1970-01-01T04:07:28.000Z</time>
      </trkpt>
      <trkpt lat="49.55007" lon="5.72878">
        <ele>332.6</ele>
        <time>1970-01-01T04:07:29.000Z</time>
      </trkpt>
      <trkpt lat="49.5501" lon="5.72875">
        <ele>332.2</ele>
        <time>1970-01-01T04:07:30.000Z</time>
      </trkpt>
      <trkpt lat="49.55014" lon="5.72873">
        <ele>331.2</ele>
        <time>1970-01-01T04:07:31.000Z</time>
      </trkpt>
      <trkpt lat="49.55016" lon="5.72871">
        <ele>330</ele>
        <time>1970-01-01T04:07:32.000Z</time>
      </trkpt>
      <trkpt lat="49.5502" lon="5.72869">
        <ele>327.6</ele>
        <time>1970-01-01T04:07:34.000Z</time>
      </trkpt>
      <trkpt lat="49.55035" lon="5.72865">
        <ele>326.8</ele>
        <time>1970-01-01T04:07:35.000Z</time>
      </trkpt>
      <trkpt lat="49.55035" lon="5.72865">
        <ele>325.8</ele>
        <time>1970-01-01T04:07:36.000Z</time>
      </trkpt>
      <trkpt lat="49.55052" lon="5.72863">
        <ele>325.4</ele>
        <time>1970-01-01T04:07:37.000Z</time>
      </trkpt>
      <trkpt lat="49.5506" lon="5.72863">
        <ele>324.4</ele>
        <time>1970-01-01T04:07:39.000Z</time>
      </trkpt>
      <trkpt lat="49.55079" lon="5.72863">
        <ele>323.2</ele>
        <time>1970-01-01T04:07:40.000Z</time>
      </trkpt>
      <trkpt lat="49.55087" lon="5.72862">
        <ele>322.6</ele>
        <time>1970-01-01T04:07:41.000Z</time>
      </trkpt>
      <trkpt lat="49.55087" lon="5.72862">
        <ele>321.8</ele>
        <time>1970-01-01T04:07:42.000Z</time>
      </trkpt>
      <trkpt lat="49.55094" lon="5.72862">
        <ele>320.6</ele>
        <time>1970-01-01T04:07:43.000Z</time>
      </trkpt>
      <trkpt lat="49.55107" lon="5.72859">
        <ele>319.6</ele>
        <time>1970-01-01T04:07:44.000Z</time>
      </trkpt>
      <trkpt lat="49.55116" lon="5.72855">
        <ele>318.4</ele>
        <time>1970-01-01T04:07:45.000Z</time>
      </trkpt>
      <trkpt lat="49.55123" lon="5.72849">
        <ele>317.6</ele>
        <time>1970-01-01T04:07:46.000Z</time>
      </trkpt>
      <trkpt lat="49.55129" lon="5.72842">
        <ele>314.8</ele>
        <time>1970-01-01T04:07:47.000Z</time>
      </trkpt>
      <trkpt lat="49.55134" lon="5.72836">
        <ele>313.6</ele>
        <time>1970-01-01T04:07:48.000Z</time>
      </trkpt>
      <trkpt lat="49.55139" lon="5.72827">
        <ele>312.2</ele>
        <time>1970-01-01T04:07:49.000Z</time>
      </trkpt>
      <trkpt lat="49.55139" lon="5.72827">
        <ele>311.6</ele>
        <time>1970-01-01T04:07:50.000Z</time>
      </trkpt>
      <trkpt lat="49.55147" lon="5.72806">
        <ele>311.4</ele>
        <time>1970-01-01T04:07:51.000Z</time>
      </trkpt>
      <trkpt lat="49.5559" lon="5.72773">
        <ele>263</ele>
      </trkpt>
      <trkpt lat="49.55719" lon="5.72763">
        <ele>259.9</ele>
      </trkpt>
      <trkpt lat="49.5587" lon="5.72767">
        <ele>259.1</ele>
      </trkpt>
      <trkpt lat="49.55872" lon="5.72823">
        <ele>259.5</ele>
      </trkpt>
      <trkpt lat="49.55867" lon="5.72892">
        <ele>260.3</ele>
      </trkpt>
      <trkpt lat="49.55859" lon="5.73005">
        <ele>261.5</ele>
      </trkpt>
      <trkpt lat="49.55871" lon="5.73117">
        <ele>262.9</ele>
      </trkpt>
      <trkpt lat="49.55872" lon="5.73312">
        <ele>266.8</ele>
      </trkpt>
      <trkpt lat="49.55833" lon="5.73458">
        <ele>267.5</ele>
      </trkpt>
      <trkpt lat="49.55823" lon="5.73488">
        <ele>267.3</ele>
      </trkpt>
      <trkpt lat="49.55821" lon="5.73536">
        <ele>268.4</ele>
      </trkpt>
      <trkpt lat="49.55769" lon="5.73577">
        <ele>269.8</ele>
      </trkpt>
      <trkpt lat="49.55753" lon="5.73598">
        <ele>270</ele>
      </trkpt>
      <trkpt lat="49.55732" lon="5.73573">
        <ele>270.5</ele>
      </trkpt>
      <trkpt lat="49.55661" lon="5.73623">
        <ele>272</ele>
      </trkpt>
      <trkpt lat="49.55651" lon="5.73637">
        <ele>272.1</ele>
      </trkpt>
      <trkpt lat="49.55638" lon="5.73659">
        <ele>272.2</ele>
      </trkpt>
      <trkpt lat="49.55633" lon="5.7368">
        <ele>273.4</ele>
      </trkpt>
      <trkpt lat="49.5564" lon="5.73737">
        <ele>274.1</ele>
      </trkpt>
      <trkpt lat="49.55646" lon="5.73771">
        <ele>274.5</ele>
      </trkpt>
      <trkpt lat="49.55645" lon="5.73836">
        <ele>273.4</ele>
      </trkpt>
      <trkpt lat="49.55638" lon="5.73906">
        <ele>272.8</ele>
      </trkpt>
      <trkpt lat="49.5567" lon="5.73934">
        <ele>269.9</ele>
      </trkpt>
      <trkpt lat="49.55628" lon="5.7422">
        <ele>269.2</ele>
      </trkpt>
      <trkpt lat="49.55635" lon="5.74232">
        <ele>269</ele>
      </trkpt>
      <trkpt lat="49.5566" lon="5.74241">
        <ele>267.8</ele>
      </trkpt>
      <trkpt lat="49.55673" lon="5.74433">
        <ele>267.6</ele>
      </trkpt>
      <trkpt lat="49.5569" lon="5.74579">
        <ele>269.6</ele>
      </trkpt>
      <trkpt lat="49.55826" lon="5.74552">
        <ele>266.1</ele>
      </trkpt>
      <trkpt lat="49.55848" lon="5.74583">
        <ele>266.7</ele>
      </trkpt>
    </trkseg>
  </trk>
</gpx>